<?xml version="1.0" encoding="UTF-8"?>
<gpx xmlns="http://www.topografix.com/GPX/1/1"
     creator="GpsDump 4.79"
     version="1.1"
     xmlns:xsi="http://www.w3.org/2001/XMLSchema-instance"
     xsi:schemaLocation="http://www.topografix.com/GPX/1/1 http://www.topografix.com/GPX/1/1/gpx.xsd">
  <metadata>
    <link href="http://www.gethome.no/stein.sorensen/">
      <text>GPS dump for www.flightlog.org</text>
    </link>
    <time>2015-04-29T13:08:45Z</time>
    <bounds minlat="43.273300" minlon="-4.328750" maxlat="43.309467" maxlon="-4.139817"/>
  </metadata>
  <trk>
    <name>Track 001</name>
    <trkseg>
      <trkpt lat="43.291467" lon="-4.141500">
        <ele>779.0</ele>
        <time>2015-04-28T13:03:13Z</time>
      </trkpt>
      <trkpt lat="43.291517" lon="-4.141483">
        <ele>779.0</ele>
        <time>2015-04-28T13:03:14Z</time>
      </trkpt>
      <trkpt lat="43.291550" lon="-4.141467">
        <ele>778.0</ele>
        <time>2015-04-28T13:03:15Z</time>
      </trkpt>
      <trkpt lat="43.291600" lon="-4.141433">
        <ele>778.0</ele>
        <time>2015-04-28T13:03:16Z</time>
      </trkpt>
      <trkpt lat="43.291650" lon="-4.141400">
        <ele>778.0</ele>
        <time>2015-04-28T13:03:17Z</time>
      </trkpt>
      <trkpt lat="43.291733" lon="-4.141450">
        <ele>778.0</ele>
        <time>2015-04-28T13:03:18Z</time>
      </trkpt>
      <trkpt lat="43.291783" lon="-4.141483">
        <ele>778.0</ele>
        <time>2015-04-28T13:03:19Z</time>
      </trkpt>
      <trkpt lat="43.291833" lon="-4.141500">
        <ele>778.0</ele>
        <time>2015-04-28T13:03:20Z</time>
      </trkpt>
      <trkpt lat="43.291850" lon="-4.141500">
        <ele>778.0</ele>
        <time>2015-04-28T13:03:21Z</time>
      </trkpt>
      <trkpt lat="43.291867" lon="-4.141517">
        <ele>778.0</ele>
        <time>2015-04-28T13:03:22Z</time>
      </trkpt>
      <trkpt lat="43.291883" lon="-4.141517">
        <ele>778.0</ele>
        <time>2015-04-28T13:03:23Z</time>
      </trkpt>
      <trkpt lat="43.291917" lon="-4.141533">
        <ele>778.0</ele>
        <time>2015-04-28T13:03:24Z</time>
      </trkpt>
      <trkpt lat="43.291950" lon="-4.141517">
        <ele>779.0</ele>
        <time>2015-04-28T13:03:25Z</time>
      </trkpt>
      <trkpt lat="43.291967" lon="-4.141500">
        <ele>779.0</ele>
        <time>2015-04-28T13:03:26Z</time>
      </trkpt>
      <trkpt lat="43.291983" lon="-4.141467">
        <ele>779.0</ele>
        <time>2015-04-28T13:03:27Z</time>
      </trkpt>
      <trkpt lat="43.292000" lon="-4.141433">
        <ele>779.0</ele>
        <time>2015-04-28T13:03:28Z</time>
      </trkpt>
      <trkpt lat="43.292017" lon="-4.141417">
        <ele>779.0</ele>
        <time>2015-04-28T13:03:29Z</time>
      </trkpt>
      <trkpt lat="43.292033" lon="-4.141383">
        <ele>779.0</ele>
        <time>2015-04-28T13:03:30Z</time>
      </trkpt>
      <trkpt lat="43.292050" lon="-4.141317">
        <ele>779.0</ele>
        <time>2015-04-28T13:03:31Z</time>
      </trkpt>
      <trkpt lat="43.292067" lon="-4.141267">
        <ele>779.0</ele>
        <time>2015-04-28T13:03:32Z</time>
      </trkpt>
      <trkpt lat="43.292083" lon="-4.141217">
        <ele>779.0</ele>
        <time>2015-04-28T13:03:33Z</time>
      </trkpt>
      <trkpt lat="43.292100" lon="-4.141167">
        <ele>779.0</ele>
        <time>2015-04-28T13:03:34Z</time>
      </trkpt>
      <trkpt lat="43.292117" lon="-4.141100">
        <ele>779.0</ele>
        <time>2015-04-28T13:03:35Z</time>
      </trkpt>
      <trkpt lat="43.292117" lon="-4.141067">
        <ele>779.0</ele>
        <time>2015-04-28T13:03:36Z</time>
      </trkpt>
      <trkpt lat="43.292133" lon="-4.141050">
        <ele>780.0</ele>
        <time>2015-04-28T13:03:37Z</time>
      </trkpt>
      <trkpt lat="43.292117" lon="-4.141000">
        <ele>780.0</ele>
        <time>2015-04-28T13:03:38Z</time>
      </trkpt>
      <trkpt lat="43.292117" lon="-4.140967">
        <ele>780.0</ele>
        <time>2015-04-28T13:03:39Z</time>
      </trkpt>
      <trkpt lat="43.292117" lon="-4.140933">
        <ele>780.0</ele>
        <time>2015-04-28T13:03:40Z</time>
      </trkpt>
      <trkpt lat="43.292117" lon="-4.140900">
        <ele>780.0</ele>
        <time>2015-04-28T13:03:41Z</time>
      </trkpt>
      <trkpt lat="43.292117" lon="-4.140850">
        <ele>781.0</ele>
        <time>2015-04-28T13:03:42Z</time>
      </trkpt>
      <trkpt lat="43.292133" lon="-4.140800">
        <ele>781.0</ele>
        <time>2015-04-28T13:03:43Z</time>
      </trkpt>
      <trkpt lat="43.292150" lon="-4.140750">
        <ele>781.0</ele>
        <time>2015-04-28T13:03:44Z</time>
      </trkpt>
      <trkpt lat="43.292183" lon="-4.140717">
        <ele>782.0</ele>
        <time>2015-04-28T13:03:45Z</time>
      </trkpt>
      <trkpt lat="43.292233" lon="-4.140683">
        <ele>782.0</ele>
        <time>2015-04-28T13:03:46Z</time>
      </trkpt>
      <trkpt lat="43.292250" lon="-4.140700">
        <ele>783.0</ele>
        <time>2015-04-28T13:03:47Z</time>
      </trkpt>
      <trkpt lat="43.292250" lon="-4.140683">
        <ele>784.0</ele>
        <time>2015-04-28T13:03:48Z</time>
      </trkpt>
      <trkpt lat="43.292267" lon="-4.140667">
        <ele>785.0</ele>
        <time>2015-04-28T13:03:49Z</time>
      </trkpt>
      <trkpt lat="43.292300" lon="-4.140633">
        <ele>786.0</ele>
        <time>2015-04-28T13:03:50Z</time>
      </trkpt>
      <trkpt lat="43.292333" lon="-4.140600">
        <ele>786.0</ele>
        <time>2015-04-28T13:03:51Z</time>
      </trkpt>
      <trkpt lat="43.292350" lon="-4.140567">
        <ele>786.0</ele>
        <time>2015-04-28T13:03:52Z</time>
      </trkpt>
      <trkpt lat="43.292367" lon="-4.140517">
        <ele>787.0</ele>
        <time>2015-04-28T13:03:53Z</time>
      </trkpt>
      <trkpt lat="43.292400" lon="-4.140483">
        <ele>787.0</ele>
        <time>2015-04-28T13:03:54Z</time>
      </trkpt>
      <trkpt lat="43.292417" lon="-4.140483">
        <ele>787.0</ele>
        <time>2015-04-28T13:03:55Z</time>
      </trkpt>
      <trkpt lat="43.292450" lon="-4.140500">
        <ele>787.0</ele>
        <time>2015-04-28T13:03:56Z</time>
      </trkpt>
      <trkpt lat="43.292500" lon="-4.140500">
        <ele>788.0</ele>
        <time>2015-04-28T13:03:57Z</time>
      </trkpt>
      <trkpt lat="43.292550" lon="-4.140517">
        <ele>788.0</ele>
        <time>2015-04-28T13:03:58Z</time>
      </trkpt>
      <trkpt lat="43.292600" lon="-4.140500">
        <ele>788.0</ele>
        <time>2015-04-28T13:03:59Z</time>
      </trkpt>
      <trkpt lat="43.292650" lon="-4.140483">
        <ele>789.0</ele>
        <time>2015-04-28T13:04:00Z</time>
      </trkpt>
      <trkpt lat="43.292700" lon="-4.140450">
        <ele>789.0</ele>
        <time>2015-04-28T13:04:01Z</time>
      </trkpt>
      <trkpt lat="43.292733" lon="-4.140450">
        <ele>789.0</ele>
        <time>2015-04-28T13:04:02Z</time>
      </trkpt>
      <trkpt lat="43.292767" lon="-4.140417">
        <ele>789.0</ele>
        <time>2015-04-28T13:04:03Z</time>
      </trkpt>
      <trkpt lat="43.292800" lon="-4.140400">
        <ele>789.0</ele>
        <time>2015-04-28T13:04:04Z</time>
      </trkpt>
      <trkpt lat="43.292867" lon="-4.140383">
        <ele>789.0</ele>
        <time>2015-04-28T13:04:05Z</time>
      </trkpt>
      <trkpt lat="43.292917" lon="-4.140367">
        <ele>789.0</ele>
        <time>2015-04-28T13:04:06Z</time>
      </trkpt>
      <trkpt lat="43.292967" lon="-4.140350">
        <ele>790.0</ele>
        <time>2015-04-28T13:04:07Z</time>
      </trkpt>
      <trkpt lat="43.293017" lon="-4.140333">
        <ele>790.0</ele>
        <time>2015-04-28T13:04:08Z</time>
      </trkpt>
      <trkpt lat="43.293050" lon="-4.140317">
        <ele>790.0</ele>
        <time>2015-04-28T13:04:09Z</time>
      </trkpt>
      <trkpt lat="43.293100" lon="-4.140300">
        <ele>790.0</ele>
        <time>2015-04-28T13:04:10Z</time>
      </trkpt>
      <trkpt lat="43.293150" lon="-4.140283">
        <ele>790.0</ele>
        <time>2015-04-28T13:04:11Z</time>
      </trkpt>
      <trkpt lat="43.293200" lon="-4.140283">
        <ele>790.0</ele>
        <time>2015-04-28T13:04:12Z</time>
      </trkpt>
      <trkpt lat="43.293250" lon="-4.140267">
        <ele>790.0</ele>
        <time>2015-04-28T13:04:13Z</time>
      </trkpt>
      <trkpt lat="43.293283" lon="-4.140233">
        <ele>790.0</ele>
        <time>2015-04-28T13:04:14Z</time>
      </trkpt>
      <trkpt lat="43.293333" lon="-4.140217">
        <ele>790.0</ele>
        <time>2015-04-28T13:04:15Z</time>
      </trkpt>
      <trkpt lat="43.293367" lon="-4.140183">
        <ele>790.0</ele>
        <time>2015-04-28T13:04:16Z</time>
      </trkpt>
      <trkpt lat="43.293400" lon="-4.140150">
        <ele>790.0</ele>
        <time>2015-04-28T13:04:17Z</time>
      </trkpt>
      <trkpt lat="43.293433" lon="-4.140117">
        <ele>790.0</ele>
        <time>2015-04-28T13:04:18Z</time>
      </trkpt>
      <trkpt lat="43.293467" lon="-4.140083">
        <ele>790.0</ele>
        <time>2015-04-28T13:04:19Z</time>
      </trkpt>
      <trkpt lat="43.293500" lon="-4.140050">
        <ele>790.0</ele>
        <time>2015-04-28T13:04:20Z</time>
      </trkpt>
      <trkpt lat="43.293550" lon="-4.140033">
        <ele>790.0</ele>
        <time>2015-04-28T13:04:21Z</time>
      </trkpt>
      <trkpt lat="43.293617" lon="-4.140017">
        <ele>790.0</ele>
        <time>2015-04-28T13:04:22Z</time>
      </trkpt>
      <trkpt lat="43.293667" lon="-4.140017">
        <ele>790.0</ele>
        <time>2015-04-28T13:04:23Z</time>
      </trkpt>
      <trkpt lat="43.293750" lon="-4.140017">
        <ele>790.0</ele>
        <time>2015-04-28T13:04:24Z</time>
      </trkpt>
      <trkpt lat="43.293817" lon="-4.140017">
        <ele>790.0</ele>
        <time>2015-04-28T13:04:25Z</time>
      </trkpt>
      <trkpt lat="43.293867" lon="-4.140033">
        <ele>790.0</ele>
        <time>2015-04-28T13:04:26Z</time>
      </trkpt>
      <trkpt lat="43.293917" lon="-4.140033">
        <ele>790.0</ele>
        <time>2015-04-28T13:04:27Z</time>
      </trkpt>
      <trkpt lat="43.293967" lon="-4.140067">
        <ele>790.0</ele>
        <time>2015-04-28T13:04:28Z</time>
      </trkpt>
      <trkpt lat="43.294000" lon="-4.140083">
        <ele>790.0</ele>
        <time>2015-04-28T13:04:29Z</time>
      </trkpt>
      <trkpt lat="43.294033" lon="-4.140100">
        <ele>790.0</ele>
        <time>2015-04-28T13:04:30Z</time>
      </trkpt>
      <trkpt lat="43.294050" lon="-4.140100">
        <ele>790.0</ele>
        <time>2015-04-28T13:04:31Z</time>
      </trkpt>
      <trkpt lat="43.294067" lon="-4.140117">
        <ele>790.0</ele>
        <time>2015-04-28T13:04:32Z</time>
      </trkpt>
      <trkpt lat="43.294117" lon="-4.140150">
        <ele>790.0</ele>
        <time>2015-04-28T13:04:33Z</time>
      </trkpt>
      <trkpt lat="43.294167" lon="-4.140150">
        <ele>790.0</ele>
        <time>2015-04-28T13:04:34Z</time>
      </trkpt>
      <trkpt lat="43.294233" lon="-4.140150">
        <ele>790.0</ele>
        <time>2015-04-28T13:04:35Z</time>
      </trkpt>
      <trkpt lat="43.294300" lon="-4.140167">
        <ele>790.0</ele>
        <time>2015-04-28T13:04:36Z</time>
      </trkpt>
      <trkpt lat="43.294367" lon="-4.140183">
        <ele>789.0</ele>
        <time>2015-04-28T13:04:37Z</time>
      </trkpt>
      <trkpt lat="43.294433" lon="-4.140183">
        <ele>789.0</ele>
        <time>2015-04-28T13:04:38Z</time>
      </trkpt>
      <trkpt lat="43.294500" lon="-4.140183">
        <ele>789.0</ele>
        <time>2015-04-28T13:04:39Z</time>
      </trkpt>
      <trkpt lat="43.294567" lon="-4.140200">
        <ele>789.0</ele>
        <time>2015-04-28T13:04:40Z</time>
      </trkpt>
      <trkpt lat="43.294617" lon="-4.140200">
        <ele>788.0</ele>
        <time>2015-04-28T13:04:41Z</time>
      </trkpt>
      <trkpt lat="43.294700" lon="-4.140217">
        <ele>788.0</ele>
        <time>2015-04-28T13:04:42Z</time>
      </trkpt>
      <trkpt lat="43.294767" lon="-4.140217">
        <ele>787.0</ele>
        <time>2015-04-28T13:04:43Z</time>
      </trkpt>
      <trkpt lat="43.294850" lon="-4.140217">
        <ele>785.0</ele>
        <time>2015-04-28T13:04:44Z</time>
      </trkpt>
      <trkpt lat="43.294917" lon="-4.140200">
        <ele>785.0</ele>
        <time>2015-04-28T13:04:45Z</time>
      </trkpt>
      <trkpt lat="43.294983" lon="-4.140200">
        <ele>785.0</ele>
        <time>2015-04-28T13:04:46Z</time>
      </trkpt>
      <trkpt lat="43.295050" lon="-4.140200">
        <ele>784.0</ele>
        <time>2015-04-28T13:04:47Z</time>
      </trkpt>
      <trkpt lat="43.295117" lon="-4.140200">
        <ele>784.0</ele>
        <time>2015-04-28T13:04:48Z</time>
      </trkpt>
      <trkpt lat="43.295183" lon="-4.140233">
        <ele>782.0</ele>
        <time>2015-04-28T13:04:49Z</time>
      </trkpt>
      <trkpt lat="43.295267" lon="-4.140267">
        <ele>782.0</ele>
        <time>2015-04-28T13:04:50Z</time>
      </trkpt>
      <trkpt lat="43.295333" lon="-4.140283">
        <ele>781.0</ele>
        <time>2015-04-28T13:04:51Z</time>
      </trkpt>
      <trkpt lat="43.295417" lon="-4.140317">
        <ele>780.0</ele>
        <time>2015-04-28T13:04:52Z</time>
      </trkpt>
      <trkpt lat="43.295483" lon="-4.140317">
        <ele>779.0</ele>
        <time>2015-04-28T13:04:53Z</time>
      </trkpt>
      <trkpt lat="43.295533" lon="-4.140300">
        <ele>778.0</ele>
        <time>2015-04-28T13:04:54Z</time>
      </trkpt>
      <trkpt lat="43.295600" lon="-4.140300">
        <ele>775.0</ele>
        <time>2015-04-28T13:04:55Z</time>
      </trkpt>
      <trkpt lat="43.295650" lon="-4.140300">
        <ele>772.0</ele>
        <time>2015-04-28T13:04:56Z</time>
      </trkpt>
      <trkpt lat="43.295717" lon="-4.140283">
        <ele>771.0</ele>
        <time>2015-04-28T13:04:57Z</time>
      </trkpt>
      <trkpt lat="43.295783" lon="-4.140267">
        <ele>770.0</ele>
        <time>2015-04-28T13:04:58Z</time>
      </trkpt>
      <trkpt lat="43.295833" lon="-4.140250">
        <ele>767.0</ele>
        <time>2015-04-28T13:04:59Z</time>
      </trkpt>
      <trkpt lat="43.295883" lon="-4.140233">
        <ele>765.0</ele>
        <time>2015-04-28T13:05:00Z</time>
      </trkpt>
      <trkpt lat="43.295950" lon="-4.140200">
        <ele>766.0</ele>
        <time>2015-04-28T13:05:01Z</time>
      </trkpt>
      <trkpt lat="43.296000" lon="-4.140183">
        <ele>765.0</ele>
        <time>2015-04-28T13:05:02Z</time>
      </trkpt>
      <trkpt lat="43.296050" lon="-4.140167">
        <ele>764.0</ele>
        <time>2015-04-28T13:05:03Z</time>
      </trkpt>
      <trkpt lat="43.296100" lon="-4.140133">
        <ele>762.0</ele>
        <time>2015-04-28T13:05:04Z</time>
      </trkpt>
      <trkpt lat="43.296167" lon="-4.140083">
        <ele>760.0</ele>
        <time>2015-04-28T13:05:05Z</time>
      </trkpt>
      <trkpt lat="43.296217" lon="-4.140050">
        <ele>759.0</ele>
        <time>2015-04-28T13:05:06Z</time>
      </trkpt>
      <trkpt lat="43.296267" lon="-4.140000">
        <ele>758.0</ele>
        <time>2015-04-28T13:05:07Z</time>
      </trkpt>
      <trkpt lat="43.296333" lon="-4.140000">
        <ele>757.0</ele>
        <time>2015-04-28T13:05:08Z</time>
      </trkpt>
      <trkpt lat="43.296383" lon="-4.139967">
        <ele>756.0</ele>
        <time>2015-04-28T13:05:09Z</time>
      </trkpt>
      <trkpt lat="43.296433" lon="-4.139917">
        <ele>755.0</ele>
        <time>2015-04-28T13:05:10Z</time>
      </trkpt>
      <trkpt lat="43.296483" lon="-4.139883">
        <ele>753.0</ele>
        <time>2015-04-28T13:05:11Z</time>
      </trkpt>
      <trkpt lat="43.296533" lon="-4.139867">
        <ele>751.0</ele>
        <time>2015-04-28T13:05:12Z</time>
      </trkpt>
      <trkpt lat="43.296583" lon="-4.139867">
        <ele>749.0</ele>
        <time>2015-04-28T13:05:13Z</time>
      </trkpt>
      <trkpt lat="43.296633" lon="-4.139850">
        <ele>749.0</ele>
        <time>2015-04-28T13:05:14Z</time>
      </trkpt>
      <trkpt lat="43.296683" lon="-4.139850">
        <ele>748.0</ele>
        <time>2015-04-28T13:05:15Z</time>
      </trkpt>
      <trkpt lat="43.296733" lon="-4.139817">
        <ele>747.0</ele>
        <time>2015-04-28T13:05:16Z</time>
      </trkpt>
      <trkpt lat="43.296800" lon="-4.139817">
        <ele>746.0</ele>
        <time>2015-04-28T13:05:17Z</time>
      </trkpt>
      <trkpt lat="43.296867" lon="-4.139817">
        <ele>746.0</ele>
        <time>2015-04-28T13:05:18Z</time>
      </trkpt>
      <trkpt lat="43.296950" lon="-4.139817">
        <ele>745.0</ele>
        <time>2015-04-28T13:05:19Z</time>
      </trkpt>
      <trkpt lat="43.297017" lon="-4.139817">
        <ele>744.0</ele>
        <time>2015-04-28T13:05:20Z</time>
      </trkpt>
      <trkpt lat="43.297083" lon="-4.139833">
        <ele>744.0</ele>
        <time>2015-04-28T13:05:21Z</time>
      </trkpt>
      <trkpt lat="43.297150" lon="-4.139867">
        <ele>743.0</ele>
        <time>2015-04-28T13:05:22Z</time>
      </trkpt>
      <trkpt lat="43.297233" lon="-4.139883">
        <ele>742.0</ele>
        <time>2015-04-28T13:05:23Z</time>
      </trkpt>
      <trkpt lat="43.297283" lon="-4.139900">
        <ele>741.0</ele>
        <time>2015-04-28T13:05:24Z</time>
      </trkpt>
      <trkpt lat="43.297350" lon="-4.139917">
        <ele>739.0</ele>
        <time>2015-04-28T13:05:25Z</time>
      </trkpt>
      <trkpt lat="43.297417" lon="-4.139917">
        <ele>738.0</ele>
        <time>2015-04-28T13:05:26Z</time>
      </trkpt>
      <trkpt lat="43.297483" lon="-4.139933">
        <ele>735.0</ele>
        <time>2015-04-28T13:05:27Z</time>
      </trkpt>
      <trkpt lat="43.297567" lon="-4.139950">
        <ele>732.0</ele>
        <time>2015-04-28T13:05:28Z</time>
      </trkpt>
      <trkpt lat="43.297633" lon="-4.139983">
        <ele>732.0</ele>
        <time>2015-04-28T13:05:29Z</time>
      </trkpt>
      <trkpt lat="43.297700" lon="-4.140017">
        <ele>731.0</ele>
        <time>2015-04-28T13:05:30Z</time>
      </trkpt>
      <trkpt lat="43.297767" lon="-4.140033">
        <ele>730.0</ele>
        <time>2015-04-28T13:05:31Z</time>
      </trkpt>
      <trkpt lat="43.297850" lon="-4.140050">
        <ele>729.0</ele>
        <time>2015-04-28T13:05:32Z</time>
      </trkpt>
      <trkpt lat="43.297917" lon="-4.140083">
        <ele>728.0</ele>
        <time>2015-04-28T13:05:33Z</time>
      </trkpt>
      <trkpt lat="43.298017" lon="-4.140133">
        <ele>728.0</ele>
        <time>2015-04-28T13:05:34Z</time>
      </trkpt>
      <trkpt lat="43.298083" lon="-4.140167">
        <ele>727.0</ele>
        <time>2015-04-28T13:05:35Z</time>
      </trkpt>
      <trkpt lat="43.298150" lon="-4.140200">
        <ele>723.0</ele>
        <time>2015-04-28T13:05:36Z</time>
      </trkpt>
      <trkpt lat="43.298233" lon="-4.140217">
        <ele>722.0</ele>
        <time>2015-04-28T13:05:37Z</time>
      </trkpt>
      <trkpt lat="43.298300" lon="-4.140233">
        <ele>721.0</ele>
        <time>2015-04-28T13:05:38Z</time>
      </trkpt>
      <trkpt lat="43.298383" lon="-4.140233">
        <ele>720.0</ele>
        <time>2015-04-28T13:05:39Z</time>
      </trkpt>
      <trkpt lat="43.298467" lon="-4.140250">
        <ele>719.0</ele>
        <time>2015-04-28T13:05:40Z</time>
      </trkpt>
      <trkpt lat="43.298550" lon="-4.140267">
        <ele>717.0</ele>
        <time>2015-04-28T13:05:41Z</time>
      </trkpt>
      <trkpt lat="43.298617" lon="-4.140300">
        <ele>717.0</ele>
        <time>2015-04-28T13:05:42Z</time>
      </trkpt>
      <trkpt lat="43.298700" lon="-4.140333">
        <ele>716.0</ele>
        <time>2015-04-28T13:05:43Z</time>
      </trkpt>
      <trkpt lat="43.298767" lon="-4.140367">
        <ele>715.0</ele>
        <time>2015-04-28T13:05:44Z</time>
      </trkpt>
      <trkpt lat="43.298883" lon="-4.140400">
        <ele>714.0</ele>
        <time>2015-04-28T13:05:45Z</time>
      </trkpt>
      <trkpt lat="43.299000" lon="-4.140433">
        <ele>714.0</ele>
        <time>2015-04-28T13:05:46Z</time>
      </trkpt>
      <trkpt lat="43.299083" lon="-4.140467">
        <ele>713.0</ele>
        <time>2015-04-28T13:05:47Z</time>
      </trkpt>
      <trkpt lat="43.299183" lon="-4.140500">
        <ele>712.0</ele>
        <time>2015-04-28T13:05:48Z</time>
      </trkpt>
      <trkpt lat="43.299283" lon="-4.140550">
        <ele>710.0</ele>
        <time>2015-04-28T13:05:49Z</time>
      </trkpt>
      <trkpt lat="43.299300" lon="-4.140550">
        <ele>707.0</ele>
        <time>2015-04-28T13:05:50Z</time>
      </trkpt>
      <trkpt lat="43.299333" lon="-4.140550">
        <ele>705.0</ele>
        <time>2015-04-28T13:05:51Z</time>
      </trkpt>
      <trkpt lat="43.299367" lon="-4.140567">
        <ele>703.0</ele>
        <time>2015-04-28T13:05:52Z</time>
      </trkpt>
      <trkpt lat="43.299400" lon="-4.140583">
        <ele>701.0</ele>
        <time>2015-04-28T13:05:53Z</time>
      </trkpt>
      <trkpt lat="43.299450" lon="-4.140633">
        <ele>698.0</ele>
        <time>2015-04-28T13:05:54Z</time>
      </trkpt>
      <trkpt lat="43.299500" lon="-4.140700">
        <ele>697.0</ele>
        <time>2015-04-28T13:05:55Z</time>
      </trkpt>
      <trkpt lat="43.299567" lon="-4.140783">
        <ele>698.0</ele>
        <time>2015-04-28T13:05:56Z</time>
      </trkpt>
      <trkpt lat="43.299600" lon="-4.140883">
        <ele>697.0</ele>
        <time>2015-04-28T13:05:57Z</time>
      </trkpt>
      <trkpt lat="43.299600" lon="-4.141017">
        <ele>697.0</ele>
        <time>2015-04-28T13:05:58Z</time>
      </trkpt>
      <trkpt lat="43.299583" lon="-4.141150">
        <ele>696.0</ele>
        <time>2015-04-28T13:05:59Z</time>
      </trkpt>
      <trkpt lat="43.299500" lon="-4.141267">
        <ele>695.0</ele>
        <time>2015-04-28T13:06:00Z</time>
      </trkpt>
      <trkpt lat="43.299383" lon="-4.141350">
        <ele>694.0</ele>
        <time>2015-04-28T13:06:01Z</time>
      </trkpt>
      <trkpt lat="43.299283" lon="-4.141383">
        <ele>695.0</ele>
        <time>2015-04-28T13:06:02Z</time>
      </trkpt>
      <trkpt lat="43.299200" lon="-4.141333">
        <ele>696.0</ele>
        <time>2015-04-28T13:06:03Z</time>
      </trkpt>
      <trkpt lat="43.299133" lon="-4.141283">
        <ele>698.0</ele>
        <time>2015-04-28T13:06:04Z</time>
      </trkpt>
      <trkpt lat="43.299100" lon="-4.141233">
        <ele>700.0</ele>
        <time>2015-04-28T13:06:05Z</time>
      </trkpt>
      <trkpt lat="43.299100" lon="-4.141200">
        <ele>697.0</ele>
        <time>2015-04-28T13:06:06Z</time>
      </trkpt>
      <trkpt lat="43.299117" lon="-4.141150">
        <ele>697.0</ele>
        <time>2015-04-28T13:06:07Z</time>
      </trkpt>
      <trkpt lat="43.299117" lon="-4.141100">
        <ele>698.0</ele>
        <time>2015-04-28T13:06:08Z</time>
      </trkpt>
      <trkpt lat="43.299133" lon="-4.141050">
        <ele>699.0</ele>
        <time>2015-04-28T13:06:09Z</time>
      </trkpt>
      <trkpt lat="43.299150" lon="-4.141033">
        <ele>699.0</ele>
        <time>2015-04-28T13:06:10Z</time>
      </trkpt>
      <trkpt lat="43.299200" lon="-4.141067">
        <ele>700.0</ele>
        <time>2015-04-28T13:06:11Z</time>
      </trkpt>
      <trkpt lat="43.299267" lon="-4.141133">
        <ele>700.0</ele>
        <time>2015-04-28T13:06:12Z</time>
      </trkpt>
      <trkpt lat="43.299300" lon="-4.141250">
        <ele>701.0</ele>
        <time>2015-04-28T13:06:13Z</time>
      </trkpt>
      <trkpt lat="43.299300" lon="-4.141383">
        <ele>702.0</ele>
        <time>2015-04-28T13:06:14Z</time>
      </trkpt>
      <trkpt lat="43.299283" lon="-4.141483">
        <ele>704.0</ele>
        <time>2015-04-28T13:06:15Z</time>
      </trkpt>
      <trkpt lat="43.299233" lon="-4.141600">
        <ele>707.0</ele>
        <time>2015-04-28T13:06:16Z</time>
      </trkpt>
      <trkpt lat="43.299167" lon="-4.141683">
        <ele>709.0</ele>
        <time>2015-04-28T13:06:17Z</time>
      </trkpt>
      <trkpt lat="43.299083" lon="-4.141750">
        <ele>712.0</ele>
        <time>2015-04-28T13:06:18Z</time>
      </trkpt>
      <trkpt lat="43.299017" lon="-4.141783">
        <ele>715.0</ele>
        <time>2015-04-28T13:06:19Z</time>
      </trkpt>
      <trkpt lat="43.298950" lon="-4.141800">
        <ele>718.0</ele>
        <time>2015-04-28T13:06:20Z</time>
      </trkpt>
      <trkpt lat="43.298867" lon="-4.141767">
        <ele>721.0</ele>
        <time>2015-04-28T13:06:21Z</time>
      </trkpt>
      <trkpt lat="43.298817" lon="-4.141717">
        <ele>726.0</ele>
        <time>2015-04-28T13:06:22Z</time>
      </trkpt>
      <trkpt lat="43.298767" lon="-4.141667">
        <ele>730.0</ele>
        <time>2015-04-28T13:06:23Z</time>
      </trkpt>
      <trkpt lat="43.298733" lon="-4.141600">
        <ele>734.0</ele>
        <time>2015-04-28T13:06:24Z</time>
      </trkpt>
      <trkpt lat="43.298717" lon="-4.141567">
        <ele>727.0</ele>
        <time>2015-04-28T13:06:25Z</time>
      </trkpt>
      <trkpt lat="43.298700" lon="-4.141517">
        <ele>728.0</ele>
        <time>2015-04-28T13:06:26Z</time>
      </trkpt>
      <trkpt lat="43.298700" lon="-4.141500">
        <ele>730.0</ele>
        <time>2015-04-28T13:06:27Z</time>
      </trkpt>
      <trkpt lat="43.298700" lon="-4.141483">
        <ele>731.0</ele>
        <time>2015-04-28T13:06:28Z</time>
      </trkpt>
      <trkpt lat="43.298733" lon="-4.141483">
        <ele>733.0</ele>
        <time>2015-04-28T13:06:29Z</time>
      </trkpt>
      <trkpt lat="43.298767" lon="-4.141483">
        <ele>736.0</ele>
        <time>2015-04-28T13:06:30Z</time>
      </trkpt>
      <trkpt lat="43.298800" lon="-4.141467">
        <ele>738.0</ele>
        <time>2015-04-28T13:06:31Z</time>
      </trkpt>
      <trkpt lat="43.298817" lon="-4.141450">
        <ele>740.0</ele>
        <time>2015-04-28T13:06:32Z</time>
      </trkpt>
      <trkpt lat="43.298833" lon="-4.141467">
        <ele>741.0</ele>
        <time>2015-04-28T13:06:33Z</time>
      </trkpt>
      <trkpt lat="43.298867" lon="-4.141517">
        <ele>742.0</ele>
        <time>2015-04-28T13:06:34Z</time>
      </trkpt>
      <trkpt lat="43.298900" lon="-4.141583">
        <ele>743.0</ele>
        <time>2015-04-28T13:06:35Z</time>
      </trkpt>
      <trkpt lat="43.298933" lon="-4.141700">
        <ele>744.0</ele>
        <time>2015-04-28T13:06:36Z</time>
      </trkpt>
      <trkpt lat="43.298950" lon="-4.141833">
        <ele>745.0</ele>
        <time>2015-04-28T13:06:37Z</time>
      </trkpt>
      <trkpt lat="43.298950" lon="-4.141967">
        <ele>747.0</ele>
        <time>2015-04-28T13:06:38Z</time>
      </trkpt>
      <trkpt lat="43.298967" lon="-4.142100">
        <ele>750.0</ele>
        <time>2015-04-28T13:06:39Z</time>
      </trkpt>
      <trkpt lat="43.298967" lon="-4.142233">
        <ele>754.0</ele>
        <time>2015-04-28T13:06:40Z</time>
      </trkpt>
      <trkpt lat="43.298950" lon="-4.142367">
        <ele>757.0</ele>
        <time>2015-04-28T13:06:41Z</time>
      </trkpt>
      <trkpt lat="43.298917" lon="-4.142483">
        <ele>761.0</ele>
        <time>2015-04-28T13:06:42Z</time>
      </trkpt>
      <trkpt lat="43.298883" lon="-4.142617">
        <ele>767.0</ele>
        <time>2015-04-28T13:06:43Z</time>
      </trkpt>
      <trkpt lat="43.298833" lon="-4.142733">
        <ele>773.0</ele>
        <time>2015-04-28T13:06:44Z</time>
      </trkpt>
      <trkpt lat="43.298767" lon="-4.142833">
        <ele>781.0</ele>
        <time>2015-04-28T13:06:45Z</time>
      </trkpt>
      <trkpt lat="43.298717" lon="-4.142917">
        <ele>793.0</ele>
        <time>2015-04-28T13:06:46Z</time>
      </trkpt>
      <trkpt lat="43.298650" lon="-4.142950">
        <ele>799.0</ele>
        <time>2015-04-28T13:06:47Z</time>
      </trkpt>
      <trkpt lat="43.298567" lon="-4.142967">
        <ele>786.0</ele>
        <time>2015-04-28T13:06:48Z</time>
      </trkpt>
      <trkpt lat="43.298483" lon="-4.142967">
        <ele>788.0</ele>
        <time>2015-04-28T13:06:49Z</time>
      </trkpt>
      <trkpt lat="43.298400" lon="-4.142967">
        <ele>790.0</ele>
        <time>2015-04-28T13:06:50Z</time>
      </trkpt>
      <trkpt lat="43.298333" lon="-4.142967">
        <ele>793.0</ele>
        <time>2015-04-28T13:06:51Z</time>
      </trkpt>
      <trkpt lat="43.298283" lon="-4.142950">
        <ele>796.0</ele>
        <time>2015-04-28T13:06:52Z</time>
      </trkpt>
      <trkpt lat="43.298250" lon="-4.142900">
        <ele>801.0</ele>
        <time>2015-04-28T13:06:53Z</time>
      </trkpt>
      <trkpt lat="43.298250" lon="-4.142833">
        <ele>804.0</ele>
        <time>2015-04-28T13:06:54Z</time>
      </trkpt>
      <trkpt lat="43.298250" lon="-4.142783">
        <ele>808.0</ele>
        <time>2015-04-28T13:06:55Z</time>
      </trkpt>
      <trkpt lat="43.298250" lon="-4.142750">
        <ele>807.0</ele>
        <time>2015-04-28T13:06:56Z</time>
      </trkpt>
      <trkpt lat="43.298250" lon="-4.142733">
        <ele>809.0</ele>
        <time>2015-04-28T13:06:57Z</time>
      </trkpt>
      <trkpt lat="43.298250" lon="-4.142717">
        <ele>811.0</ele>
        <time>2015-04-28T13:06:58Z</time>
      </trkpt>
      <trkpt lat="43.298267" lon="-4.142717">
        <ele>813.0</ele>
        <time>2015-04-28T13:06:59Z</time>
      </trkpt>
      <trkpt lat="43.298283" lon="-4.142717">
        <ele>815.0</ele>
        <time>2015-04-28T13:07:00Z</time>
      </trkpt>
      <trkpt lat="43.298333" lon="-4.142700">
        <ele>817.0</ele>
        <time>2015-04-28T13:07:01Z</time>
      </trkpt>
      <trkpt lat="43.298367" lon="-4.142683">
        <ele>819.0</ele>
        <time>2015-04-28T13:07:02Z</time>
      </trkpt>
      <trkpt lat="43.298417" lon="-4.142667">
        <ele>821.0</ele>
        <time>2015-04-28T13:07:03Z</time>
      </trkpt>
      <trkpt lat="43.298450" lon="-4.142683">
        <ele>824.0</ele>
        <time>2015-04-28T13:07:04Z</time>
      </trkpt>
      <trkpt lat="43.298483" lon="-4.142667">
        <ele>827.0</ele>
        <time>2015-04-28T13:07:05Z</time>
      </trkpt>
      <trkpt lat="43.298533" lon="-4.142667">
        <ele>830.0</ele>
        <time>2015-04-28T13:07:06Z</time>
      </trkpt>
      <trkpt lat="43.298567" lon="-4.142683">
        <ele>833.0</ele>
        <time>2015-04-28T13:07:07Z</time>
      </trkpt>
      <trkpt lat="43.298600" lon="-4.142750">
        <ele>834.0</ele>
        <time>2015-04-28T13:07:08Z</time>
      </trkpt>
      <trkpt lat="43.298633" lon="-4.142867">
        <ele>836.0</ele>
        <time>2015-04-28T13:07:09Z</time>
      </trkpt>
      <trkpt lat="43.298667" lon="-4.143000">
        <ele>838.0</ele>
        <time>2015-04-28T13:07:10Z</time>
      </trkpt>
      <trkpt lat="43.298683" lon="-4.143150">
        <ele>841.0</ele>
        <time>2015-04-28T13:07:11Z</time>
      </trkpt>
      <trkpt lat="43.298700" lon="-4.143283">
        <ele>844.0</ele>
        <time>2015-04-28T13:07:12Z</time>
      </trkpt>
      <trkpt lat="43.298717" lon="-4.143433">
        <ele>848.0</ele>
        <time>2015-04-28T13:07:13Z</time>
      </trkpt>
      <trkpt lat="43.298717" lon="-4.143583">
        <ele>852.0</ele>
        <time>2015-04-28T13:07:14Z</time>
      </trkpt>
      <trkpt lat="43.298717" lon="-4.143733">
        <ele>855.0</ele>
        <time>2015-04-28T13:07:15Z</time>
      </trkpt>
      <trkpt lat="43.298667" lon="-4.143867">
        <ele>860.0</ele>
        <time>2015-04-28T13:07:16Z</time>
      </trkpt>
      <trkpt lat="43.298633" lon="-4.144017">
        <ele>865.0</ele>
        <time>2015-04-28T13:07:17Z</time>
      </trkpt>
      <trkpt lat="43.298567" lon="-4.144167">
        <ele>869.0</ele>
        <time>2015-04-28T13:07:18Z</time>
      </trkpt>
      <trkpt lat="43.298517" lon="-4.144317">
        <ele>875.0</ele>
        <time>2015-04-28T13:07:19Z</time>
      </trkpt>
      <trkpt lat="43.298483" lon="-4.144450">
        <ele>882.0</ele>
        <time>2015-04-28T13:07:20Z</time>
      </trkpt>
      <trkpt lat="43.298433" lon="-4.144583">
        <ele>887.0</ele>
        <time>2015-04-28T13:07:21Z</time>
      </trkpt>
      <trkpt lat="43.298383" lon="-4.144717">
        <ele>893.0</ele>
        <time>2015-04-28T13:07:22Z</time>
      </trkpt>
      <trkpt lat="43.298317" lon="-4.144833">
        <ele>898.0</ele>
        <time>2015-04-28T13:07:23Z</time>
      </trkpt>
      <trkpt lat="43.298233" lon="-4.144950">
        <ele>901.0</ele>
        <time>2015-04-28T13:07:24Z</time>
      </trkpt>
      <trkpt lat="43.298133" lon="-4.145017">
        <ele>904.0</ele>
        <time>2015-04-28T13:07:25Z</time>
      </trkpt>
      <trkpt lat="43.298017" lon="-4.145050">
        <ele>907.0</ele>
        <time>2015-04-28T13:07:26Z</time>
      </trkpt>
      <trkpt lat="43.297933" lon="-4.145033">
        <ele>911.0</ele>
        <time>2015-04-28T13:07:27Z</time>
      </trkpt>
      <trkpt lat="43.297883" lon="-4.145017">
        <ele>915.0</ele>
        <time>2015-04-28T13:07:28Z</time>
      </trkpt>
      <trkpt lat="43.297833" lon="-4.144967">
        <ele>917.0</ele>
        <time>2015-04-28T13:07:29Z</time>
      </trkpt>
      <trkpt lat="43.297783" lon="-4.144933">
        <ele>911.0</ele>
        <time>2015-04-28T13:07:30Z</time>
      </trkpt>
      <trkpt lat="43.297750" lon="-4.144883">
        <ele>912.0</ele>
        <time>2015-04-28T13:07:31Z</time>
      </trkpt>
      <trkpt lat="43.297733" lon="-4.144833">
        <ele>913.0</ele>
        <time>2015-04-28T13:07:32Z</time>
      </trkpt>
      <trkpt lat="43.297733" lon="-4.144783">
        <ele>914.0</ele>
        <time>2015-04-28T13:07:33Z</time>
      </trkpt>
      <trkpt lat="43.297767" lon="-4.144750">
        <ele>915.0</ele>
        <time>2015-04-28T13:07:34Z</time>
      </trkpt>
      <trkpt lat="43.297800" lon="-4.144733">
        <ele>917.0</ele>
        <time>2015-04-28T13:07:35Z</time>
      </trkpt>
      <trkpt lat="43.297817" lon="-4.144750">
        <ele>920.0</ele>
        <time>2015-04-28T13:07:36Z</time>
      </trkpt>
      <trkpt lat="43.297850" lon="-4.144767">
        <ele>922.0</ele>
        <time>2015-04-28T13:07:37Z</time>
      </trkpt>
      <trkpt lat="43.297850" lon="-4.144767">
        <ele>923.0</ele>
        <time>2015-04-28T13:07:38Z</time>
      </trkpt>
      <trkpt lat="43.297867" lon="-4.144783">
        <ele>924.0</ele>
        <time>2015-04-28T13:07:39Z</time>
      </trkpt>
      <trkpt lat="43.297917" lon="-4.144850">
        <ele>925.0</ele>
        <time>2015-04-28T13:07:40Z</time>
      </trkpt>
      <trkpt lat="43.297950" lon="-4.144950">
        <ele>927.0</ele>
        <time>2015-04-28T13:07:41Z</time>
      </trkpt>
      <trkpt lat="43.297950" lon="-4.145050">
        <ele>928.0</ele>
        <time>2015-04-28T13:07:42Z</time>
      </trkpt>
      <trkpt lat="43.297933" lon="-4.145150">
        <ele>929.0</ele>
        <time>2015-04-28T13:07:43Z</time>
      </trkpt>
      <trkpt lat="43.297917" lon="-4.145250">
        <ele>931.0</ele>
        <time>2015-04-28T13:07:44Z</time>
      </trkpt>
      <trkpt lat="43.297917" lon="-4.145350">
        <ele>933.0</ele>
        <time>2015-04-28T13:07:45Z</time>
      </trkpt>
      <trkpt lat="43.297933" lon="-4.145467">
        <ele>934.0</ele>
        <time>2015-04-28T13:07:46Z</time>
      </trkpt>
      <trkpt lat="43.297933" lon="-4.145583">
        <ele>936.0</ele>
        <time>2015-04-28T13:07:47Z</time>
      </trkpt>
      <trkpt lat="43.297917" lon="-4.145717">
        <ele>938.0</ele>
        <time>2015-04-28T13:07:48Z</time>
      </trkpt>
      <trkpt lat="43.297883" lon="-4.145833">
        <ele>940.0</ele>
        <time>2015-04-28T13:07:49Z</time>
      </trkpt>
      <trkpt lat="43.297833" lon="-4.145950">
        <ele>944.0</ele>
        <time>2015-04-28T13:07:50Z</time>
      </trkpt>
      <trkpt lat="43.297783" lon="-4.146067">
        <ele>947.0</ele>
        <time>2015-04-28T13:07:51Z</time>
      </trkpt>
      <trkpt lat="43.297717" lon="-4.146150">
        <ele>950.0</ele>
        <time>2015-04-28T13:07:52Z</time>
      </trkpt>
      <trkpt lat="43.297650" lon="-4.146250">
        <ele>954.0</ele>
        <time>2015-04-28T13:07:53Z</time>
      </trkpt>
      <trkpt lat="43.297550" lon="-4.146350">
        <ele>957.0</ele>
        <time>2015-04-28T13:07:54Z</time>
      </trkpt>
      <trkpt lat="43.297433" lon="-4.146433">
        <ele>962.0</ele>
        <time>2015-04-28T13:07:55Z</time>
      </trkpt>
      <trkpt lat="43.297333" lon="-4.146500">
        <ele>967.0</ele>
        <time>2015-04-28T13:07:56Z</time>
      </trkpt>
      <trkpt lat="43.297250" lon="-4.146533">
        <ele>973.0</ele>
        <time>2015-04-28T13:07:57Z</time>
      </trkpt>
      <trkpt lat="43.297183" lon="-4.146550">
        <ele>977.0</ele>
        <time>2015-04-28T13:07:58Z</time>
      </trkpt>
      <trkpt lat="43.297117" lon="-4.146550">
        <ele>981.0</ele>
        <time>2015-04-28T13:07:59Z</time>
      </trkpt>
      <trkpt lat="43.297033" lon="-4.146517">
        <ele>974.0</ele>
        <time>2015-04-28T13:08:00Z</time>
      </trkpt>
      <trkpt lat="43.296967" lon="-4.146483">
        <ele>977.0</ele>
        <time>2015-04-28T13:08:01Z</time>
      </trkpt>
      <trkpt lat="43.296917" lon="-4.146450">
        <ele>980.0</ele>
        <time>2015-04-28T13:08:02Z</time>
      </trkpt>
      <trkpt lat="43.296900" lon="-4.146400">
        <ele>983.0</ele>
        <time>2015-04-28T13:08:03Z</time>
      </trkpt>
      <trkpt lat="43.296900" lon="-4.146333">
        <ele>985.0</ele>
        <time>2015-04-28T13:08:04Z</time>
      </trkpt>
      <trkpt lat="43.296917" lon="-4.146283">
        <ele>989.0</ele>
        <time>2015-04-28T13:08:05Z</time>
      </trkpt>
      <trkpt lat="43.296917" lon="-4.146250">
        <ele>993.0</ele>
        <time>2015-04-28T13:08:06Z</time>
      </trkpt>
      <trkpt lat="43.296917" lon="-4.146217">
        <ele>998.0</ele>
        <time>2015-04-28T13:08:07Z</time>
      </trkpt>
      <trkpt lat="43.296900" lon="-4.146200">
        <ele>1003.0</ele>
        <time>2015-04-28T13:08:08Z</time>
      </trkpt>
      <trkpt lat="43.296900" lon="-4.146167">
        <ele>999.0</ele>
        <time>2015-04-28T13:08:09Z</time>
      </trkpt>
      <trkpt lat="43.296900" lon="-4.146133">
        <ele>1001.0</ele>
        <time>2015-04-28T13:08:10Z</time>
      </trkpt>
      <trkpt lat="43.296917" lon="-4.146117">
        <ele>1003.0</ele>
        <time>2015-04-28T13:08:11Z</time>
      </trkpt>
      <trkpt lat="43.296933" lon="-4.146083">
        <ele>1004.0</ele>
        <time>2015-04-28T13:08:12Z</time>
      </trkpt>
      <trkpt lat="43.296967" lon="-4.146067">
        <ele>1006.0</ele>
        <time>2015-04-28T13:08:13Z</time>
      </trkpt>
      <trkpt lat="43.297017" lon="-4.146050">
        <ele>1008.0</ele>
        <time>2015-04-28T13:08:14Z</time>
      </trkpt>
      <trkpt lat="43.297050" lon="-4.146050">
        <ele>1009.0</ele>
        <time>2015-04-28T13:08:15Z</time>
      </trkpt>
      <trkpt lat="43.297083" lon="-4.146050">
        <ele>1011.0</ele>
        <time>2015-04-28T13:08:16Z</time>
      </trkpt>
      <trkpt lat="43.297117" lon="-4.146083">
        <ele>1013.0</ele>
        <time>2015-04-28T13:08:17Z</time>
      </trkpt>
      <trkpt lat="43.297150" lon="-4.146083">
        <ele>1014.0</ele>
        <time>2015-04-28T13:08:18Z</time>
      </trkpt>
      <trkpt lat="43.297200" lon="-4.146100">
        <ele>1015.0</ele>
        <time>2015-04-28T13:08:19Z</time>
      </trkpt>
      <trkpt lat="43.297267" lon="-4.146100">
        <ele>1016.0</ele>
        <time>2015-04-28T13:08:20Z</time>
      </trkpt>
      <trkpt lat="43.297333" lon="-4.146100">
        <ele>1016.0</ele>
        <time>2015-04-28T13:08:21Z</time>
      </trkpt>
      <trkpt lat="43.297383" lon="-4.146083">
        <ele>1017.0</ele>
        <time>2015-04-28T13:08:22Z</time>
      </trkpt>
      <trkpt lat="43.297450" lon="-4.146100">
        <ele>1018.0</ele>
        <time>2015-04-28T13:08:23Z</time>
      </trkpt>
      <trkpt lat="43.297517" lon="-4.146100">
        <ele>1019.0</ele>
        <time>2015-04-28T13:08:24Z</time>
      </trkpt>
      <trkpt lat="43.297583" lon="-4.146133">
        <ele>1020.0</ele>
        <time>2015-04-28T13:08:25Z</time>
      </trkpt>
      <trkpt lat="43.297650" lon="-4.146150">
        <ele>1021.0</ele>
        <time>2015-04-28T13:08:26Z</time>
      </trkpt>
      <trkpt lat="43.297733" lon="-4.146167">
        <ele>1022.0</ele>
        <time>2015-04-28T13:08:27Z</time>
      </trkpt>
      <trkpt lat="43.297817" lon="-4.146183">
        <ele>1023.0</ele>
        <time>2015-04-28T13:08:28Z</time>
      </trkpt>
      <trkpt lat="43.297900" lon="-4.146200">
        <ele>1024.0</ele>
        <time>2015-04-28T13:08:29Z</time>
      </trkpt>
      <trkpt lat="43.297967" lon="-4.146200">
        <ele>1025.0</ele>
        <time>2015-04-28T13:08:30Z</time>
      </trkpt>
      <trkpt lat="43.298033" lon="-4.146217">
        <ele>1026.0</ele>
        <time>2015-04-28T13:08:31Z</time>
      </trkpt>
      <trkpt lat="43.298117" lon="-4.146217">
        <ele>1026.0</ele>
        <time>2015-04-28T13:08:32Z</time>
      </trkpt>
      <trkpt lat="43.298200" lon="-4.146217">
        <ele>1027.0</ele>
        <time>2015-04-28T13:08:33Z</time>
      </trkpt>
      <trkpt lat="43.298283" lon="-4.146217">
        <ele>1027.0</ele>
        <time>2015-04-28T13:08:34Z</time>
      </trkpt>
      <trkpt lat="43.298383" lon="-4.146233">
        <ele>1028.0</ele>
        <time>2015-04-28T13:08:35Z</time>
      </trkpt>
      <trkpt lat="43.298467" lon="-4.146233">
        <ele>1028.0</ele>
        <time>2015-04-28T13:08:36Z</time>
      </trkpt>
      <trkpt lat="43.298550" lon="-4.146233">
        <ele>1029.0</ele>
        <time>2015-04-28T13:08:37Z</time>
      </trkpt>
      <trkpt lat="43.298633" lon="-4.146250">
        <ele>1029.0</ele>
        <time>2015-04-28T13:08:38Z</time>
      </trkpt>
      <trkpt lat="43.298717" lon="-4.146250">
        <ele>1030.0</ele>
        <time>2015-04-28T13:08:39Z</time>
      </trkpt>
      <trkpt lat="43.298800" lon="-4.146250">
        <ele>1030.0</ele>
        <time>2015-04-28T13:08:40Z</time>
      </trkpt>
      <trkpt lat="43.298883" lon="-4.146250">
        <ele>1030.0</ele>
        <time>2015-04-28T13:08:41Z</time>
      </trkpt>
      <trkpt lat="43.298967" lon="-4.146233">
        <ele>1031.0</ele>
        <time>2015-04-28T13:08:42Z</time>
      </trkpt>
      <trkpt lat="43.299050" lon="-4.146233">
        <ele>1031.0</ele>
        <time>2015-04-28T13:08:43Z</time>
      </trkpt>
      <trkpt lat="43.299100" lon="-4.146250">
        <ele>1031.0</ele>
        <time>2015-04-28T13:08:44Z</time>
      </trkpt>
      <trkpt lat="43.299167" lon="-4.146267">
        <ele>1032.0</ele>
        <time>2015-04-28T13:08:45Z</time>
      </trkpt>
      <trkpt lat="43.299200" lon="-4.146283">
        <ele>1032.0</ele>
        <time>2015-04-28T13:08:46Z</time>
      </trkpt>
      <trkpt lat="43.299267" lon="-4.146300">
        <ele>1033.0</ele>
        <time>2015-04-28T13:08:47Z</time>
      </trkpt>
      <trkpt lat="43.299317" lon="-4.146317">
        <ele>1033.0</ele>
        <time>2015-04-28T13:08:48Z</time>
      </trkpt>
      <trkpt lat="43.299383" lon="-4.146333">
        <ele>1033.0</ele>
        <time>2015-04-28T13:08:49Z</time>
      </trkpt>
      <trkpt lat="43.299467" lon="-4.146333">
        <ele>1033.0</ele>
        <time>2015-04-28T13:08:50Z</time>
      </trkpt>
      <trkpt lat="43.299550" lon="-4.146333">
        <ele>1033.0</ele>
        <time>2015-04-28T13:08:51Z</time>
      </trkpt>
      <trkpt lat="43.299633" lon="-4.146333">
        <ele>1033.0</ele>
        <time>2015-04-28T13:08:52Z</time>
      </trkpt>
      <trkpt lat="43.299733" lon="-4.146317">
        <ele>1033.0</ele>
        <time>2015-04-28T13:08:53Z</time>
      </trkpt>
      <trkpt lat="43.299817" lon="-4.146317">
        <ele>1033.0</ele>
        <time>2015-04-28T13:08:54Z</time>
      </trkpt>
      <trkpt lat="43.299900" lon="-4.146317">
        <ele>1033.0</ele>
        <time>2015-04-28T13:08:55Z</time>
      </trkpt>
      <trkpt lat="43.299967" lon="-4.146333">
        <ele>1033.0</ele>
        <time>2015-04-28T13:08:56Z</time>
      </trkpt>
      <trkpt lat="43.300050" lon="-4.146350">
        <ele>1033.0</ele>
        <time>2015-04-28T13:08:57Z</time>
      </trkpt>
      <trkpt lat="43.300133" lon="-4.146383">
        <ele>1033.0</ele>
        <time>2015-04-28T13:08:58Z</time>
      </trkpt>
      <trkpt lat="43.300233" lon="-4.146383">
        <ele>1033.0</ele>
        <time>2015-04-28T13:08:59Z</time>
      </trkpt>
      <trkpt lat="43.300317" lon="-4.146367">
        <ele>1033.0</ele>
        <time>2015-04-28T13:09:00Z</time>
      </trkpt>
      <trkpt lat="43.300400" lon="-4.146367">
        <ele>1032.0</ele>
        <time>2015-04-28T13:09:01Z</time>
      </trkpt>
      <trkpt lat="43.300467" lon="-4.146350">
        <ele>1032.0</ele>
        <time>2015-04-28T13:09:02Z</time>
      </trkpt>
      <trkpt lat="43.300533" lon="-4.146350">
        <ele>1032.0</ele>
        <time>2015-04-28T13:09:03Z</time>
      </trkpt>
      <trkpt lat="43.300600" lon="-4.146333">
        <ele>1032.0</ele>
        <time>2015-04-28T13:09:04Z</time>
      </trkpt>
      <trkpt lat="43.300683" lon="-4.146333">
        <ele>1032.0</ele>
        <time>2015-04-28T13:09:05Z</time>
      </trkpt>
      <trkpt lat="43.300767" lon="-4.146367">
        <ele>1031.0</ele>
        <time>2015-04-28T13:09:06Z</time>
      </trkpt>
      <trkpt lat="43.300850" lon="-4.146400">
        <ele>1031.0</ele>
        <time>2015-04-28T13:09:07Z</time>
      </trkpt>
      <trkpt lat="43.300917" lon="-4.146417">
        <ele>1030.0</ele>
        <time>2015-04-28T13:09:08Z</time>
      </trkpt>
      <trkpt lat="43.300983" lon="-4.146450">
        <ele>1029.0</ele>
        <time>2015-04-28T13:09:09Z</time>
      </trkpt>
      <trkpt lat="43.301067" lon="-4.146483">
        <ele>1030.0</ele>
        <time>2015-04-28T13:09:10Z</time>
      </trkpt>
      <trkpt lat="43.301167" lon="-4.146517">
        <ele>1029.0</ele>
        <time>2015-04-28T13:09:11Z</time>
      </trkpt>
      <trkpt lat="43.301250" lon="-4.146567">
        <ele>1028.0</ele>
        <time>2015-04-28T13:09:12Z</time>
      </trkpt>
      <trkpt lat="43.301317" lon="-4.146617">
        <ele>1026.0</ele>
        <time>2015-04-28T13:09:13Z</time>
      </trkpt>
      <trkpt lat="43.301383" lon="-4.146683">
        <ele>1026.0</ele>
        <time>2015-04-28T13:09:14Z</time>
      </trkpt>
      <trkpt lat="43.301467" lon="-4.146733">
        <ele>1026.0</ele>
        <time>2015-04-28T13:09:15Z</time>
      </trkpt>
      <trkpt lat="43.301550" lon="-4.146800">
        <ele>1025.0</ele>
        <time>2015-04-28T13:09:16Z</time>
      </trkpt>
      <trkpt lat="43.301633" lon="-4.146867">
        <ele>1024.0</ele>
        <time>2015-04-28T13:09:17Z</time>
      </trkpt>
      <trkpt lat="43.301733" lon="-4.146933">
        <ele>1024.0</ele>
        <time>2015-04-28T13:09:18Z</time>
      </trkpt>
      <trkpt lat="43.301817" lon="-4.147017">
        <ele>1023.0</ele>
        <time>2015-04-28T13:09:19Z</time>
      </trkpt>
      <trkpt lat="43.301883" lon="-4.147083">
        <ele>1020.0</ele>
        <time>2015-04-28T13:09:20Z</time>
      </trkpt>
      <trkpt lat="43.301967" lon="-4.147133">
        <ele>1020.0</ele>
        <time>2015-04-28T13:09:21Z</time>
      </trkpt>
      <trkpt lat="43.302033" lon="-4.147200">
        <ele>1020.0</ele>
        <time>2015-04-28T13:09:22Z</time>
      </trkpt>
      <trkpt lat="43.302133" lon="-4.147250">
        <ele>1019.0</ele>
        <time>2015-04-28T13:09:23Z</time>
      </trkpt>
      <trkpt lat="43.302217" lon="-4.147333">
        <ele>1019.0</ele>
        <time>2015-04-28T13:09:24Z</time>
      </trkpt>
      <trkpt lat="43.302317" lon="-4.147400">
        <ele>1018.0</ele>
        <time>2015-04-28T13:09:25Z</time>
      </trkpt>
      <trkpt lat="43.302400" lon="-4.147450">
        <ele>1016.0</ele>
        <time>2015-04-28T13:09:26Z</time>
      </trkpt>
      <trkpt lat="43.302483" lon="-4.147500">
        <ele>1015.0</ele>
        <time>2015-04-28T13:09:27Z</time>
      </trkpt>
      <trkpt lat="43.302567" lon="-4.147550">
        <ele>1014.0</ele>
        <time>2015-04-28T13:09:28Z</time>
      </trkpt>
      <trkpt lat="43.302633" lon="-4.147600">
        <ele>1013.0</ele>
        <time>2015-04-28T13:09:29Z</time>
      </trkpt>
      <trkpt lat="43.302717" lon="-4.147650">
        <ele>1012.0</ele>
        <time>2015-04-28T13:09:30Z</time>
      </trkpt>
      <trkpt lat="43.302783" lon="-4.147700">
        <ele>1012.0</ele>
        <time>2015-04-28T13:09:31Z</time>
      </trkpt>
      <trkpt lat="43.302850" lon="-4.147750">
        <ele>1011.0</ele>
        <time>2015-04-28T13:09:32Z</time>
      </trkpt>
      <trkpt lat="43.302933" lon="-4.147783">
        <ele>1010.0</ele>
        <time>2015-04-28T13:09:33Z</time>
      </trkpt>
      <trkpt lat="43.303033" lon="-4.147833">
        <ele>1009.0</ele>
        <time>2015-04-28T13:09:34Z</time>
      </trkpt>
      <trkpt lat="43.303133" lon="-4.147867">
        <ele>1008.0</ele>
        <time>2015-04-28T13:09:35Z</time>
      </trkpt>
      <trkpt lat="43.303233" lon="-4.147933">
        <ele>1006.0</ele>
        <time>2015-04-28T13:09:36Z</time>
      </trkpt>
      <trkpt lat="43.303317" lon="-4.148000">
        <ele>1004.0</ele>
        <time>2015-04-28T13:09:37Z</time>
      </trkpt>
      <trkpt lat="43.303367" lon="-4.148067">
        <ele>1001.0</ele>
        <time>2015-04-28T13:09:38Z</time>
      </trkpt>
      <trkpt lat="43.303450" lon="-4.148133">
        <ele>1000.0</ele>
        <time>2015-04-28T13:09:39Z</time>
      </trkpt>
      <trkpt lat="43.303517" lon="-4.148217">
        <ele>998.0</ele>
        <time>2015-04-28T13:09:40Z</time>
      </trkpt>
      <trkpt lat="43.303600" lon="-4.148300">
        <ele>996.0</ele>
        <time>2015-04-28T13:09:41Z</time>
      </trkpt>
      <trkpt lat="43.303683" lon="-4.148383">
        <ele>993.0</ele>
        <time>2015-04-28T13:09:42Z</time>
      </trkpt>
      <trkpt lat="43.303767" lon="-4.148450">
        <ele>990.0</ele>
        <time>2015-04-28T13:09:43Z</time>
      </trkpt>
      <trkpt lat="43.303850" lon="-4.148533">
        <ele>989.0</ele>
        <time>2015-04-28T13:09:44Z</time>
      </trkpt>
      <trkpt lat="43.303933" lon="-4.148583">
        <ele>987.0</ele>
        <time>2015-04-28T13:09:45Z</time>
      </trkpt>
      <trkpt lat="43.304000" lon="-4.148633">
        <ele>984.0</ele>
        <time>2015-04-28T13:09:46Z</time>
      </trkpt>
      <trkpt lat="43.304067" lon="-4.148683">
        <ele>983.0</ele>
        <time>2015-04-28T13:09:47Z</time>
      </trkpt>
      <trkpt lat="43.304167" lon="-4.148750">
        <ele>982.0</ele>
        <time>2015-04-28T13:09:48Z</time>
      </trkpt>
      <trkpt lat="43.304267" lon="-4.148800">
        <ele>980.0</ele>
        <time>2015-04-28T13:09:49Z</time>
      </trkpt>
      <trkpt lat="43.304367" lon="-4.148833">
        <ele>977.0</ele>
        <time>2015-04-28T13:09:50Z</time>
      </trkpt>
      <trkpt lat="43.304450" lon="-4.148883">
        <ele>975.0</ele>
        <time>2015-04-28T13:09:51Z</time>
      </trkpt>
      <trkpt lat="43.304533" lon="-4.148917">
        <ele>974.0</ele>
        <time>2015-04-28T13:09:52Z</time>
      </trkpt>
      <trkpt lat="43.304617" lon="-4.148967">
        <ele>973.0</ele>
        <time>2015-04-28T13:09:53Z</time>
      </trkpt>
      <trkpt lat="43.304683" lon="-4.149000">
        <ele>971.0</ele>
        <time>2015-04-28T13:09:54Z</time>
      </trkpt>
      <trkpt lat="43.304767" lon="-4.149067">
        <ele>967.0</ele>
        <time>2015-04-28T13:09:55Z</time>
      </trkpt>
      <trkpt lat="43.304850" lon="-4.149117">
        <ele>965.0</ele>
        <time>2015-04-28T13:09:56Z</time>
      </trkpt>
      <trkpt lat="43.304950" lon="-4.149167">
        <ele>962.0</ele>
        <time>2015-04-28T13:09:57Z</time>
      </trkpt>
      <trkpt lat="43.305033" lon="-4.149200">
        <ele>960.0</ele>
        <time>2015-04-28T13:09:58Z</time>
      </trkpt>
      <trkpt lat="43.305133" lon="-4.149250">
        <ele>963.0</ele>
        <time>2015-04-28T13:09:59Z</time>
      </trkpt>
      <trkpt lat="43.305217" lon="-4.149283">
        <ele>961.0</ele>
        <time>2015-04-28T13:10:00Z</time>
      </trkpt>
      <trkpt lat="43.305300" lon="-4.149317">
        <ele>959.0</ele>
        <time>2015-04-28T13:10:01Z</time>
      </trkpt>
      <trkpt lat="43.305383" lon="-4.149367">
        <ele>959.0</ele>
        <time>2015-04-28T13:10:02Z</time>
      </trkpt>
      <trkpt lat="43.305450" lon="-4.149400">
        <ele>957.0</ele>
        <time>2015-04-28T13:10:03Z</time>
      </trkpt>
      <trkpt lat="43.305533" lon="-4.149417">
        <ele>956.0</ele>
        <time>2015-04-28T13:10:04Z</time>
      </trkpt>
      <trkpt lat="43.305600" lon="-4.149450">
        <ele>955.0</ele>
        <time>2015-04-28T13:10:05Z</time>
      </trkpt>
      <trkpt lat="43.305683" lon="-4.149467">
        <ele>954.0</ele>
        <time>2015-04-28T13:10:06Z</time>
      </trkpt>
      <trkpt lat="43.305783" lon="-4.149500">
        <ele>952.0</ele>
        <time>2015-04-28T13:10:07Z</time>
      </trkpt>
      <trkpt lat="43.305867" lon="-4.149550">
        <ele>950.0</ele>
        <time>2015-04-28T13:10:08Z</time>
      </trkpt>
      <trkpt lat="43.305933" lon="-4.149617">
        <ele>949.0</ele>
        <time>2015-04-28T13:10:09Z</time>
      </trkpt>
      <trkpt lat="43.306017" lon="-4.149683">
        <ele>948.0</ele>
        <time>2015-04-28T13:10:10Z</time>
      </trkpt>
      <trkpt lat="43.306083" lon="-4.149733">
        <ele>945.0</ele>
        <time>2015-04-28T13:10:11Z</time>
      </trkpt>
      <trkpt lat="43.306150" lon="-4.149800">
        <ele>941.0</ele>
        <time>2015-04-28T13:10:12Z</time>
      </trkpt>
      <trkpt lat="43.306233" lon="-4.149850">
        <ele>939.0</ele>
        <time>2015-04-28T13:10:13Z</time>
      </trkpt>
      <trkpt lat="43.306333" lon="-4.149917">
        <ele>937.0</ele>
        <time>2015-04-28T13:10:14Z</time>
      </trkpt>
      <trkpt lat="43.306417" lon="-4.149983">
        <ele>938.0</ele>
        <time>2015-04-28T13:10:15Z</time>
      </trkpt>
      <trkpt lat="43.306483" lon="-4.150050">
        <ele>938.0</ele>
        <time>2015-04-28T13:10:16Z</time>
      </trkpt>
      <trkpt lat="43.306533" lon="-4.150117">
        <ele>938.0</ele>
        <time>2015-04-28T13:10:17Z</time>
      </trkpt>
      <trkpt lat="43.306583" lon="-4.150167">
        <ele>936.0</ele>
        <time>2015-04-28T13:10:18Z</time>
      </trkpt>
      <trkpt lat="43.306650" lon="-4.150233">
        <ele>934.0</ele>
        <time>2015-04-28T13:10:19Z</time>
      </trkpt>
      <trkpt lat="43.306717" lon="-4.150283">
        <ele>934.0</ele>
        <time>2015-04-28T13:10:20Z</time>
      </trkpt>
      <trkpt lat="43.306800" lon="-4.150350">
        <ele>933.0</ele>
        <time>2015-04-28T13:10:21Z</time>
      </trkpt>
      <trkpt lat="43.306883" lon="-4.150400">
        <ele>931.0</ele>
        <time>2015-04-28T13:10:22Z</time>
      </trkpt>
      <trkpt lat="43.306983" lon="-4.150450">
        <ele>930.0</ele>
        <time>2015-04-28T13:10:23Z</time>
      </trkpt>
      <trkpt lat="43.307067" lon="-4.150500">
        <ele>930.0</ele>
        <time>2015-04-28T13:10:24Z</time>
      </trkpt>
      <trkpt lat="43.307150" lon="-4.150550">
        <ele>930.0</ele>
        <time>2015-04-28T13:10:25Z</time>
      </trkpt>
      <trkpt lat="43.307217" lon="-4.150600">
        <ele>930.0</ele>
        <time>2015-04-28T13:10:26Z</time>
      </trkpt>
      <trkpt lat="43.307283" lon="-4.150633">
        <ele>930.0</ele>
        <time>2015-04-28T13:10:27Z</time>
      </trkpt>
      <trkpt lat="43.307350" lon="-4.150683">
        <ele>930.0</ele>
        <time>2015-04-28T13:10:28Z</time>
      </trkpt>
      <trkpt lat="43.307400" lon="-4.150717">
        <ele>930.0</ele>
        <time>2015-04-28T13:10:29Z</time>
      </trkpt>
      <trkpt lat="43.307467" lon="-4.150750">
        <ele>930.0</ele>
        <time>2015-04-28T13:10:30Z</time>
      </trkpt>
      <trkpt lat="43.307517" lon="-4.150783">
        <ele>930.0</ele>
        <time>2015-04-28T13:10:31Z</time>
      </trkpt>
      <trkpt lat="43.307567" lon="-4.150800">
        <ele>929.0</ele>
        <time>2015-04-28T13:10:32Z</time>
      </trkpt>
      <trkpt lat="43.307633" lon="-4.150817">
        <ele>928.0</ele>
        <time>2015-04-28T13:10:33Z</time>
      </trkpt>
      <trkpt lat="43.307717" lon="-4.150833">
        <ele>928.0</ele>
        <time>2015-04-28T13:10:34Z</time>
      </trkpt>
      <trkpt lat="43.307800" lon="-4.150850">
        <ele>926.0</ele>
        <time>2015-04-28T13:10:35Z</time>
      </trkpt>
      <trkpt lat="43.307900" lon="-4.150900">
        <ele>925.0</ele>
        <time>2015-04-28T13:10:36Z</time>
      </trkpt>
      <trkpt lat="43.307983" lon="-4.150933">
        <ele>924.0</ele>
        <time>2015-04-28T13:10:37Z</time>
      </trkpt>
      <trkpt lat="43.308067" lon="-4.150967">
        <ele>923.0</ele>
        <time>2015-04-28T13:10:38Z</time>
      </trkpt>
      <trkpt lat="43.308150" lon="-4.151000">
        <ele>922.0</ele>
        <time>2015-04-28T13:10:39Z</time>
      </trkpt>
      <trkpt lat="43.308233" lon="-4.151033">
        <ele>921.0</ele>
        <time>2015-04-28T13:10:40Z</time>
      </trkpt>
      <trkpt lat="43.308317" lon="-4.151067">
        <ele>919.0</ele>
        <time>2015-04-28T13:10:41Z</time>
      </trkpt>
      <trkpt lat="43.308417" lon="-4.151083">
        <ele>917.0</ele>
        <time>2015-04-28T13:10:42Z</time>
      </trkpt>
      <trkpt lat="43.308500" lon="-4.151117">
        <ele>915.0</ele>
        <time>2015-04-28T13:10:43Z</time>
      </trkpt>
      <trkpt lat="43.308583" lon="-4.151150">
        <ele>913.0</ele>
        <time>2015-04-28T13:10:44Z</time>
      </trkpt>
      <trkpt lat="43.308683" lon="-4.151183">
        <ele>912.0</ele>
        <time>2015-04-28T13:10:45Z</time>
      </trkpt>
      <trkpt lat="43.308767" lon="-4.151217">
        <ele>912.0</ele>
        <time>2015-04-28T13:10:46Z</time>
      </trkpt>
      <trkpt lat="43.308850" lon="-4.151267">
        <ele>911.0</ele>
        <time>2015-04-28T13:10:47Z</time>
      </trkpt>
      <trkpt lat="43.308933" lon="-4.151317">
        <ele>910.0</ele>
        <time>2015-04-28T13:10:48Z</time>
      </trkpt>
      <trkpt lat="43.309000" lon="-4.151400">
        <ele>909.0</ele>
        <time>2015-04-28T13:10:49Z</time>
      </trkpt>
      <trkpt lat="43.309067" lon="-4.151483">
        <ele>907.0</ele>
        <time>2015-04-28T13:10:50Z</time>
      </trkpt>
      <trkpt lat="43.309150" lon="-4.151567">
        <ele>906.0</ele>
        <time>2015-04-28T13:10:51Z</time>
      </trkpt>
      <trkpt lat="43.309217" lon="-4.151683">
        <ele>904.0</ele>
        <time>2015-04-28T13:10:52Z</time>
      </trkpt>
      <trkpt lat="43.309283" lon="-4.151800">
        <ele>902.0</ele>
        <time>2015-04-28T13:10:53Z</time>
      </trkpt>
      <trkpt lat="43.309333" lon="-4.151933">
        <ele>900.0</ele>
        <time>2015-04-28T13:10:54Z</time>
      </trkpt>
      <trkpt lat="43.309367" lon="-4.152083">
        <ele>898.0</ele>
        <time>2015-04-28T13:10:55Z</time>
      </trkpt>
      <trkpt lat="43.309417" lon="-4.152233">
        <ele>896.0</ele>
        <time>2015-04-28T13:10:56Z</time>
      </trkpt>
      <trkpt lat="43.309433" lon="-4.152383">
        <ele>894.0</ele>
        <time>2015-04-28T13:10:57Z</time>
      </trkpt>
      <trkpt lat="43.309450" lon="-4.152550">
        <ele>892.0</ele>
        <time>2015-04-28T13:10:58Z</time>
      </trkpt>
      <trkpt lat="43.309467" lon="-4.152717">
        <ele>889.0</ele>
        <time>2015-04-28T13:10:59Z</time>
      </trkpt>
      <trkpt lat="43.309450" lon="-4.152900">
        <ele>886.0</ele>
        <time>2015-04-28T13:11:00Z</time>
      </trkpt>
      <trkpt lat="43.309417" lon="-4.153067">
        <ele>884.0</ele>
        <time>2015-04-28T13:11:01Z</time>
      </trkpt>
      <trkpt lat="43.309367" lon="-4.153217">
        <ele>883.0</ele>
        <time>2015-04-28T13:11:02Z</time>
      </trkpt>
      <trkpt lat="43.309300" lon="-4.153333">
        <ele>881.0</ele>
        <time>2015-04-28T13:11:03Z</time>
      </trkpt>
      <trkpt lat="43.309217" lon="-4.153433">
        <ele>879.0</ele>
        <time>2015-04-28T13:11:04Z</time>
      </trkpt>
      <trkpt lat="43.309133" lon="-4.153517">
        <ele>877.0</ele>
        <time>2015-04-28T13:11:05Z</time>
      </trkpt>
      <trkpt lat="43.309067" lon="-4.153600">
        <ele>875.0</ele>
        <time>2015-04-28T13:11:06Z</time>
      </trkpt>
      <trkpt lat="43.308983" lon="-4.153667">
        <ele>877.0</ele>
        <time>2015-04-28T13:11:07Z</time>
      </trkpt>
      <trkpt lat="43.308900" lon="-4.153717">
        <ele>877.0</ele>
        <time>2015-04-28T13:11:08Z</time>
      </trkpt>
      <trkpt lat="43.308800" lon="-4.153783">
        <ele>877.0</ele>
        <time>2015-04-28T13:11:09Z</time>
      </trkpt>
      <trkpt lat="43.308700" lon="-4.153850">
        <ele>877.0</ele>
        <time>2015-04-28T13:11:10Z</time>
      </trkpt>
      <trkpt lat="43.308583" lon="-4.153900">
        <ele>877.0</ele>
        <time>2015-04-28T13:11:11Z</time>
      </trkpt>
      <trkpt lat="43.308483" lon="-4.153950">
        <ele>876.0</ele>
        <time>2015-04-28T13:11:12Z</time>
      </trkpt>
      <trkpt lat="43.308400" lon="-4.153983">
        <ele>875.0</ele>
        <time>2015-04-28T13:11:13Z</time>
      </trkpt>
      <trkpt lat="43.308300" lon="-4.154017">
        <ele>874.0</ele>
        <time>2015-04-28T13:11:14Z</time>
      </trkpt>
      <trkpt lat="43.308183" lon="-4.154067">
        <ele>872.0</ele>
        <time>2015-04-28T13:11:15Z</time>
      </trkpt>
      <trkpt lat="43.308083" lon="-4.154100">
        <ele>870.0</ele>
        <time>2015-04-28T13:11:16Z</time>
      </trkpt>
      <trkpt lat="43.307983" lon="-4.154133">
        <ele>868.0</ele>
        <time>2015-04-28T13:11:17Z</time>
      </trkpt>
      <trkpt lat="43.307883" lon="-4.154150">
        <ele>866.0</ele>
        <time>2015-04-28T13:11:18Z</time>
      </trkpt>
      <trkpt lat="43.307800" lon="-4.154200">
        <ele>864.0</ele>
        <time>2015-04-28T13:11:19Z</time>
      </trkpt>
      <trkpt lat="43.307717" lon="-4.154233">
        <ele>864.0</ele>
        <time>2015-04-28T13:11:20Z</time>
      </trkpt>
      <trkpt lat="43.307633" lon="-4.154267">
        <ele>862.0</ele>
        <time>2015-04-28T13:11:21Z</time>
      </trkpt>
      <trkpt lat="43.307533" lon="-4.154317">
        <ele>859.0</ele>
        <time>2015-04-28T13:11:22Z</time>
      </trkpt>
      <trkpt lat="43.307433" lon="-4.154367">
        <ele>856.0</ele>
        <time>2015-04-28T13:11:23Z</time>
      </trkpt>
      <trkpt lat="43.307333" lon="-4.154417">
        <ele>855.0</ele>
        <time>2015-04-28T13:11:24Z</time>
      </trkpt>
      <trkpt lat="43.307267" lon="-4.154467">
        <ele>854.0</ele>
        <time>2015-04-28T13:11:25Z</time>
      </trkpt>
      <trkpt lat="43.307183" lon="-4.154517">
        <ele>853.0</ele>
        <time>2015-04-28T13:11:26Z</time>
      </trkpt>
      <trkpt lat="43.307100" lon="-4.154567">
        <ele>851.0</ele>
        <time>2015-04-28T13:11:27Z</time>
      </trkpt>
      <trkpt lat="43.307017" lon="-4.154600">
        <ele>849.0</ele>
        <time>2015-04-28T13:11:28Z</time>
      </trkpt>
      <trkpt lat="43.306917" lon="-4.154633">
        <ele>847.0</ele>
        <time>2015-04-28T13:11:29Z</time>
      </trkpt>
      <trkpt lat="43.306833" lon="-4.154667">
        <ele>846.0</ele>
        <time>2015-04-28T13:11:30Z</time>
      </trkpt>
      <trkpt lat="43.306750" lon="-4.154700">
        <ele>846.0</ele>
        <time>2015-04-28T13:11:31Z</time>
      </trkpt>
      <trkpt lat="43.306667" lon="-4.154733">
        <ele>845.0</ele>
        <time>2015-04-28T13:11:32Z</time>
      </trkpt>
      <trkpt lat="43.306567" lon="-4.154750">
        <ele>845.0</ele>
        <time>2015-04-28T13:11:33Z</time>
      </trkpt>
      <trkpt lat="43.306483" lon="-4.154783">
        <ele>845.0</ele>
        <time>2015-04-28T13:11:34Z</time>
      </trkpt>
      <trkpt lat="43.306400" lon="-4.154817">
        <ele>844.0</ele>
        <time>2015-04-28T13:11:35Z</time>
      </trkpt>
      <trkpt lat="43.306317" lon="-4.154867">
        <ele>843.0</ele>
        <time>2015-04-28T13:11:36Z</time>
      </trkpt>
      <trkpt lat="43.306233" lon="-4.154900">
        <ele>843.0</ele>
        <time>2015-04-28T13:11:37Z</time>
      </trkpt>
      <trkpt lat="43.306167" lon="-4.154917">
        <ele>842.0</ele>
        <time>2015-04-28T13:11:38Z</time>
      </trkpt>
      <trkpt lat="43.306083" lon="-4.154950">
        <ele>843.0</ele>
        <time>2015-04-28T13:11:39Z</time>
      </trkpt>
      <trkpt lat="43.306000" lon="-4.154983">
        <ele>843.0</ele>
        <time>2015-04-28T13:11:40Z</time>
      </trkpt>
      <trkpt lat="43.305917" lon="-4.155000">
        <ele>842.0</ele>
        <time>2015-04-28T13:11:41Z</time>
      </trkpt>
      <trkpt lat="43.305850" lon="-4.155033">
        <ele>841.0</ele>
        <time>2015-04-28T13:11:42Z</time>
      </trkpt>
      <trkpt lat="43.305767" lon="-4.155050">
        <ele>841.0</ele>
        <time>2015-04-28T13:11:43Z</time>
      </trkpt>
      <trkpt lat="43.305700" lon="-4.155067">
        <ele>840.0</ele>
        <time>2015-04-28T13:11:44Z</time>
      </trkpt>
      <trkpt lat="43.305633" lon="-4.155083">
        <ele>840.0</ele>
        <time>2015-04-28T13:11:45Z</time>
      </trkpt>
      <trkpt lat="43.305550" lon="-4.155100">
        <ele>839.0</ele>
        <time>2015-04-28T13:11:46Z</time>
      </trkpt>
      <trkpt lat="43.305483" lon="-4.155117">
        <ele>838.0</ele>
        <time>2015-04-28T13:11:47Z</time>
      </trkpt>
      <trkpt lat="43.305417" lon="-4.155117">
        <ele>836.0</ele>
        <time>2015-04-28T13:11:48Z</time>
      </trkpt>
      <trkpt lat="43.305350" lon="-4.155133">
        <ele>834.0</ele>
        <time>2015-04-28T13:11:49Z</time>
      </trkpt>
      <trkpt lat="43.305267" lon="-4.155133">
        <ele>834.0</ele>
        <time>2015-04-28T13:11:50Z</time>
      </trkpt>
      <trkpt lat="43.305200" lon="-4.155133">
        <ele>833.0</ele>
        <time>2015-04-28T13:11:51Z</time>
      </trkpt>
      <trkpt lat="43.305117" lon="-4.155150">
        <ele>833.0</ele>
        <time>2015-04-28T13:11:52Z</time>
      </trkpt>
      <trkpt lat="43.305067" lon="-4.155150">
        <ele>833.0</ele>
        <time>2015-04-28T13:11:53Z</time>
      </trkpt>
      <trkpt lat="43.305000" lon="-4.155150">
        <ele>832.0</ele>
        <time>2015-04-28T13:11:54Z</time>
      </trkpt>
      <trkpt lat="43.304933" lon="-4.155167">
        <ele>831.0</ele>
        <time>2015-04-28T13:11:55Z</time>
      </trkpt>
      <trkpt lat="43.304850" lon="-4.155150">
        <ele>829.0</ele>
        <time>2015-04-28T13:11:56Z</time>
      </trkpt>
      <trkpt lat="43.304783" lon="-4.155150">
        <ele>827.0</ele>
        <time>2015-04-28T13:11:57Z</time>
      </trkpt>
      <trkpt lat="43.304717" lon="-4.155150">
        <ele>824.0</ele>
        <time>2015-04-28T13:11:58Z</time>
      </trkpt>
      <trkpt lat="43.304650" lon="-4.155133">
        <ele>823.0</ele>
        <time>2015-04-28T13:11:59Z</time>
      </trkpt>
      <trkpt lat="43.304600" lon="-4.155133">
        <ele>821.0</ele>
        <time>2015-04-28T13:12:00Z</time>
      </trkpt>
      <trkpt lat="43.304550" lon="-4.155117">
        <ele>819.0</ele>
        <time>2015-04-28T13:12:01Z</time>
      </trkpt>
      <trkpt lat="43.304483" lon="-4.155117">
        <ele>821.0</ele>
        <time>2015-04-28T13:12:02Z</time>
      </trkpt>
      <trkpt lat="43.304417" lon="-4.155100">
        <ele>820.0</ele>
        <time>2015-04-28T13:12:03Z</time>
      </trkpt>
      <trkpt lat="43.304350" lon="-4.155083">
        <ele>819.0</ele>
        <time>2015-04-28T13:12:04Z</time>
      </trkpt>
      <trkpt lat="43.304267" lon="-4.155067">
        <ele>818.0</ele>
        <time>2015-04-28T13:12:05Z</time>
      </trkpt>
      <trkpt lat="43.304183" lon="-4.155050">
        <ele>816.0</ele>
        <time>2015-04-28T13:12:06Z</time>
      </trkpt>
      <trkpt lat="43.304083" lon="-4.155067">
        <ele>815.0</ele>
        <time>2015-04-28T13:12:07Z</time>
      </trkpt>
      <trkpt lat="43.303983" lon="-4.155083">
        <ele>813.0</ele>
        <time>2015-04-28T13:12:08Z</time>
      </trkpt>
      <trkpt lat="43.303867" lon="-4.155117">
        <ele>811.0</ele>
        <time>2015-04-28T13:12:09Z</time>
      </trkpt>
      <trkpt lat="43.303767" lon="-4.155150">
        <ele>808.0</ele>
        <time>2015-04-28T13:12:10Z</time>
      </trkpt>
      <trkpt lat="43.303667" lon="-4.155183">
        <ele>806.0</ele>
        <time>2015-04-28T13:12:11Z</time>
      </trkpt>
      <trkpt lat="43.303567" lon="-4.155233">
        <ele>804.0</ele>
        <time>2015-04-28T13:12:12Z</time>
      </trkpt>
      <trkpt lat="43.303467" lon="-4.155267">
        <ele>802.0</ele>
        <time>2015-04-28T13:12:13Z</time>
      </trkpt>
      <trkpt lat="43.303367" lon="-4.155300">
        <ele>801.0</ele>
        <time>2015-04-28T13:12:14Z</time>
      </trkpt>
      <trkpt lat="43.303283" lon="-4.155317">
        <ele>800.0</ele>
        <time>2015-04-28T13:12:15Z</time>
      </trkpt>
      <trkpt lat="43.303183" lon="-4.155350">
        <ele>799.0</ele>
        <time>2015-04-28T13:12:16Z</time>
      </trkpt>
      <trkpt lat="43.303083" lon="-4.155367">
        <ele>799.0</ele>
        <time>2015-04-28T13:12:17Z</time>
      </trkpt>
      <trkpt lat="43.303000" lon="-4.155383">
        <ele>797.0</ele>
        <time>2015-04-28T13:12:18Z</time>
      </trkpt>
      <trkpt lat="43.302917" lon="-4.155417">
        <ele>797.0</ele>
        <time>2015-04-28T13:12:19Z</time>
      </trkpt>
      <trkpt lat="43.302850" lon="-4.155450">
        <ele>800.0</ele>
        <time>2015-04-28T13:12:20Z</time>
      </trkpt>
      <trkpt lat="43.302783" lon="-4.155483">
        <ele>800.0</ele>
        <time>2015-04-28T13:12:21Z</time>
      </trkpt>
      <trkpt lat="43.302717" lon="-4.155483">
        <ele>800.0</ele>
        <time>2015-04-28T13:12:22Z</time>
      </trkpt>
      <trkpt lat="43.302667" lon="-4.155450">
        <ele>799.0</ele>
        <time>2015-04-28T13:12:23Z</time>
      </trkpt>
      <trkpt lat="43.302617" lon="-4.155417">
        <ele>800.0</ele>
        <time>2015-04-28T13:12:24Z</time>
      </trkpt>
      <trkpt lat="43.302583" lon="-4.155417">
        <ele>800.0</ele>
        <time>2015-04-28T13:12:25Z</time>
      </trkpt>
      <trkpt lat="43.302533" lon="-4.155417">
        <ele>800.0</ele>
        <time>2015-04-28T13:12:26Z</time>
      </trkpt>
      <trkpt lat="43.302517" lon="-4.155400">
        <ele>800.0</ele>
        <time>2015-04-28T13:12:27Z</time>
      </trkpt>
      <trkpt lat="43.302500" lon="-4.155400">
        <ele>799.0</ele>
        <time>2015-04-28T13:12:28Z</time>
      </trkpt>
      <trkpt lat="43.302483" lon="-4.155383">
        <ele>799.0</ele>
        <time>2015-04-28T13:12:29Z</time>
      </trkpt>
      <trkpt lat="43.302500" lon="-4.155383">
        <ele>799.0</ele>
        <time>2015-04-28T13:12:30Z</time>
      </trkpt>
      <trkpt lat="43.302517" lon="-4.155383">
        <ele>799.0</ele>
        <time>2015-04-28T13:12:31Z</time>
      </trkpt>
      <trkpt lat="43.302550" lon="-4.155433">
        <ele>799.0</ele>
        <time>2015-04-28T13:12:32Z</time>
      </trkpt>
      <trkpt lat="43.302567" lon="-4.155500">
        <ele>799.0</ele>
        <time>2015-04-28T13:12:33Z</time>
      </trkpt>
      <trkpt lat="43.302600" lon="-4.155583">
        <ele>800.0</ele>
        <time>2015-04-28T13:12:34Z</time>
      </trkpt>
      <trkpt lat="43.302633" lon="-4.155683">
        <ele>800.0</ele>
        <time>2015-04-28T13:12:35Z</time>
      </trkpt>
      <trkpt lat="43.302667" lon="-4.155800">
        <ele>800.0</ele>
        <time>2015-04-28T13:12:36Z</time>
      </trkpt>
      <trkpt lat="43.302700" lon="-4.155950">
        <ele>801.0</ele>
        <time>2015-04-28T13:12:37Z</time>
      </trkpt>
      <trkpt lat="43.302717" lon="-4.156100">
        <ele>802.0</ele>
        <time>2015-04-28T13:12:38Z</time>
      </trkpt>
      <trkpt lat="43.302717" lon="-4.156267">
        <ele>802.0</ele>
        <time>2015-04-28T13:12:39Z</time>
      </trkpt>
      <trkpt lat="43.302700" lon="-4.156400">
        <ele>802.0</ele>
        <time>2015-04-28T13:12:40Z</time>
      </trkpt>
      <trkpt lat="43.302717" lon="-4.156550">
        <ele>800.0</ele>
        <time>2015-04-28T13:12:41Z</time>
      </trkpt>
      <trkpt lat="43.302700" lon="-4.156717">
        <ele>798.0</ele>
        <time>2015-04-28T13:12:42Z</time>
      </trkpt>
      <trkpt lat="43.302683" lon="-4.156883">
        <ele>797.0</ele>
        <time>2015-04-28T13:12:43Z</time>
      </trkpt>
      <trkpt lat="43.302633" lon="-4.157050">
        <ele>796.0</ele>
        <time>2015-04-28T13:12:44Z</time>
      </trkpt>
      <trkpt lat="43.302567" lon="-4.157200">
        <ele>796.0</ele>
        <time>2015-04-28T13:12:45Z</time>
      </trkpt>
      <trkpt lat="43.302500" lon="-4.157317">
        <ele>796.0</ele>
        <time>2015-04-28T13:12:46Z</time>
      </trkpt>
      <trkpt lat="43.302417" lon="-4.157417">
        <ele>796.0</ele>
        <time>2015-04-28T13:12:47Z</time>
      </trkpt>
      <trkpt lat="43.302350" lon="-4.157517">
        <ele>797.0</ele>
        <time>2015-04-28T13:12:48Z</time>
      </trkpt>
      <trkpt lat="43.302267" lon="-4.157617">
        <ele>798.0</ele>
        <time>2015-04-28T13:12:49Z</time>
      </trkpt>
      <trkpt lat="43.302183" lon="-4.157683">
        <ele>798.0</ele>
        <time>2015-04-28T13:12:50Z</time>
      </trkpt>
      <trkpt lat="43.302100" lon="-4.157750">
        <ele>798.0</ele>
        <time>2015-04-28T13:12:51Z</time>
      </trkpt>
      <trkpt lat="43.302000" lon="-4.157817">
        <ele>797.0</ele>
        <time>2015-04-28T13:12:52Z</time>
      </trkpt>
      <trkpt lat="43.301900" lon="-4.157883">
        <ele>798.0</ele>
        <time>2015-04-28T13:12:53Z</time>
      </trkpt>
      <trkpt lat="43.301817" lon="-4.157950">
        <ele>798.0</ele>
        <time>2015-04-28T13:12:54Z</time>
      </trkpt>
      <trkpt lat="43.301717" lon="-4.158017">
        <ele>797.0</ele>
        <time>2015-04-28T13:12:55Z</time>
      </trkpt>
      <trkpt lat="43.301617" lon="-4.158067">
        <ele>797.0</ele>
        <time>2015-04-28T13:12:56Z</time>
      </trkpt>
      <trkpt lat="43.301517" lon="-4.158100">
        <ele>796.0</ele>
        <time>2015-04-28T13:12:57Z</time>
      </trkpt>
      <trkpt lat="43.301400" lon="-4.158167">
        <ele>796.0</ele>
        <time>2015-04-28T13:12:58Z</time>
      </trkpt>
      <trkpt lat="43.301300" lon="-4.158217">
        <ele>795.0</ele>
        <time>2015-04-28T13:12:59Z</time>
      </trkpt>
      <trkpt lat="43.301183" lon="-4.158283">
        <ele>795.0</ele>
        <time>2015-04-28T13:13:00Z</time>
      </trkpt>
      <trkpt lat="43.301083" lon="-4.158350">
        <ele>794.0</ele>
        <time>2015-04-28T13:13:01Z</time>
      </trkpt>
      <trkpt lat="43.300967" lon="-4.158400">
        <ele>794.0</ele>
        <time>2015-04-28T13:13:02Z</time>
      </trkpt>
      <trkpt lat="43.300867" lon="-4.158450">
        <ele>794.0</ele>
        <time>2015-04-28T13:13:03Z</time>
      </trkpt>
      <trkpt lat="43.300767" lon="-4.158467">
        <ele>794.0</ele>
        <time>2015-04-28T13:13:04Z</time>
      </trkpt>
      <trkpt lat="43.300667" lon="-4.158500">
        <ele>793.0</ele>
        <time>2015-04-28T13:13:05Z</time>
      </trkpt>
      <trkpt lat="43.300550" lon="-4.158550">
        <ele>792.0</ele>
        <time>2015-04-28T13:13:06Z</time>
      </trkpt>
      <trkpt lat="43.300450" lon="-4.158617">
        <ele>791.0</ele>
        <time>2015-04-28T13:13:07Z</time>
      </trkpt>
      <trkpt lat="43.300333" lon="-4.158683">
        <ele>790.0</ele>
        <time>2015-04-28T13:13:08Z</time>
      </trkpt>
      <trkpt lat="43.300233" lon="-4.158733">
        <ele>788.0</ele>
        <time>2015-04-28T13:13:09Z</time>
      </trkpt>
      <trkpt lat="43.300150" lon="-4.158767">
        <ele>786.0</ele>
        <time>2015-04-28T13:13:10Z</time>
      </trkpt>
      <trkpt lat="43.300050" lon="-4.158767">
        <ele>784.0</ele>
        <time>2015-04-28T13:13:11Z</time>
      </trkpt>
      <trkpt lat="43.299983" lon="-4.158750">
        <ele>784.0</ele>
        <time>2015-04-28T13:13:12Z</time>
      </trkpt>
      <trkpt lat="43.299900" lon="-4.158733">
        <ele>785.0</ele>
        <time>2015-04-28T13:13:13Z</time>
      </trkpt>
      <trkpt lat="43.299817" lon="-4.158700">
        <ele>785.0</ele>
        <time>2015-04-28T13:13:14Z</time>
      </trkpt>
      <trkpt lat="43.299750" lon="-4.158683">
        <ele>785.0</ele>
        <time>2015-04-28T13:13:15Z</time>
      </trkpt>
      <trkpt lat="43.299683" lon="-4.158633">
        <ele>784.0</ele>
        <time>2015-04-28T13:13:16Z</time>
      </trkpt>
      <trkpt lat="43.299617" lon="-4.158583">
        <ele>784.0</ele>
        <time>2015-04-28T13:13:17Z</time>
      </trkpt>
      <trkpt lat="43.299567" lon="-4.158533">
        <ele>784.0</ele>
        <time>2015-04-28T13:13:18Z</time>
      </trkpt>
      <trkpt lat="43.299500" lon="-4.158467">
        <ele>783.0</ele>
        <time>2015-04-28T13:13:19Z</time>
      </trkpt>
      <trkpt lat="43.299450" lon="-4.158417">
        <ele>783.0</ele>
        <time>2015-04-28T13:13:20Z</time>
      </trkpt>
      <trkpt lat="43.299400" lon="-4.158350">
        <ele>783.0</ele>
        <time>2015-04-28T13:13:21Z</time>
      </trkpt>
      <trkpt lat="43.299367" lon="-4.158300">
        <ele>782.0</ele>
        <time>2015-04-28T13:13:22Z</time>
      </trkpt>
      <trkpt lat="43.299333" lon="-4.158217">
        <ele>782.0</ele>
        <time>2015-04-28T13:13:23Z</time>
      </trkpt>
      <trkpt lat="43.299300" lon="-4.158150">
        <ele>781.0</ele>
        <time>2015-04-28T13:13:24Z</time>
      </trkpt>
      <trkpt lat="43.299283" lon="-4.158083">
        <ele>781.0</ele>
        <time>2015-04-28T13:13:25Z</time>
      </trkpt>
      <trkpt lat="43.299250" lon="-4.158017">
        <ele>780.0</ele>
        <time>2015-04-28T13:13:26Z</time>
      </trkpt>
      <trkpt lat="43.299217" lon="-4.157950">
        <ele>780.0</ele>
        <time>2015-04-28T13:13:27Z</time>
      </trkpt>
      <trkpt lat="43.299183" lon="-4.157883">
        <ele>780.0</ele>
        <time>2015-04-28T13:13:28Z</time>
      </trkpt>
      <trkpt lat="43.299150" lon="-4.157833">
        <ele>779.0</ele>
        <time>2015-04-28T13:13:29Z</time>
      </trkpt>
      <trkpt lat="43.299117" lon="-4.157783">
        <ele>779.0</ele>
        <time>2015-04-28T13:13:30Z</time>
      </trkpt>
      <trkpt lat="43.299100" lon="-4.157733">
        <ele>778.0</ele>
        <time>2015-04-28T13:13:31Z</time>
      </trkpt>
      <trkpt lat="43.299067" lon="-4.157667">
        <ele>778.0</ele>
        <time>2015-04-28T13:13:32Z</time>
      </trkpt>
      <trkpt lat="43.299033" lon="-4.157617">
        <ele>778.0</ele>
        <time>2015-04-28T13:13:33Z</time>
      </trkpt>
      <trkpt lat="43.299000" lon="-4.157567">
        <ele>778.0</ele>
        <time>2015-04-28T13:13:34Z</time>
      </trkpt>
      <trkpt lat="43.298967" lon="-4.157533">
        <ele>779.0</ele>
        <time>2015-04-28T13:13:35Z</time>
      </trkpt>
      <trkpt lat="43.298950" lon="-4.157533">
        <ele>779.0</ele>
        <time>2015-04-28T13:13:36Z</time>
      </trkpt>
      <trkpt lat="43.298933" lon="-4.157533">
        <ele>779.0</ele>
        <time>2015-04-28T13:13:37Z</time>
      </trkpt>
      <trkpt lat="43.298917" lon="-4.157550">
        <ele>778.0</ele>
        <time>2015-04-28T13:13:38Z</time>
      </trkpt>
      <trkpt lat="43.298900" lon="-4.157550">
        <ele>779.0</ele>
        <time>2015-04-28T13:13:39Z</time>
      </trkpt>
      <trkpt lat="43.298900" lon="-4.157517">
        <ele>778.0</ele>
        <time>2015-04-28T13:13:40Z</time>
      </trkpt>
      <trkpt lat="43.298900" lon="-4.157500">
        <ele>778.0</ele>
        <time>2015-04-28T13:13:41Z</time>
      </trkpt>
      <trkpt lat="43.298900" lon="-4.157467">
        <ele>778.0</ele>
        <time>2015-04-28T13:13:42Z</time>
      </trkpt>
      <trkpt lat="43.298900" lon="-4.157433">
        <ele>778.0</ele>
        <time>2015-04-28T13:13:43Z</time>
      </trkpt>
      <trkpt lat="43.298900" lon="-4.157367">
        <ele>778.0</ele>
        <time>2015-04-28T13:13:44Z</time>
      </trkpt>
      <trkpt lat="43.298883" lon="-4.157300">
        <ele>778.0</ele>
        <time>2015-04-28T13:13:45Z</time>
      </trkpt>
      <trkpt lat="43.298867" lon="-4.157267">
        <ele>778.0</ele>
        <time>2015-04-28T13:13:46Z</time>
      </trkpt>
      <trkpt lat="43.298867" lon="-4.157233">
        <ele>778.0</ele>
        <time>2015-04-28T13:13:47Z</time>
      </trkpt>
      <trkpt lat="43.298850" lon="-4.157183">
        <ele>778.0</ele>
        <time>2015-04-28T13:13:48Z</time>
      </trkpt>
      <trkpt lat="43.298833" lon="-4.157117">
        <ele>778.0</ele>
        <time>2015-04-28T13:13:49Z</time>
      </trkpt>
      <trkpt lat="43.298800" lon="-4.157067">
        <ele>778.0</ele>
        <time>2015-04-28T13:13:50Z</time>
      </trkpt>
      <trkpt lat="43.298783" lon="-4.157033">
        <ele>778.0</ele>
        <time>2015-04-28T13:13:51Z</time>
      </trkpt>
      <trkpt lat="43.298750" lon="-4.157033">
        <ele>778.0</ele>
        <time>2015-04-28T13:13:52Z</time>
      </trkpt>
      <trkpt lat="43.298733" lon="-4.157017">
        <ele>778.0</ele>
        <time>2015-04-28T13:13:53Z</time>
      </trkpt>
      <trkpt lat="43.298733" lon="-4.157033">
        <ele>778.0</ele>
        <time>2015-04-28T13:13:54Z</time>
      </trkpt>
      <trkpt lat="43.298717" lon="-4.157033">
        <ele>778.0</ele>
        <time>2015-04-28T13:13:55Z</time>
      </trkpt>
      <trkpt lat="43.298700" lon="-4.157050">
        <ele>778.0</ele>
        <time>2015-04-28T13:13:56Z</time>
      </trkpt>
      <trkpt lat="43.298667" lon="-4.157050">
        <ele>778.0</ele>
        <time>2015-04-28T13:13:57Z</time>
      </trkpt>
      <trkpt lat="43.298650" lon="-4.157067">
        <ele>778.0</ele>
        <time>2015-04-28T13:13:58Z</time>
      </trkpt>
      <trkpt lat="43.298617" lon="-4.157067">
        <ele>779.0</ele>
        <time>2015-04-28T13:13:59Z</time>
      </trkpt>
      <trkpt lat="43.298600" lon="-4.157033">
        <ele>778.0</ele>
        <time>2015-04-28T13:14:00Z</time>
      </trkpt>
      <trkpt lat="43.298583" lon="-4.157000">
        <ele>778.0</ele>
        <time>2015-04-28T13:14:01Z</time>
      </trkpt>
      <trkpt lat="43.298567" lon="-4.156967">
        <ele>777.0</ele>
        <time>2015-04-28T13:14:02Z</time>
      </trkpt>
      <trkpt lat="43.298567" lon="-4.156950">
        <ele>777.0</ele>
        <time>2015-04-28T13:14:03Z</time>
      </trkpt>
      <trkpt lat="43.298550" lon="-4.156933">
        <ele>777.0</ele>
        <time>2015-04-28T13:14:04Z</time>
      </trkpt>
      <trkpt lat="43.298533" lon="-4.156917">
        <ele>776.0</ele>
        <time>2015-04-28T13:14:05Z</time>
      </trkpt>
      <trkpt lat="43.298500" lon="-4.156900">
        <ele>775.0</ele>
        <time>2015-04-28T13:14:06Z</time>
      </trkpt>
      <trkpt lat="43.298483" lon="-4.156867">
        <ele>774.0</ele>
        <time>2015-04-28T13:14:07Z</time>
      </trkpt>
      <trkpt lat="43.298467" lon="-4.156833">
        <ele>773.0</ele>
        <time>2015-04-28T13:14:08Z</time>
      </trkpt>
      <trkpt lat="43.298467" lon="-4.156800">
        <ele>775.0</ele>
        <time>2015-04-28T13:14:09Z</time>
      </trkpt>
      <trkpt lat="43.298450" lon="-4.156800">
        <ele>775.0</ele>
        <time>2015-04-28T13:14:10Z</time>
      </trkpt>
      <trkpt lat="43.298450" lon="-4.156817">
        <ele>775.0</ele>
        <time>2015-04-28T13:14:11Z</time>
      </trkpt>
      <trkpt lat="43.298450" lon="-4.156817">
        <ele>775.0</ele>
        <time>2015-04-28T13:14:12Z</time>
      </trkpt>
      <trkpt lat="43.298433" lon="-4.156833">
        <ele>775.0</ele>
        <time>2015-04-28T13:14:13Z</time>
      </trkpt>
      <trkpt lat="43.298417" lon="-4.156817">
        <ele>775.0</ele>
        <time>2015-04-28T13:14:14Z</time>
      </trkpt>
      <trkpt lat="43.298400" lon="-4.156833">
        <ele>775.0</ele>
        <time>2015-04-28T13:14:15Z</time>
      </trkpt>
      <trkpt lat="43.298383" lon="-4.156800">
        <ele>775.0</ele>
        <time>2015-04-28T13:14:16Z</time>
      </trkpt>
      <trkpt lat="43.298383" lon="-4.156783">
        <ele>775.0</ele>
        <time>2015-04-28T13:14:17Z</time>
      </trkpt>
      <trkpt lat="43.298400" lon="-4.156767">
        <ele>775.0</ele>
        <time>2015-04-28T13:14:18Z</time>
      </trkpt>
      <trkpt lat="43.298417" lon="-4.156733">
        <ele>775.0</ele>
        <time>2015-04-28T13:14:19Z</time>
      </trkpt>
      <trkpt lat="43.298400" lon="-4.156717">
        <ele>775.0</ele>
        <time>2015-04-28T13:14:20Z</time>
      </trkpt>
      <trkpt lat="43.298400" lon="-4.156700">
        <ele>775.0</ele>
        <time>2015-04-28T13:14:21Z</time>
      </trkpt>
      <trkpt lat="43.298383" lon="-4.156683">
        <ele>775.0</ele>
        <time>2015-04-28T13:14:22Z</time>
      </trkpt>
      <trkpt lat="43.298383" lon="-4.156667">
        <ele>775.0</ele>
        <time>2015-04-28T13:14:23Z</time>
      </trkpt>
      <trkpt lat="43.298400" lon="-4.156633">
        <ele>775.0</ele>
        <time>2015-04-28T13:14:24Z</time>
      </trkpt>
      <trkpt lat="43.298417" lon="-4.156617">
        <ele>775.0</ele>
        <time>2015-04-28T13:14:25Z</time>
      </trkpt>
      <trkpt lat="43.298433" lon="-4.156600">
        <ele>775.0</ele>
        <time>2015-04-28T13:14:26Z</time>
      </trkpt>
      <trkpt lat="43.298467" lon="-4.156600">
        <ele>775.0</ele>
        <time>2015-04-28T13:14:27Z</time>
      </trkpt>
      <trkpt lat="43.298483" lon="-4.156600">
        <ele>775.0</ele>
        <time>2015-04-28T13:14:28Z</time>
      </trkpt>
      <trkpt lat="43.298500" lon="-4.156600">
        <ele>775.0</ele>
        <time>2015-04-28T13:14:29Z</time>
      </trkpt>
      <trkpt lat="43.298500" lon="-4.156550">
        <ele>775.0</ele>
        <time>2015-04-28T13:14:30Z</time>
      </trkpt>
      <trkpt lat="43.298500" lon="-4.156517">
        <ele>775.0</ele>
        <time>2015-04-28T13:14:31Z</time>
      </trkpt>
      <trkpt lat="43.298500" lon="-4.156483">
        <ele>776.0</ele>
        <time>2015-04-28T13:14:32Z</time>
      </trkpt>
      <trkpt lat="43.298483" lon="-4.156467">
        <ele>776.0</ele>
        <time>2015-04-28T13:14:33Z</time>
      </trkpt>
      <trkpt lat="43.298467" lon="-4.156433">
        <ele>776.0</ele>
        <time>2015-04-28T13:14:34Z</time>
      </trkpt>
      <trkpt lat="43.298467" lon="-4.156417">
        <ele>776.0</ele>
        <time>2015-04-28T13:14:35Z</time>
      </trkpt>
      <trkpt lat="43.298467" lon="-4.156400">
        <ele>776.0</ele>
        <time>2015-04-28T13:14:36Z</time>
      </trkpt>
      <trkpt lat="43.298467" lon="-4.156383">
        <ele>777.0</ele>
        <time>2015-04-28T13:14:37Z</time>
      </trkpt>
      <trkpt lat="43.298450" lon="-4.156367">
        <ele>777.0</ele>
        <time>2015-04-28T13:14:38Z</time>
      </trkpt>
      <trkpt lat="43.298450" lon="-4.156350">
        <ele>777.0</ele>
        <time>2015-04-28T13:14:39Z</time>
      </trkpt>
      <trkpt lat="43.298467" lon="-4.156367">
        <ele>777.0</ele>
        <time>2015-04-28T13:14:40Z</time>
      </trkpt>
      <trkpt lat="43.298500" lon="-4.156400">
        <ele>777.0</ele>
        <time>2015-04-28T13:14:41Z</time>
      </trkpt>
      <trkpt lat="43.298550" lon="-4.156467">
        <ele>777.0</ele>
        <time>2015-04-28T13:14:42Z</time>
      </trkpt>
      <trkpt lat="43.298583" lon="-4.156550">
        <ele>779.0</ele>
        <time>2015-04-28T13:14:43Z</time>
      </trkpt>
      <trkpt lat="43.298633" lon="-4.156633">
        <ele>781.0</ele>
        <time>2015-04-28T13:14:44Z</time>
      </trkpt>
      <trkpt lat="43.298667" lon="-4.156700">
        <ele>783.0</ele>
        <time>2015-04-28T13:14:45Z</time>
      </trkpt>
      <trkpt lat="43.298717" lon="-4.156767">
        <ele>783.0</ele>
        <time>2015-04-28T13:14:46Z</time>
      </trkpt>
      <trkpt lat="43.298750" lon="-4.156850">
        <ele>783.0</ele>
        <time>2015-04-28T13:14:47Z</time>
      </trkpt>
      <trkpt lat="43.298783" lon="-4.156950">
        <ele>783.0</ele>
        <time>2015-04-28T13:14:48Z</time>
      </trkpt>
      <trkpt lat="43.298800" lon="-4.157083">
        <ele>784.0</ele>
        <time>2015-04-28T13:14:49Z</time>
      </trkpt>
      <trkpt lat="43.298833" lon="-4.157233">
        <ele>785.0</ele>
        <time>2015-04-28T13:14:50Z</time>
      </trkpt>
      <trkpt lat="43.298850" lon="-4.157383">
        <ele>785.0</ele>
        <time>2015-04-28T13:14:51Z</time>
      </trkpt>
      <trkpt lat="43.298867" lon="-4.157533">
        <ele>787.0</ele>
        <time>2015-04-28T13:14:52Z</time>
      </trkpt>
      <trkpt lat="43.298867" lon="-4.157683">
        <ele>788.0</ele>
        <time>2015-04-28T13:14:53Z</time>
      </trkpt>
      <trkpt lat="43.298850" lon="-4.157833">
        <ele>789.0</ele>
        <time>2015-04-28T13:14:54Z</time>
      </trkpt>
      <trkpt lat="43.298833" lon="-4.158000">
        <ele>789.0</ele>
        <time>2015-04-28T13:14:55Z</time>
      </trkpt>
      <trkpt lat="43.298800" lon="-4.158150">
        <ele>789.0</ele>
        <time>2015-04-28T13:14:56Z</time>
      </trkpt>
      <trkpt lat="43.298750" lon="-4.158300">
        <ele>790.0</ele>
        <time>2015-04-28T13:14:57Z</time>
      </trkpt>
      <trkpt lat="43.298683" lon="-4.158450">
        <ele>789.0</ele>
        <time>2015-04-28T13:14:58Z</time>
      </trkpt>
      <trkpt lat="43.298600" lon="-4.158550">
        <ele>788.0</ele>
        <time>2015-04-28T13:14:59Z</time>
      </trkpt>
      <trkpt lat="43.298483" lon="-4.158633">
        <ele>786.0</ele>
        <time>2015-04-28T13:15:00Z</time>
      </trkpt>
      <trkpt lat="43.298383" lon="-4.158683">
        <ele>786.0</ele>
        <time>2015-04-28T13:15:01Z</time>
      </trkpt>
      <trkpt lat="43.298300" lon="-4.158683">
        <ele>785.0</ele>
        <time>2015-04-28T13:15:02Z</time>
      </trkpt>
      <trkpt lat="43.298233" lon="-4.158683">
        <ele>785.0</ele>
        <time>2015-04-28T13:15:03Z</time>
      </trkpt>
      <trkpt lat="43.298183" lon="-4.158667">
        <ele>784.0</ele>
        <time>2015-04-28T13:15:04Z</time>
      </trkpt>
      <trkpt lat="43.298133" lon="-4.158633">
        <ele>784.0</ele>
        <time>2015-04-28T13:15:05Z</time>
      </trkpt>
      <trkpt lat="43.298117" lon="-4.158583">
        <ele>783.0</ele>
        <time>2015-04-28T13:15:06Z</time>
      </trkpt>
      <trkpt lat="43.298117" lon="-4.158533">
        <ele>783.0</ele>
        <time>2015-04-28T13:15:07Z</time>
      </trkpt>
      <trkpt lat="43.298117" lon="-4.158467">
        <ele>783.0</ele>
        <time>2015-04-28T13:15:08Z</time>
      </trkpt>
      <trkpt lat="43.298133" lon="-4.158417">
        <ele>784.0</ele>
        <time>2015-04-28T13:15:09Z</time>
      </trkpt>
      <trkpt lat="43.298133" lon="-4.158400">
        <ele>784.0</ele>
        <time>2015-04-28T13:15:10Z</time>
      </trkpt>
      <trkpt lat="43.298150" lon="-4.158367">
        <ele>784.0</ele>
        <time>2015-04-28T13:15:11Z</time>
      </trkpt>
      <trkpt lat="43.298167" lon="-4.158333">
        <ele>784.0</ele>
        <time>2015-04-28T13:15:12Z</time>
      </trkpt>
      <trkpt lat="43.298183" lon="-4.158300">
        <ele>784.0</ele>
        <time>2015-04-28T13:15:13Z</time>
      </trkpt>
      <trkpt lat="43.298233" lon="-4.158283">
        <ele>784.0</ele>
        <time>2015-04-28T13:15:14Z</time>
      </trkpt>
      <trkpt lat="43.298267" lon="-4.158267">
        <ele>785.0</ele>
        <time>2015-04-28T13:15:15Z</time>
      </trkpt>
      <trkpt lat="43.298300" lon="-4.158267">
        <ele>787.0</ele>
        <time>2015-04-28T13:15:16Z</time>
      </trkpt>
      <trkpt lat="43.298333" lon="-4.158267">
        <ele>788.0</ele>
        <time>2015-04-28T13:15:17Z</time>
      </trkpt>
      <trkpt lat="43.298350" lon="-4.158267">
        <ele>790.0</ele>
        <time>2015-04-28T13:15:18Z</time>
      </trkpt>
      <trkpt lat="43.298350" lon="-4.158267">
        <ele>791.0</ele>
        <time>2015-04-28T13:15:19Z</time>
      </trkpt>
      <trkpt lat="43.298350" lon="-4.158250">
        <ele>792.0</ele>
        <time>2015-04-28T13:15:20Z</time>
      </trkpt>
      <trkpt lat="43.298350" lon="-4.158250">
        <ele>791.0</ele>
        <time>2015-04-28T13:15:21Z</time>
      </trkpt>
      <trkpt lat="43.298367" lon="-4.158233">
        <ele>791.0</ele>
        <time>2015-04-28T13:15:22Z</time>
      </trkpt>
      <trkpt lat="43.298400" lon="-4.158233">
        <ele>791.0</ele>
        <time>2015-04-28T13:15:23Z</time>
      </trkpt>
      <trkpt lat="43.298450" lon="-4.158267">
        <ele>790.0</ele>
        <time>2015-04-28T13:15:24Z</time>
      </trkpt>
      <trkpt lat="43.298500" lon="-4.158317">
        <ele>790.0</ele>
        <time>2015-04-28T13:15:25Z</time>
      </trkpt>
      <trkpt lat="43.298550" lon="-4.158400">
        <ele>789.0</ele>
        <time>2015-04-28T13:15:26Z</time>
      </trkpt>
      <trkpt lat="43.298617" lon="-4.158483">
        <ele>788.0</ele>
        <time>2015-04-28T13:15:27Z</time>
      </trkpt>
      <trkpt lat="43.298667" lon="-4.158567">
        <ele>788.0</ele>
        <time>2015-04-28T13:15:28Z</time>
      </trkpt>
      <trkpt lat="43.298717" lon="-4.158650">
        <ele>786.0</ele>
        <time>2015-04-28T13:15:29Z</time>
      </trkpt>
      <trkpt lat="43.298783" lon="-4.158733">
        <ele>785.0</ele>
        <time>2015-04-28T13:15:30Z</time>
      </trkpt>
      <trkpt lat="43.298850" lon="-4.158833">
        <ele>785.0</ele>
        <time>2015-04-28T13:15:31Z</time>
      </trkpt>
      <trkpt lat="43.298900" lon="-4.158933">
        <ele>784.0</ele>
        <time>2015-04-28T13:15:32Z</time>
      </trkpt>
      <trkpt lat="43.298950" lon="-4.159050">
        <ele>783.0</ele>
        <time>2015-04-28T13:15:33Z</time>
      </trkpt>
      <trkpt lat="43.299017" lon="-4.159150">
        <ele>782.0</ele>
        <time>2015-04-28T13:15:34Z</time>
      </trkpt>
      <trkpt lat="43.299067" lon="-4.159250">
        <ele>781.0</ele>
        <time>2015-04-28T13:15:35Z</time>
      </trkpt>
      <trkpt lat="43.299117" lon="-4.159367">
        <ele>779.0</ele>
        <time>2015-04-28T13:15:36Z</time>
      </trkpt>
      <trkpt lat="43.299183" lon="-4.159483">
        <ele>776.0</ele>
        <time>2015-04-28T13:15:37Z</time>
      </trkpt>
      <trkpt lat="43.299250" lon="-4.159633">
        <ele>774.0</ele>
        <time>2015-04-28T13:15:38Z</time>
      </trkpt>
      <trkpt lat="43.299317" lon="-4.159783">
        <ele>772.0</ele>
        <time>2015-04-28T13:15:39Z</time>
      </trkpt>
      <trkpt lat="43.299367" lon="-4.159933">
        <ele>770.0</ele>
        <time>2015-04-28T13:15:40Z</time>
      </trkpt>
      <trkpt lat="43.299433" lon="-4.160083">
        <ele>769.0</ele>
        <time>2015-04-28T13:15:41Z</time>
      </trkpt>
      <trkpt lat="43.299483" lon="-4.160233">
        <ele>769.0</ele>
        <time>2015-04-28T13:15:42Z</time>
      </trkpt>
      <trkpt lat="43.299533" lon="-4.160383">
        <ele>769.0</ele>
        <time>2015-04-28T13:15:43Z</time>
      </trkpt>
      <trkpt lat="43.299583" lon="-4.160533">
        <ele>768.0</ele>
        <time>2015-04-28T13:15:44Z</time>
      </trkpt>
      <trkpt lat="43.299633" lon="-4.160683">
        <ele>766.0</ele>
        <time>2015-04-28T13:15:45Z</time>
      </trkpt>
      <trkpt lat="43.299683" lon="-4.160833">
        <ele>765.0</ele>
        <time>2015-04-28T13:15:46Z</time>
      </trkpt>
      <trkpt lat="43.299733" lon="-4.160983">
        <ele>764.0</ele>
        <time>2015-04-28T13:15:47Z</time>
      </trkpt>
      <trkpt lat="43.299783" lon="-4.161133">
        <ele>762.0</ele>
        <time>2015-04-28T13:15:48Z</time>
      </trkpt>
      <trkpt lat="43.299833" lon="-4.161300">
        <ele>761.0</ele>
        <time>2015-04-28T13:15:49Z</time>
      </trkpt>
      <trkpt lat="43.299867" lon="-4.161450">
        <ele>760.0</ele>
        <time>2015-04-28T13:15:50Z</time>
      </trkpt>
      <trkpt lat="43.299917" lon="-4.161617">
        <ele>759.0</ele>
        <time>2015-04-28T13:15:51Z</time>
      </trkpt>
      <trkpt lat="43.299983" lon="-4.161767">
        <ele>760.0</ele>
        <time>2015-04-28T13:15:52Z</time>
      </trkpt>
      <trkpt lat="43.300017" lon="-4.161917">
        <ele>763.0</ele>
        <time>2015-04-28T13:15:53Z</time>
      </trkpt>
      <trkpt lat="43.300050" lon="-4.162050">
        <ele>763.0</ele>
        <time>2015-04-28T13:15:54Z</time>
      </trkpt>
      <trkpt lat="43.300083" lon="-4.162183">
        <ele>761.0</ele>
        <time>2015-04-28T13:15:55Z</time>
      </trkpt>
      <trkpt lat="43.300117" lon="-4.162300">
        <ele>759.0</ele>
        <time>2015-04-28T13:15:56Z</time>
      </trkpt>
      <trkpt lat="43.300150" lon="-4.162433">
        <ele>757.0</ele>
        <time>2015-04-28T13:15:57Z</time>
      </trkpt>
      <trkpt lat="43.300200" lon="-4.162583">
        <ele>755.0</ele>
        <time>2015-04-28T13:15:58Z</time>
      </trkpt>
      <trkpt lat="43.300233" lon="-4.162733">
        <ele>754.0</ele>
        <time>2015-04-28T13:15:59Z</time>
      </trkpt>
      <trkpt lat="43.300267" lon="-4.162900">
        <ele>753.0</ele>
        <time>2015-04-28T13:16:00Z</time>
      </trkpt>
      <trkpt lat="43.300317" lon="-4.163083">
        <ele>752.0</ele>
        <time>2015-04-28T13:16:01Z</time>
      </trkpt>
      <trkpt lat="43.300333" lon="-4.163250">
        <ele>751.0</ele>
        <time>2015-04-28T13:16:02Z</time>
      </trkpt>
      <trkpt lat="43.300367" lon="-4.163417">
        <ele>751.0</ele>
        <time>2015-04-28T13:16:03Z</time>
      </trkpt>
      <trkpt lat="43.300367" lon="-4.163600">
        <ele>751.0</ele>
        <time>2015-04-28T13:16:04Z</time>
      </trkpt>
      <trkpt lat="43.300383" lon="-4.163767">
        <ele>750.0</ele>
        <time>2015-04-28T13:16:05Z</time>
      </trkpt>
      <trkpt lat="43.300383" lon="-4.163967">
        <ele>749.0</ele>
        <time>2015-04-28T13:16:06Z</time>
      </trkpt>
      <trkpt lat="43.300383" lon="-4.164150">
        <ele>747.0</ele>
        <time>2015-04-28T13:16:07Z</time>
      </trkpt>
      <trkpt lat="43.300400" lon="-4.164333">
        <ele>746.0</ele>
        <time>2015-04-28T13:16:08Z</time>
      </trkpt>
      <trkpt lat="43.300417" lon="-4.164533">
        <ele>746.0</ele>
        <time>2015-04-28T13:16:09Z</time>
      </trkpt>
      <trkpt lat="43.300417" lon="-4.164717">
        <ele>746.0</ele>
        <time>2015-04-28T13:16:10Z</time>
      </trkpt>
      <trkpt lat="43.300417" lon="-4.164917">
        <ele>745.0</ele>
        <time>2015-04-28T13:16:11Z</time>
      </trkpt>
      <trkpt lat="43.300400" lon="-4.165100">
        <ele>743.0</ele>
        <time>2015-04-28T13:16:12Z</time>
      </trkpt>
      <trkpt lat="43.300400" lon="-4.165300">
        <ele>741.0</ele>
        <time>2015-04-28T13:16:13Z</time>
      </trkpt>
      <trkpt lat="43.300400" lon="-4.165517">
        <ele>738.0</ele>
        <time>2015-04-28T13:16:14Z</time>
      </trkpt>
      <trkpt lat="43.300400" lon="-4.165733">
        <ele>736.0</ele>
        <time>2015-04-28T13:16:15Z</time>
      </trkpt>
      <trkpt lat="43.300400" lon="-4.165950">
        <ele>734.0</ele>
        <time>2015-04-28T13:16:16Z</time>
      </trkpt>
      <trkpt lat="43.300400" lon="-4.166150">
        <ele>732.0</ele>
        <time>2015-04-28T13:16:17Z</time>
      </trkpt>
      <trkpt lat="43.300417" lon="-4.166333">
        <ele>730.0</ele>
        <time>2015-04-28T13:16:18Z</time>
      </trkpt>
      <trkpt lat="43.300417" lon="-4.166533">
        <ele>728.0</ele>
        <time>2015-04-28T13:16:19Z</time>
      </trkpt>
      <trkpt lat="43.300417" lon="-4.166717">
        <ele>725.0</ele>
        <time>2015-04-28T13:16:20Z</time>
      </trkpt>
      <trkpt lat="43.300433" lon="-4.166917">
        <ele>722.0</ele>
        <time>2015-04-28T13:16:21Z</time>
      </trkpt>
      <trkpt lat="43.300450" lon="-4.167133">
        <ele>718.0</ele>
        <time>2015-04-28T13:16:22Z</time>
      </trkpt>
      <trkpt lat="43.300467" lon="-4.167350">
        <ele>715.0</ele>
        <time>2015-04-28T13:16:23Z</time>
      </trkpt>
      <trkpt lat="43.300467" lon="-4.167550">
        <ele>712.0</ele>
        <time>2015-04-28T13:16:24Z</time>
      </trkpt>
      <trkpt lat="43.300483" lon="-4.167767">
        <ele>709.0</ele>
        <time>2015-04-28T13:16:25Z</time>
      </trkpt>
      <trkpt lat="43.300483" lon="-4.167967">
        <ele>707.0</ele>
        <time>2015-04-28T13:16:26Z</time>
      </trkpt>
      <trkpt lat="43.300500" lon="-4.168167">
        <ele>704.0</ele>
        <time>2015-04-28T13:16:27Z</time>
      </trkpt>
      <trkpt lat="43.300500" lon="-4.168367">
        <ele>701.0</ele>
        <time>2015-04-28T13:16:28Z</time>
      </trkpt>
      <trkpt lat="43.300500" lon="-4.168567">
        <ele>699.0</ele>
        <time>2015-04-28T13:16:29Z</time>
      </trkpt>
      <trkpt lat="43.300500" lon="-4.168767">
        <ele>696.0</ele>
        <time>2015-04-28T13:16:30Z</time>
      </trkpt>
      <trkpt lat="43.300483" lon="-4.168950">
        <ele>694.0</ele>
        <time>2015-04-28T13:16:31Z</time>
      </trkpt>
      <trkpt lat="43.300483" lon="-4.169133">
        <ele>691.0</ele>
        <time>2015-04-28T13:16:32Z</time>
      </trkpt>
      <trkpt lat="43.300467" lon="-4.169333">
        <ele>689.0</ele>
        <time>2015-04-28T13:16:33Z</time>
      </trkpt>
      <trkpt lat="43.300467" lon="-4.169550">
        <ele>686.0</ele>
        <time>2015-04-28T13:16:34Z</time>
      </trkpt>
      <trkpt lat="43.300450" lon="-4.169767">
        <ele>684.0</ele>
        <time>2015-04-28T13:16:35Z</time>
      </trkpt>
      <trkpt lat="43.300417" lon="-4.169967">
        <ele>681.0</ele>
        <time>2015-04-28T13:16:36Z</time>
      </trkpt>
      <trkpt lat="43.300367" lon="-4.170183">
        <ele>679.0</ele>
        <time>2015-04-28T13:16:37Z</time>
      </trkpt>
      <trkpt lat="43.300317" lon="-4.170383">
        <ele>676.0</ele>
        <time>2015-04-28T13:16:38Z</time>
      </trkpt>
      <trkpt lat="43.300283" lon="-4.170617">
        <ele>673.0</ele>
        <time>2015-04-28T13:16:39Z</time>
      </trkpt>
      <trkpt lat="43.300250" lon="-4.170833">
        <ele>669.0</ele>
        <time>2015-04-28T13:16:40Z</time>
      </trkpt>
      <trkpt lat="43.300200" lon="-4.171067">
        <ele>666.0</ele>
        <time>2015-04-28T13:16:41Z</time>
      </trkpt>
      <trkpt lat="43.300150" lon="-4.171283">
        <ele>664.0</ele>
        <time>2015-04-28T13:16:42Z</time>
      </trkpt>
      <trkpt lat="43.300100" lon="-4.171483">
        <ele>662.0</ele>
        <time>2015-04-28T13:16:43Z</time>
      </trkpt>
      <trkpt lat="43.300050" lon="-4.171683">
        <ele>659.0</ele>
        <time>2015-04-28T13:16:44Z</time>
      </trkpt>
      <trkpt lat="43.300000" lon="-4.171900">
        <ele>656.0</ele>
        <time>2015-04-28T13:16:45Z</time>
      </trkpt>
      <trkpt lat="43.299950" lon="-4.172117">
        <ele>653.0</ele>
        <time>2015-04-28T13:16:46Z</time>
      </trkpt>
      <trkpt lat="43.299900" lon="-4.172333">
        <ele>651.0</ele>
        <time>2015-04-28T13:16:47Z</time>
      </trkpt>
      <trkpt lat="43.299850" lon="-4.172550">
        <ele>649.0</ele>
        <time>2015-04-28T13:16:48Z</time>
      </trkpt>
      <trkpt lat="43.299800" lon="-4.172767">
        <ele>647.0</ele>
        <time>2015-04-28T13:16:49Z</time>
      </trkpt>
      <trkpt lat="43.299750" lon="-4.172967">
        <ele>645.0</ele>
        <time>2015-04-28T13:16:50Z</time>
      </trkpt>
      <trkpt lat="43.299717" lon="-4.173167">
        <ele>642.0</ele>
        <time>2015-04-28T13:16:51Z</time>
      </trkpt>
      <trkpt lat="43.299650" lon="-4.173383">
        <ele>640.0</ele>
        <time>2015-04-28T13:16:52Z</time>
      </trkpt>
      <trkpt lat="43.299583" lon="-4.173600">
        <ele>638.0</ele>
        <time>2015-04-28T13:16:53Z</time>
      </trkpt>
      <trkpt lat="43.299517" lon="-4.173800">
        <ele>636.0</ele>
        <time>2015-04-28T13:16:54Z</time>
      </trkpt>
      <trkpt lat="43.299467" lon="-4.174017">
        <ele>634.0</ele>
        <time>2015-04-28T13:16:55Z</time>
      </trkpt>
      <trkpt lat="43.299400" lon="-4.174217">
        <ele>633.0</ele>
        <time>2015-04-28T13:16:56Z</time>
      </trkpt>
      <trkpt lat="43.299333" lon="-4.174417">
        <ele>631.0</ele>
        <time>2015-04-28T13:16:57Z</time>
      </trkpt>
      <trkpt lat="43.299267" lon="-4.174617">
        <ele>629.0</ele>
        <time>2015-04-28T13:16:58Z</time>
      </trkpt>
      <trkpt lat="43.299183" lon="-4.174817">
        <ele>627.0</ele>
        <time>2015-04-28T13:16:59Z</time>
      </trkpt>
      <trkpt lat="43.299133" lon="-4.175017">
        <ele>626.0</ele>
        <time>2015-04-28T13:17:00Z</time>
      </trkpt>
      <trkpt lat="43.299083" lon="-4.175233">
        <ele>625.0</ele>
        <time>2015-04-28T13:17:01Z</time>
      </trkpt>
      <trkpt lat="43.299017" lon="-4.175433">
        <ele>623.0</ele>
        <time>2015-04-28T13:17:02Z</time>
      </trkpt>
      <trkpt lat="43.298967" lon="-4.175633">
        <ele>621.0</ele>
        <time>2015-04-28T13:17:03Z</time>
      </trkpt>
      <trkpt lat="43.298900" lon="-4.175817">
        <ele>619.0</ele>
        <time>2015-04-28T13:17:04Z</time>
      </trkpt>
      <trkpt lat="43.298833" lon="-4.176000">
        <ele>617.0</ele>
        <time>2015-04-28T13:17:05Z</time>
      </trkpt>
      <trkpt lat="43.298767" lon="-4.176183">
        <ele>614.0</ele>
        <time>2015-04-28T13:17:06Z</time>
      </trkpt>
      <trkpt lat="43.298700" lon="-4.176367">
        <ele>611.0</ele>
        <time>2015-04-28T13:17:07Z</time>
      </trkpt>
      <trkpt lat="43.298633" lon="-4.176567">
        <ele>608.0</ele>
        <time>2015-04-28T13:17:08Z</time>
      </trkpt>
      <trkpt lat="43.298567" lon="-4.176767">
        <ele>606.0</ele>
        <time>2015-04-28T13:17:09Z</time>
      </trkpt>
      <trkpt lat="43.298483" lon="-4.176950">
        <ele>604.0</ele>
        <time>2015-04-28T13:17:10Z</time>
      </trkpt>
      <trkpt lat="43.298400" lon="-4.177133">
        <ele>603.0</ele>
        <time>2015-04-28T13:17:11Z</time>
      </trkpt>
      <trkpt lat="43.298317" lon="-4.177300">
        <ele>602.0</ele>
        <time>2015-04-28T13:17:12Z</time>
      </trkpt>
      <trkpt lat="43.298233" lon="-4.177467">
        <ele>602.0</ele>
        <time>2015-04-28T13:17:13Z</time>
      </trkpt>
      <trkpt lat="43.298150" lon="-4.177617">
        <ele>602.0</ele>
        <time>2015-04-28T13:17:14Z</time>
      </trkpt>
      <trkpt lat="43.298050" lon="-4.177767">
        <ele>600.0</ele>
        <time>2015-04-28T13:17:15Z</time>
      </trkpt>
      <trkpt lat="43.297950" lon="-4.177933">
        <ele>599.0</ele>
        <time>2015-04-28T13:17:16Z</time>
      </trkpt>
      <trkpt lat="43.297833" lon="-4.178083">
        <ele>598.0</ele>
        <time>2015-04-28T13:17:17Z</time>
      </trkpt>
      <trkpt lat="43.297733" lon="-4.178233">
        <ele>597.0</ele>
        <time>2015-04-28T13:17:18Z</time>
      </trkpt>
      <trkpt lat="43.297633" lon="-4.178383">
        <ele>597.0</ele>
        <time>2015-04-28T13:17:19Z</time>
      </trkpt>
      <trkpt lat="43.297533" lon="-4.178517">
        <ele>595.0</ele>
        <time>2015-04-28T13:17:20Z</time>
      </trkpt>
      <trkpt lat="43.297450" lon="-4.178650">
        <ele>594.0</ele>
        <time>2015-04-28T13:17:21Z</time>
      </trkpt>
      <trkpt lat="43.297317" lon="-4.178800">
        <ele>593.0</ele>
        <time>2015-04-28T13:17:22Z</time>
      </trkpt>
      <trkpt lat="43.297183" lon="-4.178950">
        <ele>592.0</ele>
        <time>2015-04-28T13:17:23Z</time>
      </trkpt>
      <trkpt lat="43.297067" lon="-4.179083">
        <ele>592.0</ele>
        <time>2015-04-28T13:17:24Z</time>
      </trkpt>
      <trkpt lat="43.296950" lon="-4.179217">
        <ele>592.0</ele>
        <time>2015-04-28T13:17:25Z</time>
      </trkpt>
      <trkpt lat="43.296867" lon="-4.179350">
        <ele>593.0</ele>
        <time>2015-04-28T13:17:26Z</time>
      </trkpt>
      <trkpt lat="43.296767" lon="-4.179467">
        <ele>593.0</ele>
        <time>2015-04-28T13:17:27Z</time>
      </trkpt>
      <trkpt lat="43.296683" lon="-4.179583">
        <ele>593.0</ele>
        <time>2015-04-28T13:17:28Z</time>
      </trkpt>
      <trkpt lat="43.296583" lon="-4.179700">
        <ele>592.0</ele>
        <time>2015-04-28T13:17:29Z</time>
      </trkpt>
      <trkpt lat="43.296483" lon="-4.179833">
        <ele>590.0</ele>
        <time>2015-04-28T13:17:30Z</time>
      </trkpt>
      <trkpt lat="43.296367" lon="-4.179967">
        <ele>588.0</ele>
        <time>2015-04-28T13:17:31Z</time>
      </trkpt>
      <trkpt lat="43.296250" lon="-4.180100">
        <ele>589.0</ele>
        <time>2015-04-28T13:17:32Z</time>
      </trkpt>
      <trkpt lat="43.296133" lon="-4.180233">
        <ele>590.0</ele>
        <time>2015-04-28T13:17:33Z</time>
      </trkpt>
      <trkpt lat="43.296033" lon="-4.180350">
        <ele>591.0</ele>
        <time>2015-04-28T13:17:34Z</time>
      </trkpt>
      <trkpt lat="43.295917" lon="-4.180467">
        <ele>591.0</ele>
        <time>2015-04-28T13:17:35Z</time>
      </trkpt>
      <trkpt lat="43.295800" lon="-4.180600">
        <ele>590.0</ele>
        <time>2015-04-28T13:17:36Z</time>
      </trkpt>
      <trkpt lat="43.295683" lon="-4.180733">
        <ele>590.0</ele>
        <time>2015-04-28T13:17:37Z</time>
      </trkpt>
      <trkpt lat="43.295583" lon="-4.180883">
        <ele>591.0</ele>
        <time>2015-04-28T13:17:38Z</time>
      </trkpt>
      <trkpt lat="43.295483" lon="-4.181017">
        <ele>592.0</ele>
        <time>2015-04-28T13:17:39Z</time>
      </trkpt>
      <trkpt lat="43.295383" lon="-4.181133">
        <ele>593.0</ele>
        <time>2015-04-28T13:17:40Z</time>
      </trkpt>
      <trkpt lat="43.295300" lon="-4.181267">
        <ele>594.0</ele>
        <time>2015-04-28T13:17:41Z</time>
      </trkpt>
      <trkpt lat="43.295200" lon="-4.181383">
        <ele>594.0</ele>
        <time>2015-04-28T13:17:42Z</time>
      </trkpt>
      <trkpt lat="43.295100" lon="-4.181483">
        <ele>593.0</ele>
        <time>2015-04-28T13:17:43Z</time>
      </trkpt>
      <trkpt lat="43.294983" lon="-4.181583">
        <ele>593.0</ele>
        <time>2015-04-28T13:17:44Z</time>
      </trkpt>
      <trkpt lat="43.294867" lon="-4.181683">
        <ele>593.0</ele>
        <time>2015-04-28T13:17:45Z</time>
      </trkpt>
      <trkpt lat="43.294750" lon="-4.181767">
        <ele>593.0</ele>
        <time>2015-04-28T13:17:46Z</time>
      </trkpt>
      <trkpt lat="43.294633" lon="-4.181883">
        <ele>593.0</ele>
        <time>2015-04-28T13:17:47Z</time>
      </trkpt>
      <trkpt lat="43.294533" lon="-4.181983">
        <ele>593.0</ele>
        <time>2015-04-28T13:17:48Z</time>
      </trkpt>
      <trkpt lat="43.294417" lon="-4.182100">
        <ele>593.0</ele>
        <time>2015-04-28T13:17:49Z</time>
      </trkpt>
      <trkpt lat="43.294300" lon="-4.182217">
        <ele>593.0</ele>
        <time>2015-04-28T13:17:50Z</time>
      </trkpt>
      <trkpt lat="43.294183" lon="-4.182333">
        <ele>593.0</ele>
        <time>2015-04-28T13:17:51Z</time>
      </trkpt>
      <trkpt lat="43.294050" lon="-4.182450">
        <ele>592.0</ele>
        <time>2015-04-28T13:17:52Z</time>
      </trkpt>
      <trkpt lat="43.293933" lon="-4.182583">
        <ele>593.0</ele>
        <time>2015-04-28T13:17:53Z</time>
      </trkpt>
      <trkpt lat="43.293833" lon="-4.182717">
        <ele>593.0</ele>
        <time>2015-04-28T13:17:54Z</time>
      </trkpt>
      <trkpt lat="43.293717" lon="-4.182833">
        <ele>593.0</ele>
        <time>2015-04-28T13:17:55Z</time>
      </trkpt>
      <trkpt lat="43.293600" lon="-4.182967">
        <ele>593.0</ele>
        <time>2015-04-28T13:17:56Z</time>
      </trkpt>
      <trkpt lat="43.293500" lon="-4.183100">
        <ele>592.0</ele>
        <time>2015-04-28T13:17:57Z</time>
      </trkpt>
      <trkpt lat="43.293383" lon="-4.183233">
        <ele>592.0</ele>
        <time>2015-04-28T13:17:58Z</time>
      </trkpt>
      <trkpt lat="43.293267" lon="-4.183383">
        <ele>592.0</ele>
        <time>2015-04-28T13:17:59Z</time>
      </trkpt>
      <trkpt lat="43.293150" lon="-4.183517">
        <ele>591.0</ele>
        <time>2015-04-28T13:18:00Z</time>
      </trkpt>
      <trkpt lat="43.293050" lon="-4.183667">
        <ele>591.0</ele>
        <time>2015-04-28T13:18:01Z</time>
      </trkpt>
      <trkpt lat="43.292950" lon="-4.183817">
        <ele>591.0</ele>
        <time>2015-04-28T13:18:02Z</time>
      </trkpt>
      <trkpt lat="43.292833" lon="-4.183967">
        <ele>590.0</ele>
        <time>2015-04-28T13:18:03Z</time>
      </trkpt>
      <trkpt lat="43.292733" lon="-4.184117">
        <ele>590.0</ele>
        <time>2015-04-28T13:18:04Z</time>
      </trkpt>
      <trkpt lat="43.292650" lon="-4.184283">
        <ele>589.0</ele>
        <time>2015-04-28T13:18:05Z</time>
      </trkpt>
      <trkpt lat="43.292567" lon="-4.184467">
        <ele>588.0</ele>
        <time>2015-04-28T13:18:06Z</time>
      </trkpt>
      <trkpt lat="43.292500" lon="-4.184633">
        <ele>587.0</ele>
        <time>2015-04-28T13:18:07Z</time>
      </trkpt>
      <trkpt lat="43.292417" lon="-4.184817">
        <ele>586.0</ele>
        <time>2015-04-28T13:18:08Z</time>
      </trkpt>
      <trkpt lat="43.292350" lon="-4.184983">
        <ele>585.0</ele>
        <time>2015-04-28T13:18:09Z</time>
      </trkpt>
      <trkpt lat="43.292283" lon="-4.185167">
        <ele>584.0</ele>
        <time>2015-04-28T13:18:10Z</time>
      </trkpt>
      <trkpt lat="43.292200" lon="-4.185350">
        <ele>582.0</ele>
        <time>2015-04-28T13:18:11Z</time>
      </trkpt>
      <trkpt lat="43.292133" lon="-4.185517">
        <ele>582.0</ele>
        <time>2015-04-28T13:18:12Z</time>
      </trkpt>
      <trkpt lat="43.292067" lon="-4.185700">
        <ele>581.0</ele>
        <time>2015-04-28T13:18:13Z</time>
      </trkpt>
      <trkpt lat="43.291983" lon="-4.185867">
        <ele>579.0</ele>
        <time>2015-04-28T13:18:14Z</time>
      </trkpt>
      <trkpt lat="43.291917" lon="-4.186033">
        <ele>575.0</ele>
        <time>2015-04-28T13:18:15Z</time>
      </trkpt>
      <trkpt lat="43.291850" lon="-4.186217">
        <ele>573.0</ele>
        <time>2015-04-28T13:18:16Z</time>
      </trkpt>
      <trkpt lat="43.291800" lon="-4.186433">
        <ele>571.0</ele>
        <time>2015-04-28T13:18:17Z</time>
      </trkpt>
      <trkpt lat="43.291733" lon="-4.186633">
        <ele>569.0</ele>
        <time>2015-04-28T13:18:18Z</time>
      </trkpt>
      <trkpt lat="43.291667" lon="-4.186817">
        <ele>567.0</ele>
        <time>2015-04-28T13:18:19Z</time>
      </trkpt>
      <trkpt lat="43.291617" lon="-4.187000">
        <ele>566.0</ele>
        <time>2015-04-28T13:18:20Z</time>
      </trkpt>
      <trkpt lat="43.291567" lon="-4.187183">
        <ele>564.0</ele>
        <time>2015-04-28T13:18:21Z</time>
      </trkpt>
      <trkpt lat="43.291500" lon="-4.187350">
        <ele>563.0</ele>
        <time>2015-04-28T13:18:22Z</time>
      </trkpt>
      <trkpt lat="43.291450" lon="-4.187533">
        <ele>561.0</ele>
        <time>2015-04-28T13:18:23Z</time>
      </trkpt>
      <trkpt lat="43.291400" lon="-4.187717">
        <ele>559.0</ele>
        <time>2015-04-28T13:18:24Z</time>
      </trkpt>
      <trkpt lat="43.291350" lon="-4.187900">
        <ele>558.0</ele>
        <time>2015-04-28T13:18:25Z</time>
      </trkpt>
      <trkpt lat="43.291300" lon="-4.188083">
        <ele>556.0</ele>
        <time>2015-04-28T13:18:26Z</time>
      </trkpt>
      <trkpt lat="43.291233" lon="-4.188283">
        <ele>554.0</ele>
        <time>2015-04-28T13:18:27Z</time>
      </trkpt>
      <trkpt lat="43.291183" lon="-4.188467">
        <ele>553.0</ele>
        <time>2015-04-28T13:18:28Z</time>
      </trkpt>
      <trkpt lat="43.291117" lon="-4.188650">
        <ele>552.0</ele>
        <time>2015-04-28T13:18:29Z</time>
      </trkpt>
      <trkpt lat="43.291050" lon="-4.188833">
        <ele>551.0</ele>
        <time>2015-04-28T13:18:30Z</time>
      </trkpt>
      <trkpt lat="43.291000" lon="-4.189017">
        <ele>551.0</ele>
        <time>2015-04-28T13:18:31Z</time>
      </trkpt>
      <trkpt lat="43.290933" lon="-4.189200">
        <ele>549.0</ele>
        <time>2015-04-28T13:18:32Z</time>
      </trkpt>
      <trkpt lat="43.290850" lon="-4.189383">
        <ele>548.0</ele>
        <time>2015-04-28T13:18:33Z</time>
      </trkpt>
      <trkpt lat="43.290783" lon="-4.189583">
        <ele>547.0</ele>
        <time>2015-04-28T13:18:34Z</time>
      </trkpt>
      <trkpt lat="43.290717" lon="-4.189750">
        <ele>547.0</ele>
        <time>2015-04-28T13:18:35Z</time>
      </trkpt>
      <trkpt lat="43.290650" lon="-4.189900">
        <ele>547.0</ele>
        <time>2015-04-28T13:18:36Z</time>
      </trkpt>
      <trkpt lat="43.290583" lon="-4.190050">
        <ele>547.0</ele>
        <time>2015-04-28T13:18:37Z</time>
      </trkpt>
      <trkpt lat="43.290517" lon="-4.190200">
        <ele>547.0</ele>
        <time>2015-04-28T13:18:38Z</time>
      </trkpt>
      <trkpt lat="43.290433" lon="-4.190367">
        <ele>546.0</ele>
        <time>2015-04-28T13:18:39Z</time>
      </trkpt>
      <trkpt lat="43.290333" lon="-4.190533">
        <ele>546.0</ele>
        <time>2015-04-28T13:18:40Z</time>
      </trkpt>
      <trkpt lat="43.290250" lon="-4.190700">
        <ele>546.0</ele>
        <time>2015-04-28T13:18:41Z</time>
      </trkpt>
      <trkpt lat="43.290183" lon="-4.190867">
        <ele>546.0</ele>
        <time>2015-04-28T13:18:42Z</time>
      </trkpt>
      <trkpt lat="43.290100" lon="-4.191033">
        <ele>547.0</ele>
        <time>2015-04-28T13:18:43Z</time>
      </trkpt>
      <trkpt lat="43.290033" lon="-4.191200">
        <ele>548.0</ele>
        <time>2015-04-28T13:18:44Z</time>
      </trkpt>
      <trkpt lat="43.289967" lon="-4.191383">
        <ele>548.0</ele>
        <time>2015-04-28T13:18:45Z</time>
      </trkpt>
      <trkpt lat="43.289883" lon="-4.191550">
        <ele>548.0</ele>
        <time>2015-04-28T13:18:46Z</time>
      </trkpt>
      <trkpt lat="43.289817" lon="-4.191700">
        <ele>547.0</ele>
        <time>2015-04-28T13:18:47Z</time>
      </trkpt>
      <trkpt lat="43.289750" lon="-4.191867">
        <ele>546.0</ele>
        <time>2015-04-28T13:18:48Z</time>
      </trkpt>
      <trkpt lat="43.289667" lon="-4.192050">
        <ele>545.0</ele>
        <time>2015-04-28T13:18:49Z</time>
      </trkpt>
      <trkpt lat="43.289600" lon="-4.192233">
        <ele>543.0</ele>
        <time>2015-04-28T13:18:50Z</time>
      </trkpt>
      <trkpt lat="43.289517" lon="-4.192433">
        <ele>543.0</ele>
        <time>2015-04-28T13:18:51Z</time>
      </trkpt>
      <trkpt lat="43.289467" lon="-4.192600">
        <ele>543.0</ele>
        <time>2015-04-28T13:18:52Z</time>
      </trkpt>
      <trkpt lat="43.289400" lon="-4.192767">
        <ele>542.0</ele>
        <time>2015-04-28T13:18:53Z</time>
      </trkpt>
      <trkpt lat="43.289350" lon="-4.192933">
        <ele>541.0</ele>
        <time>2015-04-28T13:18:54Z</time>
      </trkpt>
      <trkpt lat="43.289283" lon="-4.193100">
        <ele>540.0</ele>
        <time>2015-04-28T13:18:55Z</time>
      </trkpt>
      <trkpt lat="43.289233" lon="-4.193283">
        <ele>538.0</ele>
        <time>2015-04-28T13:18:56Z</time>
      </trkpt>
      <trkpt lat="43.289167" lon="-4.193467">
        <ele>536.0</ele>
        <time>2015-04-28T13:18:57Z</time>
      </trkpt>
      <trkpt lat="43.289100" lon="-4.193650">
        <ele>535.0</ele>
        <time>2015-04-28T13:18:58Z</time>
      </trkpt>
      <trkpt lat="43.289033" lon="-4.193833">
        <ele>533.0</ele>
        <time>2015-04-28T13:18:59Z</time>
      </trkpt>
      <trkpt lat="43.288967" lon="-4.194000">
        <ele>530.0</ele>
        <time>2015-04-28T13:19:00Z</time>
      </trkpt>
      <trkpt lat="43.288917" lon="-4.194183">
        <ele>527.0</ele>
        <time>2015-04-28T13:19:01Z</time>
      </trkpt>
      <trkpt lat="43.288850" lon="-4.194367">
        <ele>525.0</ele>
        <time>2015-04-28T13:19:02Z</time>
      </trkpt>
      <trkpt lat="43.288800" lon="-4.194567">
        <ele>523.0</ele>
        <time>2015-04-28T13:19:03Z</time>
      </trkpt>
      <trkpt lat="43.288733" lon="-4.194767">
        <ele>523.0</ele>
        <time>2015-04-28T13:19:04Z</time>
      </trkpt>
      <trkpt lat="43.288667" lon="-4.194933">
        <ele>523.0</ele>
        <time>2015-04-28T13:19:05Z</time>
      </trkpt>
      <trkpt lat="43.288617" lon="-4.195100">
        <ele>523.0</ele>
        <time>2015-04-28T13:19:06Z</time>
      </trkpt>
      <trkpt lat="43.288567" lon="-4.195267">
        <ele>523.0</ele>
        <time>2015-04-28T13:19:07Z</time>
      </trkpt>
      <trkpt lat="43.288500" lon="-4.195433">
        <ele>522.0</ele>
        <time>2015-04-28T13:19:08Z</time>
      </trkpt>
      <trkpt lat="43.288450" lon="-4.195583">
        <ele>522.0</ele>
        <time>2015-04-28T13:19:09Z</time>
      </trkpt>
      <trkpt lat="43.288400" lon="-4.195767">
        <ele>520.0</ele>
        <time>2015-04-28T13:19:10Z</time>
      </trkpt>
      <trkpt lat="43.288350" lon="-4.195950">
        <ele>518.0</ele>
        <time>2015-04-28T13:19:11Z</time>
      </trkpt>
      <trkpt lat="43.288317" lon="-4.196133">
        <ele>517.0</ele>
        <time>2015-04-28T13:19:12Z</time>
      </trkpt>
      <trkpt lat="43.288283" lon="-4.196333">
        <ele>517.0</ele>
        <time>2015-04-28T13:19:13Z</time>
      </trkpt>
      <trkpt lat="43.288250" lon="-4.196500">
        <ele>516.0</ele>
        <time>2015-04-28T13:19:14Z</time>
      </trkpt>
      <trkpt lat="43.288200" lon="-4.196667">
        <ele>516.0</ele>
        <time>2015-04-28T13:19:15Z</time>
      </trkpt>
      <trkpt lat="43.288167" lon="-4.196850">
        <ele>515.0</ele>
        <time>2015-04-28T13:19:16Z</time>
      </trkpt>
      <trkpt lat="43.288133" lon="-4.197033">
        <ele>514.0</ele>
        <time>2015-04-28T13:19:17Z</time>
      </trkpt>
      <trkpt lat="43.288117" lon="-4.197217">
        <ele>514.0</ele>
        <time>2015-04-28T13:19:18Z</time>
      </trkpt>
      <trkpt lat="43.288100" lon="-4.197383">
        <ele>513.0</ele>
        <time>2015-04-28T13:19:19Z</time>
      </trkpt>
      <trkpt lat="43.288083" lon="-4.197550">
        <ele>513.0</ele>
        <time>2015-04-28T13:19:20Z</time>
      </trkpt>
      <trkpt lat="43.288050" lon="-4.197717">
        <ele>511.0</ele>
        <time>2015-04-28T13:19:21Z</time>
      </trkpt>
      <trkpt lat="43.288033" lon="-4.197900">
        <ele>509.0</ele>
        <time>2015-04-28T13:19:22Z</time>
      </trkpt>
      <trkpt lat="43.288017" lon="-4.198083">
        <ele>508.0</ele>
        <time>2015-04-28T13:19:23Z</time>
      </trkpt>
      <trkpt lat="43.288000" lon="-4.198250">
        <ele>507.0</ele>
        <time>2015-04-28T13:19:24Z</time>
      </trkpt>
      <trkpt lat="43.287983" lon="-4.198417">
        <ele>506.0</ele>
        <time>2015-04-28T13:19:25Z</time>
      </trkpt>
      <trkpt lat="43.287983" lon="-4.198567">
        <ele>505.0</ele>
        <time>2015-04-28T13:19:26Z</time>
      </trkpt>
      <trkpt lat="43.287967" lon="-4.198733">
        <ele>503.0</ele>
        <time>2015-04-28T13:19:27Z</time>
      </trkpt>
      <trkpt lat="43.287967" lon="-4.198900">
        <ele>502.0</ele>
        <time>2015-04-28T13:19:28Z</time>
      </trkpt>
      <trkpt lat="43.287967" lon="-4.199067">
        <ele>501.0</ele>
        <time>2015-04-28T13:19:29Z</time>
      </trkpt>
      <trkpt lat="43.287967" lon="-4.199233">
        <ele>500.0</ele>
        <time>2015-04-28T13:19:30Z</time>
      </trkpt>
      <trkpt lat="43.287967" lon="-4.199383">
        <ele>498.0</ele>
        <time>2015-04-28T13:19:31Z</time>
      </trkpt>
      <trkpt lat="43.287950" lon="-4.199567">
        <ele>496.0</ele>
        <time>2015-04-28T13:19:32Z</time>
      </trkpt>
      <trkpt lat="43.287967" lon="-4.199733">
        <ele>496.0</ele>
        <time>2015-04-28T13:19:33Z</time>
      </trkpt>
      <trkpt lat="43.287983" lon="-4.199900">
        <ele>495.0</ele>
        <time>2015-04-28T13:19:34Z</time>
      </trkpt>
      <trkpt lat="43.287983" lon="-4.200050">
        <ele>494.0</ele>
        <time>2015-04-28T13:19:35Z</time>
      </trkpt>
      <trkpt lat="43.288000" lon="-4.200217">
        <ele>493.0</ele>
        <time>2015-04-28T13:19:36Z</time>
      </trkpt>
      <trkpt lat="43.288017" lon="-4.200367">
        <ele>493.0</ele>
        <time>2015-04-28T13:19:37Z</time>
      </trkpt>
      <trkpt lat="43.288017" lon="-4.200517">
        <ele>493.0</ele>
        <time>2015-04-28T13:19:38Z</time>
      </trkpt>
      <trkpt lat="43.288033" lon="-4.200667">
        <ele>493.0</ele>
        <time>2015-04-28T13:19:39Z</time>
      </trkpt>
      <trkpt lat="43.288050" lon="-4.200800">
        <ele>493.0</ele>
        <time>2015-04-28T13:19:40Z</time>
      </trkpt>
      <trkpt lat="43.288067" lon="-4.200933">
        <ele>491.0</ele>
        <time>2015-04-28T13:19:41Z</time>
      </trkpt>
      <trkpt lat="43.288067" lon="-4.201083">
        <ele>490.0</ele>
        <time>2015-04-28T13:19:42Z</time>
      </trkpt>
      <trkpt lat="43.288083" lon="-4.201217">
        <ele>488.0</ele>
        <time>2015-04-28T13:19:43Z</time>
      </trkpt>
      <trkpt lat="43.288100" lon="-4.201367">
        <ele>487.0</ele>
        <time>2015-04-28T13:19:44Z</time>
      </trkpt>
      <trkpt lat="43.288133" lon="-4.201517">
        <ele>486.0</ele>
        <time>2015-04-28T13:19:45Z</time>
      </trkpt>
      <trkpt lat="43.288150" lon="-4.201667">
        <ele>485.0</ele>
        <time>2015-04-28T13:19:46Z</time>
      </trkpt>
      <trkpt lat="43.288167" lon="-4.201800">
        <ele>485.0</ele>
        <time>2015-04-28T13:19:47Z</time>
      </trkpt>
      <trkpt lat="43.288183" lon="-4.201933">
        <ele>485.0</ele>
        <time>2015-04-28T13:19:48Z</time>
      </trkpt>
      <trkpt lat="43.288200" lon="-4.202050">
        <ele>484.0</ele>
        <time>2015-04-28T13:19:49Z</time>
      </trkpt>
      <trkpt lat="43.288233" lon="-4.202183">
        <ele>483.0</ele>
        <time>2015-04-28T13:19:50Z</time>
      </trkpt>
      <trkpt lat="43.288267" lon="-4.202317">
        <ele>482.0</ele>
        <time>2015-04-28T13:19:51Z</time>
      </trkpt>
      <trkpt lat="43.288283" lon="-4.202450">
        <ele>480.0</ele>
        <time>2015-04-28T13:19:52Z</time>
      </trkpt>
      <trkpt lat="43.288317" lon="-4.202583">
        <ele>480.0</ele>
        <time>2015-04-28T13:19:53Z</time>
      </trkpt>
      <trkpt lat="43.288350" lon="-4.202717">
        <ele>479.0</ele>
        <time>2015-04-28T13:19:54Z</time>
      </trkpt>
      <trkpt lat="43.288383" lon="-4.202833">
        <ele>478.0</ele>
        <time>2015-04-28T13:19:55Z</time>
      </trkpt>
      <trkpt lat="43.288400" lon="-4.202967">
        <ele>477.0</ele>
        <time>2015-04-28T13:19:56Z</time>
      </trkpt>
      <trkpt lat="43.288417" lon="-4.203117">
        <ele>476.0</ele>
        <time>2015-04-28T13:19:57Z</time>
      </trkpt>
      <trkpt lat="43.288433" lon="-4.203267">
        <ele>475.0</ele>
        <time>2015-04-28T13:19:58Z</time>
      </trkpt>
      <trkpt lat="43.288450" lon="-4.203433">
        <ele>473.0</ele>
        <time>2015-04-28T13:19:59Z</time>
      </trkpt>
      <trkpt lat="43.288467" lon="-4.203600">
        <ele>472.0</ele>
        <time>2015-04-28T13:20:00Z</time>
      </trkpt>
      <trkpt lat="43.288483" lon="-4.203767">
        <ele>471.0</ele>
        <time>2015-04-28T13:20:01Z</time>
      </trkpt>
      <trkpt lat="43.288483" lon="-4.203933">
        <ele>470.0</ele>
        <time>2015-04-28T13:20:02Z</time>
      </trkpt>
      <trkpt lat="43.288467" lon="-4.204100">
        <ele>469.0</ele>
        <time>2015-04-28T13:20:03Z</time>
      </trkpt>
      <trkpt lat="43.288467" lon="-4.204267">
        <ele>468.0</ele>
        <time>2015-04-28T13:20:04Z</time>
      </trkpt>
      <trkpt lat="43.288467" lon="-4.204450">
        <ele>466.0</ele>
        <time>2015-04-28T13:20:05Z</time>
      </trkpt>
      <trkpt lat="43.288467" lon="-4.204617">
        <ele>466.0</ele>
        <time>2015-04-28T13:20:06Z</time>
      </trkpt>
      <trkpt lat="43.288450" lon="-4.204800">
        <ele>465.0</ele>
        <time>2015-04-28T13:20:07Z</time>
      </trkpt>
      <trkpt lat="43.288433" lon="-4.204983">
        <ele>464.0</ele>
        <time>2015-04-28T13:20:08Z</time>
      </trkpt>
      <trkpt lat="43.288417" lon="-4.205167">
        <ele>463.0</ele>
        <time>2015-04-28T13:20:09Z</time>
      </trkpt>
      <trkpt lat="43.288400" lon="-4.205350">
        <ele>461.0</ele>
        <time>2015-04-28T13:20:10Z</time>
      </trkpt>
      <trkpt lat="43.288383" lon="-4.205533">
        <ele>460.0</ele>
        <time>2015-04-28T13:20:11Z</time>
      </trkpt>
      <trkpt lat="43.288383" lon="-4.205717">
        <ele>460.0</ele>
        <time>2015-04-28T13:20:12Z</time>
      </trkpt>
      <trkpt lat="43.288383" lon="-4.205883">
        <ele>460.0</ele>
        <time>2015-04-28T13:20:13Z</time>
      </trkpt>
      <trkpt lat="43.288383" lon="-4.206033">
        <ele>462.0</ele>
        <time>2015-04-28T13:20:14Z</time>
      </trkpt>
      <trkpt lat="43.288400" lon="-4.206167">
        <ele>465.0</ele>
        <time>2015-04-28T13:20:15Z</time>
      </trkpt>
      <trkpt lat="43.288400" lon="-4.206300">
        <ele>468.0</ele>
        <time>2015-04-28T13:20:16Z</time>
      </trkpt>
      <trkpt lat="43.288400" lon="-4.206433">
        <ele>470.0</ele>
        <time>2015-04-28T13:20:17Z</time>
      </trkpt>
      <trkpt lat="43.288367" lon="-4.206583">
        <ele>470.0</ele>
        <time>2015-04-28T13:20:18Z</time>
      </trkpt>
      <trkpt lat="43.288333" lon="-4.206717">
        <ele>470.0</ele>
        <time>2015-04-28T13:20:19Z</time>
      </trkpt>
      <trkpt lat="43.288250" lon="-4.206850">
        <ele>469.0</ele>
        <time>2015-04-28T13:20:20Z</time>
      </trkpt>
      <trkpt lat="43.288150" lon="-4.206967">
        <ele>467.0</ele>
        <time>2015-04-28T13:20:21Z</time>
      </trkpt>
      <trkpt lat="43.288033" lon="-4.207017">
        <ele>466.0</ele>
        <time>2015-04-28T13:20:22Z</time>
      </trkpt>
      <trkpt lat="43.287917" lon="-4.207017">
        <ele>466.0</ele>
        <time>2015-04-28T13:20:23Z</time>
      </trkpt>
      <trkpt lat="43.287817" lon="-4.206967">
        <ele>465.0</ele>
        <time>2015-04-28T13:20:24Z</time>
      </trkpt>
      <trkpt lat="43.287767" lon="-4.206883">
        <ele>465.0</ele>
        <time>2015-04-28T13:20:25Z</time>
      </trkpt>
      <trkpt lat="43.287750" lon="-4.206850">
        <ele>465.0</ele>
        <time>2015-04-28T13:20:26Z</time>
      </trkpt>
      <trkpt lat="43.287750" lon="-4.206817">
        <ele>467.0</ele>
        <time>2015-04-28T13:20:27Z</time>
      </trkpt>
      <trkpt lat="43.287750" lon="-4.206817">
        <ele>470.0</ele>
        <time>2015-04-28T13:20:28Z</time>
      </trkpt>
      <trkpt lat="43.287750" lon="-4.206817">
        <ele>473.0</ele>
        <time>2015-04-28T13:20:29Z</time>
      </trkpt>
      <trkpt lat="43.287767" lon="-4.206833">
        <ele>474.0</ele>
        <time>2015-04-28T13:20:30Z</time>
      </trkpt>
      <trkpt lat="43.287783" lon="-4.206833">
        <ele>473.0</ele>
        <time>2015-04-28T13:20:31Z</time>
      </trkpt>
      <trkpt lat="43.287833" lon="-4.206817">
        <ele>473.0</ele>
        <time>2015-04-28T13:20:32Z</time>
      </trkpt>
      <trkpt lat="43.287883" lon="-4.206850">
        <ele>473.0</ele>
        <time>2015-04-28T13:20:33Z</time>
      </trkpt>
      <trkpt lat="43.287950" lon="-4.206950">
        <ele>474.0</ele>
        <time>2015-04-28T13:20:34Z</time>
      </trkpt>
      <trkpt lat="43.287983" lon="-4.207083">
        <ele>474.0</ele>
        <time>2015-04-28T13:20:35Z</time>
      </trkpt>
      <trkpt lat="43.287983" lon="-4.207250">
        <ele>474.0</ele>
        <time>2015-04-28T13:20:36Z</time>
      </trkpt>
      <trkpt lat="43.287983" lon="-4.207400">
        <ele>475.0</ele>
        <time>2015-04-28T13:20:37Z</time>
      </trkpt>
      <trkpt lat="43.287967" lon="-4.207550">
        <ele>476.0</ele>
        <time>2015-04-28T13:20:38Z</time>
      </trkpt>
      <trkpt lat="43.287967" lon="-4.207667">
        <ele>477.0</ele>
        <time>2015-04-28T13:20:39Z</time>
      </trkpt>
      <trkpt lat="43.287950" lon="-4.207800">
        <ele>478.0</ele>
        <time>2015-04-28T13:20:40Z</time>
      </trkpt>
      <trkpt lat="43.287900" lon="-4.207933">
        <ele>479.0</ele>
        <time>2015-04-28T13:20:41Z</time>
      </trkpt>
      <trkpt lat="43.287850" lon="-4.208083">
        <ele>479.0</ele>
        <time>2015-04-28T13:20:42Z</time>
      </trkpt>
      <trkpt lat="43.287750" lon="-4.208200">
        <ele>480.0</ele>
        <time>2015-04-28T13:20:43Z</time>
      </trkpt>
      <trkpt lat="43.287650" lon="-4.208267">
        <ele>481.0</ele>
        <time>2015-04-28T13:20:44Z</time>
      </trkpt>
      <trkpt lat="43.287550" lon="-4.208300">
        <ele>481.0</ele>
        <time>2015-04-28T13:20:45Z</time>
      </trkpt>
      <trkpt lat="43.287450" lon="-4.208283">
        <ele>482.0</ele>
        <time>2015-04-28T13:20:46Z</time>
      </trkpt>
      <trkpt lat="43.287383" lon="-4.208233">
        <ele>481.0</ele>
        <time>2015-04-28T13:20:47Z</time>
      </trkpt>
      <trkpt lat="43.287350" lon="-4.208200">
        <ele>480.0</ele>
        <time>2015-04-28T13:20:48Z</time>
      </trkpt>
      <trkpt lat="43.287333" lon="-4.208167">
        <ele>481.0</ele>
        <time>2015-04-28T13:20:49Z</time>
      </trkpt>
      <trkpt lat="43.287350" lon="-4.208167">
        <ele>481.0</ele>
        <time>2015-04-28T13:20:50Z</time>
      </trkpt>
      <trkpt lat="43.287383" lon="-4.208167">
        <ele>481.0</ele>
        <time>2015-04-28T13:20:51Z</time>
      </trkpt>
      <trkpt lat="43.287450" lon="-4.208183">
        <ele>482.0</ele>
        <time>2015-04-28T13:20:52Z</time>
      </trkpt>
      <trkpt lat="43.287500" lon="-4.208217">
        <ele>482.0</ele>
        <time>2015-04-28T13:20:53Z</time>
      </trkpt>
      <trkpt lat="43.287550" lon="-4.208250">
        <ele>484.0</ele>
        <time>2015-04-28T13:20:54Z</time>
      </trkpt>
      <trkpt lat="43.287583" lon="-4.208267">
        <ele>486.0</ele>
        <time>2015-04-28T13:20:55Z</time>
      </trkpt>
      <trkpt lat="43.287617" lon="-4.208300">
        <ele>486.0</ele>
        <time>2015-04-28T13:20:56Z</time>
      </trkpt>
      <trkpt lat="43.287667" lon="-4.208350">
        <ele>487.0</ele>
        <time>2015-04-28T13:20:57Z</time>
      </trkpt>
      <trkpt lat="43.287717" lon="-4.208383">
        <ele>488.0</ele>
        <time>2015-04-28T13:20:58Z</time>
      </trkpt>
      <trkpt lat="43.287783" lon="-4.208433">
        <ele>489.0</ele>
        <time>2015-04-28T13:20:59Z</time>
      </trkpt>
      <trkpt lat="43.287833" lon="-4.208517">
        <ele>491.0</ele>
        <time>2015-04-28T13:21:00Z</time>
      </trkpt>
      <trkpt lat="43.287883" lon="-4.208600">
        <ele>493.0</ele>
        <time>2015-04-28T13:21:01Z</time>
      </trkpt>
      <trkpt lat="43.287900" lon="-4.208717">
        <ele>494.0</ele>
        <time>2015-04-28T13:21:02Z</time>
      </trkpt>
      <trkpt lat="43.287917" lon="-4.208850">
        <ele>495.0</ele>
        <time>2015-04-28T13:21:03Z</time>
      </trkpt>
      <trkpt lat="43.287917" lon="-4.208983">
        <ele>496.0</ele>
        <time>2015-04-28T13:21:04Z</time>
      </trkpt>
      <trkpt lat="43.287883" lon="-4.209133">
        <ele>498.0</ele>
        <time>2015-04-28T13:21:05Z</time>
      </trkpt>
      <trkpt lat="43.287850" lon="-4.209250">
        <ele>499.0</ele>
        <time>2015-04-28T13:21:06Z</time>
      </trkpt>
      <trkpt lat="43.287800" lon="-4.209383">
        <ele>500.0</ele>
        <time>2015-04-28T13:21:07Z</time>
      </trkpt>
      <trkpt lat="43.287717" lon="-4.209483">
        <ele>501.0</ele>
        <time>2015-04-28T13:21:08Z</time>
      </trkpt>
      <trkpt lat="43.287650" lon="-4.209583">
        <ele>502.0</ele>
        <time>2015-04-28T13:21:09Z</time>
      </trkpt>
      <trkpt lat="43.287567" lon="-4.209683">
        <ele>501.0</ele>
        <time>2015-04-28T13:21:10Z</time>
      </trkpt>
      <trkpt lat="43.287483" lon="-4.209750">
        <ele>501.0</ele>
        <time>2015-04-28T13:21:11Z</time>
      </trkpt>
      <trkpt lat="43.287400" lon="-4.209800">
        <ele>500.0</ele>
        <time>2015-04-28T13:21:12Z</time>
      </trkpt>
      <trkpt lat="43.287300" lon="-4.209783">
        <ele>500.0</ele>
        <time>2015-04-28T13:21:13Z</time>
      </trkpt>
      <trkpt lat="43.287233" lon="-4.209733">
        <ele>500.0</ele>
        <time>2015-04-28T13:21:14Z</time>
      </trkpt>
      <trkpt lat="43.287167" lon="-4.209667">
        <ele>502.0</ele>
        <time>2015-04-28T13:21:15Z</time>
      </trkpt>
      <trkpt lat="43.287117" lon="-4.209617">
        <ele>504.0</ele>
        <time>2015-04-28T13:21:16Z</time>
      </trkpt>
      <trkpt lat="43.287083" lon="-4.209583">
        <ele>504.0</ele>
        <time>2015-04-28T13:21:17Z</time>
      </trkpt>
      <trkpt lat="43.287050" lon="-4.209567">
        <ele>504.0</ele>
        <time>2015-04-28T13:21:18Z</time>
      </trkpt>
      <trkpt lat="43.287017" lon="-4.209550">
        <ele>504.0</ele>
        <time>2015-04-28T13:21:19Z</time>
      </trkpt>
      <trkpt lat="43.287017" lon="-4.209517">
        <ele>504.0</ele>
        <time>2015-04-28T13:21:20Z</time>
      </trkpt>
      <trkpt lat="43.287000" lon="-4.209467">
        <ele>504.0</ele>
        <time>2015-04-28T13:21:21Z</time>
      </trkpt>
      <trkpt lat="43.287000" lon="-4.209400">
        <ele>504.0</ele>
        <time>2015-04-28T13:21:22Z</time>
      </trkpt>
      <trkpt lat="43.287000" lon="-4.209367">
        <ele>504.0</ele>
        <time>2015-04-28T13:21:23Z</time>
      </trkpt>
      <trkpt lat="43.287000" lon="-4.209333">
        <ele>505.0</ele>
        <time>2015-04-28T13:21:24Z</time>
      </trkpt>
      <trkpt lat="43.287000" lon="-4.209317">
        <ele>505.0</ele>
        <time>2015-04-28T13:21:25Z</time>
      </trkpt>
      <trkpt lat="43.287000" lon="-4.209300">
        <ele>505.0</ele>
        <time>2015-04-28T13:21:26Z</time>
      </trkpt>
      <trkpt lat="43.287000" lon="-4.209267">
        <ele>506.0</ele>
        <time>2015-04-28T13:21:27Z</time>
      </trkpt>
      <trkpt lat="43.287000" lon="-4.209267">
        <ele>506.0</ele>
        <time>2015-04-28T13:21:28Z</time>
      </trkpt>
      <trkpt lat="43.287017" lon="-4.209283">
        <ele>506.0</ele>
        <time>2015-04-28T13:21:29Z</time>
      </trkpt>
      <trkpt lat="43.287050" lon="-4.209317">
        <ele>506.0</ele>
        <time>2015-04-28T13:21:30Z</time>
      </trkpt>
      <trkpt lat="43.287117" lon="-4.209400">
        <ele>506.0</ele>
        <time>2015-04-28T13:21:31Z</time>
      </trkpt>
      <trkpt lat="43.287167" lon="-4.209517">
        <ele>506.0</ele>
        <time>2015-04-28T13:21:32Z</time>
      </trkpt>
      <trkpt lat="43.287183" lon="-4.209667">
        <ele>506.0</ele>
        <time>2015-04-28T13:21:33Z</time>
      </trkpt>
      <trkpt lat="43.287133" lon="-4.209850">
        <ele>506.0</ele>
        <time>2015-04-28T13:21:34Z</time>
      </trkpt>
      <trkpt lat="43.287067" lon="-4.210000">
        <ele>506.0</ele>
        <time>2015-04-28T13:21:35Z</time>
      </trkpt>
      <trkpt lat="43.286967" lon="-4.210133">
        <ele>506.0</ele>
        <time>2015-04-28T13:21:36Z</time>
      </trkpt>
      <trkpt lat="43.286883" lon="-4.210217">
        <ele>507.0</ele>
        <time>2015-04-28T13:21:37Z</time>
      </trkpt>
      <trkpt lat="43.286800" lon="-4.210300">
        <ele>507.0</ele>
        <time>2015-04-28T13:21:38Z</time>
      </trkpt>
      <trkpt lat="43.286733" lon="-4.210383">
        <ele>508.0</ele>
        <time>2015-04-28T13:21:39Z</time>
      </trkpt>
      <trkpt lat="43.286650" lon="-4.210467">
        <ele>508.0</ele>
        <time>2015-04-28T13:21:40Z</time>
      </trkpt>
      <trkpt lat="43.286567" lon="-4.210550">
        <ele>508.0</ele>
        <time>2015-04-28T13:21:41Z</time>
      </trkpt>
      <trkpt lat="43.286467" lon="-4.210583">
        <ele>508.0</ele>
        <time>2015-04-28T13:21:42Z</time>
      </trkpt>
      <trkpt lat="43.286383" lon="-4.210583">
        <ele>509.0</ele>
        <time>2015-04-28T13:21:43Z</time>
      </trkpt>
      <trkpt lat="43.286300" lon="-4.210567">
        <ele>509.0</ele>
        <time>2015-04-28T13:21:44Z</time>
      </trkpt>
      <trkpt lat="43.286233" lon="-4.210550">
        <ele>510.0</ele>
        <time>2015-04-28T13:21:45Z</time>
      </trkpt>
      <trkpt lat="43.286167" lon="-4.210517">
        <ele>508.0</ele>
        <time>2015-04-28T13:21:46Z</time>
      </trkpt>
      <trkpt lat="43.286100" lon="-4.210483">
        <ele>508.0</ele>
        <time>2015-04-28T13:21:47Z</time>
      </trkpt>
      <trkpt lat="43.286017" lon="-4.210450">
        <ele>508.0</ele>
        <time>2015-04-28T13:21:48Z</time>
      </trkpt>
      <trkpt lat="43.285950" lon="-4.210400">
        <ele>508.0</ele>
        <time>2015-04-28T13:21:49Z</time>
      </trkpt>
      <trkpt lat="43.285900" lon="-4.210350">
        <ele>508.0</ele>
        <time>2015-04-28T13:21:50Z</time>
      </trkpt>
      <trkpt lat="43.285833" lon="-4.210317">
        <ele>509.0</ele>
        <time>2015-04-28T13:21:51Z</time>
      </trkpt>
      <trkpt lat="43.285767" lon="-4.210267">
        <ele>509.0</ele>
        <time>2015-04-28T13:21:52Z</time>
      </trkpt>
      <trkpt lat="43.285717" lon="-4.210217">
        <ele>509.0</ele>
        <time>2015-04-28T13:21:53Z</time>
      </trkpt>
      <trkpt lat="43.285650" lon="-4.210167">
        <ele>509.0</ele>
        <time>2015-04-28T13:21:54Z</time>
      </trkpt>
      <trkpt lat="43.285600" lon="-4.210100">
        <ele>509.0</ele>
        <time>2015-04-28T13:21:55Z</time>
      </trkpt>
      <trkpt lat="43.285550" lon="-4.210050">
        <ele>509.0</ele>
        <time>2015-04-28T13:21:56Z</time>
      </trkpt>
      <trkpt lat="43.285500" lon="-4.209983">
        <ele>509.0</ele>
        <time>2015-04-28T13:21:57Z</time>
      </trkpt>
      <trkpt lat="43.285450" lon="-4.209917">
        <ele>509.0</ele>
        <time>2015-04-28T13:21:58Z</time>
      </trkpt>
      <trkpt lat="43.285417" lon="-4.209850">
        <ele>509.0</ele>
        <time>2015-04-28T13:21:59Z</time>
      </trkpt>
      <trkpt lat="43.285383" lon="-4.209783">
        <ele>509.0</ele>
        <time>2015-04-28T13:22:00Z</time>
      </trkpt>
      <trkpt lat="43.285367" lon="-4.209733">
        <ele>509.0</ele>
        <time>2015-04-28T13:22:01Z</time>
      </trkpt>
      <trkpt lat="43.285350" lon="-4.209650">
        <ele>509.0</ele>
        <time>2015-04-28T13:22:02Z</time>
      </trkpt>
      <trkpt lat="43.285333" lon="-4.209600">
        <ele>509.0</ele>
        <time>2015-04-28T13:22:03Z</time>
      </trkpt>
      <trkpt lat="43.285333" lon="-4.209583">
        <ele>509.0</ele>
        <time>2015-04-28T13:22:04Z</time>
      </trkpt>
      <trkpt lat="43.285350" lon="-4.209583">
        <ele>509.0</ele>
        <time>2015-04-28T13:22:05Z</time>
      </trkpt>
      <trkpt lat="43.285367" lon="-4.209617">
        <ele>507.0</ele>
        <time>2015-04-28T13:22:06Z</time>
      </trkpt>
      <trkpt lat="43.285417" lon="-4.209650">
        <ele>506.0</ele>
        <time>2015-04-28T13:22:07Z</time>
      </trkpt>
      <trkpt lat="43.285467" lon="-4.209683">
        <ele>507.0</ele>
        <time>2015-04-28T13:22:08Z</time>
      </trkpt>
      <trkpt lat="43.285517" lon="-4.209733">
        <ele>506.0</ele>
        <time>2015-04-28T13:22:09Z</time>
      </trkpt>
      <trkpt lat="43.285567" lon="-4.209783">
        <ele>506.0</ele>
        <time>2015-04-28T13:22:10Z</time>
      </trkpt>
      <trkpt lat="43.285617" lon="-4.209833">
        <ele>505.0</ele>
        <time>2015-04-28T13:22:11Z</time>
      </trkpt>
      <trkpt lat="43.285683" lon="-4.209900">
        <ele>505.0</ele>
        <time>2015-04-28T13:22:12Z</time>
      </trkpt>
      <trkpt lat="43.285733" lon="-4.209983">
        <ele>503.0</ele>
        <time>2015-04-28T13:22:13Z</time>
      </trkpt>
      <trkpt lat="43.285800" lon="-4.210083">
        <ele>503.0</ele>
        <time>2015-04-28T13:22:14Z</time>
      </trkpt>
      <trkpt lat="43.285867" lon="-4.210167">
        <ele>502.0</ele>
        <time>2015-04-28T13:22:15Z</time>
      </trkpt>
      <trkpt lat="43.285917" lon="-4.210250">
        <ele>502.0</ele>
        <time>2015-04-28T13:22:16Z</time>
      </trkpt>
      <trkpt lat="43.285983" lon="-4.210333">
        <ele>502.0</ele>
        <time>2015-04-28T13:22:17Z</time>
      </trkpt>
      <trkpt lat="43.286033" lon="-4.210417">
        <ele>502.0</ele>
        <time>2015-04-28T13:22:18Z</time>
      </trkpt>
      <trkpt lat="43.286083" lon="-4.210483">
        <ele>503.0</ele>
        <time>2015-04-28T13:22:19Z</time>
      </trkpt>
      <trkpt lat="43.286117" lon="-4.210583">
        <ele>504.0</ele>
        <time>2015-04-28T13:22:20Z</time>
      </trkpt>
      <trkpt lat="43.286150" lon="-4.210667">
        <ele>507.0</ele>
        <time>2015-04-28T13:22:21Z</time>
      </trkpt>
      <trkpt lat="43.286167" lon="-4.210717">
        <ele>508.0</ele>
        <time>2015-04-28T13:22:22Z</time>
      </trkpt>
      <trkpt lat="43.286183" lon="-4.210783">
        <ele>508.0</ele>
        <time>2015-04-28T13:22:23Z</time>
      </trkpt>
      <trkpt lat="43.286217" lon="-4.210833">
        <ele>509.0</ele>
        <time>2015-04-28T13:22:24Z</time>
      </trkpt>
      <trkpt lat="43.286250" lon="-4.210883">
        <ele>510.0</ele>
        <time>2015-04-28T13:22:25Z</time>
      </trkpt>
      <trkpt lat="43.286283" lon="-4.210933">
        <ele>511.0</ele>
        <time>2015-04-28T13:22:26Z</time>
      </trkpt>
      <trkpt lat="43.286317" lon="-4.210983">
        <ele>512.0</ele>
        <time>2015-04-28T13:22:27Z</time>
      </trkpt>
      <trkpt lat="43.286333" lon="-4.211000">
        <ele>513.0</ele>
        <time>2015-04-28T13:22:28Z</time>
      </trkpt>
      <trkpt lat="43.286333" lon="-4.210983">
        <ele>514.0</ele>
        <time>2015-04-28T13:22:29Z</time>
      </trkpt>
      <trkpt lat="43.286333" lon="-4.210933">
        <ele>514.0</ele>
        <time>2015-04-28T13:22:30Z</time>
      </trkpt>
      <trkpt lat="43.286317" lon="-4.210900">
        <ele>514.0</ele>
        <time>2015-04-28T13:22:31Z</time>
      </trkpt>
      <trkpt lat="43.286283" lon="-4.210850">
        <ele>514.0</ele>
        <time>2015-04-28T13:22:32Z</time>
      </trkpt>
      <trkpt lat="43.286233" lon="-4.210800">
        <ele>514.0</ele>
        <time>2015-04-28T13:22:33Z</time>
      </trkpt>
      <trkpt lat="43.286167" lon="-4.210750">
        <ele>514.0</ele>
        <time>2015-04-28T13:22:34Z</time>
      </trkpt>
      <trkpt lat="43.286083" lon="-4.210717">
        <ele>515.0</ele>
        <time>2015-04-28T13:22:35Z</time>
      </trkpt>
      <trkpt lat="43.286000" lon="-4.210717">
        <ele>516.0</ele>
        <time>2015-04-28T13:22:36Z</time>
      </trkpt>
      <trkpt lat="43.285917" lon="-4.210750">
        <ele>516.0</ele>
        <time>2015-04-28T13:22:37Z</time>
      </trkpt>
      <trkpt lat="43.285833" lon="-4.210767">
        <ele>517.0</ele>
        <time>2015-04-28T13:22:38Z</time>
      </trkpt>
      <trkpt lat="43.285750" lon="-4.210800">
        <ele>518.0</ele>
        <time>2015-04-28T13:22:39Z</time>
      </trkpt>
      <trkpt lat="43.285667" lon="-4.210850">
        <ele>518.0</ele>
        <time>2015-04-28T13:22:40Z</time>
      </trkpt>
      <trkpt lat="43.285583" lon="-4.210933">
        <ele>519.0</ele>
        <time>2015-04-28T13:22:41Z</time>
      </trkpt>
      <trkpt lat="43.285517" lon="-4.211067">
        <ele>518.0</ele>
        <time>2015-04-28T13:22:42Z</time>
      </trkpt>
      <trkpt lat="43.285450" lon="-4.211217">
        <ele>519.0</ele>
        <time>2015-04-28T13:22:43Z</time>
      </trkpt>
      <trkpt lat="43.285417" lon="-4.211367">
        <ele>520.0</ele>
        <time>2015-04-28T13:22:44Z</time>
      </trkpt>
      <trkpt lat="43.285400" lon="-4.211500">
        <ele>522.0</ele>
        <time>2015-04-28T13:22:45Z</time>
      </trkpt>
      <trkpt lat="43.285367" lon="-4.211617">
        <ele>523.0</ele>
        <time>2015-04-28T13:22:46Z</time>
      </trkpt>
      <trkpt lat="43.285350" lon="-4.211750">
        <ele>524.0</ele>
        <time>2015-04-28T13:22:47Z</time>
      </trkpt>
      <trkpt lat="43.285350" lon="-4.211867">
        <ele>524.0</ele>
        <time>2015-04-28T13:22:48Z</time>
      </trkpt>
      <trkpt lat="43.285350" lon="-4.212000">
        <ele>524.0</ele>
        <time>2015-04-28T13:22:49Z</time>
      </trkpt>
      <trkpt lat="43.285367" lon="-4.212117">
        <ele>523.0</ele>
        <time>2015-04-28T13:22:50Z</time>
      </trkpt>
      <trkpt lat="43.285400" lon="-4.212217">
        <ele>525.0</ele>
        <time>2015-04-28T13:22:51Z</time>
      </trkpt>
      <trkpt lat="43.285433" lon="-4.212317">
        <ele>528.0</ele>
        <time>2015-04-28T13:22:52Z</time>
      </trkpt>
      <trkpt lat="43.285450" lon="-4.212383">
        <ele>531.0</ele>
        <time>2015-04-28T13:22:53Z</time>
      </trkpt>
      <trkpt lat="43.285450" lon="-4.212450">
        <ele>532.0</ele>
        <time>2015-04-28T13:22:54Z</time>
      </trkpt>
      <trkpt lat="43.285467" lon="-4.212517">
        <ele>532.0</ele>
        <time>2015-04-28T13:22:55Z</time>
      </trkpt>
      <trkpt lat="43.285500" lon="-4.212583">
        <ele>533.0</ele>
        <time>2015-04-28T13:22:56Z</time>
      </trkpt>
      <trkpt lat="43.285517" lon="-4.212617">
        <ele>534.0</ele>
        <time>2015-04-28T13:22:57Z</time>
      </trkpt>
      <trkpt lat="43.285517" lon="-4.212600">
        <ele>535.0</ele>
        <time>2015-04-28T13:22:58Z</time>
      </trkpt>
      <trkpt lat="43.285517" lon="-4.212583">
        <ele>535.0</ele>
        <time>2015-04-28T13:22:59Z</time>
      </trkpt>
      <trkpt lat="43.285500" lon="-4.212550">
        <ele>535.0</ele>
        <time>2015-04-28T13:23:00Z</time>
      </trkpt>
      <trkpt lat="43.285500" lon="-4.212533">
        <ele>534.0</ele>
        <time>2015-04-28T13:23:01Z</time>
      </trkpt>
      <trkpt lat="43.285483" lon="-4.212500">
        <ele>534.0</ele>
        <time>2015-04-28T13:23:02Z</time>
      </trkpt>
      <trkpt lat="43.285450" lon="-4.212467">
        <ele>532.0</ele>
        <time>2015-04-28T13:23:03Z</time>
      </trkpt>
      <trkpt lat="43.285400" lon="-4.212417">
        <ele>530.0</ele>
        <time>2015-04-28T13:23:04Z</time>
      </trkpt>
      <trkpt lat="43.285317" lon="-4.212383">
        <ele>529.0</ele>
        <time>2015-04-28T13:23:05Z</time>
      </trkpt>
      <trkpt lat="43.285217" lon="-4.212383">
        <ele>528.0</ele>
        <time>2015-04-28T13:23:06Z</time>
      </trkpt>
      <trkpt lat="43.285100" lon="-4.212417">
        <ele>527.0</ele>
        <time>2015-04-28T13:23:07Z</time>
      </trkpt>
      <trkpt lat="43.284983" lon="-4.212483">
        <ele>527.0</ele>
        <time>2015-04-28T13:23:08Z</time>
      </trkpt>
      <trkpt lat="43.284900" lon="-4.212567">
        <ele>528.0</ele>
        <time>2015-04-28T13:23:09Z</time>
      </trkpt>
      <trkpt lat="43.284817" lon="-4.212650">
        <ele>529.0</ele>
        <time>2015-04-28T13:23:10Z</time>
      </trkpt>
      <trkpt lat="43.284733" lon="-4.212733">
        <ele>529.0</ele>
        <time>2015-04-28T13:23:11Z</time>
      </trkpt>
      <trkpt lat="43.284667" lon="-4.212850">
        <ele>529.0</ele>
        <time>2015-04-28T13:23:12Z</time>
      </trkpt>
      <trkpt lat="43.284600" lon="-4.212967">
        <ele>530.0</ele>
        <time>2015-04-28T13:23:13Z</time>
      </trkpt>
      <trkpt lat="43.284533" lon="-4.213083">
        <ele>530.0</ele>
        <time>2015-04-28T13:23:14Z</time>
      </trkpt>
      <trkpt lat="43.284483" lon="-4.213217">
        <ele>531.0</ele>
        <time>2015-04-28T13:23:15Z</time>
      </trkpt>
      <trkpt lat="43.284433" lon="-4.213333">
        <ele>532.0</ele>
        <time>2015-04-28T13:23:16Z</time>
      </trkpt>
      <trkpt lat="43.284400" lon="-4.213467">
        <ele>533.0</ele>
        <time>2015-04-28T13:23:17Z</time>
      </trkpt>
      <trkpt lat="43.284367" lon="-4.213583">
        <ele>533.0</ele>
        <time>2015-04-28T13:23:18Z</time>
      </trkpt>
      <trkpt lat="43.284350" lon="-4.213717">
        <ele>534.0</ele>
        <time>2015-04-28T13:23:19Z</time>
      </trkpt>
      <trkpt lat="43.284333" lon="-4.213850">
        <ele>534.0</ele>
        <time>2015-04-28T13:23:20Z</time>
      </trkpt>
      <trkpt lat="43.284317" lon="-4.213967">
        <ele>534.0</ele>
        <time>2015-04-28T13:23:21Z</time>
      </trkpt>
      <trkpt lat="43.284317" lon="-4.214083">
        <ele>535.0</ele>
        <time>2015-04-28T13:23:22Z</time>
      </trkpt>
      <trkpt lat="43.284317" lon="-4.214200">
        <ele>535.0</ele>
        <time>2015-04-28T13:23:23Z</time>
      </trkpt>
      <trkpt lat="43.284333" lon="-4.214300">
        <ele>536.0</ele>
        <time>2015-04-28T13:23:24Z</time>
      </trkpt>
      <trkpt lat="43.284350" lon="-4.214383">
        <ele>536.0</ele>
        <time>2015-04-28T13:23:25Z</time>
      </trkpt>
      <trkpt lat="43.284367" lon="-4.214450">
        <ele>536.0</ele>
        <time>2015-04-28T13:23:26Z</time>
      </trkpt>
      <trkpt lat="43.284383" lon="-4.214500">
        <ele>536.0</ele>
        <time>2015-04-28T13:23:27Z</time>
      </trkpt>
      <trkpt lat="43.284400" lon="-4.214533">
        <ele>536.0</ele>
        <time>2015-04-28T13:23:28Z</time>
      </trkpt>
      <trkpt lat="43.284417" lon="-4.214567">
        <ele>536.0</ele>
        <time>2015-04-28T13:23:29Z</time>
      </trkpt>
      <trkpt lat="43.284433" lon="-4.214567">
        <ele>536.0</ele>
        <time>2015-04-28T13:23:30Z</time>
      </trkpt>
      <trkpt lat="43.284433" lon="-4.214550">
        <ele>536.0</ele>
        <time>2015-04-28T13:23:31Z</time>
      </trkpt>
      <trkpt lat="43.284433" lon="-4.214517">
        <ele>536.0</ele>
        <time>2015-04-28T13:23:32Z</time>
      </trkpt>
      <trkpt lat="43.284417" lon="-4.214483">
        <ele>536.0</ele>
        <time>2015-04-28T13:23:33Z</time>
      </trkpt>
      <trkpt lat="43.284367" lon="-4.214433">
        <ele>535.0</ele>
        <time>2015-04-28T13:23:34Z</time>
      </trkpt>
      <trkpt lat="43.284317" lon="-4.214400">
        <ele>535.0</ele>
        <time>2015-04-28T13:23:35Z</time>
      </trkpt>
      <trkpt lat="43.284250" lon="-4.214350">
        <ele>534.0</ele>
        <time>2015-04-28T13:23:36Z</time>
      </trkpt>
      <trkpt lat="43.284167" lon="-4.214333">
        <ele>534.0</ele>
        <time>2015-04-28T13:23:37Z</time>
      </trkpt>
      <trkpt lat="43.284083" lon="-4.214317">
        <ele>533.0</ele>
        <time>2015-04-28T13:23:38Z</time>
      </trkpt>
      <trkpt lat="43.283983" lon="-4.214333">
        <ele>533.0</ele>
        <time>2015-04-28T13:23:39Z</time>
      </trkpt>
      <trkpt lat="43.283883" lon="-4.214350">
        <ele>532.0</ele>
        <time>2015-04-28T13:23:40Z</time>
      </trkpt>
      <trkpt lat="43.283767" lon="-4.214417">
        <ele>531.0</ele>
        <time>2015-04-28T13:23:41Z</time>
      </trkpt>
      <trkpt lat="43.283650" lon="-4.214500">
        <ele>530.0</ele>
        <time>2015-04-28T13:23:42Z</time>
      </trkpt>
      <trkpt lat="43.283550" lon="-4.214617">
        <ele>530.0</ele>
        <time>2015-04-28T13:23:43Z</time>
      </trkpt>
      <trkpt lat="43.283450" lon="-4.214750">
        <ele>530.0</ele>
        <time>2015-04-28T13:23:44Z</time>
      </trkpt>
      <trkpt lat="43.283383" lon="-4.214883">
        <ele>530.0</ele>
        <time>2015-04-28T13:23:45Z</time>
      </trkpt>
      <trkpt lat="43.283317" lon="-4.215000">
        <ele>531.0</ele>
        <time>2015-04-28T13:23:46Z</time>
      </trkpt>
      <trkpt lat="43.283267" lon="-4.215133">
        <ele>532.0</ele>
        <time>2015-04-28T13:23:47Z</time>
      </trkpt>
      <trkpt lat="43.283200" lon="-4.215267">
        <ele>531.0</ele>
        <time>2015-04-28T13:23:48Z</time>
      </trkpt>
      <trkpt lat="43.283150" lon="-4.215400">
        <ele>531.0</ele>
        <time>2015-04-28T13:23:49Z</time>
      </trkpt>
      <trkpt lat="43.283117" lon="-4.215550">
        <ele>532.0</ele>
        <time>2015-04-28T13:23:50Z</time>
      </trkpt>
      <trkpt lat="43.283083" lon="-4.215683">
        <ele>533.0</ele>
        <time>2015-04-28T13:23:51Z</time>
      </trkpt>
      <trkpt lat="43.283067" lon="-4.215800">
        <ele>533.0</ele>
        <time>2015-04-28T13:23:52Z</time>
      </trkpt>
      <trkpt lat="43.283050" lon="-4.215917">
        <ele>534.0</ele>
        <time>2015-04-28T13:23:53Z</time>
      </trkpt>
      <trkpt lat="43.283050" lon="-4.216033">
        <ele>534.0</ele>
        <time>2015-04-28T13:23:54Z</time>
      </trkpt>
      <trkpt lat="43.283050" lon="-4.216150">
        <ele>535.0</ele>
        <time>2015-04-28T13:23:55Z</time>
      </trkpt>
      <trkpt lat="43.283033" lon="-4.216267">
        <ele>535.0</ele>
        <time>2015-04-28T13:23:56Z</time>
      </trkpt>
      <trkpt lat="43.283033" lon="-4.216383">
        <ele>535.0</ele>
        <time>2015-04-28T13:23:57Z</time>
      </trkpt>
      <trkpt lat="43.283033" lon="-4.216483">
        <ele>534.0</ele>
        <time>2015-04-28T13:23:58Z</time>
      </trkpt>
      <trkpt lat="43.283033" lon="-4.216600">
        <ele>534.0</ele>
        <time>2015-04-28T13:23:59Z</time>
      </trkpt>
      <trkpt lat="43.283033" lon="-4.216717">
        <ele>533.0</ele>
        <time>2015-04-28T13:24:00Z</time>
      </trkpt>
      <trkpt lat="43.283050" lon="-4.216833">
        <ele>533.0</ele>
        <time>2015-04-28T13:24:01Z</time>
      </trkpt>
      <trkpt lat="43.283067" lon="-4.216950">
        <ele>532.0</ele>
        <time>2015-04-28T13:24:02Z</time>
      </trkpt>
      <trkpt lat="43.283083" lon="-4.217067">
        <ele>532.0</ele>
        <time>2015-04-28T13:24:03Z</time>
      </trkpt>
      <trkpt lat="43.283100" lon="-4.217183">
        <ele>531.0</ele>
        <time>2015-04-28T13:24:04Z</time>
      </trkpt>
      <trkpt lat="43.283117" lon="-4.217317">
        <ele>531.0</ele>
        <time>2015-04-28T13:24:05Z</time>
      </trkpt>
      <trkpt lat="43.283133" lon="-4.217433">
        <ele>531.0</ele>
        <time>2015-04-28T13:24:06Z</time>
      </trkpt>
      <trkpt lat="43.283150" lon="-4.217533">
        <ele>532.0</ele>
        <time>2015-04-28T13:24:07Z</time>
      </trkpt>
      <trkpt lat="43.283183" lon="-4.217617">
        <ele>534.0</ele>
        <time>2015-04-28T13:24:08Z</time>
      </trkpt>
      <trkpt lat="43.283183" lon="-4.217717">
        <ele>535.0</ele>
        <time>2015-04-28T13:24:09Z</time>
      </trkpt>
      <trkpt lat="43.283183" lon="-4.217817">
        <ele>534.0</ele>
        <time>2015-04-28T13:24:10Z</time>
      </trkpt>
      <trkpt lat="43.283183" lon="-4.217900">
        <ele>533.0</ele>
        <time>2015-04-28T13:24:11Z</time>
      </trkpt>
      <trkpt lat="43.283183" lon="-4.218017">
        <ele>533.0</ele>
        <time>2015-04-28T13:24:12Z</time>
      </trkpt>
      <trkpt lat="43.283200" lon="-4.218100">
        <ele>533.0</ele>
        <time>2015-04-28T13:24:13Z</time>
      </trkpt>
      <trkpt lat="43.283233" lon="-4.218183">
        <ele>533.0</ele>
        <time>2015-04-28T13:24:14Z</time>
      </trkpt>
      <trkpt lat="43.283250" lon="-4.218267">
        <ele>533.0</ele>
        <time>2015-04-28T13:24:15Z</time>
      </trkpt>
      <trkpt lat="43.283267" lon="-4.218333">
        <ele>533.0</ele>
        <time>2015-04-28T13:24:16Z</time>
      </trkpt>
      <trkpt lat="43.283300" lon="-4.218400">
        <ele>532.0</ele>
        <time>2015-04-28T13:24:17Z</time>
      </trkpt>
      <trkpt lat="43.283333" lon="-4.218467">
        <ele>532.0</ele>
        <time>2015-04-28T13:24:18Z</time>
      </trkpt>
      <trkpt lat="43.283350" lon="-4.218550">
        <ele>531.0</ele>
        <time>2015-04-28T13:24:19Z</time>
      </trkpt>
      <trkpt lat="43.283383" lon="-4.218617">
        <ele>532.0</ele>
        <time>2015-04-28T13:24:20Z</time>
      </trkpt>
      <trkpt lat="43.283400" lon="-4.218667">
        <ele>531.0</ele>
        <time>2015-04-28T13:24:21Z</time>
      </trkpt>
      <trkpt lat="43.283433" lon="-4.218717">
        <ele>532.0</ele>
        <time>2015-04-28T13:24:22Z</time>
      </trkpt>
      <trkpt lat="43.283467" lon="-4.218767">
        <ele>532.0</ele>
        <time>2015-04-28T13:24:23Z</time>
      </trkpt>
      <trkpt lat="43.283500" lon="-4.218817">
        <ele>532.0</ele>
        <time>2015-04-28T13:24:24Z</time>
      </trkpt>
      <trkpt lat="43.283517" lon="-4.218850">
        <ele>531.0</ele>
        <time>2015-04-28T13:24:25Z</time>
      </trkpt>
      <trkpt lat="43.283550" lon="-4.218883">
        <ele>531.0</ele>
        <time>2015-04-28T13:24:26Z</time>
      </trkpt>
      <trkpt lat="43.283583" lon="-4.218917">
        <ele>531.0</ele>
        <time>2015-04-28T13:24:27Z</time>
      </trkpt>
      <trkpt lat="43.283633" lon="-4.218950">
        <ele>530.0</ele>
        <time>2015-04-28T13:24:28Z</time>
      </trkpt>
      <trkpt lat="43.283667" lon="-4.219000">
        <ele>530.0</ele>
        <time>2015-04-28T13:24:29Z</time>
      </trkpt>
      <trkpt lat="43.283700" lon="-4.219033">
        <ele>530.0</ele>
        <time>2015-04-28T13:24:30Z</time>
      </trkpt>
      <trkpt lat="43.283733" lon="-4.219050">
        <ele>530.0</ele>
        <time>2015-04-28T13:24:31Z</time>
      </trkpt>
      <trkpt lat="43.283767" lon="-4.219083">
        <ele>530.0</ele>
        <time>2015-04-28T13:24:32Z</time>
      </trkpt>
      <trkpt lat="43.283800" lon="-4.219133">
        <ele>530.0</ele>
        <time>2015-04-28T13:24:33Z</time>
      </trkpt>
      <trkpt lat="43.283833" lon="-4.219167">
        <ele>530.0</ele>
        <time>2015-04-28T13:24:34Z</time>
      </trkpt>
      <trkpt lat="43.283883" lon="-4.219200">
        <ele>530.0</ele>
        <time>2015-04-28T13:24:35Z</time>
      </trkpt>
      <trkpt lat="43.283917" lon="-4.219233">
        <ele>531.0</ele>
        <time>2015-04-28T13:24:36Z</time>
      </trkpt>
      <trkpt lat="43.283950" lon="-4.219267">
        <ele>531.0</ele>
        <time>2015-04-28T13:24:37Z</time>
      </trkpt>
      <trkpt lat="43.283983" lon="-4.219317">
        <ele>531.0</ele>
        <time>2015-04-28T13:24:38Z</time>
      </trkpt>
      <trkpt lat="43.284017" lon="-4.219350">
        <ele>532.0</ele>
        <time>2015-04-28T13:24:39Z</time>
      </trkpt>
      <trkpt lat="43.284050" lon="-4.219400">
        <ele>532.0</ele>
        <time>2015-04-28T13:24:40Z</time>
      </trkpt>
      <trkpt lat="43.284083" lon="-4.219433">
        <ele>532.0</ele>
        <time>2015-04-28T13:24:41Z</time>
      </trkpt>
      <trkpt lat="43.284100" lon="-4.219450">
        <ele>533.0</ele>
        <time>2015-04-28T13:24:42Z</time>
      </trkpt>
      <trkpt lat="43.284117" lon="-4.219483">
        <ele>534.0</ele>
        <time>2015-04-28T13:24:43Z</time>
      </trkpt>
      <trkpt lat="43.284117" lon="-4.219500">
        <ele>534.0</ele>
        <time>2015-04-28T13:24:44Z</time>
      </trkpt>
      <trkpt lat="43.284133" lon="-4.219517">
        <ele>534.0</ele>
        <time>2015-04-28T13:24:45Z</time>
      </trkpt>
      <trkpt lat="43.284150" lon="-4.219533">
        <ele>534.0</ele>
        <time>2015-04-28T13:24:46Z</time>
      </trkpt>
      <trkpt lat="43.284167" lon="-4.219550">
        <ele>533.0</ele>
        <time>2015-04-28T13:24:47Z</time>
      </trkpt>
      <trkpt lat="43.284200" lon="-4.219583">
        <ele>532.0</ele>
        <time>2015-04-28T13:24:48Z</time>
      </trkpt>
      <trkpt lat="43.284233" lon="-4.219600">
        <ele>533.0</ele>
        <time>2015-04-28T13:24:49Z</time>
      </trkpt>
      <trkpt lat="43.284267" lon="-4.219633">
        <ele>533.0</ele>
        <time>2015-04-28T13:24:50Z</time>
      </trkpt>
      <trkpt lat="43.284317" lon="-4.219650">
        <ele>532.0</ele>
        <time>2015-04-28T13:24:51Z</time>
      </trkpt>
      <trkpt lat="43.284350" lon="-4.219667">
        <ele>532.0</ele>
        <time>2015-04-28T13:24:52Z</time>
      </trkpt>
      <trkpt lat="43.284383" lon="-4.219683">
        <ele>532.0</ele>
        <time>2015-04-28T13:24:53Z</time>
      </trkpt>
      <trkpt lat="43.284417" lon="-4.219700">
        <ele>532.0</ele>
        <time>2015-04-28T13:24:54Z</time>
      </trkpt>
      <trkpt lat="43.284450" lon="-4.219733">
        <ele>532.0</ele>
        <time>2015-04-28T13:24:55Z</time>
      </trkpt>
      <trkpt lat="43.284483" lon="-4.219767">
        <ele>532.0</ele>
        <time>2015-04-28T13:24:56Z</time>
      </trkpt>
      <trkpt lat="43.284517" lon="-4.219817">
        <ele>532.0</ele>
        <time>2015-04-28T13:24:57Z</time>
      </trkpt>
      <trkpt lat="43.284550" lon="-4.219850">
        <ele>532.0</ele>
        <time>2015-04-28T13:24:58Z</time>
      </trkpt>
      <trkpt lat="43.284600" lon="-4.219900">
        <ele>532.0</ele>
        <time>2015-04-28T13:24:59Z</time>
      </trkpt>
      <trkpt lat="43.284633" lon="-4.219950">
        <ele>532.0</ele>
        <time>2015-04-28T13:25:00Z</time>
      </trkpt>
      <trkpt lat="43.284667" lon="-4.220000">
        <ele>532.0</ele>
        <time>2015-04-28T13:25:01Z</time>
      </trkpt>
      <trkpt lat="43.284717" lon="-4.220050">
        <ele>532.0</ele>
        <time>2015-04-28T13:25:02Z</time>
      </trkpt>
      <trkpt lat="43.284750" lon="-4.220083">
        <ele>532.0</ele>
        <time>2015-04-28T13:25:03Z</time>
      </trkpt>
      <trkpt lat="43.284783" lon="-4.220117">
        <ele>532.0</ele>
        <time>2015-04-28T13:25:04Z</time>
      </trkpt>
      <trkpt lat="43.284817" lon="-4.220150">
        <ele>532.0</ele>
        <time>2015-04-28T13:25:05Z</time>
      </trkpt>
      <trkpt lat="43.284850" lon="-4.220200">
        <ele>532.0</ele>
        <time>2015-04-28T13:25:06Z</time>
      </trkpt>
      <trkpt lat="43.284883" lon="-4.220250">
        <ele>532.0</ele>
        <time>2015-04-28T13:25:07Z</time>
      </trkpt>
      <trkpt lat="43.284917" lon="-4.220317">
        <ele>532.0</ele>
        <time>2015-04-28T13:25:08Z</time>
      </trkpt>
      <trkpt lat="43.284950" lon="-4.220367">
        <ele>532.0</ele>
        <time>2015-04-28T13:25:09Z</time>
      </trkpt>
      <trkpt lat="43.284983" lon="-4.220417">
        <ele>532.0</ele>
        <time>2015-04-28T13:25:10Z</time>
      </trkpt>
      <trkpt lat="43.285033" lon="-4.220483">
        <ele>531.0</ele>
        <time>2015-04-28T13:25:11Z</time>
      </trkpt>
      <trkpt lat="43.285067" lon="-4.220533">
        <ele>531.0</ele>
        <time>2015-04-28T13:25:12Z</time>
      </trkpt>
      <trkpt lat="43.285100" lon="-4.220617">
        <ele>531.0</ele>
        <time>2015-04-28T13:25:13Z</time>
      </trkpt>
      <trkpt lat="43.285133" lon="-4.220683">
        <ele>531.0</ele>
        <time>2015-04-28T13:25:14Z</time>
      </trkpt>
      <trkpt lat="43.285167" lon="-4.220750">
        <ele>531.0</ele>
        <time>2015-04-28T13:25:15Z</time>
      </trkpt>
      <trkpt lat="43.285200" lon="-4.220800">
        <ele>531.0</ele>
        <time>2015-04-28T13:25:16Z</time>
      </trkpt>
      <trkpt lat="43.285250" lon="-4.220867">
        <ele>530.0</ele>
        <time>2015-04-28T13:25:17Z</time>
      </trkpt>
      <trkpt lat="43.285283" lon="-4.220950">
        <ele>530.0</ele>
        <time>2015-04-28T13:25:18Z</time>
      </trkpt>
      <trkpt lat="43.285317" lon="-4.221033">
        <ele>530.0</ele>
        <time>2015-04-28T13:25:19Z</time>
      </trkpt>
      <trkpt lat="43.285350" lon="-4.221117">
        <ele>530.0</ele>
        <time>2015-04-28T13:25:20Z</time>
      </trkpt>
      <trkpt lat="43.285383" lon="-4.221200">
        <ele>530.0</ele>
        <time>2015-04-28T13:25:21Z</time>
      </trkpt>
      <trkpt lat="43.285417" lon="-4.221283">
        <ele>529.0</ele>
        <time>2015-04-28T13:25:22Z</time>
      </trkpt>
      <trkpt lat="43.285467" lon="-4.221383">
        <ele>529.0</ele>
        <time>2015-04-28T13:25:23Z</time>
      </trkpt>
      <trkpt lat="43.285500" lon="-4.221483">
        <ele>529.0</ele>
        <time>2015-04-28T13:25:24Z</time>
      </trkpt>
      <trkpt lat="43.285550" lon="-4.221567">
        <ele>529.0</ele>
        <time>2015-04-28T13:25:25Z</time>
      </trkpt>
      <trkpt lat="43.285600" lon="-4.221633">
        <ele>529.0</ele>
        <time>2015-04-28T13:25:26Z</time>
      </trkpt>
      <trkpt lat="43.285633" lon="-4.221700">
        <ele>529.0</ele>
        <time>2015-04-28T13:25:27Z</time>
      </trkpt>
      <trkpt lat="43.285683" lon="-4.221767">
        <ele>529.0</ele>
        <time>2015-04-28T13:25:28Z</time>
      </trkpt>
      <trkpt lat="43.285717" lon="-4.221850">
        <ele>529.0</ele>
        <time>2015-04-28T13:25:29Z</time>
      </trkpt>
      <trkpt lat="43.285767" lon="-4.221950">
        <ele>529.0</ele>
        <time>2015-04-28T13:25:30Z</time>
      </trkpt>
      <trkpt lat="43.285800" lon="-4.222050">
        <ele>529.0</ele>
        <time>2015-04-28T13:25:31Z</time>
      </trkpt>
      <trkpt lat="43.285833" lon="-4.222133">
        <ele>528.0</ele>
        <time>2015-04-28T13:25:32Z</time>
      </trkpt>
      <trkpt lat="43.285867" lon="-4.222233">
        <ele>527.0</ele>
        <time>2015-04-28T13:25:33Z</time>
      </trkpt>
      <trkpt lat="43.285900" lon="-4.222333">
        <ele>526.0</ele>
        <time>2015-04-28T13:25:34Z</time>
      </trkpt>
      <trkpt lat="43.285950" lon="-4.222417">
        <ele>525.0</ele>
        <time>2015-04-28T13:25:35Z</time>
      </trkpt>
      <trkpt lat="43.286000" lon="-4.222517">
        <ele>525.0</ele>
        <time>2015-04-28T13:25:36Z</time>
      </trkpt>
      <trkpt lat="43.286033" lon="-4.222617">
        <ele>524.0</ele>
        <time>2015-04-28T13:25:37Z</time>
      </trkpt>
      <trkpt lat="43.286083" lon="-4.222700">
        <ele>524.0</ele>
        <time>2015-04-28T13:25:38Z</time>
      </trkpt>
      <trkpt lat="43.286117" lon="-4.222783">
        <ele>524.0</ele>
        <time>2015-04-28T13:25:39Z</time>
      </trkpt>
      <trkpt lat="43.286150" lon="-4.222867">
        <ele>524.0</ele>
        <time>2015-04-28T13:25:40Z</time>
      </trkpt>
      <trkpt lat="43.286183" lon="-4.222933">
        <ele>524.0</ele>
        <time>2015-04-28T13:25:41Z</time>
      </trkpt>
      <trkpt lat="43.286217" lon="-4.223017">
        <ele>524.0</ele>
        <time>2015-04-28T13:25:42Z</time>
      </trkpt>
      <trkpt lat="43.286267" lon="-4.223083">
        <ele>524.0</ele>
        <time>2015-04-28T13:25:43Z</time>
      </trkpt>
      <trkpt lat="43.286300" lon="-4.223183">
        <ele>524.0</ele>
        <time>2015-04-28T13:25:44Z</time>
      </trkpt>
      <trkpt lat="43.286350" lon="-4.223250">
        <ele>523.0</ele>
        <time>2015-04-28T13:25:45Z</time>
      </trkpt>
      <trkpt lat="43.286383" lon="-4.223333">
        <ele>523.0</ele>
        <time>2015-04-28T13:25:46Z</time>
      </trkpt>
      <trkpt lat="43.286417" lon="-4.223400">
        <ele>523.0</ele>
        <time>2015-04-28T13:25:47Z</time>
      </trkpt>
      <trkpt lat="43.286467" lon="-4.223483">
        <ele>522.0</ele>
        <time>2015-04-28T13:25:48Z</time>
      </trkpt>
      <trkpt lat="43.286500" lon="-4.223567">
        <ele>519.0</ele>
        <time>2015-04-28T13:25:49Z</time>
      </trkpt>
      <trkpt lat="43.286550" lon="-4.223633">
        <ele>517.0</ele>
        <time>2015-04-28T13:25:50Z</time>
      </trkpt>
      <trkpt lat="43.286600" lon="-4.223700">
        <ele>516.0</ele>
        <time>2015-04-28T13:25:51Z</time>
      </trkpt>
      <trkpt lat="43.286650" lon="-4.223783">
        <ele>515.0</ele>
        <time>2015-04-28T13:25:52Z</time>
      </trkpt>
      <trkpt lat="43.286683" lon="-4.223867">
        <ele>514.0</ele>
        <time>2015-04-28T13:25:53Z</time>
      </trkpt>
      <trkpt lat="43.286717" lon="-4.223950">
        <ele>514.0</ele>
        <time>2015-04-28T13:25:54Z</time>
      </trkpt>
      <trkpt lat="43.286750" lon="-4.224017">
        <ele>513.0</ele>
        <time>2015-04-28T13:25:55Z</time>
      </trkpt>
      <trkpt lat="43.286783" lon="-4.224083">
        <ele>512.0</ele>
        <time>2015-04-28T13:25:56Z</time>
      </trkpt>
      <trkpt lat="43.286817" lon="-4.224167">
        <ele>510.0</ele>
        <time>2015-04-28T13:25:57Z</time>
      </trkpt>
      <trkpt lat="43.286867" lon="-4.224267">
        <ele>508.0</ele>
        <time>2015-04-28T13:25:58Z</time>
      </trkpt>
      <trkpt lat="43.286900" lon="-4.224367">
        <ele>507.0</ele>
        <time>2015-04-28T13:25:59Z</time>
      </trkpt>
      <trkpt lat="43.286933" lon="-4.224450">
        <ele>506.0</ele>
        <time>2015-04-28T13:26:00Z</time>
      </trkpt>
      <trkpt lat="43.286967" lon="-4.224533">
        <ele>505.0</ele>
        <time>2015-04-28T13:26:01Z</time>
      </trkpt>
      <trkpt lat="43.287000" lon="-4.224617">
        <ele>503.0</ele>
        <time>2015-04-28T13:26:02Z</time>
      </trkpt>
      <trkpt lat="43.287033" lon="-4.224717">
        <ele>501.0</ele>
        <time>2015-04-28T13:26:03Z</time>
      </trkpt>
      <trkpt lat="43.287083" lon="-4.224817">
        <ele>500.0</ele>
        <time>2015-04-28T13:26:04Z</time>
      </trkpt>
      <trkpt lat="43.287117" lon="-4.224917">
        <ele>499.0</ele>
        <time>2015-04-28T13:26:05Z</time>
      </trkpt>
      <trkpt lat="43.287167" lon="-4.225000">
        <ele>498.0</ele>
        <time>2015-04-28T13:26:06Z</time>
      </trkpt>
      <trkpt lat="43.287200" lon="-4.225067">
        <ele>499.0</ele>
        <time>2015-04-28T13:26:07Z</time>
      </trkpt>
      <trkpt lat="43.287217" lon="-4.225133">
        <ele>499.0</ele>
        <time>2015-04-28T13:26:08Z</time>
      </trkpt>
      <trkpt lat="43.287250" lon="-4.225200">
        <ele>498.0</ele>
        <time>2015-04-28T13:26:09Z</time>
      </trkpt>
      <trkpt lat="43.287300" lon="-4.225283">
        <ele>497.0</ele>
        <time>2015-04-28T13:26:10Z</time>
      </trkpt>
      <trkpt lat="43.287333" lon="-4.225350">
        <ele>496.0</ele>
        <time>2015-04-28T13:26:11Z</time>
      </trkpt>
      <trkpt lat="43.287383" lon="-4.225400">
        <ele>495.0</ele>
        <time>2015-04-28T13:26:12Z</time>
      </trkpt>
      <trkpt lat="43.287417" lon="-4.225433">
        <ele>495.0</ele>
        <time>2015-04-28T13:26:13Z</time>
      </trkpt>
      <trkpt lat="43.287467" lon="-4.225467">
        <ele>496.0</ele>
        <time>2015-04-28T13:26:14Z</time>
      </trkpt>
      <trkpt lat="43.287500" lon="-4.225500">
        <ele>496.0</ele>
        <time>2015-04-28T13:26:15Z</time>
      </trkpt>
      <trkpt lat="43.287550" lon="-4.225550">
        <ele>495.0</ele>
        <time>2015-04-28T13:26:16Z</time>
      </trkpt>
      <trkpt lat="43.287600" lon="-4.225583">
        <ele>495.0</ele>
        <time>2015-04-28T13:26:17Z</time>
      </trkpt>
      <trkpt lat="43.287633" lon="-4.225600">
        <ele>496.0</ele>
        <time>2015-04-28T13:26:18Z</time>
      </trkpt>
      <trkpt lat="43.287667" lon="-4.225617">
        <ele>498.0</ele>
        <time>2015-04-28T13:26:19Z</time>
      </trkpt>
      <trkpt lat="43.287683" lon="-4.225650">
        <ele>499.0</ele>
        <time>2015-04-28T13:26:20Z</time>
      </trkpt>
      <trkpt lat="43.287700" lon="-4.225700">
        <ele>500.0</ele>
        <time>2015-04-28T13:26:21Z</time>
      </trkpt>
      <trkpt lat="43.287717" lon="-4.225733">
        <ele>501.0</ele>
        <time>2015-04-28T13:26:22Z</time>
      </trkpt>
      <trkpt lat="43.287733" lon="-4.225767">
        <ele>500.0</ele>
        <time>2015-04-28T13:26:23Z</time>
      </trkpt>
      <trkpt lat="43.287750" lon="-4.225800">
        <ele>500.0</ele>
        <time>2015-04-28T13:26:24Z</time>
      </trkpt>
      <trkpt lat="43.287767" lon="-4.225817">
        <ele>500.0</ele>
        <time>2015-04-28T13:26:25Z</time>
      </trkpt>
      <trkpt lat="43.287783" lon="-4.225817">
        <ele>500.0</ele>
        <time>2015-04-28T13:26:26Z</time>
      </trkpt>
      <trkpt lat="43.287800" lon="-4.225800">
        <ele>500.0</ele>
        <time>2015-04-28T13:26:27Z</time>
      </trkpt>
      <trkpt lat="43.287817" lon="-4.225783">
        <ele>500.0</ele>
        <time>2015-04-28T13:26:28Z</time>
      </trkpt>
      <trkpt lat="43.287817" lon="-4.225767">
        <ele>500.0</ele>
        <time>2015-04-28T13:26:29Z</time>
      </trkpt>
      <trkpt lat="43.287850" lon="-4.225767">
        <ele>500.0</ele>
        <time>2015-04-28T13:26:30Z</time>
      </trkpt>
      <trkpt lat="43.287883" lon="-4.225767">
        <ele>499.0</ele>
        <time>2015-04-28T13:26:31Z</time>
      </trkpt>
      <trkpt lat="43.287917" lon="-4.225767">
        <ele>499.0</ele>
        <time>2015-04-28T13:26:32Z</time>
      </trkpt>
      <trkpt lat="43.287967" lon="-4.225767">
        <ele>498.0</ele>
        <time>2015-04-28T13:26:33Z</time>
      </trkpt>
      <trkpt lat="43.288017" lon="-4.225783">
        <ele>498.0</ele>
        <time>2015-04-28T13:26:34Z</time>
      </trkpt>
      <trkpt lat="43.288067" lon="-4.225800">
        <ele>498.0</ele>
        <time>2015-04-28T13:26:35Z</time>
      </trkpt>
      <trkpt lat="43.288117" lon="-4.225817">
        <ele>497.0</ele>
        <time>2015-04-28T13:26:36Z</time>
      </trkpt>
      <trkpt lat="43.288167" lon="-4.225850">
        <ele>497.0</ele>
        <time>2015-04-28T13:26:37Z</time>
      </trkpt>
      <trkpt lat="43.288217" lon="-4.225867">
        <ele>494.0</ele>
        <time>2015-04-28T13:26:38Z</time>
      </trkpt>
      <trkpt lat="43.288283" lon="-4.225883">
        <ele>491.0</ele>
        <time>2015-04-28T13:26:39Z</time>
      </trkpt>
      <trkpt lat="43.288350" lon="-4.225900">
        <ele>488.0</ele>
        <time>2015-04-28T13:26:40Z</time>
      </trkpt>
      <trkpt lat="43.288417" lon="-4.225933">
        <ele>487.0</ele>
        <time>2015-04-28T13:26:41Z</time>
      </trkpt>
      <trkpt lat="43.288467" lon="-4.225983">
        <ele>486.0</ele>
        <time>2015-04-28T13:26:42Z</time>
      </trkpt>
      <trkpt lat="43.288500" lon="-4.226050">
        <ele>485.0</ele>
        <time>2015-04-28T13:26:43Z</time>
      </trkpt>
      <trkpt lat="43.288533" lon="-4.226133">
        <ele>483.0</ele>
        <time>2015-04-28T13:26:44Z</time>
      </trkpt>
      <trkpt lat="43.288583" lon="-4.226217">
        <ele>481.0</ele>
        <time>2015-04-28T13:26:45Z</time>
      </trkpt>
      <trkpt lat="43.288633" lon="-4.226317">
        <ele>479.0</ele>
        <time>2015-04-28T13:26:46Z</time>
      </trkpt>
      <trkpt lat="43.288683" lon="-4.226417">
        <ele>479.0</ele>
        <time>2015-04-28T13:26:47Z</time>
      </trkpt>
      <trkpt lat="43.288733" lon="-4.226500">
        <ele>478.0</ele>
        <time>2015-04-28T13:26:48Z</time>
      </trkpt>
      <trkpt lat="43.288783" lon="-4.226617">
        <ele>477.0</ele>
        <time>2015-04-28T13:26:49Z</time>
      </trkpt>
      <trkpt lat="43.288833" lon="-4.226700">
        <ele>476.0</ele>
        <time>2015-04-28T13:26:50Z</time>
      </trkpt>
      <trkpt lat="43.288867" lon="-4.226800">
        <ele>475.0</ele>
        <time>2015-04-28T13:26:51Z</time>
      </trkpt>
      <trkpt lat="43.288917" lon="-4.226900">
        <ele>474.0</ele>
        <time>2015-04-28T13:26:52Z</time>
      </trkpt>
      <trkpt lat="43.288967" lon="-4.227000">
        <ele>474.0</ele>
        <time>2015-04-28T13:26:53Z</time>
      </trkpt>
      <trkpt lat="43.289000" lon="-4.227100">
        <ele>474.0</ele>
        <time>2015-04-28T13:26:54Z</time>
      </trkpt>
      <trkpt lat="43.289017" lon="-4.227217">
        <ele>474.0</ele>
        <time>2015-04-28T13:26:55Z</time>
      </trkpt>
      <trkpt lat="43.289050" lon="-4.227350">
        <ele>473.0</ele>
        <time>2015-04-28T13:26:56Z</time>
      </trkpt>
      <trkpt lat="43.289100" lon="-4.227467">
        <ele>473.0</ele>
        <time>2015-04-28T13:26:57Z</time>
      </trkpt>
      <trkpt lat="43.289133" lon="-4.227583">
        <ele>473.0</ele>
        <time>2015-04-28T13:26:58Z</time>
      </trkpt>
      <trkpt lat="43.289167" lon="-4.227683">
        <ele>473.0</ele>
        <time>2015-04-28T13:26:59Z</time>
      </trkpt>
      <trkpt lat="43.289200" lon="-4.227783">
        <ele>472.0</ele>
        <time>2015-04-28T13:27:00Z</time>
      </trkpt>
      <trkpt lat="43.289217" lon="-4.227883">
        <ele>472.0</ele>
        <time>2015-04-28T13:27:01Z</time>
      </trkpt>
      <trkpt lat="43.289233" lon="-4.227983">
        <ele>472.0</ele>
        <time>2015-04-28T13:27:02Z</time>
      </trkpt>
      <trkpt lat="43.289233" lon="-4.228117">
        <ele>472.0</ele>
        <time>2015-04-28T13:27:03Z</time>
      </trkpt>
      <trkpt lat="43.289233" lon="-4.228250">
        <ele>472.0</ele>
        <time>2015-04-28T13:27:04Z</time>
      </trkpt>
      <trkpt lat="43.289217" lon="-4.228400">
        <ele>471.0</ele>
        <time>2015-04-28T13:27:05Z</time>
      </trkpt>
      <trkpt lat="43.289200" lon="-4.228567">
        <ele>471.0</ele>
        <time>2015-04-28T13:27:06Z</time>
      </trkpt>
      <trkpt lat="43.289150" lon="-4.228750">
        <ele>470.0</ele>
        <time>2015-04-28T13:27:07Z</time>
      </trkpt>
      <trkpt lat="43.289117" lon="-4.228900">
        <ele>470.0</ele>
        <time>2015-04-28T13:27:08Z</time>
      </trkpt>
      <trkpt lat="43.289067" lon="-4.229050">
        <ele>470.0</ele>
        <time>2015-04-28T13:27:09Z</time>
      </trkpt>
      <trkpt lat="43.289000" lon="-4.229183">
        <ele>469.0</ele>
        <time>2015-04-28T13:27:10Z</time>
      </trkpt>
      <trkpt lat="43.288917" lon="-4.229333">
        <ele>469.0</ele>
        <time>2015-04-28T13:27:11Z</time>
      </trkpt>
      <trkpt lat="43.288833" lon="-4.229450">
        <ele>469.0</ele>
        <time>2015-04-28T13:27:12Z</time>
      </trkpt>
      <trkpt lat="43.288750" lon="-4.229533">
        <ele>470.0</ele>
        <time>2015-04-28T13:27:13Z</time>
      </trkpt>
      <trkpt lat="43.288650" lon="-4.229600">
        <ele>471.0</ele>
        <time>2015-04-28T13:27:14Z</time>
      </trkpt>
      <trkpt lat="43.288567" lon="-4.229650">
        <ele>470.0</ele>
        <time>2015-04-28T13:27:15Z</time>
      </trkpt>
      <trkpt lat="43.288483" lon="-4.229700">
        <ele>469.0</ele>
        <time>2015-04-28T13:27:16Z</time>
      </trkpt>
      <trkpt lat="43.288383" lon="-4.229750">
        <ele>469.0</ele>
        <time>2015-04-28T13:27:17Z</time>
      </trkpt>
      <trkpt lat="43.288283" lon="-4.229767">
        <ele>468.0</ele>
        <time>2015-04-28T13:27:18Z</time>
      </trkpt>
      <trkpt lat="43.288200" lon="-4.229750">
        <ele>466.0</ele>
        <time>2015-04-28T13:27:19Z</time>
      </trkpt>
      <trkpt lat="43.288133" lon="-4.229717">
        <ele>465.0</ele>
        <time>2015-04-28T13:27:20Z</time>
      </trkpt>
      <trkpt lat="43.288100" lon="-4.229667">
        <ele>464.0</ele>
        <time>2015-04-28T13:27:21Z</time>
      </trkpt>
      <trkpt lat="43.288050" lon="-4.229617">
        <ele>466.0</ele>
        <time>2015-04-28T13:27:22Z</time>
      </trkpt>
      <trkpt lat="43.288000" lon="-4.229600">
        <ele>466.0</ele>
        <time>2015-04-28T13:27:23Z</time>
      </trkpt>
      <trkpt lat="43.287950" lon="-4.229567">
        <ele>466.0</ele>
        <time>2015-04-28T13:27:24Z</time>
      </trkpt>
      <trkpt lat="43.287900" lon="-4.229550">
        <ele>467.0</ele>
        <time>2015-04-28T13:27:25Z</time>
      </trkpt>
      <trkpt lat="43.287850" lon="-4.229533">
        <ele>466.0</ele>
        <time>2015-04-28T13:27:26Z</time>
      </trkpt>
      <trkpt lat="43.287833" lon="-4.229517">
        <ele>466.0</ele>
        <time>2015-04-28T13:27:27Z</time>
      </trkpt>
      <trkpt lat="43.287817" lon="-4.229483">
        <ele>466.0</ele>
        <time>2015-04-28T13:27:28Z</time>
      </trkpt>
      <trkpt lat="43.287800" lon="-4.229467">
        <ele>466.0</ele>
        <time>2015-04-28T13:27:29Z</time>
      </trkpt>
      <trkpt lat="43.287800" lon="-4.229450">
        <ele>466.0</ele>
        <time>2015-04-28T13:27:30Z</time>
      </trkpt>
      <trkpt lat="43.287800" lon="-4.229450">
        <ele>466.0</ele>
        <time>2015-04-28T13:27:31Z</time>
      </trkpt>
      <trkpt lat="43.287783" lon="-4.229450">
        <ele>467.0</ele>
        <time>2015-04-28T13:27:32Z</time>
      </trkpt>
      <trkpt lat="43.287767" lon="-4.229467">
        <ele>468.0</ele>
        <time>2015-04-28T13:27:33Z</time>
      </trkpt>
      <trkpt lat="43.287767" lon="-4.229467">
        <ele>469.0</ele>
        <time>2015-04-28T13:27:34Z</time>
      </trkpt>
      <trkpt lat="43.287767" lon="-4.229467">
        <ele>470.0</ele>
        <time>2015-04-28T13:27:35Z</time>
      </trkpt>
      <trkpt lat="43.287767" lon="-4.229483">
        <ele>472.0</ele>
        <time>2015-04-28T13:27:36Z</time>
      </trkpt>
      <trkpt lat="43.287783" lon="-4.229483">
        <ele>475.0</ele>
        <time>2015-04-28T13:27:37Z</time>
      </trkpt>
      <trkpt lat="43.287767" lon="-4.229483">
        <ele>477.0</ele>
        <time>2015-04-28T13:27:38Z</time>
      </trkpt>
      <trkpt lat="43.287750" lon="-4.229500">
        <ele>479.0</ele>
        <time>2015-04-28T13:27:39Z</time>
      </trkpt>
      <trkpt lat="43.287750" lon="-4.229533">
        <ele>479.0</ele>
        <time>2015-04-28T13:27:40Z</time>
      </trkpt>
      <trkpt lat="43.287750" lon="-4.229550">
        <ele>479.0</ele>
        <time>2015-04-28T13:27:41Z</time>
      </trkpt>
      <trkpt lat="43.287783" lon="-4.229567">
        <ele>479.0</ele>
        <time>2015-04-28T13:27:42Z</time>
      </trkpt>
      <trkpt lat="43.287817" lon="-4.229633">
        <ele>479.0</ele>
        <time>2015-04-28T13:27:43Z</time>
      </trkpt>
      <trkpt lat="43.287850" lon="-4.229733">
        <ele>479.0</ele>
        <time>2015-04-28T13:27:44Z</time>
      </trkpt>
      <trkpt lat="43.287867" lon="-4.229867">
        <ele>479.0</ele>
        <time>2015-04-28T13:27:45Z</time>
      </trkpt>
      <trkpt lat="43.287850" lon="-4.230033">
        <ele>479.0</ele>
        <time>2015-04-28T13:27:46Z</time>
      </trkpt>
      <trkpt lat="43.287800" lon="-4.230200">
        <ele>479.0</ele>
        <time>2015-04-28T13:27:47Z</time>
      </trkpt>
      <trkpt lat="43.287733" lon="-4.230350">
        <ele>480.0</ele>
        <time>2015-04-28T13:27:48Z</time>
      </trkpt>
      <trkpt lat="43.287650" lon="-4.230500">
        <ele>481.0</ele>
        <time>2015-04-28T13:27:49Z</time>
      </trkpt>
      <trkpt lat="43.287567" lon="-4.230617">
        <ele>482.0</ele>
        <time>2015-04-28T13:27:50Z</time>
      </trkpt>
      <trkpt lat="43.287467" lon="-4.230717">
        <ele>482.0</ele>
        <time>2015-04-28T13:27:51Z</time>
      </trkpt>
      <trkpt lat="43.287350" lon="-4.230800">
        <ele>482.0</ele>
        <time>2015-04-28T13:27:52Z</time>
      </trkpt>
      <trkpt lat="43.287250" lon="-4.230850">
        <ele>482.0</ele>
        <time>2015-04-28T13:27:53Z</time>
      </trkpt>
      <trkpt lat="43.287133" lon="-4.230867">
        <ele>483.0</ele>
        <time>2015-04-28T13:27:54Z</time>
      </trkpt>
      <trkpt lat="43.287033" lon="-4.230883">
        <ele>484.0</ele>
        <time>2015-04-28T13:27:55Z</time>
      </trkpt>
      <trkpt lat="43.286967" lon="-4.230883">
        <ele>486.0</ele>
        <time>2015-04-28T13:27:56Z</time>
      </trkpt>
      <trkpt lat="43.286900" lon="-4.230867">
        <ele>488.0</ele>
        <time>2015-04-28T13:27:57Z</time>
      </trkpt>
      <trkpt lat="43.286850" lon="-4.230867">
        <ele>487.0</ele>
        <time>2015-04-28T13:27:58Z</time>
      </trkpt>
      <trkpt lat="43.286833" lon="-4.230850">
        <ele>488.0</ele>
        <time>2015-04-28T13:27:59Z</time>
      </trkpt>
      <trkpt lat="43.286817" lon="-4.230833">
        <ele>488.0</ele>
        <time>2015-04-28T13:28:00Z</time>
      </trkpt>
      <trkpt lat="43.286817" lon="-4.230833">
        <ele>489.0</ele>
        <time>2015-04-28T13:28:01Z</time>
      </trkpt>
      <trkpt lat="43.286817" lon="-4.230867">
        <ele>489.0</ele>
        <time>2015-04-28T13:28:02Z</time>
      </trkpt>
      <trkpt lat="43.286850" lon="-4.230900">
        <ele>490.0</ele>
        <time>2015-04-28T13:28:03Z</time>
      </trkpt>
      <trkpt lat="43.286883" lon="-4.230967">
        <ele>491.0</ele>
        <time>2015-04-28T13:28:04Z</time>
      </trkpt>
      <trkpt lat="43.286917" lon="-4.231050">
        <ele>492.0</ele>
        <time>2015-04-28T13:28:05Z</time>
      </trkpt>
      <trkpt lat="43.286933" lon="-4.231200">
        <ele>493.0</ele>
        <time>2015-04-28T13:28:06Z</time>
      </trkpt>
      <trkpt lat="43.286933" lon="-4.231350">
        <ele>494.0</ele>
        <time>2015-04-28T13:28:07Z</time>
      </trkpt>
      <trkpt lat="43.286900" lon="-4.231517">
        <ele>495.0</ele>
        <time>2015-04-28T13:28:08Z</time>
      </trkpt>
      <trkpt lat="43.286833" lon="-4.231683">
        <ele>497.0</ele>
        <time>2015-04-28T13:28:09Z</time>
      </trkpt>
      <trkpt lat="43.286767" lon="-4.231817">
        <ele>498.0</ele>
        <time>2015-04-28T13:28:10Z</time>
      </trkpt>
      <trkpt lat="43.286683" lon="-4.231950">
        <ele>499.0</ele>
        <time>2015-04-28T13:28:11Z</time>
      </trkpt>
      <trkpt lat="43.286583" lon="-4.232067">
        <ele>499.0</ele>
        <time>2015-04-28T13:28:12Z</time>
      </trkpt>
      <trkpt lat="43.286467" lon="-4.232150">
        <ele>500.0</ele>
        <time>2015-04-28T13:28:13Z</time>
      </trkpt>
      <trkpt lat="43.286350" lon="-4.232200">
        <ele>500.0</ele>
        <time>2015-04-28T13:28:14Z</time>
      </trkpt>
      <trkpt lat="43.286250" lon="-4.232233">
        <ele>502.0</ele>
        <time>2015-04-28T13:28:15Z</time>
      </trkpt>
      <trkpt lat="43.286150" lon="-4.232233">
        <ele>503.0</ele>
        <time>2015-04-28T13:28:16Z</time>
      </trkpt>
      <trkpt lat="43.286067" lon="-4.232233">
        <ele>504.0</ele>
        <time>2015-04-28T13:28:17Z</time>
      </trkpt>
      <trkpt lat="43.285983" lon="-4.232233">
        <ele>505.0</ele>
        <time>2015-04-28T13:28:18Z</time>
      </trkpt>
      <trkpt lat="43.285917" lon="-4.232217">
        <ele>506.0</ele>
        <time>2015-04-28T13:28:19Z</time>
      </trkpt>
      <trkpt lat="43.285867" lon="-4.232200">
        <ele>506.0</ele>
        <time>2015-04-28T13:28:20Z</time>
      </trkpt>
      <trkpt lat="43.285833" lon="-4.232200">
        <ele>507.0</ele>
        <time>2015-04-28T13:28:21Z</time>
      </trkpt>
      <trkpt lat="43.285817" lon="-4.232183">
        <ele>507.0</ele>
        <time>2015-04-28T13:28:22Z</time>
      </trkpt>
      <trkpt lat="43.285800" lon="-4.232167">
        <ele>507.0</ele>
        <time>2015-04-28T13:28:23Z</time>
      </trkpt>
      <trkpt lat="43.285817" lon="-4.232167">
        <ele>508.0</ele>
        <time>2015-04-28T13:28:24Z</time>
      </trkpt>
      <trkpt lat="43.285833" lon="-4.232217">
        <ele>508.0</ele>
        <time>2015-04-28T13:28:25Z</time>
      </trkpt>
      <trkpt lat="43.285867" lon="-4.232317">
        <ele>507.0</ele>
        <time>2015-04-28T13:28:26Z</time>
      </trkpt>
      <trkpt lat="43.285883" lon="-4.232433">
        <ele>507.0</ele>
        <time>2015-04-28T13:28:27Z</time>
      </trkpt>
      <trkpt lat="43.285900" lon="-4.232567">
        <ele>508.0</ele>
        <time>2015-04-28T13:28:28Z</time>
      </trkpt>
      <trkpt lat="43.285917" lon="-4.232700">
        <ele>510.0</ele>
        <time>2015-04-28T13:28:29Z</time>
      </trkpt>
      <trkpt lat="43.285933" lon="-4.232817">
        <ele>513.0</ele>
        <time>2015-04-28T13:28:30Z</time>
      </trkpt>
      <trkpt lat="43.285950" lon="-4.232933">
        <ele>514.0</ele>
        <time>2015-04-28T13:28:31Z</time>
      </trkpt>
      <trkpt lat="43.285967" lon="-4.233050">
        <ele>516.0</ele>
        <time>2015-04-28T13:28:32Z</time>
      </trkpt>
      <trkpt lat="43.285983" lon="-4.233167">
        <ele>516.0</ele>
        <time>2015-04-28T13:28:33Z</time>
      </trkpt>
      <trkpt lat="43.285983" lon="-4.233300">
        <ele>516.0</ele>
        <time>2015-04-28T13:28:34Z</time>
      </trkpt>
      <trkpt lat="43.285967" lon="-4.233450">
        <ele>515.0</ele>
        <time>2015-04-28T13:28:35Z</time>
      </trkpt>
      <trkpt lat="43.285950" lon="-4.233600">
        <ele>515.0</ele>
        <time>2015-04-28T13:28:36Z</time>
      </trkpt>
      <trkpt lat="43.285900" lon="-4.233750">
        <ele>516.0</ele>
        <time>2015-04-28T13:28:37Z</time>
      </trkpt>
      <trkpt lat="43.285833" lon="-4.233867">
        <ele>516.0</ele>
        <time>2015-04-28T13:28:38Z</time>
      </trkpt>
      <trkpt lat="43.285750" lon="-4.234000">
        <ele>517.0</ele>
        <time>2015-04-28T13:28:39Z</time>
      </trkpt>
      <trkpt lat="43.285667" lon="-4.234100">
        <ele>519.0</ele>
        <time>2015-04-28T13:28:40Z</time>
      </trkpt>
      <trkpt lat="43.285567" lon="-4.234183">
        <ele>520.0</ele>
        <time>2015-04-28T13:28:41Z</time>
      </trkpt>
      <trkpt lat="43.285483" lon="-4.234250">
        <ele>521.0</ele>
        <time>2015-04-28T13:28:42Z</time>
      </trkpt>
      <trkpt lat="43.285400" lon="-4.234300">
        <ele>522.0</ele>
        <time>2015-04-28T13:28:43Z</time>
      </trkpt>
      <trkpt lat="43.285317" lon="-4.234317">
        <ele>523.0</ele>
        <time>2015-04-28T13:28:44Z</time>
      </trkpt>
      <trkpt lat="43.285250" lon="-4.234317">
        <ele>524.0</ele>
        <time>2015-04-28T13:28:45Z</time>
      </trkpt>
      <trkpt lat="43.285200" lon="-4.234300">
        <ele>525.0</ele>
        <time>2015-04-28T13:28:46Z</time>
      </trkpt>
      <trkpt lat="43.285150" lon="-4.234300">
        <ele>524.0</ele>
        <time>2015-04-28T13:28:47Z</time>
      </trkpt>
      <trkpt lat="43.285117" lon="-4.234267">
        <ele>524.0</ele>
        <time>2015-04-28T13:28:48Z</time>
      </trkpt>
      <trkpt lat="43.285117" lon="-4.234267">
        <ele>524.0</ele>
        <time>2015-04-28T13:28:49Z</time>
      </trkpt>
      <trkpt lat="43.285100" lon="-4.234250">
        <ele>524.0</ele>
        <time>2015-04-28T13:28:50Z</time>
      </trkpt>
      <trkpt lat="43.285117" lon="-4.234250">
        <ele>524.0</ele>
        <time>2015-04-28T13:28:51Z</time>
      </trkpt>
      <trkpt lat="43.285117" lon="-4.234250">
        <ele>524.0</ele>
        <time>2015-04-28T13:28:52Z</time>
      </trkpt>
      <trkpt lat="43.285150" lon="-4.234283">
        <ele>525.0</ele>
        <time>2015-04-28T13:28:53Z</time>
      </trkpt>
      <trkpt lat="43.285167" lon="-4.234333">
        <ele>525.0</ele>
        <time>2015-04-28T13:28:54Z</time>
      </trkpt>
      <trkpt lat="43.285217" lon="-4.234400">
        <ele>525.0</ele>
        <time>2015-04-28T13:28:55Z</time>
      </trkpt>
      <trkpt lat="43.285233" lon="-4.234500">
        <ele>525.0</ele>
        <time>2015-04-28T13:28:56Z</time>
      </trkpt>
      <trkpt lat="43.285267" lon="-4.234600">
        <ele>526.0</ele>
        <time>2015-04-28T13:28:57Z</time>
      </trkpt>
      <trkpt lat="43.285283" lon="-4.234733">
        <ele>526.0</ele>
        <time>2015-04-28T13:28:58Z</time>
      </trkpt>
      <trkpt lat="43.285283" lon="-4.234867">
        <ele>527.0</ele>
        <time>2015-04-28T13:28:59Z</time>
      </trkpt>
      <trkpt lat="43.285267" lon="-4.235017">
        <ele>527.0</ele>
        <time>2015-04-28T13:29:00Z</time>
      </trkpt>
      <trkpt lat="43.285233" lon="-4.235167">
        <ele>528.0</ele>
        <time>2015-04-28T13:29:01Z</time>
      </trkpt>
      <trkpt lat="43.285200" lon="-4.235333">
        <ele>529.0</ele>
        <time>2015-04-28T13:29:02Z</time>
      </trkpt>
      <trkpt lat="43.285150" lon="-4.235483">
        <ele>530.0</ele>
        <time>2015-04-28T13:29:03Z</time>
      </trkpt>
      <trkpt lat="43.285100" lon="-4.235617">
        <ele>531.0</ele>
        <time>2015-04-28T13:29:04Z</time>
      </trkpt>
      <trkpt lat="43.285017" lon="-4.235717">
        <ele>531.0</ele>
        <time>2015-04-28T13:29:05Z</time>
      </trkpt>
      <trkpt lat="43.284933" lon="-4.235817">
        <ele>532.0</ele>
        <time>2015-04-28T13:29:06Z</time>
      </trkpt>
      <trkpt lat="43.284833" lon="-4.235883">
        <ele>532.0</ele>
        <time>2015-04-28T13:29:07Z</time>
      </trkpt>
      <trkpt lat="43.284733" lon="-4.235950">
        <ele>533.0</ele>
        <time>2015-04-28T13:29:08Z</time>
      </trkpt>
      <trkpt lat="43.284633" lon="-4.235983">
        <ele>533.0</ele>
        <time>2015-04-28T13:29:09Z</time>
      </trkpt>
      <trkpt lat="43.284533" lon="-4.235983">
        <ele>533.0</ele>
        <time>2015-04-28T13:29:10Z</time>
      </trkpt>
      <trkpt lat="43.284450" lon="-4.235967">
        <ele>533.0</ele>
        <time>2015-04-28T13:29:11Z</time>
      </trkpt>
      <trkpt lat="43.284383" lon="-4.235933">
        <ele>533.0</ele>
        <time>2015-04-28T13:29:12Z</time>
      </trkpt>
      <trkpt lat="43.284333" lon="-4.235883">
        <ele>533.0</ele>
        <time>2015-04-28T13:29:13Z</time>
      </trkpt>
      <trkpt lat="43.284333" lon="-4.235850">
        <ele>533.0</ele>
        <time>2015-04-28T13:29:14Z</time>
      </trkpt>
      <trkpt lat="43.284317" lon="-4.235817">
        <ele>532.0</ele>
        <time>2015-04-28T13:29:15Z</time>
      </trkpt>
      <trkpt lat="43.284317" lon="-4.235817">
        <ele>533.0</ele>
        <time>2015-04-28T13:29:16Z</time>
      </trkpt>
      <trkpt lat="43.284333" lon="-4.235817">
        <ele>533.0</ele>
        <time>2015-04-28T13:29:17Z</time>
      </trkpt>
      <trkpt lat="43.284333" lon="-4.235817">
        <ele>534.0</ele>
        <time>2015-04-28T13:29:18Z</time>
      </trkpt>
      <trkpt lat="43.284333" lon="-4.235817">
        <ele>534.0</ele>
        <time>2015-04-28T13:29:19Z</time>
      </trkpt>
      <trkpt lat="43.284350" lon="-4.235817">
        <ele>535.0</ele>
        <time>2015-04-28T13:29:20Z</time>
      </trkpt>
      <trkpt lat="43.284367" lon="-4.235817">
        <ele>535.0</ele>
        <time>2015-04-28T13:29:21Z</time>
      </trkpt>
      <trkpt lat="43.284400" lon="-4.235833">
        <ele>535.0</ele>
        <time>2015-04-28T13:29:22Z</time>
      </trkpt>
      <trkpt lat="43.284433" lon="-4.235867">
        <ele>536.0</ele>
        <time>2015-04-28T13:29:23Z</time>
      </trkpt>
      <trkpt lat="43.284450" lon="-4.235933">
        <ele>537.0</ele>
        <time>2015-04-28T13:29:24Z</time>
      </trkpt>
      <trkpt lat="43.284483" lon="-4.236000">
        <ele>538.0</ele>
        <time>2015-04-28T13:29:25Z</time>
      </trkpt>
      <trkpt lat="43.284517" lon="-4.236067">
        <ele>539.0</ele>
        <time>2015-04-28T13:29:26Z</time>
      </trkpt>
      <trkpt lat="43.284550" lon="-4.236133">
        <ele>539.0</ele>
        <time>2015-04-28T13:29:27Z</time>
      </trkpt>
      <trkpt lat="43.284583" lon="-4.236233">
        <ele>539.0</ele>
        <time>2015-04-28T13:29:28Z</time>
      </trkpt>
      <trkpt lat="43.284600" lon="-4.236367">
        <ele>540.0</ele>
        <time>2015-04-28T13:29:29Z</time>
      </trkpt>
      <trkpt lat="43.284617" lon="-4.236533">
        <ele>540.0</ele>
        <time>2015-04-28T13:29:30Z</time>
      </trkpt>
      <trkpt lat="43.284583" lon="-4.236700">
        <ele>542.0</ele>
        <time>2015-04-28T13:29:31Z</time>
      </trkpt>
      <trkpt lat="43.284533" lon="-4.236850">
        <ele>542.0</ele>
        <time>2015-04-28T13:29:32Z</time>
      </trkpt>
      <trkpt lat="43.284483" lon="-4.236983">
        <ele>543.0</ele>
        <time>2015-04-28T13:29:33Z</time>
      </trkpt>
      <trkpt lat="43.284417" lon="-4.237100">
        <ele>544.0</ele>
        <time>2015-04-28T13:29:34Z</time>
      </trkpt>
      <trkpt lat="43.284350" lon="-4.237217">
        <ele>544.0</ele>
        <time>2015-04-28T13:29:35Z</time>
      </trkpt>
      <trkpt lat="43.284250" lon="-4.237317">
        <ele>542.0</ele>
        <time>2015-04-28T13:29:36Z</time>
      </trkpt>
      <trkpt lat="43.284150" lon="-4.237417">
        <ele>542.0</ele>
        <time>2015-04-28T13:29:37Z</time>
      </trkpt>
      <trkpt lat="43.284050" lon="-4.237500">
        <ele>542.0</ele>
        <time>2015-04-28T13:29:38Z</time>
      </trkpt>
      <trkpt lat="43.283950" lon="-4.237567">
        <ele>543.0</ele>
        <time>2015-04-28T13:29:39Z</time>
      </trkpt>
      <trkpt lat="43.283867" lon="-4.237633">
        <ele>543.0</ele>
        <time>2015-04-28T13:29:40Z</time>
      </trkpt>
      <trkpt lat="43.283767" lon="-4.237683">
        <ele>543.0</ele>
        <time>2015-04-28T13:29:41Z</time>
      </trkpt>
      <trkpt lat="43.283667" lon="-4.237700">
        <ele>543.0</ele>
        <time>2015-04-28T13:29:42Z</time>
      </trkpt>
      <trkpt lat="43.283567" lon="-4.237717">
        <ele>542.0</ele>
        <time>2015-04-28T13:29:43Z</time>
      </trkpt>
      <trkpt lat="43.283483" lon="-4.237700">
        <ele>541.0</ele>
        <time>2015-04-28T13:29:44Z</time>
      </trkpt>
      <trkpt lat="43.283400" lon="-4.237667">
        <ele>541.0</ele>
        <time>2015-04-28T13:29:45Z</time>
      </trkpt>
      <trkpt lat="43.283333" lon="-4.237617">
        <ele>542.0</ele>
        <time>2015-04-28T13:29:46Z</time>
      </trkpt>
      <trkpt lat="43.283283" lon="-4.237567">
        <ele>543.0</ele>
        <time>2015-04-28T13:29:47Z</time>
      </trkpt>
      <trkpt lat="43.283250" lon="-4.237533">
        <ele>544.0</ele>
        <time>2015-04-28T13:29:48Z</time>
      </trkpt>
      <trkpt lat="43.283200" lon="-4.237517">
        <ele>545.0</ele>
        <time>2015-04-28T13:29:49Z</time>
      </trkpt>
      <trkpt lat="43.283167" lon="-4.237500">
        <ele>545.0</ele>
        <time>2015-04-28T13:29:50Z</time>
      </trkpt>
      <trkpt lat="43.283133" lon="-4.237467">
        <ele>545.0</ele>
        <time>2015-04-28T13:29:51Z</time>
      </trkpt>
      <trkpt lat="43.283100" lon="-4.237400">
        <ele>544.0</ele>
        <time>2015-04-28T13:29:52Z</time>
      </trkpt>
      <trkpt lat="43.283100" lon="-4.237350">
        <ele>545.0</ele>
        <time>2015-04-28T13:29:53Z</time>
      </trkpt>
      <trkpt lat="43.283100" lon="-4.237283">
        <ele>545.0</ele>
        <time>2015-04-28T13:29:54Z</time>
      </trkpt>
      <trkpt lat="43.283083" lon="-4.237250">
        <ele>546.0</ele>
        <time>2015-04-28T13:29:55Z</time>
      </trkpt>
      <trkpt lat="43.283067" lon="-4.237200">
        <ele>547.0</ele>
        <time>2015-04-28T13:29:56Z</time>
      </trkpt>
      <trkpt lat="43.283067" lon="-4.237183">
        <ele>547.0</ele>
        <time>2015-04-28T13:29:57Z</time>
      </trkpt>
      <trkpt lat="43.283067" lon="-4.237183">
        <ele>548.0</ele>
        <time>2015-04-28T13:29:58Z</time>
      </trkpt>
      <trkpt lat="43.283083" lon="-4.237200">
        <ele>548.0</ele>
        <time>2015-04-28T13:29:59Z</time>
      </trkpt>
      <trkpt lat="43.283100" lon="-4.237233">
        <ele>548.0</ele>
        <time>2015-04-28T13:30:00Z</time>
      </trkpt>
      <trkpt lat="43.283133" lon="-4.237267">
        <ele>548.0</ele>
        <time>2015-04-28T13:30:01Z</time>
      </trkpt>
      <trkpt lat="43.283150" lon="-4.237317">
        <ele>548.0</ele>
        <time>2015-04-28T13:30:02Z</time>
      </trkpt>
      <trkpt lat="43.283183" lon="-4.237383">
        <ele>547.0</ele>
        <time>2015-04-28T13:30:03Z</time>
      </trkpt>
      <trkpt lat="43.283200" lon="-4.237450">
        <ele>547.0</ele>
        <time>2015-04-28T13:30:04Z</time>
      </trkpt>
      <trkpt lat="43.283233" lon="-4.237550">
        <ele>546.0</ele>
        <time>2015-04-28T13:30:05Z</time>
      </trkpt>
      <trkpt lat="43.283267" lon="-4.237650">
        <ele>546.0</ele>
        <time>2015-04-28T13:30:06Z</time>
      </trkpt>
      <trkpt lat="43.283283" lon="-4.237783">
        <ele>546.0</ele>
        <time>2015-04-28T13:30:07Z</time>
      </trkpt>
      <trkpt lat="43.283267" lon="-4.237933">
        <ele>546.0</ele>
        <time>2015-04-28T13:30:08Z</time>
      </trkpt>
      <trkpt lat="43.283250" lon="-4.238083">
        <ele>547.0</ele>
        <time>2015-04-28T13:30:09Z</time>
      </trkpt>
      <trkpt lat="43.283233" lon="-4.238233">
        <ele>547.0</ele>
        <time>2015-04-28T13:30:10Z</time>
      </trkpt>
      <trkpt lat="43.283217" lon="-4.238383">
        <ele>547.0</ele>
        <time>2015-04-28T13:30:11Z</time>
      </trkpt>
      <trkpt lat="43.283183" lon="-4.238533">
        <ele>547.0</ele>
        <time>2015-04-28T13:30:12Z</time>
      </trkpt>
      <trkpt lat="43.283150" lon="-4.238683">
        <ele>547.0</ele>
        <time>2015-04-28T13:30:13Z</time>
      </trkpt>
      <trkpt lat="43.283117" lon="-4.238850">
        <ele>548.0</ele>
        <time>2015-04-28T13:30:14Z</time>
      </trkpt>
      <trkpt lat="43.283083" lon="-4.239000">
        <ele>548.0</ele>
        <time>2015-04-28T13:30:15Z</time>
      </trkpt>
      <trkpt lat="43.283050" lon="-4.239167">
        <ele>548.0</ele>
        <time>2015-04-28T13:30:16Z</time>
      </trkpt>
      <trkpt lat="43.283017" lon="-4.239333">
        <ele>548.0</ele>
        <time>2015-04-28T13:30:17Z</time>
      </trkpt>
      <trkpt lat="43.282967" lon="-4.239483">
        <ele>548.0</ele>
        <time>2015-04-28T13:30:18Z</time>
      </trkpt>
      <trkpt lat="43.282933" lon="-4.239650">
        <ele>548.0</ele>
        <time>2015-04-28T13:30:19Z</time>
      </trkpt>
      <trkpt lat="43.282883" lon="-4.239817">
        <ele>549.0</ele>
        <time>2015-04-28T13:30:20Z</time>
      </trkpt>
      <trkpt lat="43.282833" lon="-4.239967">
        <ele>550.0</ele>
        <time>2015-04-28T13:30:21Z</time>
      </trkpt>
      <trkpt lat="43.282767" lon="-4.240117">
        <ele>551.0</ele>
        <time>2015-04-28T13:30:22Z</time>
      </trkpt>
      <trkpt lat="43.282700" lon="-4.240250">
        <ele>551.0</ele>
        <time>2015-04-28T13:30:23Z</time>
      </trkpt>
      <trkpt lat="43.282600" lon="-4.240367">
        <ele>552.0</ele>
        <time>2015-04-28T13:30:24Z</time>
      </trkpt>
      <trkpt lat="43.282500" lon="-4.240450">
        <ele>554.0</ele>
        <time>2015-04-28T13:30:25Z</time>
      </trkpt>
      <trkpt lat="43.282417" lon="-4.240517">
        <ele>555.0</ele>
        <time>2015-04-28T13:30:26Z</time>
      </trkpt>
      <trkpt lat="43.282317" lon="-4.240583">
        <ele>556.0</ele>
        <time>2015-04-28T13:30:27Z</time>
      </trkpt>
      <trkpt lat="43.282217" lon="-4.240617">
        <ele>556.0</ele>
        <time>2015-04-28T13:30:28Z</time>
      </trkpt>
      <trkpt lat="43.282117" lon="-4.240650">
        <ele>557.0</ele>
        <time>2015-04-28T13:30:29Z</time>
      </trkpt>
      <trkpt lat="43.282033" lon="-4.240667">
        <ele>558.0</ele>
        <time>2015-04-28T13:30:30Z</time>
      </trkpt>
      <trkpt lat="43.281950" lon="-4.240650">
        <ele>558.0</ele>
        <time>2015-04-28T13:30:31Z</time>
      </trkpt>
      <trkpt lat="43.281883" lon="-4.240633">
        <ele>559.0</ele>
        <time>2015-04-28T13:30:32Z</time>
      </trkpt>
      <trkpt lat="43.281833" lon="-4.240583">
        <ele>560.0</ele>
        <time>2015-04-28T13:30:33Z</time>
      </trkpt>
      <trkpt lat="43.281783" lon="-4.240533">
        <ele>561.0</ele>
        <time>2015-04-28T13:30:34Z</time>
      </trkpt>
      <trkpt lat="43.281767" lon="-4.240500">
        <ele>562.0</ele>
        <time>2015-04-28T13:30:35Z</time>
      </trkpt>
      <trkpt lat="43.281750" lon="-4.240467">
        <ele>563.0</ele>
        <time>2015-04-28T13:30:36Z</time>
      </trkpt>
      <trkpt lat="43.281750" lon="-4.240450">
        <ele>562.0</ele>
        <time>2015-04-28T13:30:37Z</time>
      </trkpt>
      <trkpt lat="43.281750" lon="-4.240433">
        <ele>563.0</ele>
        <time>2015-04-28T13:30:38Z</time>
      </trkpt>
      <trkpt lat="43.281767" lon="-4.240417">
        <ele>563.0</ele>
        <time>2015-04-28T13:30:39Z</time>
      </trkpt>
      <trkpt lat="43.281783" lon="-4.240417">
        <ele>564.0</ele>
        <time>2015-04-28T13:30:40Z</time>
      </trkpt>
      <trkpt lat="43.281800" lon="-4.240417">
        <ele>564.0</ele>
        <time>2015-04-28T13:30:41Z</time>
      </trkpt>
      <trkpt lat="43.281833" lon="-4.240450">
        <ele>565.0</ele>
        <time>2015-04-28T13:30:42Z</time>
      </trkpt>
      <trkpt lat="43.281850" lon="-4.240483">
        <ele>566.0</ele>
        <time>2015-04-28T13:30:43Z</time>
      </trkpt>
      <trkpt lat="43.281867" lon="-4.240533">
        <ele>566.0</ele>
        <time>2015-04-28T13:30:44Z</time>
      </trkpt>
      <trkpt lat="43.281883" lon="-4.240583">
        <ele>566.0</ele>
        <time>2015-04-28T13:30:45Z</time>
      </trkpt>
      <trkpt lat="43.281917" lon="-4.240650">
        <ele>566.0</ele>
        <time>2015-04-28T13:30:46Z</time>
      </trkpt>
      <trkpt lat="43.281950" lon="-4.240750">
        <ele>565.0</ele>
        <time>2015-04-28T13:30:47Z</time>
      </trkpt>
      <trkpt lat="43.281967" lon="-4.240850">
        <ele>565.0</ele>
        <time>2015-04-28T13:30:48Z</time>
      </trkpt>
      <trkpt lat="43.281967" lon="-4.240983">
        <ele>565.0</ele>
        <time>2015-04-28T13:30:49Z</time>
      </trkpt>
      <trkpt lat="43.281967" lon="-4.241133">
        <ele>566.0</ele>
        <time>2015-04-28T13:30:50Z</time>
      </trkpt>
      <trkpt lat="43.281933" lon="-4.241283">
        <ele>566.0</ele>
        <time>2015-04-28T13:30:51Z</time>
      </trkpt>
      <trkpt lat="43.281900" lon="-4.241433">
        <ele>565.0</ele>
        <time>2015-04-28T13:30:52Z</time>
      </trkpt>
      <trkpt lat="43.281833" lon="-4.241567">
        <ele>565.0</ele>
        <time>2015-04-28T13:30:53Z</time>
      </trkpt>
      <trkpt lat="43.281750" lon="-4.241700">
        <ele>564.0</ele>
        <time>2015-04-28T13:30:54Z</time>
      </trkpt>
      <trkpt lat="43.281650" lon="-4.241817">
        <ele>564.0</ele>
        <time>2015-04-28T13:30:55Z</time>
      </trkpt>
      <trkpt lat="43.281550" lon="-4.241917">
        <ele>564.0</ele>
        <time>2015-04-28T13:30:56Z</time>
      </trkpt>
      <trkpt lat="43.281467" lon="-4.242050">
        <ele>563.0</ele>
        <time>2015-04-28T13:30:57Z</time>
      </trkpt>
      <trkpt lat="43.281400" lon="-4.242217">
        <ele>563.0</ele>
        <time>2015-04-28T13:30:58Z</time>
      </trkpt>
      <trkpt lat="43.281350" lon="-4.242383">
        <ele>563.0</ele>
        <time>2015-04-28T13:30:59Z</time>
      </trkpt>
      <trkpt lat="43.281317" lon="-4.242567">
        <ele>563.0</ele>
        <time>2015-04-28T13:31:00Z</time>
      </trkpt>
      <trkpt lat="43.281283" lon="-4.242717">
        <ele>562.0</ele>
        <time>2015-04-28T13:31:01Z</time>
      </trkpt>
      <trkpt lat="43.281250" lon="-4.242883">
        <ele>562.0</ele>
        <time>2015-04-28T13:31:02Z</time>
      </trkpt>
      <trkpt lat="43.281217" lon="-4.243033">
        <ele>561.0</ele>
        <time>2015-04-28T13:31:03Z</time>
      </trkpt>
      <trkpt lat="43.281183" lon="-4.243200">
        <ele>560.0</ele>
        <time>2015-04-28T13:31:04Z</time>
      </trkpt>
      <trkpt lat="43.281150" lon="-4.243417">
        <ele>558.0</ele>
        <time>2015-04-28T13:31:05Z</time>
      </trkpt>
      <trkpt lat="43.281117" lon="-4.243600">
        <ele>557.0</ele>
        <time>2015-04-28T13:31:06Z</time>
      </trkpt>
      <trkpt lat="43.281083" lon="-4.243800">
        <ele>557.0</ele>
        <time>2015-04-28T13:31:07Z</time>
      </trkpt>
      <trkpt lat="43.281083" lon="-4.243950">
        <ele>556.0</ele>
        <time>2015-04-28T13:31:08Z</time>
      </trkpt>
      <trkpt lat="43.281067" lon="-4.244117">
        <ele>556.0</ele>
        <time>2015-04-28T13:31:09Z</time>
      </trkpt>
      <trkpt lat="43.281050" lon="-4.244267">
        <ele>555.0</ele>
        <time>2015-04-28T13:31:10Z</time>
      </trkpt>
      <trkpt lat="43.281033" lon="-4.244433">
        <ele>553.0</ele>
        <time>2015-04-28T13:31:11Z</time>
      </trkpt>
      <trkpt lat="43.281017" lon="-4.244617">
        <ele>552.0</ele>
        <time>2015-04-28T13:31:12Z</time>
      </trkpt>
      <trkpt lat="43.281017" lon="-4.244800">
        <ele>551.0</ele>
        <time>2015-04-28T13:31:13Z</time>
      </trkpt>
      <trkpt lat="43.281000" lon="-4.244983">
        <ele>550.0</ele>
        <time>2015-04-28T13:31:14Z</time>
      </trkpt>
      <trkpt lat="43.280967" lon="-4.245117">
        <ele>550.0</ele>
        <time>2015-04-28T13:31:15Z</time>
      </trkpt>
      <trkpt lat="43.280933" lon="-4.245267">
        <ele>551.0</ele>
        <time>2015-04-28T13:31:16Z</time>
      </trkpt>
      <trkpt lat="43.280917" lon="-4.245417">
        <ele>550.0</ele>
        <time>2015-04-28T13:31:17Z</time>
      </trkpt>
      <trkpt lat="43.280900" lon="-4.245583">
        <ele>548.0</ele>
        <time>2015-04-28T13:31:18Z</time>
      </trkpt>
      <trkpt lat="43.280883" lon="-4.245750">
        <ele>547.0</ele>
        <time>2015-04-28T13:31:19Z</time>
      </trkpt>
      <trkpt lat="43.280850" lon="-4.245917">
        <ele>546.0</ele>
        <time>2015-04-28T13:31:20Z</time>
      </trkpt>
      <trkpt lat="43.280833" lon="-4.246083">
        <ele>545.0</ele>
        <time>2015-04-28T13:31:21Z</time>
      </trkpt>
      <trkpt lat="43.280783" lon="-4.246200">
        <ele>545.0</ele>
        <time>2015-04-28T13:31:22Z</time>
      </trkpt>
      <trkpt lat="43.280733" lon="-4.246333">
        <ele>544.0</ele>
        <time>2015-04-28T13:31:23Z</time>
      </trkpt>
      <trkpt lat="43.280683" lon="-4.246500">
        <ele>543.0</ele>
        <time>2015-04-28T13:31:24Z</time>
      </trkpt>
      <trkpt lat="43.280633" lon="-4.246667">
        <ele>542.0</ele>
        <time>2015-04-28T13:31:25Z</time>
      </trkpt>
      <trkpt lat="43.280567" lon="-4.246833">
        <ele>541.0</ele>
        <time>2015-04-28T13:31:26Z</time>
      </trkpt>
      <trkpt lat="43.280533" lon="-4.247000">
        <ele>544.0</ele>
        <time>2015-04-28T13:31:27Z</time>
      </trkpt>
      <trkpt lat="43.280500" lon="-4.247133">
        <ele>543.0</ele>
        <time>2015-04-28T13:31:28Z</time>
      </trkpt>
      <trkpt lat="43.280450" lon="-4.247267">
        <ele>542.0</ele>
        <time>2015-04-28T13:31:29Z</time>
      </trkpt>
      <trkpt lat="43.280383" lon="-4.247417">
        <ele>541.0</ele>
        <time>2015-04-28T13:31:30Z</time>
      </trkpt>
      <trkpt lat="43.280300" lon="-4.247567">
        <ele>539.0</ele>
        <time>2015-04-28T13:31:31Z</time>
      </trkpt>
      <trkpt lat="43.280233" lon="-4.247717">
        <ele>537.0</ele>
        <time>2015-04-28T13:31:32Z</time>
      </trkpt>
      <trkpt lat="43.280150" lon="-4.247850">
        <ele>536.0</ele>
        <time>2015-04-28T13:31:33Z</time>
      </trkpt>
      <trkpt lat="43.280083" lon="-4.248000">
        <ele>535.0</ele>
        <time>2015-04-28T13:31:34Z</time>
      </trkpt>
      <trkpt lat="43.280017" lon="-4.248133">
        <ele>533.0</ele>
        <time>2015-04-28T13:31:35Z</time>
      </trkpt>
      <trkpt lat="43.279933" lon="-4.248283">
        <ele>531.0</ele>
        <time>2015-04-28T13:31:36Z</time>
      </trkpt>
      <trkpt lat="43.279850" lon="-4.248450">
        <ele>530.0</ele>
        <time>2015-04-28T13:31:37Z</time>
      </trkpt>
      <trkpt lat="43.279767" lon="-4.248600">
        <ele>529.0</ele>
        <time>2015-04-28T13:31:38Z</time>
      </trkpt>
      <trkpt lat="43.279683" lon="-4.248750">
        <ele>529.0</ele>
        <time>2015-04-28T13:31:39Z</time>
      </trkpt>
      <trkpt lat="43.279617" lon="-4.248900">
        <ele>529.0</ele>
        <time>2015-04-28T13:31:40Z</time>
      </trkpt>
      <trkpt lat="43.279533" lon="-4.249033">
        <ele>529.0</ele>
        <time>2015-04-28T13:31:41Z</time>
      </trkpt>
      <trkpt lat="43.279467" lon="-4.249167">
        <ele>528.0</ele>
        <time>2015-04-28T13:31:42Z</time>
      </trkpt>
      <trkpt lat="43.279383" lon="-4.249333">
        <ele>527.0</ele>
        <time>2015-04-28T13:31:43Z</time>
      </trkpt>
      <trkpt lat="43.279317" lon="-4.249483">
        <ele>526.0</ele>
        <time>2015-04-28T13:31:44Z</time>
      </trkpt>
      <trkpt lat="43.279250" lon="-4.249650">
        <ele>526.0</ele>
        <time>2015-04-28T13:31:45Z</time>
      </trkpt>
      <trkpt lat="43.279183" lon="-4.249833">
        <ele>526.0</ele>
        <time>2015-04-28T13:31:46Z</time>
      </trkpt>
      <trkpt lat="43.279133" lon="-4.250000">
        <ele>529.0</ele>
        <time>2015-04-28T13:31:47Z</time>
      </trkpt>
      <trkpt lat="43.279083" lon="-4.250167">
        <ele>531.0</ele>
        <time>2015-04-28T13:31:48Z</time>
      </trkpt>
      <trkpt lat="43.279033" lon="-4.250317">
        <ele>531.0</ele>
        <time>2015-04-28T13:31:49Z</time>
      </trkpt>
      <trkpt lat="43.278983" lon="-4.250467">
        <ele>532.0</ele>
        <time>2015-04-28T13:31:50Z</time>
      </trkpt>
      <trkpt lat="43.278950" lon="-4.250617">
        <ele>532.0</ele>
        <time>2015-04-28T13:31:51Z</time>
      </trkpt>
      <trkpt lat="43.278917" lon="-4.250767">
        <ele>532.0</ele>
        <time>2015-04-28T13:31:52Z</time>
      </trkpt>
      <trkpt lat="43.278883" lon="-4.250933">
        <ele>532.0</ele>
        <time>2015-04-28T13:31:53Z</time>
      </trkpt>
      <trkpt lat="43.278850" lon="-4.251100">
        <ele>532.0</ele>
        <time>2015-04-28T13:31:54Z</time>
      </trkpt>
      <trkpt lat="43.278817" lon="-4.251250">
        <ele>533.0</ele>
        <time>2015-04-28T13:31:55Z</time>
      </trkpt>
      <trkpt lat="43.278800" lon="-4.251400">
        <ele>534.0</ele>
        <time>2015-04-28T13:31:56Z</time>
      </trkpt>
      <trkpt lat="43.278767" lon="-4.251550">
        <ele>535.0</ele>
        <time>2015-04-28T13:31:57Z</time>
      </trkpt>
      <trkpt lat="43.278733" lon="-4.251700">
        <ele>535.0</ele>
        <time>2015-04-28T13:31:58Z</time>
      </trkpt>
      <trkpt lat="43.278700" lon="-4.251867">
        <ele>534.0</ele>
        <time>2015-04-28T13:31:59Z</time>
      </trkpt>
      <trkpt lat="43.278667" lon="-4.252033">
        <ele>534.0</ele>
        <time>2015-04-28T13:32:00Z</time>
      </trkpt>
      <trkpt lat="43.278617" lon="-4.252200">
        <ele>535.0</ele>
        <time>2015-04-28T13:32:01Z</time>
      </trkpt>
      <trkpt lat="43.278583" lon="-4.252350">
        <ele>535.0</ele>
        <time>2015-04-28T13:32:02Z</time>
      </trkpt>
      <trkpt lat="43.278550" lon="-4.252500">
        <ele>535.0</ele>
        <time>2015-04-28T13:32:03Z</time>
      </trkpt>
      <trkpt lat="43.278517" lon="-4.252650">
        <ele>535.0</ele>
        <time>2015-04-28T13:32:04Z</time>
      </trkpt>
      <trkpt lat="43.278483" lon="-4.252817">
        <ele>535.0</ele>
        <time>2015-04-28T13:32:05Z</time>
      </trkpt>
      <trkpt lat="43.278433" lon="-4.253000">
        <ele>534.0</ele>
        <time>2015-04-28T13:32:06Z</time>
      </trkpt>
      <trkpt lat="43.278383" lon="-4.253167">
        <ele>535.0</ele>
        <time>2015-04-28T13:32:07Z</time>
      </trkpt>
      <trkpt lat="43.278333" lon="-4.253333">
        <ele>536.0</ele>
        <time>2015-04-28T13:32:08Z</time>
      </trkpt>
      <trkpt lat="43.278283" lon="-4.253483">
        <ele>537.0</ele>
        <time>2015-04-28T13:32:09Z</time>
      </trkpt>
      <trkpt lat="43.278233" lon="-4.253650">
        <ele>538.0</ele>
        <time>2015-04-28T13:32:10Z</time>
      </trkpt>
      <trkpt lat="43.278183" lon="-4.253800">
        <ele>539.0</ele>
        <time>2015-04-28T13:32:11Z</time>
      </trkpt>
      <trkpt lat="43.278117" lon="-4.253967">
        <ele>540.0</ele>
        <time>2015-04-28T13:32:12Z</time>
      </trkpt>
      <trkpt lat="43.278067" lon="-4.254133">
        <ele>542.0</ele>
        <time>2015-04-28T13:32:13Z</time>
      </trkpt>
      <trkpt lat="43.278017" lon="-4.254283">
        <ele>545.0</ele>
        <time>2015-04-28T13:32:14Z</time>
      </trkpt>
      <trkpt lat="43.277983" lon="-4.254400">
        <ele>547.0</ele>
        <time>2015-04-28T13:32:15Z</time>
      </trkpt>
      <trkpt lat="43.277933" lon="-4.254517">
        <ele>549.0</ele>
        <time>2015-04-28T13:32:16Z</time>
      </trkpt>
      <trkpt lat="43.277883" lon="-4.254650">
        <ele>551.0</ele>
        <time>2015-04-28T13:32:17Z</time>
      </trkpt>
      <trkpt lat="43.277833" lon="-4.254783">
        <ele>552.0</ele>
        <time>2015-04-28T13:32:18Z</time>
      </trkpt>
      <trkpt lat="43.277800" lon="-4.254933">
        <ele>554.0</ele>
        <time>2015-04-28T13:32:19Z</time>
      </trkpt>
      <trkpt lat="43.277767" lon="-4.255067">
        <ele>556.0</ele>
        <time>2015-04-28T13:32:20Z</time>
      </trkpt>
      <trkpt lat="43.277750" lon="-4.255183">
        <ele>558.0</ele>
        <time>2015-04-28T13:32:21Z</time>
      </trkpt>
      <trkpt lat="43.277750" lon="-4.255300">
        <ele>561.0</ele>
        <time>2015-04-28T13:32:22Z</time>
      </trkpt>
      <trkpt lat="43.277767" lon="-4.255400">
        <ele>562.0</ele>
        <time>2015-04-28T13:32:23Z</time>
      </trkpt>
      <trkpt lat="43.277783" lon="-4.255483">
        <ele>560.0</ele>
        <time>2015-04-28T13:32:24Z</time>
      </trkpt>
      <trkpt lat="43.277800" lon="-4.255567">
        <ele>560.0</ele>
        <time>2015-04-28T13:32:25Z</time>
      </trkpt>
      <trkpt lat="43.277817" lon="-4.255633">
        <ele>561.0</ele>
        <time>2015-04-28T13:32:26Z</time>
      </trkpt>
      <trkpt lat="43.277833" lon="-4.255650">
        <ele>562.0</ele>
        <time>2015-04-28T13:32:27Z</time>
      </trkpt>
      <trkpt lat="43.277850" lon="-4.255633">
        <ele>563.0</ele>
        <time>2015-04-28T13:32:28Z</time>
      </trkpt>
      <trkpt lat="43.277850" lon="-4.255600">
        <ele>562.0</ele>
        <time>2015-04-28T13:32:29Z</time>
      </trkpt>
      <trkpt lat="43.277833" lon="-4.255550">
        <ele>563.0</ele>
        <time>2015-04-28T13:32:30Z</time>
      </trkpt>
      <trkpt lat="43.277817" lon="-4.255517">
        <ele>564.0</ele>
        <time>2015-04-28T13:32:31Z</time>
      </trkpt>
      <trkpt lat="43.277767" lon="-4.255450">
        <ele>564.0</ele>
        <time>2015-04-28T13:32:32Z</time>
      </trkpt>
      <trkpt lat="43.277683" lon="-4.255400">
        <ele>565.0</ele>
        <time>2015-04-28T13:32:33Z</time>
      </trkpt>
      <trkpt lat="43.277583" lon="-4.255367">
        <ele>565.0</ele>
        <time>2015-04-28T13:32:34Z</time>
      </trkpt>
      <trkpt lat="43.277467" lon="-4.255367">
        <ele>566.0</ele>
        <time>2015-04-28T13:32:35Z</time>
      </trkpt>
      <trkpt lat="43.277350" lon="-4.255417">
        <ele>567.0</ele>
        <time>2015-04-28T13:32:36Z</time>
      </trkpt>
      <trkpt lat="43.277233" lon="-4.255517">
        <ele>567.0</ele>
        <time>2015-04-28T13:32:37Z</time>
      </trkpt>
      <trkpt lat="43.277150" lon="-4.255633">
        <ele>568.0</ele>
        <time>2015-04-28T13:32:38Z</time>
      </trkpt>
      <trkpt lat="43.277083" lon="-4.255767">
        <ele>570.0</ele>
        <time>2015-04-28T13:32:39Z</time>
      </trkpt>
      <trkpt lat="43.277017" lon="-4.255917">
        <ele>573.0</ele>
        <time>2015-04-28T13:32:40Z</time>
      </trkpt>
      <trkpt lat="43.276983" lon="-4.256067">
        <ele>577.0</ele>
        <time>2015-04-28T13:32:41Z</time>
      </trkpt>
      <trkpt lat="43.276950" lon="-4.256200">
        <ele>580.0</ele>
        <time>2015-04-28T13:32:42Z</time>
      </trkpt>
      <trkpt lat="43.276933" lon="-4.256317">
        <ele>583.0</ele>
        <time>2015-04-28T13:32:43Z</time>
      </trkpt>
      <trkpt lat="43.276917" lon="-4.256433">
        <ele>585.0</ele>
        <time>2015-04-28T13:32:44Z</time>
      </trkpt>
      <trkpt lat="43.276933" lon="-4.256550">
        <ele>587.0</ele>
        <time>2015-04-28T13:32:45Z</time>
      </trkpt>
      <trkpt lat="43.276933" lon="-4.256650">
        <ele>590.0</ele>
        <time>2015-04-28T13:32:46Z</time>
      </trkpt>
      <trkpt lat="43.276950" lon="-4.256700">
        <ele>588.0</ele>
        <time>2015-04-28T13:32:47Z</time>
      </trkpt>
      <trkpt lat="43.276967" lon="-4.256767">
        <ele>590.0</ele>
        <time>2015-04-28T13:32:48Z</time>
      </trkpt>
      <trkpt lat="43.276983" lon="-4.256833">
        <ele>593.0</ele>
        <time>2015-04-28T13:32:49Z</time>
      </trkpt>
      <trkpt lat="43.277000" lon="-4.256867">
        <ele>595.0</ele>
        <time>2015-04-28T13:32:50Z</time>
      </trkpt>
      <trkpt lat="43.277017" lon="-4.256883">
        <ele>597.0</ele>
        <time>2015-04-28T13:32:51Z</time>
      </trkpt>
      <trkpt lat="43.277033" lon="-4.256867">
        <ele>599.0</ele>
        <time>2015-04-28T13:32:52Z</time>
      </trkpt>
      <trkpt lat="43.277033" lon="-4.256850">
        <ele>601.0</ele>
        <time>2015-04-28T13:32:53Z</time>
      </trkpt>
      <trkpt lat="43.277033" lon="-4.256817">
        <ele>603.0</ele>
        <time>2015-04-28T13:32:54Z</time>
      </trkpt>
      <trkpt lat="43.277017" lon="-4.256783">
        <ele>605.0</ele>
        <time>2015-04-28T13:32:55Z</time>
      </trkpt>
      <trkpt lat="43.276967" lon="-4.256733">
        <ele>602.0</ele>
        <time>2015-04-28T13:32:56Z</time>
      </trkpt>
      <trkpt lat="43.276917" lon="-4.256683">
        <ele>604.0</ele>
        <time>2015-04-28T13:32:57Z</time>
      </trkpt>
      <trkpt lat="43.276867" lon="-4.256633">
        <ele>607.0</ele>
        <time>2015-04-28T13:32:58Z</time>
      </trkpt>
      <trkpt lat="43.276833" lon="-4.256600">
        <ele>610.0</ele>
        <time>2015-04-28T13:32:59Z</time>
      </trkpt>
      <trkpt lat="43.276833" lon="-4.256600">
        <ele>612.0</ele>
        <time>2015-04-28T13:33:00Z</time>
      </trkpt>
      <trkpt lat="43.276833" lon="-4.256583">
        <ele>614.0</ele>
        <time>2015-04-28T13:33:01Z</time>
      </trkpt>
      <trkpt lat="43.276850" lon="-4.256583">
        <ele>615.0</ele>
        <time>2015-04-28T13:33:02Z</time>
      </trkpt>
      <trkpt lat="43.276867" lon="-4.256583">
        <ele>618.0</ele>
        <time>2015-04-28T13:33:03Z</time>
      </trkpt>
      <trkpt lat="43.276900" lon="-4.256600">
        <ele>617.0</ele>
        <time>2015-04-28T13:33:04Z</time>
      </trkpt>
      <trkpt lat="43.276933" lon="-4.256617">
        <ele>617.0</ele>
        <time>2015-04-28T13:33:05Z</time>
      </trkpt>
      <trkpt lat="43.276950" lon="-4.256633">
        <ele>617.0</ele>
        <time>2015-04-28T13:33:06Z</time>
      </trkpt>
      <trkpt lat="43.276967" lon="-4.256650">
        <ele>618.0</ele>
        <time>2015-04-28T13:33:07Z</time>
      </trkpt>
      <trkpt lat="43.276983" lon="-4.256667">
        <ele>618.0</ele>
        <time>2015-04-28T13:33:08Z</time>
      </trkpt>
      <trkpt lat="43.277000" lon="-4.256683">
        <ele>619.0</ele>
        <time>2015-04-28T13:33:09Z</time>
      </trkpt>
      <trkpt lat="43.277033" lon="-4.256717">
        <ele>619.0</ele>
        <time>2015-04-28T13:33:10Z</time>
      </trkpt>
      <trkpt lat="43.277050" lon="-4.256767">
        <ele>621.0</ele>
        <time>2015-04-28T13:33:11Z</time>
      </trkpt>
      <trkpt lat="43.277083" lon="-4.256800">
        <ele>623.0</ele>
        <time>2015-04-28T13:33:12Z</time>
      </trkpt>
      <trkpt lat="43.277117" lon="-4.256833">
        <ele>626.0</ele>
        <time>2015-04-28T13:33:13Z</time>
      </trkpt>
      <trkpt lat="43.277150" lon="-4.256867">
        <ele>627.0</ele>
        <time>2015-04-28T13:33:14Z</time>
      </trkpt>
      <trkpt lat="43.277183" lon="-4.256883">
        <ele>628.0</ele>
        <time>2015-04-28T13:33:15Z</time>
      </trkpt>
      <trkpt lat="43.277217" lon="-4.256900">
        <ele>630.0</ele>
        <time>2015-04-28T13:33:16Z</time>
      </trkpt>
      <trkpt lat="43.277250" lon="-4.256933">
        <ele>632.0</ele>
        <time>2015-04-28T13:33:17Z</time>
      </trkpt>
      <trkpt lat="43.277300" lon="-4.256967">
        <ele>634.0</ele>
        <time>2015-04-28T13:33:18Z</time>
      </trkpt>
      <trkpt lat="43.277333" lon="-4.256983">
        <ele>637.0</ele>
        <time>2015-04-28T13:33:19Z</time>
      </trkpt>
      <trkpt lat="43.277350" lon="-4.257017">
        <ele>636.0</ele>
        <time>2015-04-28T13:33:20Z</time>
      </trkpt>
      <trkpt lat="43.277350" lon="-4.257050">
        <ele>638.0</ele>
        <time>2015-04-28T13:33:21Z</time>
      </trkpt>
      <trkpt lat="43.277367" lon="-4.257083">
        <ele>639.0</ele>
        <time>2015-04-28T13:33:22Z</time>
      </trkpt>
      <trkpt lat="43.277383" lon="-4.257150">
        <ele>640.0</ele>
        <time>2015-04-28T13:33:23Z</time>
      </trkpt>
      <trkpt lat="43.277400" lon="-4.257217">
        <ele>641.0</ele>
        <time>2015-04-28T13:33:24Z</time>
      </trkpt>
      <trkpt lat="43.277417" lon="-4.257283">
        <ele>643.0</ele>
        <time>2015-04-28T13:33:25Z</time>
      </trkpt>
      <trkpt lat="43.277417" lon="-4.257383">
        <ele>645.0</ele>
        <time>2015-04-28T13:33:26Z</time>
      </trkpt>
      <trkpt lat="43.277417" lon="-4.257500">
        <ele>646.0</ele>
        <time>2015-04-28T13:33:27Z</time>
      </trkpt>
      <trkpt lat="43.277400" lon="-4.257633">
        <ele>647.0</ele>
        <time>2015-04-28T13:33:28Z</time>
      </trkpt>
      <trkpt lat="43.277350" lon="-4.257800">
        <ele>647.0</ele>
        <time>2015-04-28T13:33:29Z</time>
      </trkpt>
      <trkpt lat="43.277283" lon="-4.257950">
        <ele>648.0</ele>
        <time>2015-04-28T13:33:30Z</time>
      </trkpt>
      <trkpt lat="43.277183" lon="-4.258067">
        <ele>649.0</ele>
        <time>2015-04-28T13:33:31Z</time>
      </trkpt>
      <trkpt lat="43.277083" lon="-4.258183">
        <ele>650.0</ele>
        <time>2015-04-28T13:33:32Z</time>
      </trkpt>
      <trkpt lat="43.277017" lon="-4.258300">
        <ele>651.0</ele>
        <time>2015-04-28T13:33:33Z</time>
      </trkpt>
      <trkpt lat="43.276950" lon="-4.258433">
        <ele>652.0</ele>
        <time>2015-04-28T13:33:34Z</time>
      </trkpt>
      <trkpt lat="43.276917" lon="-4.258583">
        <ele>652.0</ele>
        <time>2015-04-28T13:33:35Z</time>
      </trkpt>
      <trkpt lat="43.276883" lon="-4.258733">
        <ele>654.0</ele>
        <time>2015-04-28T13:33:36Z</time>
      </trkpt>
      <trkpt lat="43.276867" lon="-4.258850">
        <ele>655.0</ele>
        <time>2015-04-28T13:33:37Z</time>
      </trkpt>
      <trkpt lat="43.276867" lon="-4.258950">
        <ele>654.0</ele>
        <time>2015-04-28T13:33:38Z</time>
      </trkpt>
      <trkpt lat="43.276883" lon="-4.259033">
        <ele>655.0</ele>
        <time>2015-04-28T13:33:39Z</time>
      </trkpt>
      <trkpt lat="43.276900" lon="-4.259067">
        <ele>655.0</ele>
        <time>2015-04-28T13:33:40Z</time>
      </trkpt>
      <trkpt lat="43.276933" lon="-4.259100">
        <ele>655.0</ele>
        <time>2015-04-28T13:33:41Z</time>
      </trkpt>
      <trkpt lat="43.276967" lon="-4.259133">
        <ele>656.0</ele>
        <time>2015-04-28T13:33:42Z</time>
      </trkpt>
      <trkpt lat="43.277017" lon="-4.259183">
        <ele>656.0</ele>
        <time>2015-04-28T13:33:43Z</time>
      </trkpt>
      <trkpt lat="43.277067" lon="-4.259250">
        <ele>657.0</ele>
        <time>2015-04-28T13:33:44Z</time>
      </trkpt>
      <trkpt lat="43.277100" lon="-4.259333">
        <ele>657.0</ele>
        <time>2015-04-28T13:33:45Z</time>
      </trkpt>
      <trkpt lat="43.277150" lon="-4.259367">
        <ele>657.0</ele>
        <time>2015-04-28T13:33:46Z</time>
      </trkpt>
      <trkpt lat="43.277167" lon="-4.259383">
        <ele>658.0</ele>
        <time>2015-04-28T13:33:47Z</time>
      </trkpt>
      <trkpt lat="43.277183" lon="-4.259383">
        <ele>658.0</ele>
        <time>2015-04-28T13:33:48Z</time>
      </trkpt>
      <trkpt lat="43.277200" lon="-4.259367">
        <ele>658.0</ele>
        <time>2015-04-28T13:33:49Z</time>
      </trkpt>
      <trkpt lat="43.277183" lon="-4.259350">
        <ele>658.0</ele>
        <time>2015-04-28T13:33:50Z</time>
      </trkpt>
      <trkpt lat="43.277183" lon="-4.259317">
        <ele>659.0</ele>
        <time>2015-04-28T13:33:51Z</time>
      </trkpt>
      <trkpt lat="43.277167" lon="-4.259300">
        <ele>659.0</ele>
        <time>2015-04-28T13:33:52Z</time>
      </trkpt>
      <trkpt lat="43.277150" lon="-4.259250">
        <ele>659.0</ele>
        <time>2015-04-28T13:33:53Z</time>
      </trkpt>
      <trkpt lat="43.277133" lon="-4.259217">
        <ele>659.0</ele>
        <time>2015-04-28T13:33:54Z</time>
      </trkpt>
      <trkpt lat="43.277100" lon="-4.259150">
        <ele>660.0</ele>
        <time>2015-04-28T13:33:55Z</time>
      </trkpt>
      <trkpt lat="43.277067" lon="-4.259083">
        <ele>660.0</ele>
        <time>2015-04-28T13:33:56Z</time>
      </trkpt>
      <trkpt lat="43.277033" lon="-4.259033">
        <ele>660.0</ele>
        <time>2015-04-28T13:33:57Z</time>
      </trkpt>
      <trkpt lat="43.277000" lon="-4.259000">
        <ele>660.0</ele>
        <time>2015-04-28T13:33:58Z</time>
      </trkpt>
      <trkpt lat="43.276967" lon="-4.258950">
        <ele>661.0</ele>
        <time>2015-04-28T13:33:59Z</time>
      </trkpt>
      <trkpt lat="43.276950" lon="-4.258900">
        <ele>661.0</ele>
        <time>2015-04-28T13:34:00Z</time>
      </trkpt>
      <trkpt lat="43.276933" lon="-4.258867">
        <ele>661.0</ele>
        <time>2015-04-28T13:34:01Z</time>
      </trkpt>
      <trkpt lat="43.276933" lon="-4.258817">
        <ele>662.0</ele>
        <time>2015-04-28T13:34:02Z</time>
      </trkpt>
      <trkpt lat="43.276933" lon="-4.258800">
        <ele>662.0</ele>
        <time>2015-04-28T13:34:03Z</time>
      </trkpt>
      <trkpt lat="43.276917" lon="-4.258800">
        <ele>663.0</ele>
        <time>2015-04-28T13:34:04Z</time>
      </trkpt>
      <trkpt lat="43.276900" lon="-4.258767">
        <ele>664.0</ele>
        <time>2015-04-28T13:34:05Z</time>
      </trkpt>
      <trkpt lat="43.276883" lon="-4.258733">
        <ele>665.0</ele>
        <time>2015-04-28T13:34:06Z</time>
      </trkpt>
      <trkpt lat="43.276867" lon="-4.258700">
        <ele>666.0</ele>
        <time>2015-04-28T13:34:07Z</time>
      </trkpt>
      <trkpt lat="43.276850" lon="-4.258683">
        <ele>668.0</ele>
        <time>2015-04-28T13:34:08Z</time>
      </trkpt>
      <trkpt lat="43.276833" lon="-4.258667">
        <ele>668.0</ele>
        <time>2015-04-28T13:34:09Z</time>
      </trkpt>
      <trkpt lat="43.276833" lon="-4.258667">
        <ele>668.0</ele>
        <time>2015-04-28T13:34:10Z</time>
      </trkpt>
      <trkpt lat="43.276833" lon="-4.258650">
        <ele>669.0</ele>
        <time>2015-04-28T13:34:11Z</time>
      </trkpt>
      <trkpt lat="43.276833" lon="-4.258633">
        <ele>670.0</ele>
        <time>2015-04-28T13:34:12Z</time>
      </trkpt>
      <trkpt lat="43.276850" lon="-4.258650">
        <ele>671.0</ele>
        <time>2015-04-28T13:34:13Z</time>
      </trkpt>
      <trkpt lat="43.276867" lon="-4.258700">
        <ele>672.0</ele>
        <time>2015-04-28T13:34:14Z</time>
      </trkpt>
      <trkpt lat="43.276900" lon="-4.258767">
        <ele>673.0</ele>
        <time>2015-04-28T13:34:15Z</time>
      </trkpt>
      <trkpt lat="43.276917" lon="-4.258850">
        <ele>674.0</ele>
        <time>2015-04-28T13:34:16Z</time>
      </trkpt>
      <trkpt lat="43.276933" lon="-4.258950">
        <ele>675.0</ele>
        <time>2015-04-28T13:34:17Z</time>
      </trkpt>
      <trkpt lat="43.276983" lon="-4.259033">
        <ele>675.0</ele>
        <time>2015-04-28T13:34:18Z</time>
      </trkpt>
      <trkpt lat="43.277017" lon="-4.259117">
        <ele>676.0</ele>
        <time>2015-04-28T13:34:19Z</time>
      </trkpt>
      <trkpt lat="43.277067" lon="-4.259217">
        <ele>676.0</ele>
        <time>2015-04-28T13:34:20Z</time>
      </trkpt>
      <trkpt lat="43.277117" lon="-4.259300">
        <ele>676.0</ele>
        <time>2015-04-28T13:34:21Z</time>
      </trkpt>
      <trkpt lat="43.277150" lon="-4.259367">
        <ele>676.0</ele>
        <time>2015-04-28T13:34:22Z</time>
      </trkpt>
      <trkpt lat="43.277183" lon="-4.259433">
        <ele>677.0</ele>
        <time>2015-04-28T13:34:23Z</time>
      </trkpt>
      <trkpt lat="43.277217" lon="-4.259533">
        <ele>678.0</ele>
        <time>2015-04-28T13:34:24Z</time>
      </trkpt>
      <trkpt lat="43.277233" lon="-4.259650">
        <ele>678.0</ele>
        <time>2015-04-28T13:34:25Z</time>
      </trkpt>
      <trkpt lat="43.277250" lon="-4.259767">
        <ele>678.0</ele>
        <time>2015-04-28T13:34:26Z</time>
      </trkpt>
      <trkpt lat="43.277267" lon="-4.259883">
        <ele>679.0</ele>
        <time>2015-04-28T13:34:27Z</time>
      </trkpt>
      <trkpt lat="43.277283" lon="-4.260017">
        <ele>680.0</ele>
        <time>2015-04-28T13:34:28Z</time>
      </trkpt>
      <trkpt lat="43.277300" lon="-4.260150">
        <ele>681.0</ele>
        <time>2015-04-28T13:34:29Z</time>
      </trkpt>
      <trkpt lat="43.277283" lon="-4.260333">
        <ele>681.0</ele>
        <time>2015-04-28T13:34:30Z</time>
      </trkpt>
      <trkpt lat="43.277250" lon="-4.260500">
        <ele>683.0</ele>
        <time>2015-04-28T13:34:31Z</time>
      </trkpt>
      <trkpt lat="43.277217" lon="-4.260667">
        <ele>685.0</ele>
        <time>2015-04-28T13:34:32Z</time>
      </trkpt>
      <trkpt lat="43.277217" lon="-4.260817">
        <ele>687.0</ele>
        <time>2015-04-28T13:34:33Z</time>
      </trkpt>
      <trkpt lat="43.277217" lon="-4.260950">
        <ele>689.0</ele>
        <time>2015-04-28T13:34:34Z</time>
      </trkpt>
      <trkpt lat="43.277217" lon="-4.261067">
        <ele>691.0</ele>
        <time>2015-04-28T13:34:35Z</time>
      </trkpt>
      <trkpt lat="43.277233" lon="-4.261183">
        <ele>690.0</ele>
        <time>2015-04-28T13:34:36Z</time>
      </trkpt>
      <trkpt lat="43.277233" lon="-4.261300">
        <ele>691.0</ele>
        <time>2015-04-28T13:34:37Z</time>
      </trkpt>
      <trkpt lat="43.277233" lon="-4.261433">
        <ele>691.0</ele>
        <time>2015-04-28T13:34:38Z</time>
      </trkpt>
      <trkpt lat="43.277233" lon="-4.261567">
        <ele>692.0</ele>
        <time>2015-04-28T13:34:39Z</time>
      </trkpt>
      <trkpt lat="43.277233" lon="-4.261683">
        <ele>693.0</ele>
        <time>2015-04-28T13:34:40Z</time>
      </trkpt>
      <trkpt lat="43.277250" lon="-4.261783">
        <ele>694.0</ele>
        <time>2015-04-28T13:34:41Z</time>
      </trkpt>
      <trkpt lat="43.277267" lon="-4.261867">
        <ele>695.0</ele>
        <time>2015-04-28T13:34:42Z</time>
      </trkpt>
      <trkpt lat="43.277300" lon="-4.261900">
        <ele>696.0</ele>
        <time>2015-04-28T13:34:43Z</time>
      </trkpt>
      <trkpt lat="43.277317" lon="-4.261917">
        <ele>697.0</ele>
        <time>2015-04-28T13:34:44Z</time>
      </trkpt>
      <trkpt lat="43.277333" lon="-4.261933">
        <ele>699.0</ele>
        <time>2015-04-28T13:34:45Z</time>
      </trkpt>
      <trkpt lat="43.277350" lon="-4.261933">
        <ele>702.0</ele>
        <time>2015-04-28T13:34:46Z</time>
      </trkpt>
      <trkpt lat="43.277350" lon="-4.261950">
        <ele>704.0</ele>
        <time>2015-04-28T13:34:47Z</time>
      </trkpt>
      <trkpt lat="43.277350" lon="-4.261917">
        <ele>702.0</ele>
        <time>2015-04-28T13:34:48Z</time>
      </trkpt>
      <trkpt lat="43.277350" lon="-4.261883">
        <ele>703.0</ele>
        <time>2015-04-28T13:34:49Z</time>
      </trkpt>
      <trkpt lat="43.277350" lon="-4.261867">
        <ele>704.0</ele>
        <time>2015-04-28T13:34:50Z</time>
      </trkpt>
      <trkpt lat="43.277350" lon="-4.261867">
        <ele>704.0</ele>
        <time>2015-04-28T13:34:51Z</time>
      </trkpt>
      <trkpt lat="43.277367" lon="-4.261850">
        <ele>704.0</ele>
        <time>2015-04-28T13:34:52Z</time>
      </trkpt>
      <trkpt lat="43.277383" lon="-4.261850">
        <ele>705.0</ele>
        <time>2015-04-28T13:34:53Z</time>
      </trkpt>
      <trkpt lat="43.277400" lon="-4.261800">
        <ele>705.0</ele>
        <time>2015-04-28T13:34:54Z</time>
      </trkpt>
      <trkpt lat="43.277417" lon="-4.261783">
        <ele>705.0</ele>
        <time>2015-04-28T13:34:55Z</time>
      </trkpt>
      <trkpt lat="43.277433" lon="-4.261767">
        <ele>706.0</ele>
        <time>2015-04-28T13:34:56Z</time>
      </trkpt>
      <trkpt lat="43.277467" lon="-4.261783">
        <ele>706.0</ele>
        <time>2015-04-28T13:34:57Z</time>
      </trkpt>
      <trkpt lat="43.277517" lon="-4.261800">
        <ele>706.0</ele>
        <time>2015-04-28T13:34:58Z</time>
      </trkpt>
      <trkpt lat="43.277550" lon="-4.261817">
        <ele>707.0</ele>
        <time>2015-04-28T13:34:59Z</time>
      </trkpt>
      <trkpt lat="43.277583" lon="-4.261850">
        <ele>707.0</ele>
        <time>2015-04-28T13:35:00Z</time>
      </trkpt>
      <trkpt lat="43.277600" lon="-4.261883">
        <ele>707.0</ele>
        <time>2015-04-28T13:35:01Z</time>
      </trkpt>
      <trkpt lat="43.277633" lon="-4.262033">
        <ele>708.0</ele>
        <time>2015-04-28T13:35:02Z</time>
      </trkpt>
      <trkpt lat="43.277633" lon="-4.262183">
        <ele>708.0</ele>
        <time>2015-04-28T13:35:03Z</time>
      </trkpt>
      <trkpt lat="43.277650" lon="-4.262317">
        <ele>708.0</ele>
        <time>2015-04-28T13:35:04Z</time>
      </trkpt>
      <trkpt lat="43.277667" lon="-4.262400">
        <ele>709.0</ele>
        <time>2015-04-28T13:35:05Z</time>
      </trkpt>
      <trkpt lat="43.277683" lon="-4.262483">
        <ele>710.0</ele>
        <time>2015-04-28T13:35:06Z</time>
      </trkpt>
      <trkpt lat="43.277717" lon="-4.262550">
        <ele>710.0</ele>
        <time>2015-04-28T13:35:07Z</time>
      </trkpt>
      <trkpt lat="43.277733" lon="-4.262667">
        <ele>710.0</ele>
        <time>2015-04-28T13:35:08Z</time>
      </trkpt>
      <trkpt lat="43.277750" lon="-4.262783">
        <ele>711.0</ele>
        <time>2015-04-28T13:35:09Z</time>
      </trkpt>
      <trkpt lat="43.277767" lon="-4.262917">
        <ele>711.0</ele>
        <time>2015-04-28T13:35:10Z</time>
      </trkpt>
      <trkpt lat="43.277783" lon="-4.263033">
        <ele>711.0</ele>
        <time>2015-04-28T13:35:11Z</time>
      </trkpt>
      <trkpt lat="43.277817" lon="-4.263133">
        <ele>711.0</ele>
        <time>2015-04-28T13:35:12Z</time>
      </trkpt>
      <trkpt lat="43.277850" lon="-4.263217">
        <ele>712.0</ele>
        <time>2015-04-28T13:35:13Z</time>
      </trkpt>
      <trkpt lat="43.277883" lon="-4.263317">
        <ele>712.0</ele>
        <time>2015-04-28T13:35:14Z</time>
      </trkpt>
      <trkpt lat="43.277917" lon="-4.263433">
        <ele>712.0</ele>
        <time>2015-04-28T13:35:15Z</time>
      </trkpt>
      <trkpt lat="43.277950" lon="-4.263550">
        <ele>712.0</ele>
        <time>2015-04-28T13:35:16Z</time>
      </trkpt>
      <trkpt lat="43.278000" lon="-4.263633">
        <ele>712.0</ele>
        <time>2015-04-28T13:35:17Z</time>
      </trkpt>
      <trkpt lat="43.278033" lon="-4.263733">
        <ele>713.0</ele>
        <time>2015-04-28T13:35:18Z</time>
      </trkpt>
      <trkpt lat="43.278083" lon="-4.263833">
        <ele>713.0</ele>
        <time>2015-04-28T13:35:19Z</time>
      </trkpt>
      <trkpt lat="43.278117" lon="-4.263933">
        <ele>713.0</ele>
        <time>2015-04-28T13:35:20Z</time>
      </trkpt>
      <trkpt lat="43.278150" lon="-4.264033">
        <ele>713.0</ele>
        <time>2015-04-28T13:35:21Z</time>
      </trkpt>
      <trkpt lat="43.278183" lon="-4.264150">
        <ele>714.0</ele>
        <time>2015-04-28T13:35:22Z</time>
      </trkpt>
      <trkpt lat="43.278233" lon="-4.264250">
        <ele>714.0</ele>
        <time>2015-04-28T13:35:23Z</time>
      </trkpt>
      <trkpt lat="43.278267" lon="-4.264333">
        <ele>714.0</ele>
        <time>2015-04-28T13:35:24Z</time>
      </trkpt>
      <trkpt lat="43.278317" lon="-4.264433">
        <ele>714.0</ele>
        <time>2015-04-28T13:35:25Z</time>
      </trkpt>
      <trkpt lat="43.278350" lon="-4.264533">
        <ele>715.0</ele>
        <time>2015-04-28T13:35:26Z</time>
      </trkpt>
      <trkpt lat="43.278383" lon="-4.264600">
        <ele>715.0</ele>
        <time>2015-04-28T13:35:27Z</time>
      </trkpt>
      <trkpt lat="43.278417" lon="-4.264683">
        <ele>715.0</ele>
        <time>2015-04-28T13:35:28Z</time>
      </trkpt>
      <trkpt lat="43.278450" lon="-4.264750">
        <ele>716.0</ele>
        <time>2015-04-28T13:35:29Z</time>
      </trkpt>
      <trkpt lat="43.278467" lon="-4.264850">
        <ele>716.0</ele>
        <time>2015-04-28T13:35:30Z</time>
      </trkpt>
      <trkpt lat="43.278467" lon="-4.264950">
        <ele>717.0</ele>
        <time>2015-04-28T13:35:31Z</time>
      </trkpt>
      <trkpt lat="43.278483" lon="-4.265083">
        <ele>718.0</ele>
        <time>2015-04-28T13:35:32Z</time>
      </trkpt>
      <trkpt lat="43.278483" lon="-4.265233">
        <ele>718.0</ele>
        <time>2015-04-28T13:35:33Z</time>
      </trkpt>
      <trkpt lat="43.278467" lon="-4.265367">
        <ele>719.0</ele>
        <time>2015-04-28T13:35:34Z</time>
      </trkpt>
      <trkpt lat="43.278433" lon="-4.265517">
        <ele>719.0</ele>
        <time>2015-04-28T13:35:35Z</time>
      </trkpt>
      <trkpt lat="43.278383" lon="-4.265667">
        <ele>720.0</ele>
        <time>2015-04-28T13:35:36Z</time>
      </trkpt>
      <trkpt lat="43.278350" lon="-4.265817">
        <ele>722.0</ele>
        <time>2015-04-28T13:35:37Z</time>
      </trkpt>
      <trkpt lat="43.278300" lon="-4.265950">
        <ele>723.0</ele>
        <time>2015-04-28T13:35:38Z</time>
      </trkpt>
      <trkpt lat="43.278233" lon="-4.266067">
        <ele>724.0</ele>
        <time>2015-04-28T13:35:39Z</time>
      </trkpt>
      <trkpt lat="43.278150" lon="-4.266167">
        <ele>724.0</ele>
        <time>2015-04-28T13:35:40Z</time>
      </trkpt>
      <trkpt lat="43.278067" lon="-4.266267">
        <ele>724.0</ele>
        <time>2015-04-28T13:35:41Z</time>
      </trkpt>
      <trkpt lat="43.277967" lon="-4.266367">
        <ele>724.0</ele>
        <time>2015-04-28T13:35:42Z</time>
      </trkpt>
      <trkpt lat="43.277883" lon="-4.266450">
        <ele>724.0</ele>
        <time>2015-04-28T13:35:43Z</time>
      </trkpt>
      <trkpt lat="43.277783" lon="-4.266567">
        <ele>724.0</ele>
        <time>2015-04-28T13:35:44Z</time>
      </trkpt>
      <trkpt lat="43.277700" lon="-4.266717">
        <ele>724.0</ele>
        <time>2015-04-28T13:35:45Z</time>
      </trkpt>
      <trkpt lat="43.277633" lon="-4.266867">
        <ele>724.0</ele>
        <time>2015-04-28T13:35:46Z</time>
      </trkpt>
      <trkpt lat="43.277567" lon="-4.267017">
        <ele>724.0</ele>
        <time>2015-04-28T13:35:47Z</time>
      </trkpt>
      <trkpt lat="43.277517" lon="-4.267183">
        <ele>724.0</ele>
        <time>2015-04-28T13:35:48Z</time>
      </trkpt>
      <trkpt lat="43.277450" lon="-4.267350">
        <ele>723.0</ele>
        <time>2015-04-28T13:35:49Z</time>
      </trkpt>
      <trkpt lat="43.277383" lon="-4.267517">
        <ele>723.0</ele>
        <time>2015-04-28T13:35:50Z</time>
      </trkpt>
      <trkpt lat="43.277333" lon="-4.267683">
        <ele>723.0</ele>
        <time>2015-04-28T13:35:51Z</time>
      </trkpt>
      <trkpt lat="43.277283" lon="-4.267850">
        <ele>722.0</ele>
        <time>2015-04-28T13:35:52Z</time>
      </trkpt>
      <trkpt lat="43.277233" lon="-4.268017">
        <ele>722.0</ele>
        <time>2015-04-28T13:35:53Z</time>
      </trkpt>
      <trkpt lat="43.277183" lon="-4.268183">
        <ele>721.0</ele>
        <time>2015-04-28T13:35:54Z</time>
      </trkpt>
      <trkpt lat="43.277133" lon="-4.268367">
        <ele>720.0</ele>
        <time>2015-04-28T13:35:55Z</time>
      </trkpt>
      <trkpt lat="43.277067" lon="-4.268533">
        <ele>720.0</ele>
        <time>2015-04-28T13:35:56Z</time>
      </trkpt>
      <trkpt lat="43.277033" lon="-4.268700">
        <ele>721.0</ele>
        <time>2015-04-28T13:35:57Z</time>
      </trkpt>
      <trkpt lat="43.277017" lon="-4.268850">
        <ele>721.0</ele>
        <time>2015-04-28T13:35:58Z</time>
      </trkpt>
      <trkpt lat="43.277000" lon="-4.269000">
        <ele>720.0</ele>
        <time>2015-04-28T13:35:59Z</time>
      </trkpt>
      <trkpt lat="43.276983" lon="-4.269167">
        <ele>719.0</ele>
        <time>2015-04-28T13:36:00Z</time>
      </trkpt>
      <trkpt lat="43.276967" lon="-4.269350">
        <ele>718.0</ele>
        <time>2015-04-28T13:36:01Z</time>
      </trkpt>
      <trkpt lat="43.276933" lon="-4.269533">
        <ele>718.0</ele>
        <time>2015-04-28T13:36:02Z</time>
      </trkpt>
      <trkpt lat="43.276900" lon="-4.269700">
        <ele>718.0</ele>
        <time>2015-04-28T13:36:03Z</time>
      </trkpt>
      <trkpt lat="43.276883" lon="-4.269867">
        <ele>718.0</ele>
        <time>2015-04-28T13:36:04Z</time>
      </trkpt>
      <trkpt lat="43.276867" lon="-4.270033">
        <ele>717.0</ele>
        <time>2015-04-28T13:36:05Z</time>
      </trkpt>
      <trkpt lat="43.276850" lon="-4.270200">
        <ele>716.0</ele>
        <time>2015-04-28T13:36:06Z</time>
      </trkpt>
      <trkpt lat="43.276833" lon="-4.270367">
        <ele>716.0</ele>
        <time>2015-04-28T13:36:07Z</time>
      </trkpt>
      <trkpt lat="43.276817" lon="-4.270533">
        <ele>715.0</ele>
        <time>2015-04-28T13:36:08Z</time>
      </trkpt>
      <trkpt lat="43.276800" lon="-4.270717">
        <ele>714.0</ele>
        <time>2015-04-28T13:36:09Z</time>
      </trkpt>
      <trkpt lat="43.276783" lon="-4.270867">
        <ele>715.0</ele>
        <time>2015-04-28T13:36:10Z</time>
      </trkpt>
      <trkpt lat="43.276800" lon="-4.271000">
        <ele>714.0</ele>
        <time>2015-04-28T13:36:11Z</time>
      </trkpt>
      <trkpt lat="43.276800" lon="-4.271150">
        <ele>714.0</ele>
        <time>2015-04-28T13:36:12Z</time>
      </trkpt>
      <trkpt lat="43.276817" lon="-4.271300">
        <ele>713.0</ele>
        <time>2015-04-28T13:36:13Z</time>
      </trkpt>
      <trkpt lat="43.276817" lon="-4.271467">
        <ele>712.0</ele>
        <time>2015-04-28T13:36:14Z</time>
      </trkpt>
      <trkpt lat="43.276800" lon="-4.271633">
        <ele>713.0</ele>
        <time>2015-04-28T13:36:15Z</time>
      </trkpt>
      <trkpt lat="43.276800" lon="-4.271783">
        <ele>714.0</ele>
        <time>2015-04-28T13:36:16Z</time>
      </trkpt>
      <trkpt lat="43.276783" lon="-4.271917">
        <ele>714.0</ele>
        <time>2015-04-28T13:36:17Z</time>
      </trkpt>
      <trkpt lat="43.276783" lon="-4.272050">
        <ele>714.0</ele>
        <time>2015-04-28T13:36:18Z</time>
      </trkpt>
      <trkpt lat="43.276767" lon="-4.272200">
        <ele>714.0</ele>
        <time>2015-04-28T13:36:19Z</time>
      </trkpt>
      <trkpt lat="43.276750" lon="-4.272367">
        <ele>714.0</ele>
        <time>2015-04-28T13:36:20Z</time>
      </trkpt>
      <trkpt lat="43.276733" lon="-4.272517">
        <ele>714.0</ele>
        <time>2015-04-28T13:36:21Z</time>
      </trkpt>
      <trkpt lat="43.276733" lon="-4.272667">
        <ele>715.0</ele>
        <time>2015-04-28T13:36:22Z</time>
      </trkpt>
      <trkpt lat="43.276683" lon="-4.272817">
        <ele>715.0</ele>
        <time>2015-04-28T13:36:23Z</time>
      </trkpt>
      <trkpt lat="43.276650" lon="-4.272950">
        <ele>715.0</ele>
        <time>2015-04-28T13:36:24Z</time>
      </trkpt>
      <trkpt lat="43.276633" lon="-4.273100">
        <ele>715.0</ele>
        <time>2015-04-28T13:36:25Z</time>
      </trkpt>
      <trkpt lat="43.276600" lon="-4.273250">
        <ele>715.0</ele>
        <time>2015-04-28T13:36:26Z</time>
      </trkpt>
      <trkpt lat="43.276567" lon="-4.273417">
        <ele>715.0</ele>
        <time>2015-04-28T13:36:27Z</time>
      </trkpt>
      <trkpt lat="43.276517" lon="-4.273600">
        <ele>715.0</ele>
        <time>2015-04-28T13:36:28Z</time>
      </trkpt>
      <trkpt lat="43.276467" lon="-4.273767">
        <ele>715.0</ele>
        <time>2015-04-28T13:36:29Z</time>
      </trkpt>
      <trkpt lat="43.276417" lon="-4.273933">
        <ele>715.0</ele>
        <time>2015-04-28T13:36:30Z</time>
      </trkpt>
      <trkpt lat="43.276367" lon="-4.274100">
        <ele>715.0</ele>
        <time>2015-04-28T13:36:31Z</time>
      </trkpt>
      <trkpt lat="43.276333" lon="-4.274267">
        <ele>713.0</ele>
        <time>2015-04-28T13:36:32Z</time>
      </trkpt>
      <trkpt lat="43.276283" lon="-4.274433">
        <ele>713.0</ele>
        <time>2015-04-28T13:36:33Z</time>
      </trkpt>
      <trkpt lat="43.276233" lon="-4.274617">
        <ele>712.0</ele>
        <time>2015-04-28T13:36:34Z</time>
      </trkpt>
      <trkpt lat="43.276167" lon="-4.274800">
        <ele>712.0</ele>
        <time>2015-04-28T13:36:35Z</time>
      </trkpt>
      <trkpt lat="43.276117" lon="-4.274950">
        <ele>711.0</ele>
        <time>2015-04-28T13:36:36Z</time>
      </trkpt>
      <trkpt lat="43.276083" lon="-4.275117">
        <ele>712.0</ele>
        <time>2015-04-28T13:36:37Z</time>
      </trkpt>
      <trkpt lat="43.276033" lon="-4.275267">
        <ele>711.0</ele>
        <time>2015-04-28T13:36:38Z</time>
      </trkpt>
      <trkpt lat="43.276000" lon="-4.275433">
        <ele>711.0</ele>
        <time>2015-04-28T13:36:39Z</time>
      </trkpt>
      <trkpt lat="43.275967" lon="-4.275583">
        <ele>710.0</ele>
        <time>2015-04-28T13:36:40Z</time>
      </trkpt>
      <trkpt lat="43.275933" lon="-4.275767">
        <ele>710.0</ele>
        <time>2015-04-28T13:36:41Z</time>
      </trkpt>
      <trkpt lat="43.275883" lon="-4.275950">
        <ele>710.0</ele>
        <time>2015-04-28T13:36:42Z</time>
      </trkpt>
      <trkpt lat="43.275850" lon="-4.276117">
        <ele>710.0</ele>
        <time>2015-04-28T13:36:43Z</time>
      </trkpt>
      <trkpt lat="43.275817" lon="-4.276283">
        <ele>710.0</ele>
        <time>2015-04-28T13:36:44Z</time>
      </trkpt>
      <trkpt lat="43.275783" lon="-4.276450">
        <ele>709.0</ele>
        <time>2015-04-28T13:36:45Z</time>
      </trkpt>
      <trkpt lat="43.275733" lon="-4.276650">
        <ele>709.0</ele>
        <time>2015-04-28T13:36:46Z</time>
      </trkpt>
      <trkpt lat="43.275700" lon="-4.276817">
        <ele>709.0</ele>
        <time>2015-04-28T13:36:47Z</time>
      </trkpt>
      <trkpt lat="43.275667" lon="-4.276983">
        <ele>710.0</ele>
        <time>2015-04-28T13:36:48Z</time>
      </trkpt>
      <trkpt lat="43.275633" lon="-4.277150">
        <ele>710.0</ele>
        <time>2015-04-28T13:36:49Z</time>
      </trkpt>
      <trkpt lat="43.275617" lon="-4.277317">
        <ele>711.0</ele>
        <time>2015-04-28T13:36:50Z</time>
      </trkpt>
      <trkpt lat="43.275583" lon="-4.277483">
        <ele>712.0</ele>
        <time>2015-04-28T13:36:51Z</time>
      </trkpt>
      <trkpt lat="43.275550" lon="-4.277667">
        <ele>713.0</ele>
        <time>2015-04-28T13:36:52Z</time>
      </trkpt>
      <trkpt lat="43.275517" lon="-4.277817">
        <ele>714.0</ele>
        <time>2015-04-28T13:36:53Z</time>
      </trkpt>
      <trkpt lat="43.275483" lon="-4.277967">
        <ele>715.0</ele>
        <time>2015-04-28T13:36:54Z</time>
      </trkpt>
      <trkpt lat="43.275450" lon="-4.278100">
        <ele>714.0</ele>
        <time>2015-04-28T13:36:55Z</time>
      </trkpt>
      <trkpt lat="43.275417" lon="-4.278250">
        <ele>713.0</ele>
        <time>2015-04-28T13:36:56Z</time>
      </trkpt>
      <trkpt lat="43.275383" lon="-4.278417">
        <ele>713.0</ele>
        <time>2015-04-28T13:36:57Z</time>
      </trkpt>
      <trkpt lat="43.275350" lon="-4.278600">
        <ele>713.0</ele>
        <time>2015-04-28T13:36:58Z</time>
      </trkpt>
      <trkpt lat="43.275333" lon="-4.278783">
        <ele>713.0</ele>
        <time>2015-04-28T13:36:59Z</time>
      </trkpt>
      <trkpt lat="43.275300" lon="-4.278967">
        <ele>713.0</ele>
        <time>2015-04-28T13:37:00Z</time>
      </trkpt>
      <trkpt lat="43.275267" lon="-4.279133">
        <ele>713.0</ele>
        <time>2015-04-28T13:37:01Z</time>
      </trkpt>
      <trkpt lat="43.275233" lon="-4.279300">
        <ele>713.0</ele>
        <time>2015-04-28T13:37:02Z</time>
      </trkpt>
      <trkpt lat="43.275217" lon="-4.279483">
        <ele>712.0</ele>
        <time>2015-04-28T13:37:03Z</time>
      </trkpt>
      <trkpt lat="43.275183" lon="-4.279650">
        <ele>712.0</ele>
        <time>2015-04-28T13:37:04Z</time>
      </trkpt>
      <trkpt lat="43.275150" lon="-4.279817">
        <ele>711.0</ele>
        <time>2015-04-28T13:37:05Z</time>
      </trkpt>
      <trkpt lat="43.275133" lon="-4.280000">
        <ele>711.0</ele>
        <time>2015-04-28T13:37:06Z</time>
      </trkpt>
      <trkpt lat="43.275100" lon="-4.280167">
        <ele>711.0</ele>
        <time>2015-04-28T13:37:07Z</time>
      </trkpt>
      <trkpt lat="43.275067" lon="-4.280333">
        <ele>711.0</ele>
        <time>2015-04-28T13:37:08Z</time>
      </trkpt>
      <trkpt lat="43.275050" lon="-4.280500">
        <ele>711.0</ele>
        <time>2015-04-28T13:37:09Z</time>
      </trkpt>
      <trkpt lat="43.275017" lon="-4.280667">
        <ele>711.0</ele>
        <time>2015-04-28T13:37:10Z</time>
      </trkpt>
      <trkpt lat="43.275000" lon="-4.280817">
        <ele>712.0</ele>
        <time>2015-04-28T13:37:11Z</time>
      </trkpt>
      <trkpt lat="43.274983" lon="-4.280983">
        <ele>714.0</ele>
        <time>2015-04-28T13:37:12Z</time>
      </trkpt>
      <trkpt lat="43.274950" lon="-4.281117">
        <ele>719.0</ele>
        <time>2015-04-28T13:37:13Z</time>
      </trkpt>
      <trkpt lat="43.274950" lon="-4.281217">
        <ele>717.0</ele>
        <time>2015-04-28T13:37:14Z</time>
      </trkpt>
      <trkpt lat="43.274950" lon="-4.281300">
        <ele>718.0</ele>
        <time>2015-04-28T13:37:15Z</time>
      </trkpt>
      <trkpt lat="43.274950" lon="-4.281383">
        <ele>718.0</ele>
        <time>2015-04-28T13:37:16Z</time>
      </trkpt>
      <trkpt lat="43.274950" lon="-4.281483">
        <ele>718.0</ele>
        <time>2015-04-28T13:37:17Z</time>
      </trkpt>
      <trkpt lat="43.274967" lon="-4.281617">
        <ele>719.0</ele>
        <time>2015-04-28T13:37:18Z</time>
      </trkpt>
      <trkpt lat="43.274983" lon="-4.281717">
        <ele>719.0</ele>
        <time>2015-04-28T13:37:19Z</time>
      </trkpt>
      <trkpt lat="43.275017" lon="-4.281800">
        <ele>720.0</ele>
        <time>2015-04-28T13:37:20Z</time>
      </trkpt>
      <trkpt lat="43.275050" lon="-4.281867">
        <ele>720.0</ele>
        <time>2015-04-28T13:37:21Z</time>
      </trkpt>
      <trkpt lat="43.275100" lon="-4.281917">
        <ele>720.0</ele>
        <time>2015-04-28T13:37:22Z</time>
      </trkpt>
      <trkpt lat="43.275167" lon="-4.281967">
        <ele>720.0</ele>
        <time>2015-04-28T13:37:23Z</time>
      </trkpt>
      <trkpt lat="43.275233" lon="-4.282000">
        <ele>720.0</ele>
        <time>2015-04-28T13:37:24Z</time>
      </trkpt>
      <trkpt lat="43.275267" lon="-4.281983">
        <ele>720.0</ele>
        <time>2015-04-28T13:37:25Z</time>
      </trkpt>
      <trkpt lat="43.275317" lon="-4.281950">
        <ele>720.0</ele>
        <time>2015-04-28T13:37:26Z</time>
      </trkpt>
      <trkpt lat="43.275333" lon="-4.281933">
        <ele>721.0</ele>
        <time>2015-04-28T13:37:27Z</time>
      </trkpt>
      <trkpt lat="43.275333" lon="-4.281917">
        <ele>721.0</ele>
        <time>2015-04-28T13:37:28Z</time>
      </trkpt>
      <trkpt lat="43.275333" lon="-4.281900">
        <ele>721.0</ele>
        <time>2015-04-28T13:37:29Z</time>
      </trkpt>
      <trkpt lat="43.275317" lon="-4.281883">
        <ele>721.0</ele>
        <time>2015-04-28T13:37:30Z</time>
      </trkpt>
      <trkpt lat="43.275333" lon="-4.281800">
        <ele>721.0</ele>
        <time>2015-04-28T13:37:31Z</time>
      </trkpt>
      <trkpt lat="43.275333" lon="-4.281733">
        <ele>721.0</ele>
        <time>2015-04-28T13:37:32Z</time>
      </trkpt>
      <trkpt lat="43.275333" lon="-4.281683">
        <ele>721.0</ele>
        <time>2015-04-28T13:37:33Z</time>
      </trkpt>
      <trkpt lat="43.275333" lon="-4.281633">
        <ele>721.0</ele>
        <time>2015-04-28T13:37:34Z</time>
      </trkpt>
      <trkpt lat="43.275350" lon="-4.281583">
        <ele>721.0</ele>
        <time>2015-04-28T13:37:35Z</time>
      </trkpt>
      <trkpt lat="43.275367" lon="-4.281533">
        <ele>721.0</ele>
        <time>2015-04-28T13:37:36Z</time>
      </trkpt>
      <trkpt lat="43.275383" lon="-4.281467">
        <ele>721.0</ele>
        <time>2015-04-28T13:37:37Z</time>
      </trkpt>
      <trkpt lat="43.275400" lon="-4.281400">
        <ele>721.0</ele>
        <time>2015-04-28T13:37:38Z</time>
      </trkpt>
      <trkpt lat="43.275383" lon="-4.281317">
        <ele>721.0</ele>
        <time>2015-04-28T13:37:39Z</time>
      </trkpt>
      <trkpt lat="43.275367" lon="-4.281267">
        <ele>721.0</ele>
        <time>2015-04-28T13:37:40Z</time>
      </trkpt>
      <trkpt lat="43.275367" lon="-4.281200">
        <ele>721.0</ele>
        <time>2015-04-28T13:37:41Z</time>
      </trkpt>
      <trkpt lat="43.275367" lon="-4.281133">
        <ele>721.0</ele>
        <time>2015-04-28T13:37:42Z</time>
      </trkpt>
      <trkpt lat="43.275383" lon="-4.281050">
        <ele>721.0</ele>
        <time>2015-04-28T13:37:43Z</time>
      </trkpt>
      <trkpt lat="43.275383" lon="-4.280983">
        <ele>721.0</ele>
        <time>2015-04-28T13:37:44Z</time>
      </trkpt>
      <trkpt lat="43.275383" lon="-4.280933">
        <ele>721.0</ele>
        <time>2015-04-28T13:37:45Z</time>
      </trkpt>
      <trkpt lat="43.275400" lon="-4.280900">
        <ele>721.0</ele>
        <time>2015-04-28T13:37:46Z</time>
      </trkpt>
      <trkpt lat="43.275400" lon="-4.280867">
        <ele>721.0</ele>
        <time>2015-04-28T13:37:47Z</time>
      </trkpt>
      <trkpt lat="43.275417" lon="-4.280817">
        <ele>721.0</ele>
        <time>2015-04-28T13:37:48Z</time>
      </trkpt>
      <trkpt lat="43.275450" lon="-4.280750">
        <ele>720.0</ele>
        <time>2015-04-28T13:37:49Z</time>
      </trkpt>
      <trkpt lat="43.275483" lon="-4.280683">
        <ele>720.0</ele>
        <time>2015-04-28T13:37:50Z</time>
      </trkpt>
      <trkpt lat="43.275517" lon="-4.280633">
        <ele>720.0</ele>
        <time>2015-04-28T13:37:51Z</time>
      </trkpt>
      <trkpt lat="43.275550" lon="-4.280583">
        <ele>720.0</ele>
        <time>2015-04-28T13:37:52Z</time>
      </trkpt>
      <trkpt lat="43.275567" lon="-4.280550">
        <ele>720.0</ele>
        <time>2015-04-28T13:37:53Z</time>
      </trkpt>
      <trkpt lat="43.275600" lon="-4.280517">
        <ele>720.0</ele>
        <time>2015-04-28T13:37:54Z</time>
      </trkpt>
      <trkpt lat="43.275633" lon="-4.280467">
        <ele>720.0</ele>
        <time>2015-04-28T13:37:55Z</time>
      </trkpt>
      <trkpt lat="43.275667" lon="-4.280433">
        <ele>719.0</ele>
        <time>2015-04-28T13:37:56Z</time>
      </trkpt>
      <trkpt lat="43.275700" lon="-4.280400">
        <ele>719.0</ele>
        <time>2015-04-28T13:37:57Z</time>
      </trkpt>
      <trkpt lat="43.275733" lon="-4.280367">
        <ele>719.0</ele>
        <time>2015-04-28T13:37:58Z</time>
      </trkpt>
      <trkpt lat="43.275750" lon="-4.280300">
        <ele>719.0</ele>
        <time>2015-04-28T13:37:59Z</time>
      </trkpt>
      <trkpt lat="43.275733" lon="-4.280233">
        <ele>718.0</ele>
        <time>2015-04-28T13:38:00Z</time>
      </trkpt>
      <trkpt lat="43.275733" lon="-4.280167">
        <ele>718.0</ele>
        <time>2015-04-28T13:38:01Z</time>
      </trkpt>
      <trkpt lat="43.275717" lon="-4.280117">
        <ele>718.0</ele>
        <time>2015-04-28T13:38:02Z</time>
      </trkpt>
      <trkpt lat="43.275717" lon="-4.280050">
        <ele>717.0</ele>
        <time>2015-04-28T13:38:03Z</time>
      </trkpt>
      <trkpt lat="43.275717" lon="-4.280000">
        <ele>717.0</ele>
        <time>2015-04-28T13:38:04Z</time>
      </trkpt>
      <trkpt lat="43.275700" lon="-4.279967">
        <ele>717.0</ele>
        <time>2015-04-28T13:38:05Z</time>
      </trkpt>
      <trkpt lat="43.275717" lon="-4.279917">
        <ele>717.0</ele>
        <time>2015-04-28T13:38:06Z</time>
      </trkpt>
      <trkpt lat="43.275717" lon="-4.279833">
        <ele>716.0</ele>
        <time>2015-04-28T13:38:07Z</time>
      </trkpt>
      <trkpt lat="43.275717" lon="-4.279783">
        <ele>716.0</ele>
        <time>2015-04-28T13:38:08Z</time>
      </trkpt>
      <trkpt lat="43.275717" lon="-4.279733">
        <ele>716.0</ele>
        <time>2015-04-28T13:38:09Z</time>
      </trkpt>
      <trkpt lat="43.275733" lon="-4.279683">
        <ele>715.0</ele>
        <time>2015-04-28T13:38:10Z</time>
      </trkpt>
      <trkpt lat="43.275733" lon="-4.279617">
        <ele>715.0</ele>
        <time>2015-04-28T13:38:11Z</time>
      </trkpt>
      <trkpt lat="43.275733" lon="-4.279583">
        <ele>715.0</ele>
        <time>2015-04-28T13:38:12Z</time>
      </trkpt>
      <trkpt lat="43.275733" lon="-4.279533">
        <ele>714.0</ele>
        <time>2015-04-28T13:38:13Z</time>
      </trkpt>
      <trkpt lat="43.275750" lon="-4.279467">
        <ele>714.0</ele>
        <time>2015-04-28T13:38:14Z</time>
      </trkpt>
      <trkpt lat="43.275767" lon="-4.279383">
        <ele>713.0</ele>
        <time>2015-04-28T13:38:15Z</time>
      </trkpt>
      <trkpt lat="43.275783" lon="-4.279333">
        <ele>713.0</ele>
        <time>2015-04-28T13:38:16Z</time>
      </trkpt>
      <trkpt lat="43.275783" lon="-4.279283">
        <ele>712.0</ele>
        <time>2015-04-28T13:38:17Z</time>
      </trkpt>
      <trkpt lat="43.275783" lon="-4.279233">
        <ele>712.0</ele>
        <time>2015-04-28T13:38:18Z</time>
      </trkpt>
      <trkpt lat="43.275800" lon="-4.279167">
        <ele>711.0</ele>
        <time>2015-04-28T13:38:19Z</time>
      </trkpt>
      <trkpt lat="43.275817" lon="-4.279117">
        <ele>711.0</ele>
        <time>2015-04-28T13:38:20Z</time>
      </trkpt>
      <trkpt lat="43.275817" lon="-4.279100">
        <ele>711.0</ele>
        <time>2015-04-28T13:38:21Z</time>
      </trkpt>
      <trkpt lat="43.275833" lon="-4.279067">
        <ele>711.0</ele>
        <time>2015-04-28T13:38:22Z</time>
      </trkpt>
      <trkpt lat="43.275817" lon="-4.279033">
        <ele>710.0</ele>
        <time>2015-04-28T13:38:23Z</time>
      </trkpt>
      <trkpt lat="43.275817" lon="-4.279017">
        <ele>710.0</ele>
        <time>2015-04-28T13:38:24Z</time>
      </trkpt>
      <trkpt lat="43.275817" lon="-4.278983">
        <ele>710.0</ele>
        <time>2015-04-28T13:38:25Z</time>
      </trkpt>
      <trkpt lat="43.275817" lon="-4.278950">
        <ele>710.0</ele>
        <time>2015-04-28T13:38:26Z</time>
      </trkpt>
      <trkpt lat="43.275833" lon="-4.278883">
        <ele>709.0</ele>
        <time>2015-04-28T13:38:27Z</time>
      </trkpt>
      <trkpt lat="43.275833" lon="-4.278850">
        <ele>709.0</ele>
        <time>2015-04-28T13:38:28Z</time>
      </trkpt>
      <trkpt lat="43.275833" lon="-4.278800">
        <ele>709.0</ele>
        <time>2015-04-28T13:38:29Z</time>
      </trkpt>
      <trkpt lat="43.275833" lon="-4.278767">
        <ele>709.0</ele>
        <time>2015-04-28T13:38:30Z</time>
      </trkpt>
      <trkpt lat="43.275833" lon="-4.278700">
        <ele>708.0</ele>
        <time>2015-04-28T13:38:31Z</time>
      </trkpt>
      <trkpt lat="43.275833" lon="-4.278650">
        <ele>708.0</ele>
        <time>2015-04-28T13:38:32Z</time>
      </trkpt>
      <trkpt lat="43.275833" lon="-4.278583">
        <ele>707.0</ele>
        <time>2015-04-28T13:38:33Z</time>
      </trkpt>
      <trkpt lat="43.275850" lon="-4.278500">
        <ele>707.0</ele>
        <time>2015-04-28T13:38:34Z</time>
      </trkpt>
      <trkpt lat="43.275867" lon="-4.278433">
        <ele>706.0</ele>
        <time>2015-04-28T13:38:35Z</time>
      </trkpt>
      <trkpt lat="43.275867" lon="-4.278350">
        <ele>706.0</ele>
        <time>2015-04-28T13:38:36Z</time>
      </trkpt>
      <trkpt lat="43.275867" lon="-4.278300">
        <ele>706.0</ele>
        <time>2015-04-28T13:38:37Z</time>
      </trkpt>
      <trkpt lat="43.275850" lon="-4.278250">
        <ele>705.0</ele>
        <time>2015-04-28T13:38:38Z</time>
      </trkpt>
      <trkpt lat="43.275833" lon="-4.278183">
        <ele>705.0</ele>
        <time>2015-04-28T13:38:39Z</time>
      </trkpt>
      <trkpt lat="43.275833" lon="-4.278117">
        <ele>705.0</ele>
        <time>2015-04-28T13:38:40Z</time>
      </trkpt>
      <trkpt lat="43.275850" lon="-4.278067">
        <ele>705.0</ele>
        <time>2015-04-28T13:38:41Z</time>
      </trkpt>
      <trkpt lat="43.275850" lon="-4.278017">
        <ele>705.0</ele>
        <time>2015-04-28T13:38:42Z</time>
      </trkpt>
      <trkpt lat="43.275867" lon="-4.277950">
        <ele>705.0</ele>
        <time>2015-04-28T13:38:43Z</time>
      </trkpt>
      <trkpt lat="43.275900" lon="-4.277883">
        <ele>704.0</ele>
        <time>2015-04-28T13:38:44Z</time>
      </trkpt>
      <trkpt lat="43.275933" lon="-4.277817">
        <ele>704.0</ele>
        <time>2015-04-28T13:38:45Z</time>
      </trkpt>
      <trkpt lat="43.275950" lon="-4.277767">
        <ele>704.0</ele>
        <time>2015-04-28T13:38:46Z</time>
      </trkpt>
      <trkpt lat="43.275983" lon="-4.277717">
        <ele>704.0</ele>
        <time>2015-04-28T13:38:47Z</time>
      </trkpt>
      <trkpt lat="43.276000" lon="-4.277667">
        <ele>704.0</ele>
        <time>2015-04-28T13:38:48Z</time>
      </trkpt>
      <trkpt lat="43.276017" lon="-4.277617">
        <ele>704.0</ele>
        <time>2015-04-28T13:38:49Z</time>
      </trkpt>
      <trkpt lat="43.276033" lon="-4.277600">
        <ele>704.0</ele>
        <time>2015-04-28T13:38:50Z</time>
      </trkpt>
      <trkpt lat="43.276050" lon="-4.277550">
        <ele>704.0</ele>
        <time>2015-04-28T13:38:51Z</time>
      </trkpt>
      <trkpt lat="43.276067" lon="-4.277500">
        <ele>703.0</ele>
        <time>2015-04-28T13:38:52Z</time>
      </trkpt>
      <trkpt lat="43.276083" lon="-4.277450">
        <ele>703.0</ele>
        <time>2015-04-28T13:38:53Z</time>
      </trkpt>
      <trkpt lat="43.276117" lon="-4.277383">
        <ele>703.0</ele>
        <time>2015-04-28T13:38:54Z</time>
      </trkpt>
      <trkpt lat="43.276133" lon="-4.277333">
        <ele>703.0</ele>
        <time>2015-04-28T13:38:55Z</time>
      </trkpt>
      <trkpt lat="43.276150" lon="-4.277300">
        <ele>703.0</ele>
        <time>2015-04-28T13:38:56Z</time>
      </trkpt>
      <trkpt lat="43.276183" lon="-4.277250">
        <ele>703.0</ele>
        <time>2015-04-28T13:38:57Z</time>
      </trkpt>
      <trkpt lat="43.276217" lon="-4.277200">
        <ele>703.0</ele>
        <time>2015-04-28T13:38:58Z</time>
      </trkpt>
      <trkpt lat="43.276233" lon="-4.277167">
        <ele>702.0</ele>
        <time>2015-04-28T13:38:59Z</time>
      </trkpt>
      <trkpt lat="43.276250" lon="-4.277117">
        <ele>702.0</ele>
        <time>2015-04-28T13:39:00Z</time>
      </trkpt>
      <trkpt lat="43.276267" lon="-4.277083">
        <ele>702.0</ele>
        <time>2015-04-28T13:39:01Z</time>
      </trkpt>
      <trkpt lat="43.276300" lon="-4.277050">
        <ele>702.0</ele>
        <time>2015-04-28T13:39:02Z</time>
      </trkpt>
      <trkpt lat="43.276317" lon="-4.277000">
        <ele>702.0</ele>
        <time>2015-04-28T13:39:03Z</time>
      </trkpt>
      <trkpt lat="43.276333" lon="-4.276967">
        <ele>702.0</ele>
        <time>2015-04-28T13:39:04Z</time>
      </trkpt>
      <trkpt lat="43.276383" lon="-4.276917">
        <ele>702.0</ele>
        <time>2015-04-28T13:39:05Z</time>
      </trkpt>
      <trkpt lat="43.276417" lon="-4.276867">
        <ele>702.0</ele>
        <time>2015-04-28T13:39:06Z</time>
      </trkpt>
      <trkpt lat="43.276433" lon="-4.276817">
        <ele>702.0</ele>
        <time>2015-04-28T13:39:07Z</time>
      </trkpt>
      <trkpt lat="43.276467" lon="-4.276767">
        <ele>701.0</ele>
        <time>2015-04-28T13:39:08Z</time>
      </trkpt>
      <trkpt lat="43.276483" lon="-4.276717">
        <ele>701.0</ele>
        <time>2015-04-28T13:39:09Z</time>
      </trkpt>
      <trkpt lat="43.276500" lon="-4.276667">
        <ele>701.0</ele>
        <time>2015-04-28T13:39:10Z</time>
      </trkpt>
      <trkpt lat="43.276517" lon="-4.276633">
        <ele>701.0</ele>
        <time>2015-04-28T13:39:11Z</time>
      </trkpt>
      <trkpt lat="43.276533" lon="-4.276567">
        <ele>700.0</ele>
        <time>2015-04-28T13:39:12Z</time>
      </trkpt>
      <trkpt lat="43.276550" lon="-4.276517">
        <ele>700.0</ele>
        <time>2015-04-28T13:39:13Z</time>
      </trkpt>
      <trkpt lat="43.276567" lon="-4.276450">
        <ele>700.0</ele>
        <time>2015-04-28T13:39:14Z</time>
      </trkpt>
      <trkpt lat="43.276583" lon="-4.276400">
        <ele>700.0</ele>
        <time>2015-04-28T13:39:15Z</time>
      </trkpt>
      <trkpt lat="43.276600" lon="-4.276350">
        <ele>699.0</ele>
        <time>2015-04-28T13:39:16Z</time>
      </trkpt>
      <trkpt lat="43.276617" lon="-4.276300">
        <ele>699.0</ele>
        <time>2015-04-28T13:39:17Z</time>
      </trkpt>
      <trkpt lat="43.276617" lon="-4.276250">
        <ele>699.0</ele>
        <time>2015-04-28T13:39:18Z</time>
      </trkpt>
      <trkpt lat="43.276617" lon="-4.276183">
        <ele>699.0</ele>
        <time>2015-04-28T13:39:19Z</time>
      </trkpt>
      <trkpt lat="43.276633" lon="-4.276117">
        <ele>699.0</ele>
        <time>2015-04-28T13:39:20Z</time>
      </trkpt>
      <trkpt lat="43.276617" lon="-4.276033">
        <ele>699.0</ele>
        <time>2015-04-28T13:39:21Z</time>
      </trkpt>
      <trkpt lat="43.276617" lon="-4.275967">
        <ele>698.0</ele>
        <time>2015-04-28T13:39:22Z</time>
      </trkpt>
      <trkpt lat="43.276600" lon="-4.275883">
        <ele>698.0</ele>
        <time>2015-04-28T13:39:23Z</time>
      </trkpt>
      <trkpt lat="43.276583" lon="-4.275817">
        <ele>698.0</ele>
        <time>2015-04-28T13:39:24Z</time>
      </trkpt>
      <trkpt lat="43.276583" lon="-4.275767">
        <ele>698.0</ele>
        <time>2015-04-28T13:39:25Z</time>
      </trkpt>
      <trkpt lat="43.276567" lon="-4.275717">
        <ele>698.0</ele>
        <time>2015-04-28T13:39:26Z</time>
      </trkpt>
      <trkpt lat="43.276550" lon="-4.275700">
        <ele>698.0</ele>
        <time>2015-04-28T13:39:27Z</time>
      </trkpt>
      <trkpt lat="43.276533" lon="-4.275683">
        <ele>698.0</ele>
        <time>2015-04-28T13:39:28Z</time>
      </trkpt>
      <trkpt lat="43.276517" lon="-4.275650">
        <ele>698.0</ele>
        <time>2015-04-28T13:39:29Z</time>
      </trkpt>
      <trkpt lat="43.276500" lon="-4.275617">
        <ele>697.0</ele>
        <time>2015-04-28T13:39:30Z</time>
      </trkpt>
      <trkpt lat="43.276483" lon="-4.275583">
        <ele>697.0</ele>
        <time>2015-04-28T13:39:31Z</time>
      </trkpt>
      <trkpt lat="43.276483" lon="-4.275500">
        <ele>697.0</ele>
        <time>2015-04-28T13:39:32Z</time>
      </trkpt>
      <trkpt lat="43.276467" lon="-4.275417">
        <ele>697.0</ele>
        <time>2015-04-28T13:39:33Z</time>
      </trkpt>
      <trkpt lat="43.276450" lon="-4.275350">
        <ele>697.0</ele>
        <time>2015-04-28T13:39:34Z</time>
      </trkpt>
      <trkpt lat="43.276433" lon="-4.275267">
        <ele>696.0</ele>
        <time>2015-04-28T13:39:35Z</time>
      </trkpt>
      <trkpt lat="43.276417" lon="-4.275200">
        <ele>696.0</ele>
        <time>2015-04-28T13:39:36Z</time>
      </trkpt>
      <trkpt lat="43.276400" lon="-4.275133">
        <ele>696.0</ele>
        <time>2015-04-28T13:39:37Z</time>
      </trkpt>
      <trkpt lat="43.276383" lon="-4.275067">
        <ele>696.0</ele>
        <time>2015-04-28T13:39:38Z</time>
      </trkpt>
      <trkpt lat="43.276367" lon="-4.275000">
        <ele>696.0</ele>
        <time>2015-04-28T13:39:39Z</time>
      </trkpt>
      <trkpt lat="43.276367" lon="-4.274933">
        <ele>696.0</ele>
        <time>2015-04-28T13:39:40Z</time>
      </trkpt>
      <trkpt lat="43.276350" lon="-4.274867">
        <ele>695.0</ele>
        <time>2015-04-28T13:39:41Z</time>
      </trkpt>
      <trkpt lat="43.276333" lon="-4.274800">
        <ele>695.0</ele>
        <time>2015-04-28T13:39:42Z</time>
      </trkpt>
      <trkpt lat="43.276317" lon="-4.274733">
        <ele>695.0</ele>
        <time>2015-04-28T13:39:43Z</time>
      </trkpt>
      <trkpt lat="43.276317" lon="-4.274667">
        <ele>695.0</ele>
        <time>2015-04-28T13:39:44Z</time>
      </trkpt>
      <trkpt lat="43.276300" lon="-4.274600">
        <ele>695.0</ele>
        <time>2015-04-28T13:39:45Z</time>
      </trkpt>
      <trkpt lat="43.276300" lon="-4.274550">
        <ele>695.0</ele>
        <time>2015-04-28T13:39:46Z</time>
      </trkpt>
      <trkpt lat="43.276283" lon="-4.274483">
        <ele>695.0</ele>
        <time>2015-04-28T13:39:47Z</time>
      </trkpt>
      <trkpt lat="43.276283" lon="-4.274400">
        <ele>695.0</ele>
        <time>2015-04-28T13:39:48Z</time>
      </trkpt>
      <trkpt lat="43.276267" lon="-4.274317">
        <ele>694.0</ele>
        <time>2015-04-28T13:39:49Z</time>
      </trkpt>
      <trkpt lat="43.276267" lon="-4.274250">
        <ele>694.0</ele>
        <time>2015-04-28T13:39:50Z</time>
      </trkpt>
      <trkpt lat="43.276250" lon="-4.274183">
        <ele>694.0</ele>
        <time>2015-04-28T13:39:51Z</time>
      </trkpt>
      <trkpt lat="43.276217" lon="-4.274117">
        <ele>694.0</ele>
        <time>2015-04-28T13:39:52Z</time>
      </trkpt>
      <trkpt lat="43.276217" lon="-4.274050">
        <ele>693.0</ele>
        <time>2015-04-28T13:39:53Z</time>
      </trkpt>
      <trkpt lat="43.276200" lon="-4.273983">
        <ele>693.0</ele>
        <time>2015-04-28T13:39:54Z</time>
      </trkpt>
      <trkpt lat="43.276200" lon="-4.273917">
        <ele>693.0</ele>
        <time>2015-04-28T13:39:55Z</time>
      </trkpt>
      <trkpt lat="43.276200" lon="-4.273850">
        <ele>693.0</ele>
        <time>2015-04-28T13:39:56Z</time>
      </trkpt>
      <trkpt lat="43.276183" lon="-4.273767">
        <ele>693.0</ele>
        <time>2015-04-28T13:39:57Z</time>
      </trkpt>
      <trkpt lat="43.276183" lon="-4.273700">
        <ele>693.0</ele>
        <time>2015-04-28T13:39:58Z</time>
      </trkpt>
      <trkpt lat="43.276167" lon="-4.273633">
        <ele>693.0</ele>
        <time>2015-04-28T13:39:59Z</time>
      </trkpt>
      <trkpt lat="43.276167" lon="-4.273567">
        <ele>692.0</ele>
        <time>2015-04-28T13:40:00Z</time>
      </trkpt>
      <trkpt lat="43.276150" lon="-4.273483">
        <ele>692.0</ele>
        <time>2015-04-28T13:40:01Z</time>
      </trkpt>
      <trkpt lat="43.276133" lon="-4.273417">
        <ele>692.0</ele>
        <time>2015-04-28T13:40:02Z</time>
      </trkpt>
      <trkpt lat="43.276133" lon="-4.273383">
        <ele>692.0</ele>
        <time>2015-04-28T13:40:03Z</time>
      </trkpt>
      <trkpt lat="43.276133" lon="-4.273367">
        <ele>692.0</ele>
        <time>2015-04-28T13:40:04Z</time>
      </trkpt>
      <trkpt lat="43.276150" lon="-4.273400">
        <ele>692.0</ele>
        <time>2015-04-28T13:40:05Z</time>
      </trkpt>
      <trkpt lat="43.276183" lon="-4.273450">
        <ele>691.0</ele>
        <time>2015-04-28T13:40:06Z</time>
      </trkpt>
      <trkpt lat="43.276217" lon="-4.273517">
        <ele>691.0</ele>
        <time>2015-04-28T13:40:07Z</time>
      </trkpt>
      <trkpt lat="43.276250" lon="-4.273617">
        <ele>690.0</ele>
        <time>2015-04-28T13:40:08Z</time>
      </trkpt>
      <trkpt lat="43.276250" lon="-4.273750">
        <ele>690.0</ele>
        <time>2015-04-28T13:40:09Z</time>
      </trkpt>
      <trkpt lat="43.276233" lon="-4.273883">
        <ele>690.0</ele>
        <time>2015-04-28T13:40:10Z</time>
      </trkpt>
      <trkpt lat="43.276200" lon="-4.274033">
        <ele>690.0</ele>
        <time>2015-04-28T13:40:11Z</time>
      </trkpt>
      <trkpt lat="43.276167" lon="-4.274167">
        <ele>689.0</ele>
        <time>2015-04-28T13:40:12Z</time>
      </trkpt>
      <trkpt lat="43.276117" lon="-4.274317">
        <ele>689.0</ele>
        <time>2015-04-28T13:40:13Z</time>
      </trkpt>
      <trkpt lat="43.276067" lon="-4.274450">
        <ele>689.0</ele>
        <time>2015-04-28T13:40:14Z</time>
      </trkpt>
      <trkpt lat="43.276017" lon="-4.274583">
        <ele>689.0</ele>
        <time>2015-04-28T13:40:15Z</time>
      </trkpt>
      <trkpt lat="43.275967" lon="-4.274717">
        <ele>689.0</ele>
        <time>2015-04-28T13:40:16Z</time>
      </trkpt>
      <trkpt lat="43.275917" lon="-4.274867">
        <ele>689.0</ele>
        <time>2015-04-28T13:40:17Z</time>
      </trkpt>
      <trkpt lat="43.275867" lon="-4.275000">
        <ele>688.0</ele>
        <time>2015-04-28T13:40:18Z</time>
      </trkpt>
      <trkpt lat="43.275817" lon="-4.275150">
        <ele>688.0</ele>
        <time>2015-04-28T13:40:19Z</time>
      </trkpt>
      <trkpt lat="43.275767" lon="-4.275300">
        <ele>688.0</ele>
        <time>2015-04-28T13:40:20Z</time>
      </trkpt>
      <trkpt lat="43.275733" lon="-4.275433">
        <ele>687.0</ele>
        <time>2015-04-28T13:40:21Z</time>
      </trkpt>
      <trkpt lat="43.275700" lon="-4.275583">
        <ele>687.0</ele>
        <time>2015-04-28T13:40:22Z</time>
      </trkpt>
      <trkpt lat="43.275683" lon="-4.275717">
        <ele>686.0</ele>
        <time>2015-04-28T13:40:23Z</time>
      </trkpt>
      <trkpt lat="43.275667" lon="-4.275867">
        <ele>686.0</ele>
        <time>2015-04-28T13:40:24Z</time>
      </trkpt>
      <trkpt lat="43.275650" lon="-4.276017">
        <ele>685.0</ele>
        <time>2015-04-28T13:40:25Z</time>
      </trkpt>
      <trkpt lat="43.275650" lon="-4.276150">
        <ele>684.0</ele>
        <time>2015-04-28T13:40:26Z</time>
      </trkpt>
      <trkpt lat="43.275667" lon="-4.276300">
        <ele>685.0</ele>
        <time>2015-04-28T13:40:27Z</time>
      </trkpt>
      <trkpt lat="43.275683" lon="-4.276417">
        <ele>685.0</ele>
        <time>2015-04-28T13:40:28Z</time>
      </trkpt>
      <trkpt lat="43.275717" lon="-4.276550">
        <ele>687.0</ele>
        <time>2015-04-28T13:40:29Z</time>
      </trkpt>
      <trkpt lat="43.275767" lon="-4.276633">
        <ele>687.0</ele>
        <time>2015-04-28T13:40:30Z</time>
      </trkpt>
      <trkpt lat="43.275817" lon="-4.276717">
        <ele>687.0</ele>
        <time>2015-04-28T13:40:31Z</time>
      </trkpt>
      <trkpt lat="43.275867" lon="-4.276767">
        <ele>687.0</ele>
        <time>2015-04-28T13:40:32Z</time>
      </trkpt>
      <trkpt lat="43.275933" lon="-4.276817">
        <ele>687.0</ele>
        <time>2015-04-28T13:40:33Z</time>
      </trkpt>
      <trkpt lat="43.275983" lon="-4.276800">
        <ele>687.0</ele>
        <time>2015-04-28T13:40:34Z</time>
      </trkpt>
      <trkpt lat="43.276033" lon="-4.276783">
        <ele>687.0</ele>
        <time>2015-04-28T13:40:35Z</time>
      </trkpt>
      <trkpt lat="43.276083" lon="-4.276750">
        <ele>687.0</ele>
        <time>2015-04-28T13:40:36Z</time>
      </trkpt>
      <trkpt lat="43.276133" lon="-4.276733">
        <ele>687.0</ele>
        <time>2015-04-28T13:40:37Z</time>
      </trkpt>
      <trkpt lat="43.276183" lon="-4.276733">
        <ele>688.0</ele>
        <time>2015-04-28T13:40:38Z</time>
      </trkpt>
      <trkpt lat="43.276250" lon="-4.276733">
        <ele>688.0</ele>
        <time>2015-04-28T13:40:39Z</time>
      </trkpt>
      <trkpt lat="43.276300" lon="-4.276733">
        <ele>688.0</ele>
        <time>2015-04-28T13:40:40Z</time>
      </trkpt>
      <trkpt lat="43.276333" lon="-4.276733">
        <ele>688.0</ele>
        <time>2015-04-28T13:40:41Z</time>
      </trkpt>
      <trkpt lat="43.276383" lon="-4.276717">
        <ele>688.0</ele>
        <time>2015-04-28T13:40:42Z</time>
      </trkpt>
      <trkpt lat="43.276433" lon="-4.276683">
        <ele>688.0</ele>
        <time>2015-04-28T13:40:43Z</time>
      </trkpt>
      <trkpt lat="43.276467" lon="-4.276650">
        <ele>688.0</ele>
        <time>2015-04-28T13:40:44Z</time>
      </trkpt>
      <trkpt lat="43.276500" lon="-4.276617">
        <ele>688.0</ele>
        <time>2015-04-28T13:40:45Z</time>
      </trkpt>
      <trkpt lat="43.276517" lon="-4.276583">
        <ele>688.0</ele>
        <time>2015-04-28T13:40:46Z</time>
      </trkpt>
      <trkpt lat="43.276533" lon="-4.276533">
        <ele>688.0</ele>
        <time>2015-04-28T13:40:47Z</time>
      </trkpt>
      <trkpt lat="43.276533" lon="-4.276483">
        <ele>688.0</ele>
        <time>2015-04-28T13:40:48Z</time>
      </trkpt>
      <trkpt lat="43.276550" lon="-4.276417">
        <ele>688.0</ele>
        <time>2015-04-28T13:40:49Z</time>
      </trkpt>
      <trkpt lat="43.276550" lon="-4.276350">
        <ele>688.0</ele>
        <time>2015-04-28T13:40:50Z</time>
      </trkpt>
      <trkpt lat="43.276567" lon="-4.276300">
        <ele>688.0</ele>
        <time>2015-04-28T13:40:51Z</time>
      </trkpt>
      <trkpt lat="43.276567" lon="-4.276217">
        <ele>688.0</ele>
        <time>2015-04-28T13:40:52Z</time>
      </trkpt>
      <trkpt lat="43.276567" lon="-4.276150">
        <ele>688.0</ele>
        <time>2015-04-28T13:40:53Z</time>
      </trkpt>
      <trkpt lat="43.276567" lon="-4.276083">
        <ele>687.0</ele>
        <time>2015-04-28T13:40:54Z</time>
      </trkpt>
      <trkpt lat="43.276550" lon="-4.276000">
        <ele>687.0</ele>
        <time>2015-04-28T13:40:55Z</time>
      </trkpt>
      <trkpt lat="43.276550" lon="-4.275933">
        <ele>687.0</ele>
        <time>2015-04-28T13:40:56Z</time>
      </trkpt>
      <trkpt lat="43.276533" lon="-4.275867">
        <ele>687.0</ele>
        <time>2015-04-28T13:40:57Z</time>
      </trkpt>
      <trkpt lat="43.276517" lon="-4.275800">
        <ele>687.0</ele>
        <time>2015-04-28T13:40:58Z</time>
      </trkpt>
      <trkpt lat="43.276483" lon="-4.275733">
        <ele>687.0</ele>
        <time>2015-04-28T13:40:59Z</time>
      </trkpt>
      <trkpt lat="43.276467" lon="-4.275667">
        <ele>687.0</ele>
        <time>2015-04-28T13:41:00Z</time>
      </trkpt>
      <trkpt lat="43.276450" lon="-4.275600">
        <ele>687.0</ele>
        <time>2015-04-28T13:41:01Z</time>
      </trkpt>
      <trkpt lat="43.276450" lon="-4.275533">
        <ele>686.0</ele>
        <time>2015-04-28T13:41:02Z</time>
      </trkpt>
      <trkpt lat="43.276433" lon="-4.275467">
        <ele>686.0</ele>
        <time>2015-04-28T13:41:03Z</time>
      </trkpt>
      <trkpt lat="43.276417" lon="-4.275400">
        <ele>686.0</ele>
        <time>2015-04-28T13:41:04Z</time>
      </trkpt>
      <trkpt lat="43.276400" lon="-4.275350">
        <ele>686.0</ele>
        <time>2015-04-28T13:41:05Z</time>
      </trkpt>
      <trkpt lat="43.276400" lon="-4.275333">
        <ele>686.0</ele>
        <time>2015-04-28T13:41:06Z</time>
      </trkpt>
      <trkpt lat="43.276383" lon="-4.275300">
        <ele>686.0</ele>
        <time>2015-04-28T13:41:07Z</time>
      </trkpt>
      <trkpt lat="43.276383" lon="-4.275233">
        <ele>686.0</ele>
        <time>2015-04-28T13:41:08Z</time>
      </trkpt>
      <trkpt lat="43.276383" lon="-4.275183">
        <ele>686.0</ele>
        <time>2015-04-28T13:41:09Z</time>
      </trkpt>
      <trkpt lat="43.276367" lon="-4.275117">
        <ele>686.0</ele>
        <time>2015-04-28T13:41:10Z</time>
      </trkpt>
      <trkpt lat="43.276367" lon="-4.275067">
        <ele>686.0</ele>
        <time>2015-04-28T13:41:11Z</time>
      </trkpt>
      <trkpt lat="43.276367" lon="-4.275017">
        <ele>686.0</ele>
        <time>2015-04-28T13:41:12Z</time>
      </trkpt>
      <trkpt lat="43.276367" lon="-4.274967">
        <ele>686.0</ele>
        <time>2015-04-28T13:41:13Z</time>
      </trkpt>
      <trkpt lat="43.276383" lon="-4.274917">
        <ele>686.0</ele>
        <time>2015-04-28T13:41:14Z</time>
      </trkpt>
      <trkpt lat="43.276383" lon="-4.274867">
        <ele>686.0</ele>
        <time>2015-04-28T13:41:15Z</time>
      </trkpt>
      <trkpt lat="43.276400" lon="-4.274817">
        <ele>685.0</ele>
        <time>2015-04-28T13:41:16Z</time>
      </trkpt>
      <trkpt lat="43.276417" lon="-4.274783">
        <ele>685.0</ele>
        <time>2015-04-28T13:41:17Z</time>
      </trkpt>
      <trkpt lat="43.276433" lon="-4.274733">
        <ele>685.0</ele>
        <time>2015-04-28T13:41:18Z</time>
      </trkpt>
      <trkpt lat="43.276450" lon="-4.274700">
        <ele>685.0</ele>
        <time>2015-04-28T13:41:19Z</time>
      </trkpt>
      <trkpt lat="43.276450" lon="-4.274667">
        <ele>685.0</ele>
        <time>2015-04-28T13:41:20Z</time>
      </trkpt>
      <trkpt lat="43.276450" lon="-4.274600">
        <ele>685.0</ele>
        <time>2015-04-28T13:41:21Z</time>
      </trkpt>
      <trkpt lat="43.276450" lon="-4.274517">
        <ele>685.0</ele>
        <time>2015-04-28T13:41:22Z</time>
      </trkpt>
      <trkpt lat="43.276433" lon="-4.274450">
        <ele>685.0</ele>
        <time>2015-04-28T13:41:23Z</time>
      </trkpt>
      <trkpt lat="43.276433" lon="-4.274400">
        <ele>685.0</ele>
        <time>2015-04-28T13:41:24Z</time>
      </trkpt>
      <trkpt lat="43.276433" lon="-4.274350">
        <ele>685.0</ele>
        <time>2015-04-28T13:41:25Z</time>
      </trkpt>
      <trkpt lat="43.276433" lon="-4.274300">
        <ele>685.0</ele>
        <time>2015-04-28T13:41:26Z</time>
      </trkpt>
      <trkpt lat="43.276417" lon="-4.274250">
        <ele>685.0</ele>
        <time>2015-04-28T13:41:27Z</time>
      </trkpt>
      <trkpt lat="43.276417" lon="-4.274200">
        <ele>685.0</ele>
        <time>2015-04-28T13:41:28Z</time>
      </trkpt>
      <trkpt lat="43.276400" lon="-4.274133">
        <ele>685.0</ele>
        <time>2015-04-28T13:41:29Z</time>
      </trkpt>
      <trkpt lat="43.276383" lon="-4.274083">
        <ele>685.0</ele>
        <time>2015-04-28T13:41:30Z</time>
      </trkpt>
      <trkpt lat="43.276400" lon="-4.274050">
        <ele>685.0</ele>
        <time>2015-04-28T13:41:31Z</time>
      </trkpt>
      <trkpt lat="43.276400" lon="-4.274000">
        <ele>685.0</ele>
        <time>2015-04-28T13:41:32Z</time>
      </trkpt>
      <trkpt lat="43.276400" lon="-4.273933">
        <ele>685.0</ele>
        <time>2015-04-28T13:41:33Z</time>
      </trkpt>
      <trkpt lat="43.276400" lon="-4.273867">
        <ele>685.0</ele>
        <time>2015-04-28T13:41:34Z</time>
      </trkpt>
      <trkpt lat="43.276417" lon="-4.273800">
        <ele>685.0</ele>
        <time>2015-04-28T13:41:35Z</time>
      </trkpt>
      <trkpt lat="43.276417" lon="-4.273767">
        <ele>685.0</ele>
        <time>2015-04-28T13:41:36Z</time>
      </trkpt>
      <trkpt lat="43.276433" lon="-4.273717">
        <ele>685.0</ele>
        <time>2015-04-28T13:41:37Z</time>
      </trkpt>
      <trkpt lat="43.276433" lon="-4.273683">
        <ele>685.0</ele>
        <time>2015-04-28T13:41:38Z</time>
      </trkpt>
      <trkpt lat="43.276450" lon="-4.273650">
        <ele>685.0</ele>
        <time>2015-04-28T13:41:39Z</time>
      </trkpt>
      <trkpt lat="43.276450" lon="-4.273617">
        <ele>685.0</ele>
        <time>2015-04-28T13:41:40Z</time>
      </trkpt>
      <trkpt lat="43.276467" lon="-4.273567">
        <ele>685.0</ele>
        <time>2015-04-28T13:41:41Z</time>
      </trkpt>
      <trkpt lat="43.276483" lon="-4.273533">
        <ele>685.0</ele>
        <time>2015-04-28T13:41:42Z</time>
      </trkpt>
      <trkpt lat="43.276500" lon="-4.273483">
        <ele>685.0</ele>
        <time>2015-04-28T13:41:43Z</time>
      </trkpt>
      <trkpt lat="43.276500" lon="-4.273450">
        <ele>685.0</ele>
        <time>2015-04-28T13:41:44Z</time>
      </trkpt>
      <trkpt lat="43.276500" lon="-4.273400">
        <ele>685.0</ele>
        <time>2015-04-28T13:41:45Z</time>
      </trkpt>
      <trkpt lat="43.276517" lon="-4.273350">
        <ele>685.0</ele>
        <time>2015-04-28T13:41:46Z</time>
      </trkpt>
      <trkpt lat="43.276533" lon="-4.273300">
        <ele>685.0</ele>
        <time>2015-04-28T13:41:47Z</time>
      </trkpt>
      <trkpt lat="43.276533" lon="-4.273233">
        <ele>685.0</ele>
        <time>2015-04-28T13:41:48Z</time>
      </trkpt>
      <trkpt lat="43.276533" lon="-4.273167">
        <ele>685.0</ele>
        <time>2015-04-28T13:41:49Z</time>
      </trkpt>
      <trkpt lat="43.276533" lon="-4.273100">
        <ele>685.0</ele>
        <time>2015-04-28T13:41:50Z</time>
      </trkpt>
      <trkpt lat="43.276533" lon="-4.273050">
        <ele>685.0</ele>
        <time>2015-04-28T13:41:51Z</time>
      </trkpt>
      <trkpt lat="43.276517" lon="-4.273000">
        <ele>685.0</ele>
        <time>2015-04-28T13:41:52Z</time>
      </trkpt>
      <trkpt lat="43.276517" lon="-4.272950">
        <ele>685.0</ele>
        <time>2015-04-28T13:41:53Z</time>
      </trkpt>
      <trkpt lat="43.276517" lon="-4.272867">
        <ele>685.0</ele>
        <time>2015-04-28T13:41:54Z</time>
      </trkpt>
      <trkpt lat="43.276517" lon="-4.272783">
        <ele>685.0</ele>
        <time>2015-04-28T13:41:55Z</time>
      </trkpt>
      <trkpt lat="43.276517" lon="-4.272717">
        <ele>685.0</ele>
        <time>2015-04-28T13:41:56Z</time>
      </trkpt>
      <trkpt lat="43.276517" lon="-4.272667">
        <ele>685.0</ele>
        <time>2015-04-28T13:41:57Z</time>
      </trkpt>
      <trkpt lat="43.276500" lon="-4.272617">
        <ele>685.0</ele>
        <time>2015-04-28T13:41:58Z</time>
      </trkpt>
      <trkpt lat="43.276500" lon="-4.272567">
        <ele>685.0</ele>
        <time>2015-04-28T13:41:59Z</time>
      </trkpt>
      <trkpt lat="43.276500" lon="-4.272483">
        <ele>685.0</ele>
        <time>2015-04-28T13:42:00Z</time>
      </trkpt>
      <trkpt lat="43.276500" lon="-4.272417">
        <ele>685.0</ele>
        <time>2015-04-28T13:42:01Z</time>
      </trkpt>
      <trkpt lat="43.276500" lon="-4.272350">
        <ele>685.0</ele>
        <time>2015-04-28T13:42:02Z</time>
      </trkpt>
      <trkpt lat="43.276483" lon="-4.272283">
        <ele>685.0</ele>
        <time>2015-04-28T13:42:03Z</time>
      </trkpt>
      <trkpt lat="43.276467" lon="-4.272217">
        <ele>685.0</ele>
        <time>2015-04-28T13:42:04Z</time>
      </trkpt>
      <trkpt lat="43.276467" lon="-4.272167">
        <ele>685.0</ele>
        <time>2015-04-28T13:42:05Z</time>
      </trkpt>
      <trkpt lat="43.276483" lon="-4.272117">
        <ele>685.0</ele>
        <time>2015-04-28T13:42:06Z</time>
      </trkpt>
      <trkpt lat="43.276500" lon="-4.272050">
        <ele>685.0</ele>
        <time>2015-04-28T13:42:07Z</time>
      </trkpt>
      <trkpt lat="43.276517" lon="-4.272000">
        <ele>685.0</ele>
        <time>2015-04-28T13:42:08Z</time>
      </trkpt>
      <trkpt lat="43.276517" lon="-4.271950">
        <ele>685.0</ele>
        <time>2015-04-28T13:42:09Z</time>
      </trkpt>
      <trkpt lat="43.276533" lon="-4.271917">
        <ele>685.0</ele>
        <time>2015-04-28T13:42:10Z</time>
      </trkpt>
      <trkpt lat="43.276550" lon="-4.271883">
        <ele>685.0</ele>
        <time>2015-04-28T13:42:11Z</time>
      </trkpt>
      <trkpt lat="43.276567" lon="-4.271850">
        <ele>685.0</ele>
        <time>2015-04-28T13:42:12Z</time>
      </trkpt>
      <trkpt lat="43.276583" lon="-4.271800">
        <ele>685.0</ele>
        <time>2015-04-28T13:42:13Z</time>
      </trkpt>
      <trkpt lat="43.276583" lon="-4.271733">
        <ele>685.0</ele>
        <time>2015-04-28T13:42:14Z</time>
      </trkpt>
      <trkpt lat="43.276600" lon="-4.271683">
        <ele>685.0</ele>
        <time>2015-04-28T13:42:15Z</time>
      </trkpt>
      <trkpt lat="43.276600" lon="-4.271650">
        <ele>685.0</ele>
        <time>2015-04-28T13:42:16Z</time>
      </trkpt>
      <trkpt lat="43.276617" lon="-4.271600">
        <ele>685.0</ele>
        <time>2015-04-28T13:42:17Z</time>
      </trkpt>
      <trkpt lat="43.276633" lon="-4.271550">
        <ele>685.0</ele>
        <time>2015-04-28T13:42:18Z</time>
      </trkpt>
      <trkpt lat="43.276633" lon="-4.271517">
        <ele>685.0</ele>
        <time>2015-04-28T13:42:19Z</time>
      </trkpt>
      <trkpt lat="43.276633" lon="-4.271450">
        <ele>685.0</ele>
        <time>2015-04-28T13:42:20Z</time>
      </trkpt>
      <trkpt lat="43.276633" lon="-4.271400">
        <ele>686.0</ele>
        <time>2015-04-28T13:42:21Z</time>
      </trkpt>
      <trkpt lat="43.276650" lon="-4.271333">
        <ele>686.0</ele>
        <time>2015-04-28T13:42:22Z</time>
      </trkpt>
      <trkpt lat="43.276650" lon="-4.271283">
        <ele>686.0</ele>
        <time>2015-04-28T13:42:23Z</time>
      </trkpt>
      <trkpt lat="43.276650" lon="-4.271250">
        <ele>686.0</ele>
        <time>2015-04-28T13:42:24Z</time>
      </trkpt>
      <trkpt lat="43.276667" lon="-4.271233">
        <ele>686.0</ele>
        <time>2015-04-28T13:42:25Z</time>
      </trkpt>
      <trkpt lat="43.276667" lon="-4.271183">
        <ele>686.0</ele>
        <time>2015-04-28T13:42:26Z</time>
      </trkpt>
      <trkpt lat="43.276667" lon="-4.271133">
        <ele>686.0</ele>
        <time>2015-04-28T13:42:27Z</time>
      </trkpt>
      <trkpt lat="43.276683" lon="-4.271050">
        <ele>686.0</ele>
        <time>2015-04-28T13:42:28Z</time>
      </trkpt>
      <trkpt lat="43.276683" lon="-4.270983">
        <ele>686.0</ele>
        <time>2015-04-28T13:42:29Z</time>
      </trkpt>
      <trkpt lat="43.276683" lon="-4.270933">
        <ele>686.0</ele>
        <time>2015-04-28T13:42:30Z</time>
      </trkpt>
      <trkpt lat="43.276700" lon="-4.270867">
        <ele>686.0</ele>
        <time>2015-04-28T13:42:31Z</time>
      </trkpt>
      <trkpt lat="43.276700" lon="-4.270833">
        <ele>686.0</ele>
        <time>2015-04-28T13:42:32Z</time>
      </trkpt>
      <trkpt lat="43.276683" lon="-4.270767">
        <ele>686.0</ele>
        <time>2015-04-28T13:42:33Z</time>
      </trkpt>
      <trkpt lat="43.276700" lon="-4.270683">
        <ele>686.0</ele>
        <time>2015-04-28T13:42:34Z</time>
      </trkpt>
      <trkpt lat="43.276700" lon="-4.270617">
        <ele>686.0</ele>
        <time>2015-04-28T13:42:35Z</time>
      </trkpt>
      <trkpt lat="43.276717" lon="-4.270567">
        <ele>686.0</ele>
        <time>2015-04-28T13:42:36Z</time>
      </trkpt>
      <trkpt lat="43.276733" lon="-4.270517">
        <ele>686.0</ele>
        <time>2015-04-28T13:42:37Z</time>
      </trkpt>
      <trkpt lat="43.276733" lon="-4.270467">
        <ele>686.0</ele>
        <time>2015-04-28T13:42:38Z</time>
      </trkpt>
      <trkpt lat="43.276717" lon="-4.270400">
        <ele>686.0</ele>
        <time>2015-04-28T13:42:39Z</time>
      </trkpt>
      <trkpt lat="43.276700" lon="-4.270317">
        <ele>686.0</ele>
        <time>2015-04-28T13:42:40Z</time>
      </trkpt>
      <trkpt lat="43.276683" lon="-4.270250">
        <ele>686.0</ele>
        <time>2015-04-28T13:42:41Z</time>
      </trkpt>
      <trkpt lat="43.276667" lon="-4.270200">
        <ele>686.0</ele>
        <time>2015-04-28T13:42:42Z</time>
      </trkpt>
      <trkpt lat="43.276667" lon="-4.270167">
        <ele>686.0</ele>
        <time>2015-04-28T13:42:43Z</time>
      </trkpt>
      <trkpt lat="43.276667" lon="-4.270117">
        <ele>686.0</ele>
        <time>2015-04-28T13:42:44Z</time>
      </trkpt>
      <trkpt lat="43.276667" lon="-4.270067">
        <ele>686.0</ele>
        <time>2015-04-28T13:42:45Z</time>
      </trkpt>
      <trkpt lat="43.276683" lon="-4.270017">
        <ele>686.0</ele>
        <time>2015-04-28T13:42:46Z</time>
      </trkpt>
      <trkpt lat="43.276683" lon="-4.269950">
        <ele>686.0</ele>
        <time>2015-04-28T13:42:47Z</time>
      </trkpt>
      <trkpt lat="43.276717" lon="-4.269917">
        <ele>686.0</ele>
        <time>2015-04-28T13:42:48Z</time>
      </trkpt>
      <trkpt lat="43.276733" lon="-4.269867">
        <ele>686.0</ele>
        <time>2015-04-28T13:42:49Z</time>
      </trkpt>
      <trkpt lat="43.276750" lon="-4.269817">
        <ele>686.0</ele>
        <time>2015-04-28T13:42:50Z</time>
      </trkpt>
      <trkpt lat="43.276767" lon="-4.269767">
        <ele>686.0</ele>
        <time>2015-04-28T13:42:51Z</time>
      </trkpt>
      <trkpt lat="43.276783" lon="-4.269717">
        <ele>686.0</ele>
        <time>2015-04-28T13:42:52Z</time>
      </trkpt>
      <trkpt lat="43.276783" lon="-4.269650">
        <ele>686.0</ele>
        <time>2015-04-28T13:42:53Z</time>
      </trkpt>
      <trkpt lat="43.276783" lon="-4.269600">
        <ele>686.0</ele>
        <time>2015-04-28T13:42:54Z</time>
      </trkpt>
      <trkpt lat="43.276783" lon="-4.269550">
        <ele>686.0</ele>
        <time>2015-04-28T13:42:55Z</time>
      </trkpt>
      <trkpt lat="43.276800" lon="-4.269500">
        <ele>686.0</ele>
        <time>2015-04-28T13:42:56Z</time>
      </trkpt>
      <trkpt lat="43.276800" lon="-4.269450">
        <ele>686.0</ele>
        <time>2015-04-28T13:42:57Z</time>
      </trkpt>
      <trkpt lat="43.276817" lon="-4.269400">
        <ele>686.0</ele>
        <time>2015-04-28T13:42:58Z</time>
      </trkpt>
      <trkpt lat="43.276833" lon="-4.269367">
        <ele>686.0</ele>
        <time>2015-04-28T13:42:59Z</time>
      </trkpt>
      <trkpt lat="43.276833" lon="-4.269317">
        <ele>686.0</ele>
        <time>2015-04-28T13:43:00Z</time>
      </trkpt>
      <trkpt lat="43.276850" lon="-4.269283">
        <ele>686.0</ele>
        <time>2015-04-28T13:43:01Z</time>
      </trkpt>
      <trkpt lat="43.276867" lon="-4.269250">
        <ele>686.0</ele>
        <time>2015-04-28T13:43:02Z</time>
      </trkpt>
      <trkpt lat="43.276883" lon="-4.269200">
        <ele>686.0</ele>
        <time>2015-04-28T13:43:03Z</time>
      </trkpt>
      <trkpt lat="43.276900" lon="-4.269150">
        <ele>686.0</ele>
        <time>2015-04-28T13:43:04Z</time>
      </trkpt>
      <trkpt lat="43.276917" lon="-4.269083">
        <ele>686.0</ele>
        <time>2015-04-28T13:43:05Z</time>
      </trkpt>
      <trkpt lat="43.276933" lon="-4.269033">
        <ele>686.0</ele>
        <time>2015-04-28T13:43:06Z</time>
      </trkpt>
      <trkpt lat="43.276950" lon="-4.268983">
        <ele>686.0</ele>
        <time>2015-04-28T13:43:07Z</time>
      </trkpt>
      <trkpt lat="43.276950" lon="-4.268950">
        <ele>686.0</ele>
        <time>2015-04-28T13:43:08Z</time>
      </trkpt>
      <trkpt lat="43.276967" lon="-4.268917">
        <ele>686.0</ele>
        <time>2015-04-28T13:43:09Z</time>
      </trkpt>
      <trkpt lat="43.276983" lon="-4.268867">
        <ele>686.0</ele>
        <time>2015-04-28T13:43:10Z</time>
      </trkpt>
      <trkpt lat="43.277000" lon="-4.268817">
        <ele>686.0</ele>
        <time>2015-04-28T13:43:11Z</time>
      </trkpt>
      <trkpt lat="43.277017" lon="-4.268767">
        <ele>686.0</ele>
        <time>2015-04-28T13:43:12Z</time>
      </trkpt>
      <trkpt lat="43.277033" lon="-4.268733">
        <ele>686.0</ele>
        <time>2015-04-28T13:43:13Z</time>
      </trkpt>
      <trkpt lat="43.277067" lon="-4.268683">
        <ele>686.0</ele>
        <time>2015-04-28T13:43:14Z</time>
      </trkpt>
      <trkpt lat="43.277083" lon="-4.268650">
        <ele>686.0</ele>
        <time>2015-04-28T13:43:15Z</time>
      </trkpt>
      <trkpt lat="43.277100" lon="-4.268617">
        <ele>686.0</ele>
        <time>2015-04-28T13:43:16Z</time>
      </trkpt>
      <trkpt lat="43.277133" lon="-4.268600">
        <ele>686.0</ele>
        <time>2015-04-28T13:43:17Z</time>
      </trkpt>
      <trkpt lat="43.277150" lon="-4.268583">
        <ele>686.0</ele>
        <time>2015-04-28T13:43:18Z</time>
      </trkpt>
      <trkpt lat="43.277167" lon="-4.268550">
        <ele>686.0</ele>
        <time>2015-04-28T13:43:19Z</time>
      </trkpt>
      <trkpt lat="43.277200" lon="-4.268517">
        <ele>686.0</ele>
        <time>2015-04-28T13:43:20Z</time>
      </trkpt>
      <trkpt lat="43.277217" lon="-4.268500">
        <ele>686.0</ele>
        <time>2015-04-28T13:43:21Z</time>
      </trkpt>
      <trkpt lat="43.277250" lon="-4.268467">
        <ele>686.0</ele>
        <time>2015-04-28T13:43:22Z</time>
      </trkpt>
      <trkpt lat="43.277267" lon="-4.268433">
        <ele>686.0</ele>
        <time>2015-04-28T13:43:23Z</time>
      </trkpt>
      <trkpt lat="43.277300" lon="-4.268400">
        <ele>686.0</ele>
        <time>2015-04-28T13:43:24Z</time>
      </trkpt>
      <trkpt lat="43.277333" lon="-4.268367">
        <ele>686.0</ele>
        <time>2015-04-28T13:43:25Z</time>
      </trkpt>
      <trkpt lat="43.277350" lon="-4.268333">
        <ele>686.0</ele>
        <time>2015-04-28T13:43:26Z</time>
      </trkpt>
      <trkpt lat="43.277367" lon="-4.268283">
        <ele>686.0</ele>
        <time>2015-04-28T13:43:27Z</time>
      </trkpt>
      <trkpt lat="43.277383" lon="-4.268250">
        <ele>686.0</ele>
        <time>2015-04-28T13:43:28Z</time>
      </trkpt>
      <trkpt lat="43.277417" lon="-4.268200">
        <ele>686.0</ele>
        <time>2015-04-28T13:43:29Z</time>
      </trkpt>
      <trkpt lat="43.277433" lon="-4.268167">
        <ele>686.0</ele>
        <time>2015-04-28T13:43:30Z</time>
      </trkpt>
      <trkpt lat="43.277450" lon="-4.268117">
        <ele>686.0</ele>
        <time>2015-04-28T13:43:31Z</time>
      </trkpt>
      <trkpt lat="43.277450" lon="-4.268067">
        <ele>686.0</ele>
        <time>2015-04-28T13:43:32Z</time>
      </trkpt>
      <trkpt lat="43.277467" lon="-4.268017">
        <ele>686.0</ele>
        <time>2015-04-28T13:43:33Z</time>
      </trkpt>
      <trkpt lat="43.277467" lon="-4.267967">
        <ele>686.0</ele>
        <time>2015-04-28T13:43:34Z</time>
      </trkpt>
      <trkpt lat="43.277467" lon="-4.267933">
        <ele>686.0</ele>
        <time>2015-04-28T13:43:35Z</time>
      </trkpt>
      <trkpt lat="43.277467" lon="-4.267900">
        <ele>686.0</ele>
        <time>2015-04-28T13:43:36Z</time>
      </trkpt>
      <trkpt lat="43.277467" lon="-4.267850">
        <ele>686.0</ele>
        <time>2015-04-28T13:43:37Z</time>
      </trkpt>
      <trkpt lat="43.277433" lon="-4.267800">
        <ele>686.0</ele>
        <time>2015-04-28T13:43:38Z</time>
      </trkpt>
      <trkpt lat="43.277400" lon="-4.267783">
        <ele>686.0</ele>
        <time>2015-04-28T13:43:39Z</time>
      </trkpt>
      <trkpt lat="43.277350" lon="-4.267767">
        <ele>686.0</ele>
        <time>2015-04-28T13:43:40Z</time>
      </trkpt>
      <trkpt lat="43.277317" lon="-4.267733">
        <ele>686.0</ele>
        <time>2015-04-28T13:43:41Z</time>
      </trkpt>
      <trkpt lat="43.277300" lon="-4.267700">
        <ele>686.0</ele>
        <time>2015-04-28T13:43:42Z</time>
      </trkpt>
      <trkpt lat="43.277267" lon="-4.267667">
        <ele>686.0</ele>
        <time>2015-04-28T13:43:43Z</time>
      </trkpt>
      <trkpt lat="43.277233" lon="-4.267600">
        <ele>686.0</ele>
        <time>2015-04-28T13:43:44Z</time>
      </trkpt>
      <trkpt lat="43.277183" lon="-4.267550">
        <ele>686.0</ele>
        <time>2015-04-28T13:43:45Z</time>
      </trkpt>
      <trkpt lat="43.277150" lon="-4.267500">
        <ele>686.0</ele>
        <time>2015-04-28T13:43:46Z</time>
      </trkpt>
      <trkpt lat="43.277100" lon="-4.267450">
        <ele>686.0</ele>
        <time>2015-04-28T13:43:47Z</time>
      </trkpt>
      <trkpt lat="43.277050" lon="-4.267400">
        <ele>686.0</ele>
        <time>2015-04-28T13:43:48Z</time>
      </trkpt>
      <trkpt lat="43.277017" lon="-4.267350">
        <ele>686.0</ele>
        <time>2015-04-28T13:43:49Z</time>
      </trkpt>
      <trkpt lat="43.276967" lon="-4.267300">
        <ele>686.0</ele>
        <time>2015-04-28T13:43:50Z</time>
      </trkpt>
      <trkpt lat="43.276950" lon="-4.267233">
        <ele>686.0</ele>
        <time>2015-04-28T13:43:51Z</time>
      </trkpt>
      <trkpt lat="43.276933" lon="-4.267167">
        <ele>686.0</ele>
        <time>2015-04-28T13:43:52Z</time>
      </trkpt>
      <trkpt lat="43.276917" lon="-4.267100">
        <ele>686.0</ele>
        <time>2015-04-28T13:43:53Z</time>
      </trkpt>
      <trkpt lat="43.276917" lon="-4.267033">
        <ele>686.0</ele>
        <time>2015-04-28T13:43:54Z</time>
      </trkpt>
      <trkpt lat="43.276917" lon="-4.267000">
        <ele>686.0</ele>
        <time>2015-04-28T13:43:55Z</time>
      </trkpt>
      <trkpt lat="43.276933" lon="-4.266967">
        <ele>686.0</ele>
        <time>2015-04-28T13:43:56Z</time>
      </trkpt>
      <trkpt lat="43.276933" lon="-4.266933">
        <ele>686.0</ele>
        <time>2015-04-28T13:43:57Z</time>
      </trkpt>
      <trkpt lat="43.276933" lon="-4.266933">
        <ele>686.0</ele>
        <time>2015-04-28T13:43:58Z</time>
      </trkpt>
      <trkpt lat="43.276933" lon="-4.266933">
        <ele>686.0</ele>
        <time>2015-04-28T13:43:59Z</time>
      </trkpt>
      <trkpt lat="43.276933" lon="-4.266933">
        <ele>686.0</ele>
        <time>2015-04-28T13:44:00Z</time>
      </trkpt>
      <trkpt lat="43.276950" lon="-4.266917">
        <ele>686.0</ele>
        <time>2015-04-28T13:44:01Z</time>
      </trkpt>
      <trkpt lat="43.276983" lon="-4.266917">
        <ele>686.0</ele>
        <time>2015-04-28T13:44:02Z</time>
      </trkpt>
      <trkpt lat="43.277000" lon="-4.266933">
        <ele>686.0</ele>
        <time>2015-04-28T13:44:03Z</time>
      </trkpt>
      <trkpt lat="43.277017" lon="-4.267000">
        <ele>686.0</ele>
        <time>2015-04-28T13:44:04Z</time>
      </trkpt>
      <trkpt lat="43.277050" lon="-4.267083">
        <ele>685.0</ele>
        <time>2015-04-28T13:44:05Z</time>
      </trkpt>
      <trkpt lat="43.277067" lon="-4.267183">
        <ele>685.0</ele>
        <time>2015-04-28T13:44:06Z</time>
      </trkpt>
      <trkpt lat="43.277067" lon="-4.267300">
        <ele>685.0</ele>
        <time>2015-04-28T13:44:07Z</time>
      </trkpt>
      <trkpt lat="43.277050" lon="-4.267433">
        <ele>684.0</ele>
        <time>2015-04-28T13:44:08Z</time>
      </trkpt>
      <trkpt lat="43.277033" lon="-4.267567">
        <ele>684.0</ele>
        <time>2015-04-28T13:44:09Z</time>
      </trkpt>
      <trkpt lat="43.276983" lon="-4.267717">
        <ele>683.0</ele>
        <time>2015-04-28T13:44:10Z</time>
      </trkpt>
      <trkpt lat="43.276917" lon="-4.267883">
        <ele>683.0</ele>
        <time>2015-04-28T13:44:11Z</time>
      </trkpt>
      <trkpt lat="43.276850" lon="-4.268033">
        <ele>684.0</ele>
        <time>2015-04-28T13:44:12Z</time>
      </trkpt>
      <trkpt lat="43.276783" lon="-4.268183">
        <ele>684.0</ele>
        <time>2015-04-28T13:44:13Z</time>
      </trkpt>
      <trkpt lat="43.276733" lon="-4.268333">
        <ele>684.0</ele>
        <time>2015-04-28T13:44:14Z</time>
      </trkpt>
      <trkpt lat="43.276683" lon="-4.268467">
        <ele>685.0</ele>
        <time>2015-04-28T13:44:15Z</time>
      </trkpt>
      <trkpt lat="43.276617" lon="-4.268617">
        <ele>685.0</ele>
        <time>2015-04-28T13:44:16Z</time>
      </trkpt>
      <trkpt lat="43.276567" lon="-4.268767">
        <ele>685.0</ele>
        <time>2015-04-28T13:44:17Z</time>
      </trkpt>
      <trkpt lat="43.276500" lon="-4.268917">
        <ele>685.0</ele>
        <time>2015-04-28T13:44:18Z</time>
      </trkpt>
      <trkpt lat="43.276450" lon="-4.269067">
        <ele>685.0</ele>
        <time>2015-04-28T13:44:19Z</time>
      </trkpt>
      <trkpt lat="43.276383" lon="-4.269217">
        <ele>686.0</ele>
        <time>2015-04-28T13:44:20Z</time>
      </trkpt>
      <trkpt lat="43.276317" lon="-4.269383">
        <ele>686.0</ele>
        <time>2015-04-28T13:44:21Z</time>
      </trkpt>
      <trkpt lat="43.276250" lon="-4.269550">
        <ele>685.0</ele>
        <time>2015-04-28T13:44:22Z</time>
      </trkpt>
      <trkpt lat="43.276200" lon="-4.269717">
        <ele>684.0</ele>
        <time>2015-04-28T13:44:23Z</time>
      </trkpt>
      <trkpt lat="43.276133" lon="-4.269883">
        <ele>683.0</ele>
        <time>2015-04-28T13:44:24Z</time>
      </trkpt>
      <trkpt lat="43.276083" lon="-4.270067">
        <ele>682.0</ele>
        <time>2015-04-28T13:44:25Z</time>
      </trkpt>
      <trkpt lat="43.276050" lon="-4.270217">
        <ele>683.0</ele>
        <time>2015-04-28T13:44:26Z</time>
      </trkpt>
      <trkpt lat="43.276033" lon="-4.270383">
        <ele>683.0</ele>
        <time>2015-04-28T13:44:27Z</time>
      </trkpt>
      <trkpt lat="43.276017" lon="-4.270533">
        <ele>683.0</ele>
        <time>2015-04-28T13:44:28Z</time>
      </trkpt>
      <trkpt lat="43.276000" lon="-4.270700">
        <ele>682.0</ele>
        <time>2015-04-28T13:44:29Z</time>
      </trkpt>
      <trkpt lat="43.275967" lon="-4.270883">
        <ele>681.0</ele>
        <time>2015-04-28T13:44:30Z</time>
      </trkpt>
      <trkpt lat="43.275950" lon="-4.271067">
        <ele>681.0</ele>
        <time>2015-04-28T13:44:31Z</time>
      </trkpt>
      <trkpt lat="43.275933" lon="-4.271250">
        <ele>680.0</ele>
        <time>2015-04-28T13:44:32Z</time>
      </trkpt>
      <trkpt lat="43.275933" lon="-4.271417">
        <ele>681.0</ele>
        <time>2015-04-28T13:44:33Z</time>
      </trkpt>
      <trkpt lat="43.275933" lon="-4.271583">
        <ele>682.0</ele>
        <time>2015-04-28T13:44:34Z</time>
      </trkpt>
      <trkpt lat="43.275933" lon="-4.271717">
        <ele>684.0</ele>
        <time>2015-04-28T13:44:35Z</time>
      </trkpt>
      <trkpt lat="43.275933" lon="-4.271833">
        <ele>686.0</ele>
        <time>2015-04-28T13:44:36Z</time>
      </trkpt>
      <trkpt lat="43.275900" lon="-4.271950">
        <ele>684.0</ele>
        <time>2015-04-28T13:44:37Z</time>
      </trkpt>
      <trkpt lat="43.275883" lon="-4.272100">
        <ele>685.0</ele>
        <time>2015-04-28T13:44:38Z</time>
      </trkpt>
      <trkpt lat="43.275883" lon="-4.272250">
        <ele>685.0</ele>
        <time>2015-04-28T13:44:39Z</time>
      </trkpt>
      <trkpt lat="43.275883" lon="-4.272417">
        <ele>685.0</ele>
        <time>2015-04-28T13:44:40Z</time>
      </trkpt>
      <trkpt lat="43.275883" lon="-4.272550">
        <ele>685.0</ele>
        <time>2015-04-28T13:44:41Z</time>
      </trkpt>
      <trkpt lat="43.275917" lon="-4.272650">
        <ele>684.0</ele>
        <time>2015-04-28T13:44:42Z</time>
      </trkpt>
      <trkpt lat="43.275950" lon="-4.272700">
        <ele>684.0</ele>
        <time>2015-04-28T13:44:43Z</time>
      </trkpt>
      <trkpt lat="43.275983" lon="-4.272733">
        <ele>684.0</ele>
        <time>2015-04-28T13:44:44Z</time>
      </trkpt>
      <trkpt lat="43.276017" lon="-4.272733">
        <ele>684.0</ele>
        <time>2015-04-28T13:44:45Z</time>
      </trkpt>
      <trkpt lat="43.276050" lon="-4.272717">
        <ele>684.0</ele>
        <time>2015-04-28T13:44:46Z</time>
      </trkpt>
      <trkpt lat="43.276083" lon="-4.272700">
        <ele>684.0</ele>
        <time>2015-04-28T13:44:47Z</time>
      </trkpt>
      <trkpt lat="43.276100" lon="-4.272683">
        <ele>684.0</ele>
        <time>2015-04-28T13:44:48Z</time>
      </trkpt>
      <trkpt lat="43.276133" lon="-4.272650">
        <ele>684.0</ele>
        <time>2015-04-28T13:44:49Z</time>
      </trkpt>
      <trkpt lat="43.276150" lon="-4.272617">
        <ele>684.0</ele>
        <time>2015-04-28T13:44:50Z</time>
      </trkpt>
      <trkpt lat="43.276183" lon="-4.272600">
        <ele>684.0</ele>
        <time>2015-04-28T13:44:51Z</time>
      </trkpt>
      <trkpt lat="43.276217" lon="-4.272617">
        <ele>684.0</ele>
        <time>2015-04-28T13:44:52Z</time>
      </trkpt>
      <trkpt lat="43.276250" lon="-4.272683">
        <ele>684.0</ele>
        <time>2015-04-28T13:44:53Z</time>
      </trkpt>
      <trkpt lat="43.276267" lon="-4.272800">
        <ele>683.0</ele>
        <time>2015-04-28T13:44:54Z</time>
      </trkpt>
      <trkpt lat="43.276283" lon="-4.272950">
        <ele>683.0</ele>
        <time>2015-04-28T13:44:55Z</time>
      </trkpt>
      <trkpt lat="43.276300" lon="-4.273117">
        <ele>683.0</ele>
        <time>2015-04-28T13:44:56Z</time>
      </trkpt>
      <trkpt lat="43.276317" lon="-4.273267">
        <ele>683.0</ele>
        <time>2015-04-28T13:44:57Z</time>
      </trkpt>
      <trkpt lat="43.276350" lon="-4.273433">
        <ele>683.0</ele>
        <time>2015-04-28T13:44:58Z</time>
      </trkpt>
      <trkpt lat="43.276367" lon="-4.273583">
        <ele>683.0</ele>
        <time>2015-04-28T13:44:59Z</time>
      </trkpt>
      <trkpt lat="43.276383" lon="-4.273750">
        <ele>685.0</ele>
        <time>2015-04-28T13:45:00Z</time>
      </trkpt>
      <trkpt lat="43.276367" lon="-4.273917">
        <ele>686.0</ele>
        <time>2015-04-28T13:45:01Z</time>
      </trkpt>
      <trkpt lat="43.276317" lon="-4.274067">
        <ele>687.0</ele>
        <time>2015-04-28T13:45:02Z</time>
      </trkpt>
      <trkpt lat="43.276283" lon="-4.274217">
        <ele>687.0</ele>
        <time>2015-04-28T13:45:03Z</time>
      </trkpt>
      <trkpt lat="43.276250" lon="-4.274367">
        <ele>688.0</ele>
        <time>2015-04-28T13:45:04Z</time>
      </trkpt>
      <trkpt lat="43.276233" lon="-4.274533">
        <ele>689.0</ele>
        <time>2015-04-28T13:45:05Z</time>
      </trkpt>
      <trkpt lat="43.276217" lon="-4.274700">
        <ele>689.0</ele>
        <time>2015-04-28T13:45:06Z</time>
      </trkpt>
      <trkpt lat="43.276217" lon="-4.274867">
        <ele>691.0</ele>
        <time>2015-04-28T13:45:07Z</time>
      </trkpt>
      <trkpt lat="43.276233" lon="-4.275017">
        <ele>692.0</ele>
        <time>2015-04-28T13:45:08Z</time>
      </trkpt>
      <trkpt lat="43.276250" lon="-4.275167">
        <ele>694.0</ele>
        <time>2015-04-28T13:45:09Z</time>
      </trkpt>
      <trkpt lat="43.276283" lon="-4.275267">
        <ele>694.0</ele>
        <time>2015-04-28T13:45:10Z</time>
      </trkpt>
      <trkpt lat="43.276317" lon="-4.275350">
        <ele>691.0</ele>
        <time>2015-04-28T13:45:11Z</time>
      </trkpt>
      <trkpt lat="43.276367" lon="-4.275417">
        <ele>691.0</ele>
        <time>2015-04-28T13:45:12Z</time>
      </trkpt>
      <trkpt lat="43.276433" lon="-4.275450">
        <ele>691.0</ele>
        <time>2015-04-28T13:45:13Z</time>
      </trkpt>
      <trkpt lat="43.276467" lon="-4.275467">
        <ele>692.0</ele>
        <time>2015-04-28T13:45:14Z</time>
      </trkpt>
      <trkpt lat="43.276500" lon="-4.275450">
        <ele>692.0</ele>
        <time>2015-04-28T13:45:15Z</time>
      </trkpt>
      <trkpt lat="43.276517" lon="-4.275433">
        <ele>692.0</ele>
        <time>2015-04-28T13:45:16Z</time>
      </trkpt>
      <trkpt lat="43.276517" lon="-4.275383">
        <ele>692.0</ele>
        <time>2015-04-28T13:45:17Z</time>
      </trkpt>
      <trkpt lat="43.276467" lon="-4.275333">
        <ele>692.0</ele>
        <time>2015-04-28T13:45:18Z</time>
      </trkpt>
      <trkpt lat="43.276400" lon="-4.275283">
        <ele>692.0</ele>
        <time>2015-04-28T13:45:19Z</time>
      </trkpt>
      <trkpt lat="43.276333" lon="-4.275233">
        <ele>692.0</ele>
        <time>2015-04-28T13:45:20Z</time>
      </trkpt>
      <trkpt lat="43.276267" lon="-4.275200">
        <ele>692.0</ele>
        <time>2015-04-28T13:45:21Z</time>
      </trkpt>
      <trkpt lat="43.276217" lon="-4.275183">
        <ele>692.0</ele>
        <time>2015-04-28T13:45:22Z</time>
      </trkpt>
      <trkpt lat="43.276150" lon="-4.275150">
        <ele>693.0</ele>
        <time>2015-04-28T13:45:23Z</time>
      </trkpt>
      <trkpt lat="43.276083" lon="-4.275133">
        <ele>693.0</ele>
        <time>2015-04-28T13:45:24Z</time>
      </trkpt>
      <trkpt lat="43.276033" lon="-4.275083">
        <ele>693.0</ele>
        <time>2015-04-28T13:45:25Z</time>
      </trkpt>
      <trkpt lat="43.276000" lon="-4.275067">
        <ele>694.0</ele>
        <time>2015-04-28T13:45:26Z</time>
      </trkpt>
      <trkpt lat="43.275950" lon="-4.275050">
        <ele>695.0</ele>
        <time>2015-04-28T13:45:27Z</time>
      </trkpt>
      <trkpt lat="43.275900" lon="-4.275017">
        <ele>695.0</ele>
        <time>2015-04-28T13:45:28Z</time>
      </trkpt>
      <trkpt lat="43.275850" lon="-4.274983">
        <ele>696.0</ele>
        <time>2015-04-28T13:45:29Z</time>
      </trkpt>
      <trkpt lat="43.275817" lon="-4.274933">
        <ele>696.0</ele>
        <time>2015-04-28T13:45:30Z</time>
      </trkpt>
      <trkpt lat="43.275800" lon="-4.274883">
        <ele>697.0</ele>
        <time>2015-04-28T13:45:31Z</time>
      </trkpt>
      <trkpt lat="43.275783" lon="-4.274867">
        <ele>697.0</ele>
        <time>2015-04-28T13:45:32Z</time>
      </trkpt>
      <trkpt lat="43.275783" lon="-4.274867">
        <ele>697.0</ele>
        <time>2015-04-28T13:45:33Z</time>
      </trkpt>
      <trkpt lat="43.275783" lon="-4.274867">
        <ele>697.0</ele>
        <time>2015-04-28T13:45:34Z</time>
      </trkpt>
      <trkpt lat="43.275783" lon="-4.274867">
        <ele>698.0</ele>
        <time>2015-04-28T13:45:35Z</time>
      </trkpt>
      <trkpt lat="43.275800" lon="-4.274867">
        <ele>698.0</ele>
        <time>2015-04-28T13:45:36Z</time>
      </trkpt>
      <trkpt lat="43.275833" lon="-4.274900">
        <ele>699.0</ele>
        <time>2015-04-28T13:45:37Z</time>
      </trkpt>
      <trkpt lat="43.275867" lon="-4.274983">
        <ele>699.0</ele>
        <time>2015-04-28T13:45:38Z</time>
      </trkpt>
      <trkpt lat="43.275883" lon="-4.275117">
        <ele>699.0</ele>
        <time>2015-04-28T13:45:39Z</time>
      </trkpt>
      <trkpt lat="43.275867" lon="-4.275283">
        <ele>700.0</ele>
        <time>2015-04-28T13:45:40Z</time>
      </trkpt>
      <trkpt lat="43.275833" lon="-4.275433">
        <ele>701.0</ele>
        <time>2015-04-28T13:45:41Z</time>
      </trkpt>
      <trkpt lat="43.275817" lon="-4.275583">
        <ele>703.0</ele>
        <time>2015-04-28T13:45:42Z</time>
      </trkpt>
      <trkpt lat="43.275833" lon="-4.275700">
        <ele>705.0</ele>
        <time>2015-04-28T13:45:43Z</time>
      </trkpt>
      <trkpt lat="43.275833" lon="-4.275817">
        <ele>705.0</ele>
        <time>2015-04-28T13:45:44Z</time>
      </trkpt>
      <trkpt lat="43.275833" lon="-4.275933">
        <ele>705.0</ele>
        <time>2015-04-28T13:45:45Z</time>
      </trkpt>
      <trkpt lat="43.275817" lon="-4.276050">
        <ele>706.0</ele>
        <time>2015-04-28T13:45:46Z</time>
      </trkpt>
      <trkpt lat="43.275767" lon="-4.276183">
        <ele>707.0</ele>
        <time>2015-04-28T13:45:47Z</time>
      </trkpt>
      <trkpt lat="43.275733" lon="-4.276333">
        <ele>708.0</ele>
        <time>2015-04-28T13:45:48Z</time>
      </trkpt>
      <trkpt lat="43.275683" lon="-4.276483">
        <ele>708.0</ele>
        <time>2015-04-28T13:45:49Z</time>
      </trkpt>
      <trkpt lat="43.275650" lon="-4.276617">
        <ele>709.0</ele>
        <time>2015-04-28T13:45:50Z</time>
      </trkpt>
      <trkpt lat="43.275667" lon="-4.276767">
        <ele>710.0</ele>
        <time>2015-04-28T13:45:51Z</time>
      </trkpt>
      <trkpt lat="43.275683" lon="-4.276883">
        <ele>711.0</ele>
        <time>2015-04-28T13:45:52Z</time>
      </trkpt>
      <trkpt lat="43.275717" lon="-4.276950">
        <ele>710.0</ele>
        <time>2015-04-28T13:45:53Z</time>
      </trkpt>
      <trkpt lat="43.275767" lon="-4.277000">
        <ele>710.0</ele>
        <time>2015-04-28T13:45:54Z</time>
      </trkpt>
      <trkpt lat="43.275800" lon="-4.277000">
        <ele>710.0</ele>
        <time>2015-04-28T13:45:55Z</time>
      </trkpt>
      <trkpt lat="43.275833" lon="-4.276967">
        <ele>711.0</ele>
        <time>2015-04-28T13:45:56Z</time>
      </trkpt>
      <trkpt lat="43.275850" lon="-4.276933">
        <ele>711.0</ele>
        <time>2015-04-28T13:45:57Z</time>
      </trkpt>
      <trkpt lat="43.275867" lon="-4.276883">
        <ele>712.0</ele>
        <time>2015-04-28T13:45:58Z</time>
      </trkpt>
      <trkpt lat="43.275867" lon="-4.276833">
        <ele>712.0</ele>
        <time>2015-04-28T13:45:59Z</time>
      </trkpt>
      <trkpt lat="43.275833" lon="-4.276800">
        <ele>713.0</ele>
        <time>2015-04-28T13:46:00Z</time>
      </trkpt>
      <trkpt lat="43.275800" lon="-4.276767">
        <ele>713.0</ele>
        <time>2015-04-28T13:46:01Z</time>
      </trkpt>
      <trkpt lat="43.275733" lon="-4.276733">
        <ele>714.0</ele>
        <time>2015-04-28T13:46:02Z</time>
      </trkpt>
      <trkpt lat="43.275650" lon="-4.276700">
        <ele>715.0</ele>
        <time>2015-04-28T13:46:03Z</time>
      </trkpt>
      <trkpt lat="43.275550" lon="-4.276717">
        <ele>715.0</ele>
        <time>2015-04-28T13:46:04Z</time>
      </trkpt>
      <trkpt lat="43.275450" lon="-4.276800">
        <ele>716.0</ele>
        <time>2015-04-28T13:46:05Z</time>
      </trkpt>
      <trkpt lat="43.275383" lon="-4.276950">
        <ele>716.0</ele>
        <time>2015-04-28T13:46:06Z</time>
      </trkpt>
      <trkpt lat="43.275367" lon="-4.277083">
        <ele>716.0</ele>
        <time>2015-04-28T13:46:07Z</time>
      </trkpt>
      <trkpt lat="43.275400" lon="-4.277217">
        <ele>716.0</ele>
        <time>2015-04-28T13:46:08Z</time>
      </trkpt>
      <trkpt lat="43.275433" lon="-4.277300">
        <ele>717.0</ele>
        <time>2015-04-28T13:46:09Z</time>
      </trkpt>
      <trkpt lat="43.275483" lon="-4.277367">
        <ele>718.0</ele>
        <time>2015-04-28T13:46:10Z</time>
      </trkpt>
      <trkpt lat="43.275517" lon="-4.277433">
        <ele>719.0</ele>
        <time>2015-04-28T13:46:11Z</time>
      </trkpt>
      <trkpt lat="43.275533" lon="-4.277500">
        <ele>720.0</ele>
        <time>2015-04-28T13:46:12Z</time>
      </trkpt>
      <trkpt lat="43.275567" lon="-4.277583">
        <ele>720.0</ele>
        <time>2015-04-28T13:46:13Z</time>
      </trkpt>
      <trkpt lat="43.275600" lon="-4.277650">
        <ele>720.0</ele>
        <time>2015-04-28T13:46:14Z</time>
      </trkpt>
      <trkpt lat="43.275650" lon="-4.277717">
        <ele>721.0</ele>
        <time>2015-04-28T13:46:15Z</time>
      </trkpt>
      <trkpt lat="43.275717" lon="-4.277767">
        <ele>722.0</ele>
        <time>2015-04-28T13:46:16Z</time>
      </trkpt>
      <trkpt lat="43.275767" lon="-4.277783">
        <ele>722.0</ele>
        <time>2015-04-28T13:46:17Z</time>
      </trkpt>
      <trkpt lat="43.275817" lon="-4.277800">
        <ele>723.0</ele>
        <time>2015-04-28T13:46:18Z</time>
      </trkpt>
      <trkpt lat="43.275867" lon="-4.277817">
        <ele>723.0</ele>
        <time>2015-04-28T13:46:19Z</time>
      </trkpt>
      <trkpt lat="43.275900" lon="-4.277850">
        <ele>724.0</ele>
        <time>2015-04-28T13:46:20Z</time>
      </trkpt>
      <trkpt lat="43.275950" lon="-4.277867">
        <ele>724.0</ele>
        <time>2015-04-28T13:46:21Z</time>
      </trkpt>
      <trkpt lat="43.275967" lon="-4.277867">
        <ele>724.0</ele>
        <time>2015-04-28T13:46:22Z</time>
      </trkpt>
      <trkpt lat="43.276000" lon="-4.277883">
        <ele>725.0</ele>
        <time>2015-04-28T13:46:23Z</time>
      </trkpt>
      <trkpt lat="43.276017" lon="-4.277883">
        <ele>725.0</ele>
        <time>2015-04-28T13:46:24Z</time>
      </trkpt>
      <trkpt lat="43.276050" lon="-4.277867">
        <ele>726.0</ele>
        <time>2015-04-28T13:46:25Z</time>
      </trkpt>
      <trkpt lat="43.276050" lon="-4.277833">
        <ele>727.0</ele>
        <time>2015-04-28T13:46:26Z</time>
      </trkpt>
      <trkpt lat="43.276017" lon="-4.277767">
        <ele>727.0</ele>
        <time>2015-04-28T13:46:27Z</time>
      </trkpt>
      <trkpt lat="43.275917" lon="-4.277717">
        <ele>728.0</ele>
        <time>2015-04-28T13:46:28Z</time>
      </trkpt>
      <trkpt lat="43.275800" lon="-4.277700">
        <ele>728.0</ele>
        <time>2015-04-28T13:46:29Z</time>
      </trkpt>
      <trkpt lat="43.275667" lon="-4.277767">
        <ele>728.0</ele>
        <time>2015-04-28T13:46:30Z</time>
      </trkpt>
      <trkpt lat="43.275567" lon="-4.277883">
        <ele>729.0</ele>
        <time>2015-04-28T13:46:31Z</time>
      </trkpt>
      <trkpt lat="43.275483" lon="-4.278017">
        <ele>729.0</ele>
        <time>2015-04-28T13:46:32Z</time>
      </trkpt>
      <trkpt lat="43.275433" lon="-4.278183">
        <ele>730.0</ele>
        <time>2015-04-28T13:46:33Z</time>
      </trkpt>
      <trkpt lat="43.275417" lon="-4.278333">
        <ele>732.0</ele>
        <time>2015-04-28T13:46:34Z</time>
      </trkpt>
      <trkpt lat="43.275433" lon="-4.278450">
        <ele>733.0</ele>
        <time>2015-04-28T13:46:35Z</time>
      </trkpt>
      <trkpt lat="43.275450" lon="-4.278533">
        <ele>732.0</ele>
        <time>2015-04-28T13:46:36Z</time>
      </trkpt>
      <trkpt lat="43.275467" lon="-4.278617">
        <ele>733.0</ele>
        <time>2015-04-28T13:46:37Z</time>
      </trkpt>
      <trkpt lat="43.275483" lon="-4.278717">
        <ele>734.0</ele>
        <time>2015-04-28T13:46:38Z</time>
      </trkpt>
      <trkpt lat="43.275500" lon="-4.278817">
        <ele>736.0</ele>
        <time>2015-04-28T13:46:39Z</time>
      </trkpt>
      <trkpt lat="43.275500" lon="-4.278900">
        <ele>737.0</ele>
        <time>2015-04-28T13:46:40Z</time>
      </trkpt>
      <trkpt lat="43.275517" lon="-4.279000">
        <ele>737.0</ele>
        <time>2015-04-28T13:46:41Z</time>
      </trkpt>
      <trkpt lat="43.275517" lon="-4.279083">
        <ele>738.0</ele>
        <time>2015-04-28T13:46:42Z</time>
      </trkpt>
      <trkpt lat="43.275517" lon="-4.279167">
        <ele>739.0</ele>
        <time>2015-04-28T13:46:43Z</time>
      </trkpt>
      <trkpt lat="43.275550" lon="-4.279217">
        <ele>739.0</ele>
        <time>2015-04-28T13:46:44Z</time>
      </trkpt>
      <trkpt lat="43.275583" lon="-4.279233">
        <ele>740.0</ele>
        <time>2015-04-28T13:46:45Z</time>
      </trkpt>
      <trkpt lat="43.275600" lon="-4.279217">
        <ele>740.0</ele>
        <time>2015-04-28T13:46:46Z</time>
      </trkpt>
      <trkpt lat="43.275600" lon="-4.279167">
        <ele>741.0</ele>
        <time>2015-04-28T13:46:47Z</time>
      </trkpt>
      <trkpt lat="43.275550" lon="-4.279117">
        <ele>742.0</ele>
        <time>2015-04-28T13:46:48Z</time>
      </trkpt>
      <trkpt lat="43.275483" lon="-4.279083">
        <ele>742.0</ele>
        <time>2015-04-28T13:46:49Z</time>
      </trkpt>
      <trkpt lat="43.275400" lon="-4.279050">
        <ele>743.0</ele>
        <time>2015-04-28T13:46:50Z</time>
      </trkpt>
      <trkpt lat="43.275283" lon="-4.279067">
        <ele>744.0</ele>
        <time>2015-04-28T13:46:51Z</time>
      </trkpt>
      <trkpt lat="43.275183" lon="-4.279150">
        <ele>744.0</ele>
        <time>2015-04-28T13:46:52Z</time>
      </trkpt>
      <trkpt lat="43.275083" lon="-4.279267">
        <ele>744.0</ele>
        <time>2015-04-28T13:46:53Z</time>
      </trkpt>
      <trkpt lat="43.275017" lon="-4.279417">
        <ele>745.0</ele>
        <time>2015-04-28T13:46:54Z</time>
      </trkpt>
      <trkpt lat="43.274967" lon="-4.279583">
        <ele>746.0</ele>
        <time>2015-04-28T13:46:55Z</time>
      </trkpt>
      <trkpt lat="43.274950" lon="-4.279733">
        <ele>748.0</ele>
        <time>2015-04-28T13:46:56Z</time>
      </trkpt>
      <trkpt lat="43.274900" lon="-4.279867">
        <ele>749.0</ele>
        <time>2015-04-28T13:46:57Z</time>
      </trkpt>
      <trkpt lat="43.274867" lon="-4.280017">
        <ele>750.0</ele>
        <time>2015-04-28T13:46:58Z</time>
      </trkpt>
      <trkpt lat="43.274850" lon="-4.280183">
        <ele>751.0</ele>
        <time>2015-04-28T13:46:59Z</time>
      </trkpt>
      <trkpt lat="43.274850" lon="-4.280333">
        <ele>753.0</ele>
        <time>2015-04-28T13:47:00Z</time>
      </trkpt>
      <trkpt lat="43.274850" lon="-4.280483">
        <ele>754.0</ele>
        <time>2015-04-28T13:47:01Z</time>
      </trkpt>
      <trkpt lat="43.274850" lon="-4.280633">
        <ele>758.0</ele>
        <time>2015-04-28T13:47:02Z</time>
      </trkpt>
      <trkpt lat="43.274833" lon="-4.280783">
        <ele>762.0</ele>
        <time>2015-04-28T13:47:03Z</time>
      </trkpt>
      <trkpt lat="43.274833" lon="-4.280900">
        <ele>765.0</ele>
        <time>2015-04-28T13:47:04Z</time>
      </trkpt>
      <trkpt lat="43.274833" lon="-4.281017">
        <ele>764.0</ele>
        <time>2015-04-28T13:47:05Z</time>
      </trkpt>
      <trkpt lat="43.274833" lon="-4.281150">
        <ele>765.0</ele>
        <time>2015-04-28T13:47:06Z</time>
      </trkpt>
      <trkpt lat="43.274833" lon="-4.281283">
        <ele>766.0</ele>
        <time>2015-04-28T13:47:07Z</time>
      </trkpt>
      <trkpt lat="43.274850" lon="-4.281433">
        <ele>767.0</ele>
        <time>2015-04-28T13:47:08Z</time>
      </trkpt>
      <trkpt lat="43.274850" lon="-4.281583">
        <ele>769.0</ele>
        <time>2015-04-28T13:47:09Z</time>
      </trkpt>
      <trkpt lat="43.274867" lon="-4.281717">
        <ele>769.0</ele>
        <time>2015-04-28T13:47:10Z</time>
      </trkpt>
      <trkpt lat="43.274867" lon="-4.281850">
        <ele>770.0</ele>
        <time>2015-04-28T13:47:11Z</time>
      </trkpt>
      <trkpt lat="43.274867" lon="-4.281983">
        <ele>770.0</ele>
        <time>2015-04-28T13:47:12Z</time>
      </trkpt>
      <trkpt lat="43.274883" lon="-4.282117">
        <ele>769.0</ele>
        <time>2015-04-28T13:47:13Z</time>
      </trkpt>
      <trkpt lat="43.274900" lon="-4.282233">
        <ele>769.0</ele>
        <time>2015-04-28T13:47:14Z</time>
      </trkpt>
      <trkpt lat="43.274917" lon="-4.282367">
        <ele>768.0</ele>
        <time>2015-04-28T13:47:15Z</time>
      </trkpt>
      <trkpt lat="43.274917" lon="-4.282483">
        <ele>769.0</ele>
        <time>2015-04-28T13:47:16Z</time>
      </trkpt>
      <trkpt lat="43.274933" lon="-4.282617">
        <ele>769.0</ele>
        <time>2015-04-28T13:47:17Z</time>
      </trkpt>
      <trkpt lat="43.274950" lon="-4.282750">
        <ele>769.0</ele>
        <time>2015-04-28T13:47:18Z</time>
      </trkpt>
      <trkpt lat="43.274950" lon="-4.282867">
        <ele>769.0</ele>
        <time>2015-04-28T13:47:19Z</time>
      </trkpt>
      <trkpt lat="43.274967" lon="-4.283000">
        <ele>769.0</ele>
        <time>2015-04-28T13:47:20Z</time>
      </trkpt>
      <trkpt lat="43.274983" lon="-4.283133">
        <ele>769.0</ele>
        <time>2015-04-28T13:47:21Z</time>
      </trkpt>
      <trkpt lat="43.274983" lon="-4.283267">
        <ele>769.0</ele>
        <time>2015-04-28T13:47:22Z</time>
      </trkpt>
      <trkpt lat="43.275000" lon="-4.283400">
        <ele>768.0</ele>
        <time>2015-04-28T13:47:23Z</time>
      </trkpt>
      <trkpt lat="43.275017" lon="-4.283533">
        <ele>768.0</ele>
        <time>2015-04-28T13:47:24Z</time>
      </trkpt>
      <trkpt lat="43.275033" lon="-4.283667">
        <ele>768.0</ele>
        <time>2015-04-28T13:47:25Z</time>
      </trkpt>
      <trkpt lat="43.275033" lon="-4.283817">
        <ele>768.0</ele>
        <time>2015-04-28T13:47:26Z</time>
      </trkpt>
      <trkpt lat="43.275050" lon="-4.283950">
        <ele>767.0</ele>
        <time>2015-04-28T13:47:27Z</time>
      </trkpt>
      <trkpt lat="43.275050" lon="-4.284083">
        <ele>766.0</ele>
        <time>2015-04-28T13:47:28Z</time>
      </trkpt>
      <trkpt lat="43.275067" lon="-4.284217">
        <ele>764.0</ele>
        <time>2015-04-28T13:47:29Z</time>
      </trkpt>
      <trkpt lat="43.275067" lon="-4.284367">
        <ele>762.0</ele>
        <time>2015-04-28T13:47:30Z</time>
      </trkpt>
      <trkpt lat="43.275083" lon="-4.284517">
        <ele>760.0</ele>
        <time>2015-04-28T13:47:31Z</time>
      </trkpt>
      <trkpt lat="43.275083" lon="-4.284667">
        <ele>759.0</ele>
        <time>2015-04-28T13:47:32Z</time>
      </trkpt>
      <trkpt lat="43.275083" lon="-4.284817">
        <ele>758.0</ele>
        <time>2015-04-28T13:47:33Z</time>
      </trkpt>
      <trkpt lat="43.275083" lon="-4.284967">
        <ele>756.0</ele>
        <time>2015-04-28T13:47:34Z</time>
      </trkpt>
      <trkpt lat="43.275083" lon="-4.285117">
        <ele>755.0</ele>
        <time>2015-04-28T13:47:35Z</time>
      </trkpt>
      <trkpt lat="43.275100" lon="-4.285267">
        <ele>753.0</ele>
        <time>2015-04-28T13:47:36Z</time>
      </trkpt>
      <trkpt lat="43.275083" lon="-4.285433">
        <ele>751.0</ele>
        <time>2015-04-28T13:47:37Z</time>
      </trkpt>
      <trkpt lat="43.275083" lon="-4.285600">
        <ele>750.0</ele>
        <time>2015-04-28T13:47:38Z</time>
      </trkpt>
      <trkpt lat="43.275050" lon="-4.285750">
        <ele>749.0</ele>
        <time>2015-04-28T13:47:39Z</time>
      </trkpt>
      <trkpt lat="43.275033" lon="-4.285883">
        <ele>748.0</ele>
        <time>2015-04-28T13:47:40Z</time>
      </trkpt>
      <trkpt lat="43.275017" lon="-4.286033">
        <ele>746.0</ele>
        <time>2015-04-28T13:47:41Z</time>
      </trkpt>
      <trkpt lat="43.275000" lon="-4.286200">
        <ele>744.0</ele>
        <time>2015-04-28T13:47:42Z</time>
      </trkpt>
      <trkpt lat="43.275000" lon="-4.286367">
        <ele>742.0</ele>
        <time>2015-04-28T13:47:43Z</time>
      </trkpt>
      <trkpt lat="43.274983" lon="-4.286533">
        <ele>741.0</ele>
        <time>2015-04-28T13:47:44Z</time>
      </trkpt>
      <trkpt lat="43.274950" lon="-4.286700">
        <ele>740.0</ele>
        <time>2015-04-28T13:47:45Z</time>
      </trkpt>
      <trkpt lat="43.274933" lon="-4.286867">
        <ele>740.0</ele>
        <time>2015-04-28T13:47:46Z</time>
      </trkpt>
      <trkpt lat="43.274917" lon="-4.287017">
        <ele>739.0</ele>
        <time>2015-04-28T13:47:47Z</time>
      </trkpt>
      <trkpt lat="43.274883" lon="-4.287167">
        <ele>737.0</ele>
        <time>2015-04-28T13:47:48Z</time>
      </trkpt>
      <trkpt lat="43.274867" lon="-4.287333">
        <ele>736.0</ele>
        <time>2015-04-28T13:47:49Z</time>
      </trkpt>
      <trkpt lat="43.274833" lon="-4.287517">
        <ele>734.0</ele>
        <time>2015-04-28T13:47:50Z</time>
      </trkpt>
      <trkpt lat="43.274800" lon="-4.287683">
        <ele>733.0</ele>
        <time>2015-04-28T13:47:51Z</time>
      </trkpt>
      <trkpt lat="43.274783" lon="-4.287867">
        <ele>733.0</ele>
        <time>2015-04-28T13:47:52Z</time>
      </trkpt>
      <trkpt lat="43.274767" lon="-4.288033">
        <ele>732.0</ele>
        <time>2015-04-28T13:47:53Z</time>
      </trkpt>
      <trkpt lat="43.274750" lon="-4.288183">
        <ele>731.0</ele>
        <time>2015-04-28T13:47:54Z</time>
      </trkpt>
      <trkpt lat="43.274733" lon="-4.288350">
        <ele>730.0</ele>
        <time>2015-04-28T13:47:55Z</time>
      </trkpt>
      <trkpt lat="43.274717" lon="-4.288533">
        <ele>729.0</ele>
        <time>2015-04-28T13:47:56Z</time>
      </trkpt>
      <trkpt lat="43.274700" lon="-4.288717">
        <ele>729.0</ele>
        <time>2015-04-28T13:47:57Z</time>
      </trkpt>
      <trkpt lat="43.274683" lon="-4.288883">
        <ele>730.0</ele>
        <time>2015-04-28T13:47:58Z</time>
      </trkpt>
      <trkpt lat="43.274667" lon="-4.289050">
        <ele>730.0</ele>
        <time>2015-04-28T13:47:59Z</time>
      </trkpt>
      <trkpt lat="43.274650" lon="-4.289217">
        <ele>729.0</ele>
        <time>2015-04-28T13:48:00Z</time>
      </trkpt>
      <trkpt lat="43.274633" lon="-4.289383">
        <ele>729.0</ele>
        <time>2015-04-28T13:48:01Z</time>
      </trkpt>
      <trkpt lat="43.274617" lon="-4.289550">
        <ele>729.0</ele>
        <time>2015-04-28T13:48:02Z</time>
      </trkpt>
      <trkpt lat="43.274600" lon="-4.289717">
        <ele>728.0</ele>
        <time>2015-04-28T13:48:03Z</time>
      </trkpt>
      <trkpt lat="43.274567" lon="-4.289867">
        <ele>728.0</ele>
        <time>2015-04-28T13:48:04Z</time>
      </trkpt>
      <trkpt lat="43.274550" lon="-4.290017">
        <ele>727.0</ele>
        <time>2015-04-28T13:48:05Z</time>
      </trkpt>
      <trkpt lat="43.274533" lon="-4.290200">
        <ele>727.0</ele>
        <time>2015-04-28T13:48:06Z</time>
      </trkpt>
      <trkpt lat="43.274533" lon="-4.290367">
        <ele>728.0</ele>
        <time>2015-04-28T13:48:07Z</time>
      </trkpt>
      <trkpt lat="43.274517" lon="-4.290533">
        <ele>727.0</ele>
        <time>2015-04-28T13:48:08Z</time>
      </trkpt>
      <trkpt lat="43.274483" lon="-4.290667">
        <ele>728.0</ele>
        <time>2015-04-28T13:48:09Z</time>
      </trkpt>
      <trkpt lat="43.274450" lon="-4.290833">
        <ele>727.0</ele>
        <time>2015-04-28T13:48:10Z</time>
      </trkpt>
      <trkpt lat="43.274417" lon="-4.290983">
        <ele>726.0</ele>
        <time>2015-04-28T13:48:11Z</time>
      </trkpt>
      <trkpt lat="43.274400" lon="-4.291133">
        <ele>725.0</ele>
        <time>2015-04-28T13:48:12Z</time>
      </trkpt>
      <trkpt lat="43.274383" lon="-4.291300">
        <ele>725.0</ele>
        <time>2015-04-28T13:48:13Z</time>
      </trkpt>
      <trkpt lat="43.274383" lon="-4.291467">
        <ele>725.0</ele>
        <time>2015-04-28T13:48:14Z</time>
      </trkpt>
      <trkpt lat="43.274350" lon="-4.291617">
        <ele>725.0</ele>
        <time>2015-04-28T13:48:15Z</time>
      </trkpt>
      <trkpt lat="43.274333" lon="-4.291767">
        <ele>725.0</ele>
        <time>2015-04-28T13:48:16Z</time>
      </trkpt>
      <trkpt lat="43.274317" lon="-4.291917">
        <ele>724.0</ele>
        <time>2015-04-28T13:48:17Z</time>
      </trkpt>
      <trkpt lat="43.274317" lon="-4.292083">
        <ele>723.0</ele>
        <time>2015-04-28T13:48:18Z</time>
      </trkpt>
      <trkpt lat="43.274283" lon="-4.292250">
        <ele>723.0</ele>
        <time>2015-04-28T13:48:19Z</time>
      </trkpt>
      <trkpt lat="43.274267" lon="-4.292417">
        <ele>723.0</ele>
        <time>2015-04-28T13:48:20Z</time>
      </trkpt>
      <trkpt lat="43.274267" lon="-4.292583">
        <ele>724.0</ele>
        <time>2015-04-28T13:48:21Z</time>
      </trkpt>
      <trkpt lat="43.274250" lon="-4.292733">
        <ele>725.0</ele>
        <time>2015-04-28T13:48:22Z</time>
      </trkpt>
      <trkpt lat="43.274233" lon="-4.292883">
        <ele>726.0</ele>
        <time>2015-04-28T13:48:23Z</time>
      </trkpt>
      <trkpt lat="43.274217" lon="-4.293033">
        <ele>725.0</ele>
        <time>2015-04-28T13:48:24Z</time>
      </trkpt>
      <trkpt lat="43.274183" lon="-4.293183">
        <ele>726.0</ele>
        <time>2015-04-28T13:48:25Z</time>
      </trkpt>
      <trkpt lat="43.274167" lon="-4.293333">
        <ele>726.0</ele>
        <time>2015-04-28T13:48:26Z</time>
      </trkpt>
      <trkpt lat="43.274150" lon="-4.293483">
        <ele>726.0</ele>
        <time>2015-04-28T13:48:27Z</time>
      </trkpt>
      <trkpt lat="43.274117" lon="-4.293633">
        <ele>727.0</ele>
        <time>2015-04-28T13:48:28Z</time>
      </trkpt>
      <trkpt lat="43.274100" lon="-4.293783">
        <ele>727.0</ele>
        <time>2015-04-28T13:48:29Z</time>
      </trkpt>
      <trkpt lat="43.274083" lon="-4.293950">
        <ele>728.0</ele>
        <time>2015-04-28T13:48:30Z</time>
      </trkpt>
      <trkpt lat="43.274083" lon="-4.294100">
        <ele>729.0</ele>
        <time>2015-04-28T13:48:31Z</time>
      </trkpt>
      <trkpt lat="43.274083" lon="-4.294267">
        <ele>729.0</ele>
        <time>2015-04-28T13:48:32Z</time>
      </trkpt>
      <trkpt lat="43.274083" lon="-4.294433">
        <ele>730.0</ele>
        <time>2015-04-28T13:48:33Z</time>
      </trkpt>
      <trkpt lat="43.274083" lon="-4.294567">
        <ele>731.0</ele>
        <time>2015-04-28T13:48:34Z</time>
      </trkpt>
      <trkpt lat="43.274067" lon="-4.294700">
        <ele>732.0</ele>
        <time>2015-04-28T13:48:35Z</time>
      </trkpt>
      <trkpt lat="43.274050" lon="-4.294833">
        <ele>733.0</ele>
        <time>2015-04-28T13:48:36Z</time>
      </trkpt>
      <trkpt lat="43.274033" lon="-4.294933">
        <ele>732.0</ele>
        <time>2015-04-28T13:48:37Z</time>
      </trkpt>
      <trkpt lat="43.274017" lon="-4.295017">
        <ele>732.0</ele>
        <time>2015-04-28T13:48:38Z</time>
      </trkpt>
      <trkpt lat="43.274017" lon="-4.295100">
        <ele>733.0</ele>
        <time>2015-04-28T13:48:39Z</time>
      </trkpt>
      <trkpt lat="43.274000" lon="-4.295167">
        <ele>734.0</ele>
        <time>2015-04-28T13:48:40Z</time>
      </trkpt>
      <trkpt lat="43.274000" lon="-4.295233">
        <ele>736.0</ele>
        <time>2015-04-28T13:48:41Z</time>
      </trkpt>
      <trkpt lat="43.273983" lon="-4.295333">
        <ele>736.0</ele>
        <time>2015-04-28T13:48:42Z</time>
      </trkpt>
      <trkpt lat="43.273983" lon="-4.295417">
        <ele>736.0</ele>
        <time>2015-04-28T13:48:43Z</time>
      </trkpt>
      <trkpt lat="43.274017" lon="-4.295483">
        <ele>736.0</ele>
        <time>2015-04-28T13:48:44Z</time>
      </trkpt>
      <trkpt lat="43.274033" lon="-4.295517">
        <ele>737.0</ele>
        <time>2015-04-28T13:48:45Z</time>
      </trkpt>
      <trkpt lat="43.274050" lon="-4.295517">
        <ele>737.0</ele>
        <time>2015-04-28T13:48:46Z</time>
      </trkpt>
      <trkpt lat="43.274067" lon="-4.295467">
        <ele>737.0</ele>
        <time>2015-04-28T13:48:47Z</time>
      </trkpt>
      <trkpt lat="43.274050" lon="-4.295400">
        <ele>738.0</ele>
        <time>2015-04-28T13:48:48Z</time>
      </trkpt>
      <trkpt lat="43.274017" lon="-4.295350">
        <ele>738.0</ele>
        <time>2015-04-28T13:48:49Z</time>
      </trkpt>
      <trkpt lat="43.273933" lon="-4.295283">
        <ele>739.0</ele>
        <time>2015-04-28T13:48:50Z</time>
      </trkpt>
      <trkpt lat="43.273850" lon="-4.295267">
        <ele>739.0</ele>
        <time>2015-04-28T13:48:51Z</time>
      </trkpt>
      <trkpt lat="43.273750" lon="-4.295283">
        <ele>739.0</ele>
        <time>2015-04-28T13:48:52Z</time>
      </trkpt>
      <trkpt lat="43.273650" lon="-4.295367">
        <ele>739.0</ele>
        <time>2015-04-28T13:48:53Z</time>
      </trkpt>
      <trkpt lat="43.273567" lon="-4.295500">
        <ele>739.0</ele>
        <time>2015-04-28T13:48:54Z</time>
      </trkpt>
      <trkpt lat="43.273500" lon="-4.295633">
        <ele>740.0</ele>
        <time>2015-04-28T13:48:55Z</time>
      </trkpt>
      <trkpt lat="43.273467" lon="-4.295750">
        <ele>740.0</ele>
        <time>2015-04-28T13:48:56Z</time>
      </trkpt>
      <trkpt lat="43.273450" lon="-4.295850">
        <ele>740.0</ele>
        <time>2015-04-28T13:48:57Z</time>
      </trkpt>
      <trkpt lat="43.273467" lon="-4.295917">
        <ele>740.0</ele>
        <time>2015-04-28T13:48:58Z</time>
      </trkpt>
      <trkpt lat="43.273483" lon="-4.296000">
        <ele>741.0</ele>
        <time>2015-04-28T13:48:59Z</time>
      </trkpt>
      <trkpt lat="43.273500" lon="-4.296067">
        <ele>742.0</ele>
        <time>2015-04-28T13:49:00Z</time>
      </trkpt>
      <trkpt lat="43.273500" lon="-4.296150">
        <ele>743.0</ele>
        <time>2015-04-28T13:49:01Z</time>
      </trkpt>
      <trkpt lat="43.273517" lon="-4.296217">
        <ele>743.0</ele>
        <time>2015-04-28T13:49:02Z</time>
      </trkpt>
      <trkpt lat="43.273550" lon="-4.296283">
        <ele>744.0</ele>
        <time>2015-04-28T13:49:03Z</time>
      </trkpt>
      <trkpt lat="43.273600" lon="-4.296317">
        <ele>744.0</ele>
        <time>2015-04-28T13:49:04Z</time>
      </trkpt>
      <trkpt lat="43.273633" lon="-4.296350">
        <ele>745.0</ele>
        <time>2015-04-28T13:49:05Z</time>
      </trkpt>
      <trkpt lat="43.273683" lon="-4.296383">
        <ele>745.0</ele>
        <time>2015-04-28T13:49:06Z</time>
      </trkpt>
      <trkpt lat="43.273717" lon="-4.296417">
        <ele>745.0</ele>
        <time>2015-04-28T13:49:07Z</time>
      </trkpt>
      <trkpt lat="43.273767" lon="-4.296450">
        <ele>746.0</ele>
        <time>2015-04-28T13:49:08Z</time>
      </trkpt>
      <trkpt lat="43.273800" lon="-4.296483">
        <ele>746.0</ele>
        <time>2015-04-28T13:49:09Z</time>
      </trkpt>
      <trkpt lat="43.273850" lon="-4.296517">
        <ele>747.0</ele>
        <time>2015-04-28T13:49:10Z</time>
      </trkpt>
      <trkpt lat="43.273883" lon="-4.296550">
        <ele>747.0</ele>
        <time>2015-04-28T13:49:11Z</time>
      </trkpt>
      <trkpt lat="43.273933" lon="-4.296567">
        <ele>748.0</ele>
        <time>2015-04-28T13:49:12Z</time>
      </trkpt>
      <trkpt lat="43.273983" lon="-4.296617">
        <ele>748.0</ele>
        <time>2015-04-28T13:49:13Z</time>
      </trkpt>
      <trkpt lat="43.274033" lon="-4.296650">
        <ele>749.0</ele>
        <time>2015-04-28T13:49:14Z</time>
      </trkpt>
      <trkpt lat="43.274083" lon="-4.296683">
        <ele>749.0</ele>
        <time>2015-04-28T13:49:15Z</time>
      </trkpt>
      <trkpt lat="43.274133" lon="-4.296717">
        <ele>749.0</ele>
        <time>2015-04-28T13:49:16Z</time>
      </trkpt>
      <trkpt lat="43.274167" lon="-4.296750">
        <ele>750.0</ele>
        <time>2015-04-28T13:49:17Z</time>
      </trkpt>
      <trkpt lat="43.274200" lon="-4.296767">
        <ele>750.0</ele>
        <time>2015-04-28T13:49:18Z</time>
      </trkpt>
      <trkpt lat="43.274250" lon="-4.296833">
        <ele>751.0</ele>
        <time>2015-04-28T13:49:19Z</time>
      </trkpt>
      <trkpt lat="43.274283" lon="-4.296883">
        <ele>751.0</ele>
        <time>2015-04-28T13:49:20Z</time>
      </trkpt>
      <trkpt lat="43.274317" lon="-4.296950">
        <ele>752.0</ele>
        <time>2015-04-28T13:49:21Z</time>
      </trkpt>
      <trkpt lat="43.274350" lon="-4.297033">
        <ele>752.0</ele>
        <time>2015-04-28T13:49:22Z</time>
      </trkpt>
      <trkpt lat="43.274383" lon="-4.297133">
        <ele>753.0</ele>
        <time>2015-04-28T13:49:23Z</time>
      </trkpt>
      <trkpt lat="43.274383" lon="-4.297250">
        <ele>754.0</ele>
        <time>2015-04-28T13:49:24Z</time>
      </trkpt>
      <trkpt lat="43.274350" lon="-4.297350">
        <ele>754.0</ele>
        <time>2015-04-28T13:49:25Z</time>
      </trkpt>
      <trkpt lat="43.274317" lon="-4.297450">
        <ele>755.0</ele>
        <time>2015-04-28T13:49:26Z</time>
      </trkpt>
      <trkpt lat="43.274267" lon="-4.297550">
        <ele>755.0</ele>
        <time>2015-04-28T13:49:27Z</time>
      </trkpt>
      <trkpt lat="43.274217" lon="-4.297667">
        <ele>755.0</ele>
        <time>2015-04-28T13:49:28Z</time>
      </trkpt>
      <trkpt lat="43.274167" lon="-4.297783">
        <ele>756.0</ele>
        <time>2015-04-28T13:49:29Z</time>
      </trkpt>
      <trkpt lat="43.274117" lon="-4.297917">
        <ele>756.0</ele>
        <time>2015-04-28T13:49:30Z</time>
      </trkpt>
      <trkpt lat="43.274067" lon="-4.298050">
        <ele>757.0</ele>
        <time>2015-04-28T13:49:31Z</time>
      </trkpt>
      <trkpt lat="43.274017" lon="-4.298183">
        <ele>758.0</ele>
        <time>2015-04-28T13:49:32Z</time>
      </trkpt>
      <trkpt lat="43.273983" lon="-4.298317">
        <ele>759.0</ele>
        <time>2015-04-28T13:49:33Z</time>
      </trkpt>
      <trkpt lat="43.273967" lon="-4.298450">
        <ele>761.0</ele>
        <time>2015-04-28T13:49:34Z</time>
      </trkpt>
      <trkpt lat="43.273950" lon="-4.298567">
        <ele>763.0</ele>
        <time>2015-04-28T13:49:35Z</time>
      </trkpt>
      <trkpt lat="43.273933" lon="-4.298683">
        <ele>766.0</ele>
        <time>2015-04-28T13:49:36Z</time>
      </trkpt>
      <trkpt lat="43.273917" lon="-4.298767">
        <ele>763.0</ele>
        <time>2015-04-28T13:49:37Z</time>
      </trkpt>
      <trkpt lat="43.273900" lon="-4.298867">
        <ele>764.0</ele>
        <time>2015-04-28T13:49:38Z</time>
      </trkpt>
      <trkpt lat="43.273900" lon="-4.298950">
        <ele>764.0</ele>
        <time>2015-04-28T13:49:39Z</time>
      </trkpt>
      <trkpt lat="43.273900" lon="-4.299017">
        <ele>765.0</ele>
        <time>2015-04-28T13:49:40Z</time>
      </trkpt>
      <trkpt lat="43.273917" lon="-4.299067">
        <ele>766.0</ele>
        <time>2015-04-28T13:49:41Z</time>
      </trkpt>
      <trkpt lat="43.273933" lon="-4.299117">
        <ele>767.0</ele>
        <time>2015-04-28T13:49:42Z</time>
      </trkpt>
      <trkpt lat="43.273950" lon="-4.299133">
        <ele>768.0</ele>
        <time>2015-04-28T13:49:43Z</time>
      </trkpt>
      <trkpt lat="43.273967" lon="-4.299133">
        <ele>768.0</ele>
        <time>2015-04-28T13:49:44Z</time>
      </trkpt>
      <trkpt lat="43.274000" lon="-4.299100">
        <ele>768.0</ele>
        <time>2015-04-28T13:49:45Z</time>
      </trkpt>
      <trkpt lat="43.274017" lon="-4.299033">
        <ele>769.0</ele>
        <time>2015-04-28T13:49:46Z</time>
      </trkpt>
      <trkpt lat="43.274000" lon="-4.298950">
        <ele>769.0</ele>
        <time>2015-04-28T13:49:47Z</time>
      </trkpt>
      <trkpt lat="43.273983" lon="-4.298883">
        <ele>770.0</ele>
        <time>2015-04-28T13:49:48Z</time>
      </trkpt>
      <trkpt lat="43.273917" lon="-4.298833">
        <ele>770.0</ele>
        <time>2015-04-28T13:49:49Z</time>
      </trkpt>
      <trkpt lat="43.273850" lon="-4.298800">
        <ele>771.0</ele>
        <time>2015-04-28T13:49:50Z</time>
      </trkpt>
      <trkpt lat="43.273750" lon="-4.298767">
        <ele>772.0</ele>
        <time>2015-04-28T13:49:51Z</time>
      </trkpt>
      <trkpt lat="43.273617" lon="-4.298783">
        <ele>773.0</ele>
        <time>2015-04-28T13:49:52Z</time>
      </trkpt>
      <trkpt lat="43.273500" lon="-4.298850">
        <ele>773.0</ele>
        <time>2015-04-28T13:49:53Z</time>
      </trkpt>
      <trkpt lat="43.273417" lon="-4.298983">
        <ele>773.0</ele>
        <time>2015-04-28T13:49:54Z</time>
      </trkpt>
      <trkpt lat="43.273367" lon="-4.299117">
        <ele>774.0</ele>
        <time>2015-04-28T13:49:55Z</time>
      </trkpt>
      <trkpt lat="43.273350" lon="-4.299233">
        <ele>775.0</ele>
        <time>2015-04-28T13:49:56Z</time>
      </trkpt>
      <trkpt lat="43.273333" lon="-4.299333">
        <ele>777.0</ele>
        <time>2015-04-28T13:49:57Z</time>
      </trkpt>
      <trkpt lat="43.273333" lon="-4.299417">
        <ele>777.0</ele>
        <time>2015-04-28T13:49:58Z</time>
      </trkpt>
      <trkpt lat="43.273300" lon="-4.299517">
        <ele>778.0</ele>
        <time>2015-04-28T13:49:59Z</time>
      </trkpt>
      <trkpt lat="43.273300" lon="-4.299633">
        <ele>779.0</ele>
        <time>2015-04-28T13:50:00Z</time>
      </trkpt>
      <trkpt lat="43.273300" lon="-4.299733">
        <ele>779.0</ele>
        <time>2015-04-28T13:50:01Z</time>
      </trkpt>
      <trkpt lat="43.273333" lon="-4.299817">
        <ele>780.0</ele>
        <time>2015-04-28T13:50:02Z</time>
      </trkpt>
      <trkpt lat="43.273367" lon="-4.299883">
        <ele>780.0</ele>
        <time>2015-04-28T13:50:03Z</time>
      </trkpt>
      <trkpt lat="43.273400" lon="-4.299933">
        <ele>781.0</ele>
        <time>2015-04-28T13:50:04Z</time>
      </trkpt>
      <trkpt lat="43.273433" lon="-4.299983">
        <ele>782.0</ele>
        <time>2015-04-28T13:50:05Z</time>
      </trkpt>
      <trkpt lat="43.273450" lon="-4.300000">
        <ele>783.0</ele>
        <time>2015-04-28T13:50:06Z</time>
      </trkpt>
      <trkpt lat="43.273467" lon="-4.300033">
        <ele>785.0</ele>
        <time>2015-04-28T13:50:07Z</time>
      </trkpt>
      <trkpt lat="43.273467" lon="-4.300050">
        <ele>786.0</ele>
        <time>2015-04-28T13:50:08Z</time>
      </trkpt>
      <trkpt lat="43.273483" lon="-4.300067">
        <ele>787.0</ele>
        <time>2015-04-28T13:50:09Z</time>
      </trkpt>
      <trkpt lat="43.273500" lon="-4.300083">
        <ele>788.0</ele>
        <time>2015-04-28T13:50:10Z</time>
      </trkpt>
      <trkpt lat="43.273500" lon="-4.300117">
        <ele>789.0</ele>
        <time>2015-04-28T13:50:11Z</time>
      </trkpt>
      <trkpt lat="43.273517" lon="-4.300183">
        <ele>790.0</ele>
        <time>2015-04-28T13:50:12Z</time>
      </trkpt>
      <trkpt lat="43.273517" lon="-4.300283">
        <ele>792.0</ele>
        <time>2015-04-28T13:50:13Z</time>
      </trkpt>
      <trkpt lat="43.273500" lon="-4.300400">
        <ele>793.0</ele>
        <time>2015-04-28T13:50:14Z</time>
      </trkpt>
      <trkpt lat="43.273450" lon="-4.300533">
        <ele>794.0</ele>
        <time>2015-04-28T13:50:15Z</time>
      </trkpt>
      <trkpt lat="43.273417" lon="-4.300633">
        <ele>795.0</ele>
        <time>2015-04-28T13:50:16Z</time>
      </trkpt>
      <trkpt lat="43.273383" lon="-4.300717">
        <ele>796.0</ele>
        <time>2015-04-28T13:50:17Z</time>
      </trkpt>
      <trkpt lat="43.273367" lon="-4.300767">
        <ele>797.0</ele>
        <time>2015-04-28T13:50:18Z</time>
      </trkpt>
      <trkpt lat="43.273350" lon="-4.300833">
        <ele>798.0</ele>
        <time>2015-04-28T13:50:19Z</time>
      </trkpt>
      <trkpt lat="43.273367" lon="-4.300900">
        <ele>799.0</ele>
        <time>2015-04-28T13:50:20Z</time>
      </trkpt>
      <trkpt lat="43.273383" lon="-4.300950">
        <ele>799.0</ele>
        <time>2015-04-28T13:50:21Z</time>
      </trkpt>
      <trkpt lat="43.273383" lon="-4.301000">
        <ele>800.0</ele>
        <time>2015-04-28T13:50:22Z</time>
      </trkpt>
      <trkpt lat="43.273383" lon="-4.301017">
        <ele>801.0</ele>
        <time>2015-04-28T13:50:23Z</time>
      </trkpt>
      <trkpt lat="43.273400" lon="-4.301050">
        <ele>802.0</ele>
        <time>2015-04-28T13:50:24Z</time>
      </trkpt>
      <trkpt lat="43.273400" lon="-4.301083">
        <ele>804.0</ele>
        <time>2015-04-28T13:50:25Z</time>
      </trkpt>
      <trkpt lat="43.273417" lon="-4.301100">
        <ele>804.0</ele>
        <time>2015-04-28T13:50:26Z</time>
      </trkpt>
      <trkpt lat="43.273417" lon="-4.301117">
        <ele>805.0</ele>
        <time>2015-04-28T13:50:27Z</time>
      </trkpt>
      <trkpt lat="43.273433" lon="-4.301117">
        <ele>805.0</ele>
        <time>2015-04-28T13:50:28Z</time>
      </trkpt>
      <trkpt lat="43.273450" lon="-4.301133">
        <ele>807.0</ele>
        <time>2015-04-28T13:50:29Z</time>
      </trkpt>
      <trkpt lat="43.273467" lon="-4.301150">
        <ele>808.0</ele>
        <time>2015-04-28T13:50:30Z</time>
      </trkpt>
      <trkpt lat="43.273483" lon="-4.301150">
        <ele>809.0</ele>
        <time>2015-04-28T13:50:31Z</time>
      </trkpt>
      <trkpt lat="43.273517" lon="-4.301133">
        <ele>809.0</ele>
        <time>2015-04-28T13:50:32Z</time>
      </trkpt>
      <trkpt lat="43.273533" lon="-4.301133">
        <ele>810.0</ele>
        <time>2015-04-28T13:50:33Z</time>
      </trkpt>
      <trkpt lat="43.273567" lon="-4.301133">
        <ele>811.0</ele>
        <time>2015-04-28T13:50:34Z</time>
      </trkpt>
      <trkpt lat="43.273600" lon="-4.301150">
        <ele>812.0</ele>
        <time>2015-04-28T13:50:35Z</time>
      </trkpt>
      <trkpt lat="43.273633" lon="-4.301167">
        <ele>812.0</ele>
        <time>2015-04-28T13:50:36Z</time>
      </trkpt>
      <trkpt lat="43.273667" lon="-4.301200">
        <ele>813.0</ele>
        <time>2015-04-28T13:50:37Z</time>
      </trkpt>
      <trkpt lat="43.273683" lon="-4.301217">
        <ele>814.0</ele>
        <time>2015-04-28T13:50:38Z</time>
      </trkpt>
      <trkpt lat="43.273717" lon="-4.301250">
        <ele>814.0</ele>
        <time>2015-04-28T13:50:39Z</time>
      </trkpt>
      <trkpt lat="43.273767" lon="-4.301250">
        <ele>815.0</ele>
        <time>2015-04-28T13:50:40Z</time>
      </trkpt>
      <trkpt lat="43.273817" lon="-4.301267">
        <ele>816.0</ele>
        <time>2015-04-28T13:50:41Z</time>
      </trkpt>
      <trkpt lat="43.273883" lon="-4.301300">
        <ele>817.0</ele>
        <time>2015-04-28T13:50:42Z</time>
      </trkpt>
      <trkpt lat="43.273933" lon="-4.301333">
        <ele>817.0</ele>
        <time>2015-04-28T13:50:43Z</time>
      </trkpt>
      <trkpt lat="43.273983" lon="-4.301350">
        <ele>818.0</ele>
        <time>2015-04-28T13:50:44Z</time>
      </trkpt>
      <trkpt lat="43.274017" lon="-4.301367">
        <ele>819.0</ele>
        <time>2015-04-28T13:50:45Z</time>
      </trkpt>
      <trkpt lat="43.274050" lon="-4.301383">
        <ele>821.0</ele>
        <time>2015-04-28T13:50:46Z</time>
      </trkpt>
      <trkpt lat="43.274067" lon="-4.301400">
        <ele>823.0</ele>
        <time>2015-04-28T13:50:47Z</time>
      </trkpt>
      <trkpt lat="43.274083" lon="-4.301417">
        <ele>824.0</ele>
        <time>2015-04-28T13:50:48Z</time>
      </trkpt>
      <trkpt lat="43.274117" lon="-4.301417">
        <ele>826.0</ele>
        <time>2015-04-28T13:50:49Z</time>
      </trkpt>
      <trkpt lat="43.274133" lon="-4.301433">
        <ele>828.0</ele>
        <time>2015-04-28T13:50:50Z</time>
      </trkpt>
      <trkpt lat="43.274133" lon="-4.301450">
        <ele>831.0</ele>
        <time>2015-04-28T13:50:51Z</time>
      </trkpt>
      <trkpt lat="43.274150" lon="-4.301500">
        <ele>830.0</ele>
        <time>2015-04-28T13:50:52Z</time>
      </trkpt>
      <trkpt lat="43.274167" lon="-4.301567">
        <ele>832.0</ele>
        <time>2015-04-28T13:50:53Z</time>
      </trkpt>
      <trkpt lat="43.274167" lon="-4.301633">
        <ele>835.0</ele>
        <time>2015-04-28T13:50:54Z</time>
      </trkpt>
      <trkpt lat="43.274167" lon="-4.301717">
        <ele>835.0</ele>
        <time>2015-04-28T13:50:55Z</time>
      </trkpt>
      <trkpt lat="43.274150" lon="-4.301817">
        <ele>836.0</ele>
        <time>2015-04-28T13:50:56Z</time>
      </trkpt>
      <trkpt lat="43.274150" lon="-4.301900">
        <ele>837.0</ele>
        <time>2015-04-28T13:50:57Z</time>
      </trkpt>
      <trkpt lat="43.274167" lon="-4.302017">
        <ele>838.0</ele>
        <time>2015-04-28T13:50:58Z</time>
      </trkpt>
      <trkpt lat="43.274200" lon="-4.302100">
        <ele>839.0</ele>
        <time>2015-04-28T13:50:59Z</time>
      </trkpt>
      <trkpt lat="43.274233" lon="-4.302183">
        <ele>840.0</ele>
        <time>2015-04-28T13:51:00Z</time>
      </trkpt>
      <trkpt lat="43.274267" lon="-4.302250">
        <ele>841.0</ele>
        <time>2015-04-28T13:51:01Z</time>
      </trkpt>
      <trkpt lat="43.274283" lon="-4.302317">
        <ele>842.0</ele>
        <time>2015-04-28T13:51:02Z</time>
      </trkpt>
      <trkpt lat="43.274333" lon="-4.302383">
        <ele>843.0</ele>
        <time>2015-04-28T13:51:03Z</time>
      </trkpt>
      <trkpt lat="43.274367" lon="-4.302433">
        <ele>843.0</ele>
        <time>2015-04-28T13:51:04Z</time>
      </trkpt>
      <trkpt lat="43.274383" lon="-4.302483">
        <ele>844.0</ele>
        <time>2015-04-28T13:51:05Z</time>
      </trkpt>
      <trkpt lat="43.274417" lon="-4.302517">
        <ele>845.0</ele>
        <time>2015-04-28T13:51:06Z</time>
      </trkpt>
      <trkpt lat="43.274450" lon="-4.302550">
        <ele>846.0</ele>
        <time>2015-04-28T13:51:07Z</time>
      </trkpt>
      <trkpt lat="43.274500" lon="-4.302600">
        <ele>847.0</ele>
        <time>2015-04-28T13:51:08Z</time>
      </trkpt>
      <trkpt lat="43.274550" lon="-4.302633">
        <ele>848.0</ele>
        <time>2015-04-28T13:51:09Z</time>
      </trkpt>
      <trkpt lat="43.274583" lon="-4.302667">
        <ele>848.0</ele>
        <time>2015-04-28T13:51:10Z</time>
      </trkpt>
      <trkpt lat="43.274600" lon="-4.302683">
        <ele>849.0</ele>
        <time>2015-04-28T13:51:11Z</time>
      </trkpt>
      <trkpt lat="43.274633" lon="-4.302717">
        <ele>850.0</ele>
        <time>2015-04-28T13:51:12Z</time>
      </trkpt>
      <trkpt lat="43.274667" lon="-4.302733">
        <ele>850.0</ele>
        <time>2015-04-28T13:51:13Z</time>
      </trkpt>
      <trkpt lat="43.274700" lon="-4.302767">
        <ele>851.0</ele>
        <time>2015-04-28T13:51:14Z</time>
      </trkpt>
      <trkpt lat="43.274750" lon="-4.302800">
        <ele>851.0</ele>
        <time>2015-04-28T13:51:15Z</time>
      </trkpt>
      <trkpt lat="43.274783" lon="-4.302817">
        <ele>852.0</ele>
        <time>2015-04-28T13:51:16Z</time>
      </trkpt>
      <trkpt lat="43.274817" lon="-4.302850">
        <ele>852.0</ele>
        <time>2015-04-28T13:51:17Z</time>
      </trkpt>
      <trkpt lat="43.274850" lon="-4.302883">
        <ele>852.0</ele>
        <time>2015-04-28T13:51:18Z</time>
      </trkpt>
      <trkpt lat="43.274883" lon="-4.302917">
        <ele>853.0</ele>
        <time>2015-04-28T13:51:19Z</time>
      </trkpt>
      <trkpt lat="43.274917" lon="-4.302933">
        <ele>853.0</ele>
        <time>2015-04-28T13:51:20Z</time>
      </trkpt>
      <trkpt lat="43.274933" lon="-4.302950">
        <ele>854.0</ele>
        <time>2015-04-28T13:51:21Z</time>
      </trkpt>
      <trkpt lat="43.274967" lon="-4.302983">
        <ele>854.0</ele>
        <time>2015-04-28T13:51:22Z</time>
      </trkpt>
      <trkpt lat="43.275017" lon="-4.303017">
        <ele>855.0</ele>
        <time>2015-04-28T13:51:23Z</time>
      </trkpt>
      <trkpt lat="43.275050" lon="-4.303067">
        <ele>855.0</ele>
        <time>2015-04-28T13:51:24Z</time>
      </trkpt>
      <trkpt lat="43.275083" lon="-4.303100">
        <ele>856.0</ele>
        <time>2015-04-28T13:51:25Z</time>
      </trkpt>
      <trkpt lat="43.275100" lon="-4.303150">
        <ele>856.0</ele>
        <time>2015-04-28T13:51:26Z</time>
      </trkpt>
      <trkpt lat="43.275117" lon="-4.303167">
        <ele>857.0</ele>
        <time>2015-04-28T13:51:27Z</time>
      </trkpt>
      <trkpt lat="43.275150" lon="-4.303200">
        <ele>857.0</ele>
        <time>2015-04-28T13:51:28Z</time>
      </trkpt>
      <trkpt lat="43.275200" lon="-4.303233">
        <ele>858.0</ele>
        <time>2015-04-28T13:51:29Z</time>
      </trkpt>
      <trkpt lat="43.275233" lon="-4.303250">
        <ele>858.0</ele>
        <time>2015-04-28T13:51:30Z</time>
      </trkpt>
      <trkpt lat="43.275283" lon="-4.303283">
        <ele>859.0</ele>
        <time>2015-04-28T13:51:31Z</time>
      </trkpt>
      <trkpt lat="43.275350" lon="-4.303317">
        <ele>859.0</ele>
        <time>2015-04-28T13:51:32Z</time>
      </trkpt>
      <trkpt lat="43.275400" lon="-4.303350">
        <ele>860.0</ele>
        <time>2015-04-28T13:51:33Z</time>
      </trkpt>
      <trkpt lat="43.275450" lon="-4.303367">
        <ele>860.0</ele>
        <time>2015-04-28T13:51:34Z</time>
      </trkpt>
      <trkpt lat="43.275483" lon="-4.303383">
        <ele>861.0</ele>
        <time>2015-04-28T13:51:35Z</time>
      </trkpt>
      <trkpt lat="43.275517" lon="-4.303400">
        <ele>861.0</ele>
        <time>2015-04-28T13:51:36Z</time>
      </trkpt>
      <trkpt lat="43.275533" lon="-4.303433">
        <ele>861.0</ele>
        <time>2015-04-28T13:51:37Z</time>
      </trkpt>
      <trkpt lat="43.275583" lon="-4.303467">
        <ele>862.0</ele>
        <time>2015-04-28T13:51:38Z</time>
      </trkpt>
      <trkpt lat="43.275633" lon="-4.303500">
        <ele>862.0</ele>
        <time>2015-04-28T13:51:39Z</time>
      </trkpt>
      <trkpt lat="43.275700" lon="-4.303517">
        <ele>862.0</ele>
        <time>2015-04-28T13:51:40Z</time>
      </trkpt>
      <trkpt lat="43.275750" lon="-4.303550">
        <ele>863.0</ele>
        <time>2015-04-28T13:51:41Z</time>
      </trkpt>
      <trkpt lat="43.275800" lon="-4.303567">
        <ele>863.0</ele>
        <time>2015-04-28T13:51:42Z</time>
      </trkpt>
      <trkpt lat="43.275833" lon="-4.303617">
        <ele>863.0</ele>
        <time>2015-04-28T13:51:43Z</time>
      </trkpt>
      <trkpt lat="43.275867" lon="-4.303650">
        <ele>864.0</ele>
        <time>2015-04-28T13:51:44Z</time>
      </trkpt>
      <trkpt lat="43.275900" lon="-4.303683">
        <ele>865.0</ele>
        <time>2015-04-28T13:51:45Z</time>
      </trkpt>
      <trkpt lat="43.275917" lon="-4.303700">
        <ele>865.0</ele>
        <time>2015-04-28T13:51:46Z</time>
      </trkpt>
      <trkpt lat="43.275933" lon="-4.303733">
        <ele>866.0</ele>
        <time>2015-04-28T13:51:47Z</time>
      </trkpt>
      <trkpt lat="43.275967" lon="-4.303767">
        <ele>867.0</ele>
        <time>2015-04-28T13:51:48Z</time>
      </trkpt>
      <trkpt lat="43.276000" lon="-4.303817">
        <ele>867.0</ele>
        <time>2015-04-28T13:51:49Z</time>
      </trkpt>
      <trkpt lat="43.276033" lon="-4.303850">
        <ele>868.0</ele>
        <time>2015-04-28T13:51:50Z</time>
      </trkpt>
      <trkpt lat="43.276067" lon="-4.303900">
        <ele>868.0</ele>
        <time>2015-04-28T13:51:51Z</time>
      </trkpt>
      <trkpt lat="43.276100" lon="-4.303950">
        <ele>869.0</ele>
        <time>2015-04-28T13:51:52Z</time>
      </trkpt>
      <trkpt lat="43.276150" lon="-4.303983">
        <ele>869.0</ele>
        <time>2015-04-28T13:51:53Z</time>
      </trkpt>
      <trkpt lat="43.276183" lon="-4.304017">
        <ele>870.0</ele>
        <time>2015-04-28T13:51:54Z</time>
      </trkpt>
      <trkpt lat="43.276217" lon="-4.304033">
        <ele>870.0</ele>
        <time>2015-04-28T13:51:55Z</time>
      </trkpt>
      <trkpt lat="43.276267" lon="-4.304050">
        <ele>870.0</ele>
        <time>2015-04-28T13:51:56Z</time>
      </trkpt>
      <trkpt lat="43.276300" lon="-4.304067">
        <ele>871.0</ele>
        <time>2015-04-28T13:51:57Z</time>
      </trkpt>
      <trkpt lat="43.276317" lon="-4.304083">
        <ele>872.0</ele>
        <time>2015-04-28T13:51:58Z</time>
      </trkpt>
      <trkpt lat="43.276350" lon="-4.304100">
        <ele>872.0</ele>
        <time>2015-04-28T13:51:59Z</time>
      </trkpt>
      <trkpt lat="43.276367" lon="-4.304100">
        <ele>873.0</ele>
        <time>2015-04-28T13:52:00Z</time>
      </trkpt>
      <trkpt lat="43.276383" lon="-4.304117">
        <ele>874.0</ele>
        <time>2015-04-28T13:52:01Z</time>
      </trkpt>
      <trkpt lat="43.276433" lon="-4.304133">
        <ele>875.0</ele>
        <time>2015-04-28T13:52:02Z</time>
      </trkpt>
      <trkpt lat="43.276467" lon="-4.304150">
        <ele>877.0</ele>
        <time>2015-04-28T13:52:03Z</time>
      </trkpt>
      <trkpt lat="43.276517" lon="-4.304167">
        <ele>879.0</ele>
        <time>2015-04-28T13:52:04Z</time>
      </trkpt>
      <trkpt lat="43.276550" lon="-4.304183">
        <ele>884.0</ele>
        <time>2015-04-28T13:52:05Z</time>
      </trkpt>
      <trkpt lat="43.276567" lon="-4.304200">
        <ele>887.0</ele>
        <time>2015-04-28T13:52:06Z</time>
      </trkpt>
      <trkpt lat="43.276600" lon="-4.304200">
        <ele>889.0</ele>
        <time>2015-04-28T13:52:07Z</time>
      </trkpt>
      <trkpt lat="43.276650" lon="-4.304217">
        <ele>892.0</ele>
        <time>2015-04-28T13:52:08Z</time>
      </trkpt>
      <trkpt lat="43.276700" lon="-4.304250">
        <ele>895.0</ele>
        <time>2015-04-28T13:52:09Z</time>
      </trkpt>
      <trkpt lat="43.276750" lon="-4.304300">
        <ele>897.0</ele>
        <time>2015-04-28T13:52:10Z</time>
      </trkpt>
      <trkpt lat="43.276783" lon="-4.304367">
        <ele>900.0</ele>
        <time>2015-04-28T13:52:11Z</time>
      </trkpt>
      <trkpt lat="43.276800" lon="-4.304433">
        <ele>903.0</ele>
        <time>2015-04-28T13:52:12Z</time>
      </trkpt>
      <trkpt lat="43.276800" lon="-4.304517">
        <ele>901.0</ele>
        <time>2015-04-28T13:52:13Z</time>
      </trkpt>
      <trkpt lat="43.276800" lon="-4.304600">
        <ele>902.0</ele>
        <time>2015-04-28T13:52:14Z</time>
      </trkpt>
      <trkpt lat="43.276800" lon="-4.304700">
        <ele>903.0</ele>
        <time>2015-04-28T13:52:15Z</time>
      </trkpt>
      <trkpt lat="43.276800" lon="-4.304800">
        <ele>904.0</ele>
        <time>2015-04-28T13:52:16Z</time>
      </trkpt>
      <trkpt lat="43.276800" lon="-4.304917">
        <ele>905.0</ele>
        <time>2015-04-28T13:52:17Z</time>
      </trkpt>
      <trkpt lat="43.276783" lon="-4.305033">
        <ele>905.0</ele>
        <time>2015-04-28T13:52:18Z</time>
      </trkpt>
      <trkpt lat="43.276750" lon="-4.305167">
        <ele>905.0</ele>
        <time>2015-04-28T13:52:19Z</time>
      </trkpt>
      <trkpt lat="43.276667" lon="-4.305267">
        <ele>905.0</ele>
        <time>2015-04-28T13:52:20Z</time>
      </trkpt>
      <trkpt lat="43.276583" lon="-4.305317">
        <ele>905.0</ele>
        <time>2015-04-28T13:52:21Z</time>
      </trkpt>
      <trkpt lat="43.276483" lon="-4.305350">
        <ele>906.0</ele>
        <time>2015-04-28T13:52:22Z</time>
      </trkpt>
      <trkpt lat="43.276383" lon="-4.305367">
        <ele>906.0</ele>
        <time>2015-04-28T13:52:23Z</time>
      </trkpt>
      <trkpt lat="43.276300" lon="-4.305350">
        <ele>906.0</ele>
        <time>2015-04-28T13:52:24Z</time>
      </trkpt>
      <trkpt lat="43.276200" lon="-4.305317">
        <ele>906.0</ele>
        <time>2015-04-28T13:52:25Z</time>
      </trkpt>
      <trkpt lat="43.276117" lon="-4.305250">
        <ele>906.0</ele>
        <time>2015-04-28T13:52:26Z</time>
      </trkpt>
      <trkpt lat="43.276050" lon="-4.305167">
        <ele>905.0</ele>
        <time>2015-04-28T13:52:27Z</time>
      </trkpt>
      <trkpt lat="43.276017" lon="-4.305067">
        <ele>906.0</ele>
        <time>2015-04-28T13:52:28Z</time>
      </trkpt>
      <trkpt lat="43.275983" lon="-4.304983">
        <ele>906.0</ele>
        <time>2015-04-28T13:52:29Z</time>
      </trkpt>
      <trkpt lat="43.275983" lon="-4.304900">
        <ele>907.0</ele>
        <time>2015-04-28T13:52:30Z</time>
      </trkpt>
      <trkpt lat="43.275983" lon="-4.304817">
        <ele>908.0</ele>
        <time>2015-04-28T13:52:31Z</time>
      </trkpt>
      <trkpt lat="43.276000" lon="-4.304750">
        <ele>908.0</ele>
        <time>2015-04-28T13:52:32Z</time>
      </trkpt>
      <trkpt lat="43.276017" lon="-4.304700">
        <ele>908.0</ele>
        <time>2015-04-28T13:52:33Z</time>
      </trkpt>
      <trkpt lat="43.276067" lon="-4.304650">
        <ele>908.0</ele>
        <time>2015-04-28T13:52:34Z</time>
      </trkpt>
      <trkpt lat="43.276100" lon="-4.304600">
        <ele>909.0</ele>
        <time>2015-04-28T13:52:35Z</time>
      </trkpt>
      <trkpt lat="43.276133" lon="-4.304567">
        <ele>909.0</ele>
        <time>2015-04-28T13:52:36Z</time>
      </trkpt>
      <trkpt lat="43.276183" lon="-4.304550">
        <ele>909.0</ele>
        <time>2015-04-28T13:52:37Z</time>
      </trkpt>
      <trkpt lat="43.276217" lon="-4.304517">
        <ele>909.0</ele>
        <time>2015-04-28T13:52:38Z</time>
      </trkpt>
      <trkpt lat="43.276267" lon="-4.304517">
        <ele>910.0</ele>
        <time>2015-04-28T13:52:39Z</time>
      </trkpt>
      <trkpt lat="43.276300" lon="-4.304500">
        <ele>910.0</ele>
        <time>2015-04-28T13:52:40Z</time>
      </trkpt>
      <trkpt lat="43.276333" lon="-4.304500">
        <ele>910.0</ele>
        <time>2015-04-28T13:52:41Z</time>
      </trkpt>
      <trkpt lat="43.276367" lon="-4.304517">
        <ele>911.0</ele>
        <time>2015-04-28T13:52:42Z</time>
      </trkpt>
      <trkpt lat="43.276383" lon="-4.304517">
        <ele>912.0</ele>
        <time>2015-04-28T13:52:43Z</time>
      </trkpt>
      <trkpt lat="43.276417" lon="-4.304517">
        <ele>912.0</ele>
        <time>2015-04-28T13:52:44Z</time>
      </trkpt>
      <trkpt lat="43.276467" lon="-4.304500">
        <ele>913.0</ele>
        <time>2015-04-28T13:52:45Z</time>
      </trkpt>
      <trkpt lat="43.276517" lon="-4.304500">
        <ele>914.0</ele>
        <time>2015-04-28T13:52:46Z</time>
      </trkpt>
      <trkpt lat="43.276550" lon="-4.304517">
        <ele>915.0</ele>
        <time>2015-04-28T13:52:47Z</time>
      </trkpt>
      <trkpt lat="43.276583" lon="-4.304517">
        <ele>916.0</ele>
        <time>2015-04-28T13:52:48Z</time>
      </trkpt>
      <trkpt lat="43.276583" lon="-4.304533">
        <ele>918.0</ele>
        <time>2015-04-28T13:52:49Z</time>
      </trkpt>
      <trkpt lat="43.276600" lon="-4.304533">
        <ele>919.0</ele>
        <time>2015-04-28T13:52:50Z</time>
      </trkpt>
      <trkpt lat="43.276600" lon="-4.304550">
        <ele>921.0</ele>
        <time>2015-04-28T13:52:51Z</time>
      </trkpt>
      <trkpt lat="43.276650" lon="-4.304567">
        <ele>923.0</ele>
        <time>2015-04-28T13:52:52Z</time>
      </trkpt>
      <trkpt lat="43.276700" lon="-4.304583">
        <ele>926.0</ele>
        <time>2015-04-28T13:52:53Z</time>
      </trkpt>
      <trkpt lat="43.276750" lon="-4.304633">
        <ele>929.0</ele>
        <time>2015-04-28T13:52:54Z</time>
      </trkpt>
      <trkpt lat="43.276783" lon="-4.304683">
        <ele>934.0</ele>
        <time>2015-04-28T13:52:55Z</time>
      </trkpt>
      <trkpt lat="43.276800" lon="-4.304717">
        <ele>939.0</ele>
        <time>2015-04-28T13:52:56Z</time>
      </trkpt>
      <trkpt lat="43.276817" lon="-4.304733">
        <ele>945.0</ele>
        <time>2015-04-28T13:52:57Z</time>
      </trkpt>
      <trkpt lat="43.276767" lon="-4.304717">
        <ele>939.0</ele>
        <time>2015-04-28T13:52:58Z</time>
      </trkpt>
      <trkpt lat="43.276767" lon="-4.304750">
        <ele>942.0</ele>
        <time>2015-04-28T13:52:59Z</time>
      </trkpt>
      <trkpt lat="43.276767" lon="-4.304800">
        <ele>945.0</ele>
        <time>2015-04-28T13:53:00Z</time>
      </trkpt>
      <trkpt lat="43.276783" lon="-4.304867">
        <ele>948.0</ele>
        <time>2015-04-28T13:53:01Z</time>
      </trkpt>
      <trkpt lat="43.276800" lon="-4.304950">
        <ele>952.0</ele>
        <time>2015-04-28T13:53:02Z</time>
      </trkpt>
      <trkpt lat="43.276817" lon="-4.305067">
        <ele>955.0</ele>
        <time>2015-04-28T13:53:03Z</time>
      </trkpt>
      <trkpt lat="43.276783" lon="-4.305217">
        <ele>958.0</ele>
        <time>2015-04-28T13:53:04Z</time>
      </trkpt>
      <trkpt lat="43.276717" lon="-4.305367">
        <ele>962.0</ele>
        <time>2015-04-28T13:53:05Z</time>
      </trkpt>
      <trkpt lat="43.276600" lon="-4.305483">
        <ele>967.0</ele>
        <time>2015-04-28T13:53:06Z</time>
      </trkpt>
      <trkpt lat="43.276483" lon="-4.305517">
        <ele>970.0</ele>
        <time>2015-04-28T13:53:07Z</time>
      </trkpt>
      <trkpt lat="43.276383" lon="-4.305500">
        <ele>973.0</ele>
        <time>2015-04-28T13:53:08Z</time>
      </trkpt>
      <trkpt lat="43.276300" lon="-4.305417">
        <ele>976.0</ele>
        <time>2015-04-28T13:53:09Z</time>
      </trkpt>
      <trkpt lat="43.276283" lon="-4.305333">
        <ele>980.0</ele>
        <time>2015-04-28T13:53:10Z</time>
      </trkpt>
      <trkpt lat="43.276300" lon="-4.305267">
        <ele>983.0</ele>
        <time>2015-04-28T13:53:11Z</time>
      </trkpt>
      <trkpt lat="43.276317" lon="-4.305233">
        <ele>988.0</ele>
        <time>2015-04-28T13:53:12Z</time>
      </trkpt>
      <trkpt lat="43.276333" lon="-4.305233">
        <ele>992.0</ele>
        <time>2015-04-28T13:53:13Z</time>
      </trkpt>
      <trkpt lat="43.276350" lon="-4.305250">
        <ele>996.0</ele>
        <time>2015-04-28T13:53:14Z</time>
      </trkpt>
      <trkpt lat="43.276367" lon="-4.305283">
        <ele>999.0</ele>
        <time>2015-04-28T13:53:15Z</time>
      </trkpt>
      <trkpt lat="43.276350" lon="-4.305317">
        <ele>1003.0</ele>
        <time>2015-04-28T13:53:16Z</time>
      </trkpt>
      <trkpt lat="43.276350" lon="-4.305383">
        <ele>997.0</ele>
        <time>2015-04-28T13:53:17Z</time>
      </trkpt>
      <trkpt lat="43.276350" lon="-4.305483">
        <ele>1000.0</ele>
        <time>2015-04-28T13:53:18Z</time>
      </trkpt>
      <trkpt lat="43.276333" lon="-4.305600">
        <ele>1003.0</ele>
        <time>2015-04-28T13:53:19Z</time>
      </trkpt>
      <trkpt lat="43.276283" lon="-4.305733">
        <ele>1006.0</ele>
        <time>2015-04-28T13:53:20Z</time>
      </trkpt>
      <trkpt lat="43.276200" lon="-4.305850">
        <ele>1009.0</ele>
        <time>2015-04-28T13:53:21Z</time>
      </trkpt>
      <trkpt lat="43.276100" lon="-4.305933">
        <ele>1012.0</ele>
        <time>2015-04-28T13:53:22Z</time>
      </trkpt>
      <trkpt lat="43.275983" lon="-4.305967">
        <ele>1015.0</ele>
        <time>2015-04-28T13:53:23Z</time>
      </trkpt>
      <trkpt lat="43.275883" lon="-4.305933">
        <ele>1018.0</ele>
        <time>2015-04-28T13:53:24Z</time>
      </trkpt>
      <trkpt lat="43.275800" lon="-4.305867">
        <ele>1022.0</ele>
        <time>2015-04-28T13:53:25Z</time>
      </trkpt>
      <trkpt lat="43.275767" lon="-4.305800">
        <ele>1025.0</ele>
        <time>2015-04-28T13:53:26Z</time>
      </trkpt>
      <trkpt lat="43.275783" lon="-4.305733">
        <ele>1029.0</ele>
        <time>2015-04-28T13:53:27Z</time>
      </trkpt>
      <trkpt lat="43.275800" lon="-4.305700">
        <ele>1032.0</ele>
        <time>2015-04-28T13:53:28Z</time>
      </trkpt>
      <trkpt lat="43.275833" lon="-4.305700">
        <ele>1036.0</ele>
        <time>2015-04-28T13:53:29Z</time>
      </trkpt>
      <trkpt lat="43.275850" lon="-4.305733">
        <ele>1039.0</ele>
        <time>2015-04-28T13:53:30Z</time>
      </trkpt>
      <trkpt lat="43.275850" lon="-4.305800">
        <ele>1043.0</ele>
        <time>2015-04-28T13:53:31Z</time>
      </trkpt>
      <trkpt lat="43.275833" lon="-4.305883">
        <ele>1038.0</ele>
        <time>2015-04-28T13:53:32Z</time>
      </trkpt>
      <trkpt lat="43.275800" lon="-4.306017">
        <ele>1040.0</ele>
        <time>2015-04-28T13:53:33Z</time>
      </trkpt>
      <trkpt lat="43.275733" lon="-4.306150">
        <ele>1043.0</ele>
        <time>2015-04-28T13:53:34Z</time>
      </trkpt>
      <trkpt lat="43.275683" lon="-4.306267">
        <ele>1045.0</ele>
        <time>2015-04-28T13:53:35Z</time>
      </trkpt>
      <trkpt lat="43.275600" lon="-4.306350">
        <ele>1048.0</ele>
        <time>2015-04-28T13:53:36Z</time>
      </trkpt>
      <trkpt lat="43.275500" lon="-4.306417">
        <ele>1051.0</ele>
        <time>2015-04-28T13:53:37Z</time>
      </trkpt>
      <trkpt lat="43.275400" lon="-4.306450">
        <ele>1053.0</ele>
        <time>2015-04-28T13:53:38Z</time>
      </trkpt>
      <trkpt lat="43.275283" lon="-4.306450">
        <ele>1056.0</ele>
        <time>2015-04-28T13:53:39Z</time>
      </trkpt>
      <trkpt lat="43.275200" lon="-4.306433">
        <ele>1060.0</ele>
        <time>2015-04-28T13:53:40Z</time>
      </trkpt>
      <trkpt lat="43.275133" lon="-4.306367">
        <ele>1063.0</ele>
        <time>2015-04-28T13:53:41Z</time>
      </trkpt>
      <trkpt lat="43.275117" lon="-4.306300">
        <ele>1067.0</ele>
        <time>2015-04-28T13:53:42Z</time>
      </trkpt>
      <trkpt lat="43.275117" lon="-4.306250">
        <ele>1069.0</ele>
        <time>2015-04-28T13:53:43Z</time>
      </trkpt>
      <trkpt lat="43.275133" lon="-4.306217">
        <ele>1072.0</ele>
        <time>2015-04-28T13:53:44Z</time>
      </trkpt>
      <trkpt lat="43.275167" lon="-4.306217">
        <ele>1076.0</ele>
        <time>2015-04-28T13:53:45Z</time>
      </trkpt>
      <trkpt lat="43.275183" lon="-4.306250">
        <ele>1079.0</ele>
        <time>2015-04-28T13:53:46Z</time>
      </trkpt>
      <trkpt lat="43.275183" lon="-4.306250">
        <ele>1075.0</ele>
        <time>2015-04-28T13:53:47Z</time>
      </trkpt>
      <trkpt lat="43.275183" lon="-4.306300">
        <ele>1075.0</ele>
        <time>2015-04-28T13:53:48Z</time>
      </trkpt>
      <trkpt lat="43.275150" lon="-4.306350">
        <ele>1077.0</ele>
        <time>2015-04-28T13:53:49Z</time>
      </trkpt>
      <trkpt lat="43.275150" lon="-4.306433">
        <ele>1079.0</ele>
        <time>2015-04-28T13:53:50Z</time>
      </trkpt>
      <trkpt lat="43.275133" lon="-4.306550">
        <ele>1082.0</ele>
        <time>2015-04-28T13:53:51Z</time>
      </trkpt>
      <trkpt lat="43.275117" lon="-4.306650">
        <ele>1084.0</ele>
        <time>2015-04-28T13:53:52Z</time>
      </trkpt>
      <trkpt lat="43.275067" lon="-4.306767">
        <ele>1087.0</ele>
        <time>2015-04-28T13:53:53Z</time>
      </trkpt>
      <trkpt lat="43.275017" lon="-4.306883">
        <ele>1090.0</ele>
        <time>2015-04-28T13:53:54Z</time>
      </trkpt>
      <trkpt lat="43.274950" lon="-4.307000">
        <ele>1093.0</ele>
        <time>2015-04-28T13:53:55Z</time>
      </trkpt>
      <trkpt lat="43.274850" lon="-4.307100">
        <ele>1096.0</ele>
        <time>2015-04-28T13:53:56Z</time>
      </trkpt>
      <trkpt lat="43.274750" lon="-4.307150">
        <ele>1099.0</ele>
        <time>2015-04-28T13:53:57Z</time>
      </trkpt>
      <trkpt lat="43.274650" lon="-4.307167">
        <ele>1101.0</ele>
        <time>2015-04-28T13:53:58Z</time>
      </trkpt>
      <trkpt lat="43.274533" lon="-4.307150">
        <ele>1104.0</ele>
        <time>2015-04-28T13:53:59Z</time>
      </trkpt>
      <trkpt lat="43.274417" lon="-4.307150">
        <ele>1108.0</ele>
        <time>2015-04-28T13:54:00Z</time>
      </trkpt>
      <trkpt lat="43.274333" lon="-4.307150">
        <ele>1111.0</ele>
        <time>2015-04-28T13:54:01Z</time>
      </trkpt>
      <trkpt lat="43.274250" lon="-4.307150">
        <ele>1114.0</ele>
        <time>2015-04-28T13:54:02Z</time>
      </trkpt>
      <trkpt lat="43.274183" lon="-4.307100">
        <ele>1117.0</ele>
        <time>2015-04-28T13:54:03Z</time>
      </trkpt>
      <trkpt lat="43.274133" lon="-4.307033">
        <ele>1112.0</ele>
        <time>2015-04-28T13:54:04Z</time>
      </trkpt>
      <trkpt lat="43.274100" lon="-4.306967">
        <ele>1113.0</ele>
        <time>2015-04-28T13:54:05Z</time>
      </trkpt>
      <trkpt lat="43.274100" lon="-4.306900">
        <ele>1115.0</ele>
        <time>2015-04-28T13:54:06Z</time>
      </trkpt>
      <trkpt lat="43.274100" lon="-4.306867">
        <ele>1118.0</ele>
        <time>2015-04-28T13:54:07Z</time>
      </trkpt>
      <trkpt lat="43.274100" lon="-4.306850">
        <ele>1121.0</ele>
        <time>2015-04-28T13:54:08Z</time>
      </trkpt>
      <trkpt lat="43.274100" lon="-4.306850">
        <ele>1123.0</ele>
        <time>2015-04-28T13:54:09Z</time>
      </trkpt>
      <trkpt lat="43.274117" lon="-4.306867">
        <ele>1125.0</ele>
        <time>2015-04-28T13:54:10Z</time>
      </trkpt>
      <trkpt lat="43.274150" lon="-4.306900">
        <ele>1126.0</ele>
        <time>2015-04-28T13:54:11Z</time>
      </trkpt>
      <trkpt lat="43.274200" lon="-4.306967">
        <ele>1128.0</ele>
        <time>2015-04-28T13:54:12Z</time>
      </trkpt>
      <trkpt lat="43.274217" lon="-4.307050">
        <ele>1133.0</ele>
        <time>2015-04-28T13:54:13Z</time>
      </trkpt>
      <trkpt lat="43.274250" lon="-4.307117">
        <ele>1137.0</ele>
        <time>2015-04-28T13:54:14Z</time>
      </trkpt>
      <trkpt lat="43.274250" lon="-4.307167">
        <ele>1133.0</ele>
        <time>2015-04-28T13:54:15Z</time>
      </trkpt>
      <trkpt lat="43.274267" lon="-4.307217">
        <ele>1134.0</ele>
        <time>2015-04-28T13:54:16Z</time>
      </trkpt>
      <trkpt lat="43.274300" lon="-4.307300">
        <ele>1135.0</ele>
        <time>2015-04-28T13:54:17Z</time>
      </trkpt>
      <trkpt lat="43.274333" lon="-4.307383">
        <ele>1136.0</ele>
        <time>2015-04-28T13:54:18Z</time>
      </trkpt>
      <trkpt lat="43.274367" lon="-4.307467">
        <ele>1136.0</ele>
        <time>2015-04-28T13:54:19Z</time>
      </trkpt>
      <trkpt lat="43.274417" lon="-4.307533">
        <ele>1137.0</ele>
        <time>2015-04-28T13:54:20Z</time>
      </trkpt>
      <trkpt lat="43.274433" lon="-4.307600">
        <ele>1138.0</ele>
        <time>2015-04-28T13:54:21Z</time>
      </trkpt>
      <trkpt lat="43.274450" lon="-4.307667">
        <ele>1138.0</ele>
        <time>2015-04-28T13:54:22Z</time>
      </trkpt>
      <trkpt lat="43.274483" lon="-4.307767">
        <ele>1139.0</ele>
        <time>2015-04-28T13:54:23Z</time>
      </trkpt>
      <trkpt lat="43.274517" lon="-4.307883">
        <ele>1140.0</ele>
        <time>2015-04-28T13:54:24Z</time>
      </trkpt>
      <trkpt lat="43.274550" lon="-4.308000">
        <ele>1141.0</ele>
        <time>2015-04-28T13:54:25Z</time>
      </trkpt>
      <trkpt lat="43.274600" lon="-4.308100">
        <ele>1143.0</ele>
        <time>2015-04-28T13:54:26Z</time>
      </trkpt>
      <trkpt lat="43.274617" lon="-4.308183">
        <ele>1144.0</ele>
        <time>2015-04-28T13:54:27Z</time>
      </trkpt>
      <trkpt lat="43.274633" lon="-4.308283">
        <ele>1145.0</ele>
        <time>2015-04-28T13:54:28Z</time>
      </trkpt>
      <trkpt lat="43.274650" lon="-4.308400">
        <ele>1146.0</ele>
        <time>2015-04-28T13:54:29Z</time>
      </trkpt>
      <trkpt lat="43.274667" lon="-4.308500">
        <ele>1147.0</ele>
        <time>2015-04-28T13:54:30Z</time>
      </trkpt>
      <trkpt lat="43.274667" lon="-4.308617">
        <ele>1148.0</ele>
        <time>2015-04-28T13:54:31Z</time>
      </trkpt>
      <trkpt lat="43.274683" lon="-4.308733">
        <ele>1149.0</ele>
        <time>2015-04-28T13:54:32Z</time>
      </trkpt>
      <trkpt lat="43.274700" lon="-4.308850">
        <ele>1150.0</ele>
        <time>2015-04-28T13:54:33Z</time>
      </trkpt>
      <trkpt lat="43.274750" lon="-4.308983">
        <ele>1151.0</ele>
        <time>2015-04-28T13:54:34Z</time>
      </trkpt>
      <trkpt lat="43.274783" lon="-4.309100">
        <ele>1152.0</ele>
        <time>2015-04-28T13:54:35Z</time>
      </trkpt>
      <trkpt lat="43.274800" lon="-4.309200">
        <ele>1153.0</ele>
        <time>2015-04-28T13:54:36Z</time>
      </trkpt>
      <trkpt lat="43.274833" lon="-4.309317">
        <ele>1156.0</ele>
        <time>2015-04-28T13:54:37Z</time>
      </trkpt>
      <trkpt lat="43.274867" lon="-4.309433">
        <ele>1158.0</ele>
        <time>2015-04-28T13:54:38Z</time>
      </trkpt>
      <trkpt lat="43.274900" lon="-4.309533">
        <ele>1160.0</ele>
        <time>2015-04-28T13:54:39Z</time>
      </trkpt>
      <trkpt lat="43.274933" lon="-4.309617">
        <ele>1161.0</ele>
        <time>2015-04-28T13:54:40Z</time>
      </trkpt>
      <trkpt lat="43.274967" lon="-4.309700">
        <ele>1162.0</ele>
        <time>2015-04-28T13:54:41Z</time>
      </trkpt>
      <trkpt lat="43.275000" lon="-4.309767">
        <ele>1163.0</ele>
        <time>2015-04-28T13:54:42Z</time>
      </trkpt>
      <trkpt lat="43.275033" lon="-4.309833">
        <ele>1163.0</ele>
        <time>2015-04-28T13:54:43Z</time>
      </trkpt>
      <trkpt lat="43.275083" lon="-4.309900">
        <ele>1164.0</ele>
        <time>2015-04-28T13:54:44Z</time>
      </trkpt>
      <trkpt lat="43.275117" lon="-4.309967">
        <ele>1164.0</ele>
        <time>2015-04-28T13:54:45Z</time>
      </trkpt>
      <trkpt lat="43.275167" lon="-4.310050">
        <ele>1165.0</ele>
        <time>2015-04-28T13:54:46Z</time>
      </trkpt>
      <trkpt lat="43.275200" lon="-4.310133">
        <ele>1165.0</ele>
        <time>2015-04-28T13:54:47Z</time>
      </trkpt>
      <trkpt lat="43.275250" lon="-4.310217">
        <ele>1166.0</ele>
        <time>2015-04-28T13:54:48Z</time>
      </trkpt>
      <trkpt lat="43.275300" lon="-4.310283">
        <ele>1166.0</ele>
        <time>2015-04-28T13:54:49Z</time>
      </trkpt>
      <trkpt lat="43.275350" lon="-4.310367">
        <ele>1166.0</ele>
        <time>2015-04-28T13:54:50Z</time>
      </trkpt>
      <trkpt lat="43.275417" lon="-4.310450">
        <ele>1167.0</ele>
        <time>2015-04-28T13:54:51Z</time>
      </trkpt>
      <trkpt lat="43.275467" lon="-4.310533">
        <ele>1167.0</ele>
        <time>2015-04-28T13:54:52Z</time>
      </trkpt>
      <trkpt lat="43.275517" lon="-4.310617">
        <ele>1167.0</ele>
        <time>2015-04-28T13:54:53Z</time>
      </trkpt>
      <trkpt lat="43.275550" lon="-4.310700">
        <ele>1168.0</ele>
        <time>2015-04-28T13:54:54Z</time>
      </trkpt>
      <trkpt lat="43.275583" lon="-4.310800">
        <ele>1168.0</ele>
        <time>2015-04-28T13:54:55Z</time>
      </trkpt>
      <trkpt lat="43.275633" lon="-4.310900">
        <ele>1168.0</ele>
        <time>2015-04-28T13:54:56Z</time>
      </trkpt>
      <trkpt lat="43.275683" lon="-4.311000">
        <ele>1168.0</ele>
        <time>2015-04-28T13:54:57Z</time>
      </trkpt>
      <trkpt lat="43.275717" lon="-4.311083">
        <ele>1169.0</ele>
        <time>2015-04-28T13:54:58Z</time>
      </trkpt>
      <trkpt lat="43.275750" lon="-4.311167">
        <ele>1169.0</ele>
        <time>2015-04-28T13:54:59Z</time>
      </trkpt>
      <trkpt lat="43.275783" lon="-4.311250">
        <ele>1169.0</ele>
        <time>2015-04-28T13:55:00Z</time>
      </trkpt>
      <trkpt lat="43.275817" lon="-4.311333">
        <ele>1169.0</ele>
        <time>2015-04-28T13:55:01Z</time>
      </trkpt>
      <trkpt lat="43.275850" lon="-4.311433">
        <ele>1169.0</ele>
        <time>2015-04-28T13:55:02Z</time>
      </trkpt>
      <trkpt lat="43.275900" lon="-4.311533">
        <ele>1169.0</ele>
        <time>2015-04-28T13:55:03Z</time>
      </trkpt>
      <trkpt lat="43.275933" lon="-4.311633">
        <ele>1169.0</ele>
        <time>2015-04-28T13:55:04Z</time>
      </trkpt>
      <trkpt lat="43.275967" lon="-4.311750">
        <ele>1169.0</ele>
        <time>2015-04-28T13:55:05Z</time>
      </trkpt>
      <trkpt lat="43.276000" lon="-4.311850">
        <ele>1169.0</ele>
        <time>2015-04-28T13:55:06Z</time>
      </trkpt>
      <trkpt lat="43.276033" lon="-4.311950">
        <ele>1169.0</ele>
        <time>2015-04-28T13:55:07Z</time>
      </trkpt>
      <trkpt lat="43.276050" lon="-4.312050">
        <ele>1169.0</ele>
        <time>2015-04-28T13:55:08Z</time>
      </trkpt>
      <trkpt lat="43.276100" lon="-4.312150">
        <ele>1169.0</ele>
        <time>2015-04-28T13:55:09Z</time>
      </trkpt>
      <trkpt lat="43.276133" lon="-4.312250">
        <ele>1169.0</ele>
        <time>2015-04-28T13:55:10Z</time>
      </trkpt>
      <trkpt lat="43.276167" lon="-4.312333">
        <ele>1169.0</ele>
        <time>2015-04-28T13:55:11Z</time>
      </trkpt>
      <trkpt lat="43.276200" lon="-4.312400">
        <ele>1168.0</ele>
        <time>2015-04-28T13:55:12Z</time>
      </trkpt>
      <trkpt lat="43.276233" lon="-4.312483">
        <ele>1168.0</ele>
        <time>2015-04-28T13:55:13Z</time>
      </trkpt>
      <trkpt lat="43.276283" lon="-4.312550">
        <ele>1168.0</ele>
        <time>2015-04-28T13:55:14Z</time>
      </trkpt>
      <trkpt lat="43.276317" lon="-4.312633">
        <ele>1168.0</ele>
        <time>2015-04-28T13:55:15Z</time>
      </trkpt>
      <trkpt lat="43.276350" lon="-4.312733">
        <ele>1168.0</ele>
        <time>2015-04-28T13:55:16Z</time>
      </trkpt>
      <trkpt lat="43.276383" lon="-4.312817">
        <ele>1168.0</ele>
        <time>2015-04-28T13:55:17Z</time>
      </trkpt>
      <trkpt lat="43.276417" lon="-4.312917">
        <ele>1167.0</ele>
        <time>2015-04-28T13:55:18Z</time>
      </trkpt>
      <trkpt lat="43.276450" lon="-4.313017">
        <ele>1167.0</ele>
        <time>2015-04-28T13:55:19Z</time>
      </trkpt>
      <trkpt lat="43.276483" lon="-4.313100">
        <ele>1167.0</ele>
        <time>2015-04-28T13:55:20Z</time>
      </trkpt>
      <trkpt lat="43.276517" lon="-4.313200">
        <ele>1167.0</ele>
        <time>2015-04-28T13:55:21Z</time>
      </trkpt>
      <trkpt lat="43.276550" lon="-4.313300">
        <ele>1166.0</ele>
        <time>2015-04-28T13:55:22Z</time>
      </trkpt>
      <trkpt lat="43.276567" lon="-4.313383">
        <ele>1166.0</ele>
        <time>2015-04-28T13:55:23Z</time>
      </trkpt>
      <trkpt lat="43.276600" lon="-4.313433">
        <ele>1165.0</ele>
        <time>2015-04-28T13:55:24Z</time>
      </trkpt>
      <trkpt lat="43.276633" lon="-4.313517">
        <ele>1165.0</ele>
        <time>2015-04-28T13:55:25Z</time>
      </trkpt>
      <trkpt lat="43.276683" lon="-4.313600">
        <ele>1165.0</ele>
        <time>2015-04-28T13:55:26Z</time>
      </trkpt>
      <trkpt lat="43.276717" lon="-4.313683">
        <ele>1164.0</ele>
        <time>2015-04-28T13:55:27Z</time>
      </trkpt>
      <trkpt lat="43.276750" lon="-4.313733">
        <ele>1163.0</ele>
        <time>2015-04-28T13:55:28Z</time>
      </trkpt>
      <trkpt lat="43.276783" lon="-4.313783">
        <ele>1163.0</ele>
        <time>2015-04-28T13:55:29Z</time>
      </trkpt>
      <trkpt lat="43.276800" lon="-4.313833">
        <ele>1162.0</ele>
        <time>2015-04-28T13:55:30Z</time>
      </trkpt>
      <trkpt lat="43.276817" lon="-4.313883">
        <ele>1161.0</ele>
        <time>2015-04-28T13:55:31Z</time>
      </trkpt>
      <trkpt lat="43.276850" lon="-4.313950">
        <ele>1160.0</ele>
        <time>2015-04-28T13:55:32Z</time>
      </trkpt>
      <trkpt lat="43.276883" lon="-4.314033">
        <ele>1159.0</ele>
        <time>2015-04-28T13:55:33Z</time>
      </trkpt>
      <trkpt lat="43.276933" lon="-4.314150">
        <ele>1159.0</ele>
        <time>2015-04-28T13:55:34Z</time>
      </trkpt>
      <trkpt lat="43.276967" lon="-4.314267">
        <ele>1158.0</ele>
        <time>2015-04-28T13:55:35Z</time>
      </trkpt>
      <trkpt lat="43.276983" lon="-4.314400">
        <ele>1158.0</ele>
        <time>2015-04-28T13:55:36Z</time>
      </trkpt>
      <trkpt lat="43.277000" lon="-4.314517">
        <ele>1157.0</ele>
        <time>2015-04-28T13:55:37Z</time>
      </trkpt>
      <trkpt lat="43.277033" lon="-4.314633">
        <ele>1157.0</ele>
        <time>2015-04-28T13:55:38Z</time>
      </trkpt>
      <trkpt lat="43.277050" lon="-4.314767">
        <ele>1157.0</ele>
        <time>2015-04-28T13:55:39Z</time>
      </trkpt>
      <trkpt lat="43.277083" lon="-4.314900">
        <ele>1156.0</ele>
        <time>2015-04-28T13:55:40Z</time>
      </trkpt>
      <trkpt lat="43.277117" lon="-4.315017">
        <ele>1156.0</ele>
        <time>2015-04-28T13:55:41Z</time>
      </trkpt>
      <trkpt lat="43.277150" lon="-4.315133">
        <ele>1155.0</ele>
        <time>2015-04-28T13:55:42Z</time>
      </trkpt>
      <trkpt lat="43.277183" lon="-4.315250">
        <ele>1155.0</ele>
        <time>2015-04-28T13:55:43Z</time>
      </trkpt>
      <trkpt lat="43.277233" lon="-4.315350">
        <ele>1155.0</ele>
        <time>2015-04-28T13:55:44Z</time>
      </trkpt>
      <trkpt lat="43.277267" lon="-4.315467">
        <ele>1154.0</ele>
        <time>2015-04-28T13:55:45Z</time>
      </trkpt>
      <trkpt lat="43.277300" lon="-4.315583">
        <ele>1154.0</ele>
        <time>2015-04-28T13:55:46Z</time>
      </trkpt>
      <trkpt lat="43.277333" lon="-4.315683">
        <ele>1154.0</ele>
        <time>2015-04-28T13:55:47Z</time>
      </trkpt>
      <trkpt lat="43.277383" lon="-4.315783">
        <ele>1154.0</ele>
        <time>2015-04-28T13:55:48Z</time>
      </trkpt>
      <trkpt lat="43.277433" lon="-4.315883">
        <ele>1153.0</ele>
        <time>2015-04-28T13:55:49Z</time>
      </trkpt>
      <trkpt lat="43.277467" lon="-4.315967">
        <ele>1152.0</ele>
        <time>2015-04-28T13:55:50Z</time>
      </trkpt>
      <trkpt lat="43.277517" lon="-4.316067">
        <ele>1152.0</ele>
        <time>2015-04-28T13:55:51Z</time>
      </trkpt>
      <trkpt lat="43.277567" lon="-4.316183">
        <ele>1152.0</ele>
        <time>2015-04-28T13:55:52Z</time>
      </trkpt>
      <trkpt lat="43.277617" lon="-4.316283">
        <ele>1151.0</ele>
        <time>2015-04-28T13:55:53Z</time>
      </trkpt>
      <trkpt lat="43.277650" lon="-4.316383">
        <ele>1151.0</ele>
        <time>2015-04-28T13:55:54Z</time>
      </trkpt>
      <trkpt lat="43.277700" lon="-4.316483">
        <ele>1151.0</ele>
        <time>2015-04-28T13:55:55Z</time>
      </trkpt>
      <trkpt lat="43.277733" lon="-4.316583">
        <ele>1151.0</ele>
        <time>2015-04-28T13:55:56Z</time>
      </trkpt>
      <trkpt lat="43.277767" lon="-4.316683">
        <ele>1151.0</ele>
        <time>2015-04-28T13:55:57Z</time>
      </trkpt>
      <trkpt lat="43.277817" lon="-4.316800">
        <ele>1151.0</ele>
        <time>2015-04-28T13:55:58Z</time>
      </trkpt>
      <trkpt lat="43.277867" lon="-4.316900">
        <ele>1150.0</ele>
        <time>2015-04-28T13:55:59Z</time>
      </trkpt>
      <trkpt lat="43.277917" lon="-4.317017">
        <ele>1150.0</ele>
        <time>2015-04-28T13:56:00Z</time>
      </trkpt>
      <trkpt lat="43.277967" lon="-4.317117">
        <ele>1149.0</ele>
        <time>2015-04-28T13:56:01Z</time>
      </trkpt>
      <trkpt lat="43.278017" lon="-4.317233">
        <ele>1148.0</ele>
        <time>2015-04-28T13:56:02Z</time>
      </trkpt>
      <trkpt lat="43.278067" lon="-4.317333">
        <ele>1147.0</ele>
        <time>2015-04-28T13:56:03Z</time>
      </trkpt>
      <trkpt lat="43.278117" lon="-4.317433">
        <ele>1148.0</ele>
        <time>2015-04-28T13:56:04Z</time>
      </trkpt>
      <trkpt lat="43.278150" lon="-4.317550">
        <ele>1147.0</ele>
        <time>2015-04-28T13:56:05Z</time>
      </trkpt>
      <trkpt lat="43.278200" lon="-4.317650">
        <ele>1147.0</ele>
        <time>2015-04-28T13:56:06Z</time>
      </trkpt>
      <trkpt lat="43.278233" lon="-4.317783">
        <ele>1147.0</ele>
        <time>2015-04-28T13:56:07Z</time>
      </trkpt>
      <trkpt lat="43.278267" lon="-4.317900">
        <ele>1146.0</ele>
        <time>2015-04-28T13:56:08Z</time>
      </trkpt>
      <trkpt lat="43.278317" lon="-4.318033">
        <ele>1145.0</ele>
        <time>2015-04-28T13:56:09Z</time>
      </trkpt>
      <trkpt lat="43.278350" lon="-4.318167">
        <ele>1144.0</ele>
        <time>2015-04-28T13:56:10Z</time>
      </trkpt>
      <trkpt lat="43.278383" lon="-4.318300">
        <ele>1144.0</ele>
        <time>2015-04-28T13:56:11Z</time>
      </trkpt>
      <trkpt lat="43.278400" lon="-4.318450">
        <ele>1143.0</ele>
        <time>2015-04-28T13:56:12Z</time>
      </trkpt>
      <trkpt lat="43.278417" lon="-4.318600">
        <ele>1143.0</ele>
        <time>2015-04-28T13:56:13Z</time>
      </trkpt>
      <trkpt lat="43.278417" lon="-4.318733">
        <ele>1142.0</ele>
        <time>2015-04-28T13:56:14Z</time>
      </trkpt>
      <trkpt lat="43.278417" lon="-4.318883">
        <ele>1141.0</ele>
        <time>2015-04-28T13:56:15Z</time>
      </trkpt>
      <trkpt lat="43.278433" lon="-4.319033">
        <ele>1140.0</ele>
        <time>2015-04-28T13:56:16Z</time>
      </trkpt>
      <trkpt lat="43.278433" lon="-4.319183">
        <ele>1140.0</ele>
        <time>2015-04-28T13:56:17Z</time>
      </trkpt>
      <trkpt lat="43.278433" lon="-4.319350">
        <ele>1139.0</ele>
        <time>2015-04-28T13:56:18Z</time>
      </trkpt>
      <trkpt lat="43.278450" lon="-4.319500">
        <ele>1139.0</ele>
        <time>2015-04-28T13:56:19Z</time>
      </trkpt>
      <trkpt lat="43.278483" lon="-4.319650">
        <ele>1139.0</ele>
        <time>2015-04-28T13:56:20Z</time>
      </trkpt>
      <trkpt lat="43.278517" lon="-4.319783">
        <ele>1138.0</ele>
        <time>2015-04-28T13:56:21Z</time>
      </trkpt>
      <trkpt lat="43.278533" lon="-4.319950">
        <ele>1136.0</ele>
        <time>2015-04-28T13:56:22Z</time>
      </trkpt>
      <trkpt lat="43.278550" lon="-4.320117">
        <ele>1135.0</ele>
        <time>2015-04-28T13:56:23Z</time>
      </trkpt>
      <trkpt lat="43.278550" lon="-4.320283">
        <ele>1135.0</ele>
        <time>2015-04-28T13:56:24Z</time>
      </trkpt>
      <trkpt lat="43.278583" lon="-4.320450">
        <ele>1137.0</ele>
        <time>2015-04-28T13:56:25Z</time>
      </trkpt>
      <trkpt lat="43.278600" lon="-4.320583">
        <ele>1138.0</ele>
        <time>2015-04-28T13:56:26Z</time>
      </trkpt>
      <trkpt lat="43.278617" lon="-4.320717">
        <ele>1138.0</ele>
        <time>2015-04-28T13:56:27Z</time>
      </trkpt>
      <trkpt lat="43.278617" lon="-4.320867">
        <ele>1138.0</ele>
        <time>2015-04-28T13:56:28Z</time>
      </trkpt>
      <trkpt lat="43.278633" lon="-4.321050">
        <ele>1138.0</ele>
        <time>2015-04-28T13:56:29Z</time>
      </trkpt>
      <trkpt lat="43.278650" lon="-4.321217">
        <ele>1137.0</ele>
        <time>2015-04-28T13:56:30Z</time>
      </trkpt>
      <trkpt lat="43.278683" lon="-4.321383">
        <ele>1138.0</ele>
        <time>2015-04-28T13:56:31Z</time>
      </trkpt>
      <trkpt lat="43.278700" lon="-4.321533">
        <ele>1138.0</ele>
        <time>2015-04-28T13:56:32Z</time>
      </trkpt>
      <trkpt lat="43.278717" lon="-4.321683">
        <ele>1139.0</ele>
        <time>2015-04-28T13:56:33Z</time>
      </trkpt>
      <trkpt lat="43.278733" lon="-4.321833">
        <ele>1138.0</ele>
        <time>2015-04-28T13:56:34Z</time>
      </trkpt>
      <trkpt lat="43.278733" lon="-4.321983">
        <ele>1137.0</ele>
        <time>2015-04-28T13:56:35Z</time>
      </trkpt>
      <trkpt lat="43.278767" lon="-4.322150">
        <ele>1136.0</ele>
        <time>2015-04-28T13:56:36Z</time>
      </trkpt>
      <trkpt lat="43.278783" lon="-4.322317">
        <ele>1136.0</ele>
        <time>2015-04-28T13:56:37Z</time>
      </trkpt>
      <trkpt lat="43.278800" lon="-4.322467">
        <ele>1135.0</ele>
        <time>2015-04-28T13:56:38Z</time>
      </trkpt>
      <trkpt lat="43.278817" lon="-4.322617">
        <ele>1135.0</ele>
        <time>2015-04-28T13:56:39Z</time>
      </trkpt>
      <trkpt lat="43.278833" lon="-4.322767">
        <ele>1135.0</ele>
        <time>2015-04-28T13:56:40Z</time>
      </trkpt>
      <trkpt lat="43.278850" lon="-4.322900">
        <ele>1134.0</ele>
        <time>2015-04-28T13:56:41Z</time>
      </trkpt>
      <trkpt lat="43.278867" lon="-4.323050">
        <ele>1133.0</ele>
        <time>2015-04-28T13:56:42Z</time>
      </trkpt>
      <trkpt lat="43.278900" lon="-4.323200">
        <ele>1131.0</ele>
        <time>2015-04-28T13:56:43Z</time>
      </trkpt>
      <trkpt lat="43.278933" lon="-4.323350">
        <ele>1131.0</ele>
        <time>2015-04-28T13:56:44Z</time>
      </trkpt>
      <trkpt lat="43.278950" lon="-4.323517">
        <ele>1130.0</ele>
        <time>2015-04-28T13:56:45Z</time>
      </trkpt>
      <trkpt lat="43.278983" lon="-4.323667">
        <ele>1130.0</ele>
        <time>2015-04-28T13:56:46Z</time>
      </trkpt>
      <trkpt lat="43.279000" lon="-4.323833">
        <ele>1129.0</ele>
        <time>2015-04-28T13:56:47Z</time>
      </trkpt>
      <trkpt lat="43.279000" lon="-4.323983">
        <ele>1128.0</ele>
        <time>2015-04-28T13:56:48Z</time>
      </trkpt>
      <trkpt lat="43.279000" lon="-4.324150">
        <ele>1127.0</ele>
        <time>2015-04-28T13:56:49Z</time>
      </trkpt>
      <trkpt lat="43.279000" lon="-4.324317">
        <ele>1126.0</ele>
        <time>2015-04-28T13:56:50Z</time>
      </trkpt>
      <trkpt lat="43.279000" lon="-4.324483">
        <ele>1125.0</ele>
        <time>2015-04-28T13:56:51Z</time>
      </trkpt>
      <trkpt lat="43.279000" lon="-4.324633">
        <ele>1125.0</ele>
        <time>2015-04-28T13:56:52Z</time>
      </trkpt>
      <trkpt lat="43.278983" lon="-4.324783">
        <ele>1124.0</ele>
        <time>2015-04-28T13:56:53Z</time>
      </trkpt>
      <trkpt lat="43.278983" lon="-4.324933">
        <ele>1124.0</ele>
        <time>2015-04-28T13:56:54Z</time>
      </trkpt>
      <trkpt lat="43.278983" lon="-4.325083">
        <ele>1123.0</ele>
        <time>2015-04-28T13:56:55Z</time>
      </trkpt>
      <trkpt lat="43.278983" lon="-4.325250">
        <ele>1122.0</ele>
        <time>2015-04-28T13:56:56Z</time>
      </trkpt>
      <trkpt lat="43.278983" lon="-4.325417">
        <ele>1121.0</ele>
        <time>2015-04-28T13:56:57Z</time>
      </trkpt>
      <trkpt lat="43.278967" lon="-4.325567">
        <ele>1121.0</ele>
        <time>2015-04-28T13:56:58Z</time>
      </trkpt>
      <trkpt lat="43.278950" lon="-4.325733">
        <ele>1120.0</ele>
        <time>2015-04-28T13:56:59Z</time>
      </trkpt>
      <trkpt lat="43.278933" lon="-4.325883">
        <ele>1119.0</ele>
        <time>2015-04-28T13:57:00Z</time>
      </trkpt>
      <trkpt lat="43.278917" lon="-4.326033">
        <ele>1119.0</ele>
        <time>2015-04-28T13:57:01Z</time>
      </trkpt>
      <trkpt lat="43.278900" lon="-4.326183">
        <ele>1118.0</ele>
        <time>2015-04-28T13:57:02Z</time>
      </trkpt>
      <trkpt lat="43.278883" lon="-4.326333">
        <ele>1117.0</ele>
        <time>2015-04-28T13:57:03Z</time>
      </trkpt>
      <trkpt lat="43.278867" lon="-4.326500">
        <ele>1117.0</ele>
        <time>2015-04-28T13:57:04Z</time>
      </trkpt>
      <trkpt lat="43.278867" lon="-4.326667">
        <ele>1116.0</ele>
        <time>2015-04-28T13:57:05Z</time>
      </trkpt>
      <trkpt lat="43.278867" lon="-4.326817">
        <ele>1116.0</ele>
        <time>2015-04-28T13:57:06Z</time>
      </trkpt>
      <trkpt lat="43.278867" lon="-4.326950">
        <ele>1115.0</ele>
        <time>2015-04-28T13:57:07Z</time>
      </trkpt>
      <trkpt lat="43.278850" lon="-4.327083">
        <ele>1115.0</ele>
        <time>2015-04-28T13:57:08Z</time>
      </trkpt>
      <trkpt lat="43.278850" lon="-4.327233">
        <ele>1114.0</ele>
        <time>2015-04-28T13:57:09Z</time>
      </trkpt>
      <trkpt lat="43.278850" lon="-4.327400">
        <ele>1113.0</ele>
        <time>2015-04-28T13:57:10Z</time>
      </trkpt>
      <trkpt lat="43.278833" lon="-4.327550">
        <ele>1112.0</ele>
        <time>2015-04-28T13:57:11Z</time>
      </trkpt>
      <trkpt lat="43.278850" lon="-4.327717">
        <ele>1112.0</ele>
        <time>2015-04-28T13:57:12Z</time>
      </trkpt>
      <trkpt lat="43.278867" lon="-4.327850">
        <ele>1112.0</ele>
        <time>2015-04-28T13:57:13Z</time>
      </trkpt>
      <trkpt lat="43.278900" lon="-4.327967">
        <ele>1111.0</ele>
        <time>2015-04-28T13:57:14Z</time>
      </trkpt>
      <trkpt lat="43.278950" lon="-4.328100">
        <ele>1113.0</ele>
        <time>2015-04-28T13:57:15Z</time>
      </trkpt>
      <trkpt lat="43.279000" lon="-4.328200">
        <ele>1112.0</ele>
        <time>2015-04-28T13:57:16Z</time>
      </trkpt>
      <trkpt lat="43.279050" lon="-4.328283">
        <ele>1113.0</ele>
        <time>2015-04-28T13:57:17Z</time>
      </trkpt>
      <trkpt lat="43.279133" lon="-4.328367">
        <ele>1112.0</ele>
        <time>2015-04-28T13:57:18Z</time>
      </trkpt>
      <trkpt lat="43.279200" lon="-4.328417">
        <ele>1112.0</ele>
        <time>2015-04-28T13:57:19Z</time>
      </trkpt>
      <trkpt lat="43.279300" lon="-4.328467">
        <ele>1111.0</ele>
        <time>2015-04-28T13:57:20Z</time>
      </trkpt>
      <trkpt lat="43.279383" lon="-4.328517">
        <ele>1111.0</ele>
        <time>2015-04-28T13:57:21Z</time>
      </trkpt>
      <trkpt lat="43.279450" lon="-4.328567">
        <ele>1111.0</ele>
        <time>2015-04-28T13:57:22Z</time>
      </trkpt>
      <trkpt lat="43.279517" lon="-4.328600">
        <ele>1110.0</ele>
        <time>2015-04-28T13:57:23Z</time>
      </trkpt>
      <trkpt lat="43.279583" lon="-4.328650">
        <ele>1110.0</ele>
        <time>2015-04-28T13:57:24Z</time>
      </trkpt>
      <trkpt lat="43.279650" lon="-4.328667">
        <ele>1110.0</ele>
        <time>2015-04-28T13:57:25Z</time>
      </trkpt>
      <trkpt lat="43.279733" lon="-4.328683">
        <ele>1109.0</ele>
        <time>2015-04-28T13:57:26Z</time>
      </trkpt>
      <trkpt lat="43.279800" lon="-4.328700">
        <ele>1109.0</ele>
        <time>2015-04-28T13:57:27Z</time>
      </trkpt>
      <trkpt lat="43.279883" lon="-4.328717">
        <ele>1109.0</ele>
        <time>2015-04-28T13:57:28Z</time>
      </trkpt>
      <trkpt lat="43.279950" lon="-4.328717">
        <ele>1108.0</ele>
        <time>2015-04-28T13:57:29Z</time>
      </trkpt>
      <trkpt lat="43.280017" lon="-4.328700">
        <ele>1107.0</ele>
        <time>2015-04-28T13:57:30Z</time>
      </trkpt>
      <trkpt lat="43.280083" lon="-4.328700">
        <ele>1107.0</ele>
        <time>2015-04-28T13:57:31Z</time>
      </trkpt>
      <trkpt lat="43.280150" lon="-4.328700">
        <ele>1106.0</ele>
        <time>2015-04-28T13:57:32Z</time>
      </trkpt>
      <trkpt lat="43.280217" lon="-4.328717">
        <ele>1106.0</ele>
        <time>2015-04-28T13:57:33Z</time>
      </trkpt>
      <trkpt lat="43.280300" lon="-4.328700">
        <ele>1106.0</ele>
        <time>2015-04-28T13:57:34Z</time>
      </trkpt>
      <trkpt lat="43.280350" lon="-4.328717">
        <ele>1105.0</ele>
        <time>2015-04-28T13:57:35Z</time>
      </trkpt>
      <trkpt lat="43.280417" lon="-4.328733">
        <ele>1105.0</ele>
        <time>2015-04-28T13:57:36Z</time>
      </trkpt>
      <trkpt lat="43.280500" lon="-4.328733">
        <ele>1105.0</ele>
        <time>2015-04-28T13:57:37Z</time>
      </trkpt>
      <trkpt lat="43.280567" lon="-4.328750">
        <ele>1104.0</ele>
        <time>2015-04-28T13:57:38Z</time>
      </trkpt>
      <trkpt lat="43.280650" lon="-4.328750">
        <ele>1104.0</ele>
        <time>2015-04-28T13:57:39Z</time>
      </trkpt>
      <trkpt lat="43.280733" lon="-4.328733">
        <ele>1104.0</ele>
        <time>2015-04-28T13:57:40Z</time>
      </trkpt>
      <trkpt lat="43.280800" lon="-4.328717">
        <ele>1103.0</ele>
        <time>2015-04-28T13:57:41Z</time>
      </trkpt>
      <trkpt lat="43.280867" lon="-4.328700">
        <ele>1103.0</ele>
        <time>2015-04-28T13:57:42Z</time>
      </trkpt>
      <trkpt lat="43.280933" lon="-4.328667">
        <ele>1103.0</ele>
        <time>2015-04-28T13:57:43Z</time>
      </trkpt>
      <trkpt lat="43.281000" lon="-4.328617">
        <ele>1102.0</ele>
        <time>2015-04-28T13:57:44Z</time>
      </trkpt>
      <trkpt lat="43.281067" lon="-4.328583">
        <ele>1102.0</ele>
        <time>2015-04-28T13:57:45Z</time>
      </trkpt>
      <trkpt lat="43.281133" lon="-4.328533">
        <ele>1101.0</ele>
        <time>2015-04-28T13:57:46Z</time>
      </trkpt>
      <trkpt lat="43.281183" lon="-4.328500">
        <ele>1101.0</ele>
        <time>2015-04-28T13:57:47Z</time>
      </trkpt>
      <trkpt lat="43.281250" lon="-4.328450">
        <ele>1101.0</ele>
        <time>2015-04-28T13:57:48Z</time>
      </trkpt>
      <trkpt lat="43.281300" lon="-4.328400">
        <ele>1100.0</ele>
        <time>2015-04-28T13:57:49Z</time>
      </trkpt>
      <trkpt lat="43.281350" lon="-4.328367">
        <ele>1100.0</ele>
        <time>2015-04-28T13:57:50Z</time>
      </trkpt>
      <trkpt lat="43.281400" lon="-4.328333">
        <ele>1100.0</ele>
        <time>2015-04-28T13:57:51Z</time>
      </trkpt>
      <trkpt lat="43.281467" lon="-4.328300">
        <ele>1099.0</ele>
        <time>2015-04-28T13:57:52Z</time>
      </trkpt>
      <trkpt lat="43.281517" lon="-4.328250">
        <ele>1099.0</ele>
        <time>2015-04-28T13:57:53Z</time>
      </trkpt>
      <trkpt lat="43.281567" lon="-4.328217">
        <ele>1099.0</ele>
        <time>2015-04-28T13:57:54Z</time>
      </trkpt>
      <trkpt lat="43.281600" lon="-4.328200">
        <ele>1099.0</ele>
        <time>2015-04-28T13:57:55Z</time>
      </trkpt>
      <trkpt lat="43.281650" lon="-4.328167">
        <ele>1098.0</ele>
        <time>2015-04-28T13:57:56Z</time>
      </trkpt>
      <trkpt lat="43.281700" lon="-4.328133">
        <ele>1098.0</ele>
        <time>2015-04-28T13:57:57Z</time>
      </trkpt>
      <trkpt lat="43.281733" lon="-4.328100">
        <ele>1098.0</ele>
        <time>2015-04-28T13:57:58Z</time>
      </trkpt>
      <trkpt lat="43.281783" lon="-4.328050">
        <ele>1098.0</ele>
        <time>2015-04-28T13:57:59Z</time>
      </trkpt>
      <trkpt lat="43.281833" lon="-4.328000">
        <ele>1097.0</ele>
        <time>2015-04-28T13:58:00Z</time>
      </trkpt>
      <trkpt lat="43.281883" lon="-4.327950">
        <ele>1097.0</ele>
        <time>2015-04-28T13:58:01Z</time>
      </trkpt>
      <trkpt lat="43.281917" lon="-4.327900">
        <ele>1097.0</ele>
        <time>2015-04-28T13:58:02Z</time>
      </trkpt>
      <trkpt lat="43.281967" lon="-4.327850">
        <ele>1097.0</ele>
        <time>2015-04-28T13:58:03Z</time>
      </trkpt>
      <trkpt lat="43.282017" lon="-4.327833">
        <ele>1097.0</ele>
        <time>2015-04-28T13:58:04Z</time>
      </trkpt>
      <trkpt lat="43.282083" lon="-4.327817">
        <ele>1096.0</ele>
        <time>2015-04-28T13:58:05Z</time>
      </trkpt>
      <trkpt lat="43.282133" lon="-4.327783">
        <ele>1095.0</ele>
        <time>2015-04-28T13:58:06Z</time>
      </trkpt>
      <trkpt lat="43.282200" lon="-4.327750">
        <ele>1095.0</ele>
        <time>2015-04-28T13:58:07Z</time>
      </trkpt>
      <trkpt lat="43.282233" lon="-4.327700">
        <ele>1095.0</ele>
        <time>2015-04-28T13:58:08Z</time>
      </trkpt>
      <trkpt lat="43.282283" lon="-4.327650">
        <ele>1094.0</ele>
        <time>2015-04-28T13:58:09Z</time>
      </trkpt>
      <trkpt lat="43.282333" lon="-4.327600">
        <ele>1094.0</ele>
        <time>2015-04-28T13:58:10Z</time>
      </trkpt>
      <trkpt lat="43.282383" lon="-4.327550">
        <ele>1094.0</ele>
        <time>2015-04-28T13:58:11Z</time>
      </trkpt>
      <trkpt lat="43.282467" lon="-4.327517">
        <ele>1094.0</ele>
        <time>2015-04-28T13:58:12Z</time>
      </trkpt>
      <trkpt lat="43.282533" lon="-4.327467">
        <ele>1094.0</ele>
        <time>2015-04-28T13:58:13Z</time>
      </trkpt>
      <trkpt lat="43.282600" lon="-4.327417">
        <ele>1094.0</ele>
        <time>2015-04-28T13:58:14Z</time>
      </trkpt>
      <trkpt lat="43.282650" lon="-4.327383">
        <ele>1093.0</ele>
        <time>2015-04-28T13:58:15Z</time>
      </trkpt>
      <trkpt lat="43.282700" lon="-4.327350">
        <ele>1093.0</ele>
        <time>2015-04-28T13:58:16Z</time>
      </trkpt>
      <trkpt lat="43.282750" lon="-4.327300">
        <ele>1093.0</ele>
        <time>2015-04-28T13:58:17Z</time>
      </trkpt>
      <trkpt lat="43.282800" lon="-4.327250">
        <ele>1093.0</ele>
        <time>2015-04-28T13:58:18Z</time>
      </trkpt>
      <trkpt lat="43.282850" lon="-4.327217">
        <ele>1093.0</ele>
        <time>2015-04-28T13:58:19Z</time>
      </trkpt>
      <trkpt lat="43.282883" lon="-4.327183">
        <ele>1092.0</ele>
        <time>2015-04-28T13:58:20Z</time>
      </trkpt>
      <trkpt lat="43.282933" lon="-4.327133">
        <ele>1092.0</ele>
        <time>2015-04-28T13:58:21Z</time>
      </trkpt>
      <trkpt lat="43.282983" lon="-4.327100">
        <ele>1091.0</ele>
        <time>2015-04-28T13:58:22Z</time>
      </trkpt>
      <trkpt lat="43.283033" lon="-4.327050">
        <ele>1091.0</ele>
        <time>2015-04-28T13:58:23Z</time>
      </trkpt>
      <trkpt lat="43.283067" lon="-4.327017">
        <ele>1090.0</ele>
        <time>2015-04-28T13:58:24Z</time>
      </trkpt>
      <trkpt lat="43.283117" lon="-4.326967">
        <ele>1090.0</ele>
        <time>2015-04-28T13:58:25Z</time>
      </trkpt>
      <trkpt lat="43.283167" lon="-4.326900">
        <ele>1090.0</ele>
        <time>2015-04-28T13:58:26Z</time>
      </trkpt>
      <trkpt lat="43.283217" lon="-4.326850">
        <ele>1090.0</ele>
        <time>2015-04-28T13:58:27Z</time>
      </trkpt>
      <trkpt lat="43.283267" lon="-4.326783">
        <ele>1089.0</ele>
        <time>2015-04-28T13:58:28Z</time>
      </trkpt>
      <trkpt lat="43.283317" lon="-4.326733">
        <ele>1089.0</ele>
        <time>2015-04-28T13:58:29Z</time>
      </trkpt>
      <trkpt lat="43.283367" lon="-4.326683">
        <ele>1089.0</ele>
        <time>2015-04-28T13:58:30Z</time>
      </trkpt>
      <trkpt lat="43.283400" lon="-4.326600">
        <ele>1089.0</ele>
        <time>2015-04-28T13:58:31Z</time>
      </trkpt>
      <trkpt lat="43.283450" lon="-4.326533">
        <ele>1089.0</ele>
        <time>2015-04-28T13:58:32Z</time>
      </trkpt>
      <trkpt lat="43.283517" lon="-4.326483">
        <ele>1088.0</ele>
        <time>2015-04-28T13:58:33Z</time>
      </trkpt>
      <trkpt lat="43.283567" lon="-4.326417">
        <ele>1088.0</ele>
        <time>2015-04-28T13:58:34Z</time>
      </trkpt>
      <trkpt lat="43.283617" lon="-4.326350">
        <ele>1087.0</ele>
        <time>2015-04-28T13:58:35Z</time>
      </trkpt>
      <trkpt lat="43.283667" lon="-4.326300">
        <ele>1087.0</ele>
        <time>2015-04-28T13:58:36Z</time>
      </trkpt>
      <trkpt lat="43.283733" lon="-4.326233">
        <ele>1087.0</ele>
        <time>2015-04-28T13:58:37Z</time>
      </trkpt>
      <trkpt lat="43.283783" lon="-4.326183">
        <ele>1086.0</ele>
        <time>2015-04-28T13:58:38Z</time>
      </trkpt>
      <trkpt lat="43.283850" lon="-4.326150">
        <ele>1086.0</ele>
        <time>2015-04-28T13:58:39Z</time>
      </trkpt>
      <trkpt lat="43.283900" lon="-4.326100">
        <ele>1086.0</ele>
        <time>2015-04-28T13:58:40Z</time>
      </trkpt>
      <trkpt lat="43.283950" lon="-4.326067">
        <ele>1086.0</ele>
        <time>2015-04-28T13:58:41Z</time>
      </trkpt>
      <trkpt lat="43.284000" lon="-4.326033">
        <ele>1086.0</ele>
        <time>2015-04-28T13:58:42Z</time>
      </trkpt>
      <trkpt lat="43.284050" lon="-4.325983">
        <ele>1085.0</ele>
        <time>2015-04-28T13:58:43Z</time>
      </trkpt>
      <trkpt lat="43.284083" lon="-4.325933">
        <ele>1085.0</ele>
        <time>2015-04-28T13:58:44Z</time>
      </trkpt>
      <trkpt lat="43.284150" lon="-4.325900">
        <ele>1085.0</ele>
        <time>2015-04-28T13:58:45Z</time>
      </trkpt>
      <trkpt lat="43.284183" lon="-4.325850">
        <ele>1085.0</ele>
        <time>2015-04-28T13:58:46Z</time>
      </trkpt>
      <trkpt lat="43.284233" lon="-4.325783">
        <ele>1085.0</ele>
        <time>2015-04-28T13:58:47Z</time>
      </trkpt>
      <trkpt lat="43.284267" lon="-4.325717">
        <ele>1084.0</ele>
        <time>2015-04-28T13:58:48Z</time>
      </trkpt>
      <trkpt lat="43.284300" lon="-4.325650">
        <ele>1084.0</ele>
        <time>2015-04-28T13:58:49Z</time>
      </trkpt>
      <trkpt lat="43.284333" lon="-4.325583">
        <ele>1084.0</ele>
        <time>2015-04-28T13:58:50Z</time>
      </trkpt>
      <trkpt lat="43.284367" lon="-4.325517">
        <ele>1084.0</ele>
        <time>2015-04-28T13:58:51Z</time>
      </trkpt>
      <trkpt lat="43.284417" lon="-4.325450">
        <ele>1084.0</ele>
        <time>2015-04-28T13:58:52Z</time>
      </trkpt>
      <trkpt lat="43.284450" lon="-4.325383">
        <ele>1084.0</ele>
        <time>2015-04-28T13:58:53Z</time>
      </trkpt>
      <trkpt lat="43.284483" lon="-4.325300">
        <ele>1084.0</ele>
        <time>2015-04-28T13:58:54Z</time>
      </trkpt>
      <trkpt lat="43.284517" lon="-4.325233">
        <ele>1084.0</ele>
        <time>2015-04-28T13:58:55Z</time>
      </trkpt>
      <trkpt lat="43.284550" lon="-4.325150">
        <ele>1084.0</ele>
        <time>2015-04-28T13:58:56Z</time>
      </trkpt>
      <trkpt lat="43.284583" lon="-4.325083">
        <ele>1083.0</ele>
        <time>2015-04-28T13:58:57Z</time>
      </trkpt>
      <trkpt lat="43.284633" lon="-4.325000">
        <ele>1083.0</ele>
        <time>2015-04-28T13:58:58Z</time>
      </trkpt>
      <trkpt lat="43.284683" lon="-4.324933">
        <ele>1082.0</ele>
        <time>2015-04-28T13:58:59Z</time>
      </trkpt>
      <trkpt lat="43.284717" lon="-4.324867">
        <ele>1082.0</ele>
        <time>2015-04-28T13:59:00Z</time>
      </trkpt>
      <trkpt lat="43.284783" lon="-4.324800">
        <ele>1082.0</ele>
        <time>2015-04-28T13:59:01Z</time>
      </trkpt>
      <trkpt lat="43.284817" lon="-4.324733">
        <ele>1082.0</ele>
        <time>2015-04-28T13:59:02Z</time>
      </trkpt>
      <trkpt lat="43.284867" lon="-4.324650">
        <ele>1082.0</ele>
        <time>2015-04-28T13:59:03Z</time>
      </trkpt>
      <trkpt lat="43.284917" lon="-4.324567">
        <ele>1082.0</ele>
        <time>2015-04-28T13:59:04Z</time>
      </trkpt>
      <trkpt lat="43.284967" lon="-4.324450">
        <ele>1081.0</ele>
        <time>2015-04-28T13:59:05Z</time>
      </trkpt>
      <trkpt lat="43.285000" lon="-4.324350">
        <ele>1081.0</ele>
        <time>2015-04-28T13:59:06Z</time>
      </trkpt>
      <trkpt lat="43.285033" lon="-4.324250">
        <ele>1081.0</ele>
        <time>2015-04-28T13:59:07Z</time>
      </trkpt>
      <trkpt lat="43.285067" lon="-4.324167">
        <ele>1081.0</ele>
        <time>2015-04-28T13:59:08Z</time>
      </trkpt>
      <trkpt lat="43.285117" lon="-4.324100">
        <ele>1081.0</ele>
        <time>2015-04-28T13:59:09Z</time>
      </trkpt>
      <trkpt lat="43.285150" lon="-4.323983">
        <ele>1081.0</ele>
        <time>2015-04-28T13:59:10Z</time>
      </trkpt>
      <trkpt lat="43.285167" lon="-4.323883">
        <ele>1081.0</ele>
        <time>2015-04-28T13:59:11Z</time>
      </trkpt>
      <trkpt lat="43.285183" lon="-4.323767">
        <ele>1080.0</ele>
        <time>2015-04-28T13:59:12Z</time>
      </trkpt>
      <trkpt lat="43.285217" lon="-4.323667">
        <ele>1080.0</ele>
        <time>2015-04-28T13:59:13Z</time>
      </trkpt>
      <trkpt lat="43.285250" lon="-4.323567">
        <ele>1080.0</ele>
        <time>2015-04-28T13:59:14Z</time>
      </trkpt>
      <trkpt lat="43.285283" lon="-4.323467">
        <ele>1080.0</ele>
        <time>2015-04-28T13:59:15Z</time>
      </trkpt>
      <trkpt lat="43.285317" lon="-4.323367">
        <ele>1080.0</ele>
        <time>2015-04-28T13:59:16Z</time>
      </trkpt>
      <trkpt lat="43.285350" lon="-4.323233">
        <ele>1079.0</ele>
        <time>2015-04-28T13:59:17Z</time>
      </trkpt>
      <trkpt lat="43.285383" lon="-4.323133">
        <ele>1079.0</ele>
        <time>2015-04-28T13:59:18Z</time>
      </trkpt>
      <trkpt lat="43.285433" lon="-4.323033">
        <ele>1079.0</ele>
        <time>2015-04-28T13:59:19Z</time>
      </trkpt>
      <trkpt lat="43.285467" lon="-4.322950">
        <ele>1078.0</ele>
        <time>2015-04-28T13:59:20Z</time>
      </trkpt>
      <trkpt lat="43.285483" lon="-4.322867">
        <ele>1078.0</ele>
        <time>2015-04-28T13:59:21Z</time>
      </trkpt>
      <trkpt lat="43.285517" lon="-4.322750">
        <ele>1078.0</ele>
        <time>2015-04-28T13:59:22Z</time>
      </trkpt>
      <trkpt lat="43.285550" lon="-4.322650">
        <ele>1077.0</ele>
        <time>2015-04-28T13:59:23Z</time>
      </trkpt>
      <trkpt lat="43.285583" lon="-4.322550">
        <ele>1077.0</ele>
        <time>2015-04-28T13:59:24Z</time>
      </trkpt>
      <trkpt lat="43.285633" lon="-4.322450">
        <ele>1077.0</ele>
        <time>2015-04-28T13:59:25Z</time>
      </trkpt>
      <trkpt lat="43.285667" lon="-4.322350">
        <ele>1077.0</ele>
        <time>2015-04-28T13:59:26Z</time>
      </trkpt>
      <trkpt lat="43.285700" lon="-4.322233">
        <ele>1076.0</ele>
        <time>2015-04-28T13:59:27Z</time>
      </trkpt>
      <trkpt lat="43.285750" lon="-4.322133">
        <ele>1076.0</ele>
        <time>2015-04-28T13:59:28Z</time>
      </trkpt>
      <trkpt lat="43.285783" lon="-4.322017">
        <ele>1075.0</ele>
        <time>2015-04-28T13:59:29Z</time>
      </trkpt>
      <trkpt lat="43.285817" lon="-4.321900">
        <ele>1074.0</ele>
        <time>2015-04-28T13:59:30Z</time>
      </trkpt>
      <trkpt lat="43.285850" lon="-4.321800">
        <ele>1074.0</ele>
        <time>2015-04-28T13:59:31Z</time>
      </trkpt>
      <trkpt lat="43.285883" lon="-4.321700">
        <ele>1073.0</ele>
        <time>2015-04-28T13:59:32Z</time>
      </trkpt>
      <trkpt lat="43.285900" lon="-4.321617">
        <ele>1073.0</ele>
        <time>2015-04-28T13:59:33Z</time>
      </trkpt>
      <trkpt lat="43.285933" lon="-4.321550">
        <ele>1072.0</ele>
        <time>2015-04-28T13:59:34Z</time>
      </trkpt>
      <trkpt lat="43.285933" lon="-4.321483">
        <ele>1071.0</ele>
        <time>2015-04-28T13:59:35Z</time>
      </trkpt>
      <trkpt lat="43.285933" lon="-4.321433">
        <ele>1070.0</ele>
        <time>2015-04-28T13:59:36Z</time>
      </trkpt>
      <trkpt lat="43.285933" lon="-4.321367">
        <ele>1070.0</ele>
        <time>2015-04-28T13:59:37Z</time>
      </trkpt>
      <trkpt lat="43.285933" lon="-4.321300">
        <ele>1069.0</ele>
        <time>2015-04-28T13:59:38Z</time>
      </trkpt>
      <trkpt lat="43.285950" lon="-4.321233">
        <ele>1068.0</ele>
        <time>2015-04-28T13:59:39Z</time>
      </trkpt>
      <trkpt lat="43.285950" lon="-4.321150">
        <ele>1067.0</ele>
        <time>2015-04-28T13:59:40Z</time>
      </trkpt>
      <trkpt lat="43.285950" lon="-4.321067">
        <ele>1067.0</ele>
        <time>2015-04-28T13:59:41Z</time>
      </trkpt>
      <trkpt lat="43.285950" lon="-4.320967">
        <ele>1066.0</ele>
        <time>2015-04-28T13:59:42Z</time>
      </trkpt>
      <trkpt lat="43.285950" lon="-4.320883">
        <ele>1066.0</ele>
        <time>2015-04-28T13:59:43Z</time>
      </trkpt>
      <trkpt lat="43.285967" lon="-4.320783">
        <ele>1065.0</ele>
        <time>2015-04-28T13:59:44Z</time>
      </trkpt>
      <trkpt lat="43.285983" lon="-4.320700">
        <ele>1065.0</ele>
        <time>2015-04-28T13:59:45Z</time>
      </trkpt>
      <trkpt lat="43.286000" lon="-4.320617">
        <ele>1065.0</ele>
        <time>2015-04-28T13:59:46Z</time>
      </trkpt>
      <trkpt lat="43.286017" lon="-4.320550">
        <ele>1064.0</ele>
        <time>2015-04-28T13:59:47Z</time>
      </trkpt>
      <trkpt lat="43.286033" lon="-4.320467">
        <ele>1064.0</ele>
        <time>2015-04-28T13:59:48Z</time>
      </trkpt>
      <trkpt lat="43.286033" lon="-4.320383">
        <ele>1064.0</ele>
        <time>2015-04-28T13:59:49Z</time>
      </trkpt>
      <trkpt lat="43.286050" lon="-4.320317">
        <ele>1064.0</ele>
        <time>2015-04-28T13:59:50Z</time>
      </trkpt>
      <trkpt lat="43.286067" lon="-4.320250">
        <ele>1064.0</ele>
        <time>2015-04-28T13:59:51Z</time>
      </trkpt>
      <trkpt lat="43.286100" lon="-4.320183">
        <ele>1064.0</ele>
        <time>2015-04-28T13:59:52Z</time>
      </trkpt>
      <trkpt lat="43.286117" lon="-4.320117">
        <ele>1063.0</ele>
        <time>2015-04-28T13:59:53Z</time>
      </trkpt>
      <trkpt lat="43.286150" lon="-4.320050">
        <ele>1063.0</ele>
        <time>2015-04-28T13:59:54Z</time>
      </trkpt>
      <trkpt lat="43.286183" lon="-4.319983">
        <ele>1063.0</ele>
        <time>2015-04-28T13:59:55Z</time>
      </trkpt>
      <trkpt lat="43.286200" lon="-4.319933">
        <ele>1063.0</ele>
        <time>2015-04-28T13:59:56Z</time>
      </trkpt>
      <trkpt lat="43.286233" lon="-4.319883">
        <ele>1062.0</ele>
        <time>2015-04-28T13:59:57Z</time>
      </trkpt>
      <trkpt lat="43.286267" lon="-4.319833">
        <ele>1062.0</ele>
        <time>2015-04-28T13:59:58Z</time>
      </trkpt>
      <trkpt lat="43.286317" lon="-4.319767">
        <ele>1062.0</ele>
        <time>2015-04-28T13:59:59Z</time>
      </trkpt>
      <trkpt lat="43.286350" lon="-4.319700">
        <ele>1061.0</ele>
        <time>2015-04-28T14:00:00Z</time>
      </trkpt>
      <trkpt lat="43.286383" lon="-4.319633">
        <ele>1061.0</ele>
        <time>2015-04-28T14:00:01Z</time>
      </trkpt>
      <trkpt lat="43.286417" lon="-4.319567">
        <ele>1061.0</ele>
        <time>2015-04-28T14:00:02Z</time>
      </trkpt>
      <trkpt lat="43.286433" lon="-4.319517">
        <ele>1060.0</ele>
        <time>2015-04-28T14:00:03Z</time>
      </trkpt>
      <trkpt lat="43.286467" lon="-4.319450">
        <ele>1060.0</ele>
        <time>2015-04-28T14:00:04Z</time>
      </trkpt>
      <trkpt lat="43.286500" lon="-4.319367">
        <ele>1060.0</ele>
        <time>2015-04-28T14:00:05Z</time>
      </trkpt>
      <trkpt lat="43.286533" lon="-4.319283">
        <ele>1059.0</ele>
        <time>2015-04-28T14:00:06Z</time>
      </trkpt>
      <trkpt lat="43.286567" lon="-4.319217">
        <ele>1059.0</ele>
        <time>2015-04-28T14:00:07Z</time>
      </trkpt>
      <trkpt lat="43.286617" lon="-4.319150">
        <ele>1059.0</ele>
        <time>2015-04-28T14:00:08Z</time>
      </trkpt>
      <trkpt lat="43.286650" lon="-4.319100">
        <ele>1059.0</ele>
        <time>2015-04-28T14:00:09Z</time>
      </trkpt>
      <trkpt lat="43.286667" lon="-4.319050">
        <ele>1058.0</ele>
        <time>2015-04-28T14:00:10Z</time>
      </trkpt>
      <trkpt lat="43.286700" lon="-4.318967">
        <ele>1058.0</ele>
        <time>2015-04-28T14:00:11Z</time>
      </trkpt>
      <trkpt lat="43.286733" lon="-4.318900">
        <ele>1058.0</ele>
        <time>2015-04-28T14:00:12Z</time>
      </trkpt>
      <trkpt lat="43.286767" lon="-4.318833">
        <ele>1058.0</ele>
        <time>2015-04-28T14:00:13Z</time>
      </trkpt>
      <trkpt lat="43.286800" lon="-4.318783">
        <ele>1057.0</ele>
        <time>2015-04-28T14:00:14Z</time>
      </trkpt>
      <trkpt lat="43.286833" lon="-4.318717">
        <ele>1057.0</ele>
        <time>2015-04-28T14:00:15Z</time>
      </trkpt>
      <trkpt lat="43.286867" lon="-4.318667">
        <ele>1057.0</ele>
        <time>2015-04-28T14:00:16Z</time>
      </trkpt>
      <trkpt lat="43.286917" lon="-4.318600">
        <ele>1057.0</ele>
        <time>2015-04-28T14:00:17Z</time>
      </trkpt>
      <trkpt lat="43.286950" lon="-4.318533">
        <ele>1057.0</ele>
        <time>2015-04-28T14:00:18Z</time>
      </trkpt>
      <trkpt lat="43.287000" lon="-4.318483">
        <ele>1056.0</ele>
        <time>2015-04-28T14:00:19Z</time>
      </trkpt>
      <trkpt lat="43.287033" lon="-4.318433">
        <ele>1056.0</ele>
        <time>2015-04-28T14:00:20Z</time>
      </trkpt>
      <trkpt lat="43.287083" lon="-4.318383">
        <ele>1055.0</ele>
        <time>2015-04-28T14:00:21Z</time>
      </trkpt>
      <trkpt lat="43.287117" lon="-4.318333">
        <ele>1055.0</ele>
        <time>2015-04-28T14:00:22Z</time>
      </trkpt>
      <trkpt lat="43.287167" lon="-4.318283">
        <ele>1055.0</ele>
        <time>2015-04-28T14:00:23Z</time>
      </trkpt>
      <trkpt lat="43.287217" lon="-4.318233">
        <ele>1055.0</ele>
        <time>2015-04-28T14:00:24Z</time>
      </trkpt>
      <trkpt lat="43.287267" lon="-4.318183">
        <ele>1055.0</ele>
        <time>2015-04-28T14:00:25Z</time>
      </trkpt>
      <trkpt lat="43.287300" lon="-4.318133">
        <ele>1055.0</ele>
        <time>2015-04-28T14:00:26Z</time>
      </trkpt>
      <trkpt lat="43.287333" lon="-4.318067">
        <ele>1054.0</ele>
        <time>2015-04-28T14:00:27Z</time>
      </trkpt>
      <trkpt lat="43.287367" lon="-4.318017">
        <ele>1054.0</ele>
        <time>2015-04-28T14:00:28Z</time>
      </trkpt>
      <trkpt lat="43.287417" lon="-4.317967">
        <ele>1054.0</ele>
        <time>2015-04-28T14:00:29Z</time>
      </trkpt>
      <trkpt lat="43.287450" lon="-4.317900">
        <ele>1054.0</ele>
        <time>2015-04-28T14:00:30Z</time>
      </trkpt>
      <trkpt lat="43.287483" lon="-4.317833">
        <ele>1054.0</ele>
        <time>2015-04-28T14:00:31Z</time>
      </trkpt>
      <trkpt lat="43.287517" lon="-4.317767">
        <ele>1054.0</ele>
        <time>2015-04-28T14:00:32Z</time>
      </trkpt>
      <trkpt lat="43.287550" lon="-4.317717">
        <ele>1053.0</ele>
        <time>2015-04-28T14:00:33Z</time>
      </trkpt>
      <trkpt lat="43.287583" lon="-4.317667">
        <ele>1053.0</ele>
        <time>2015-04-28T14:00:34Z</time>
      </trkpt>
      <trkpt lat="43.287617" lon="-4.317633">
        <ele>1053.0</ele>
        <time>2015-04-28T14:00:35Z</time>
      </trkpt>
      <trkpt lat="43.287633" lon="-4.317567">
        <ele>1053.0</ele>
        <time>2015-04-28T14:00:36Z</time>
      </trkpt>
      <trkpt lat="43.287683" lon="-4.317517">
        <ele>1052.0</ele>
        <time>2015-04-28T14:00:37Z</time>
      </trkpt>
      <trkpt lat="43.287717" lon="-4.317433">
        <ele>1052.0</ele>
        <time>2015-04-28T14:00:38Z</time>
      </trkpt>
      <trkpt lat="43.287750" lon="-4.317350">
        <ele>1052.0</ele>
        <time>2015-04-28T14:00:39Z</time>
      </trkpt>
      <trkpt lat="43.287767" lon="-4.317283">
        <ele>1052.0</ele>
        <time>2015-04-28T14:00:40Z</time>
      </trkpt>
      <trkpt lat="43.287800" lon="-4.317217">
        <ele>1052.0</ele>
        <time>2015-04-28T14:00:41Z</time>
      </trkpt>
      <trkpt lat="43.287833" lon="-4.317167">
        <ele>1052.0</ele>
        <time>2015-04-28T14:00:42Z</time>
      </trkpt>
      <trkpt lat="43.287850" lon="-4.317100">
        <ele>1051.0</ele>
        <time>2015-04-28T14:00:43Z</time>
      </trkpt>
      <trkpt lat="43.287883" lon="-4.317033">
        <ele>1051.0</ele>
        <time>2015-04-28T14:00:44Z</time>
      </trkpt>
      <trkpt lat="43.287917" lon="-4.316967">
        <ele>1051.0</ele>
        <time>2015-04-28T14:00:45Z</time>
      </trkpt>
      <trkpt lat="43.287950" lon="-4.316933">
        <ele>1051.0</ele>
        <time>2015-04-28T14:00:46Z</time>
      </trkpt>
      <trkpt lat="43.287983" lon="-4.316883">
        <ele>1050.0</ele>
        <time>2015-04-28T14:00:47Z</time>
      </trkpt>
      <trkpt lat="43.288017" lon="-4.316850">
        <ele>1050.0</ele>
        <time>2015-04-28T14:00:48Z</time>
      </trkpt>
      <trkpt lat="43.288050" lon="-4.316800">
        <ele>1050.0</ele>
        <time>2015-04-28T14:00:49Z</time>
      </trkpt>
      <trkpt lat="43.288083" lon="-4.316750">
        <ele>1050.0</ele>
        <time>2015-04-28T14:00:50Z</time>
      </trkpt>
      <trkpt lat="43.288117" lon="-4.316700">
        <ele>1049.0</ele>
        <time>2015-04-28T14:00:51Z</time>
      </trkpt>
      <trkpt lat="43.288150" lon="-4.316650">
        <ele>1049.0</ele>
        <time>2015-04-28T14:00:52Z</time>
      </trkpt>
      <trkpt lat="43.288183" lon="-4.316600">
        <ele>1049.0</ele>
        <time>2015-04-28T14:00:53Z</time>
      </trkpt>
      <trkpt lat="43.288217" lon="-4.316550">
        <ele>1049.0</ele>
        <time>2015-04-28T14:00:54Z</time>
      </trkpt>
      <trkpt lat="43.288250" lon="-4.316500">
        <ele>1049.0</ele>
        <time>2015-04-28T14:00:55Z</time>
      </trkpt>
      <trkpt lat="43.288300" lon="-4.316450">
        <ele>1048.0</ele>
        <time>2015-04-28T14:00:56Z</time>
      </trkpt>
      <trkpt lat="43.288333" lon="-4.316400">
        <ele>1048.0</ele>
        <time>2015-04-28T14:00:57Z</time>
      </trkpt>
      <trkpt lat="43.288383" lon="-4.316367">
        <ele>1048.0</ele>
        <time>2015-04-28T14:00:58Z</time>
      </trkpt>
      <trkpt lat="43.288417" lon="-4.316333">
        <ele>1048.0</ele>
        <time>2015-04-28T14:00:59Z</time>
      </trkpt>
      <trkpt lat="43.288467" lon="-4.316283">
        <ele>1048.0</ele>
        <time>2015-04-28T14:01:00Z</time>
      </trkpt>
      <trkpt lat="43.288483" lon="-4.316250">
        <ele>1048.0</ele>
        <time>2015-04-28T14:01:01Z</time>
      </trkpt>
      <trkpt lat="43.288517" lon="-4.316217">
        <ele>1047.0</ele>
        <time>2015-04-28T14:01:02Z</time>
      </trkpt>
      <trkpt lat="43.288550" lon="-4.316167">
        <ele>1047.0</ele>
        <time>2015-04-28T14:01:03Z</time>
      </trkpt>
      <trkpt lat="43.288567" lon="-4.316117">
        <ele>1047.0</ele>
        <time>2015-04-28T14:01:04Z</time>
      </trkpt>
      <trkpt lat="43.288600" lon="-4.316067">
        <ele>1047.0</ele>
        <time>2015-04-28T14:01:05Z</time>
      </trkpt>
      <trkpt lat="43.288633" lon="-4.316017">
        <ele>1047.0</ele>
        <time>2015-04-28T14:01:06Z</time>
      </trkpt>
      <trkpt lat="43.288667" lon="-4.315967">
        <ele>1046.0</ele>
        <time>2015-04-28T14:01:07Z</time>
      </trkpt>
      <trkpt lat="43.288683" lon="-4.315933">
        <ele>1046.0</ele>
        <time>2015-04-28T14:01:08Z</time>
      </trkpt>
      <trkpt lat="43.288700" lon="-4.315883">
        <ele>1046.0</ele>
        <time>2015-04-28T14:01:09Z</time>
      </trkpt>
      <trkpt lat="43.288733" lon="-4.315817">
        <ele>1046.0</ele>
        <time>2015-04-28T14:01:10Z</time>
      </trkpt>
      <trkpt lat="43.288750" lon="-4.315767">
        <ele>1046.0</ele>
        <time>2015-04-28T14:01:11Z</time>
      </trkpt>
      <trkpt lat="43.288767" lon="-4.315700">
        <ele>1045.0</ele>
        <time>2015-04-28T14:01:12Z</time>
      </trkpt>
      <trkpt lat="43.288800" lon="-4.315650">
        <ele>1045.0</ele>
        <time>2015-04-28T14:01:13Z</time>
      </trkpt>
      <trkpt lat="43.288817" lon="-4.315600">
        <ele>1044.0</ele>
        <time>2015-04-28T14:01:14Z</time>
      </trkpt>
      <trkpt lat="43.288817" lon="-4.315517">
        <ele>1044.0</ele>
        <time>2015-04-28T14:01:15Z</time>
      </trkpt>
      <trkpt lat="43.288833" lon="-4.315433">
        <ele>1043.0</ele>
        <time>2015-04-28T14:01:16Z</time>
      </trkpt>
      <trkpt lat="43.288833" lon="-4.315367">
        <ele>1043.0</ele>
        <time>2015-04-28T14:01:17Z</time>
      </trkpt>
      <trkpt lat="43.288833" lon="-4.315283">
        <ele>1043.0</ele>
        <time>2015-04-28T14:01:18Z</time>
      </trkpt>
      <trkpt lat="43.288833" lon="-4.315217">
        <ele>1042.0</ele>
        <time>2015-04-28T14:01:19Z</time>
      </trkpt>
      <trkpt lat="43.288833" lon="-4.315150">
        <ele>1041.0</ele>
        <time>2015-04-28T14:01:20Z</time>
      </trkpt>
      <trkpt lat="43.288833" lon="-4.315067">
        <ele>1040.0</ele>
        <time>2015-04-28T14:01:21Z</time>
      </trkpt>
      <trkpt lat="43.288833" lon="-4.315000">
        <ele>1039.0</ele>
        <time>2015-04-28T14:01:22Z</time>
      </trkpt>
      <trkpt lat="43.288833" lon="-4.314933">
        <ele>1039.0</ele>
        <time>2015-04-28T14:01:23Z</time>
      </trkpt>
      <trkpt lat="43.288833" lon="-4.314867">
        <ele>1039.0</ele>
        <time>2015-04-28T14:01:24Z</time>
      </trkpt>
      <trkpt lat="43.288833" lon="-4.314800">
        <ele>1038.0</ele>
        <time>2015-04-28T14:01:25Z</time>
      </trkpt>
      <trkpt lat="43.288817" lon="-4.314733">
        <ele>1038.0</ele>
        <time>2015-04-28T14:01:26Z</time>
      </trkpt>
      <trkpt lat="43.288783" lon="-4.314667">
        <ele>1038.0</ele>
        <time>2015-04-28T14:01:27Z</time>
      </trkpt>
      <trkpt lat="43.288767" lon="-4.314567">
        <ele>1037.0</ele>
        <time>2015-04-28T14:01:28Z</time>
      </trkpt>
      <trkpt lat="43.288750" lon="-4.314450">
        <ele>1037.0</ele>
        <time>2015-04-28T14:01:29Z</time>
      </trkpt>
      <trkpt lat="43.288717" lon="-4.314367">
        <ele>1035.0</ele>
        <time>2015-04-28T14:01:30Z</time>
      </trkpt>
      <trkpt lat="43.288700" lon="-4.314317">
        <ele>1033.0</ele>
        <time>2015-04-28T14:01:31Z</time>
      </trkpt>
      <trkpt lat="43.288667" lon="-4.314267">
        <ele>1031.0</ele>
        <time>2015-04-28T14:01:32Z</time>
      </trkpt>
      <trkpt lat="43.288650" lon="-4.314217">
        <ele>1028.0</ele>
        <time>2015-04-28T14:01:33Z</time>
      </trkpt>
      <trkpt lat="43.288633" lon="-4.314150">
        <ele>1028.0</ele>
        <time>2015-04-28T14:01:34Z</time>
      </trkpt>
      <trkpt lat="43.288600" lon="-4.314067">
        <ele>1027.0</ele>
        <time>2015-04-28T14:01:35Z</time>
      </trkpt>
      <trkpt lat="43.288567" lon="-4.314000">
        <ele>1026.0</ele>
        <time>2015-04-28T14:01:36Z</time>
      </trkpt>
      <trkpt lat="43.288533" lon="-4.313917">
        <ele>1025.0</ele>
        <time>2015-04-28T14:01:37Z</time>
      </trkpt>
      <trkpt lat="43.288517" lon="-4.313850">
        <ele>1025.0</ele>
        <time>2015-04-28T14:01:38Z</time>
      </trkpt>
      <trkpt lat="43.288483" lon="-4.313783">
        <ele>1024.0</ele>
        <time>2015-04-28T14:01:39Z</time>
      </trkpt>
      <trkpt lat="43.288450" lon="-4.313750">
        <ele>1023.0</ele>
        <time>2015-04-28T14:01:40Z</time>
      </trkpt>
      <trkpt lat="43.288417" lon="-4.313717">
        <ele>1022.0</ele>
        <time>2015-04-28T14:01:41Z</time>
      </trkpt>
      <trkpt lat="43.288367" lon="-4.313683">
        <ele>1022.0</ele>
        <time>2015-04-28T14:01:42Z</time>
      </trkpt>
      <trkpt lat="43.288317" lon="-4.313650">
        <ele>1022.0</ele>
        <time>2015-04-28T14:01:43Z</time>
      </trkpt>
      <trkpt lat="43.288267" lon="-4.313617">
        <ele>1021.0</ele>
        <time>2015-04-28T14:01:44Z</time>
      </trkpt>
      <trkpt lat="43.288200" lon="-4.313567">
        <ele>1020.0</ele>
        <time>2015-04-28T14:01:45Z</time>
      </trkpt>
      <trkpt lat="43.288150" lon="-4.313517">
        <ele>1019.0</ele>
        <time>2015-04-28T14:01:46Z</time>
      </trkpt>
      <trkpt lat="43.288100" lon="-4.313483">
        <ele>1017.0</ele>
        <time>2015-04-28T14:01:47Z</time>
      </trkpt>
      <trkpt lat="43.288050" lon="-4.313450">
        <ele>1017.0</ele>
        <time>2015-04-28T14:01:48Z</time>
      </trkpt>
      <trkpt lat="43.288017" lon="-4.313433">
        <ele>1016.0</ele>
        <time>2015-04-28T14:01:49Z</time>
      </trkpt>
      <trkpt lat="43.287967" lon="-4.313400">
        <ele>1015.0</ele>
        <time>2015-04-28T14:01:50Z</time>
      </trkpt>
      <trkpt lat="43.287900" lon="-4.313350">
        <ele>1015.0</ele>
        <time>2015-04-28T14:01:51Z</time>
      </trkpt>
      <trkpt lat="43.287850" lon="-4.313317">
        <ele>1014.0</ele>
        <time>2015-04-28T14:01:52Z</time>
      </trkpt>
      <trkpt lat="43.287800" lon="-4.313267">
        <ele>1013.0</ele>
        <time>2015-04-28T14:01:53Z</time>
      </trkpt>
      <trkpt lat="43.287733" lon="-4.313200">
        <ele>1012.0</ele>
        <time>2015-04-28T14:01:54Z</time>
      </trkpt>
      <trkpt lat="43.287700" lon="-4.313133">
        <ele>1010.0</ele>
        <time>2015-04-28T14:01:55Z</time>
      </trkpt>
      <trkpt lat="43.287650" lon="-4.313067">
        <ele>1009.0</ele>
        <time>2015-04-28T14:01:56Z</time>
      </trkpt>
      <trkpt lat="43.287600" lon="-4.312983">
        <ele>1007.0</ele>
        <time>2015-04-28T14:01:57Z</time>
      </trkpt>
      <trkpt lat="43.287550" lon="-4.312900">
        <ele>1005.0</ele>
        <time>2015-04-28T14:01:58Z</time>
      </trkpt>
      <trkpt lat="43.287500" lon="-4.312867">
        <ele>1004.0</ele>
        <time>2015-04-28T14:01:59Z</time>
      </trkpt>
      <trkpt lat="43.287467" lon="-4.312833">
        <ele>1003.0</ele>
        <time>2015-04-28T14:02:00Z</time>
      </trkpt>
      <trkpt lat="43.287417" lon="-4.312783">
        <ele>1002.0</ele>
        <time>2015-04-28T14:02:01Z</time>
      </trkpt>
      <trkpt lat="43.287367" lon="-4.312733">
        <ele>1001.0</ele>
        <time>2015-04-28T14:02:02Z</time>
      </trkpt>
      <trkpt lat="43.287317" lon="-4.312717">
        <ele>1000.0</ele>
        <time>2015-04-28T14:02:03Z</time>
      </trkpt>
      <trkpt lat="43.287250" lon="-4.312683">
        <ele>1000.0</ele>
        <time>2015-04-28T14:02:04Z</time>
      </trkpt>
      <trkpt lat="43.287167" lon="-4.312683">
        <ele>999.0</ele>
        <time>2015-04-28T14:02:05Z</time>
      </trkpt>
      <trkpt lat="43.287100" lon="-4.312667">
        <ele>999.0</ele>
        <time>2015-04-28T14:02:06Z</time>
      </trkpt>
      <trkpt lat="43.287000" lon="-4.312650">
        <ele>998.0</ele>
        <time>2015-04-28T14:02:07Z</time>
      </trkpt>
      <trkpt lat="43.286917" lon="-4.312600">
        <ele>997.0</ele>
        <time>2015-04-28T14:02:08Z</time>
      </trkpt>
      <trkpt lat="43.286833" lon="-4.312567">
        <ele>996.0</ele>
        <time>2015-04-28T14:02:09Z</time>
      </trkpt>
      <trkpt lat="43.286750" lon="-4.312550">
        <ele>996.0</ele>
        <time>2015-04-28T14:02:10Z</time>
      </trkpt>
      <trkpt lat="43.286667" lon="-4.312517">
        <ele>995.0</ele>
        <time>2015-04-28T14:02:11Z</time>
      </trkpt>
      <trkpt lat="43.286600" lon="-4.312483">
        <ele>995.0</ele>
        <time>2015-04-28T14:02:12Z</time>
      </trkpt>
      <trkpt lat="43.286517" lon="-4.312450">
        <ele>994.0</ele>
        <time>2015-04-28T14:02:13Z</time>
      </trkpt>
      <trkpt lat="43.286450" lon="-4.312450">
        <ele>994.0</ele>
        <time>2015-04-28T14:02:14Z</time>
      </trkpt>
      <trkpt lat="43.286383" lon="-4.312417">
        <ele>993.0</ele>
        <time>2015-04-28T14:02:15Z</time>
      </trkpt>
      <trkpt lat="43.286350" lon="-4.312350">
        <ele>992.0</ele>
        <time>2015-04-28T14:02:16Z</time>
      </trkpt>
      <trkpt lat="43.286283" lon="-4.312267">
        <ele>990.0</ele>
        <time>2015-04-28T14:02:17Z</time>
      </trkpt>
      <trkpt lat="43.286217" lon="-4.312217">
        <ele>988.0</ele>
        <time>2015-04-28T14:02:18Z</time>
      </trkpt>
      <trkpt lat="43.286133" lon="-4.312200">
        <ele>987.0</ele>
        <time>2015-04-28T14:02:19Z</time>
      </trkpt>
      <trkpt lat="43.286017" lon="-4.312200">
        <ele>986.0</ele>
        <time>2015-04-28T14:02:20Z</time>
      </trkpt>
      <trkpt lat="43.285933" lon="-4.312167">
        <ele>984.0</ele>
        <time>2015-04-28T14:02:21Z</time>
      </trkpt>
      <trkpt lat="43.285867" lon="-4.312117">
        <ele>980.0</ele>
        <time>2015-04-28T14:02:22Z</time>
      </trkpt>
      <trkpt lat="43.285767" lon="-4.312067">
        <ele>979.0</ele>
        <time>2015-04-28T14:02:23Z</time>
      </trkpt>
      <trkpt lat="43.285683" lon="-4.312033">
        <ele>976.0</ele>
        <time>2015-04-28T14:02:24Z</time>
      </trkpt>
      <trkpt lat="43.285600" lon="-4.312017">
        <ele>974.0</ele>
        <time>2015-04-28T14:02:25Z</time>
      </trkpt>
      <trkpt lat="43.285500" lon="-4.311983">
        <ele>972.0</ele>
        <time>2015-04-28T14:02:26Z</time>
      </trkpt>
      <trkpt lat="43.285400" lon="-4.311967">
        <ele>970.0</ele>
        <time>2015-04-28T14:02:27Z</time>
      </trkpt>
      <trkpt lat="43.285333" lon="-4.311950">
        <ele>968.0</ele>
        <time>2015-04-28T14:02:28Z</time>
      </trkpt>
      <trkpt lat="43.285233" lon="-4.311950">
        <ele>965.0</ele>
        <time>2015-04-28T14:02:29Z</time>
      </trkpt>
      <trkpt lat="43.285133" lon="-4.311933">
        <ele>962.0</ele>
        <time>2015-04-28T14:02:30Z</time>
      </trkpt>
      <trkpt lat="43.285050" lon="-4.311933">
        <ele>958.0</ele>
        <time>2015-04-28T14:02:31Z</time>
      </trkpt>
      <trkpt lat="43.284983" lon="-4.311950">
        <ele>954.0</ele>
        <time>2015-04-28T14:02:32Z</time>
      </trkpt>
      <trkpt lat="43.284833" lon="-4.311983">
        <ele>960.0</ele>
        <time>2015-04-28T14:02:33Z</time>
      </trkpt>
      <trkpt lat="43.284750" lon="-4.312000">
        <ele>958.0</ele>
        <time>2015-04-28T14:02:34Z</time>
      </trkpt>
      <trkpt lat="43.284667" lon="-4.312017">
        <ele>958.0</ele>
        <time>2015-04-28T14:02:35Z</time>
      </trkpt>
      <trkpt lat="43.284583" lon="-4.312050">
        <ele>958.0</ele>
        <time>2015-04-28T14:02:36Z</time>
      </trkpt>
      <trkpt lat="43.284500" lon="-4.312067">
        <ele>957.0</ele>
        <time>2015-04-28T14:02:37Z</time>
      </trkpt>
      <trkpt lat="43.284400" lon="-4.312083">
        <ele>956.0</ele>
        <time>2015-04-28T14:02:38Z</time>
      </trkpt>
      <trkpt lat="43.284350" lon="-4.312083">
        <ele>954.0</ele>
        <time>2015-04-28T14:02:39Z</time>
      </trkpt>
      <trkpt lat="43.284283" lon="-4.312083">
        <ele>952.0</ele>
        <time>2015-04-28T14:02:40Z</time>
      </trkpt>
      <trkpt lat="43.284217" lon="-4.312067">
        <ele>950.0</ele>
        <time>2015-04-28T14:02:41Z</time>
      </trkpt>
      <trkpt lat="43.284150" lon="-4.312067">
        <ele>949.0</ele>
        <time>2015-04-28T14:02:42Z</time>
      </trkpt>
      <trkpt lat="43.284067" lon="-4.312067">
        <ele>948.0</ele>
        <time>2015-04-28T14:02:43Z</time>
      </trkpt>
      <trkpt lat="43.283983" lon="-4.312067">
        <ele>947.0</ele>
        <time>2015-04-28T14:02:44Z</time>
      </trkpt>
      <trkpt lat="43.283900" lon="-4.312083">
        <ele>946.0</ele>
        <time>2015-04-28T14:02:45Z</time>
      </trkpt>
      <trkpt lat="43.283817" lon="-4.312100">
        <ele>945.0</ele>
        <time>2015-04-28T14:02:46Z</time>
      </trkpt>
      <trkpt lat="43.283733" lon="-4.312117">
        <ele>943.0</ele>
        <time>2015-04-28T14:02:47Z</time>
      </trkpt>
      <trkpt lat="43.283667" lon="-4.312133">
        <ele>942.0</ele>
        <time>2015-04-28T14:02:48Z</time>
      </trkpt>
      <trkpt lat="43.283583" lon="-4.312133">
        <ele>941.0</ele>
        <time>2015-04-28T14:02:49Z</time>
      </trkpt>
      <trkpt lat="43.283500" lon="-4.312133">
        <ele>940.0</ele>
        <time>2015-04-28T14:02:50Z</time>
      </trkpt>
      <trkpt lat="43.283417" lon="-4.312117">
        <ele>938.0</ele>
        <time>2015-04-28T14:02:51Z</time>
      </trkpt>
      <trkpt lat="43.283333" lon="-4.312117">
        <ele>938.0</ele>
        <time>2015-04-28T14:02:52Z</time>
      </trkpt>
      <trkpt lat="43.283267" lon="-4.312117">
        <ele>937.0</ele>
        <time>2015-04-28T14:02:53Z</time>
      </trkpt>
      <trkpt lat="43.283183" lon="-4.312100">
        <ele>936.0</ele>
        <time>2015-04-28T14:02:54Z</time>
      </trkpt>
      <trkpt lat="43.283100" lon="-4.312083">
        <ele>935.0</ele>
        <time>2015-04-28T14:02:55Z</time>
      </trkpt>
      <trkpt lat="43.283033" lon="-4.312050">
        <ele>933.0</ele>
        <time>2015-04-28T14:02:56Z</time>
      </trkpt>
      <trkpt lat="43.282983" lon="-4.312017">
        <ele>932.0</ele>
        <time>2015-04-28T14:02:57Z</time>
      </trkpt>
      <trkpt lat="43.282917" lon="-4.312000">
        <ele>931.0</ele>
        <time>2015-04-28T14:02:58Z</time>
      </trkpt>
      <trkpt lat="43.282850" lon="-4.311967">
        <ele>930.0</ele>
        <time>2015-04-28T14:02:59Z</time>
      </trkpt>
      <trkpt lat="43.282783" lon="-4.311950">
        <ele>929.0</ele>
        <time>2015-04-28T14:03:00Z</time>
      </trkpt>
      <trkpt lat="43.282717" lon="-4.311900">
        <ele>929.0</ele>
        <time>2015-04-28T14:03:01Z</time>
      </trkpt>
      <trkpt lat="43.282667" lon="-4.311850">
        <ele>927.0</ele>
        <time>2015-04-28T14:03:02Z</time>
      </trkpt>
      <trkpt lat="43.282617" lon="-4.311800">
        <ele>925.0</ele>
        <time>2015-04-28T14:03:03Z</time>
      </trkpt>
      <trkpt lat="43.282550" lon="-4.311750">
        <ele>924.0</ele>
        <time>2015-04-28T14:03:04Z</time>
      </trkpt>
      <trkpt lat="43.282500" lon="-4.311717">
        <ele>923.0</ele>
        <time>2015-04-28T14:03:05Z</time>
      </trkpt>
      <trkpt lat="43.282450" lon="-4.311667">
        <ele>922.0</ele>
        <time>2015-04-28T14:03:06Z</time>
      </trkpt>
      <trkpt lat="43.282400" lon="-4.311617">
        <ele>921.0</ele>
        <time>2015-04-28T14:03:07Z</time>
      </trkpt>
      <trkpt lat="43.282367" lon="-4.311550">
        <ele>920.0</ele>
        <time>2015-04-28T14:03:08Z</time>
      </trkpt>
      <trkpt lat="43.282317" lon="-4.311500">
        <ele>920.0</ele>
        <time>2015-04-28T14:03:09Z</time>
      </trkpt>
      <trkpt lat="43.282267" lon="-4.311433">
        <ele>918.0</ele>
        <time>2015-04-28T14:03:10Z</time>
      </trkpt>
      <trkpt lat="43.282233" lon="-4.311367">
        <ele>918.0</ele>
        <time>2015-04-28T14:03:11Z</time>
      </trkpt>
      <trkpt lat="43.282200" lon="-4.311317">
        <ele>917.0</ele>
        <time>2015-04-28T14:03:12Z</time>
      </trkpt>
      <trkpt lat="43.282167" lon="-4.311267">
        <ele>917.0</ele>
        <time>2015-04-28T14:03:13Z</time>
      </trkpt>
      <trkpt lat="43.282133" lon="-4.311217">
        <ele>917.0</ele>
        <time>2015-04-28T14:03:14Z</time>
      </trkpt>
      <trkpt lat="43.282100" lon="-4.311183">
        <ele>917.0</ele>
        <time>2015-04-28T14:03:15Z</time>
      </trkpt>
      <trkpt lat="43.282083" lon="-4.311167">
        <ele>916.0</ele>
        <time>2015-04-28T14:03:16Z</time>
      </trkpt>
      <trkpt lat="43.282050" lon="-4.311117">
        <ele>915.0</ele>
        <time>2015-04-28T14:03:17Z</time>
      </trkpt>
      <trkpt lat="43.282033" lon="-4.311083">
        <ele>916.0</ele>
        <time>2015-04-28T14:03:18Z</time>
      </trkpt>
      <trkpt lat="43.282000" lon="-4.311033">
        <ele>916.0</ele>
        <time>2015-04-28T14:03:19Z</time>
      </trkpt>
      <trkpt lat="43.281967" lon="-4.310950">
        <ele>915.0</ele>
        <time>2015-04-28T14:03:20Z</time>
      </trkpt>
      <trkpt lat="43.281917" lon="-4.310883">
        <ele>914.0</ele>
        <time>2015-04-28T14:03:21Z</time>
      </trkpt>
      <trkpt lat="43.281883" lon="-4.310833">
        <ele>914.0</ele>
        <time>2015-04-28T14:03:22Z</time>
      </trkpt>
      <trkpt lat="43.281850" lon="-4.310800">
        <ele>913.0</ele>
        <time>2015-04-28T14:03:23Z</time>
      </trkpt>
      <trkpt lat="43.281817" lon="-4.310767">
        <ele>913.0</ele>
        <time>2015-04-28T14:03:24Z</time>
      </trkpt>
      <trkpt lat="43.281800" lon="-4.310750">
        <ele>912.0</ele>
        <time>2015-04-28T14:03:25Z</time>
      </trkpt>
      <trkpt lat="43.281767" lon="-4.310700">
        <ele>912.0</ele>
        <time>2015-04-28T14:03:26Z</time>
      </trkpt>
      <trkpt lat="43.281717" lon="-4.310617">
        <ele>912.0</ele>
        <time>2015-04-28T14:03:27Z</time>
      </trkpt>
      <trkpt lat="43.281667" lon="-4.310533">
        <ele>911.0</ele>
        <time>2015-04-28T14:03:28Z</time>
      </trkpt>
      <trkpt lat="43.281617" lon="-4.310467">
        <ele>910.0</ele>
        <time>2015-04-28T14:03:29Z</time>
      </trkpt>
      <trkpt lat="43.281567" lon="-4.310417">
        <ele>910.0</ele>
        <time>2015-04-28T14:03:30Z</time>
      </trkpt>
      <trkpt lat="43.281517" lon="-4.310383">
        <ele>909.0</ele>
        <time>2015-04-28T14:03:31Z</time>
      </trkpt>
      <trkpt lat="43.281483" lon="-4.310350">
        <ele>909.0</ele>
        <time>2015-04-28T14:03:32Z</time>
      </trkpt>
      <trkpt lat="43.281433" lon="-4.310317">
        <ele>909.0</ele>
        <time>2015-04-28T14:03:33Z</time>
      </trkpt>
      <trkpt lat="43.281383" lon="-4.310267">
        <ele>908.0</ele>
        <time>2015-04-28T14:03:34Z</time>
      </trkpt>
      <trkpt lat="43.281317" lon="-4.310217">
        <ele>908.0</ele>
        <time>2015-04-28T14:03:35Z</time>
      </trkpt>
      <trkpt lat="43.281267" lon="-4.310167">
        <ele>907.0</ele>
        <time>2015-04-28T14:03:36Z</time>
      </trkpt>
      <trkpt lat="43.281217" lon="-4.310100">
        <ele>905.0</ele>
        <time>2015-04-28T14:03:37Z</time>
      </trkpt>
      <trkpt lat="43.281150" lon="-4.310050">
        <ele>904.0</ele>
        <time>2015-04-28T14:03:38Z</time>
      </trkpt>
      <trkpt lat="43.281100" lon="-4.309983">
        <ele>903.0</ele>
        <time>2015-04-28T14:03:39Z</time>
      </trkpt>
      <trkpt lat="43.281067" lon="-4.309917">
        <ele>902.0</ele>
        <time>2015-04-28T14:03:40Z</time>
      </trkpt>
      <trkpt lat="43.281033" lon="-4.309850">
        <ele>902.0</ele>
        <time>2015-04-28T14:03:41Z</time>
      </trkpt>
      <trkpt lat="43.280983" lon="-4.309783">
        <ele>902.0</ele>
        <time>2015-04-28T14:03:42Z</time>
      </trkpt>
      <trkpt lat="43.280967" lon="-4.309683">
        <ele>901.0</ele>
        <time>2015-04-28T14:03:43Z</time>
      </trkpt>
      <trkpt lat="43.280933" lon="-4.309600">
        <ele>901.0</ele>
        <time>2015-04-28T14:03:44Z</time>
      </trkpt>
      <trkpt lat="43.280917" lon="-4.309517">
        <ele>901.0</ele>
        <time>2015-04-28T14:03:45Z</time>
      </trkpt>
      <trkpt lat="43.280917" lon="-4.309433">
        <ele>900.0</ele>
        <time>2015-04-28T14:03:46Z</time>
      </trkpt>
      <trkpt lat="43.280900" lon="-4.309367">
        <ele>900.0</ele>
        <time>2015-04-28T14:03:47Z</time>
      </trkpt>
      <trkpt lat="43.280883" lon="-4.309300">
        <ele>900.0</ele>
        <time>2015-04-28T14:03:48Z</time>
      </trkpt>
      <trkpt lat="43.280867" lon="-4.309250">
        <ele>900.0</ele>
        <time>2015-04-28T14:03:49Z</time>
      </trkpt>
      <trkpt lat="43.280850" lon="-4.309233">
        <ele>900.0</ele>
        <time>2015-04-28T14:03:50Z</time>
      </trkpt>
      <trkpt lat="43.280850" lon="-4.309217">
        <ele>900.0</ele>
        <time>2015-04-28T14:03:51Z</time>
      </trkpt>
      <trkpt lat="43.280833" lon="-4.309200">
        <ele>900.0</ele>
        <time>2015-04-28T14:03:52Z</time>
      </trkpt>
      <trkpt lat="43.280833" lon="-4.309167">
        <ele>900.0</ele>
        <time>2015-04-28T14:03:53Z</time>
      </trkpt>
      <trkpt lat="43.280850" lon="-4.309133">
        <ele>900.0</ele>
        <time>2015-04-28T14:03:54Z</time>
      </trkpt>
      <trkpt lat="43.280850" lon="-4.309083">
        <ele>900.0</ele>
        <time>2015-04-28T14:03:55Z</time>
      </trkpt>
      <trkpt lat="43.280867" lon="-4.309050">
        <ele>900.0</ele>
        <time>2015-04-28T14:03:56Z</time>
      </trkpt>
      <trkpt lat="43.280900" lon="-4.309050">
        <ele>900.0</ele>
        <time>2015-04-28T14:03:57Z</time>
      </trkpt>
      <trkpt lat="43.280917" lon="-4.309050">
        <ele>901.0</ele>
        <time>2015-04-28T14:03:58Z</time>
      </trkpt>
      <trkpt lat="43.280967" lon="-4.309050">
        <ele>901.0</ele>
        <time>2015-04-28T14:03:59Z</time>
      </trkpt>
      <trkpt lat="43.281017" lon="-4.309067">
        <ele>901.0</ele>
        <time>2015-04-28T14:04:00Z</time>
      </trkpt>
      <trkpt lat="43.281067" lon="-4.309100">
        <ele>901.0</ele>
        <time>2015-04-28T14:04:01Z</time>
      </trkpt>
      <trkpt lat="43.281117" lon="-4.309183">
        <ele>901.0</ele>
        <time>2015-04-28T14:04:02Z</time>
      </trkpt>
      <trkpt lat="43.281167" lon="-4.309283">
        <ele>902.0</ele>
        <time>2015-04-28T14:04:03Z</time>
      </trkpt>
      <trkpt lat="43.281200" lon="-4.309417">
        <ele>902.0</ele>
        <time>2015-04-28T14:04:04Z</time>
      </trkpt>
      <trkpt lat="43.281200" lon="-4.309550">
        <ele>903.0</ele>
        <time>2015-04-28T14:04:05Z</time>
      </trkpt>
      <trkpt lat="43.281183" lon="-4.309683">
        <ele>904.0</ele>
        <time>2015-04-28T14:04:06Z</time>
      </trkpt>
      <trkpt lat="43.281150" lon="-4.309817">
        <ele>905.0</ele>
        <time>2015-04-28T14:04:07Z</time>
      </trkpt>
      <trkpt lat="43.281117" lon="-4.309967">
        <ele>905.0</ele>
        <time>2015-04-28T14:04:08Z</time>
      </trkpt>
      <trkpt lat="43.281067" lon="-4.310117">
        <ele>905.0</ele>
        <time>2015-04-28T14:04:09Z</time>
      </trkpt>
      <trkpt lat="43.280967" lon="-4.310233">
        <ele>905.0</ele>
        <time>2015-04-28T14:04:10Z</time>
      </trkpt>
      <trkpt lat="43.280867" lon="-4.310317">
        <ele>905.0</ele>
        <time>2015-04-28T14:04:11Z</time>
      </trkpt>
      <trkpt lat="43.280750" lon="-4.310333">
        <ele>904.0</ele>
        <time>2015-04-28T14:04:12Z</time>
      </trkpt>
      <trkpt lat="43.280650" lon="-4.310333">
        <ele>904.0</ele>
        <time>2015-04-28T14:04:13Z</time>
      </trkpt>
      <trkpt lat="43.280550" lon="-4.310350">
        <ele>905.0</ele>
        <time>2015-04-28T14:04:14Z</time>
      </trkpt>
      <trkpt lat="43.280450" lon="-4.310350">
        <ele>906.0</ele>
        <time>2015-04-28T14:04:15Z</time>
      </trkpt>
      <trkpt lat="43.280350" lon="-4.310350">
        <ele>906.0</ele>
        <time>2015-04-28T14:04:16Z</time>
      </trkpt>
      <trkpt lat="43.280283" lon="-4.310350">
        <ele>907.0</ele>
        <time>2015-04-28T14:04:17Z</time>
      </trkpt>
      <trkpt lat="43.280200" lon="-4.310350">
        <ele>906.0</ele>
        <time>2015-04-28T14:04:18Z</time>
      </trkpt>
      <trkpt lat="43.280133" lon="-4.310350">
        <ele>907.0</ele>
        <time>2015-04-28T14:04:19Z</time>
      </trkpt>
      <trkpt lat="43.280083" lon="-4.310333">
        <ele>908.0</ele>
        <time>2015-04-28T14:04:20Z</time>
      </trkpt>
      <trkpt lat="43.280050" lon="-4.310300">
        <ele>908.0</ele>
        <time>2015-04-28T14:04:21Z</time>
      </trkpt>
      <trkpt lat="43.280017" lon="-4.310250">
        <ele>909.0</ele>
        <time>2015-04-28T14:04:22Z</time>
      </trkpt>
      <trkpt lat="43.280000" lon="-4.310200">
        <ele>911.0</ele>
        <time>2015-04-28T14:04:23Z</time>
      </trkpt>
      <trkpt lat="43.279983" lon="-4.310150">
        <ele>913.0</ele>
        <time>2015-04-28T14:04:24Z</time>
      </trkpt>
      <trkpt lat="43.279967" lon="-4.310117">
        <ele>914.0</ele>
        <time>2015-04-28T14:04:25Z</time>
      </trkpt>
      <trkpt lat="43.279933" lon="-4.310100">
        <ele>915.0</ele>
        <time>2015-04-28T14:04:26Z</time>
      </trkpt>
      <trkpt lat="43.279917" lon="-4.310067">
        <ele>915.0</ele>
        <time>2015-04-28T14:04:27Z</time>
      </trkpt>
      <trkpt lat="43.279883" lon="-4.310017">
        <ele>915.0</ele>
        <time>2015-04-28T14:04:28Z</time>
      </trkpt>
      <trkpt lat="43.279867" lon="-4.309950">
        <ele>914.0</ele>
        <time>2015-04-28T14:04:29Z</time>
      </trkpt>
      <trkpt lat="43.279850" lon="-4.309867">
        <ele>914.0</ele>
        <time>2015-04-28T14:04:30Z</time>
      </trkpt>
      <trkpt lat="43.279833" lon="-4.309783">
        <ele>915.0</ele>
        <time>2015-04-28T14:04:31Z</time>
      </trkpt>
      <trkpt lat="43.279817" lon="-4.309700">
        <ele>915.0</ele>
        <time>2015-04-28T14:04:32Z</time>
      </trkpt>
      <trkpt lat="43.279817" lon="-4.309617">
        <ele>915.0</ele>
        <time>2015-04-28T14:04:33Z</time>
      </trkpt>
      <trkpt lat="43.279833" lon="-4.309533">
        <ele>915.0</ele>
        <time>2015-04-28T14:04:34Z</time>
      </trkpt>
      <trkpt lat="43.279850" lon="-4.309467">
        <ele>915.0</ele>
        <time>2015-04-28T14:04:35Z</time>
      </trkpt>
      <trkpt lat="43.279867" lon="-4.309417">
        <ele>915.0</ele>
        <time>2015-04-28T14:04:36Z</time>
      </trkpt>
      <trkpt lat="43.279883" lon="-4.309350">
        <ele>915.0</ele>
        <time>2015-04-28T14:04:37Z</time>
      </trkpt>
      <trkpt lat="43.279867" lon="-4.309300">
        <ele>916.0</ele>
        <time>2015-04-28T14:04:38Z</time>
      </trkpt>
      <trkpt lat="43.279867" lon="-4.309250">
        <ele>916.0</ele>
        <time>2015-04-28T14:04:39Z</time>
      </trkpt>
      <trkpt lat="43.279867" lon="-4.309200">
        <ele>916.0</ele>
        <time>2015-04-28T14:04:40Z</time>
      </trkpt>
      <trkpt lat="43.279883" lon="-4.309150">
        <ele>916.0</ele>
        <time>2015-04-28T14:04:41Z</time>
      </trkpt>
      <trkpt lat="43.279900" lon="-4.309100">
        <ele>916.0</ele>
        <time>2015-04-28T14:04:42Z</time>
      </trkpt>
      <trkpt lat="43.279917" lon="-4.309050">
        <ele>917.0</ele>
        <time>2015-04-28T14:04:43Z</time>
      </trkpt>
      <trkpt lat="43.279950" lon="-4.309017">
        <ele>917.0</ele>
        <time>2015-04-28T14:04:44Z</time>
      </trkpt>
      <trkpt lat="43.279983" lon="-4.309000">
        <ele>917.0</ele>
        <time>2015-04-28T14:04:45Z</time>
      </trkpt>
      <trkpt lat="43.280033" lon="-4.309017">
        <ele>917.0</ele>
        <time>2015-04-28T14:04:46Z</time>
      </trkpt>
      <trkpt lat="43.280067" lon="-4.309033">
        <ele>918.0</ele>
        <time>2015-04-28T14:04:47Z</time>
      </trkpt>
      <trkpt lat="43.280100" lon="-4.309083">
        <ele>919.0</ele>
        <time>2015-04-28T14:04:48Z</time>
      </trkpt>
      <trkpt lat="43.280133" lon="-4.309133">
        <ele>921.0</ele>
        <time>2015-04-28T14:04:49Z</time>
      </trkpt>
      <trkpt lat="43.280167" lon="-4.309183">
        <ele>923.0</ele>
        <time>2015-04-28T14:04:50Z</time>
      </trkpt>
      <trkpt lat="43.280183" lon="-4.309200">
        <ele>921.0</ele>
        <time>2015-04-28T14:04:51Z</time>
      </trkpt>
      <trkpt lat="43.280217" lon="-4.309217">
        <ele>921.0</ele>
        <time>2015-04-28T14:04:52Z</time>
      </trkpt>
      <trkpt lat="43.280250" lon="-4.309200">
        <ele>922.0</ele>
        <time>2015-04-28T14:04:53Z</time>
      </trkpt>
      <trkpt lat="43.280267" lon="-4.309200">
        <ele>922.0</ele>
        <time>2015-04-28T14:04:54Z</time>
      </trkpt>
      <trkpt lat="43.280283" lon="-4.309183">
        <ele>923.0</ele>
        <time>2015-04-28T14:04:55Z</time>
      </trkpt>
      <trkpt lat="43.280267" lon="-4.309167">
        <ele>924.0</ele>
        <time>2015-04-28T14:04:56Z</time>
      </trkpt>
      <trkpt lat="43.280250" lon="-4.309150">
        <ele>924.0</ele>
        <time>2015-04-28T14:04:57Z</time>
      </trkpt>
      <trkpt lat="43.280217" lon="-4.309150">
        <ele>925.0</ele>
        <time>2015-04-28T14:04:58Z</time>
      </trkpt>
      <trkpt lat="43.280183" lon="-4.309117">
        <ele>925.0</ele>
        <time>2015-04-28T14:04:59Z</time>
      </trkpt>
      <trkpt lat="43.280117" lon="-4.309100">
        <ele>926.0</ele>
        <time>2015-04-28T14:05:00Z</time>
      </trkpt>
      <trkpt lat="43.280050" lon="-4.309100">
        <ele>926.0</ele>
        <time>2015-04-28T14:05:01Z</time>
      </trkpt>
      <trkpt lat="43.279983" lon="-4.309167">
        <ele>927.0</ele>
        <time>2015-04-28T14:05:02Z</time>
      </trkpt>
      <trkpt lat="43.279900" lon="-4.309283">
        <ele>927.0</ele>
        <time>2015-04-28T14:05:03Z</time>
      </trkpt>
      <trkpt lat="43.279833" lon="-4.309433">
        <ele>928.0</ele>
        <time>2015-04-28T14:05:04Z</time>
      </trkpt>
      <trkpt lat="43.279800" lon="-4.309583">
        <ele>928.0</ele>
        <time>2015-04-28T14:05:05Z</time>
      </trkpt>
      <trkpt lat="43.279800" lon="-4.309750">
        <ele>929.0</ele>
        <time>2015-04-28T14:05:06Z</time>
      </trkpt>
      <trkpt lat="43.279817" lon="-4.309883">
        <ele>930.0</ele>
        <time>2015-04-28T14:05:07Z</time>
      </trkpt>
      <trkpt lat="43.279867" lon="-4.309983">
        <ele>932.0</ele>
        <time>2015-04-28T14:05:08Z</time>
      </trkpt>
      <trkpt lat="43.279900" lon="-4.310050">
        <ele>931.0</ele>
        <time>2015-04-28T14:05:09Z</time>
      </trkpt>
      <trkpt lat="43.279950" lon="-4.310117">
        <ele>932.0</ele>
        <time>2015-04-28T14:05:10Z</time>
      </trkpt>
      <trkpt lat="43.279983" lon="-4.310150">
        <ele>932.0</ele>
        <time>2015-04-28T14:05:11Z</time>
      </trkpt>
      <trkpt lat="43.280033" lon="-4.310183">
        <ele>933.0</ele>
        <time>2015-04-28T14:05:12Z</time>
      </trkpt>
      <trkpt lat="43.280067" lon="-4.310183">
        <ele>934.0</ele>
        <time>2015-04-28T14:05:13Z</time>
      </trkpt>
      <trkpt lat="43.280117" lon="-4.310167">
        <ele>934.0</ele>
        <time>2015-04-28T14:05:14Z</time>
      </trkpt>
      <trkpt lat="43.280150" lon="-4.310133">
        <ele>935.0</ele>
        <time>2015-04-28T14:05:15Z</time>
      </trkpt>
      <trkpt lat="43.280183" lon="-4.310133">
        <ele>935.0</ele>
        <time>2015-04-28T14:05:16Z</time>
      </trkpt>
      <trkpt lat="43.280183" lon="-4.310117">
        <ele>936.0</ele>
        <time>2015-04-28T14:05:17Z</time>
      </trkpt>
      <trkpt lat="43.280167" lon="-4.310100">
        <ele>937.0</ele>
        <time>2015-04-28T14:05:18Z</time>
      </trkpt>
      <trkpt lat="43.280133" lon="-4.310083">
        <ele>938.0</ele>
        <time>2015-04-28T14:05:19Z</time>
      </trkpt>
      <trkpt lat="43.280083" lon="-4.310083">
        <ele>938.0</ele>
        <time>2015-04-28T14:05:20Z</time>
      </trkpt>
      <trkpt lat="43.280033" lon="-4.310100">
        <ele>939.0</ele>
        <time>2015-04-28T14:05:21Z</time>
      </trkpt>
      <trkpt lat="43.279950" lon="-4.310133">
        <ele>939.0</ele>
        <time>2015-04-28T14:05:22Z</time>
      </trkpt>
      <trkpt lat="43.279867" lon="-4.310183">
        <ele>940.0</ele>
        <time>2015-04-28T14:05:23Z</time>
      </trkpt>
      <trkpt lat="43.279783" lon="-4.310283">
        <ele>940.0</ele>
        <time>2015-04-28T14:05:24Z</time>
      </trkpt>
      <trkpt lat="43.279700" lon="-4.310417">
        <ele>941.0</ele>
        <time>2015-04-28T14:05:25Z</time>
      </trkpt>
      <trkpt lat="43.279650" lon="-4.310583">
        <ele>942.0</ele>
        <time>2015-04-28T14:05:26Z</time>
      </trkpt>
      <trkpt lat="43.279617" lon="-4.310750">
        <ele>944.0</ele>
        <time>2015-04-28T14:05:27Z</time>
      </trkpt>
      <trkpt lat="43.279617" lon="-4.310933">
        <ele>946.0</ele>
        <time>2015-04-28T14:05:28Z</time>
      </trkpt>
      <trkpt lat="43.279633" lon="-4.311083">
        <ele>948.0</ele>
        <time>2015-04-28T14:05:29Z</time>
      </trkpt>
      <trkpt lat="43.279650" lon="-4.311200">
        <ele>950.0</ele>
        <time>2015-04-28T14:05:30Z</time>
      </trkpt>
      <trkpt lat="43.279700" lon="-4.311300">
        <ele>949.0</ele>
        <time>2015-04-28T14:05:31Z</time>
      </trkpt>
      <trkpt lat="43.279733" lon="-4.311367">
        <ele>950.0</ele>
        <time>2015-04-28T14:05:32Z</time>
      </trkpt>
      <trkpt lat="43.279767" lon="-4.311400">
        <ele>951.0</ele>
        <time>2015-04-28T14:05:33Z</time>
      </trkpt>
      <trkpt lat="43.279817" lon="-4.311400">
        <ele>953.0</ele>
        <time>2015-04-28T14:05:34Z</time>
      </trkpt>
      <trkpt lat="43.279867" lon="-4.311367">
        <ele>954.0</ele>
        <time>2015-04-28T14:05:35Z</time>
      </trkpt>
      <trkpt lat="43.279900" lon="-4.311317">
        <ele>955.0</ele>
        <time>2015-04-28T14:05:36Z</time>
      </trkpt>
      <trkpt lat="43.279900" lon="-4.311300">
        <ele>956.0</ele>
        <time>2015-04-28T14:05:37Z</time>
      </trkpt>
      <trkpt lat="43.279867" lon="-4.311300">
        <ele>958.0</ele>
        <time>2015-04-28T14:05:38Z</time>
      </trkpt>
      <trkpt lat="43.279850" lon="-4.311300">
        <ele>959.0</ele>
        <time>2015-04-28T14:05:39Z</time>
      </trkpt>
      <trkpt lat="43.279817" lon="-4.311300">
        <ele>960.0</ele>
        <time>2015-04-28T14:05:40Z</time>
      </trkpt>
      <trkpt lat="43.279783" lon="-4.311300">
        <ele>961.0</ele>
        <time>2015-04-28T14:05:41Z</time>
      </trkpt>
      <trkpt lat="43.279750" lon="-4.311300">
        <ele>962.0</ele>
        <time>2015-04-28T14:05:42Z</time>
      </trkpt>
      <trkpt lat="43.279717" lon="-4.311283">
        <ele>963.0</ele>
        <time>2015-04-28T14:05:43Z</time>
      </trkpt>
      <trkpt lat="43.279700" lon="-4.311267">
        <ele>964.0</ele>
        <time>2015-04-28T14:05:44Z</time>
      </trkpt>
      <trkpt lat="43.279683" lon="-4.311250">
        <ele>965.0</ele>
        <time>2015-04-28T14:05:45Z</time>
      </trkpt>
      <trkpt lat="43.279667" lon="-4.311233">
        <ele>966.0</ele>
        <time>2015-04-28T14:05:46Z</time>
      </trkpt>
      <trkpt lat="43.279633" lon="-4.311233">
        <ele>967.0</ele>
        <time>2015-04-28T14:05:47Z</time>
      </trkpt>
      <trkpt lat="43.279583" lon="-4.311250">
        <ele>968.0</ele>
        <time>2015-04-28T14:05:48Z</time>
      </trkpt>
      <trkpt lat="43.279483" lon="-4.311267">
        <ele>969.0</ele>
        <time>2015-04-28T14:05:49Z</time>
      </trkpt>
      <trkpt lat="43.279383" lon="-4.311317">
        <ele>971.0</ele>
        <time>2015-04-28T14:05:50Z</time>
      </trkpt>
      <trkpt lat="43.279283" lon="-4.311383">
        <ele>972.0</ele>
        <time>2015-04-28T14:05:51Z</time>
      </trkpt>
      <trkpt lat="43.279183" lon="-4.311483">
        <ele>973.0</ele>
        <time>2015-04-28T14:05:52Z</time>
      </trkpt>
      <trkpt lat="43.279117" lon="-4.311617">
        <ele>975.0</ele>
        <time>2015-04-28T14:05:53Z</time>
      </trkpt>
      <trkpt lat="43.279083" lon="-4.311750">
        <ele>976.0</ele>
        <time>2015-04-28T14:05:54Z</time>
      </trkpt>
      <trkpt lat="43.279067" lon="-4.311900">
        <ele>978.0</ele>
        <time>2015-04-28T14:05:55Z</time>
      </trkpt>
      <trkpt lat="43.279050" lon="-4.312067">
        <ele>980.0</ele>
        <time>2015-04-28T14:05:56Z</time>
      </trkpt>
      <trkpt lat="43.279000" lon="-4.312233">
        <ele>984.0</ele>
        <time>2015-04-28T14:05:57Z</time>
      </trkpt>
      <trkpt lat="43.278983" lon="-4.312367">
        <ele>988.0</ele>
        <time>2015-04-28T14:05:58Z</time>
      </trkpt>
      <trkpt lat="43.278983" lon="-4.312467">
        <ele>993.0</ele>
        <time>2015-04-28T14:05:59Z</time>
      </trkpt>
      <trkpt lat="43.278983" lon="-4.312567">
        <ele>987.0</ele>
        <time>2015-04-28T14:06:00Z</time>
      </trkpt>
      <trkpt lat="43.279000" lon="-4.312667">
        <ele>988.0</ele>
        <time>2015-04-28T14:06:01Z</time>
      </trkpt>
      <trkpt lat="43.279000" lon="-4.312767">
        <ele>990.0</ele>
        <time>2015-04-28T14:06:02Z</time>
      </trkpt>
      <trkpt lat="43.279033" lon="-4.312850">
        <ele>992.0</ele>
        <time>2015-04-28T14:06:03Z</time>
      </trkpt>
      <trkpt lat="43.279067" lon="-4.312883">
        <ele>992.0</ele>
        <time>2015-04-28T14:06:04Z</time>
      </trkpt>
      <trkpt lat="43.279100" lon="-4.312883">
        <ele>993.0</ele>
        <time>2015-04-28T14:06:05Z</time>
      </trkpt>
      <trkpt lat="43.279133" lon="-4.312867">
        <ele>994.0</ele>
        <time>2015-04-28T14:06:06Z</time>
      </trkpt>
      <trkpt lat="43.279133" lon="-4.312833">
        <ele>995.0</ele>
        <time>2015-04-28T14:06:07Z</time>
      </trkpt>
      <trkpt lat="43.279100" lon="-4.312817">
        <ele>996.0</ele>
        <time>2015-04-28T14:06:08Z</time>
      </trkpt>
      <trkpt lat="43.279083" lon="-4.312783">
        <ele>998.0</ele>
        <time>2015-04-28T14:06:09Z</time>
      </trkpt>
      <trkpt lat="43.279033" lon="-4.312767">
        <ele>1000.0</ele>
        <time>2015-04-28T14:06:10Z</time>
      </trkpt>
      <trkpt lat="43.279017" lon="-4.312717">
        <ele>1001.0</ele>
        <time>2015-04-28T14:06:11Z</time>
      </trkpt>
      <trkpt lat="43.279000" lon="-4.312700">
        <ele>1002.0</ele>
        <time>2015-04-28T14:06:12Z</time>
      </trkpt>
      <trkpt lat="43.278967" lon="-4.312667">
        <ele>1003.0</ele>
        <time>2015-04-28T14:06:13Z</time>
      </trkpt>
      <trkpt lat="43.278917" lon="-4.312633">
        <ele>1004.0</ele>
        <time>2015-04-28T14:06:14Z</time>
      </trkpt>
      <trkpt lat="43.278883" lon="-4.312583">
        <ele>1006.0</ele>
        <time>2015-04-28T14:06:15Z</time>
      </trkpt>
      <trkpt lat="43.278850" lon="-4.312533">
        <ele>1008.0</ele>
        <time>2015-04-28T14:06:16Z</time>
      </trkpt>
      <trkpt lat="43.278800" lon="-4.312517">
        <ele>1009.0</ele>
        <time>2015-04-28T14:06:17Z</time>
      </trkpt>
      <trkpt lat="43.278767" lon="-4.312500">
        <ele>1011.0</ele>
        <time>2015-04-28T14:06:18Z</time>
      </trkpt>
      <trkpt lat="43.278700" lon="-4.312483">
        <ele>1013.0</ele>
        <time>2015-04-28T14:06:19Z</time>
      </trkpt>
      <trkpt lat="43.278633" lon="-4.312483">
        <ele>1015.0</ele>
        <time>2015-04-28T14:06:20Z</time>
      </trkpt>
      <trkpt lat="43.278567" lon="-4.312467">
        <ele>1018.0</ele>
        <time>2015-04-28T14:06:21Z</time>
      </trkpt>
      <trkpt lat="43.278500" lon="-4.312467">
        <ele>1020.0</ele>
        <time>2015-04-28T14:06:22Z</time>
      </trkpt>
      <trkpt lat="43.278433" lon="-4.312467">
        <ele>1023.0</ele>
        <time>2015-04-28T14:06:23Z</time>
      </trkpt>
      <trkpt lat="43.278333" lon="-4.312467">
        <ele>1025.0</ele>
        <time>2015-04-28T14:06:24Z</time>
      </trkpt>
      <trkpt lat="43.278233" lon="-4.312483">
        <ele>1027.0</ele>
        <time>2015-04-28T14:06:25Z</time>
      </trkpt>
      <trkpt lat="43.278150" lon="-4.312500">
        <ele>1028.0</ele>
        <time>2015-04-28T14:06:26Z</time>
      </trkpt>
      <trkpt lat="43.278050" lon="-4.312517">
        <ele>1032.0</ele>
        <time>2015-04-28T14:06:27Z</time>
      </trkpt>
      <trkpt lat="43.277933" lon="-4.312550">
        <ele>1034.0</ele>
        <time>2015-04-28T14:06:28Z</time>
      </trkpt>
      <trkpt lat="43.277850" lon="-4.312600">
        <ele>1037.0</ele>
        <time>2015-04-28T14:06:29Z</time>
      </trkpt>
      <trkpt lat="43.277767" lon="-4.312617">
        <ele>1036.0</ele>
        <time>2015-04-28T14:06:30Z</time>
      </trkpt>
      <trkpt lat="43.277683" lon="-4.312617">
        <ele>1037.0</ele>
        <time>2015-04-28T14:06:31Z</time>
      </trkpt>
      <trkpt lat="43.277600" lon="-4.312617">
        <ele>1039.0</ele>
        <time>2015-04-28T14:06:32Z</time>
      </trkpt>
      <trkpt lat="43.277533" lon="-4.312600">
        <ele>1040.0</ele>
        <time>2015-04-28T14:06:33Z</time>
      </trkpt>
      <trkpt lat="43.277483" lon="-4.312567">
        <ele>1043.0</ele>
        <time>2015-04-28T14:06:34Z</time>
      </trkpt>
      <trkpt lat="43.277417" lon="-4.312533">
        <ele>1046.0</ele>
        <time>2015-04-28T14:06:35Z</time>
      </trkpt>
      <trkpt lat="43.277367" lon="-4.312500">
        <ele>1049.0</ele>
        <time>2015-04-28T14:06:36Z</time>
      </trkpt>
      <trkpt lat="43.277317" lon="-4.312467">
        <ele>1052.0</ele>
        <time>2015-04-28T14:06:37Z</time>
      </trkpt>
      <trkpt lat="43.277250" lon="-4.312417">
        <ele>1054.0</ele>
        <time>2015-04-28T14:06:38Z</time>
      </trkpt>
      <trkpt lat="43.277200" lon="-4.312367">
        <ele>1054.0</ele>
        <time>2015-04-28T14:06:39Z</time>
      </trkpt>
      <trkpt lat="43.277150" lon="-4.312300">
        <ele>1055.0</ele>
        <time>2015-04-28T14:06:40Z</time>
      </trkpt>
      <trkpt lat="43.277133" lon="-4.312233">
        <ele>1057.0</ele>
        <time>2015-04-28T14:06:41Z</time>
      </trkpt>
      <trkpt lat="43.277100" lon="-4.312167">
        <ele>1057.0</ele>
        <time>2015-04-28T14:06:42Z</time>
      </trkpt>
      <trkpt lat="43.277100" lon="-4.312100">
        <ele>1059.0</ele>
        <time>2015-04-28T14:06:43Z</time>
      </trkpt>
      <trkpt lat="43.277083" lon="-4.312033">
        <ele>1061.0</ele>
        <time>2015-04-28T14:06:44Z</time>
      </trkpt>
      <trkpt lat="43.277067" lon="-4.311983">
        <ele>1061.0</ele>
        <time>2015-04-28T14:06:45Z</time>
      </trkpt>
      <trkpt lat="43.277067" lon="-4.311933">
        <ele>1062.0</ele>
        <time>2015-04-28T14:06:46Z</time>
      </trkpt>
      <trkpt lat="43.277050" lon="-4.311883">
        <ele>1063.0</ele>
        <time>2015-04-28T14:06:47Z</time>
      </trkpt>
      <trkpt lat="43.277050" lon="-4.311833">
        <ele>1065.0</ele>
        <time>2015-04-28T14:06:48Z</time>
      </trkpt>
      <trkpt lat="43.277067" lon="-4.311783">
        <ele>1064.0</ele>
        <time>2015-04-28T14:06:49Z</time>
      </trkpt>
      <trkpt lat="43.277067" lon="-4.311733">
        <ele>1065.0</ele>
        <time>2015-04-28T14:06:50Z</time>
      </trkpt>
      <trkpt lat="43.277083" lon="-4.311683">
        <ele>1067.0</ele>
        <time>2015-04-28T14:06:51Z</time>
      </trkpt>
      <trkpt lat="43.277100" lon="-4.311667">
        <ele>1069.0</ele>
        <time>2015-04-28T14:06:52Z</time>
      </trkpt>
      <trkpt lat="43.277117" lon="-4.311650">
        <ele>1071.0</ele>
        <time>2015-04-28T14:06:53Z</time>
      </trkpt>
      <trkpt lat="43.277133" lon="-4.311650">
        <ele>1071.0</ele>
        <time>2015-04-28T14:06:54Z</time>
      </trkpt>
      <trkpt lat="43.277150" lon="-4.311650">
        <ele>1071.0</ele>
        <time>2015-04-28T14:06:55Z</time>
      </trkpt>
      <trkpt lat="43.277200" lon="-4.311633">
        <ele>1071.0</ele>
        <time>2015-04-28T14:06:56Z</time>
      </trkpt>
      <trkpt lat="43.277250" lon="-4.311617">
        <ele>1072.0</ele>
        <time>2015-04-28T14:06:57Z</time>
      </trkpt>
      <trkpt lat="43.277300" lon="-4.311583">
        <ele>1072.0</ele>
        <time>2015-04-28T14:06:58Z</time>
      </trkpt>
      <trkpt lat="43.277350" lon="-4.311550">
        <ele>1072.0</ele>
        <time>2015-04-28T14:06:59Z</time>
      </trkpt>
      <trkpt lat="43.277400" lon="-4.311533">
        <ele>1072.0</ele>
        <time>2015-04-28T14:07:00Z</time>
      </trkpt>
      <trkpt lat="43.277450" lon="-4.311483">
        <ele>1072.0</ele>
        <time>2015-04-28T14:07:01Z</time>
      </trkpt>
      <trkpt lat="43.277500" lon="-4.311433">
        <ele>1072.0</ele>
        <time>2015-04-28T14:07:02Z</time>
      </trkpt>
      <trkpt lat="43.277533" lon="-4.311383">
        <ele>1072.0</ele>
        <time>2015-04-28T14:07:03Z</time>
      </trkpt>
      <trkpt lat="43.277583" lon="-4.311317">
        <ele>1072.0</ele>
        <time>2015-04-28T14:07:04Z</time>
      </trkpt>
      <trkpt lat="43.277633" lon="-4.311250">
        <ele>1072.0</ele>
        <time>2015-04-28T14:07:05Z</time>
      </trkpt>
      <trkpt lat="43.277683" lon="-4.311200">
        <ele>1072.0</ele>
        <time>2015-04-28T14:07:06Z</time>
      </trkpt>
      <trkpt lat="43.277717" lon="-4.311150">
        <ele>1072.0</ele>
        <time>2015-04-28T14:07:07Z</time>
      </trkpt>
      <trkpt lat="43.277750" lon="-4.311083">
        <ele>1072.0</ele>
        <time>2015-04-28T14:07:08Z</time>
      </trkpt>
      <trkpt lat="43.277783" lon="-4.311000">
        <ele>1072.0</ele>
        <time>2015-04-28T14:07:09Z</time>
      </trkpt>
      <trkpt lat="43.277817" lon="-4.310933">
        <ele>1072.0</ele>
        <time>2015-04-28T14:07:10Z</time>
      </trkpt>
      <trkpt lat="43.277833" lon="-4.310850">
        <ele>1072.0</ele>
        <time>2015-04-28T14:07:11Z</time>
      </trkpt>
      <trkpt lat="43.277867" lon="-4.310783">
        <ele>1072.0</ele>
        <time>2015-04-28T14:07:12Z</time>
      </trkpt>
      <trkpt lat="43.277883" lon="-4.310717">
        <ele>1072.0</ele>
        <time>2015-04-28T14:07:13Z</time>
      </trkpt>
      <trkpt lat="43.277917" lon="-4.310650">
        <ele>1072.0</ele>
        <time>2015-04-28T14:07:14Z</time>
      </trkpt>
      <trkpt lat="43.277933" lon="-4.310567">
        <ele>1072.0</ele>
        <time>2015-04-28T14:07:15Z</time>
      </trkpt>
      <trkpt lat="43.277967" lon="-4.310500">
        <ele>1072.0</ele>
        <time>2015-04-28T14:07:16Z</time>
      </trkpt>
      <trkpt lat="43.277983" lon="-4.310450">
        <ele>1072.0</ele>
        <time>2015-04-28T14:07:17Z</time>
      </trkpt>
      <trkpt lat="43.278017" lon="-4.310383">
        <ele>1073.0</ele>
        <time>2015-04-28T14:07:18Z</time>
      </trkpt>
      <trkpt lat="43.278033" lon="-4.310333">
        <ele>1073.0</ele>
        <time>2015-04-28T14:07:19Z</time>
      </trkpt>
      <trkpt lat="43.278067" lon="-4.310283">
        <ele>1073.0</ele>
        <time>2015-04-28T14:07:20Z</time>
      </trkpt>
      <trkpt lat="43.278100" lon="-4.310233">
        <ele>1073.0</ele>
        <time>2015-04-28T14:07:21Z</time>
      </trkpt>
      <trkpt lat="43.278133" lon="-4.310167">
        <ele>1074.0</ele>
        <time>2015-04-28T14:07:22Z</time>
      </trkpt>
      <trkpt lat="43.278150" lon="-4.310100">
        <ele>1074.0</ele>
        <time>2015-04-28T14:07:23Z</time>
      </trkpt>
      <trkpt lat="43.278167" lon="-4.310033">
        <ele>1074.0</ele>
        <time>2015-04-28T14:07:24Z</time>
      </trkpt>
      <trkpt lat="43.278183" lon="-4.309983">
        <ele>1074.0</ele>
        <time>2015-04-28T14:07:25Z</time>
      </trkpt>
      <trkpt lat="43.278200" lon="-4.309917">
        <ele>1074.0</ele>
        <time>2015-04-28T14:07:26Z</time>
      </trkpt>
      <trkpt lat="43.278217" lon="-4.309867">
        <ele>1074.0</ele>
        <time>2015-04-28T14:07:27Z</time>
      </trkpt>
      <trkpt lat="43.278250" lon="-4.309800">
        <ele>1074.0</ele>
        <time>2015-04-28T14:07:28Z</time>
      </trkpt>
      <trkpt lat="43.278283" lon="-4.309767">
        <ele>1074.0</ele>
        <time>2015-04-28T14:07:29Z</time>
      </trkpt>
      <trkpt lat="43.278300" lon="-4.309717">
        <ele>1074.0</ele>
        <time>2015-04-28T14:07:30Z</time>
      </trkpt>
      <trkpt lat="43.278333" lon="-4.309700">
        <ele>1074.0</ele>
        <time>2015-04-28T14:07:31Z</time>
      </trkpt>
      <trkpt lat="43.278367" lon="-4.309667">
        <ele>1074.0</ele>
        <time>2015-04-28T14:07:32Z</time>
      </trkpt>
      <trkpt lat="43.278400" lon="-4.309633">
        <ele>1075.0</ele>
        <time>2015-04-28T14:07:33Z</time>
      </trkpt>
      <trkpt lat="43.278450" lon="-4.309583">
        <ele>1075.0</ele>
        <time>2015-04-28T14:07:34Z</time>
      </trkpt>
      <trkpt lat="43.278483" lon="-4.309550">
        <ele>1075.0</ele>
        <time>2015-04-28T14:07:35Z</time>
      </trkpt>
      <trkpt lat="43.278533" lon="-4.309500">
        <ele>1075.0</ele>
        <time>2015-04-28T14:07:36Z</time>
      </trkpt>
      <trkpt lat="43.278567" lon="-4.309467">
        <ele>1075.0</ele>
        <time>2015-04-28T14:07:37Z</time>
      </trkpt>
      <trkpt lat="43.278617" lon="-4.309433">
        <ele>1075.0</ele>
        <time>2015-04-28T14:07:38Z</time>
      </trkpt>
      <trkpt lat="43.278650" lon="-4.309400">
        <ele>1075.0</ele>
        <time>2015-04-28T14:07:39Z</time>
      </trkpt>
      <trkpt lat="43.278683" lon="-4.309350">
        <ele>1075.0</ele>
        <time>2015-04-28T14:07:40Z</time>
      </trkpt>
      <trkpt lat="43.278717" lon="-4.309300">
        <ele>1074.0</ele>
        <time>2015-04-28T14:07:41Z</time>
      </trkpt>
      <trkpt lat="43.278750" lon="-4.309233">
        <ele>1074.0</ele>
        <time>2015-04-28T14:07:42Z</time>
      </trkpt>
      <trkpt lat="43.278800" lon="-4.309167">
        <ele>1074.0</ele>
        <time>2015-04-28T14:07:43Z</time>
      </trkpt>
      <trkpt lat="43.278867" lon="-4.309133">
        <ele>1074.0</ele>
        <time>2015-04-28T14:07:44Z</time>
      </trkpt>
      <trkpt lat="43.278917" lon="-4.309117">
        <ele>1074.0</ele>
        <time>2015-04-28T14:07:45Z</time>
      </trkpt>
      <trkpt lat="43.278950" lon="-4.309100">
        <ele>1075.0</ele>
        <time>2015-04-28T14:07:46Z</time>
      </trkpt>
      <trkpt lat="43.278967" lon="-4.309067">
        <ele>1075.0</ele>
        <time>2015-04-28T14:07:47Z</time>
      </trkpt>
      <trkpt lat="43.278983" lon="-4.309050">
        <ele>1075.0</ele>
        <time>2015-04-28T14:07:48Z</time>
      </trkpt>
      <trkpt lat="43.279017" lon="-4.309017">
        <ele>1075.0</ele>
        <time>2015-04-28T14:07:49Z</time>
      </trkpt>
      <trkpt lat="43.279033" lon="-4.309000">
        <ele>1075.0</ele>
        <time>2015-04-28T14:07:50Z</time>
      </trkpt>
      <trkpt lat="43.279067" lon="-4.308950">
        <ele>1075.0</ele>
        <time>2015-04-28T14:07:51Z</time>
      </trkpt>
      <trkpt lat="43.279100" lon="-4.308900">
        <ele>1075.0</ele>
        <time>2015-04-28T14:07:52Z</time>
      </trkpt>
      <trkpt lat="43.279133" lon="-4.308833">
        <ele>1074.0</ele>
        <time>2015-04-28T14:07:53Z</time>
      </trkpt>
      <trkpt lat="43.279183" lon="-4.308750">
        <ele>1074.0</ele>
        <time>2015-04-28T14:07:54Z</time>
      </trkpt>
      <trkpt lat="43.279233" lon="-4.308683">
        <ele>1074.0</ele>
        <time>2015-04-28T14:07:55Z</time>
      </trkpt>
      <trkpt lat="43.279267" lon="-4.308633">
        <ele>1074.0</ele>
        <time>2015-04-28T14:07:56Z</time>
      </trkpt>
      <trkpt lat="43.279300" lon="-4.308583">
        <ele>1074.0</ele>
        <time>2015-04-28T14:07:57Z</time>
      </trkpt>
      <trkpt lat="43.279317" lon="-4.308517">
        <ele>1074.0</ele>
        <time>2015-04-28T14:07:58Z</time>
      </trkpt>
      <trkpt lat="43.279350" lon="-4.308450">
        <ele>1074.0</ele>
        <time>2015-04-28T14:07:59Z</time>
      </trkpt>
      <trkpt lat="43.279383" lon="-4.308383">
        <ele>1074.0</ele>
        <time>2015-04-28T14:08:00Z</time>
      </trkpt>
      <trkpt lat="43.279433" lon="-4.308333">
        <ele>1073.0</ele>
        <time>2015-04-28T14:08:01Z</time>
      </trkpt>
      <trkpt lat="43.279467" lon="-4.308283">
        <ele>1074.0</ele>
        <time>2015-04-28T14:08:02Z</time>
      </trkpt>
      <trkpt lat="43.279517" lon="-4.308217">
        <ele>1074.0</ele>
        <time>2015-04-28T14:08:03Z</time>
      </trkpt>
      <trkpt lat="43.279550" lon="-4.308167">
        <ele>1073.0</ele>
        <time>2015-04-28T14:08:04Z</time>
      </trkpt>
      <trkpt lat="43.279583" lon="-4.308117">
        <ele>1073.0</ele>
        <time>2015-04-28T14:08:05Z</time>
      </trkpt>
      <trkpt lat="43.279633" lon="-4.308067">
        <ele>1073.0</ele>
        <time>2015-04-28T14:08:06Z</time>
      </trkpt>
      <trkpt lat="43.279683" lon="-4.308050">
        <ele>1073.0</ele>
        <time>2015-04-28T14:08:07Z</time>
      </trkpt>
      <trkpt lat="43.279717" lon="-4.308000">
        <ele>1073.0</ele>
        <time>2015-04-28T14:08:08Z</time>
      </trkpt>
      <trkpt lat="43.279750" lon="-4.307967">
        <ele>1073.0</ele>
        <time>2015-04-28T14:08:09Z</time>
      </trkpt>
      <trkpt lat="43.279767" lon="-4.307917">
        <ele>1073.0</ele>
        <time>2015-04-28T14:08:10Z</time>
      </trkpt>
      <trkpt lat="43.279783" lon="-4.307867">
        <ele>1073.0</ele>
        <time>2015-04-28T14:08:11Z</time>
      </trkpt>
      <trkpt lat="43.279817" lon="-4.307850">
        <ele>1073.0</ele>
        <time>2015-04-28T14:08:12Z</time>
      </trkpt>
      <trkpt lat="43.279867" lon="-4.307833">
        <ele>1072.0</ele>
        <time>2015-04-28T14:08:13Z</time>
      </trkpt>
      <trkpt lat="43.279900" lon="-4.307833">
        <ele>1072.0</ele>
        <time>2015-04-28T14:08:14Z</time>
      </trkpt>
      <trkpt lat="43.279933" lon="-4.307800">
        <ele>1070.0</ele>
        <time>2015-04-28T14:08:15Z</time>
      </trkpt>
      <trkpt lat="43.279967" lon="-4.307750">
        <ele>1070.0</ele>
        <time>2015-04-28T14:08:16Z</time>
      </trkpt>
      <trkpt lat="43.279983" lon="-4.307700">
        <ele>1070.0</ele>
        <time>2015-04-28T14:08:17Z</time>
      </trkpt>
      <trkpt lat="43.280017" lon="-4.307650">
        <ele>1071.0</ele>
        <time>2015-04-28T14:08:18Z</time>
      </trkpt>
      <trkpt lat="43.280050" lon="-4.307617">
        <ele>1072.0</ele>
        <time>2015-04-28T14:08:19Z</time>
      </trkpt>
      <trkpt lat="43.280067" lon="-4.307583">
        <ele>1074.0</ele>
        <time>2015-04-28T14:08:20Z</time>
      </trkpt>
      <trkpt lat="43.280083" lon="-4.307583">
        <ele>1077.0</ele>
        <time>2015-04-28T14:08:21Z</time>
      </trkpt>
      <trkpt lat="43.280100" lon="-4.307600">
        <ele>1077.0</ele>
        <time>2015-04-28T14:08:22Z</time>
      </trkpt>
      <trkpt lat="43.280117" lon="-4.307617">
        <ele>1075.0</ele>
        <time>2015-04-28T14:08:23Z</time>
      </trkpt>
      <trkpt lat="43.280167" lon="-4.307633">
        <ele>1074.0</ele>
        <time>2015-04-28T14:08:24Z</time>
      </trkpt>
      <trkpt lat="43.280233" lon="-4.307650">
        <ele>1074.0</ele>
        <time>2015-04-28T14:08:25Z</time>
      </trkpt>
      <trkpt lat="43.280283" lon="-4.307683">
        <ele>1073.0</ele>
        <time>2015-04-28T14:08:26Z</time>
      </trkpt>
      <trkpt lat="43.280350" lon="-4.307767">
        <ele>1073.0</ele>
        <time>2015-04-28T14:08:27Z</time>
      </trkpt>
      <trkpt lat="43.280400" lon="-4.307850">
        <ele>1072.0</ele>
        <time>2015-04-28T14:08:28Z</time>
      </trkpt>
      <trkpt lat="43.280450" lon="-4.307950">
        <ele>1071.0</ele>
        <time>2015-04-28T14:08:29Z</time>
      </trkpt>
      <trkpt lat="43.280500" lon="-4.308067">
        <ele>1070.0</ele>
        <time>2015-04-28T14:08:30Z</time>
      </trkpt>
      <trkpt lat="43.280567" lon="-4.308167">
        <ele>1069.0</ele>
        <time>2015-04-28T14:08:31Z</time>
      </trkpt>
      <trkpt lat="43.280617" lon="-4.308283">
        <ele>1069.0</ele>
        <time>2015-04-28T14:08:32Z</time>
      </trkpt>
      <trkpt lat="43.280667" lon="-4.308383">
        <ele>1069.0</ele>
        <time>2015-04-28T14:08:33Z</time>
      </trkpt>
      <trkpt lat="43.280733" lon="-4.308483">
        <ele>1070.0</ele>
        <time>2015-04-28T14:08:34Z</time>
      </trkpt>
      <trkpt lat="43.280783" lon="-4.308583">
        <ele>1070.0</ele>
        <time>2015-04-28T14:08:35Z</time>
      </trkpt>
      <trkpt lat="43.280833" lon="-4.308700">
        <ele>1071.0</ele>
        <time>2015-04-28T14:08:36Z</time>
      </trkpt>
      <trkpt lat="43.280900" lon="-4.308800">
        <ele>1071.0</ele>
        <time>2015-04-28T14:08:37Z</time>
      </trkpt>
      <trkpt lat="43.280950" lon="-4.308900">
        <ele>1072.0</ele>
        <time>2015-04-28T14:08:38Z</time>
      </trkpt>
      <trkpt lat="43.281017" lon="-4.308983">
        <ele>1074.0</ele>
        <time>2015-04-28T14:08:39Z</time>
      </trkpt>
      <trkpt lat="43.281083" lon="-4.309050">
        <ele>1074.0</ele>
        <time>2015-04-28T14:08:40Z</time>
      </trkpt>
      <trkpt lat="43.281150" lon="-4.309117">
        <ele>1075.0</ele>
        <time>2015-04-28T14:08:41Z</time>
      </trkpt>
      <trkpt lat="43.281217" lon="-4.309200">
        <ele>1077.0</ele>
        <time>2015-04-28T14:08:42Z</time>
      </trkpt>
      <trkpt lat="43.281267" lon="-4.309283">
        <ele>1079.0</ele>
        <time>2015-04-28T14:08:43Z</time>
      </trkpt>
      <trkpt lat="43.281333" lon="-4.309367">
        <ele>1081.0</ele>
        <time>2015-04-28T14:08:44Z</time>
      </trkpt>
      <trkpt lat="43.281400" lon="-4.309417">
        <ele>1082.0</ele>
        <time>2015-04-28T14:08:45Z</time>
      </trkpt>
      <trkpt lat="43.281467" lon="-4.309483">
        <ele>1084.0</ele>
        <time>2015-04-28T14:08:46Z</time>
      </trkpt>
      <trkpt lat="43.281517" lon="-4.309567">
        <ele>1086.0</ele>
        <time>2015-04-28T14:08:47Z</time>
      </trkpt>
      <trkpt lat="43.281567" lon="-4.309650">
        <ele>1088.0</ele>
        <time>2015-04-28T14:08:48Z</time>
      </trkpt>
      <trkpt lat="43.281617" lon="-4.309767">
        <ele>1090.0</ele>
        <time>2015-04-28T14:08:49Z</time>
      </trkpt>
      <trkpt lat="43.281633" lon="-4.309867">
        <ele>1091.0</ele>
        <time>2015-04-28T14:08:50Z</time>
      </trkpt>
      <trkpt lat="43.281633" lon="-4.309983">
        <ele>1093.0</ele>
        <time>2015-04-28T14:08:51Z</time>
      </trkpt>
      <trkpt lat="43.281600" lon="-4.310083">
        <ele>1094.0</ele>
        <time>2015-04-28T14:08:52Z</time>
      </trkpt>
      <trkpt lat="43.281567" lon="-4.310167">
        <ele>1095.0</ele>
        <time>2015-04-28T14:08:53Z</time>
      </trkpt>
      <trkpt lat="43.281500" lon="-4.310200">
        <ele>1096.0</ele>
        <time>2015-04-28T14:08:54Z</time>
      </trkpt>
      <trkpt lat="43.281433" lon="-4.310200">
        <ele>1097.0</ele>
        <time>2015-04-28T14:08:55Z</time>
      </trkpt>
      <trkpt lat="43.281400" lon="-4.310133">
        <ele>1098.0</ele>
        <time>2015-04-28T14:08:56Z</time>
      </trkpt>
      <trkpt lat="43.281383" lon="-4.310083">
        <ele>1100.0</ele>
        <time>2015-04-28T14:08:57Z</time>
      </trkpt>
      <trkpt lat="43.281383" lon="-4.310017">
        <ele>1102.0</ele>
        <time>2015-04-28T14:08:58Z</time>
      </trkpt>
      <trkpt lat="43.281383" lon="-4.309967">
        <ele>1105.0</ele>
        <time>2015-04-28T14:08:59Z</time>
      </trkpt>
      <trkpt lat="43.281400" lon="-4.309900">
        <ele>1107.0</ele>
        <time>2015-04-28T14:09:00Z</time>
      </trkpt>
      <trkpt lat="43.281417" lon="-4.309850">
        <ele>1108.0</ele>
        <time>2015-04-28T14:09:01Z</time>
      </trkpt>
      <trkpt lat="43.281433" lon="-4.309783">
        <ele>1109.0</ele>
        <time>2015-04-28T14:09:02Z</time>
      </trkpt>
      <trkpt lat="43.281467" lon="-4.309717">
        <ele>1110.0</ele>
        <time>2015-04-28T14:09:03Z</time>
      </trkpt>
      <trkpt lat="43.281517" lon="-4.309650">
        <ele>1111.0</ele>
        <time>2015-04-28T14:09:04Z</time>
      </trkpt>
      <trkpt lat="43.281567" lon="-4.309567">
        <ele>1113.0</ele>
        <time>2015-04-28T14:09:05Z</time>
      </trkpt>
      <trkpt lat="43.281633" lon="-4.309483">
        <ele>1112.0</ele>
        <time>2015-04-28T14:09:06Z</time>
      </trkpt>
      <trkpt lat="43.281667" lon="-4.309417">
        <ele>1113.0</ele>
        <time>2015-04-28T14:09:07Z</time>
      </trkpt>
      <trkpt lat="43.281700" lon="-4.309367">
        <ele>1115.0</ele>
        <time>2015-04-28T14:09:08Z</time>
      </trkpt>
      <trkpt lat="43.281733" lon="-4.309317">
        <ele>1114.0</ele>
        <time>2015-04-28T14:09:09Z</time>
      </trkpt>
      <trkpt lat="43.281783" lon="-4.309267">
        <ele>1115.0</ele>
        <time>2015-04-28T14:09:10Z</time>
      </trkpt>
      <trkpt lat="43.281833" lon="-4.309233">
        <ele>1115.0</ele>
        <time>2015-04-28T14:09:11Z</time>
      </trkpt>
      <trkpt lat="43.281883" lon="-4.309200">
        <ele>1118.0</ele>
        <time>2015-04-28T14:09:12Z</time>
      </trkpt>
      <trkpt lat="43.281933" lon="-4.309167">
        <ele>1119.0</ele>
        <time>2015-04-28T14:09:13Z</time>
      </trkpt>
      <trkpt lat="43.281983" lon="-4.309150">
        <ele>1120.0</ele>
        <time>2015-04-28T14:09:14Z</time>
      </trkpt>
      <trkpt lat="43.282033" lon="-4.309117">
        <ele>1121.0</ele>
        <time>2015-04-28T14:09:15Z</time>
      </trkpt>
      <trkpt lat="43.282100" lon="-4.309100">
        <ele>1122.0</ele>
        <time>2015-04-28T14:09:16Z</time>
      </trkpt>
      <trkpt lat="43.282150" lon="-4.309067">
        <ele>1123.0</ele>
        <time>2015-04-28T14:09:17Z</time>
      </trkpt>
      <trkpt lat="43.282200" lon="-4.309050">
        <ele>1125.0</ele>
        <time>2015-04-28T14:09:18Z</time>
      </trkpt>
      <trkpt lat="43.282250" lon="-4.309050">
        <ele>1127.0</ele>
        <time>2015-04-28T14:09:19Z</time>
      </trkpt>
      <trkpt lat="43.282300" lon="-4.309067">
        <ele>1128.0</ele>
        <time>2015-04-28T14:09:20Z</time>
      </trkpt>
      <trkpt lat="43.282350" lon="-4.309083">
        <ele>1129.0</ele>
        <time>2015-04-28T14:09:21Z</time>
      </trkpt>
      <trkpt lat="43.282417" lon="-4.309117">
        <ele>1129.0</ele>
        <time>2015-04-28T14:09:22Z</time>
      </trkpt>
      <trkpt lat="43.282467" lon="-4.309183">
        <ele>1129.0</ele>
        <time>2015-04-28T14:09:23Z</time>
      </trkpt>
      <trkpt lat="43.282517" lon="-4.309250">
        <ele>1129.0</ele>
        <time>2015-04-28T14:09:24Z</time>
      </trkpt>
      <trkpt lat="43.282533" lon="-4.309350">
        <ele>1129.0</ele>
        <time>2015-04-28T14:09:25Z</time>
      </trkpt>
      <trkpt lat="43.282550" lon="-4.309467">
        <ele>1129.0</ele>
        <time>2015-04-28T14:09:26Z</time>
      </trkpt>
      <trkpt lat="43.282567" lon="-4.309583">
        <ele>1129.0</ele>
        <time>2015-04-28T14:09:27Z</time>
      </trkpt>
      <trkpt lat="43.282550" lon="-4.309683">
        <ele>1130.0</ele>
        <time>2015-04-28T14:09:28Z</time>
      </trkpt>
      <trkpt lat="43.282533" lon="-4.309783">
        <ele>1131.0</ele>
        <time>2015-04-28T14:09:29Z</time>
      </trkpt>
      <trkpt lat="43.282517" lon="-4.309883">
        <ele>1131.0</ele>
        <time>2015-04-28T14:09:30Z</time>
      </trkpt>
      <trkpt lat="43.282483" lon="-4.309967">
        <ele>1131.0</ele>
        <time>2015-04-28T14:09:31Z</time>
      </trkpt>
      <trkpt lat="43.282433" lon="-4.310067">
        <ele>1131.0</ele>
        <time>2015-04-28T14:09:32Z</time>
      </trkpt>
      <trkpt lat="43.282367" lon="-4.310133">
        <ele>1131.0</ele>
        <time>2015-04-28T14:09:33Z</time>
      </trkpt>
      <trkpt lat="43.282283" lon="-4.310183">
        <ele>1131.0</ele>
        <time>2015-04-28T14:09:34Z</time>
      </trkpt>
      <trkpt lat="43.282200" lon="-4.310200">
        <ele>1131.0</ele>
        <time>2015-04-28T14:09:35Z</time>
      </trkpt>
      <trkpt lat="43.282133" lon="-4.310183">
        <ele>1131.0</ele>
        <time>2015-04-28T14:09:36Z</time>
      </trkpt>
      <trkpt lat="43.282067" lon="-4.310133">
        <ele>1131.0</ele>
        <time>2015-04-28T14:09:37Z</time>
      </trkpt>
      <trkpt lat="43.282017" lon="-4.310050">
        <ele>1131.0</ele>
        <time>2015-04-28T14:09:38Z</time>
      </trkpt>
      <trkpt lat="43.281983" lon="-4.309950">
        <ele>1132.0</ele>
        <time>2015-04-28T14:09:39Z</time>
      </trkpt>
      <trkpt lat="43.281967" lon="-4.309867">
        <ele>1134.0</ele>
        <time>2015-04-28T14:09:40Z</time>
      </trkpt>
      <trkpt lat="43.281950" lon="-4.309767">
        <ele>1134.0</ele>
        <time>2015-04-28T14:09:41Z</time>
      </trkpt>
      <trkpt lat="43.281933" lon="-4.309683">
        <ele>1135.0</ele>
        <time>2015-04-28T14:09:42Z</time>
      </trkpt>
      <trkpt lat="43.281917" lon="-4.309583">
        <ele>1135.0</ele>
        <time>2015-04-28T14:09:43Z</time>
      </trkpt>
      <trkpt lat="43.281917" lon="-4.309483">
        <ele>1134.0</ele>
        <time>2015-04-28T14:09:44Z</time>
      </trkpt>
      <trkpt lat="43.281900" lon="-4.309383">
        <ele>1133.0</ele>
        <time>2015-04-28T14:09:45Z</time>
      </trkpt>
      <trkpt lat="43.281900" lon="-4.309283">
        <ele>1132.0</ele>
        <time>2015-04-28T14:09:46Z</time>
      </trkpt>
      <trkpt lat="43.281900" lon="-4.309200">
        <ele>1132.0</ele>
        <time>2015-04-28T14:09:47Z</time>
      </trkpt>
      <trkpt lat="43.281917" lon="-4.309117">
        <ele>1131.0</ele>
        <time>2015-04-28T14:09:48Z</time>
      </trkpt>
      <trkpt lat="43.281933" lon="-4.309033">
        <ele>1131.0</ele>
        <time>2015-04-28T14:09:49Z</time>
      </trkpt>
      <trkpt lat="43.281950" lon="-4.308967">
        <ele>1130.0</ele>
        <time>2015-04-28T14:09:50Z</time>
      </trkpt>
      <trkpt lat="43.281983" lon="-4.308867">
        <ele>1128.0</ele>
        <time>2015-04-28T14:09:51Z</time>
      </trkpt>
      <trkpt lat="43.282017" lon="-4.308783">
        <ele>1126.0</ele>
        <time>2015-04-28T14:09:52Z</time>
      </trkpt>
      <trkpt lat="43.282083" lon="-4.308700">
        <ele>1125.0</ele>
        <time>2015-04-28T14:09:53Z</time>
      </trkpt>
      <trkpt lat="43.282133" lon="-4.308633">
        <ele>1127.0</ele>
        <time>2015-04-28T14:09:54Z</time>
      </trkpt>
      <trkpt lat="43.282183" lon="-4.308583">
        <ele>1127.0</ele>
        <time>2015-04-28T14:09:55Z</time>
      </trkpt>
      <trkpt lat="43.282217" lon="-4.308550">
        <ele>1127.0</ele>
        <time>2015-04-28T14:09:56Z</time>
      </trkpt>
      <trkpt lat="43.282250" lon="-4.308517">
        <ele>1127.0</ele>
        <time>2015-04-28T14:09:57Z</time>
      </trkpt>
      <trkpt lat="43.282283" lon="-4.308467">
        <ele>1127.0</ele>
        <time>2015-04-28T14:09:58Z</time>
      </trkpt>
      <trkpt lat="43.282333" lon="-4.308417">
        <ele>1127.0</ele>
        <time>2015-04-28T14:09:59Z</time>
      </trkpt>
      <trkpt lat="43.282383" lon="-4.308367">
        <ele>1127.0</ele>
        <time>2015-04-28T14:10:00Z</time>
      </trkpt>
      <trkpt lat="43.282433" lon="-4.308300">
        <ele>1126.0</ele>
        <time>2015-04-28T14:10:01Z</time>
      </trkpt>
      <trkpt lat="43.282500" lon="-4.308233">
        <ele>1126.0</ele>
        <time>2015-04-28T14:10:02Z</time>
      </trkpt>
      <trkpt lat="43.282550" lon="-4.308167">
        <ele>1126.0</ele>
        <time>2015-04-28T14:10:03Z</time>
      </trkpt>
      <trkpt lat="43.282617" lon="-4.308117">
        <ele>1125.0</ele>
        <time>2015-04-28T14:10:04Z</time>
      </trkpt>
      <trkpt lat="43.282667" lon="-4.308067">
        <ele>1125.0</ele>
        <time>2015-04-28T14:10:05Z</time>
      </trkpt>
      <trkpt lat="43.282717" lon="-4.308017">
        <ele>1125.0</ele>
        <time>2015-04-28T14:10:06Z</time>
      </trkpt>
      <trkpt lat="43.282767" lon="-4.307933">
        <ele>1125.0</ele>
        <time>2015-04-28T14:10:07Z</time>
      </trkpt>
      <trkpt lat="43.282817" lon="-4.307867">
        <ele>1124.0</ele>
        <time>2015-04-28T14:10:08Z</time>
      </trkpt>
      <trkpt lat="43.282883" lon="-4.307817">
        <ele>1124.0</ele>
        <time>2015-04-28T14:10:09Z</time>
      </trkpt>
      <trkpt lat="43.282950" lon="-4.307767">
        <ele>1124.0</ele>
        <time>2015-04-28T14:10:10Z</time>
      </trkpt>
      <trkpt lat="43.282983" lon="-4.307700">
        <ele>1123.0</ele>
        <time>2015-04-28T14:10:11Z</time>
      </trkpt>
      <trkpt lat="43.283033" lon="-4.307650">
        <ele>1123.0</ele>
        <time>2015-04-28T14:10:12Z</time>
      </trkpt>
      <trkpt lat="43.283083" lon="-4.307567">
        <ele>1123.0</ele>
        <time>2015-04-28T14:10:13Z</time>
      </trkpt>
      <trkpt lat="43.283133" lon="-4.307500">
        <ele>1122.0</ele>
        <time>2015-04-28T14:10:14Z</time>
      </trkpt>
      <trkpt lat="43.283200" lon="-4.307450">
        <ele>1122.0</ele>
        <time>2015-04-28T14:10:15Z</time>
      </trkpt>
      <trkpt lat="43.283267" lon="-4.307383">
        <ele>1122.0</ele>
        <time>2015-04-28T14:10:16Z</time>
      </trkpt>
      <trkpt lat="43.283333" lon="-4.307333">
        <ele>1121.0</ele>
        <time>2015-04-28T14:10:17Z</time>
      </trkpt>
      <trkpt lat="43.283400" lon="-4.307267">
        <ele>1121.0</ele>
        <time>2015-04-28T14:10:18Z</time>
      </trkpt>
      <trkpt lat="43.283450" lon="-4.307200">
        <ele>1120.0</ele>
        <time>2015-04-28T14:10:19Z</time>
      </trkpt>
      <trkpt lat="43.283533" lon="-4.307150">
        <ele>1120.0</ele>
        <time>2015-04-28T14:10:20Z</time>
      </trkpt>
      <trkpt lat="43.283600" lon="-4.307100">
        <ele>1119.0</ele>
        <time>2015-04-28T14:10:21Z</time>
      </trkpt>
      <trkpt lat="43.283667" lon="-4.307050">
        <ele>1119.0</ele>
        <time>2015-04-28T14:10:22Z</time>
      </trkpt>
      <trkpt lat="43.283733" lon="-4.306983">
        <ele>1118.0</ele>
        <time>2015-04-28T14:10:23Z</time>
      </trkpt>
      <trkpt lat="43.283783" lon="-4.306933">
        <ele>1118.0</ele>
        <time>2015-04-28T14:10:24Z</time>
      </trkpt>
      <trkpt lat="43.283850" lon="-4.306883">
        <ele>1117.0</ele>
        <time>2015-04-28T14:10:25Z</time>
      </trkpt>
      <trkpt lat="43.283917" lon="-4.306833">
        <ele>1117.0</ele>
        <time>2015-04-28T14:10:26Z</time>
      </trkpt>
      <trkpt lat="43.283967" lon="-4.306783">
        <ele>1117.0</ele>
        <time>2015-04-28T14:10:27Z</time>
      </trkpt>
      <trkpt lat="43.284017" lon="-4.306750">
        <ele>1116.0</ele>
        <time>2015-04-28T14:10:28Z</time>
      </trkpt>
      <trkpt lat="43.284067" lon="-4.306717">
        <ele>1116.0</ele>
        <time>2015-04-28T14:10:29Z</time>
      </trkpt>
      <trkpt lat="43.284100" lon="-4.306667">
        <ele>1116.0</ele>
        <time>2015-04-28T14:10:30Z</time>
      </trkpt>
      <trkpt lat="43.284167" lon="-4.306617">
        <ele>1115.0</ele>
        <time>2015-04-28T14:10:31Z</time>
      </trkpt>
      <trkpt lat="43.284217" lon="-4.306550">
        <ele>1115.0</ele>
        <time>2015-04-28T14:10:32Z</time>
      </trkpt>
      <trkpt lat="43.284283" lon="-4.306483">
        <ele>1114.0</ele>
        <time>2015-04-28T14:10:33Z</time>
      </trkpt>
      <trkpt lat="43.284333" lon="-4.306417">
        <ele>1113.0</ele>
        <time>2015-04-28T14:10:34Z</time>
      </trkpt>
      <trkpt lat="43.284383" lon="-4.306350">
        <ele>1113.0</ele>
        <time>2015-04-28T14:10:35Z</time>
      </trkpt>
      <trkpt lat="43.284450" lon="-4.306300">
        <ele>1113.0</ele>
        <time>2015-04-28T14:10:36Z</time>
      </trkpt>
      <trkpt lat="43.284500" lon="-4.306250">
        <ele>1112.0</ele>
        <time>2015-04-28T14:10:37Z</time>
      </trkpt>
      <trkpt lat="43.284550" lon="-4.306183">
        <ele>1111.0</ele>
        <time>2015-04-28T14:10:38Z</time>
      </trkpt>
      <trkpt lat="43.284583" lon="-4.306117">
        <ele>1109.0</ele>
        <time>2015-04-28T14:10:39Z</time>
      </trkpt>
      <trkpt lat="43.284633" lon="-4.306050">
        <ele>1107.0</ele>
        <time>2015-04-28T14:10:40Z</time>
      </trkpt>
      <trkpt lat="43.284683" lon="-4.305983">
        <ele>1108.0</ele>
        <time>2015-04-28T14:10:41Z</time>
      </trkpt>
      <trkpt lat="43.284733" lon="-4.305917">
        <ele>1108.0</ele>
        <time>2015-04-28T14:10:42Z</time>
      </trkpt>
      <trkpt lat="43.284783" lon="-4.305867">
        <ele>1107.0</ele>
        <time>2015-04-28T14:10:43Z</time>
      </trkpt>
      <trkpt lat="43.284817" lon="-4.305783">
        <ele>1107.0</ele>
        <time>2015-04-28T14:10:44Z</time>
      </trkpt>
      <trkpt lat="43.284850" lon="-4.305700">
        <ele>1107.0</ele>
        <time>2015-04-28T14:10:45Z</time>
      </trkpt>
      <trkpt lat="43.284883" lon="-4.305617">
        <ele>1106.0</ele>
        <time>2015-04-28T14:10:46Z</time>
      </trkpt>
      <trkpt lat="43.284933" lon="-4.305550">
        <ele>1105.0</ele>
        <time>2015-04-28T14:10:47Z</time>
      </trkpt>
      <trkpt lat="43.284983" lon="-4.305500">
        <ele>1105.0</ele>
        <time>2015-04-28T14:10:48Z</time>
      </trkpt>
      <trkpt lat="43.285033" lon="-4.305467">
        <ele>1104.0</ele>
        <time>2015-04-28T14:10:49Z</time>
      </trkpt>
      <trkpt lat="43.285067" lon="-4.305417">
        <ele>1104.0</ele>
        <time>2015-04-28T14:10:50Z</time>
      </trkpt>
      <trkpt lat="43.285117" lon="-4.305367">
        <ele>1104.0</ele>
        <time>2015-04-28T14:10:51Z</time>
      </trkpt>
      <trkpt lat="43.285167" lon="-4.305317">
        <ele>1103.0</ele>
        <time>2015-04-28T14:10:52Z</time>
      </trkpt>
      <trkpt lat="43.285233" lon="-4.305250">
        <ele>1103.0</ele>
        <time>2015-04-28T14:10:53Z</time>
      </trkpt>
      <trkpt lat="43.285283" lon="-4.305183">
        <ele>1103.0</ele>
        <time>2015-04-28T14:10:54Z</time>
      </trkpt>
      <trkpt lat="43.285333" lon="-4.305133">
        <ele>1102.0</ele>
        <time>2015-04-28T14:10:55Z</time>
      </trkpt>
      <trkpt lat="43.285383" lon="-4.305067">
        <ele>1102.0</ele>
        <time>2015-04-28T14:10:56Z</time>
      </trkpt>
      <trkpt lat="43.285417" lon="-4.305033">
        <ele>1101.0</ele>
        <time>2015-04-28T14:10:57Z</time>
      </trkpt>
      <trkpt lat="43.285467" lon="-4.304967">
        <ele>1101.0</ele>
        <time>2015-04-28T14:10:58Z</time>
      </trkpt>
      <trkpt lat="43.285533" lon="-4.304900">
        <ele>1100.0</ele>
        <time>2015-04-28T14:10:59Z</time>
      </trkpt>
      <trkpt lat="43.285583" lon="-4.304850">
        <ele>1099.0</ele>
        <time>2015-04-28T14:11:00Z</time>
      </trkpt>
      <trkpt lat="43.285650" lon="-4.304800">
        <ele>1099.0</ele>
        <time>2015-04-28T14:11:01Z</time>
      </trkpt>
      <trkpt lat="43.285700" lon="-4.304767">
        <ele>1098.0</ele>
        <time>2015-04-28T14:11:02Z</time>
      </trkpt>
      <trkpt lat="43.285767" lon="-4.304750">
        <ele>1098.0</ele>
        <time>2015-04-28T14:11:03Z</time>
      </trkpt>
      <trkpt lat="43.285817" lon="-4.304717">
        <ele>1098.0</ele>
        <time>2015-04-28T14:11:04Z</time>
      </trkpt>
      <trkpt lat="43.285867" lon="-4.304667">
        <ele>1097.0</ele>
        <time>2015-04-28T14:11:05Z</time>
      </trkpt>
      <trkpt lat="43.285917" lon="-4.304617">
        <ele>1097.0</ele>
        <time>2015-04-28T14:11:06Z</time>
      </trkpt>
      <trkpt lat="43.285967" lon="-4.304583">
        <ele>1096.0</ele>
        <time>2015-04-28T14:11:07Z</time>
      </trkpt>
      <trkpt lat="43.286017" lon="-4.304533">
        <ele>1096.0</ele>
        <time>2015-04-28T14:11:08Z</time>
      </trkpt>
      <trkpt lat="43.286067" lon="-4.304483">
        <ele>1096.0</ele>
        <time>2015-04-28T14:11:09Z</time>
      </trkpt>
      <trkpt lat="43.286133" lon="-4.304433">
        <ele>1095.0</ele>
        <time>2015-04-28T14:11:10Z</time>
      </trkpt>
      <trkpt lat="43.286183" lon="-4.304367">
        <ele>1095.0</ele>
        <time>2015-04-28T14:11:11Z</time>
      </trkpt>
      <trkpt lat="43.286217" lon="-4.304317">
        <ele>1095.0</ele>
        <time>2015-04-28T14:11:12Z</time>
      </trkpt>
      <trkpt lat="43.286267" lon="-4.304267">
        <ele>1095.0</ele>
        <time>2015-04-28T14:11:13Z</time>
      </trkpt>
      <trkpt lat="43.286317" lon="-4.304217">
        <ele>1094.0</ele>
        <time>2015-04-28T14:11:14Z</time>
      </trkpt>
      <trkpt lat="43.286367" lon="-4.304167">
        <ele>1094.0</ele>
        <time>2015-04-28T14:11:15Z</time>
      </trkpt>
      <trkpt lat="43.286417" lon="-4.304117">
        <ele>1094.0</ele>
        <time>2015-04-28T14:11:16Z</time>
      </trkpt>
      <trkpt lat="43.286467" lon="-4.304050">
        <ele>1093.0</ele>
        <time>2015-04-28T14:11:17Z</time>
      </trkpt>
      <trkpt lat="43.286517" lon="-4.304000">
        <ele>1093.0</ele>
        <time>2015-04-28T14:11:18Z</time>
      </trkpt>
      <trkpt lat="43.286567" lon="-4.303967">
        <ele>1093.0</ele>
        <time>2015-04-28T14:11:19Z</time>
      </trkpt>
      <trkpt lat="43.286617" lon="-4.303917">
        <ele>1093.0</ele>
        <time>2015-04-28T14:11:20Z</time>
      </trkpt>
      <trkpt lat="43.286650" lon="-4.303900">
        <ele>1093.0</ele>
        <time>2015-04-28T14:11:21Z</time>
      </trkpt>
      <trkpt lat="43.286683" lon="-4.303867">
        <ele>1093.0</ele>
        <time>2015-04-28T14:11:22Z</time>
      </trkpt>
      <trkpt lat="43.286700" lon="-4.303850">
        <ele>1092.0</ele>
        <time>2015-04-28T14:11:23Z</time>
      </trkpt>
      <trkpt lat="43.286717" lon="-4.303833">
        <ele>1092.0</ele>
        <time>2015-04-28T14:11:24Z</time>
      </trkpt>
      <trkpt lat="43.286750" lon="-4.303817">
        <ele>1092.0</ele>
        <time>2015-04-28T14:11:25Z</time>
      </trkpt>
      <trkpt lat="43.286783" lon="-4.303800">
        <ele>1092.0</ele>
        <time>2015-04-28T14:11:26Z</time>
      </trkpt>
      <trkpt lat="43.286817" lon="-4.303767">
        <ele>1091.0</ele>
        <time>2015-04-28T14:11:27Z</time>
      </trkpt>
      <trkpt lat="43.286850" lon="-4.303750">
        <ele>1091.0</ele>
        <time>2015-04-28T14:11:28Z</time>
      </trkpt>
      <trkpt lat="43.286883" lon="-4.303717">
        <ele>1091.0</ele>
        <time>2015-04-28T14:11:29Z</time>
      </trkpt>
      <trkpt lat="43.286933" lon="-4.303683">
        <ele>1091.0</ele>
        <time>2015-04-28T14:11:30Z</time>
      </trkpt>
      <trkpt lat="43.286967" lon="-4.303650">
        <ele>1091.0</ele>
        <time>2015-04-28T14:11:31Z</time>
      </trkpt>
      <trkpt lat="43.287017" lon="-4.303600">
        <ele>1091.0</ele>
        <time>2015-04-28T14:11:32Z</time>
      </trkpt>
      <trkpt lat="43.287050" lon="-4.303550">
        <ele>1090.0</ele>
        <time>2015-04-28T14:11:33Z</time>
      </trkpt>
      <trkpt lat="43.287117" lon="-4.303517">
        <ele>1090.0</ele>
        <time>2015-04-28T14:11:34Z</time>
      </trkpt>
      <trkpt lat="43.287167" lon="-4.303483">
        <ele>1090.0</ele>
        <time>2015-04-28T14:11:35Z</time>
      </trkpt>
      <trkpt lat="43.287217" lon="-4.303450">
        <ele>1090.0</ele>
        <time>2015-04-28T14:11:36Z</time>
      </trkpt>
      <trkpt lat="43.287250" lon="-4.303417">
        <ele>1089.0</ele>
        <time>2015-04-28T14:11:37Z</time>
      </trkpt>
      <trkpt lat="43.287283" lon="-4.303400">
        <ele>1089.0</ele>
        <time>2015-04-28T14:11:38Z</time>
      </trkpt>
      <trkpt lat="43.287317" lon="-4.303383">
        <ele>1089.0</ele>
        <time>2015-04-28T14:11:39Z</time>
      </trkpt>
      <trkpt lat="43.287350" lon="-4.303367">
        <ele>1089.0</ele>
        <time>2015-04-28T14:11:40Z</time>
      </trkpt>
      <trkpt lat="43.287367" lon="-4.303333">
        <ele>1089.0</ele>
        <time>2015-04-28T14:11:41Z</time>
      </trkpt>
      <trkpt lat="43.287383" lon="-4.303300">
        <ele>1089.0</ele>
        <time>2015-04-28T14:11:42Z</time>
      </trkpt>
      <trkpt lat="43.287400" lon="-4.303267">
        <ele>1089.0</ele>
        <time>2015-04-28T14:11:43Z</time>
      </trkpt>
      <trkpt lat="43.287433" lon="-4.303233">
        <ele>1088.0</ele>
        <time>2015-04-28T14:11:44Z</time>
      </trkpt>
      <trkpt lat="43.287483" lon="-4.303183">
        <ele>1088.0</ele>
        <time>2015-04-28T14:11:45Z</time>
      </trkpt>
      <trkpt lat="43.287533" lon="-4.303133">
        <ele>1088.0</ele>
        <time>2015-04-28T14:11:46Z</time>
      </trkpt>
      <trkpt lat="43.287567" lon="-4.303050">
        <ele>1087.0</ele>
        <time>2015-04-28T14:11:47Z</time>
      </trkpt>
      <trkpt lat="43.287600" lon="-4.302967">
        <ele>1087.0</ele>
        <time>2015-04-28T14:11:48Z</time>
      </trkpt>
      <trkpt lat="43.287633" lon="-4.302883">
        <ele>1087.0</ele>
        <time>2015-04-28T14:11:49Z</time>
      </trkpt>
      <trkpt lat="43.287650" lon="-4.302833">
        <ele>1087.0</ele>
        <time>2015-04-28T14:11:50Z</time>
      </trkpt>
      <trkpt lat="43.287683" lon="-4.302783">
        <ele>1087.0</ele>
        <time>2015-04-28T14:11:51Z</time>
      </trkpt>
      <trkpt lat="43.287683" lon="-4.302767">
        <ele>1087.0</ele>
        <time>2015-04-28T14:11:52Z</time>
      </trkpt>
      <trkpt lat="43.287683" lon="-4.302733">
        <ele>1088.0</ele>
        <time>2015-04-28T14:11:53Z</time>
      </trkpt>
      <trkpt lat="43.287700" lon="-4.302717">
        <ele>1088.0</ele>
        <time>2015-04-28T14:11:54Z</time>
      </trkpt>
      <trkpt lat="43.287733" lon="-4.302683">
        <ele>1088.0</ele>
        <time>2015-04-28T14:11:55Z</time>
      </trkpt>
      <trkpt lat="43.287767" lon="-4.302650">
        <ele>1089.0</ele>
        <time>2015-04-28T14:11:56Z</time>
      </trkpt>
      <trkpt lat="43.287817" lon="-4.302633">
        <ele>1090.0</ele>
        <time>2015-04-28T14:11:57Z</time>
      </trkpt>
      <trkpt lat="43.287883" lon="-4.302683">
        <ele>1092.0</ele>
        <time>2015-04-28T14:11:58Z</time>
      </trkpt>
      <trkpt lat="43.287933" lon="-4.302783">
        <ele>1092.0</ele>
        <time>2015-04-28T14:11:59Z</time>
      </trkpt>
      <trkpt lat="43.287967" lon="-4.302933">
        <ele>1093.0</ele>
        <time>2015-04-28T14:12:00Z</time>
      </trkpt>
      <trkpt lat="43.287983" lon="-4.303100">
        <ele>1093.0</ele>
        <time>2015-04-28T14:12:01Z</time>
      </trkpt>
      <trkpt lat="43.287950" lon="-4.303250">
        <ele>1095.0</ele>
        <time>2015-04-28T14:12:02Z</time>
      </trkpt>
      <trkpt lat="43.287900" lon="-4.303383">
        <ele>1096.0</ele>
        <time>2015-04-28T14:12:03Z</time>
      </trkpt>
      <trkpt lat="43.287833" lon="-4.303467">
        <ele>1098.0</ele>
        <time>2015-04-28T14:12:04Z</time>
      </trkpt>
      <trkpt lat="43.287750" lon="-4.303533">
        <ele>1099.0</ele>
        <time>2015-04-28T14:12:05Z</time>
      </trkpt>
      <trkpt lat="43.287683" lon="-4.303583">
        <ele>1101.0</ele>
        <time>2015-04-28T14:12:06Z</time>
      </trkpt>
      <trkpt lat="43.287600" lon="-4.303600">
        <ele>1103.0</ele>
        <time>2015-04-28T14:12:07Z</time>
      </trkpt>
      <trkpt lat="43.287533" lon="-4.303617">
        <ele>1104.0</ele>
        <time>2015-04-28T14:12:08Z</time>
      </trkpt>
      <trkpt lat="43.287483" lon="-4.303583">
        <ele>1105.0</ele>
        <time>2015-04-28T14:12:09Z</time>
      </trkpt>
      <trkpt lat="43.287433" lon="-4.303533">
        <ele>1106.0</ele>
        <time>2015-04-28T14:12:10Z</time>
      </trkpt>
      <trkpt lat="43.287400" lon="-4.303483">
        <ele>1107.0</ele>
        <time>2015-04-28T14:12:11Z</time>
      </trkpt>
      <trkpt lat="43.287367" lon="-4.303417">
        <ele>1109.0</ele>
        <time>2015-04-28T14:12:12Z</time>
      </trkpt>
      <trkpt lat="43.287367" lon="-4.303367">
        <ele>1111.0</ele>
        <time>2015-04-28T14:12:13Z</time>
      </trkpt>
      <trkpt lat="43.287350" lon="-4.303317">
        <ele>1113.0</ele>
        <time>2015-04-28T14:12:14Z</time>
      </trkpt>
      <trkpt lat="43.287350" lon="-4.303250">
        <ele>1113.0</ele>
        <time>2015-04-28T14:12:15Z</time>
      </trkpt>
      <trkpt lat="43.287367" lon="-4.303200">
        <ele>1114.0</ele>
        <time>2015-04-28T14:12:16Z</time>
      </trkpt>
      <trkpt lat="43.287383" lon="-4.303133">
        <ele>1116.0</ele>
        <time>2015-04-28T14:12:17Z</time>
      </trkpt>
      <trkpt lat="43.287417" lon="-4.303083">
        <ele>1118.0</ele>
        <time>2015-04-28T14:12:18Z</time>
      </trkpt>
      <trkpt lat="43.287450" lon="-4.303067">
        <ele>1120.0</ele>
        <time>2015-04-28T14:12:19Z</time>
      </trkpt>
      <trkpt lat="43.287467" lon="-4.303050">
        <ele>1122.0</ele>
        <time>2015-04-28T14:12:20Z</time>
      </trkpt>
      <trkpt lat="43.287467" lon="-4.303017">
        <ele>1123.0</ele>
        <time>2015-04-28T14:12:21Z</time>
      </trkpt>
      <trkpt lat="43.287483" lon="-4.303000">
        <ele>1121.0</ele>
        <time>2015-04-28T14:12:22Z</time>
      </trkpt>
      <trkpt lat="43.287517" lon="-4.302983">
        <ele>1122.0</ele>
        <time>2015-04-28T14:12:23Z</time>
      </trkpt>
      <trkpt lat="43.287550" lon="-4.302967">
        <ele>1122.0</ele>
        <time>2015-04-28T14:12:24Z</time>
      </trkpt>
      <trkpt lat="43.287600" lon="-4.302950">
        <ele>1123.0</ele>
        <time>2015-04-28T14:12:25Z</time>
      </trkpt>
      <trkpt lat="43.287633" lon="-4.302950">
        <ele>1125.0</ele>
        <time>2015-04-28T14:12:26Z</time>
      </trkpt>
      <trkpt lat="43.287667" lon="-4.302950">
        <ele>1126.0</ele>
        <time>2015-04-28T14:12:27Z</time>
      </trkpt>
      <trkpt lat="43.287700" lon="-4.302933">
        <ele>1125.0</ele>
        <time>2015-04-28T14:12:28Z</time>
      </trkpt>
      <trkpt lat="43.287750" lon="-4.302933">
        <ele>1125.0</ele>
        <time>2015-04-28T14:12:29Z</time>
      </trkpt>
      <trkpt lat="43.287800" lon="-4.302933">
        <ele>1125.0</ele>
        <time>2015-04-28T14:12:30Z</time>
      </trkpt>
      <trkpt lat="43.287850" lon="-4.302950">
        <ele>1125.0</ele>
        <time>2015-04-28T14:12:31Z</time>
      </trkpt>
      <trkpt lat="43.287900" lon="-4.302950">
        <ele>1126.0</ele>
        <time>2015-04-28T14:12:32Z</time>
      </trkpt>
      <trkpt lat="43.287967" lon="-4.302967">
        <ele>1127.0</ele>
        <time>2015-04-28T14:12:33Z</time>
      </trkpt>
      <trkpt lat="43.288017" lon="-4.302983">
        <ele>1127.0</ele>
        <time>2015-04-28T14:12:34Z</time>
      </trkpt>
      <trkpt lat="43.288083" lon="-4.303017">
        <ele>1128.0</ele>
        <time>2015-04-28T14:12:35Z</time>
      </trkpt>
      <trkpt lat="43.288150" lon="-4.303083">
        <ele>1128.0</ele>
        <time>2015-04-28T14:12:36Z</time>
      </trkpt>
      <trkpt lat="43.288233" lon="-4.303150">
        <ele>1128.0</ele>
        <time>2015-04-28T14:12:37Z</time>
      </trkpt>
      <trkpt lat="43.288300" lon="-4.303267">
        <ele>1128.0</ele>
        <time>2015-04-28T14:12:38Z</time>
      </trkpt>
      <trkpt lat="43.288350" lon="-4.303383">
        <ele>1129.0</ele>
        <time>2015-04-28T14:12:39Z</time>
      </trkpt>
      <trkpt lat="43.288367" lon="-4.303533">
        <ele>1129.0</ele>
        <time>2015-04-28T14:12:40Z</time>
      </trkpt>
      <trkpt lat="43.288367" lon="-4.303683">
        <ele>1129.0</ele>
        <time>2015-04-28T14:12:41Z</time>
      </trkpt>
      <trkpt lat="43.288350" lon="-4.303833">
        <ele>1130.0</ele>
        <time>2015-04-28T14:12:42Z</time>
      </trkpt>
      <trkpt lat="43.288317" lon="-4.303983">
        <ele>1130.0</ele>
        <time>2015-04-28T14:12:43Z</time>
      </trkpt>
      <trkpt lat="43.288267" lon="-4.304100">
        <ele>1130.0</ele>
        <time>2015-04-28T14:12:44Z</time>
      </trkpt>
      <trkpt lat="43.288200" lon="-4.304217">
        <ele>1130.0</ele>
        <time>2015-04-28T14:12:45Z</time>
      </trkpt>
      <trkpt lat="43.288117" lon="-4.304283">
        <ele>1130.0</ele>
        <time>2015-04-28T14:12:46Z</time>
      </trkpt>
      <trkpt lat="43.288033" lon="-4.304317">
        <ele>1130.0</ele>
        <time>2015-04-28T14:12:47Z</time>
      </trkpt>
      <trkpt lat="43.287950" lon="-4.304317">
        <ele>1130.0</ele>
        <time>2015-04-28T14:12:48Z</time>
      </trkpt>
      <trkpt lat="43.287883" lon="-4.304300">
        <ele>1132.0</ele>
        <time>2015-04-28T14:12:49Z</time>
      </trkpt>
      <trkpt lat="43.287833" lon="-4.304283">
        <ele>1133.0</ele>
        <time>2015-04-28T14:12:50Z</time>
      </trkpt>
      <trkpt lat="43.287800" lon="-4.304233">
        <ele>1134.0</ele>
        <time>2015-04-28T14:12:51Z</time>
      </trkpt>
      <trkpt lat="43.287767" lon="-4.304183">
        <ele>1135.0</ele>
        <time>2015-04-28T14:12:52Z</time>
      </trkpt>
      <trkpt lat="43.287750" lon="-4.304133">
        <ele>1137.0</ele>
        <time>2015-04-28T14:12:53Z</time>
      </trkpt>
      <trkpt lat="43.287733" lon="-4.304083">
        <ele>1136.0</ele>
        <time>2015-04-28T14:12:54Z</time>
      </trkpt>
      <trkpt lat="43.287717" lon="-4.304033">
        <ele>1136.0</ele>
        <time>2015-04-28T14:12:55Z</time>
      </trkpt>
      <trkpt lat="43.287683" lon="-4.303967">
        <ele>1137.0</ele>
        <time>2015-04-28T14:12:56Z</time>
      </trkpt>
      <trkpt lat="43.287667" lon="-4.303883">
        <ele>1137.0</ele>
        <time>2015-04-28T14:12:57Z</time>
      </trkpt>
      <trkpt lat="43.287650" lon="-4.303817">
        <ele>1138.0</ele>
        <time>2015-04-28T14:12:58Z</time>
      </trkpt>
      <trkpt lat="43.287633" lon="-4.303750">
        <ele>1138.0</ele>
        <time>2015-04-28T14:12:59Z</time>
      </trkpt>
      <trkpt lat="43.287633" lon="-4.303700">
        <ele>1138.0</ele>
        <time>2015-04-28T14:13:00Z</time>
      </trkpt>
      <trkpt lat="43.287617" lon="-4.303617">
        <ele>1137.0</ele>
        <time>2015-04-28T14:13:01Z</time>
      </trkpt>
      <trkpt lat="43.287600" lon="-4.303550">
        <ele>1136.0</ele>
        <time>2015-04-28T14:13:02Z</time>
      </trkpt>
      <trkpt lat="43.287583" lon="-4.303467">
        <ele>1137.0</ele>
        <time>2015-04-28T14:13:03Z</time>
      </trkpt>
      <trkpt lat="43.287567" lon="-4.303417">
        <ele>1137.0</ele>
        <time>2015-04-28T14:13:04Z</time>
      </trkpt>
      <trkpt lat="43.287550" lon="-4.303350">
        <ele>1137.0</ele>
        <time>2015-04-28T14:13:05Z</time>
      </trkpt>
      <trkpt lat="43.287533" lon="-4.303300">
        <ele>1137.0</ele>
        <time>2015-04-28T14:13:06Z</time>
      </trkpt>
      <trkpt lat="43.287517" lon="-4.303250">
        <ele>1137.0</ele>
        <time>2015-04-28T14:13:07Z</time>
      </trkpt>
      <trkpt lat="43.287500" lon="-4.303183">
        <ele>1137.0</ele>
        <time>2015-04-28T14:13:08Z</time>
      </trkpt>
      <trkpt lat="43.287467" lon="-4.303100">
        <ele>1137.0</ele>
        <time>2015-04-28T14:13:09Z</time>
      </trkpt>
      <trkpt lat="43.287450" lon="-4.303017">
        <ele>1136.0</ele>
        <time>2015-04-28T14:13:10Z</time>
      </trkpt>
      <trkpt lat="43.287417" lon="-4.302917">
        <ele>1136.0</ele>
        <time>2015-04-28T14:13:11Z</time>
      </trkpt>
      <trkpt lat="43.287383" lon="-4.302833">
        <ele>1135.0</ele>
        <time>2015-04-28T14:13:12Z</time>
      </trkpt>
      <trkpt lat="43.287367" lon="-4.302733">
        <ele>1135.0</ele>
        <time>2015-04-28T14:13:13Z</time>
      </trkpt>
      <trkpt lat="43.287350" lon="-4.302650">
        <ele>1135.0</ele>
        <time>2015-04-28T14:13:14Z</time>
      </trkpt>
      <trkpt lat="43.287333" lon="-4.302567">
        <ele>1135.0</ele>
        <time>2015-04-28T14:13:15Z</time>
      </trkpt>
      <trkpt lat="43.287317" lon="-4.302467">
        <ele>1134.0</ele>
        <time>2015-04-28T14:13:16Z</time>
      </trkpt>
      <trkpt lat="43.287317" lon="-4.302367">
        <ele>1134.0</ele>
        <time>2015-04-28T14:13:17Z</time>
      </trkpt>
      <trkpt lat="43.287317" lon="-4.302267">
        <ele>1134.0</ele>
        <time>2015-04-28T14:13:18Z</time>
      </trkpt>
      <trkpt lat="43.287317" lon="-4.302183">
        <ele>1134.0</ele>
        <time>2015-04-28T14:13:19Z</time>
      </trkpt>
      <trkpt lat="43.287317" lon="-4.302100">
        <ele>1134.0</ele>
        <time>2015-04-28T14:13:20Z</time>
      </trkpt>
      <trkpt lat="43.287333" lon="-4.302000">
        <ele>1134.0</ele>
        <time>2015-04-28T14:13:21Z</time>
      </trkpt>
      <trkpt lat="43.287333" lon="-4.301900">
        <ele>1133.0</ele>
        <time>2015-04-28T14:13:22Z</time>
      </trkpt>
      <trkpt lat="43.287350" lon="-4.301800">
        <ele>1133.0</ele>
        <time>2015-04-28T14:13:23Z</time>
      </trkpt>
      <trkpt lat="43.287367" lon="-4.301717">
        <ele>1132.0</ele>
        <time>2015-04-28T14:13:24Z</time>
      </trkpt>
      <trkpt lat="43.287400" lon="-4.301633">
        <ele>1132.0</ele>
        <time>2015-04-28T14:13:25Z</time>
      </trkpt>
      <trkpt lat="43.287417" lon="-4.301583">
        <ele>1132.0</ele>
        <time>2015-04-28T14:13:26Z</time>
      </trkpt>
      <trkpt lat="43.287433" lon="-4.301533">
        <ele>1132.0</ele>
        <time>2015-04-28T14:13:27Z</time>
      </trkpt>
      <trkpt lat="43.287450" lon="-4.301483">
        <ele>1131.0</ele>
        <time>2015-04-28T14:13:28Z</time>
      </trkpt>
      <trkpt lat="43.287483" lon="-4.301417">
        <ele>1130.0</ele>
        <time>2015-04-28T14:13:29Z</time>
      </trkpt>
      <trkpt lat="43.287500" lon="-4.301350">
        <ele>1129.0</ele>
        <time>2015-04-28T14:13:30Z</time>
      </trkpt>
      <trkpt lat="43.287533" lon="-4.301283">
        <ele>1127.0</ele>
        <time>2015-04-28T14:13:31Z</time>
      </trkpt>
      <trkpt lat="43.287567" lon="-4.301233">
        <ele>1128.0</ele>
        <time>2015-04-28T14:13:32Z</time>
      </trkpt>
      <trkpt lat="43.287583" lon="-4.301167">
        <ele>1128.0</ele>
        <time>2015-04-28T14:13:33Z</time>
      </trkpt>
      <trkpt lat="43.287617" lon="-4.301100">
        <ele>1127.0</ele>
        <time>2015-04-28T14:13:34Z</time>
      </trkpt>
      <trkpt lat="43.287633" lon="-4.301033">
        <ele>1126.0</ele>
        <time>2015-04-28T14:13:35Z</time>
      </trkpt>
      <trkpt lat="43.287667" lon="-4.300983">
        <ele>1124.0</ele>
        <time>2015-04-28T14:13:36Z</time>
      </trkpt>
      <trkpt lat="43.287683" lon="-4.300933">
        <ele>1123.0</ele>
        <time>2015-04-28T14:13:37Z</time>
      </trkpt>
      <trkpt lat="43.287700" lon="-4.300883">
        <ele>1121.0</ele>
        <time>2015-04-28T14:13:38Z</time>
      </trkpt>
      <trkpt lat="43.287717" lon="-4.300817">
        <ele>1119.0</ele>
        <time>2015-04-28T14:13:39Z</time>
      </trkpt>
      <trkpt lat="43.287733" lon="-4.300767">
        <ele>1116.0</ele>
        <time>2015-04-28T14:13:40Z</time>
      </trkpt>
      <trkpt lat="43.287750" lon="-4.300700">
        <ele>1113.0</ele>
        <time>2015-04-28T14:13:41Z</time>
      </trkpt>
      <trkpt lat="43.287800" lon="-4.300633">
        <ele>1112.0</ele>
        <time>2015-04-28T14:13:42Z</time>
      </trkpt>
      <trkpt lat="43.287833" lon="-4.300600">
        <ele>1113.0</ele>
        <time>2015-04-28T14:13:43Z</time>
      </trkpt>
      <trkpt lat="43.287850" lon="-4.300567">
        <ele>1113.0</ele>
        <time>2015-04-28T14:13:44Z</time>
      </trkpt>
      <trkpt lat="43.287867" lon="-4.300533">
        <ele>1111.0</ele>
        <time>2015-04-28T14:13:45Z</time>
      </trkpt>
      <trkpt lat="43.287883" lon="-4.300500">
        <ele>1110.0</ele>
        <time>2015-04-28T14:13:46Z</time>
      </trkpt>
      <trkpt lat="43.287917" lon="-4.300450">
        <ele>1107.0</ele>
        <time>2015-04-28T14:13:47Z</time>
      </trkpt>
      <trkpt lat="43.287950" lon="-4.300383">
        <ele>1108.0</ele>
        <time>2015-04-28T14:13:48Z</time>
      </trkpt>
      <trkpt lat="43.287983" lon="-4.300333">
        <ele>1108.0</ele>
        <time>2015-04-28T14:13:49Z</time>
      </trkpt>
      <trkpt lat="43.288017" lon="-4.300283">
        <ele>1107.0</ele>
        <time>2015-04-28T14:13:50Z</time>
      </trkpt>
      <trkpt lat="43.288050" lon="-4.300267">
        <ele>1107.0</ele>
        <time>2015-04-28T14:13:51Z</time>
      </trkpt>
      <trkpt lat="43.288083" lon="-4.300233">
        <ele>1106.0</ele>
        <time>2015-04-28T14:13:52Z</time>
      </trkpt>
      <trkpt lat="43.288117" lon="-4.300200">
        <ele>1106.0</ele>
        <time>2015-04-28T14:13:53Z</time>
      </trkpt>
      <trkpt lat="43.288133" lon="-4.300167">
        <ele>1105.0</ele>
        <time>2015-04-28T14:13:54Z</time>
      </trkpt>
      <trkpt lat="43.288150" lon="-4.300133">
        <ele>1105.0</ele>
        <time>2015-04-28T14:13:55Z</time>
      </trkpt>
      <trkpt lat="43.288167" lon="-4.300083">
        <ele>1104.0</ele>
        <time>2015-04-28T14:13:56Z</time>
      </trkpt>
      <trkpt lat="43.288200" lon="-4.300017">
        <ele>1103.0</ele>
        <time>2015-04-28T14:13:57Z</time>
      </trkpt>
      <trkpt lat="43.288233" lon="-4.299967">
        <ele>1102.0</ele>
        <time>2015-04-28T14:13:58Z</time>
      </trkpt>
      <trkpt lat="43.288283" lon="-4.299933">
        <ele>1102.0</ele>
        <time>2015-04-28T14:13:59Z</time>
      </trkpt>
      <trkpt lat="43.288317" lon="-4.299883">
        <ele>1101.0</ele>
        <time>2015-04-28T14:14:00Z</time>
      </trkpt>
      <trkpt lat="43.288367" lon="-4.299850">
        <ele>1100.0</ele>
        <time>2015-04-28T14:14:01Z</time>
      </trkpt>
      <trkpt lat="43.288400" lon="-4.299800">
        <ele>1099.0</ele>
        <time>2015-04-28T14:14:02Z</time>
      </trkpt>
      <trkpt lat="43.288433" lon="-4.299750">
        <ele>1098.0</ele>
        <time>2015-04-28T14:14:03Z</time>
      </trkpt>
      <trkpt lat="43.288450" lon="-4.299700">
        <ele>1097.0</ele>
        <time>2015-04-28T14:14:04Z</time>
      </trkpt>
      <trkpt lat="43.288467" lon="-4.299667">
        <ele>1095.0</ele>
        <time>2015-04-28T14:14:05Z</time>
      </trkpt>
      <trkpt lat="43.288500" lon="-4.299650">
        <ele>1093.0</ele>
        <time>2015-04-28T14:14:06Z</time>
      </trkpt>
      <trkpt lat="43.288517" lon="-4.299617">
        <ele>1090.0</ele>
        <time>2015-04-28T14:14:07Z</time>
      </trkpt>
      <trkpt lat="43.288550" lon="-4.299550">
        <ele>1091.0</ele>
        <time>2015-04-28T14:14:08Z</time>
      </trkpt>
      <trkpt lat="43.288567" lon="-4.299483">
        <ele>1090.0</ele>
        <time>2015-04-28T14:14:09Z</time>
      </trkpt>
      <trkpt lat="43.288583" lon="-4.299433">
        <ele>1089.0</ele>
        <time>2015-04-28T14:14:10Z</time>
      </trkpt>
      <trkpt lat="43.288583" lon="-4.299400">
        <ele>1088.0</ele>
        <time>2015-04-28T14:14:11Z</time>
      </trkpt>
      <trkpt lat="43.288583" lon="-4.299367">
        <ele>1087.0</ele>
        <time>2015-04-28T14:14:12Z</time>
      </trkpt>
      <trkpt lat="43.288583" lon="-4.299317">
        <ele>1086.0</ele>
        <time>2015-04-28T14:14:13Z</time>
      </trkpt>
      <trkpt lat="43.288583" lon="-4.299283">
        <ele>1084.0</ele>
        <time>2015-04-28T14:14:14Z</time>
      </trkpt>
      <trkpt lat="43.288600" lon="-4.299217">
        <ele>1082.0</ele>
        <time>2015-04-28T14:14:15Z</time>
      </trkpt>
      <trkpt lat="43.288617" lon="-4.299167">
        <ele>1081.0</ele>
        <time>2015-04-28T14:14:16Z</time>
      </trkpt>
      <trkpt lat="43.288617" lon="-4.299133">
        <ele>1080.0</ele>
        <time>2015-04-28T14:14:17Z</time>
      </trkpt>
      <trkpt lat="43.288633" lon="-4.299100">
        <ele>1079.0</ele>
        <time>2015-04-28T14:14:18Z</time>
      </trkpt>
      <trkpt lat="43.288633" lon="-4.299050">
        <ele>1077.0</ele>
        <time>2015-04-28T14:14:19Z</time>
      </trkpt>
      <trkpt lat="43.288633" lon="-4.299000">
        <ele>1075.0</ele>
        <time>2015-04-28T14:14:20Z</time>
      </trkpt>
      <trkpt lat="43.288633" lon="-4.298933">
        <ele>1073.0</ele>
        <time>2015-04-28T14:14:21Z</time>
      </trkpt>
      <trkpt lat="43.288633" lon="-4.298867">
        <ele>1072.0</ele>
        <time>2015-04-28T14:14:22Z</time>
      </trkpt>
      <trkpt lat="43.288633" lon="-4.298783">
        <ele>1071.0</ele>
        <time>2015-04-28T14:14:23Z</time>
      </trkpt>
      <trkpt lat="43.288633" lon="-4.298733">
        <ele>1070.0</ele>
        <time>2015-04-28T14:14:24Z</time>
      </trkpt>
      <trkpt lat="43.288617" lon="-4.298667">
        <ele>1069.0</ele>
        <time>2015-04-28T14:14:25Z</time>
      </trkpt>
      <trkpt lat="43.288600" lon="-4.298600">
        <ele>1067.0</ele>
        <time>2015-04-28T14:14:26Z</time>
      </trkpt>
      <trkpt lat="43.288600" lon="-4.298550">
        <ele>1066.0</ele>
        <time>2015-04-28T14:14:27Z</time>
      </trkpt>
      <trkpt lat="43.288617" lon="-4.298483">
        <ele>1064.0</ele>
        <time>2015-04-28T14:14:28Z</time>
      </trkpt>
      <trkpt lat="43.288617" lon="-4.298417">
        <ele>1063.0</ele>
        <time>2015-04-28T14:14:29Z</time>
      </trkpt>
      <trkpt lat="43.288617" lon="-4.298367">
        <ele>1062.0</ele>
        <time>2015-04-28T14:14:30Z</time>
      </trkpt>
      <trkpt lat="43.288633" lon="-4.298317">
        <ele>1061.0</ele>
        <time>2015-04-28T14:14:31Z</time>
      </trkpt>
      <trkpt lat="43.288633" lon="-4.298267">
        <ele>1059.0</ele>
        <time>2015-04-28T14:14:32Z</time>
      </trkpt>
      <trkpt lat="43.288633" lon="-4.298217">
        <ele>1058.0</ele>
        <time>2015-04-28T14:14:33Z</time>
      </trkpt>
      <trkpt lat="43.288633" lon="-4.298150">
        <ele>1057.0</ele>
        <time>2015-04-28T14:14:34Z</time>
      </trkpt>
      <trkpt lat="43.288633" lon="-4.298083">
        <ele>1055.0</ele>
        <time>2015-04-28T14:14:35Z</time>
      </trkpt>
      <trkpt lat="43.288633" lon="-4.298000">
        <ele>1053.0</ele>
        <time>2015-04-28T14:14:36Z</time>
      </trkpt>
      <trkpt lat="43.288617" lon="-4.297933">
        <ele>1053.0</ele>
        <time>2015-04-28T14:14:37Z</time>
      </trkpt>
      <trkpt lat="43.288617" lon="-4.297917">
        <ele>1051.0</ele>
        <time>2015-04-28T14:14:38Z</time>
      </trkpt>
      <trkpt lat="43.288617" lon="-4.297867">
        <ele>1050.0</ele>
        <time>2015-04-28T14:14:39Z</time>
      </trkpt>
      <trkpt lat="43.288633" lon="-4.297800">
        <ele>1048.0</ele>
        <time>2015-04-28T14:14:40Z</time>
      </trkpt>
      <trkpt lat="43.288650" lon="-4.297750">
        <ele>1048.0</ele>
        <time>2015-04-28T14:14:41Z</time>
      </trkpt>
      <trkpt lat="43.288683" lon="-4.297683">
        <ele>1047.0</ele>
        <time>2015-04-28T14:14:42Z</time>
      </trkpt>
      <trkpt lat="43.288700" lon="-4.297633">
        <ele>1047.0</ele>
        <time>2015-04-28T14:14:43Z</time>
      </trkpt>
      <trkpt lat="43.288683" lon="-4.297567">
        <ele>1045.0</ele>
        <time>2015-04-28T14:14:44Z</time>
      </trkpt>
      <trkpt lat="43.288683" lon="-4.297500">
        <ele>1044.0</ele>
        <time>2015-04-28T14:14:45Z</time>
      </trkpt>
      <trkpt lat="43.288683" lon="-4.297433">
        <ele>1043.0</ele>
        <time>2015-04-28T14:14:46Z</time>
      </trkpt>
      <trkpt lat="43.288700" lon="-4.297400">
        <ele>1042.0</ele>
        <time>2015-04-28T14:14:47Z</time>
      </trkpt>
      <trkpt lat="43.288717" lon="-4.297367">
        <ele>1040.0</ele>
        <time>2015-04-28T14:14:48Z</time>
      </trkpt>
      <trkpt lat="43.288717" lon="-4.297317">
        <ele>1038.0</ele>
        <time>2015-04-28T14:14:49Z</time>
      </trkpt>
      <trkpt lat="43.288733" lon="-4.297250">
        <ele>1038.0</ele>
        <time>2015-04-28T14:14:50Z</time>
      </trkpt>
      <trkpt lat="43.288767" lon="-4.297183">
        <ele>1036.0</ele>
        <time>2015-04-28T14:14:51Z</time>
      </trkpt>
      <trkpt lat="43.288783" lon="-4.297100">
        <ele>1033.0</ele>
        <time>2015-04-28T14:14:52Z</time>
      </trkpt>
      <trkpt lat="43.288817" lon="-4.297050">
        <ele>1030.0</ele>
        <time>2015-04-28T14:14:53Z</time>
      </trkpt>
      <trkpt lat="43.288850" lon="-4.297017">
        <ele>1029.0</ele>
        <time>2015-04-28T14:14:54Z</time>
      </trkpt>
      <trkpt lat="43.288883" lon="-4.296983">
        <ele>1029.0</ele>
        <time>2015-04-28T14:14:55Z</time>
      </trkpt>
      <trkpt lat="43.288917" lon="-4.296950">
        <ele>1029.0</ele>
        <time>2015-04-28T14:14:56Z</time>
      </trkpt>
      <trkpt lat="43.288950" lon="-4.296900">
        <ele>1028.0</ele>
        <time>2015-04-28T14:14:57Z</time>
      </trkpt>
      <trkpt lat="43.288967" lon="-4.296850">
        <ele>1027.0</ele>
        <time>2015-04-28T14:14:58Z</time>
      </trkpt>
      <trkpt lat="43.288983" lon="-4.296783">
        <ele>1026.0</ele>
        <time>2015-04-28T14:14:59Z</time>
      </trkpt>
      <trkpt lat="43.289017" lon="-4.296750">
        <ele>1025.0</ele>
        <time>2015-04-28T14:15:00Z</time>
      </trkpt>
      <trkpt lat="43.289033" lon="-4.296717">
        <ele>1024.0</ele>
        <time>2015-04-28T14:15:01Z</time>
      </trkpt>
      <trkpt lat="43.289050" lon="-4.296683">
        <ele>1023.0</ele>
        <time>2015-04-28T14:15:02Z</time>
      </trkpt>
      <trkpt lat="43.289067" lon="-4.296617">
        <ele>1022.0</ele>
        <time>2015-04-28T14:15:03Z</time>
      </trkpt>
      <trkpt lat="43.289083" lon="-4.296550">
        <ele>1021.0</ele>
        <time>2015-04-28T14:15:04Z</time>
      </trkpt>
      <trkpt lat="43.289117" lon="-4.296500">
        <ele>1020.0</ele>
        <time>2015-04-28T14:15:05Z</time>
      </trkpt>
      <trkpt lat="43.289150" lon="-4.296467">
        <ele>1019.0</ele>
        <time>2015-04-28T14:15:06Z</time>
      </trkpt>
      <trkpt lat="43.289183" lon="-4.296433">
        <ele>1019.0</ele>
        <time>2015-04-28T14:15:07Z</time>
      </trkpt>
      <trkpt lat="43.289217" lon="-4.296417">
        <ele>1018.0</ele>
        <time>2015-04-28T14:15:08Z</time>
      </trkpt>
      <trkpt lat="43.289233" lon="-4.296367">
        <ele>1018.0</ele>
        <time>2015-04-28T14:15:09Z</time>
      </trkpt>
      <trkpt lat="43.289267" lon="-4.296300">
        <ele>1017.0</ele>
        <time>2015-04-28T14:15:10Z</time>
      </trkpt>
      <trkpt lat="43.289333" lon="-4.296233">
        <ele>1016.0</ele>
        <time>2015-04-28T14:15:11Z</time>
      </trkpt>
      <trkpt lat="43.289383" lon="-4.296183">
        <ele>1015.0</ele>
        <time>2015-04-28T14:15:12Z</time>
      </trkpt>
      <trkpt lat="43.289417" lon="-4.296133">
        <ele>1014.0</ele>
        <time>2015-04-28T14:15:13Z</time>
      </trkpt>
      <trkpt lat="43.289450" lon="-4.296100">
        <ele>1014.0</ele>
        <time>2015-04-28T14:15:14Z</time>
      </trkpt>
      <trkpt lat="43.289500" lon="-4.296050">
        <ele>1014.0</ele>
        <time>2015-04-28T14:15:15Z</time>
      </trkpt>
      <trkpt lat="43.289567" lon="-4.296000">
        <ele>1012.0</ele>
        <time>2015-04-28T14:15:16Z</time>
      </trkpt>
      <trkpt lat="43.289617" lon="-4.295933">
        <ele>1011.0</ele>
        <time>2015-04-28T14:15:17Z</time>
      </trkpt>
      <trkpt lat="43.289667" lon="-4.295883">
        <ele>1010.0</ele>
        <time>2015-04-28T14:15:18Z</time>
      </trkpt>
      <trkpt lat="43.289700" lon="-4.295833">
        <ele>1009.0</ele>
        <time>2015-04-28T14:15:19Z</time>
      </trkpt>
      <trkpt lat="43.289733" lon="-4.295817">
        <ele>1009.0</ele>
        <time>2015-04-28T14:15:20Z</time>
      </trkpt>
      <trkpt lat="43.289750" lon="-4.295800">
        <ele>1008.0</ele>
        <time>2015-04-28T14:15:21Z</time>
      </trkpt>
      <trkpt lat="43.289767" lon="-4.295783">
        <ele>1008.0</ele>
        <time>2015-04-28T14:15:22Z</time>
      </trkpt>
      <trkpt lat="43.289783" lon="-4.295783">
        <ele>1007.0</ele>
        <time>2015-04-28T14:15:23Z</time>
      </trkpt>
      <trkpt lat="43.289800" lon="-4.295767">
        <ele>1006.0</ele>
        <time>2015-04-28T14:15:24Z</time>
      </trkpt>
      <trkpt lat="43.289800" lon="-4.295733">
        <ele>1005.0</ele>
        <time>2015-04-28T14:15:25Z</time>
      </trkpt>
      <trkpt lat="43.289817" lon="-4.295667">
        <ele>1004.0</ele>
        <time>2015-04-28T14:15:26Z</time>
      </trkpt>
      <trkpt lat="43.289833" lon="-4.295600">
        <ele>1003.0</ele>
        <time>2015-04-28T14:15:27Z</time>
      </trkpt>
      <trkpt lat="43.289867" lon="-4.295533">
        <ele>1002.0</ele>
        <time>2015-04-28T14:15:28Z</time>
      </trkpt>
      <trkpt lat="43.289883" lon="-4.295483">
        <ele>1002.0</ele>
        <time>2015-04-28T14:15:29Z</time>
      </trkpt>
      <trkpt lat="43.289900" lon="-4.295450">
        <ele>1001.0</ele>
        <time>2015-04-28T14:15:30Z</time>
      </trkpt>
      <trkpt lat="43.289917" lon="-4.295417">
        <ele>1000.0</ele>
        <time>2015-04-28T14:15:31Z</time>
      </trkpt>
      <trkpt lat="43.289917" lon="-4.295367">
        <ele>999.0</ele>
        <time>2015-04-28T14:15:32Z</time>
      </trkpt>
      <trkpt lat="43.289933" lon="-4.295333">
        <ele>998.0</ele>
        <time>2015-04-28T14:15:33Z</time>
      </trkpt>
      <trkpt lat="43.289967" lon="-4.295300">
        <ele>996.0</ele>
        <time>2015-04-28T14:15:34Z</time>
      </trkpt>
      <trkpt lat="43.290000" lon="-4.295250">
        <ele>993.0</ele>
        <time>2015-04-28T14:15:35Z</time>
      </trkpt>
      <trkpt lat="43.290033" lon="-4.295183">
        <ele>994.0</ele>
        <time>2015-04-28T14:15:36Z</time>
      </trkpt>
      <trkpt lat="43.290067" lon="-4.295117">
        <ele>993.0</ele>
        <time>2015-04-28T14:15:37Z</time>
      </trkpt>
      <trkpt lat="43.290100" lon="-4.295050">
        <ele>991.0</ele>
        <time>2015-04-28T14:15:38Z</time>
      </trkpt>
      <trkpt lat="43.290133" lon="-4.294983">
        <ele>990.0</ele>
        <time>2015-04-28T14:15:39Z</time>
      </trkpt>
      <trkpt lat="43.290167" lon="-4.294933">
        <ele>989.0</ele>
        <time>2015-04-28T14:15:40Z</time>
      </trkpt>
      <trkpt lat="43.290183" lon="-4.294867">
        <ele>988.0</ele>
        <time>2015-04-28T14:15:41Z</time>
      </trkpt>
      <trkpt lat="43.290200" lon="-4.294800">
        <ele>988.0</ele>
        <time>2015-04-28T14:15:42Z</time>
      </trkpt>
      <trkpt lat="43.290233" lon="-4.294717">
        <ele>986.0</ele>
        <time>2015-04-28T14:15:43Z</time>
      </trkpt>
      <trkpt lat="43.290250" lon="-4.294633">
        <ele>985.0</ele>
        <time>2015-04-28T14:15:44Z</time>
      </trkpt>
      <trkpt lat="43.290283" lon="-4.294550">
        <ele>984.0</ele>
        <time>2015-04-28T14:15:45Z</time>
      </trkpt>
      <trkpt lat="43.290317" lon="-4.294500">
        <ele>984.0</ele>
        <time>2015-04-28T14:15:46Z</time>
      </trkpt>
      <trkpt lat="43.290350" lon="-4.294450">
        <ele>984.0</ele>
        <time>2015-04-28T14:15:47Z</time>
      </trkpt>
      <trkpt lat="43.290383" lon="-4.294400">
        <ele>983.0</ele>
        <time>2015-04-28T14:15:48Z</time>
      </trkpt>
      <trkpt lat="43.290400" lon="-4.294333">
        <ele>983.0</ele>
        <time>2015-04-28T14:15:49Z</time>
      </trkpt>
      <trkpt lat="43.290433" lon="-4.294250">
        <ele>982.0</ele>
        <time>2015-04-28T14:15:50Z</time>
      </trkpt>
      <trkpt lat="43.290467" lon="-4.294183">
        <ele>982.0</ele>
        <time>2015-04-28T14:15:51Z</time>
      </trkpt>
      <trkpt lat="43.290467" lon="-4.294100">
        <ele>981.0</ele>
        <time>2015-04-28T14:15:52Z</time>
      </trkpt>
      <trkpt lat="43.290450" lon="-4.294017">
        <ele>980.0</ele>
        <time>2015-04-28T14:15:53Z</time>
      </trkpt>
      <trkpt lat="43.290417" lon="-4.293950">
        <ele>980.0</ele>
        <time>2015-04-28T14:15:54Z</time>
      </trkpt>
      <trkpt lat="43.290400" lon="-4.293900">
        <ele>980.0</ele>
        <time>2015-04-28T14:15:55Z</time>
      </trkpt>
      <trkpt lat="43.290367" lon="-4.293850">
        <ele>979.0</ele>
        <time>2015-04-28T14:15:56Z</time>
      </trkpt>
      <trkpt lat="43.290350" lon="-4.293817">
        <ele>979.0</ele>
        <time>2015-04-28T14:15:57Z</time>
      </trkpt>
      <trkpt lat="43.290300" lon="-4.293733">
        <ele>977.0</ele>
        <time>2015-04-28T14:15:58Z</time>
      </trkpt>
      <trkpt lat="43.290250" lon="-4.293650">
        <ele>975.0</ele>
        <time>2015-04-28T14:15:59Z</time>
      </trkpt>
      <trkpt lat="43.290183" lon="-4.293567">
        <ele>973.0</ele>
        <time>2015-04-28T14:16:00Z</time>
      </trkpt>
      <trkpt lat="43.290133" lon="-4.293500">
        <ele>972.0</ele>
        <time>2015-04-28T14:16:01Z</time>
      </trkpt>
      <trkpt lat="43.290083" lon="-4.293433">
        <ele>972.0</ele>
        <time>2015-04-28T14:16:02Z</time>
      </trkpt>
      <trkpt lat="43.290033" lon="-4.293383">
        <ele>971.0</ele>
        <time>2015-04-28T14:16:03Z</time>
      </trkpt>
      <trkpt lat="43.289967" lon="-4.293317">
        <ele>969.0</ele>
        <time>2015-04-28T14:16:04Z</time>
      </trkpt>
      <trkpt lat="43.289917" lon="-4.293217">
        <ele>964.0</ele>
        <time>2015-04-28T14:16:05Z</time>
      </trkpt>
      <trkpt lat="43.289883" lon="-4.293133">
        <ele>960.0</ele>
        <time>2015-04-28T14:16:06Z</time>
      </trkpt>
      <trkpt lat="43.289833" lon="-4.293050">
        <ele>959.0</ele>
        <time>2015-04-28T14:16:07Z</time>
      </trkpt>
      <trkpt lat="43.289783" lon="-4.292983">
        <ele>958.0</ele>
        <time>2015-04-28T14:16:08Z</time>
      </trkpt>
      <trkpt lat="43.289750" lon="-4.292917">
        <ele>958.0</ele>
        <time>2015-04-28T14:16:09Z</time>
      </trkpt>
      <trkpt lat="43.289700" lon="-4.292867">
        <ele>957.0</ele>
        <time>2015-04-28T14:16:10Z</time>
      </trkpt>
      <trkpt lat="43.289667" lon="-4.292817">
        <ele>954.0</ele>
        <time>2015-04-28T14:16:11Z</time>
      </trkpt>
      <trkpt lat="43.289633" lon="-4.292733">
        <ele>953.0</ele>
        <time>2015-04-28T14:16:12Z</time>
      </trkpt>
      <trkpt lat="43.289600" lon="-4.292650">
        <ele>952.0</ele>
        <time>2015-04-28T14:16:13Z</time>
      </trkpt>
      <trkpt lat="43.289567" lon="-4.292567">
        <ele>951.0</ele>
        <time>2015-04-28T14:16:14Z</time>
      </trkpt>
      <trkpt lat="43.289533" lon="-4.292500">
        <ele>950.0</ele>
        <time>2015-04-28T14:16:15Z</time>
      </trkpt>
      <trkpt lat="43.289517" lon="-4.292433">
        <ele>950.0</ele>
        <time>2015-04-28T14:16:16Z</time>
      </trkpt>
      <trkpt lat="43.289517" lon="-4.292383">
        <ele>949.0</ele>
        <time>2015-04-28T14:16:17Z</time>
      </trkpt>
      <trkpt lat="43.289517" lon="-4.292333">
        <ele>949.0</ele>
        <time>2015-04-28T14:16:18Z</time>
      </trkpt>
      <trkpt lat="43.289517" lon="-4.292300">
        <ele>950.0</ele>
        <time>2015-04-28T14:16:19Z</time>
      </trkpt>
      <trkpt lat="43.289500" lon="-4.292267">
        <ele>951.0</ele>
        <time>2015-04-28T14:16:20Z</time>
      </trkpt>
      <trkpt lat="43.289500" lon="-4.292233">
        <ele>952.0</ele>
        <time>2015-04-28T14:16:21Z</time>
      </trkpt>
      <trkpt lat="43.289483" lon="-4.292233">
        <ele>952.0</ele>
        <time>2015-04-28T14:16:22Z</time>
      </trkpt>
      <trkpt lat="43.289500" lon="-4.292233">
        <ele>950.0</ele>
        <time>2015-04-28T14:16:23Z</time>
      </trkpt>
      <trkpt lat="43.289517" lon="-4.292217">
        <ele>950.0</ele>
        <time>2015-04-28T14:16:24Z</time>
      </trkpt>
      <trkpt lat="43.289533" lon="-4.292200">
        <ele>950.0</ele>
        <time>2015-04-28T14:16:25Z</time>
      </trkpt>
      <trkpt lat="43.289550" lon="-4.292183">
        <ele>951.0</ele>
        <time>2015-04-28T14:16:26Z</time>
      </trkpt>
      <trkpt lat="43.289567" lon="-4.292183">
        <ele>952.0</ele>
        <time>2015-04-28T14:16:27Z</time>
      </trkpt>
      <trkpt lat="43.289567" lon="-4.292183">
        <ele>954.0</ele>
        <time>2015-04-28T14:16:28Z</time>
      </trkpt>
      <trkpt lat="43.289583" lon="-4.292183">
        <ele>954.0</ele>
        <time>2015-04-28T14:16:29Z</time>
      </trkpt>
      <trkpt lat="43.289617" lon="-4.292183">
        <ele>955.0</ele>
        <time>2015-04-28T14:16:30Z</time>
      </trkpt>
      <trkpt lat="43.289633" lon="-4.292217">
        <ele>955.0</ele>
        <time>2015-04-28T14:16:31Z</time>
      </trkpt>
      <trkpt lat="43.289683" lon="-4.292250">
        <ele>957.0</ele>
        <time>2015-04-28T14:16:32Z</time>
      </trkpt>
      <trkpt lat="43.289717" lon="-4.292283">
        <ele>958.0</ele>
        <time>2015-04-28T14:16:33Z</time>
      </trkpt>
      <trkpt lat="43.289750" lon="-4.292350">
        <ele>959.0</ele>
        <time>2015-04-28T14:16:34Z</time>
      </trkpt>
      <trkpt lat="43.289783" lon="-4.292400">
        <ele>958.0</ele>
        <time>2015-04-28T14:16:35Z</time>
      </trkpt>
      <trkpt lat="43.289800" lon="-4.292483">
        <ele>959.0</ele>
        <time>2015-04-28T14:16:36Z</time>
      </trkpt>
      <trkpt lat="43.289833" lon="-4.292567">
        <ele>959.0</ele>
        <time>2015-04-28T14:16:37Z</time>
      </trkpt>
      <trkpt lat="43.289850" lon="-4.292683">
        <ele>960.0</ele>
        <time>2015-04-28T14:16:38Z</time>
      </trkpt>
      <trkpt lat="43.289867" lon="-4.292783">
        <ele>961.0</ele>
        <time>2015-04-28T14:16:39Z</time>
      </trkpt>
      <trkpt lat="43.289883" lon="-4.292917">
        <ele>961.0</ele>
        <time>2015-04-28T14:16:40Z</time>
      </trkpt>
      <trkpt lat="43.289867" lon="-4.293050">
        <ele>961.0</ele>
        <time>2015-04-28T14:16:41Z</time>
      </trkpt>
      <trkpt lat="43.289850" lon="-4.293183">
        <ele>961.0</ele>
        <time>2015-04-28T14:16:42Z</time>
      </trkpt>
      <trkpt lat="43.289800" lon="-4.293317">
        <ele>961.0</ele>
        <time>2015-04-28T14:16:43Z</time>
      </trkpt>
      <trkpt lat="43.289733" lon="-4.293433">
        <ele>962.0</ele>
        <time>2015-04-28T14:16:44Z</time>
      </trkpt>
      <trkpt lat="43.289633" lon="-4.293517">
        <ele>962.0</ele>
        <time>2015-04-28T14:16:45Z</time>
      </trkpt>
      <trkpt lat="43.289550" lon="-4.293600">
        <ele>961.0</ele>
        <time>2015-04-28T14:16:46Z</time>
      </trkpt>
      <trkpt lat="43.289450" lon="-4.293650">
        <ele>961.0</ele>
        <time>2015-04-28T14:16:47Z</time>
      </trkpt>
      <trkpt lat="43.289350" lon="-4.293683">
        <ele>961.0</ele>
        <time>2015-04-28T14:16:48Z</time>
      </trkpt>
      <trkpt lat="43.289250" lon="-4.293683">
        <ele>961.0</ele>
        <time>2015-04-28T14:16:49Z</time>
      </trkpt>
      <trkpt lat="43.289167" lon="-4.293650">
        <ele>961.0</ele>
        <time>2015-04-28T14:16:50Z</time>
      </trkpt>
      <trkpt lat="43.289100" lon="-4.293600">
        <ele>961.0</ele>
        <time>2015-04-28T14:16:51Z</time>
      </trkpt>
      <trkpt lat="43.289050" lon="-4.293550">
        <ele>962.0</ele>
        <time>2015-04-28T14:16:52Z</time>
      </trkpt>
      <trkpt lat="43.289000" lon="-4.293500">
        <ele>963.0</ele>
        <time>2015-04-28T14:16:53Z</time>
      </trkpt>
      <trkpt lat="43.288950" lon="-4.293433">
        <ele>964.0</ele>
        <time>2015-04-28T14:16:54Z</time>
      </trkpt>
      <trkpt lat="43.288917" lon="-4.293383">
        <ele>965.0</ele>
        <time>2015-04-28T14:16:55Z</time>
      </trkpt>
      <trkpt lat="43.288900" lon="-4.293317">
        <ele>966.0</ele>
        <time>2015-04-28T14:16:56Z</time>
      </trkpt>
      <trkpt lat="43.288883" lon="-4.293250">
        <ele>967.0</ele>
        <time>2015-04-28T14:16:57Z</time>
      </trkpt>
      <trkpt lat="43.288883" lon="-4.293200">
        <ele>966.0</ele>
        <time>2015-04-28T14:16:58Z</time>
      </trkpt>
      <trkpt lat="43.288883" lon="-4.293150">
        <ele>967.0</ele>
        <time>2015-04-28T14:16:59Z</time>
      </trkpt>
      <trkpt lat="43.288867" lon="-4.293100">
        <ele>967.0</ele>
        <time>2015-04-28T14:17:00Z</time>
      </trkpt>
      <trkpt lat="43.288867" lon="-4.293050">
        <ele>969.0</ele>
        <time>2015-04-28T14:17:01Z</time>
      </trkpt>
      <trkpt lat="43.288850" lon="-4.293000">
        <ele>970.0</ele>
        <time>2015-04-28T14:17:02Z</time>
      </trkpt>
      <trkpt lat="43.288850" lon="-4.292967">
        <ele>972.0</ele>
        <time>2015-04-28T14:17:03Z</time>
      </trkpt>
      <trkpt lat="43.288833" lon="-4.292933">
        <ele>972.0</ele>
        <time>2015-04-28T14:17:04Z</time>
      </trkpt>
      <trkpt lat="43.288817" lon="-4.292900">
        <ele>972.0</ele>
        <time>2015-04-28T14:17:05Z</time>
      </trkpt>
      <trkpt lat="43.288800" lon="-4.292850">
        <ele>973.0</ele>
        <time>2015-04-28T14:17:06Z</time>
      </trkpt>
      <trkpt lat="43.288800" lon="-4.292800">
        <ele>973.0</ele>
        <time>2015-04-28T14:17:07Z</time>
      </trkpt>
      <trkpt lat="43.288800" lon="-4.292750">
        <ele>974.0</ele>
        <time>2015-04-28T14:17:08Z</time>
      </trkpt>
      <trkpt lat="43.288800" lon="-4.292700">
        <ele>975.0</ele>
        <time>2015-04-28T14:17:09Z</time>
      </trkpt>
      <trkpt lat="43.288783" lon="-4.292650">
        <ele>976.0</ele>
        <time>2015-04-28T14:17:10Z</time>
      </trkpt>
      <trkpt lat="43.288783" lon="-4.292600">
        <ele>977.0</ele>
        <time>2015-04-28T14:17:11Z</time>
      </trkpt>
      <trkpt lat="43.288783" lon="-4.292533">
        <ele>977.0</ele>
        <time>2015-04-28T14:17:12Z</time>
      </trkpt>
      <trkpt lat="43.288800" lon="-4.292467">
        <ele>977.0</ele>
        <time>2015-04-28T14:17:13Z</time>
      </trkpt>
      <trkpt lat="43.288817" lon="-4.292383">
        <ele>978.0</ele>
        <time>2015-04-28T14:17:14Z</time>
      </trkpt>
      <trkpt lat="43.288833" lon="-4.292317">
        <ele>978.0</ele>
        <time>2015-04-28T14:17:15Z</time>
      </trkpt>
      <trkpt lat="43.288850" lon="-4.292267">
        <ele>979.0</ele>
        <time>2015-04-28T14:17:16Z</time>
      </trkpt>
      <trkpt lat="43.288850" lon="-4.292217">
        <ele>981.0</ele>
        <time>2015-04-28T14:17:17Z</time>
      </trkpt>
      <trkpt lat="43.288867" lon="-4.292183">
        <ele>981.0</ele>
        <time>2015-04-28T14:17:18Z</time>
      </trkpt>
      <trkpt lat="43.288867" lon="-4.292150">
        <ele>983.0</ele>
        <time>2015-04-28T14:17:19Z</time>
      </trkpt>
      <trkpt lat="43.288883" lon="-4.292117">
        <ele>985.0</ele>
        <time>2015-04-28T14:17:20Z</time>
      </trkpt>
      <trkpt lat="43.288883" lon="-4.292100">
        <ele>986.0</ele>
        <time>2015-04-28T14:17:21Z</time>
      </trkpt>
      <trkpt lat="43.288883" lon="-4.292067">
        <ele>986.0</ele>
        <time>2015-04-28T14:17:22Z</time>
      </trkpt>
      <trkpt lat="43.288900" lon="-4.292033">
        <ele>987.0</ele>
        <time>2015-04-28T14:17:23Z</time>
      </trkpt>
      <trkpt lat="43.288933" lon="-4.292000">
        <ele>987.0</ele>
        <time>2015-04-28T14:17:24Z</time>
      </trkpt>
      <trkpt lat="43.288983" lon="-4.292000">
        <ele>988.0</ele>
        <time>2015-04-28T14:17:25Z</time>
      </trkpt>
      <trkpt lat="43.289017" lon="-4.292033">
        <ele>989.0</ele>
        <time>2015-04-28T14:17:26Z</time>
      </trkpt>
      <trkpt lat="43.289050" lon="-4.292067">
        <ele>989.0</ele>
        <time>2015-04-28T14:17:27Z</time>
      </trkpt>
      <trkpt lat="43.289067" lon="-4.292100">
        <ele>989.0</ele>
        <time>2015-04-28T14:17:28Z</time>
      </trkpt>
      <trkpt lat="43.289100" lon="-4.292150">
        <ele>990.0</ele>
        <time>2015-04-28T14:17:29Z</time>
      </trkpt>
      <trkpt lat="43.289133" lon="-4.292200">
        <ele>990.0</ele>
        <time>2015-04-28T14:17:30Z</time>
      </trkpt>
      <trkpt lat="43.289167" lon="-4.292283">
        <ele>990.0</ele>
        <time>2015-04-28T14:17:31Z</time>
      </trkpt>
      <trkpt lat="43.289200" lon="-4.292383">
        <ele>990.0</ele>
        <time>2015-04-28T14:17:32Z</time>
      </trkpt>
      <trkpt lat="43.289217" lon="-4.292500">
        <ele>989.0</ele>
        <time>2015-04-28T14:17:33Z</time>
      </trkpt>
      <trkpt lat="43.289250" lon="-4.292600">
        <ele>989.0</ele>
        <time>2015-04-28T14:17:34Z</time>
      </trkpt>
      <trkpt lat="43.289283" lon="-4.292667">
        <ele>988.0</ele>
        <time>2015-04-28T14:17:35Z</time>
      </trkpt>
      <trkpt lat="43.289350" lon="-4.292700">
        <ele>987.0</ele>
        <time>2015-04-28T14:17:36Z</time>
      </trkpt>
      <trkpt lat="43.289417" lon="-4.292683">
        <ele>985.0</ele>
        <time>2015-04-28T14:17:37Z</time>
      </trkpt>
      <trkpt lat="43.289467" lon="-4.292667">
        <ele>984.0</ele>
        <time>2015-04-28T14:17:38Z</time>
      </trkpt>
      <trkpt lat="43.289533" lon="-4.292667">
        <ele>984.0</ele>
        <time>2015-04-28T14:17:39Z</time>
      </trkpt>
      <trkpt lat="43.289600" lon="-4.292667">
        <ele>984.0</ele>
        <time>2015-04-28T14:17:40Z</time>
      </trkpt>
      <trkpt lat="43.289650" lon="-4.292683">
        <ele>984.0</ele>
        <time>2015-04-28T14:17:41Z</time>
      </trkpt>
      <trkpt lat="43.289700" lon="-4.292667">
        <ele>983.0</ele>
        <time>2015-04-28T14:17:42Z</time>
      </trkpt>
      <trkpt lat="43.289750" lon="-4.292633">
        <ele>982.0</ele>
        <time>2015-04-28T14:17:43Z</time>
      </trkpt>
      <trkpt lat="43.289783" lon="-4.292583">
        <ele>982.0</ele>
        <time>2015-04-28T14:17:44Z</time>
      </trkpt>
      <trkpt lat="43.289817" lon="-4.292517">
        <ele>982.0</ele>
        <time>2015-04-28T14:17:45Z</time>
      </trkpt>
      <trkpt lat="43.289850" lon="-4.292483">
        <ele>983.0</ele>
        <time>2015-04-28T14:17:46Z</time>
      </trkpt>
      <trkpt lat="43.289883" lon="-4.292450">
        <ele>983.0</ele>
        <time>2015-04-28T14:17:47Z</time>
      </trkpt>
      <trkpt lat="43.289900" lon="-4.292400">
        <ele>983.0</ele>
        <time>2015-04-28T14:17:48Z</time>
      </trkpt>
      <trkpt lat="43.289917" lon="-4.292350">
        <ele>983.0</ele>
        <time>2015-04-28T14:17:49Z</time>
      </trkpt>
      <trkpt lat="43.289917" lon="-4.292283">
        <ele>982.0</ele>
        <time>2015-04-28T14:17:50Z</time>
      </trkpt>
      <trkpt lat="43.289933" lon="-4.292217">
        <ele>982.0</ele>
        <time>2015-04-28T14:17:51Z</time>
      </trkpt>
      <trkpt lat="43.289933" lon="-4.292133">
        <ele>982.0</ele>
        <time>2015-04-28T14:17:52Z</time>
      </trkpt>
      <trkpt lat="43.289933" lon="-4.292050">
        <ele>982.0</ele>
        <time>2015-04-28T14:17:53Z</time>
      </trkpt>
      <trkpt lat="43.289950" lon="-4.291983">
        <ele>982.0</ele>
        <time>2015-04-28T14:17:54Z</time>
      </trkpt>
      <trkpt lat="43.289950" lon="-4.291950">
        <ele>983.0</ele>
        <time>2015-04-28T14:17:55Z</time>
      </trkpt>
      <trkpt lat="43.289950" lon="-4.291900">
        <ele>983.0</ele>
        <time>2015-04-28T14:17:56Z</time>
      </trkpt>
      <trkpt lat="43.289933" lon="-4.291833">
        <ele>982.0</ele>
        <time>2015-04-28T14:17:57Z</time>
      </trkpt>
      <trkpt lat="43.289933" lon="-4.291767">
        <ele>982.0</ele>
        <time>2015-04-28T14:17:58Z</time>
      </trkpt>
      <trkpt lat="43.289950" lon="-4.291700">
        <ele>982.0</ele>
        <time>2015-04-28T14:17:59Z</time>
      </trkpt>
      <trkpt lat="43.289967" lon="-4.291633">
        <ele>982.0</ele>
        <time>2015-04-28T14:18:00Z</time>
      </trkpt>
      <trkpt lat="43.289967" lon="-4.291583">
        <ele>983.0</ele>
        <time>2015-04-28T14:18:01Z</time>
      </trkpt>
      <trkpt lat="43.289983" lon="-4.291517">
        <ele>984.0</ele>
        <time>2015-04-28T14:18:02Z</time>
      </trkpt>
      <trkpt lat="43.289983" lon="-4.291483">
        <ele>986.0</ele>
        <time>2015-04-28T14:18:03Z</time>
      </trkpt>
      <trkpt lat="43.289983" lon="-4.291450">
        <ele>988.0</ele>
        <time>2015-04-28T14:18:04Z</time>
      </trkpt>
      <trkpt lat="43.290000" lon="-4.291450">
        <ele>990.0</ele>
        <time>2015-04-28T14:18:05Z</time>
      </trkpt>
      <trkpt lat="43.290000" lon="-4.291450">
        <ele>987.0</ele>
        <time>2015-04-28T14:18:06Z</time>
      </trkpt>
      <trkpt lat="43.290033" lon="-4.291433">
        <ele>988.0</ele>
        <time>2015-04-28T14:18:07Z</time>
      </trkpt>
      <trkpt lat="43.290067" lon="-4.291417">
        <ele>989.0</ele>
        <time>2015-04-28T14:18:08Z</time>
      </trkpt>
      <trkpt lat="43.290100" lon="-4.291400">
        <ele>992.0</ele>
        <time>2015-04-28T14:18:09Z</time>
      </trkpt>
      <trkpt lat="43.290133" lon="-4.291383">
        <ele>994.0</ele>
        <time>2015-04-28T14:18:10Z</time>
      </trkpt>
      <trkpt lat="43.290167" lon="-4.291383">
        <ele>996.0</ele>
        <time>2015-04-28T14:18:11Z</time>
      </trkpt>
      <trkpt lat="43.290200" lon="-4.291383">
        <ele>995.0</ele>
        <time>2015-04-28T14:18:12Z</time>
      </trkpt>
      <trkpt lat="43.290217" lon="-4.291383">
        <ele>995.0</ele>
        <time>2015-04-28T14:18:13Z</time>
      </trkpt>
      <trkpt lat="43.290250" lon="-4.291383">
        <ele>996.0</ele>
        <time>2015-04-28T14:18:14Z</time>
      </trkpt>
      <trkpt lat="43.290300" lon="-4.291433">
        <ele>996.0</ele>
        <time>2015-04-28T14:18:15Z</time>
      </trkpt>
      <trkpt lat="43.290350" lon="-4.291500">
        <ele>996.0</ele>
        <time>2015-04-28T14:18:16Z</time>
      </trkpt>
      <trkpt lat="43.290400" lon="-4.291600">
        <ele>997.0</ele>
        <time>2015-04-28T14:18:17Z</time>
      </trkpt>
      <trkpt lat="43.290433" lon="-4.291717">
        <ele>999.0</ele>
        <time>2015-04-28T14:18:18Z</time>
      </trkpt>
      <trkpt lat="43.290450" lon="-4.291833">
        <ele>1001.0</ele>
        <time>2015-04-28T14:18:19Z</time>
      </trkpt>
      <trkpt lat="43.290450" lon="-4.291967">
        <ele>1002.0</ele>
        <time>2015-04-28T14:18:20Z</time>
      </trkpt>
      <trkpt lat="43.290433" lon="-4.292100">
        <ele>1003.0</ele>
        <time>2015-04-28T14:18:21Z</time>
      </trkpt>
      <trkpt lat="43.290400" lon="-4.292233">
        <ele>1003.0</ele>
        <time>2015-04-28T14:18:22Z</time>
      </trkpt>
      <trkpt lat="43.290367" lon="-4.292383">
        <ele>1004.0</ele>
        <time>2015-04-28T14:18:23Z</time>
      </trkpt>
      <trkpt lat="43.290333" lon="-4.292533">
        <ele>1005.0</ele>
        <time>2015-04-28T14:18:24Z</time>
      </trkpt>
      <trkpt lat="43.290300" lon="-4.292683">
        <ele>1006.0</ele>
        <time>2015-04-28T14:18:25Z</time>
      </trkpt>
      <trkpt lat="43.290250" lon="-4.292800">
        <ele>1008.0</ele>
        <time>2015-04-28T14:18:26Z</time>
      </trkpt>
      <trkpt lat="43.290200" lon="-4.292917">
        <ele>1010.0</ele>
        <time>2015-04-28T14:18:27Z</time>
      </trkpt>
      <trkpt lat="43.290150" lon="-4.293050">
        <ele>1011.0</ele>
        <time>2015-04-28T14:18:28Z</time>
      </trkpt>
      <trkpt lat="43.290100" lon="-4.293167">
        <ele>1011.0</ele>
        <time>2015-04-28T14:18:29Z</time>
      </trkpt>
      <trkpt lat="43.290017" lon="-4.293267">
        <ele>1011.0</ele>
        <time>2015-04-28T14:18:30Z</time>
      </trkpt>
      <trkpt lat="43.289933" lon="-4.293350">
        <ele>1011.0</ele>
        <time>2015-04-28T14:18:31Z</time>
      </trkpt>
      <trkpt lat="43.289850" lon="-4.293417">
        <ele>1012.0</ele>
        <time>2015-04-28T14:18:32Z</time>
      </trkpt>
      <trkpt lat="43.289767" lon="-4.293433">
        <ele>1012.0</ele>
        <time>2015-04-28T14:18:33Z</time>
      </trkpt>
      <trkpt lat="43.289700" lon="-4.293433">
        <ele>1012.0</ele>
        <time>2015-04-28T14:18:34Z</time>
      </trkpt>
      <trkpt lat="43.289633" lon="-4.293417">
        <ele>1012.0</ele>
        <time>2015-04-28T14:18:35Z</time>
      </trkpt>
      <trkpt lat="43.289583" lon="-4.293383">
        <ele>1013.0</ele>
        <time>2015-04-28T14:18:36Z</time>
      </trkpt>
      <trkpt lat="43.289533" lon="-4.293350">
        <ele>1013.0</ele>
        <time>2015-04-28T14:18:37Z</time>
      </trkpt>
      <trkpt lat="43.289483" lon="-4.293317">
        <ele>1014.0</ele>
        <time>2015-04-28T14:18:38Z</time>
      </trkpt>
      <trkpt lat="43.289433" lon="-4.293283">
        <ele>1015.0</ele>
        <time>2015-04-28T14:18:39Z</time>
      </trkpt>
      <trkpt lat="43.289400" lon="-4.293250">
        <ele>1016.0</ele>
        <time>2015-04-28T14:18:40Z</time>
      </trkpt>
      <trkpt lat="43.289367" lon="-4.293233">
        <ele>1016.0</ele>
        <time>2015-04-28T14:18:41Z</time>
      </trkpt>
      <trkpt lat="43.289333" lon="-4.293200">
        <ele>1016.0</ele>
        <time>2015-04-28T14:18:42Z</time>
      </trkpt>
      <trkpt lat="43.289300" lon="-4.293183">
        <ele>1017.0</ele>
        <time>2015-04-28T14:18:43Z</time>
      </trkpt>
      <trkpt lat="43.289283" lon="-4.293150">
        <ele>1017.0</ele>
        <time>2015-04-28T14:18:44Z</time>
      </trkpt>
      <trkpt lat="43.289250" lon="-4.293117">
        <ele>1018.0</ele>
        <time>2015-04-28T14:18:45Z</time>
      </trkpt>
      <trkpt lat="43.289233" lon="-4.293067">
        <ele>1019.0</ele>
        <time>2015-04-28T14:18:46Z</time>
      </trkpt>
      <trkpt lat="43.289200" lon="-4.293033">
        <ele>1021.0</ele>
        <time>2015-04-28T14:18:47Z</time>
      </trkpt>
      <trkpt lat="43.289200" lon="-4.293000">
        <ele>1023.0</ele>
        <time>2015-04-28T14:18:48Z</time>
      </trkpt>
      <trkpt lat="43.289183" lon="-4.292983">
        <ele>1023.0</ele>
        <time>2015-04-28T14:18:49Z</time>
      </trkpt>
      <trkpt lat="43.289167" lon="-4.292950">
        <ele>1025.0</ele>
        <time>2015-04-28T14:18:50Z</time>
      </trkpt>
      <trkpt lat="43.289150" lon="-4.292917">
        <ele>1027.0</ele>
        <time>2015-04-28T14:18:51Z</time>
      </trkpt>
      <trkpt lat="43.289133" lon="-4.292883">
        <ele>1027.0</ele>
        <time>2015-04-28T14:18:52Z</time>
      </trkpt>
      <trkpt lat="43.289133" lon="-4.292867">
        <ele>1028.0</ele>
        <time>2015-04-28T14:18:53Z</time>
      </trkpt>
      <trkpt lat="43.289133" lon="-4.292850">
        <ele>1029.0</ele>
        <time>2015-04-28T14:18:54Z</time>
      </trkpt>
      <trkpt lat="43.289133" lon="-4.292833">
        <ele>1030.0</ele>
        <time>2015-04-28T14:18:55Z</time>
      </trkpt>
      <trkpt lat="43.289133" lon="-4.292800">
        <ele>1030.0</ele>
        <time>2015-04-28T14:18:56Z</time>
      </trkpt>
      <trkpt lat="43.289133" lon="-4.292767">
        <ele>1031.0</ele>
        <time>2015-04-28T14:18:57Z</time>
      </trkpt>
      <trkpt lat="43.289133" lon="-4.292750">
        <ele>1033.0</ele>
        <time>2015-04-28T14:18:58Z</time>
      </trkpt>
      <trkpt lat="43.289150" lon="-4.292733">
        <ele>1034.0</ele>
        <time>2015-04-28T14:18:59Z</time>
      </trkpt>
      <trkpt lat="43.289167" lon="-4.292717">
        <ele>1036.0</ele>
        <time>2015-04-28T14:19:00Z</time>
      </trkpt>
      <trkpt lat="43.289200" lon="-4.292700">
        <ele>1034.0</ele>
        <time>2015-04-28T14:19:01Z</time>
      </trkpt>
      <trkpt lat="43.289217" lon="-4.292683">
        <ele>1035.0</ele>
        <time>2015-04-28T14:19:02Z</time>
      </trkpt>
      <trkpt lat="43.289217" lon="-4.292650">
        <ele>1037.0</ele>
        <time>2015-04-28T14:19:03Z</time>
      </trkpt>
      <trkpt lat="43.289233" lon="-4.292633">
        <ele>1038.0</ele>
        <time>2015-04-28T14:19:04Z</time>
      </trkpt>
      <trkpt lat="43.289267" lon="-4.292633">
        <ele>1037.0</ele>
        <time>2015-04-28T14:19:05Z</time>
      </trkpt>
      <trkpt lat="43.289300" lon="-4.292617">
        <ele>1038.0</ele>
        <time>2015-04-28T14:19:06Z</time>
      </trkpt>
      <trkpt lat="43.289333" lon="-4.292633">
        <ele>1038.0</ele>
        <time>2015-04-28T14:19:07Z</time>
      </trkpt>
      <trkpt lat="43.289400" lon="-4.292650">
        <ele>1039.0</ele>
        <time>2015-04-28T14:19:08Z</time>
      </trkpt>
      <trkpt lat="43.289450" lon="-4.292667">
        <ele>1040.0</ele>
        <time>2015-04-28T14:19:09Z</time>
      </trkpt>
      <trkpt lat="43.289500" lon="-4.292700">
        <ele>1041.0</ele>
        <time>2015-04-28T14:19:10Z</time>
      </trkpt>
      <trkpt lat="43.289533" lon="-4.292717">
        <ele>1043.0</ele>
        <time>2015-04-28T14:19:11Z</time>
      </trkpt>
      <trkpt lat="43.289583" lon="-4.292733">
        <ele>1044.0</ele>
        <time>2015-04-28T14:19:12Z</time>
      </trkpt>
      <trkpt lat="43.289633" lon="-4.292767">
        <ele>1046.0</ele>
        <time>2015-04-28T14:19:13Z</time>
      </trkpt>
      <trkpt lat="43.289700" lon="-4.292800">
        <ele>1047.0</ele>
        <time>2015-04-28T14:19:14Z</time>
      </trkpt>
      <trkpt lat="43.289750" lon="-4.292867">
        <ele>1049.0</ele>
        <time>2015-04-28T14:19:15Z</time>
      </trkpt>
      <trkpt lat="43.289783" lon="-4.292950">
        <ele>1050.0</ele>
        <time>2015-04-28T14:19:16Z</time>
      </trkpt>
      <trkpt lat="43.289833" lon="-4.293067">
        <ele>1051.0</ele>
        <time>2015-04-28T14:19:17Z</time>
      </trkpt>
      <trkpt lat="43.289883" lon="-4.293167">
        <ele>1052.0</ele>
        <time>2015-04-28T14:19:18Z</time>
      </trkpt>
      <trkpt lat="43.289933" lon="-4.293283">
        <ele>1054.0</ele>
        <time>2015-04-28T14:19:19Z</time>
      </trkpt>
      <trkpt lat="43.289967" lon="-4.293400">
        <ele>1055.0</ele>
        <time>2015-04-28T14:19:20Z</time>
      </trkpt>
      <trkpt lat="43.290000" lon="-4.293483">
        <ele>1057.0</ele>
        <time>2015-04-28T14:19:21Z</time>
      </trkpt>
      <trkpt lat="43.290033" lon="-4.293567">
        <ele>1057.0</ele>
        <time>2015-04-28T14:19:22Z</time>
      </trkpt>
      <trkpt lat="43.290067" lon="-4.293667">
        <ele>1058.0</ele>
        <time>2015-04-28T14:19:23Z</time>
      </trkpt>
      <trkpt lat="43.290100" lon="-4.293767">
        <ele>1058.0</ele>
        <time>2015-04-28T14:19:24Z</time>
      </trkpt>
      <trkpt lat="43.290133" lon="-4.293900">
        <ele>1059.0</ele>
        <time>2015-04-28T14:19:25Z</time>
      </trkpt>
      <trkpt lat="43.290133" lon="-4.294017">
        <ele>1059.0</ele>
        <time>2015-04-28T14:19:26Z</time>
      </trkpt>
      <trkpt lat="43.290100" lon="-4.294133">
        <ele>1060.0</ele>
        <time>2015-04-28T14:19:27Z</time>
      </trkpt>
      <trkpt lat="43.290050" lon="-4.294250">
        <ele>1060.0</ele>
        <time>2015-04-28T14:19:28Z</time>
      </trkpt>
      <trkpt lat="43.290000" lon="-4.294350">
        <ele>1061.0</ele>
        <time>2015-04-28T14:19:29Z</time>
      </trkpt>
      <trkpt lat="43.289933" lon="-4.294450">
        <ele>1061.0</ele>
        <time>2015-04-28T14:19:30Z</time>
      </trkpt>
      <trkpt lat="43.289867" lon="-4.294533">
        <ele>1062.0</ele>
        <time>2015-04-28T14:19:31Z</time>
      </trkpt>
      <trkpt lat="43.289800" lon="-4.294600">
        <ele>1062.0</ele>
        <time>2015-04-28T14:19:32Z</time>
      </trkpt>
      <trkpt lat="43.289717" lon="-4.294633">
        <ele>1062.0</ele>
        <time>2015-04-28T14:19:33Z</time>
      </trkpt>
      <trkpt lat="43.289650" lon="-4.294633">
        <ele>1062.0</ele>
        <time>2015-04-28T14:19:34Z</time>
      </trkpt>
      <trkpt lat="43.289583" lon="-4.294617">
        <ele>1062.0</ele>
        <time>2015-04-28T14:19:35Z</time>
      </trkpt>
      <trkpt lat="43.289533" lon="-4.294583">
        <ele>1062.0</ele>
        <time>2015-04-28T14:19:36Z</time>
      </trkpt>
      <trkpt lat="43.289500" lon="-4.294550">
        <ele>1063.0</ele>
        <time>2015-04-28T14:19:37Z</time>
      </trkpt>
      <trkpt lat="43.289467" lon="-4.294517">
        <ele>1063.0</ele>
        <time>2015-04-28T14:19:38Z</time>
      </trkpt>
      <trkpt lat="43.289450" lon="-4.294467">
        <ele>1063.0</ele>
        <time>2015-04-28T14:19:39Z</time>
      </trkpt>
      <trkpt lat="43.289433" lon="-4.294433">
        <ele>1063.0</ele>
        <time>2015-04-28T14:19:40Z</time>
      </trkpt>
      <trkpt lat="43.289433" lon="-4.294367">
        <ele>1064.0</ele>
        <time>2015-04-28T14:19:41Z</time>
      </trkpt>
      <trkpt lat="43.289450" lon="-4.294317">
        <ele>1064.0</ele>
        <time>2015-04-28T14:19:42Z</time>
      </trkpt>
      <trkpt lat="43.289467" lon="-4.294250">
        <ele>1065.0</ele>
        <time>2015-04-28T14:19:43Z</time>
      </trkpt>
      <trkpt lat="43.289483" lon="-4.294183">
        <ele>1067.0</ele>
        <time>2015-04-28T14:19:44Z</time>
      </trkpt>
      <trkpt lat="43.289517" lon="-4.294117">
        <ele>1067.0</ele>
        <time>2015-04-28T14:19:45Z</time>
      </trkpt>
      <trkpt lat="43.289533" lon="-4.294067">
        <ele>1069.0</ele>
        <time>2015-04-28T14:19:46Z</time>
      </trkpt>
      <trkpt lat="43.289567" lon="-4.294000">
        <ele>1070.0</ele>
        <time>2015-04-28T14:19:47Z</time>
      </trkpt>
      <trkpt lat="43.289583" lon="-4.293950">
        <ele>1072.0</ele>
        <time>2015-04-28T14:19:48Z</time>
      </trkpt>
      <trkpt lat="43.289617" lon="-4.293900">
        <ele>1074.0</ele>
        <time>2015-04-28T14:19:49Z</time>
      </trkpt>
      <trkpt lat="43.289633" lon="-4.293867">
        <ele>1076.0</ele>
        <time>2015-04-28T14:19:50Z</time>
      </trkpt>
      <trkpt lat="43.289650" lon="-4.293833">
        <ele>1077.0</ele>
        <time>2015-04-28T14:19:51Z</time>
      </trkpt>
      <trkpt lat="43.289650" lon="-4.293800">
        <ele>1078.0</ele>
        <time>2015-04-28T14:19:52Z</time>
      </trkpt>
      <trkpt lat="43.289683" lon="-4.293750">
        <ele>1078.0</ele>
        <time>2015-04-28T14:19:53Z</time>
      </trkpt>
      <trkpt lat="43.289700" lon="-4.293700">
        <ele>1079.0</ele>
        <time>2015-04-28T14:19:54Z</time>
      </trkpt>
      <trkpt lat="43.289733" lon="-4.293650">
        <ele>1080.0</ele>
        <time>2015-04-28T14:19:55Z</time>
      </trkpt>
      <trkpt lat="43.289783" lon="-4.293633">
        <ele>1081.0</ele>
        <time>2015-04-28T14:19:56Z</time>
      </trkpt>
      <trkpt lat="43.289800" lon="-4.293600">
        <ele>1081.0</ele>
        <time>2015-04-28T14:19:57Z</time>
      </trkpt>
      <trkpt lat="43.289833" lon="-4.293567">
        <ele>1081.0</ele>
        <time>2015-04-28T14:19:58Z</time>
      </trkpt>
      <trkpt lat="43.289867" lon="-4.293517">
        <ele>1081.0</ele>
        <time>2015-04-28T14:19:59Z</time>
      </trkpt>
      <trkpt lat="43.289900" lon="-4.293483">
        <ele>1081.0</ele>
        <time>2015-04-28T14:20:00Z</time>
      </trkpt>
      <trkpt lat="43.289967" lon="-4.293450">
        <ele>1080.0</ele>
        <time>2015-04-28T14:20:01Z</time>
      </trkpt>
      <trkpt lat="43.290017" lon="-4.293417">
        <ele>1080.0</ele>
        <time>2015-04-28T14:20:02Z</time>
      </trkpt>
      <trkpt lat="43.290083" lon="-4.293400">
        <ele>1080.0</ele>
        <time>2015-04-28T14:20:03Z</time>
      </trkpt>
      <trkpt lat="43.290133" lon="-4.293367">
        <ele>1080.0</ele>
        <time>2015-04-28T14:20:04Z</time>
      </trkpt>
      <trkpt lat="43.290200" lon="-4.293333">
        <ele>1080.0</ele>
        <time>2015-04-28T14:20:05Z</time>
      </trkpt>
      <trkpt lat="43.290267" lon="-4.293267">
        <ele>1079.0</ele>
        <time>2015-04-28T14:20:06Z</time>
      </trkpt>
      <trkpt lat="43.290333" lon="-4.293217">
        <ele>1079.0</ele>
        <time>2015-04-28T14:20:07Z</time>
      </trkpt>
      <trkpt lat="43.290383" lon="-4.293150">
        <ele>1079.0</ele>
        <time>2015-04-28T14:20:08Z</time>
      </trkpt>
      <trkpt lat="43.290433" lon="-4.293083">
        <ele>1079.0</ele>
        <time>2015-04-28T14:20:09Z</time>
      </trkpt>
      <trkpt lat="43.290467" lon="-4.293017">
        <ele>1079.0</ele>
        <time>2015-04-28T14:20:10Z</time>
      </trkpt>
      <trkpt lat="43.290517" lon="-4.292967">
        <ele>1079.0</ele>
        <time>2015-04-28T14:20:11Z</time>
      </trkpt>
      <trkpt lat="43.290550" lon="-4.292933">
        <ele>1079.0</ele>
        <time>2015-04-28T14:20:12Z</time>
      </trkpt>
      <trkpt lat="43.290600" lon="-4.292917">
        <ele>1078.0</ele>
        <time>2015-04-28T14:20:13Z</time>
      </trkpt>
      <trkpt lat="43.290633" lon="-4.292883">
        <ele>1078.0</ele>
        <time>2015-04-28T14:20:14Z</time>
      </trkpt>
      <trkpt lat="43.290667" lon="-4.292833">
        <ele>1078.0</ele>
        <time>2015-04-28T14:20:15Z</time>
      </trkpt>
      <trkpt lat="43.290700" lon="-4.292783">
        <ele>1077.0</ele>
        <time>2015-04-28T14:20:16Z</time>
      </trkpt>
      <trkpt lat="43.290750" lon="-4.292750">
        <ele>1076.0</ele>
        <time>2015-04-28T14:20:17Z</time>
      </trkpt>
      <trkpt lat="43.290800" lon="-4.292717">
        <ele>1075.0</ele>
        <time>2015-04-28T14:20:18Z</time>
      </trkpt>
      <trkpt lat="43.290850" lon="-4.292683">
        <ele>1074.0</ele>
        <time>2015-04-28T14:20:19Z</time>
      </trkpt>
      <trkpt lat="43.290900" lon="-4.292633">
        <ele>1074.0</ele>
        <time>2015-04-28T14:20:20Z</time>
      </trkpt>
      <trkpt lat="43.290933" lon="-4.292583">
        <ele>1073.0</ele>
        <time>2015-04-28T14:20:21Z</time>
      </trkpt>
      <trkpt lat="43.290950" lon="-4.292500">
        <ele>1071.0</ele>
        <time>2015-04-28T14:20:22Z</time>
      </trkpt>
      <trkpt lat="43.290983" lon="-4.292433">
        <ele>1070.0</ele>
        <time>2015-04-28T14:20:23Z</time>
      </trkpt>
      <trkpt lat="43.291000" lon="-4.292383">
        <ele>1070.0</ele>
        <time>2015-04-28T14:20:24Z</time>
      </trkpt>
      <trkpt lat="43.291017" lon="-4.292333">
        <ele>1069.0</ele>
        <time>2015-04-28T14:20:25Z</time>
      </trkpt>
      <trkpt lat="43.291050" lon="-4.292283">
        <ele>1068.0</ele>
        <time>2015-04-28T14:20:26Z</time>
      </trkpt>
      <trkpt lat="43.291050" lon="-4.292233">
        <ele>1066.0</ele>
        <time>2015-04-28T14:20:27Z</time>
      </trkpt>
      <trkpt lat="43.291067" lon="-4.292167">
        <ele>1064.0</ele>
        <time>2015-04-28T14:20:28Z</time>
      </trkpt>
      <trkpt lat="43.291067" lon="-4.292083">
        <ele>1062.0</ele>
        <time>2015-04-28T14:20:29Z</time>
      </trkpt>
      <trkpt lat="43.291083" lon="-4.292033">
        <ele>1060.0</ele>
        <time>2015-04-28T14:20:30Z</time>
      </trkpt>
      <trkpt lat="43.291117" lon="-4.291967">
        <ele>1059.0</ele>
        <time>2015-04-28T14:20:31Z</time>
      </trkpt>
      <trkpt lat="43.291133" lon="-4.291933">
        <ele>1058.0</ele>
        <time>2015-04-28T14:20:32Z</time>
      </trkpt>
      <trkpt lat="43.291167" lon="-4.291883">
        <ele>1056.0</ele>
        <time>2015-04-28T14:20:33Z</time>
      </trkpt>
      <trkpt lat="43.291183" lon="-4.291817">
        <ele>1053.0</ele>
        <time>2015-04-28T14:20:34Z</time>
      </trkpt>
      <trkpt lat="43.291183" lon="-4.291733">
        <ele>1051.0</ele>
        <time>2015-04-28T14:20:35Z</time>
      </trkpt>
      <trkpt lat="43.291200" lon="-4.291650">
        <ele>1050.0</ele>
        <time>2015-04-28T14:20:36Z</time>
      </trkpt>
      <trkpt lat="43.291217" lon="-4.291583">
        <ele>1049.0</ele>
        <time>2015-04-28T14:20:37Z</time>
      </trkpt>
      <trkpt lat="43.291217" lon="-4.291533">
        <ele>1048.0</ele>
        <time>2015-04-28T14:20:38Z</time>
      </trkpt>
      <trkpt lat="43.291233" lon="-4.291500">
        <ele>1048.0</ele>
        <time>2015-04-28T14:20:39Z</time>
      </trkpt>
      <trkpt lat="43.291250" lon="-4.291467">
        <ele>1048.0</ele>
        <time>2015-04-28T14:20:40Z</time>
      </trkpt>
      <trkpt lat="43.291250" lon="-4.291417">
        <ele>1047.0</ele>
        <time>2015-04-28T14:20:41Z</time>
      </trkpt>
      <trkpt lat="43.291267" lon="-4.291333">
        <ele>1044.0</ele>
        <time>2015-04-28T14:20:42Z</time>
      </trkpt>
      <trkpt lat="43.291267" lon="-4.291267">
        <ele>1041.0</ele>
        <time>2015-04-28T14:20:43Z</time>
      </trkpt>
      <trkpt lat="43.291283" lon="-4.291183">
        <ele>1039.0</ele>
        <time>2015-04-28T14:20:44Z</time>
      </trkpt>
      <trkpt lat="43.291317" lon="-4.291117">
        <ele>1037.0</ele>
        <time>2015-04-28T14:20:45Z</time>
      </trkpt>
      <trkpt lat="43.291333" lon="-4.291067">
        <ele>1035.0</ele>
        <time>2015-04-28T14:20:46Z</time>
      </trkpt>
      <trkpt lat="43.291367" lon="-4.291000">
        <ele>1033.0</ele>
        <time>2015-04-28T14:20:47Z</time>
      </trkpt>
      <trkpt lat="43.291400" lon="-4.290950">
        <ele>1030.0</ele>
        <time>2015-04-28T14:20:48Z</time>
      </trkpt>
      <trkpt lat="43.291417" lon="-4.290867">
        <ele>1028.0</ele>
        <time>2015-04-28T14:20:49Z</time>
      </trkpt>
      <trkpt lat="43.291433" lon="-4.290783">
        <ele>1026.0</ele>
        <time>2015-04-28T14:20:50Z</time>
      </trkpt>
      <trkpt lat="43.291467" lon="-4.290700">
        <ele>1025.0</ele>
        <time>2015-04-28T14:20:51Z</time>
      </trkpt>
      <trkpt lat="43.291500" lon="-4.290633">
        <ele>1025.0</ele>
        <time>2015-04-28T14:20:52Z</time>
      </trkpt>
      <trkpt lat="43.291517" lon="-4.290567">
        <ele>1024.0</ele>
        <time>2015-04-28T14:20:53Z</time>
      </trkpt>
      <trkpt lat="43.291533" lon="-4.290517">
        <ele>1024.0</ele>
        <time>2015-04-28T14:20:54Z</time>
      </trkpt>
      <trkpt lat="43.291533" lon="-4.290450">
        <ele>1023.0</ele>
        <time>2015-04-28T14:20:55Z</time>
      </trkpt>
      <trkpt lat="43.291550" lon="-4.290383">
        <ele>1024.0</ele>
        <time>2015-04-28T14:20:56Z</time>
      </trkpt>
      <trkpt lat="43.291567" lon="-4.290317">
        <ele>1022.0</ele>
        <time>2015-04-28T14:20:57Z</time>
      </trkpt>
      <trkpt lat="43.291583" lon="-4.290250">
        <ele>1020.0</ele>
        <time>2015-04-28T14:20:58Z</time>
      </trkpt>
      <trkpt lat="43.291617" lon="-4.290183">
        <ele>1018.0</ele>
        <time>2015-04-28T14:20:59Z</time>
      </trkpt>
      <trkpt lat="43.291617" lon="-4.290133">
        <ele>1017.0</ele>
        <time>2015-04-28T14:21:00Z</time>
      </trkpt>
      <trkpt lat="43.291633" lon="-4.290083">
        <ele>1016.0</ele>
        <time>2015-04-28T14:21:01Z</time>
      </trkpt>
      <trkpt lat="43.291633" lon="-4.290033">
        <ele>1015.0</ele>
        <time>2015-04-28T14:21:02Z</time>
      </trkpt>
      <trkpt lat="43.291650" lon="-4.289983">
        <ele>1013.0</ele>
        <time>2015-04-28T14:21:03Z</time>
      </trkpt>
      <trkpt lat="43.291667" lon="-4.289917">
        <ele>1011.0</ele>
        <time>2015-04-28T14:21:04Z</time>
      </trkpt>
      <trkpt lat="43.291683" lon="-4.289850">
        <ele>1009.0</ele>
        <time>2015-04-28T14:21:05Z</time>
      </trkpt>
      <trkpt lat="43.291700" lon="-4.289783">
        <ele>1008.0</ele>
        <time>2015-04-28T14:21:06Z</time>
      </trkpt>
      <trkpt lat="43.291700" lon="-4.289717">
        <ele>1006.0</ele>
        <time>2015-04-28T14:21:07Z</time>
      </trkpt>
      <trkpt lat="43.291700" lon="-4.289650">
        <ele>1005.0</ele>
        <time>2015-04-28T14:21:08Z</time>
      </trkpt>
      <trkpt lat="43.291717" lon="-4.289567">
        <ele>1005.0</ele>
        <time>2015-04-28T14:21:09Z</time>
      </trkpt>
      <trkpt lat="43.291733" lon="-4.289500">
        <ele>1004.0</ele>
        <time>2015-04-28T14:21:10Z</time>
      </trkpt>
      <trkpt lat="43.291750" lon="-4.289433">
        <ele>1002.0</ele>
        <time>2015-04-28T14:21:11Z</time>
      </trkpt>
      <trkpt lat="43.291767" lon="-4.289367">
        <ele>1001.0</ele>
        <time>2015-04-28T14:21:12Z</time>
      </trkpt>
      <trkpt lat="43.291783" lon="-4.289283">
        <ele>1001.0</ele>
        <time>2015-04-28T14:21:13Z</time>
      </trkpt>
      <trkpt lat="43.291783" lon="-4.289217">
        <ele>1000.0</ele>
        <time>2015-04-28T14:21:14Z</time>
      </trkpt>
      <trkpt lat="43.291800" lon="-4.289150">
        <ele>999.0</ele>
        <time>2015-04-28T14:21:15Z</time>
      </trkpt>
      <trkpt lat="43.291817" lon="-4.289083">
        <ele>997.0</ele>
        <time>2015-04-28T14:21:16Z</time>
      </trkpt>
      <trkpt lat="43.291833" lon="-4.289017">
        <ele>996.0</ele>
        <time>2015-04-28T14:21:17Z</time>
      </trkpt>
      <trkpt lat="43.291850" lon="-4.288950">
        <ele>994.0</ele>
        <time>2015-04-28T14:21:18Z</time>
      </trkpt>
      <trkpt lat="43.291850" lon="-4.288867">
        <ele>993.0</ele>
        <time>2015-04-28T14:21:19Z</time>
      </trkpt>
      <trkpt lat="43.291850" lon="-4.288800">
        <ele>992.0</ele>
        <time>2015-04-28T14:21:20Z</time>
      </trkpt>
      <trkpt lat="43.291850" lon="-4.288717">
        <ele>991.0</ele>
        <time>2015-04-28T14:21:21Z</time>
      </trkpt>
      <trkpt lat="43.291867" lon="-4.288650">
        <ele>990.0</ele>
        <time>2015-04-28T14:21:22Z</time>
      </trkpt>
      <trkpt lat="43.291867" lon="-4.288567">
        <ele>989.0</ele>
        <time>2015-04-28T14:21:23Z</time>
      </trkpt>
      <trkpt lat="43.291883" lon="-4.288500">
        <ele>990.0</ele>
        <time>2015-04-28T14:21:24Z</time>
      </trkpt>
      <trkpt lat="43.291883" lon="-4.288433">
        <ele>990.0</ele>
        <time>2015-04-28T14:21:25Z</time>
      </trkpt>
      <trkpt lat="43.291883" lon="-4.288367">
        <ele>989.0</ele>
        <time>2015-04-28T14:21:26Z</time>
      </trkpt>
      <trkpt lat="43.291883" lon="-4.288283">
        <ele>988.0</ele>
        <time>2015-04-28T14:21:27Z</time>
      </trkpt>
      <trkpt lat="43.291883" lon="-4.288217">
        <ele>986.0</ele>
        <time>2015-04-28T14:21:28Z</time>
      </trkpt>
      <trkpt lat="43.291883" lon="-4.288133">
        <ele>985.0</ele>
        <time>2015-04-28T14:21:29Z</time>
      </trkpt>
      <trkpt lat="43.291883" lon="-4.288050">
        <ele>985.0</ele>
        <time>2015-04-28T14:21:30Z</time>
      </trkpt>
      <trkpt lat="43.291883" lon="-4.287967">
        <ele>984.0</ele>
        <time>2015-04-28T14:21:31Z</time>
      </trkpt>
      <trkpt lat="43.291883" lon="-4.287900">
        <ele>983.0</ele>
        <time>2015-04-28T14:21:32Z</time>
      </trkpt>
      <trkpt lat="43.291867" lon="-4.287817">
        <ele>983.0</ele>
        <time>2015-04-28T14:21:33Z</time>
      </trkpt>
      <trkpt lat="43.291867" lon="-4.287733">
        <ele>981.0</ele>
        <time>2015-04-28T14:21:34Z</time>
      </trkpt>
      <trkpt lat="43.291850" lon="-4.287650">
        <ele>981.0</ele>
        <time>2015-04-28T14:21:35Z</time>
      </trkpt>
      <trkpt lat="43.291850" lon="-4.287583">
        <ele>979.0</ele>
        <time>2015-04-28T14:21:36Z</time>
      </trkpt>
      <trkpt lat="43.291850" lon="-4.287500">
        <ele>977.0</ele>
        <time>2015-04-28T14:21:37Z</time>
      </trkpt>
      <trkpt lat="43.291867" lon="-4.287417">
        <ele>976.0</ele>
        <time>2015-04-28T14:21:38Z</time>
      </trkpt>
      <trkpt lat="43.291867" lon="-4.287350">
        <ele>975.0</ele>
        <time>2015-04-28T14:21:39Z</time>
      </trkpt>
      <trkpt lat="43.291867" lon="-4.287300">
        <ele>975.0</ele>
        <time>2015-04-28T14:21:40Z</time>
      </trkpt>
      <trkpt lat="43.291883" lon="-4.287233">
        <ele>974.0</ele>
        <time>2015-04-28T14:21:41Z</time>
      </trkpt>
      <trkpt lat="43.291883" lon="-4.287167">
        <ele>973.0</ele>
        <time>2015-04-28T14:21:42Z</time>
      </trkpt>
      <trkpt lat="43.291883" lon="-4.287117">
        <ele>972.0</ele>
        <time>2015-04-28T14:21:43Z</time>
      </trkpt>
      <trkpt lat="43.291883" lon="-4.287033">
        <ele>972.0</ele>
        <time>2015-04-28T14:21:44Z</time>
      </trkpt>
      <trkpt lat="43.291883" lon="-4.286967">
        <ele>973.0</ele>
        <time>2015-04-28T14:21:45Z</time>
      </trkpt>
      <trkpt lat="43.291867" lon="-4.286900">
        <ele>973.0</ele>
        <time>2015-04-28T14:21:46Z</time>
      </trkpt>
      <trkpt lat="43.291867" lon="-4.286850">
        <ele>974.0</ele>
        <time>2015-04-28T14:21:47Z</time>
      </trkpt>
      <trkpt lat="43.291867" lon="-4.286783">
        <ele>975.0</ele>
        <time>2015-04-28T14:21:48Z</time>
      </trkpt>
      <trkpt lat="43.291867" lon="-4.286733">
        <ele>975.0</ele>
        <time>2015-04-28T14:21:49Z</time>
      </trkpt>
      <trkpt lat="43.291867" lon="-4.286683">
        <ele>975.0</ele>
        <time>2015-04-28T14:21:50Z</time>
      </trkpt>
      <trkpt lat="43.291867" lon="-4.286617">
        <ele>975.0</ele>
        <time>2015-04-28T14:21:51Z</time>
      </trkpt>
      <trkpt lat="43.291850" lon="-4.286567">
        <ele>975.0</ele>
        <time>2015-04-28T14:21:52Z</time>
      </trkpt>
      <trkpt lat="43.291850" lon="-4.286517">
        <ele>975.0</ele>
        <time>2015-04-28T14:21:53Z</time>
      </trkpt>
      <trkpt lat="43.291850" lon="-4.286467">
        <ele>975.0</ele>
        <time>2015-04-28T14:21:54Z</time>
      </trkpt>
      <trkpt lat="43.291850" lon="-4.286417">
        <ele>974.0</ele>
        <time>2015-04-28T14:21:55Z</time>
      </trkpt>
      <trkpt lat="43.291850" lon="-4.286367">
        <ele>973.0</ele>
        <time>2015-04-28T14:21:56Z</time>
      </trkpt>
      <trkpt lat="43.291850" lon="-4.286300">
        <ele>971.0</ele>
        <time>2015-04-28T14:21:57Z</time>
      </trkpt>
      <trkpt lat="43.291850" lon="-4.286233">
        <ele>969.0</ele>
        <time>2015-04-28T14:21:58Z</time>
      </trkpt>
      <trkpt lat="43.291850" lon="-4.286183">
        <ele>968.0</ele>
        <time>2015-04-28T14:21:59Z</time>
      </trkpt>
      <trkpt lat="43.291867" lon="-4.286100">
        <ele>968.0</ele>
        <time>2015-04-28T14:22:00Z</time>
      </trkpt>
      <trkpt lat="43.291867" lon="-4.286033">
        <ele>967.0</ele>
        <time>2015-04-28T14:22:01Z</time>
      </trkpt>
      <trkpt lat="43.291867" lon="-4.285967">
        <ele>966.0</ele>
        <time>2015-04-28T14:22:02Z</time>
      </trkpt>
      <trkpt lat="43.291867" lon="-4.285917">
        <ele>965.0</ele>
        <time>2015-04-28T14:22:03Z</time>
      </trkpt>
      <trkpt lat="43.291900" lon="-4.285850">
        <ele>965.0</ele>
        <time>2015-04-28T14:22:04Z</time>
      </trkpt>
      <trkpt lat="43.291917" lon="-4.285800">
        <ele>964.0</ele>
        <time>2015-04-28T14:22:05Z</time>
      </trkpt>
      <trkpt lat="43.291933" lon="-4.285750">
        <ele>963.0</ele>
        <time>2015-04-28T14:22:06Z</time>
      </trkpt>
      <trkpt lat="43.291967" lon="-4.285683">
        <ele>962.0</ele>
        <time>2015-04-28T14:22:07Z</time>
      </trkpt>
      <trkpt lat="43.291983" lon="-4.285633">
        <ele>961.0</ele>
        <time>2015-04-28T14:22:08Z</time>
      </trkpt>
      <trkpt lat="43.291983" lon="-4.285567">
        <ele>959.0</ele>
        <time>2015-04-28T14:22:09Z</time>
      </trkpt>
      <trkpt lat="43.292000" lon="-4.285500">
        <ele>958.0</ele>
        <time>2015-04-28T14:22:10Z</time>
      </trkpt>
      <trkpt lat="43.292017" lon="-4.285433">
        <ele>956.0</ele>
        <time>2015-04-28T14:22:11Z</time>
      </trkpt>
      <trkpt lat="43.292033" lon="-4.285367">
        <ele>954.0</ele>
        <time>2015-04-28T14:22:12Z</time>
      </trkpt>
      <trkpt lat="43.292033" lon="-4.285283">
        <ele>952.0</ele>
        <time>2015-04-28T14:22:13Z</time>
      </trkpt>
      <trkpt lat="43.292050" lon="-4.285200">
        <ele>950.0</ele>
        <time>2015-04-28T14:22:14Z</time>
      </trkpt>
      <trkpt lat="43.292050" lon="-4.285133">
        <ele>949.0</ele>
        <time>2015-04-28T14:22:15Z</time>
      </trkpt>
      <trkpt lat="43.292050" lon="-4.285067">
        <ele>948.0</ele>
        <time>2015-04-28T14:22:16Z</time>
      </trkpt>
      <trkpt lat="43.292067" lon="-4.285000">
        <ele>947.0</ele>
        <time>2015-04-28T14:22:17Z</time>
      </trkpt>
      <trkpt lat="43.292067" lon="-4.284933">
        <ele>946.0</ele>
        <time>2015-04-28T14:22:18Z</time>
      </trkpt>
      <trkpt lat="43.292067" lon="-4.284867">
        <ele>945.0</ele>
        <time>2015-04-28T14:22:19Z</time>
      </trkpt>
      <trkpt lat="43.292067" lon="-4.284800">
        <ele>944.0</ele>
        <time>2015-04-28T14:22:20Z</time>
      </trkpt>
      <trkpt lat="43.292083" lon="-4.284733">
        <ele>943.0</ele>
        <time>2015-04-28T14:22:21Z</time>
      </trkpt>
      <trkpt lat="43.292083" lon="-4.284650">
        <ele>942.0</ele>
        <time>2015-04-28T14:22:22Z</time>
      </trkpt>
      <trkpt lat="43.292100" lon="-4.284583">
        <ele>941.0</ele>
        <time>2015-04-28T14:22:23Z</time>
      </trkpt>
      <trkpt lat="43.292100" lon="-4.284517">
        <ele>940.0</ele>
        <time>2015-04-28T14:22:24Z</time>
      </trkpt>
      <trkpt lat="43.292117" lon="-4.284433">
        <ele>939.0</ele>
        <time>2015-04-28T14:22:25Z</time>
      </trkpt>
      <trkpt lat="43.292117" lon="-4.284367">
        <ele>938.0</ele>
        <time>2015-04-28T14:22:26Z</time>
      </trkpt>
      <trkpt lat="43.292133" lon="-4.284300">
        <ele>938.0</ele>
        <time>2015-04-28T14:22:27Z</time>
      </trkpt>
      <trkpt lat="43.292150" lon="-4.284233">
        <ele>937.0</ele>
        <time>2015-04-28T14:22:28Z</time>
      </trkpt>
      <trkpt lat="43.292167" lon="-4.284183">
        <ele>937.0</ele>
        <time>2015-04-28T14:22:29Z</time>
      </trkpt>
      <trkpt lat="43.292167" lon="-4.284133">
        <ele>935.0</ele>
        <time>2015-04-28T14:22:30Z</time>
      </trkpt>
      <trkpt lat="43.292183" lon="-4.284083">
        <ele>934.0</ele>
        <time>2015-04-28T14:22:31Z</time>
      </trkpt>
      <trkpt lat="43.292183" lon="-4.284017">
        <ele>932.0</ele>
        <time>2015-04-28T14:22:32Z</time>
      </trkpt>
      <trkpt lat="43.292183" lon="-4.283950">
        <ele>930.0</ele>
        <time>2015-04-28T14:22:33Z</time>
      </trkpt>
      <trkpt lat="43.292183" lon="-4.283867">
        <ele>929.0</ele>
        <time>2015-04-28T14:22:34Z</time>
      </trkpt>
      <trkpt lat="43.292183" lon="-4.283800">
        <ele>929.0</ele>
        <time>2015-04-28T14:22:35Z</time>
      </trkpt>
      <trkpt lat="43.292183" lon="-4.283750">
        <ele>928.0</ele>
        <time>2015-04-28T14:22:36Z</time>
      </trkpt>
      <trkpt lat="43.292167" lon="-4.283683">
        <ele>926.0</ele>
        <time>2015-04-28T14:22:37Z</time>
      </trkpt>
      <trkpt lat="43.292183" lon="-4.283617">
        <ele>924.0</ele>
        <time>2015-04-28T14:22:38Z</time>
      </trkpt>
      <trkpt lat="43.292183" lon="-4.283533">
        <ele>922.0</ele>
        <time>2015-04-28T14:22:39Z</time>
      </trkpt>
      <trkpt lat="43.292200" lon="-4.283450">
        <ele>920.0</ele>
        <time>2015-04-28T14:22:40Z</time>
      </trkpt>
      <trkpt lat="43.292217" lon="-4.283383">
        <ele>918.0</ele>
        <time>2015-04-28T14:22:41Z</time>
      </trkpt>
      <trkpt lat="43.292217" lon="-4.283300">
        <ele>918.0</ele>
        <time>2015-04-28T14:22:42Z</time>
      </trkpt>
      <trkpt lat="43.292233" lon="-4.283233">
        <ele>917.0</ele>
        <time>2015-04-28T14:22:43Z</time>
      </trkpt>
      <trkpt lat="43.292233" lon="-4.283167">
        <ele>916.0</ele>
        <time>2015-04-28T14:22:44Z</time>
      </trkpt>
      <trkpt lat="43.292250" lon="-4.283117">
        <ele>915.0</ele>
        <time>2015-04-28T14:22:45Z</time>
      </trkpt>
      <trkpt lat="43.292267" lon="-4.283033">
        <ele>914.0</ele>
        <time>2015-04-28T14:22:46Z</time>
      </trkpt>
      <trkpt lat="43.292283" lon="-4.282967">
        <ele>913.0</ele>
        <time>2015-04-28T14:22:47Z</time>
      </trkpt>
      <trkpt lat="43.292283" lon="-4.282900">
        <ele>911.0</ele>
        <time>2015-04-28T14:22:48Z</time>
      </trkpt>
      <trkpt lat="43.292300" lon="-4.282833">
        <ele>910.0</ele>
        <time>2015-04-28T14:22:49Z</time>
      </trkpt>
      <trkpt lat="43.292300" lon="-4.282767">
        <ele>907.0</ele>
        <time>2015-04-28T14:22:50Z</time>
      </trkpt>
      <trkpt lat="43.292317" lon="-4.282683">
        <ele>905.0</ele>
        <time>2015-04-28T14:22:51Z</time>
      </trkpt>
      <trkpt lat="43.292333" lon="-4.282600">
        <ele>903.0</ele>
        <time>2015-04-28T14:22:52Z</time>
      </trkpt>
      <trkpt lat="43.292367" lon="-4.282517">
        <ele>901.0</ele>
        <time>2015-04-28T14:22:53Z</time>
      </trkpt>
      <trkpt lat="43.292383" lon="-4.282450">
        <ele>899.0</ele>
        <time>2015-04-28T14:22:54Z</time>
      </trkpt>
      <trkpt lat="43.292417" lon="-4.282367">
        <ele>898.0</ele>
        <time>2015-04-28T14:22:55Z</time>
      </trkpt>
      <trkpt lat="43.292433" lon="-4.282317">
        <ele>897.0</ele>
        <time>2015-04-28T14:22:56Z</time>
      </trkpt>
      <trkpt lat="43.292450" lon="-4.282250">
        <ele>896.0</ele>
        <time>2015-04-28T14:22:57Z</time>
      </trkpt>
      <trkpt lat="43.292467" lon="-4.282183">
        <ele>894.0</ele>
        <time>2015-04-28T14:22:58Z</time>
      </trkpt>
      <trkpt lat="43.292467" lon="-4.282100">
        <ele>894.0</ele>
        <time>2015-04-28T14:22:59Z</time>
      </trkpt>
      <trkpt lat="43.292483" lon="-4.282033">
        <ele>892.0</ele>
        <time>2015-04-28T14:23:00Z</time>
      </trkpt>
      <trkpt lat="43.292500" lon="-4.281950">
        <ele>891.0</ele>
        <time>2015-04-28T14:23:01Z</time>
      </trkpt>
      <trkpt lat="43.292517" lon="-4.281867">
        <ele>889.0</ele>
        <time>2015-04-28T14:23:02Z</time>
      </trkpt>
      <trkpt lat="43.292517" lon="-4.281800">
        <ele>887.0</ele>
        <time>2015-04-28T14:23:03Z</time>
      </trkpt>
      <trkpt lat="43.292533" lon="-4.281717">
        <ele>886.0</ele>
        <time>2015-04-28T14:23:04Z</time>
      </trkpt>
      <trkpt lat="43.292533" lon="-4.281633">
        <ele>885.0</ele>
        <time>2015-04-28T14:23:05Z</time>
      </trkpt>
      <trkpt lat="43.292550" lon="-4.281567">
        <ele>885.0</ele>
        <time>2015-04-28T14:23:06Z</time>
      </trkpt>
      <trkpt lat="43.292550" lon="-4.281500">
        <ele>884.0</ele>
        <time>2015-04-28T14:23:07Z</time>
      </trkpt>
      <trkpt lat="43.292550" lon="-4.281433">
        <ele>883.0</ele>
        <time>2015-04-28T14:23:08Z</time>
      </trkpt>
      <trkpt lat="43.292550" lon="-4.281350">
        <ele>882.0</ele>
        <time>2015-04-28T14:23:09Z</time>
      </trkpt>
      <trkpt lat="43.292550" lon="-4.281283">
        <ele>881.0</ele>
        <time>2015-04-28T14:23:10Z</time>
      </trkpt>
      <trkpt lat="43.292567" lon="-4.281200">
        <ele>879.0</ele>
        <time>2015-04-28T14:23:11Z</time>
      </trkpt>
      <trkpt lat="43.292567" lon="-4.281117">
        <ele>878.0</ele>
        <time>2015-04-28T14:23:12Z</time>
      </trkpt>
      <trkpt lat="43.292583" lon="-4.281050">
        <ele>878.0</ele>
        <time>2015-04-28T14:23:13Z</time>
      </trkpt>
      <trkpt lat="43.292583" lon="-4.280983">
        <ele>877.0</ele>
        <time>2015-04-28T14:23:14Z</time>
      </trkpt>
      <trkpt lat="43.292600" lon="-4.280900">
        <ele>877.0</ele>
        <time>2015-04-28T14:23:15Z</time>
      </trkpt>
      <trkpt lat="43.292617" lon="-4.280817">
        <ele>876.0</ele>
        <time>2015-04-28T14:23:16Z</time>
      </trkpt>
      <trkpt lat="43.292633" lon="-4.280733">
        <ele>875.0</ele>
        <time>2015-04-28T14:23:17Z</time>
      </trkpt>
      <trkpt lat="43.292650" lon="-4.280667">
        <ele>874.0</ele>
        <time>2015-04-28T14:23:18Z</time>
      </trkpt>
      <trkpt lat="43.292683" lon="-4.280583">
        <ele>873.0</ele>
        <time>2015-04-28T14:23:19Z</time>
      </trkpt>
      <trkpt lat="43.292700" lon="-4.280517">
        <ele>872.0</ele>
        <time>2015-04-28T14:23:20Z</time>
      </trkpt>
      <trkpt lat="43.292717" lon="-4.280450">
        <ele>871.0</ele>
        <time>2015-04-28T14:23:21Z</time>
      </trkpt>
      <trkpt lat="43.292733" lon="-4.280400">
        <ele>870.0</ele>
        <time>2015-04-28T14:23:22Z</time>
      </trkpt>
      <trkpt lat="43.292750" lon="-4.280333">
        <ele>869.0</ele>
        <time>2015-04-28T14:23:23Z</time>
      </trkpt>
      <trkpt lat="43.292767" lon="-4.280250">
        <ele>868.0</ele>
        <time>2015-04-28T14:23:24Z</time>
      </trkpt>
      <trkpt lat="43.292800" lon="-4.280167">
        <ele>868.0</ele>
        <time>2015-04-28T14:23:25Z</time>
      </trkpt>
      <trkpt lat="43.292817" lon="-4.280100">
        <ele>867.0</ele>
        <time>2015-04-28T14:23:26Z</time>
      </trkpt>
      <trkpt lat="43.292833" lon="-4.280050">
        <ele>866.0</ele>
        <time>2015-04-28T14:23:27Z</time>
      </trkpt>
      <trkpt lat="43.292850" lon="-4.279983">
        <ele>865.0</ele>
        <time>2015-04-28T14:23:28Z</time>
      </trkpt>
      <trkpt lat="43.292867" lon="-4.279917">
        <ele>864.0</ele>
        <time>2015-04-28T14:23:29Z</time>
      </trkpt>
      <trkpt lat="43.292883" lon="-4.279850">
        <ele>862.0</ele>
        <time>2015-04-28T14:23:30Z</time>
      </trkpt>
      <trkpt lat="43.292900" lon="-4.279767">
        <ele>862.0</ele>
        <time>2015-04-28T14:23:31Z</time>
      </trkpt>
      <trkpt lat="43.292917" lon="-4.279700">
        <ele>861.0</ele>
        <time>2015-04-28T14:23:32Z</time>
      </trkpt>
      <trkpt lat="43.292917" lon="-4.279633">
        <ele>861.0</ele>
        <time>2015-04-28T14:23:33Z</time>
      </trkpt>
      <trkpt lat="43.292933" lon="-4.279583">
        <ele>860.0</ele>
        <time>2015-04-28T14:23:34Z</time>
      </trkpt>
      <trkpt lat="43.292950" lon="-4.279517">
        <ele>858.0</ele>
        <time>2015-04-28T14:23:35Z</time>
      </trkpt>
      <trkpt lat="43.292950" lon="-4.279450">
        <ele>857.0</ele>
        <time>2015-04-28T14:23:36Z</time>
      </trkpt>
      <trkpt lat="43.292967" lon="-4.279367">
        <ele>855.0</ele>
        <time>2015-04-28T14:23:37Z</time>
      </trkpt>
      <trkpt lat="43.292983" lon="-4.279300">
        <ele>854.0</ele>
        <time>2015-04-28T14:23:38Z</time>
      </trkpt>
      <trkpt lat="43.293000" lon="-4.279233">
        <ele>853.0</ele>
        <time>2015-04-28T14:23:39Z</time>
      </trkpt>
      <trkpt lat="43.293017" lon="-4.279167">
        <ele>852.0</ele>
        <time>2015-04-28T14:23:40Z</time>
      </trkpt>
      <trkpt lat="43.293033" lon="-4.279083">
        <ele>851.0</ele>
        <time>2015-04-28T14:23:41Z</time>
      </trkpt>
      <trkpt lat="43.293050" lon="-4.279033">
        <ele>850.0</ele>
        <time>2015-04-28T14:23:42Z</time>
      </trkpt>
      <trkpt lat="43.293067" lon="-4.278967">
        <ele>848.0</ele>
        <time>2015-04-28T14:23:43Z</time>
      </trkpt>
      <trkpt lat="43.293100" lon="-4.278900">
        <ele>847.0</ele>
        <time>2015-04-28T14:23:44Z</time>
      </trkpt>
      <trkpt lat="43.293117" lon="-4.278833">
        <ele>846.0</ele>
        <time>2015-04-28T14:23:45Z</time>
      </trkpt>
      <trkpt lat="43.293150" lon="-4.278783">
        <ele>845.0</ele>
        <time>2015-04-28T14:23:46Z</time>
      </trkpt>
      <trkpt lat="43.293167" lon="-4.278717">
        <ele>844.0</ele>
        <time>2015-04-28T14:23:47Z</time>
      </trkpt>
      <trkpt lat="43.293183" lon="-4.278667">
        <ele>843.0</ele>
        <time>2015-04-28T14:23:48Z</time>
      </trkpt>
      <trkpt lat="43.293183" lon="-4.278600">
        <ele>842.0</ele>
        <time>2015-04-28T14:23:49Z</time>
      </trkpt>
      <trkpt lat="43.293200" lon="-4.278533">
        <ele>841.0</ele>
        <time>2015-04-28T14:23:50Z</time>
      </trkpt>
      <trkpt lat="43.293200" lon="-4.278483">
        <ele>839.0</ele>
        <time>2015-04-28T14:23:51Z</time>
      </trkpt>
      <trkpt lat="43.293200" lon="-4.278417">
        <ele>837.0</ele>
        <time>2015-04-28T14:23:52Z</time>
      </trkpt>
      <trkpt lat="43.293200" lon="-4.278350">
        <ele>834.0</ele>
        <time>2015-04-28T14:23:53Z</time>
      </trkpt>
      <trkpt lat="43.293200" lon="-4.278283">
        <ele>833.0</ele>
        <time>2015-04-28T14:23:54Z</time>
      </trkpt>
      <trkpt lat="43.293200" lon="-4.278217">
        <ele>831.0</ele>
        <time>2015-04-28T14:23:55Z</time>
      </trkpt>
      <trkpt lat="43.293200" lon="-4.278150">
        <ele>831.0</ele>
        <time>2015-04-28T14:23:56Z</time>
      </trkpt>
      <trkpt lat="43.293200" lon="-4.278083">
        <ele>829.0</ele>
        <time>2015-04-28T14:23:57Z</time>
      </trkpt>
      <trkpt lat="43.293183" lon="-4.278017">
        <ele>828.0</ele>
        <time>2015-04-28T14:23:58Z</time>
      </trkpt>
      <trkpt lat="43.293183" lon="-4.277950">
        <ele>826.0</ele>
        <time>2015-04-28T14:23:59Z</time>
      </trkpt>
      <trkpt lat="43.293183" lon="-4.277883">
        <ele>825.0</ele>
        <time>2015-04-28T14:24:00Z</time>
      </trkpt>
      <trkpt lat="43.293183" lon="-4.277817">
        <ele>824.0</ele>
        <time>2015-04-28T14:24:01Z</time>
      </trkpt>
      <trkpt lat="43.293167" lon="-4.277750">
        <ele>823.0</ele>
        <time>2015-04-28T14:24:02Z</time>
      </trkpt>
      <trkpt lat="43.293167" lon="-4.277667">
        <ele>823.0</ele>
        <time>2015-04-28T14:24:03Z</time>
      </trkpt>
      <trkpt lat="43.293167" lon="-4.277600">
        <ele>821.0</ele>
        <time>2015-04-28T14:24:04Z</time>
      </trkpt>
      <trkpt lat="43.293150" lon="-4.277517">
        <ele>819.0</ele>
        <time>2015-04-28T14:24:05Z</time>
      </trkpt>
      <trkpt lat="43.293133" lon="-4.277450">
        <ele>817.0</ele>
        <time>2015-04-28T14:24:06Z</time>
      </trkpt>
      <trkpt lat="43.293133" lon="-4.277350">
        <ele>817.0</ele>
        <time>2015-04-28T14:24:07Z</time>
      </trkpt>
      <trkpt lat="43.293133" lon="-4.277267">
        <ele>816.0</ele>
        <time>2015-04-28T14:24:08Z</time>
      </trkpt>
      <trkpt lat="43.293133" lon="-4.277200">
        <ele>815.0</ele>
        <time>2015-04-28T14:24:09Z</time>
      </trkpt>
      <trkpt lat="43.293150" lon="-4.277133">
        <ele>814.0</ele>
        <time>2015-04-28T14:24:10Z</time>
      </trkpt>
      <trkpt lat="43.293150" lon="-4.277050">
        <ele>813.0</ele>
        <time>2015-04-28T14:24:11Z</time>
      </trkpt>
      <trkpt lat="43.293167" lon="-4.276983">
        <ele>811.0</ele>
        <time>2015-04-28T14:24:12Z</time>
      </trkpt>
      <trkpt lat="43.293167" lon="-4.276917">
        <ele>810.0</ele>
        <time>2015-04-28T14:24:13Z</time>
      </trkpt>
      <trkpt lat="43.293183" lon="-4.276850">
        <ele>808.0</ele>
        <time>2015-04-28T14:24:14Z</time>
      </trkpt>
      <trkpt lat="43.293200" lon="-4.276767">
        <ele>807.0</ele>
        <time>2015-04-28T14:24:15Z</time>
      </trkpt>
      <trkpt lat="43.293200" lon="-4.276700">
        <ele>806.0</ele>
        <time>2015-04-28T14:24:16Z</time>
      </trkpt>
      <trkpt lat="43.293200" lon="-4.276633">
        <ele>804.0</ele>
        <time>2015-04-28T14:24:17Z</time>
      </trkpt>
      <trkpt lat="43.293200" lon="-4.276567">
        <ele>805.0</ele>
        <time>2015-04-28T14:24:18Z</time>
      </trkpt>
      <trkpt lat="43.293200" lon="-4.276500">
        <ele>804.0</ele>
        <time>2015-04-28T14:24:19Z</time>
      </trkpt>
      <trkpt lat="43.293200" lon="-4.276417">
        <ele>803.0</ele>
        <time>2015-04-28T14:24:20Z</time>
      </trkpt>
      <trkpt lat="43.293200" lon="-4.276350">
        <ele>802.0</ele>
        <time>2015-04-28T14:24:21Z</time>
      </trkpt>
      <trkpt lat="43.293217" lon="-4.276283">
        <ele>800.0</ele>
        <time>2015-04-28T14:24:22Z</time>
      </trkpt>
      <trkpt lat="43.293217" lon="-4.276200">
        <ele>798.0</ele>
        <time>2015-04-28T14:24:23Z</time>
      </trkpt>
      <trkpt lat="43.293217" lon="-4.276133">
        <ele>796.0</ele>
        <time>2015-04-28T14:24:24Z</time>
      </trkpt>
      <trkpt lat="43.293217" lon="-4.276067">
        <ele>795.0</ele>
        <time>2015-04-28T14:24:25Z</time>
      </trkpt>
      <trkpt lat="43.293217" lon="-4.276000">
        <ele>793.0</ele>
        <time>2015-04-28T14:24:26Z</time>
      </trkpt>
      <trkpt lat="43.293233" lon="-4.275917">
        <ele>791.0</ele>
        <time>2015-04-28T14:24:27Z</time>
      </trkpt>
      <trkpt lat="43.293233" lon="-4.275850">
        <ele>789.0</ele>
        <time>2015-04-28T14:24:28Z</time>
      </trkpt>
      <trkpt lat="43.293217" lon="-4.275767">
        <ele>788.0</ele>
        <time>2015-04-28T14:24:29Z</time>
      </trkpt>
      <trkpt lat="43.293217" lon="-4.275700">
        <ele>786.0</ele>
        <time>2015-04-28T14:24:30Z</time>
      </trkpt>
      <trkpt lat="43.293183" lon="-4.275600">
        <ele>787.0</ele>
        <time>2015-04-28T14:24:31Z</time>
      </trkpt>
      <trkpt lat="43.293183" lon="-4.275500">
        <ele>786.0</ele>
        <time>2015-04-28T14:24:32Z</time>
      </trkpt>
      <trkpt lat="43.293167" lon="-4.275417">
        <ele>785.0</ele>
        <time>2015-04-28T14:24:33Z</time>
      </trkpt>
      <trkpt lat="43.293167" lon="-4.275333">
        <ele>783.0</ele>
        <time>2015-04-28T14:24:34Z</time>
      </trkpt>
      <trkpt lat="43.293167" lon="-4.275250">
        <ele>782.0</ele>
        <time>2015-04-28T14:24:35Z</time>
      </trkpt>
      <trkpt lat="43.293183" lon="-4.275200">
        <ele>779.0</ele>
        <time>2015-04-28T14:24:36Z</time>
      </trkpt>
      <trkpt lat="43.293200" lon="-4.275133">
        <ele>777.0</ele>
        <time>2015-04-28T14:24:37Z</time>
      </trkpt>
      <trkpt lat="43.293217" lon="-4.275067">
        <ele>774.0</ele>
        <time>2015-04-28T14:24:38Z</time>
      </trkpt>
      <trkpt lat="43.293233" lon="-4.275000">
        <ele>770.0</ele>
        <time>2015-04-28T14:24:39Z</time>
      </trkpt>
      <trkpt lat="43.293250" lon="-4.274933">
        <ele>767.0</ele>
        <time>2015-04-28T14:24:40Z</time>
      </trkpt>
      <trkpt lat="43.293283" lon="-4.274867">
        <ele>765.0</ele>
        <time>2015-04-28T14:24:41Z</time>
      </trkpt>
      <trkpt lat="43.293300" lon="-4.274800">
        <ele>763.0</ele>
        <time>2015-04-28T14:24:42Z</time>
      </trkpt>
      <trkpt lat="43.293317" lon="-4.274733">
        <ele>760.0</ele>
        <time>2015-04-28T14:24:43Z</time>
      </trkpt>
      <trkpt lat="43.293317" lon="-4.274667">
        <ele>758.0</ele>
        <time>2015-04-28T14:24:44Z</time>
      </trkpt>
      <trkpt lat="43.293333" lon="-4.274600">
        <ele>755.0</ele>
        <time>2015-04-28T14:24:45Z</time>
      </trkpt>
      <trkpt lat="43.293333" lon="-4.274517">
        <ele>752.0</ele>
        <time>2015-04-28T14:24:46Z</time>
      </trkpt>
      <trkpt lat="43.293333" lon="-4.274417">
        <ele>749.0</ele>
        <time>2015-04-28T14:24:47Z</time>
      </trkpt>
      <trkpt lat="43.293333" lon="-4.274333">
        <ele>747.0</ele>
        <time>2015-04-28T14:24:48Z</time>
      </trkpt>
      <trkpt lat="43.293350" lon="-4.274250">
        <ele>744.0</ele>
        <time>2015-04-28T14:24:49Z</time>
      </trkpt>
      <trkpt lat="43.293350" lon="-4.274183">
        <ele>742.0</ele>
        <time>2015-04-28T14:24:50Z</time>
      </trkpt>
      <trkpt lat="43.293350" lon="-4.274100">
        <ele>740.0</ele>
        <time>2015-04-28T14:24:51Z</time>
      </trkpt>
      <trkpt lat="43.293367" lon="-4.274000">
        <ele>737.0</ele>
        <time>2015-04-28T14:24:52Z</time>
      </trkpt>
      <trkpt lat="43.293367" lon="-4.273917">
        <ele>735.0</ele>
        <time>2015-04-28T14:24:53Z</time>
      </trkpt>
      <trkpt lat="43.293383" lon="-4.273817">
        <ele>733.0</ele>
        <time>2015-04-28T14:24:54Z</time>
      </trkpt>
      <trkpt lat="43.293383" lon="-4.273733">
        <ele>731.0</ele>
        <time>2015-04-28T14:24:55Z</time>
      </trkpt>
      <trkpt lat="43.293400" lon="-4.273633">
        <ele>730.0</ele>
        <time>2015-04-28T14:24:56Z</time>
      </trkpt>
      <trkpt lat="43.293400" lon="-4.273550">
        <ele>727.0</ele>
        <time>2015-04-28T14:24:57Z</time>
      </trkpt>
      <trkpt lat="43.293400" lon="-4.273450">
        <ele>725.0</ele>
        <time>2015-04-28T14:24:58Z</time>
      </trkpt>
      <trkpt lat="43.293417" lon="-4.273350">
        <ele>722.0</ele>
        <time>2015-04-28T14:24:59Z</time>
      </trkpt>
      <trkpt lat="43.293417" lon="-4.273250">
        <ele>720.0</ele>
        <time>2015-04-28T14:25:00Z</time>
      </trkpt>
      <trkpt lat="43.293417" lon="-4.273150">
        <ele>722.0</ele>
        <time>2015-04-28T14:25:01Z</time>
      </trkpt>
      <trkpt lat="43.293417" lon="-4.273050">
        <ele>722.0</ele>
        <time>2015-04-28T14:25:02Z</time>
      </trkpt>
      <trkpt lat="43.293417" lon="-4.272967">
        <ele>721.0</ele>
        <time>2015-04-28T14:25:03Z</time>
      </trkpt>
      <trkpt lat="43.293417" lon="-4.272883">
        <ele>721.0</ele>
        <time>2015-04-28T14:25:04Z</time>
      </trkpt>
      <trkpt lat="43.293417" lon="-4.272783">
        <ele>721.0</ele>
        <time>2015-04-28T14:25:05Z</time>
      </trkpt>
      <trkpt lat="43.293417" lon="-4.272683">
        <ele>720.0</ele>
        <time>2015-04-28T14:25:06Z</time>
      </trkpt>
      <trkpt lat="43.293433" lon="-4.272583">
        <ele>719.0</ele>
        <time>2015-04-28T14:25:07Z</time>
      </trkpt>
      <trkpt lat="43.293450" lon="-4.272500">
        <ele>717.0</ele>
        <time>2015-04-28T14:25:08Z</time>
      </trkpt>
      <trkpt lat="43.293467" lon="-4.272400">
        <ele>716.0</ele>
        <time>2015-04-28T14:25:09Z</time>
      </trkpt>
      <trkpt lat="43.293483" lon="-4.272333">
        <ele>715.0</ele>
        <time>2015-04-28T14:25:10Z</time>
      </trkpt>
      <trkpt lat="43.293500" lon="-4.272250">
        <ele>714.0</ele>
        <time>2015-04-28T14:25:11Z</time>
      </trkpt>
      <trkpt lat="43.293500" lon="-4.272183">
        <ele>714.0</ele>
        <time>2015-04-28T14:25:12Z</time>
      </trkpt>
      <trkpt lat="43.293500" lon="-4.272117">
        <ele>714.0</ele>
        <time>2015-04-28T14:25:13Z</time>
      </trkpt>
      <trkpt lat="43.293500" lon="-4.272033">
        <ele>712.0</ele>
        <time>2015-04-28T14:25:14Z</time>
      </trkpt>
      <trkpt lat="43.293500" lon="-4.271967">
        <ele>710.0</ele>
        <time>2015-04-28T14:25:15Z</time>
      </trkpt>
      <trkpt lat="43.293500" lon="-4.271883">
        <ele>708.0</ele>
        <time>2015-04-28T14:25:16Z</time>
      </trkpt>
      <trkpt lat="43.293517" lon="-4.271817">
        <ele>707.0</ele>
        <time>2015-04-28T14:25:17Z</time>
      </trkpt>
      <trkpt lat="43.293517" lon="-4.271750">
        <ele>705.0</ele>
        <time>2015-04-28T14:25:18Z</time>
      </trkpt>
      <trkpt lat="43.293517" lon="-4.271683">
        <ele>704.0</ele>
        <time>2015-04-28T14:25:19Z</time>
      </trkpt>
      <trkpt lat="43.293517" lon="-4.271617">
        <ele>705.0</ele>
        <time>2015-04-28T14:25:20Z</time>
      </trkpt>
      <trkpt lat="43.293517" lon="-4.271550">
        <ele>704.0</ele>
        <time>2015-04-28T14:25:21Z</time>
      </trkpt>
      <trkpt lat="43.293533" lon="-4.271467">
        <ele>702.0</ele>
        <time>2015-04-28T14:25:22Z</time>
      </trkpt>
      <trkpt lat="43.293550" lon="-4.271400">
        <ele>701.0</ele>
        <time>2015-04-28T14:25:23Z</time>
      </trkpt>
      <trkpt lat="43.293567" lon="-4.271333">
        <ele>700.0</ele>
        <time>2015-04-28T14:25:24Z</time>
      </trkpt>
      <trkpt lat="43.293567" lon="-4.271267">
        <ele>700.0</ele>
        <time>2015-04-28T14:25:25Z</time>
      </trkpt>
      <trkpt lat="43.293567" lon="-4.271200">
        <ele>699.0</ele>
        <time>2015-04-28T14:25:26Z</time>
      </trkpt>
      <trkpt lat="43.293583" lon="-4.271133">
        <ele>698.0</ele>
        <time>2015-04-28T14:25:27Z</time>
      </trkpt>
      <trkpt lat="43.293583" lon="-4.271050">
        <ele>697.0</ele>
        <time>2015-04-28T14:25:28Z</time>
      </trkpt>
      <trkpt lat="43.293600" lon="-4.270983">
        <ele>696.0</ele>
        <time>2015-04-28T14:25:29Z</time>
      </trkpt>
      <trkpt lat="43.293617" lon="-4.270933">
        <ele>696.0</ele>
        <time>2015-04-28T14:25:30Z</time>
      </trkpt>
      <trkpt lat="43.293633" lon="-4.270883">
        <ele>696.0</ele>
        <time>2015-04-28T14:25:31Z</time>
      </trkpt>
      <trkpt lat="43.293650" lon="-4.270850">
        <ele>697.0</ele>
        <time>2015-04-28T14:25:32Z</time>
      </trkpt>
      <trkpt lat="43.293667" lon="-4.270817">
        <ele>698.0</ele>
        <time>2015-04-28T14:25:33Z</time>
      </trkpt>
      <trkpt lat="43.293667" lon="-4.270800">
        <ele>697.0</ele>
        <time>2015-04-28T14:25:34Z</time>
      </trkpt>
      <trkpt lat="43.293667" lon="-4.270783">
        <ele>696.0</ele>
        <time>2015-04-28T14:25:35Z</time>
      </trkpt>
      <trkpt lat="43.293667" lon="-4.270767">
        <ele>696.0</ele>
        <time>2015-04-28T14:25:36Z</time>
      </trkpt>
      <trkpt lat="43.293683" lon="-4.270767">
        <ele>695.0</ele>
        <time>2015-04-28T14:25:37Z</time>
      </trkpt>
      <trkpt lat="43.293700" lon="-4.270750">
        <ele>694.0</ele>
        <time>2015-04-28T14:25:38Z</time>
      </trkpt>
      <trkpt lat="43.293717" lon="-4.270717">
        <ele>692.0</ele>
        <time>2015-04-28T14:25:39Z</time>
      </trkpt>
      <trkpt lat="43.293750" lon="-4.270667">
        <ele>689.0</ele>
        <time>2015-04-28T14:25:40Z</time>
      </trkpt>
      <trkpt lat="43.293783" lon="-4.270583">
        <ele>688.0</ele>
        <time>2015-04-28T14:25:41Z</time>
      </trkpt>
      <trkpt lat="43.293783" lon="-4.270517">
        <ele>687.0</ele>
        <time>2015-04-28T14:25:42Z</time>
      </trkpt>
      <trkpt lat="43.293783" lon="-4.270467">
        <ele>688.0</ele>
        <time>2015-04-28T14:25:43Z</time>
      </trkpt>
      <trkpt lat="43.293800" lon="-4.270417">
        <ele>687.0</ele>
        <time>2015-04-28T14:25:44Z</time>
      </trkpt>
      <trkpt lat="43.293817" lon="-4.270383">
        <ele>686.0</ele>
        <time>2015-04-28T14:25:45Z</time>
      </trkpt>
      <trkpt lat="43.293817" lon="-4.270333">
        <ele>684.0</ele>
        <time>2015-04-28T14:25:46Z</time>
      </trkpt>
      <trkpt lat="43.293833" lon="-4.270250">
        <ele>682.0</ele>
        <time>2015-04-28T14:25:47Z</time>
      </trkpt>
      <trkpt lat="43.293850" lon="-4.270183">
        <ele>681.0</ele>
        <time>2015-04-28T14:25:48Z</time>
      </trkpt>
      <trkpt lat="43.293867" lon="-4.270117">
        <ele>680.0</ele>
        <time>2015-04-28T14:25:49Z</time>
      </trkpt>
      <trkpt lat="43.293867" lon="-4.270050">
        <ele>679.0</ele>
        <time>2015-04-28T14:25:50Z</time>
      </trkpt>
      <trkpt lat="43.293850" lon="-4.270000">
        <ele>678.0</ele>
        <time>2015-04-28T14:25:51Z</time>
      </trkpt>
      <trkpt lat="43.293850" lon="-4.269950">
        <ele>676.0</ele>
        <time>2015-04-28T14:25:52Z</time>
      </trkpt>
      <trkpt lat="43.293867" lon="-4.269883">
        <ele>674.0</ele>
        <time>2015-04-28T14:25:53Z</time>
      </trkpt>
      <trkpt lat="43.293883" lon="-4.269817">
        <ele>671.0</ele>
        <time>2015-04-28T14:25:54Z</time>
      </trkpt>
      <trkpt lat="43.293900" lon="-4.269733">
        <ele>670.0</ele>
        <time>2015-04-28T14:25:55Z</time>
      </trkpt>
      <trkpt lat="43.293917" lon="-4.269633">
        <ele>670.0</ele>
        <time>2015-04-28T14:25:56Z</time>
      </trkpt>
      <trkpt lat="43.293917" lon="-4.269567">
        <ele>670.0</ele>
        <time>2015-04-28T14:25:57Z</time>
      </trkpt>
      <trkpt lat="43.293917" lon="-4.269517">
        <ele>671.0</ele>
        <time>2015-04-28T14:25:58Z</time>
      </trkpt>
      <trkpt lat="43.293917" lon="-4.269483">
        <ele>672.0</ele>
        <time>2015-04-28T14:25:59Z</time>
      </trkpt>
      <trkpt lat="43.293917" lon="-4.269450">
        <ele>673.0</ele>
        <time>2015-04-28T14:26:00Z</time>
      </trkpt>
      <trkpt lat="43.293900" lon="-4.269433">
        <ele>673.0</ele>
        <time>2015-04-28T14:26:01Z</time>
      </trkpt>
      <trkpt lat="43.293900" lon="-4.269417">
        <ele>673.0</ele>
        <time>2015-04-28T14:26:02Z</time>
      </trkpt>
      <trkpt lat="43.293900" lon="-4.269383">
        <ele>674.0</ele>
        <time>2015-04-28T14:26:03Z</time>
      </trkpt>
      <trkpt lat="43.293900" lon="-4.269350">
        <ele>673.0</ele>
        <time>2015-04-28T14:26:04Z</time>
      </trkpt>
      <trkpt lat="43.293900" lon="-4.269317">
        <ele>673.0</ele>
        <time>2015-04-28T14:26:05Z</time>
      </trkpt>
      <trkpt lat="43.293900" lon="-4.269283">
        <ele>673.0</ele>
        <time>2015-04-28T14:26:06Z</time>
      </trkpt>
      <trkpt lat="43.293900" lon="-4.269233">
        <ele>672.0</ele>
        <time>2015-04-28T14:26:07Z</time>
      </trkpt>
      <trkpt lat="43.293917" lon="-4.269167">
        <ele>671.0</ele>
        <time>2015-04-28T14:26:08Z</time>
      </trkpt>
      <trkpt lat="43.293933" lon="-4.269100">
        <ele>670.0</ele>
        <time>2015-04-28T14:26:09Z</time>
      </trkpt>
      <trkpt lat="43.293967" lon="-4.269050">
        <ele>671.0</ele>
        <time>2015-04-28T14:26:10Z</time>
      </trkpt>
      <trkpt lat="43.293983" lon="-4.269000">
        <ele>672.0</ele>
        <time>2015-04-28T14:26:11Z</time>
      </trkpt>
      <trkpt lat="43.293983" lon="-4.268967">
        <ele>672.0</ele>
        <time>2015-04-28T14:26:12Z</time>
      </trkpt>
      <trkpt lat="43.293983" lon="-4.268933">
        <ele>671.0</ele>
        <time>2015-04-28T14:26:13Z</time>
      </trkpt>
      <trkpt lat="43.294000" lon="-4.268883">
        <ele>670.0</ele>
        <time>2015-04-28T14:26:14Z</time>
      </trkpt>
      <trkpt lat="43.294017" lon="-4.268833">
        <ele>669.0</ele>
        <time>2015-04-28T14:26:15Z</time>
      </trkpt>
      <trkpt lat="43.294033" lon="-4.268783">
        <ele>669.0</ele>
        <time>2015-04-28T14:26:16Z</time>
      </trkpt>
      <trkpt lat="43.294033" lon="-4.268733">
        <ele>668.0</ele>
        <time>2015-04-28T14:26:17Z</time>
      </trkpt>
      <trkpt lat="43.294050" lon="-4.268667">
        <ele>667.0</ele>
        <time>2015-04-28T14:26:18Z</time>
      </trkpt>
      <trkpt lat="43.294050" lon="-4.268617">
        <ele>666.0</ele>
        <time>2015-04-28T14:26:19Z</time>
      </trkpt>
      <trkpt lat="43.294067" lon="-4.268550">
        <ele>664.0</ele>
        <time>2015-04-28T14:26:20Z</time>
      </trkpt>
      <trkpt lat="43.294083" lon="-4.268450">
        <ele>662.0</ele>
        <time>2015-04-28T14:26:21Z</time>
      </trkpt>
      <trkpt lat="43.294100" lon="-4.268367">
        <ele>663.0</ele>
        <time>2015-04-28T14:26:22Z</time>
      </trkpt>
      <trkpt lat="43.294117" lon="-4.268300">
        <ele>665.0</ele>
        <time>2015-04-28T14:26:23Z</time>
      </trkpt>
      <trkpt lat="43.294133" lon="-4.268250">
        <ele>666.0</ele>
        <time>2015-04-28T14:26:24Z</time>
      </trkpt>
      <trkpt lat="43.294150" lon="-4.268217">
        <ele>666.0</ele>
        <time>2015-04-28T14:26:25Z</time>
      </trkpt>
      <trkpt lat="43.294150" lon="-4.268183">
        <ele>666.0</ele>
        <time>2015-04-28T14:26:26Z</time>
      </trkpt>
      <trkpt lat="43.294150" lon="-4.268150">
        <ele>666.0</ele>
        <time>2015-04-28T14:26:27Z</time>
      </trkpt>
      <trkpt lat="43.294150" lon="-4.268133">
        <ele>665.0</ele>
        <time>2015-04-28T14:26:28Z</time>
      </trkpt>
      <trkpt lat="43.294167" lon="-4.268100">
        <ele>665.0</ele>
        <time>2015-04-28T14:26:29Z</time>
      </trkpt>
      <trkpt lat="43.294183" lon="-4.268050">
        <ele>663.0</ele>
        <time>2015-04-28T14:26:30Z</time>
      </trkpt>
      <trkpt lat="43.294200" lon="-4.268000">
        <ele>663.0</ele>
        <time>2015-04-28T14:26:31Z</time>
      </trkpt>
      <trkpt lat="43.294217" lon="-4.267933">
        <ele>663.0</ele>
        <time>2015-04-28T14:26:32Z</time>
      </trkpt>
      <trkpt lat="43.294217" lon="-4.267867">
        <ele>663.0</ele>
        <time>2015-04-28T14:26:33Z</time>
      </trkpt>
      <trkpt lat="43.294233" lon="-4.267817">
        <ele>663.0</ele>
        <time>2015-04-28T14:26:34Z</time>
      </trkpt>
      <trkpt lat="43.294250" lon="-4.267767">
        <ele>663.0</ele>
        <time>2015-04-28T14:26:35Z</time>
      </trkpt>
      <trkpt lat="43.294267" lon="-4.267733">
        <ele>662.0</ele>
        <time>2015-04-28T14:26:36Z</time>
      </trkpt>
      <trkpt lat="43.294283" lon="-4.267683">
        <ele>660.0</ele>
        <time>2015-04-28T14:26:37Z</time>
      </trkpt>
      <trkpt lat="43.294300" lon="-4.267633">
        <ele>658.0</ele>
        <time>2015-04-28T14:26:38Z</time>
      </trkpt>
      <trkpt lat="43.294300" lon="-4.267550">
        <ele>657.0</ele>
        <time>2015-04-28T14:26:39Z</time>
      </trkpt>
      <trkpt lat="43.294317" lon="-4.267483">
        <ele>655.0</ele>
        <time>2015-04-28T14:26:40Z</time>
      </trkpt>
      <trkpt lat="43.294317" lon="-4.267417">
        <ele>656.0</ele>
        <time>2015-04-28T14:26:41Z</time>
      </trkpt>
      <trkpt lat="43.294317" lon="-4.267350">
        <ele>656.0</ele>
        <time>2015-04-28T14:26:42Z</time>
      </trkpt>
      <trkpt lat="43.294317" lon="-4.267300">
        <ele>655.0</ele>
        <time>2015-04-28T14:26:43Z</time>
      </trkpt>
      <trkpt lat="43.294317" lon="-4.267250">
        <ele>653.0</ele>
        <time>2015-04-28T14:26:44Z</time>
      </trkpt>
      <trkpt lat="43.294317" lon="-4.267200">
        <ele>651.0</ele>
        <time>2015-04-28T14:26:45Z</time>
      </trkpt>
      <trkpt lat="43.294333" lon="-4.267133">
        <ele>650.0</ele>
        <time>2015-04-28T14:26:46Z</time>
      </trkpt>
      <trkpt lat="43.294350" lon="-4.267067">
        <ele>648.0</ele>
        <time>2015-04-28T14:26:47Z</time>
      </trkpt>
      <trkpt lat="43.294367" lon="-4.267033">
        <ele>648.0</ele>
        <time>2015-04-28T14:26:48Z</time>
      </trkpt>
      <trkpt lat="43.294383" lon="-4.267000">
        <ele>647.0</ele>
        <time>2015-04-28T14:26:49Z</time>
      </trkpt>
      <trkpt lat="43.294400" lon="-4.266983">
        <ele>646.0</ele>
        <time>2015-04-28T14:26:50Z</time>
      </trkpt>
      <trkpt lat="43.294400" lon="-4.266950">
        <ele>644.0</ele>
        <time>2015-04-28T14:26:51Z</time>
      </trkpt>
      <trkpt lat="43.294417" lon="-4.266917">
        <ele>640.0</ele>
        <time>2015-04-28T14:26:52Z</time>
      </trkpt>
      <trkpt lat="43.294433" lon="-4.266850">
        <ele>638.0</ele>
        <time>2015-04-28T14:26:53Z</time>
      </trkpt>
      <trkpt lat="43.294467" lon="-4.266800">
        <ele>636.0</ele>
        <time>2015-04-28T14:26:54Z</time>
      </trkpt>
      <trkpt lat="43.294483" lon="-4.266733">
        <ele>638.0</ele>
        <time>2015-04-28T14:26:55Z</time>
      </trkpt>
      <trkpt lat="43.294467" lon="-4.266683">
        <ele>638.0</ele>
        <time>2015-04-28T14:26:56Z</time>
      </trkpt>
      <trkpt lat="43.294450" lon="-4.266633">
        <ele>638.0</ele>
        <time>2015-04-28T14:26:57Z</time>
      </trkpt>
      <trkpt lat="43.294450" lon="-4.266600">
        <ele>637.0</ele>
        <time>2015-04-28T14:26:58Z</time>
      </trkpt>
      <trkpt lat="43.294467" lon="-4.266550">
        <ele>636.0</ele>
        <time>2015-04-28T14:26:59Z</time>
      </trkpt>
      <trkpt lat="43.294467" lon="-4.266500">
        <ele>635.0</ele>
        <time>2015-04-28T14:27:00Z</time>
      </trkpt>
      <trkpt lat="43.294467" lon="-4.266433">
        <ele>635.0</ele>
        <time>2015-04-28T14:27:01Z</time>
      </trkpt>
      <trkpt lat="43.294467" lon="-4.266383">
        <ele>635.0</ele>
        <time>2015-04-28T14:27:02Z</time>
      </trkpt>
      <trkpt lat="43.294450" lon="-4.266350">
        <ele>634.0</ele>
        <time>2015-04-28T14:27:03Z</time>
      </trkpt>
      <trkpt lat="43.294433" lon="-4.266300">
        <ele>633.0</ele>
        <time>2015-04-28T14:27:04Z</time>
      </trkpt>
      <trkpt lat="43.294417" lon="-4.266250">
        <ele>633.0</ele>
        <time>2015-04-28T14:27:05Z</time>
      </trkpt>
      <trkpt lat="43.294383" lon="-4.266183">
        <ele>632.0</ele>
        <time>2015-04-28T14:27:06Z</time>
      </trkpt>
      <trkpt lat="43.294367" lon="-4.266117">
        <ele>631.0</ele>
        <time>2015-04-28T14:27:07Z</time>
      </trkpt>
      <trkpt lat="43.294367" lon="-4.266033">
        <ele>630.0</ele>
        <time>2015-04-28T14:27:08Z</time>
      </trkpt>
      <trkpt lat="43.294400" lon="-4.266000">
        <ele>629.0</ele>
        <time>2015-04-28T14:27:09Z</time>
      </trkpt>
      <trkpt lat="43.294433" lon="-4.265967">
        <ele>628.0</ele>
        <time>2015-04-28T14:27:10Z</time>
      </trkpt>
      <trkpt lat="43.294467" lon="-4.265933">
        <ele>627.0</ele>
        <time>2015-04-28T14:27:11Z</time>
      </trkpt>
      <trkpt lat="43.294483" lon="-4.265900">
        <ele>626.0</ele>
        <time>2015-04-28T14:27:12Z</time>
      </trkpt>
      <trkpt lat="43.294500" lon="-4.265850">
        <ele>625.0</ele>
        <time>2015-04-28T14:27:13Z</time>
      </trkpt>
      <trkpt lat="43.294533" lon="-4.265783">
        <ele>625.0</ele>
        <time>2015-04-28T14:27:14Z</time>
      </trkpt>
      <trkpt lat="43.294567" lon="-4.265733">
        <ele>624.0</ele>
        <time>2015-04-28T14:27:15Z</time>
      </trkpt>
      <trkpt lat="43.294600" lon="-4.265683">
        <ele>624.0</ele>
        <time>2015-04-28T14:27:16Z</time>
      </trkpt>
      <trkpt lat="43.294600" lon="-4.265633">
        <ele>624.0</ele>
        <time>2015-04-28T14:27:17Z</time>
      </trkpt>
      <trkpt lat="43.294617" lon="-4.265583">
        <ele>623.0</ele>
        <time>2015-04-28T14:27:18Z</time>
      </trkpt>
      <trkpt lat="43.294633" lon="-4.265533">
        <ele>621.0</ele>
        <time>2015-04-28T14:27:19Z</time>
      </trkpt>
      <trkpt lat="43.294667" lon="-4.265467">
        <ele>619.0</ele>
        <time>2015-04-28T14:27:20Z</time>
      </trkpt>
      <trkpt lat="43.294700" lon="-4.265400">
        <ele>618.0</ele>
        <time>2015-04-28T14:27:21Z</time>
      </trkpt>
      <trkpt lat="43.294717" lon="-4.265333">
        <ele>619.0</ele>
        <time>2015-04-28T14:27:22Z</time>
      </trkpt>
      <trkpt lat="43.294750" lon="-4.265283">
        <ele>619.0</ele>
        <time>2015-04-28T14:27:23Z</time>
      </trkpt>
      <trkpt lat="43.294767" lon="-4.265217">
        <ele>618.0</ele>
        <time>2015-04-28T14:27:24Z</time>
      </trkpt>
      <trkpt lat="43.294783" lon="-4.265150">
        <ele>618.0</ele>
        <time>2015-04-28T14:27:25Z</time>
      </trkpt>
      <trkpt lat="43.294800" lon="-4.265100">
        <ele>619.0</ele>
        <time>2015-04-28T14:27:26Z</time>
      </trkpt>
      <trkpt lat="43.294817" lon="-4.265033">
        <ele>619.0</ele>
        <time>2015-04-28T14:27:27Z</time>
      </trkpt>
      <trkpt lat="43.294817" lon="-4.264983">
        <ele>619.0</ele>
        <time>2015-04-28T14:27:28Z</time>
      </trkpt>
      <trkpt lat="43.294817" lon="-4.264917">
        <ele>619.0</ele>
        <time>2015-04-28T14:27:29Z</time>
      </trkpt>
      <trkpt lat="43.294833" lon="-4.264850">
        <ele>619.0</ele>
        <time>2015-04-28T14:27:30Z</time>
      </trkpt>
      <trkpt lat="43.294867" lon="-4.264783">
        <ele>619.0</ele>
        <time>2015-04-28T14:27:31Z</time>
      </trkpt>
      <trkpt lat="43.294883" lon="-4.264750">
        <ele>620.0</ele>
        <time>2015-04-28T14:27:32Z</time>
      </trkpt>
      <trkpt lat="43.294900" lon="-4.264717">
        <ele>620.0</ele>
        <time>2015-04-28T14:27:33Z</time>
      </trkpt>
      <trkpt lat="43.294900" lon="-4.264683">
        <ele>618.0</ele>
        <time>2015-04-28T14:27:34Z</time>
      </trkpt>
      <trkpt lat="43.294900" lon="-4.264633">
        <ele>617.0</ele>
        <time>2015-04-28T14:27:35Z</time>
      </trkpt>
      <trkpt lat="43.294900" lon="-4.264567">
        <ele>615.0</ele>
        <time>2015-04-28T14:27:36Z</time>
      </trkpt>
      <trkpt lat="43.294917" lon="-4.264500">
        <ele>614.0</ele>
        <time>2015-04-28T14:27:37Z</time>
      </trkpt>
      <trkpt lat="43.294967" lon="-4.264433">
        <ele>612.0</ele>
        <time>2015-04-28T14:27:38Z</time>
      </trkpt>
      <trkpt lat="43.295000" lon="-4.264383">
        <ele>611.0</ele>
        <time>2015-04-28T14:27:39Z</time>
      </trkpt>
      <trkpt lat="43.295033" lon="-4.264350">
        <ele>610.0</ele>
        <time>2015-04-28T14:27:40Z</time>
      </trkpt>
      <trkpt lat="43.295083" lon="-4.264300">
        <ele>609.0</ele>
        <time>2015-04-28T14:27:41Z</time>
      </trkpt>
      <trkpt lat="43.295117" lon="-4.264250">
        <ele>608.0</ele>
        <time>2015-04-28T14:27:42Z</time>
      </trkpt>
      <trkpt lat="43.295150" lon="-4.264200">
        <ele>607.0</ele>
        <time>2015-04-28T14:27:43Z</time>
      </trkpt>
      <trkpt lat="43.295183" lon="-4.264150">
        <ele>605.0</ele>
        <time>2015-04-28T14:27:44Z</time>
      </trkpt>
      <trkpt lat="43.295183" lon="-4.264100">
        <ele>603.0</ele>
        <time>2015-04-28T14:27:45Z</time>
      </trkpt>
      <trkpt lat="43.295200" lon="-4.264033">
        <ele>604.0</ele>
        <time>2015-04-28T14:27:46Z</time>
      </trkpt>
      <trkpt lat="43.295217" lon="-4.263967">
        <ele>602.0</ele>
        <time>2015-04-28T14:27:47Z</time>
      </trkpt>
      <trkpt lat="43.295233" lon="-4.263883">
        <ele>601.0</ele>
        <time>2015-04-28T14:27:48Z</time>
      </trkpt>
      <trkpt lat="43.295267" lon="-4.263817">
        <ele>601.0</ele>
        <time>2015-04-28T14:27:49Z</time>
      </trkpt>
      <trkpt lat="43.295300" lon="-4.263750">
        <ele>602.0</ele>
        <time>2015-04-28T14:27:50Z</time>
      </trkpt>
      <trkpt lat="43.295333" lon="-4.263717">
        <ele>603.0</ele>
        <time>2015-04-28T14:27:51Z</time>
      </trkpt>
      <trkpt lat="43.295333" lon="-4.263700">
        <ele>605.0</ele>
        <time>2015-04-28T14:27:52Z</time>
      </trkpt>
      <trkpt lat="43.295350" lon="-4.263683">
        <ele>606.0</ele>
        <time>2015-04-28T14:27:53Z</time>
      </trkpt>
      <trkpt lat="43.295350" lon="-4.263667">
        <ele>606.0</ele>
        <time>2015-04-28T14:27:54Z</time>
      </trkpt>
      <trkpt lat="43.295350" lon="-4.263667">
        <ele>606.0</ele>
        <time>2015-04-28T14:27:55Z</time>
      </trkpt>
      <trkpt lat="43.295383" lon="-4.263650">
        <ele>605.0</ele>
        <time>2015-04-28T14:27:56Z</time>
      </trkpt>
      <trkpt lat="43.295417" lon="-4.263667">
        <ele>604.0</ele>
        <time>2015-04-28T14:27:57Z</time>
      </trkpt>
      <trkpt lat="43.295467" lon="-4.263717">
        <ele>604.0</ele>
        <time>2015-04-28T14:27:58Z</time>
      </trkpt>
      <trkpt lat="43.295517" lon="-4.263800">
        <ele>603.0</ele>
        <time>2015-04-28T14:27:59Z</time>
      </trkpt>
      <trkpt lat="43.295533" lon="-4.263933">
        <ele>602.0</ele>
        <time>2015-04-28T14:28:00Z</time>
      </trkpt>
      <trkpt lat="43.295550" lon="-4.264067">
        <ele>602.0</ele>
        <time>2015-04-28T14:28:01Z</time>
      </trkpt>
      <trkpt lat="43.295533" lon="-4.264200">
        <ele>602.0</ele>
        <time>2015-04-28T14:28:02Z</time>
      </trkpt>
      <trkpt lat="43.295517" lon="-4.264350">
        <ele>603.0</ele>
        <time>2015-04-28T14:28:03Z</time>
      </trkpt>
      <trkpt lat="43.295500" lon="-4.264483">
        <ele>603.0</ele>
        <time>2015-04-28T14:28:04Z</time>
      </trkpt>
      <trkpt lat="43.295483" lon="-4.264617">
        <ele>603.0</ele>
        <time>2015-04-28T14:28:05Z</time>
      </trkpt>
      <trkpt lat="43.295467" lon="-4.264767">
        <ele>604.0</ele>
        <time>2015-04-28T14:28:06Z</time>
      </trkpt>
      <trkpt lat="43.295467" lon="-4.264917">
        <ele>604.0</ele>
        <time>2015-04-28T14:28:07Z</time>
      </trkpt>
      <trkpt lat="43.295467" lon="-4.265033">
        <ele>605.0</ele>
        <time>2015-04-28T14:28:08Z</time>
      </trkpt>
      <trkpt lat="43.295483" lon="-4.265150">
        <ele>605.0</ele>
        <time>2015-04-28T14:28:09Z</time>
      </trkpt>
      <trkpt lat="43.295500" lon="-4.265267">
        <ele>606.0</ele>
        <time>2015-04-28T14:28:10Z</time>
      </trkpt>
      <trkpt lat="43.295533" lon="-4.265367">
        <ele>605.0</ele>
        <time>2015-04-28T14:28:11Z</time>
      </trkpt>
      <trkpt lat="43.295583" lon="-4.265450">
        <ele>605.0</ele>
        <time>2015-04-28T14:28:12Z</time>
      </trkpt>
      <trkpt lat="43.295633" lon="-4.265517">
        <ele>604.0</ele>
        <time>2015-04-28T14:28:13Z</time>
      </trkpt>
      <trkpt lat="43.295683" lon="-4.265567">
        <ele>604.0</ele>
        <time>2015-04-28T14:28:14Z</time>
      </trkpt>
      <trkpt lat="43.295733" lon="-4.265567">
        <ele>604.0</ele>
        <time>2015-04-28T14:28:15Z</time>
      </trkpt>
      <trkpt lat="43.295767" lon="-4.265533">
        <ele>603.0</ele>
        <time>2015-04-28T14:28:16Z</time>
      </trkpt>
      <trkpt lat="43.295817" lon="-4.265500">
        <ele>601.0</ele>
        <time>2015-04-28T14:28:17Z</time>
      </trkpt>
      <trkpt lat="43.295850" lon="-4.265450">
        <ele>600.0</ele>
        <time>2015-04-28T14:28:18Z</time>
      </trkpt>
      <trkpt lat="43.295883" lon="-4.265417">
        <ele>599.0</ele>
        <time>2015-04-28T14:28:19Z</time>
      </trkpt>
      <trkpt lat="43.295917" lon="-4.265367">
        <ele>598.0</ele>
        <time>2015-04-28T14:28:20Z</time>
      </trkpt>
      <trkpt lat="43.295917" lon="-4.265333">
        <ele>596.0</ele>
        <time>2015-04-28T14:28:21Z</time>
      </trkpt>
      <trkpt lat="43.295933" lon="-4.265283">
        <ele>594.0</ele>
        <time>2015-04-28T14:28:22Z</time>
      </trkpt>
      <trkpt lat="43.295950" lon="-4.265217">
        <ele>593.0</ele>
        <time>2015-04-28T14:28:23Z</time>
      </trkpt>
      <trkpt lat="43.295967" lon="-4.265167">
        <ele>591.0</ele>
        <time>2015-04-28T14:28:24Z</time>
      </trkpt>
      <trkpt lat="43.296000" lon="-4.265117">
        <ele>590.0</ele>
        <time>2015-04-28T14:28:25Z</time>
      </trkpt>
      <trkpt lat="43.296017" lon="-4.265067">
        <ele>589.0</ele>
        <time>2015-04-28T14:28:26Z</time>
      </trkpt>
      <trkpt lat="43.296000" lon="-4.265017">
        <ele>587.0</ele>
        <time>2015-04-28T14:28:27Z</time>
      </trkpt>
      <trkpt lat="43.296000" lon="-4.264983">
        <ele>585.0</ele>
        <time>2015-04-28T14:28:28Z</time>
      </trkpt>
      <trkpt lat="43.295950" lon="-4.264900">
        <ele>586.0</ele>
        <time>2015-04-28T14:28:29Z</time>
      </trkpt>
      <trkpt lat="43.295933" lon="-4.264833">
        <ele>586.0</ele>
        <time>2015-04-28T14:28:30Z</time>
      </trkpt>
      <trkpt lat="43.295933" lon="-4.264783">
        <ele>586.0</ele>
        <time>2015-04-28T14:28:31Z</time>
      </trkpt>
      <trkpt lat="43.295950" lon="-4.264717">
        <ele>585.0</ele>
        <time>2015-04-28T14:28:32Z</time>
      </trkpt>
      <trkpt lat="43.295933" lon="-4.264667">
        <ele>583.0</ele>
        <time>2015-04-28T14:28:33Z</time>
      </trkpt>
      <trkpt lat="43.295933" lon="-4.264600">
        <ele>581.0</ele>
        <time>2015-04-28T14:28:34Z</time>
      </trkpt>
      <trkpt lat="43.295933" lon="-4.264500">
        <ele>579.0</ele>
        <time>2015-04-28T14:28:35Z</time>
      </trkpt>
      <trkpt lat="43.295933" lon="-4.264417">
        <ele>577.0</ele>
        <time>2015-04-28T14:28:36Z</time>
      </trkpt>
      <trkpt lat="43.295950" lon="-4.264350">
        <ele>575.0</ele>
        <time>2015-04-28T14:28:37Z</time>
      </trkpt>
      <trkpt lat="43.295967" lon="-4.264267">
        <ele>574.0</ele>
        <time>2015-04-28T14:28:38Z</time>
      </trkpt>
      <trkpt lat="43.295967" lon="-4.264217">
        <ele>574.0</ele>
        <time>2015-04-28T14:28:39Z</time>
      </trkpt>
      <trkpt lat="43.295983" lon="-4.264150">
        <ele>573.0</ele>
        <time>2015-04-28T14:28:40Z</time>
      </trkpt>
      <trkpt lat="43.295983" lon="-4.264100">
        <ele>570.0</ele>
        <time>2015-04-28T14:28:41Z</time>
      </trkpt>
      <trkpt lat="43.295983" lon="-4.264017">
        <ele>567.0</ele>
        <time>2015-04-28T14:28:42Z</time>
      </trkpt>
      <trkpt lat="43.295983" lon="-4.263933">
        <ele>568.0</ele>
        <time>2015-04-28T14:28:43Z</time>
      </trkpt>
      <trkpt lat="43.296017" lon="-4.263867">
        <ele>567.0</ele>
        <time>2015-04-28T14:28:44Z</time>
      </trkpt>
      <trkpt lat="43.296033" lon="-4.263833">
        <ele>566.0</ele>
        <time>2015-04-28T14:28:45Z</time>
      </trkpt>
      <trkpt lat="43.296067" lon="-4.263800">
        <ele>565.0</ele>
        <time>2015-04-28T14:28:46Z</time>
      </trkpt>
      <trkpt lat="43.296100" lon="-4.263783">
        <ele>564.0</ele>
        <time>2015-04-28T14:28:47Z</time>
      </trkpt>
      <trkpt lat="43.296117" lon="-4.263750">
        <ele>563.0</ele>
        <time>2015-04-28T14:28:48Z</time>
      </trkpt>
      <trkpt lat="43.296100" lon="-4.263700">
        <ele>563.0</ele>
        <time>2015-04-28T14:28:49Z</time>
      </trkpt>
      <trkpt lat="43.296100" lon="-4.263650">
        <ele>562.0</ele>
        <time>2015-04-28T14:28:50Z</time>
      </trkpt>
      <trkpt lat="43.296133" lon="-4.263600">
        <ele>561.0</ele>
        <time>2015-04-28T14:28:51Z</time>
      </trkpt>
      <trkpt lat="43.296150" lon="-4.263550">
        <ele>561.0</ele>
        <time>2015-04-28T14:28:52Z</time>
      </trkpt>
      <trkpt lat="43.296150" lon="-4.263500">
        <ele>560.0</ele>
        <time>2015-04-28T14:28:53Z</time>
      </trkpt>
      <trkpt lat="43.296150" lon="-4.263467">
        <ele>560.0</ele>
        <time>2015-04-28T14:28:54Z</time>
      </trkpt>
      <trkpt lat="43.296133" lon="-4.263400">
        <ele>559.0</ele>
        <time>2015-04-28T14:28:55Z</time>
      </trkpt>
      <trkpt lat="43.296133" lon="-4.263350">
        <ele>559.0</ele>
        <time>2015-04-28T14:28:56Z</time>
      </trkpt>
      <trkpt lat="43.296133" lon="-4.263283">
        <ele>558.0</ele>
        <time>2015-04-28T14:28:57Z</time>
      </trkpt>
      <trkpt lat="43.296150" lon="-4.263233">
        <ele>556.0</ele>
        <time>2015-04-28T14:28:58Z</time>
      </trkpt>
      <trkpt lat="43.296150" lon="-4.263183">
        <ele>554.0</ele>
        <time>2015-04-28T14:28:59Z</time>
      </trkpt>
      <trkpt lat="43.296117" lon="-4.263117">
        <ele>555.0</ele>
        <time>2015-04-28T14:29:00Z</time>
      </trkpt>
      <trkpt lat="43.296100" lon="-4.263050">
        <ele>555.0</ele>
        <time>2015-04-28T14:29:01Z</time>
      </trkpt>
      <trkpt lat="43.296100" lon="-4.262983">
        <ele>553.0</ele>
        <time>2015-04-28T14:29:02Z</time>
      </trkpt>
      <trkpt lat="43.296117" lon="-4.262917">
        <ele>552.0</ele>
        <time>2015-04-28T14:29:03Z</time>
      </trkpt>
      <trkpt lat="43.296100" lon="-4.262833">
        <ele>551.0</ele>
        <time>2015-04-28T14:29:04Z</time>
      </trkpt>
      <trkpt lat="43.296100" lon="-4.262750">
        <ele>549.0</ele>
        <time>2015-04-28T14:29:05Z</time>
      </trkpt>
      <trkpt lat="43.296083" lon="-4.262683">
        <ele>548.0</ele>
        <time>2015-04-28T14:29:06Z</time>
      </trkpt>
      <trkpt lat="43.296100" lon="-4.262633">
        <ele>545.0</ele>
        <time>2015-04-28T14:29:07Z</time>
      </trkpt>
      <trkpt lat="43.296100" lon="-4.262567">
        <ele>543.0</ele>
        <time>2015-04-28T14:29:08Z</time>
      </trkpt>
      <trkpt lat="43.296100" lon="-4.262500">
        <ele>540.0</ele>
        <time>2015-04-28T14:29:09Z</time>
      </trkpt>
      <trkpt lat="43.296117" lon="-4.262433">
        <ele>537.0</ele>
        <time>2015-04-28T14:29:10Z</time>
      </trkpt>
      <trkpt lat="43.296117" lon="-4.262367">
        <ele>535.0</ele>
        <time>2015-04-28T14:29:11Z</time>
      </trkpt>
      <trkpt lat="43.296133" lon="-4.262300">
        <ele>533.0</ele>
        <time>2015-04-28T14:29:12Z</time>
      </trkpt>
      <trkpt lat="43.296150" lon="-4.262250">
        <ele>531.0</ele>
        <time>2015-04-28T14:29:13Z</time>
      </trkpt>
      <trkpt lat="43.296150" lon="-4.262183">
        <ele>529.0</ele>
        <time>2015-04-28T14:29:14Z</time>
      </trkpt>
      <trkpt lat="43.296150" lon="-4.262117">
        <ele>527.0</ele>
        <time>2015-04-28T14:29:15Z</time>
      </trkpt>
      <trkpt lat="43.296167" lon="-4.262050">
        <ele>525.0</ele>
        <time>2015-04-28T14:29:16Z</time>
      </trkpt>
      <trkpt lat="43.296167" lon="-4.261983">
        <ele>523.0</ele>
        <time>2015-04-28T14:29:17Z</time>
      </trkpt>
      <trkpt lat="43.296183" lon="-4.261917">
        <ele>522.0</ele>
        <time>2015-04-28T14:29:18Z</time>
      </trkpt>
      <trkpt lat="43.296183" lon="-4.261850">
        <ele>521.0</ele>
        <time>2015-04-28T14:29:19Z</time>
      </trkpt>
      <trkpt lat="43.296200" lon="-4.261783">
        <ele>520.0</ele>
        <time>2015-04-28T14:29:20Z</time>
      </trkpt>
      <trkpt lat="43.296200" lon="-4.261717">
        <ele>518.0</ele>
        <time>2015-04-28T14:29:21Z</time>
      </trkpt>
      <trkpt lat="43.296200" lon="-4.261650">
        <ele>516.0</ele>
        <time>2015-04-28T14:29:22Z</time>
      </trkpt>
      <trkpt lat="43.296200" lon="-4.261567">
        <ele>515.0</ele>
        <time>2015-04-28T14:29:23Z</time>
      </trkpt>
      <trkpt lat="43.296200" lon="-4.261500">
        <ele>514.0</ele>
        <time>2015-04-28T14:29:24Z</time>
      </trkpt>
      <trkpt lat="43.296167" lon="-4.261417">
        <ele>516.0</ele>
        <time>2015-04-28T14:29:25Z</time>
      </trkpt>
      <trkpt lat="43.296150" lon="-4.261350">
        <ele>516.0</ele>
        <time>2015-04-28T14:29:26Z</time>
      </trkpt>
      <trkpt lat="43.296150" lon="-4.261267">
        <ele>516.0</ele>
        <time>2015-04-28T14:29:27Z</time>
      </trkpt>
      <trkpt lat="43.296167" lon="-4.261200">
        <ele>514.0</ele>
        <time>2015-04-28T14:29:28Z</time>
      </trkpt>
      <trkpt lat="43.296167" lon="-4.261150">
        <ele>513.0</ele>
        <time>2015-04-28T14:29:29Z</time>
      </trkpt>
      <trkpt lat="43.296183" lon="-4.261083">
        <ele>513.0</ele>
        <time>2015-04-28T14:29:30Z</time>
      </trkpt>
      <trkpt lat="43.296183" lon="-4.261033">
        <ele>511.0</ele>
        <time>2015-04-28T14:29:31Z</time>
      </trkpt>
      <trkpt lat="43.296200" lon="-4.260967">
        <ele>510.0</ele>
        <time>2015-04-28T14:29:32Z</time>
      </trkpt>
      <trkpt lat="43.296200" lon="-4.260900">
        <ele>507.0</ele>
        <time>2015-04-28T14:29:33Z</time>
      </trkpt>
      <trkpt lat="43.296217" lon="-4.260833">
        <ele>504.0</ele>
        <time>2015-04-28T14:29:34Z</time>
      </trkpt>
      <trkpt lat="43.296217" lon="-4.260783">
        <ele>502.0</ele>
        <time>2015-04-28T14:29:35Z</time>
      </trkpt>
      <trkpt lat="43.296217" lon="-4.260717">
        <ele>499.0</ele>
        <time>2015-04-28T14:29:36Z</time>
      </trkpt>
      <trkpt lat="43.296217" lon="-4.260667">
        <ele>497.0</ele>
        <time>2015-04-28T14:29:37Z</time>
      </trkpt>
      <trkpt lat="43.296217" lon="-4.260600">
        <ele>495.0</ele>
        <time>2015-04-28T14:29:38Z</time>
      </trkpt>
      <trkpt lat="43.296183" lon="-4.260500">
        <ele>497.0</ele>
        <time>2015-04-28T14:29:39Z</time>
      </trkpt>
      <trkpt lat="43.296183" lon="-4.260433">
        <ele>497.0</ele>
        <time>2015-04-28T14:29:40Z</time>
      </trkpt>
      <trkpt lat="43.296167" lon="-4.260350">
        <ele>497.0</ele>
        <time>2015-04-28T14:29:41Z</time>
      </trkpt>
      <trkpt lat="43.296167" lon="-4.260283">
        <ele>496.0</ele>
        <time>2015-04-28T14:29:42Z</time>
      </trkpt>
      <trkpt lat="43.296167" lon="-4.260233">
        <ele>494.0</ele>
        <time>2015-04-28T14:29:43Z</time>
      </trkpt>
      <trkpt lat="43.296183" lon="-4.260183">
        <ele>493.0</ele>
        <time>2015-04-28T14:29:44Z</time>
      </trkpt>
      <trkpt lat="43.296217" lon="-4.260167">
        <ele>492.0</ele>
        <time>2015-04-28T14:29:45Z</time>
      </trkpt>
      <trkpt lat="43.296233" lon="-4.260150">
        <ele>491.0</ele>
        <time>2015-04-28T14:29:46Z</time>
      </trkpt>
      <trkpt lat="43.296250" lon="-4.260133">
        <ele>488.0</ele>
        <time>2015-04-28T14:29:47Z</time>
      </trkpt>
      <trkpt lat="43.296250" lon="-4.260117">
        <ele>487.0</ele>
        <time>2015-04-28T14:29:48Z</time>
      </trkpt>
      <trkpt lat="43.296267" lon="-4.260083">
        <ele>487.0</ele>
        <time>2015-04-28T14:29:49Z</time>
      </trkpt>
      <trkpt lat="43.296283" lon="-4.260050">
        <ele>486.0</ele>
        <time>2015-04-28T14:29:50Z</time>
      </trkpt>
      <trkpt lat="43.296317" lon="-4.260017">
        <ele>485.0</ele>
        <time>2015-04-28T14:29:51Z</time>
      </trkpt>
      <trkpt lat="43.296350" lon="-4.259967">
        <ele>484.0</ele>
        <time>2015-04-28T14:29:52Z</time>
      </trkpt>
      <trkpt lat="43.296383" lon="-4.259950">
        <ele>482.0</ele>
        <time>2015-04-28T14:29:53Z</time>
      </trkpt>
      <trkpt lat="43.296417" lon="-4.259917">
        <ele>481.0</ele>
        <time>2015-04-28T14:29:54Z</time>
      </trkpt>
      <trkpt lat="43.296433" lon="-4.259883">
        <ele>481.0</ele>
        <time>2015-04-28T14:29:55Z</time>
      </trkpt>
      <trkpt lat="43.296450" lon="-4.259850">
        <ele>480.0</ele>
        <time>2015-04-28T14:29:56Z</time>
      </trkpt>
      <trkpt lat="43.296483" lon="-4.259833">
        <ele>478.0</ele>
        <time>2015-04-28T14:29:57Z</time>
      </trkpt>
      <trkpt lat="43.296517" lon="-4.259800">
        <ele>475.0</ele>
        <time>2015-04-28T14:29:58Z</time>
      </trkpt>
      <trkpt lat="43.296550" lon="-4.259750">
        <ele>471.0</ele>
        <time>2015-04-28T14:29:59Z</time>
      </trkpt>
      <trkpt lat="43.296583" lon="-4.259733">
        <ele>469.0</ele>
        <time>2015-04-28T14:30:00Z</time>
      </trkpt>
      <trkpt lat="43.296617" lon="-4.259717">
        <ele>467.0</ele>
        <time>2015-04-28T14:30:01Z</time>
      </trkpt>
      <trkpt lat="43.296633" lon="-4.259683">
        <ele>466.0</ele>
        <time>2015-04-28T14:30:02Z</time>
      </trkpt>
      <trkpt lat="43.296650" lon="-4.259650">
        <ele>464.0</ele>
        <time>2015-04-28T14:30:03Z</time>
      </trkpt>
      <trkpt lat="43.296633" lon="-4.259617">
        <ele>464.0</ele>
        <time>2015-04-28T14:30:04Z</time>
      </trkpt>
      <trkpt lat="43.296667" lon="-4.259567">
        <ele>463.0</ele>
        <time>2015-04-28T14:30:05Z</time>
      </trkpt>
      <trkpt lat="43.296700" lon="-4.259550">
        <ele>461.0</ele>
        <time>2015-04-28T14:30:06Z</time>
      </trkpt>
      <trkpt lat="43.296733" lon="-4.259517">
        <ele>459.0</ele>
        <time>2015-04-28T14:30:07Z</time>
      </trkpt>
      <trkpt lat="43.296767" lon="-4.259500">
        <ele>459.0</ele>
        <time>2015-04-28T14:30:08Z</time>
      </trkpt>
      <trkpt lat="43.296800" lon="-4.259483">
        <ele>458.0</ele>
        <time>2015-04-28T14:30:09Z</time>
      </trkpt>
      <trkpt lat="43.296833" lon="-4.259450">
        <ele>457.0</ele>
        <time>2015-04-28T14:30:10Z</time>
      </trkpt>
      <trkpt lat="43.296850" lon="-4.259417">
        <ele>455.0</ele>
        <time>2015-04-28T14:30:11Z</time>
      </trkpt>
      <trkpt lat="43.296883" lon="-4.259400">
        <ele>454.0</ele>
        <time>2015-04-28T14:30:12Z</time>
      </trkpt>
      <trkpt lat="43.296917" lon="-4.259367">
        <ele>454.0</ele>
        <time>2015-04-28T14:30:13Z</time>
      </trkpt>
      <trkpt lat="43.296950" lon="-4.259333">
        <ele>452.0</ele>
        <time>2015-04-28T14:30:14Z</time>
      </trkpt>
      <trkpt lat="43.296983" lon="-4.259317">
        <ele>451.0</ele>
        <time>2015-04-28T14:30:15Z</time>
      </trkpt>
      <trkpt lat="43.297017" lon="-4.259283">
        <ele>451.0</ele>
        <time>2015-04-28T14:30:16Z</time>
      </trkpt>
      <trkpt lat="43.297033" lon="-4.259250">
        <ele>452.0</ele>
        <time>2015-04-28T14:30:17Z</time>
      </trkpt>
      <trkpt lat="43.297050" lon="-4.259233">
        <ele>453.0</ele>
        <time>2015-04-28T14:30:18Z</time>
      </trkpt>
      <trkpt lat="43.297067" lon="-4.259217">
        <ele>453.0</ele>
        <time>2015-04-28T14:30:19Z</time>
      </trkpt>
      <trkpt lat="43.297067" lon="-4.259217">
        <ele>454.0</ele>
        <time>2015-04-28T14:30:20Z</time>
      </trkpt>
      <trkpt lat="43.297067" lon="-4.259200">
        <ele>453.0</ele>
        <time>2015-04-28T14:30:21Z</time>
      </trkpt>
      <trkpt lat="43.297067" lon="-4.259183">
        <ele>452.0</ele>
        <time>2015-04-28T14:30:22Z</time>
      </trkpt>
      <trkpt lat="43.297083" lon="-4.259133">
        <ele>450.0</ele>
        <time>2015-04-28T14:30:23Z</time>
      </trkpt>
      <trkpt lat="43.297117" lon="-4.259100">
        <ele>447.0</ele>
        <time>2015-04-28T14:30:24Z</time>
      </trkpt>
      <trkpt lat="43.297150" lon="-4.259050">
        <ele>445.0</ele>
        <time>2015-04-28T14:30:25Z</time>
      </trkpt>
      <trkpt lat="43.297200" lon="-4.259017">
        <ele>444.0</ele>
        <time>2015-04-28T14:30:26Z</time>
      </trkpt>
      <trkpt lat="43.297233" lon="-4.258983">
        <ele>442.0</ele>
        <time>2015-04-28T14:30:27Z</time>
      </trkpt>
      <trkpt lat="43.297283" lon="-4.258967">
        <ele>441.0</ele>
        <time>2015-04-28T14:30:28Z</time>
      </trkpt>
      <trkpt lat="43.297317" lon="-4.258933">
        <ele>440.0</ele>
        <time>2015-04-28T14:30:29Z</time>
      </trkpt>
      <trkpt lat="43.297350" lon="-4.258917">
        <ele>440.0</ele>
        <time>2015-04-28T14:30:30Z</time>
      </trkpt>
      <trkpt lat="43.297400" lon="-4.258883">
        <ele>439.0</ele>
        <time>2015-04-28T14:30:31Z</time>
      </trkpt>
      <trkpt lat="43.297417" lon="-4.258850">
        <ele>438.0</ele>
        <time>2015-04-28T14:30:32Z</time>
      </trkpt>
      <trkpt lat="43.297450" lon="-4.258817">
        <ele>436.0</ele>
        <time>2015-04-28T14:30:33Z</time>
      </trkpt>
      <trkpt lat="43.297483" lon="-4.258783">
        <ele>435.0</ele>
        <time>2015-04-28T14:30:34Z</time>
      </trkpt>
      <trkpt lat="43.297517" lon="-4.258750">
        <ele>434.0</ele>
        <time>2015-04-28T14:30:35Z</time>
      </trkpt>
      <trkpt lat="43.297567" lon="-4.258750">
        <ele>433.0</ele>
        <time>2015-04-28T14:30:36Z</time>
      </trkpt>
      <trkpt lat="43.297600" lon="-4.258733">
        <ele>433.0</ele>
        <time>2015-04-28T14:30:37Z</time>
      </trkpt>
      <trkpt lat="43.297633" lon="-4.258700">
        <ele>432.0</ele>
        <time>2015-04-28T14:30:38Z</time>
      </trkpt>
      <trkpt lat="43.297667" lon="-4.258667">
        <ele>432.0</ele>
        <time>2015-04-28T14:30:39Z</time>
      </trkpt>
      <trkpt lat="43.297700" lon="-4.258617">
        <ele>431.0</ele>
        <time>2015-04-28T14:30:40Z</time>
      </trkpt>
      <trkpt lat="43.297717" lon="-4.258583">
        <ele>431.0</ele>
        <time>2015-04-28T14:30:41Z</time>
      </trkpt>
      <trkpt lat="43.297750" lon="-4.258550">
        <ele>431.0</ele>
        <time>2015-04-28T14:30:42Z</time>
      </trkpt>
      <trkpt lat="43.297783" lon="-4.258533">
        <ele>430.0</ele>
        <time>2015-04-28T14:30:43Z</time>
      </trkpt>
      <trkpt lat="43.297800" lon="-4.258517">
        <ele>429.0</ele>
        <time>2015-04-28T14:30:44Z</time>
      </trkpt>
      <trkpt lat="43.297817" lon="-4.258467">
        <ele>427.0</ele>
        <time>2015-04-28T14:30:45Z</time>
      </trkpt>
      <trkpt lat="43.297867" lon="-4.258417">
        <ele>425.0</ele>
        <time>2015-04-28T14:30:46Z</time>
      </trkpt>
      <trkpt lat="43.297900" lon="-4.258350">
        <ele>423.0</ele>
        <time>2015-04-28T14:30:47Z</time>
      </trkpt>
      <trkpt lat="43.297933" lon="-4.258300">
        <ele>422.0</ele>
        <time>2015-04-28T14:30:48Z</time>
      </trkpt>
      <trkpt lat="43.297967" lon="-4.258267">
        <ele>422.0</ele>
        <time>2015-04-28T14:30:49Z</time>
      </trkpt>
      <trkpt lat="43.298000" lon="-4.258250">
        <ele>420.0</ele>
        <time>2015-04-28T14:30:50Z</time>
      </trkpt>
      <trkpt lat="43.298033" lon="-4.258233">
        <ele>419.0</ele>
        <time>2015-04-28T14:30:51Z</time>
      </trkpt>
      <trkpt lat="43.298067" lon="-4.258183">
        <ele>418.0</ele>
        <time>2015-04-28T14:30:52Z</time>
      </trkpt>
      <trkpt lat="43.298100" lon="-4.258150">
        <ele>417.0</ele>
        <time>2015-04-28T14:30:53Z</time>
      </trkpt>
      <trkpt lat="43.298133" lon="-4.258117">
        <ele>417.0</ele>
        <time>2015-04-28T14:30:54Z</time>
      </trkpt>
      <trkpt lat="43.298167" lon="-4.258083">
        <ele>416.0</ele>
        <time>2015-04-28T14:30:55Z</time>
      </trkpt>
      <trkpt lat="43.298200" lon="-4.258067">
        <ele>415.0</ele>
        <time>2015-04-28T14:30:56Z</time>
      </trkpt>
      <trkpt lat="43.298250" lon="-4.258033">
        <ele>415.0</ele>
        <time>2015-04-28T14:30:57Z</time>
      </trkpt>
      <trkpt lat="43.298300" lon="-4.258000">
        <ele>416.0</ele>
        <time>2015-04-28T14:30:58Z</time>
      </trkpt>
      <trkpt lat="43.298333" lon="-4.257983">
        <ele>417.0</ele>
        <time>2015-04-28T14:30:59Z</time>
      </trkpt>
      <trkpt lat="43.298350" lon="-4.257967">
        <ele>418.0</ele>
        <time>2015-04-28T14:31:00Z</time>
      </trkpt>
      <trkpt lat="43.298367" lon="-4.257950">
        <ele>419.0</ele>
        <time>2015-04-28T14:31:01Z</time>
      </trkpt>
      <trkpt lat="43.298383" lon="-4.257933">
        <ele>420.0</ele>
        <time>2015-04-28T14:31:02Z</time>
      </trkpt>
      <trkpt lat="43.298383" lon="-4.257933">
        <ele>420.0</ele>
        <time>2015-04-28T14:31:03Z</time>
      </trkpt>
      <trkpt lat="43.298400" lon="-4.257917">
        <ele>421.0</ele>
        <time>2015-04-28T14:31:04Z</time>
      </trkpt>
      <trkpt lat="43.298400" lon="-4.257917">
        <ele>421.0</ele>
        <time>2015-04-28T14:31:05Z</time>
      </trkpt>
      <trkpt lat="43.298433" lon="-4.257917">
        <ele>420.0</ele>
        <time>2015-04-28T14:31:06Z</time>
      </trkpt>
      <trkpt lat="43.298450" lon="-4.257917">
        <ele>420.0</ele>
        <time>2015-04-28T14:31:07Z</time>
      </trkpt>
      <trkpt lat="43.298483" lon="-4.257917">
        <ele>419.0</ele>
        <time>2015-04-28T14:31:08Z</time>
      </trkpt>
      <trkpt lat="43.298517" lon="-4.257900">
        <ele>418.0</ele>
        <time>2015-04-28T14:31:09Z</time>
      </trkpt>
      <trkpt lat="43.298550" lon="-4.257883">
        <ele>418.0</ele>
        <time>2015-04-28T14:31:10Z</time>
      </trkpt>
      <trkpt lat="43.298583" lon="-4.257867">
        <ele>417.0</ele>
        <time>2015-04-28T14:31:11Z</time>
      </trkpt>
      <trkpt lat="43.298600" lon="-4.257833">
        <ele>417.0</ele>
        <time>2015-04-28T14:31:12Z</time>
      </trkpt>
      <trkpt lat="43.298617" lon="-4.257817">
        <ele>416.0</ele>
        <time>2015-04-28T14:31:13Z</time>
      </trkpt>
      <trkpt lat="43.298650" lon="-4.257783">
        <ele>415.0</ele>
        <time>2015-04-28T14:31:14Z</time>
      </trkpt>
      <trkpt lat="43.298667" lon="-4.257767">
        <ele>414.0</ele>
        <time>2015-04-28T14:31:15Z</time>
      </trkpt>
      <trkpt lat="43.298700" lon="-4.257733">
        <ele>412.0</ele>
        <time>2015-04-28T14:31:16Z</time>
      </trkpt>
      <trkpt lat="43.298733" lon="-4.257683">
        <ele>413.0</ele>
        <time>2015-04-28T14:31:17Z</time>
      </trkpt>
      <trkpt lat="43.298783" lon="-4.257650">
        <ele>412.0</ele>
        <time>2015-04-28T14:31:18Z</time>
      </trkpt>
      <trkpt lat="43.298817" lon="-4.257617">
        <ele>411.0</ele>
        <time>2015-04-28T14:31:19Z</time>
      </trkpt>
      <trkpt lat="43.298850" lon="-4.257583">
        <ele>411.0</ele>
        <time>2015-04-28T14:31:20Z</time>
      </trkpt>
      <trkpt lat="43.298883" lon="-4.257550">
        <ele>410.0</ele>
        <time>2015-04-28T14:31:21Z</time>
      </trkpt>
      <trkpt lat="43.298900" lon="-4.257500">
        <ele>410.0</ele>
        <time>2015-04-28T14:31:22Z</time>
      </trkpt>
      <trkpt lat="43.298917" lon="-4.257467">
        <ele>409.0</ele>
        <time>2015-04-28T14:31:23Z</time>
      </trkpt>
      <trkpt lat="43.298933" lon="-4.257433">
        <ele>410.0</ele>
        <time>2015-04-28T14:31:24Z</time>
      </trkpt>
      <trkpt lat="43.298967" lon="-4.257400">
        <ele>411.0</ele>
        <time>2015-04-28T14:31:25Z</time>
      </trkpt>
      <trkpt lat="43.298983" lon="-4.257383">
        <ele>412.0</ele>
        <time>2015-04-28T14:31:26Z</time>
      </trkpt>
      <trkpt lat="43.299000" lon="-4.257383">
        <ele>412.0</ele>
        <time>2015-04-28T14:31:27Z</time>
      </trkpt>
      <trkpt lat="43.299000" lon="-4.257383">
        <ele>411.0</ele>
        <time>2015-04-28T14:31:28Z</time>
      </trkpt>
      <trkpt lat="43.299017" lon="-4.257367">
        <ele>411.0</ele>
        <time>2015-04-28T14:31:29Z</time>
      </trkpt>
      <trkpt lat="43.299000" lon="-4.257350">
        <ele>411.0</ele>
        <time>2015-04-28T14:31:30Z</time>
      </trkpt>
      <trkpt lat="43.299000" lon="-4.257350">
        <ele>411.0</ele>
        <time>2015-04-28T14:31:31Z</time>
      </trkpt>
      <trkpt lat="43.298983" lon="-4.257317">
        <ele>411.0</ele>
        <time>2015-04-28T14:31:32Z</time>
      </trkpt>
      <trkpt lat="43.298983" lon="-4.257283">
        <ele>410.0</ele>
        <time>2015-04-28T14:31:33Z</time>
      </trkpt>
      <trkpt lat="43.299017" lon="-4.257233">
        <ele>410.0</ele>
        <time>2015-04-28T14:31:34Z</time>
      </trkpt>
      <trkpt lat="43.299050" lon="-4.257200">
        <ele>409.0</ele>
        <time>2015-04-28T14:31:35Z</time>
      </trkpt>
      <trkpt lat="43.299083" lon="-4.257167">
        <ele>410.0</ele>
        <time>2015-04-28T14:31:36Z</time>
      </trkpt>
      <trkpt lat="43.299117" lon="-4.257150">
        <ele>409.0</ele>
        <time>2015-04-28T14:31:37Z</time>
      </trkpt>
      <trkpt lat="43.299150" lon="-4.257133">
        <ele>408.0</ele>
        <time>2015-04-28T14:31:38Z</time>
      </trkpt>
      <trkpt lat="43.299183" lon="-4.257117">
        <ele>407.0</ele>
        <time>2015-04-28T14:31:39Z</time>
      </trkpt>
      <trkpt lat="43.299233" lon="-4.257100">
        <ele>407.0</ele>
        <time>2015-04-28T14:31:40Z</time>
      </trkpt>
      <trkpt lat="43.299283" lon="-4.257067">
        <ele>407.0</ele>
        <time>2015-04-28T14:31:41Z</time>
      </trkpt>
      <trkpt lat="43.299300" lon="-4.257033">
        <ele>408.0</ele>
        <time>2015-04-28T14:31:42Z</time>
      </trkpt>
      <trkpt lat="43.299300" lon="-4.257017">
        <ele>408.0</ele>
        <time>2015-04-28T14:31:43Z</time>
      </trkpt>
      <trkpt lat="43.299317" lon="-4.257017">
        <ele>409.0</ele>
        <time>2015-04-28T14:31:44Z</time>
      </trkpt>
      <trkpt lat="43.299317" lon="-4.257000">
        <ele>409.0</ele>
        <time>2015-04-28T14:31:45Z</time>
      </trkpt>
      <trkpt lat="43.299333" lon="-4.257000">
        <ele>409.0</ele>
        <time>2015-04-28T14:31:46Z</time>
      </trkpt>
      <trkpt lat="43.299350" lon="-4.257017">
        <ele>407.0</ele>
        <time>2015-04-28T14:31:47Z</time>
      </trkpt>
      <trkpt lat="43.299367" lon="-4.257033">
        <ele>407.0</ele>
        <time>2015-04-28T14:31:48Z</time>
      </trkpt>
      <trkpt lat="43.299400" lon="-4.257050">
        <ele>405.0</ele>
        <time>2015-04-28T14:31:49Z</time>
      </trkpt>
      <trkpt lat="43.299433" lon="-4.257050">
        <ele>403.0</ele>
        <time>2015-04-28T14:31:50Z</time>
      </trkpt>
      <trkpt lat="43.299483" lon="-4.257033">
        <ele>402.0</ele>
        <time>2015-04-28T14:31:51Z</time>
      </trkpt>
      <trkpt lat="43.299500" lon="-4.257000">
        <ele>402.0</ele>
        <time>2015-04-28T14:31:52Z</time>
      </trkpt>
      <trkpt lat="43.299517" lon="-4.256967">
        <ele>403.0</ele>
        <time>2015-04-28T14:31:53Z</time>
      </trkpt>
      <trkpt lat="43.299517" lon="-4.256950">
        <ele>403.0</ele>
        <time>2015-04-28T14:31:54Z</time>
      </trkpt>
      <trkpt lat="43.299533" lon="-4.256933">
        <ele>402.0</ele>
        <time>2015-04-28T14:31:55Z</time>
      </trkpt>
      <trkpt lat="43.299550" lon="-4.256900">
        <ele>401.0</ele>
        <time>2015-04-28T14:31:56Z</time>
      </trkpt>
      <trkpt lat="43.299567" lon="-4.256867">
        <ele>400.0</ele>
        <time>2015-04-28T14:31:57Z</time>
      </trkpt>
      <trkpt lat="43.299583" lon="-4.256833">
        <ele>400.0</ele>
        <time>2015-04-28T14:31:58Z</time>
      </trkpt>
      <trkpt lat="43.299600" lon="-4.256817">
        <ele>400.0</ele>
        <time>2015-04-28T14:31:59Z</time>
      </trkpt>
      <trkpt lat="43.299600" lon="-4.256800">
        <ele>399.0</ele>
        <time>2015-04-28T14:32:00Z</time>
      </trkpt>
      <trkpt lat="43.299600" lon="-4.256767">
        <ele>398.0</ele>
        <time>2015-04-28T14:32:01Z</time>
      </trkpt>
      <trkpt lat="43.299600" lon="-4.256733">
        <ele>397.0</ele>
        <time>2015-04-28T14:32:02Z</time>
      </trkpt>
      <trkpt lat="43.299617" lon="-4.256700">
        <ele>395.0</ele>
        <time>2015-04-28T14:32:03Z</time>
      </trkpt>
      <trkpt lat="43.299667" lon="-4.256667">
        <ele>394.0</ele>
        <time>2015-04-28T14:32:04Z</time>
      </trkpt>
      <trkpt lat="43.299700" lon="-4.256650">
        <ele>394.0</ele>
        <time>2015-04-28T14:32:05Z</time>
      </trkpt>
      <trkpt lat="43.299717" lon="-4.256650">
        <ele>394.0</ele>
        <time>2015-04-28T14:32:06Z</time>
      </trkpt>
      <trkpt lat="43.299733" lon="-4.256650">
        <ele>394.0</ele>
        <time>2015-04-28T14:32:07Z</time>
      </trkpt>
      <trkpt lat="43.299750" lon="-4.256650">
        <ele>393.0</ele>
        <time>2015-04-28T14:32:08Z</time>
      </trkpt>
      <trkpt lat="43.299750" lon="-4.256600">
        <ele>391.0</ele>
        <time>2015-04-28T14:32:09Z</time>
      </trkpt>
      <trkpt lat="43.299783" lon="-4.256567">
        <ele>390.0</ele>
        <time>2015-04-28T14:32:10Z</time>
      </trkpt>
      <trkpt lat="43.299800" lon="-4.256533">
        <ele>388.0</ele>
        <time>2015-04-28T14:32:11Z</time>
      </trkpt>
      <trkpt lat="43.299800" lon="-4.256517">
        <ele>387.0</ele>
        <time>2015-04-28T14:32:12Z</time>
      </trkpt>
      <trkpt lat="43.299800" lon="-4.256517">
        <ele>387.0</ele>
        <time>2015-04-28T14:32:13Z</time>
      </trkpt>
      <trkpt lat="43.299800" lon="-4.256483">
        <ele>385.0</ele>
        <time>2015-04-28T14:32:14Z</time>
      </trkpt>
      <trkpt lat="43.299817" lon="-4.256450">
        <ele>384.0</ele>
        <time>2015-04-28T14:32:15Z</time>
      </trkpt>
      <trkpt lat="43.299833" lon="-4.256400">
        <ele>383.0</ele>
        <time>2015-04-28T14:32:16Z</time>
      </trkpt>
      <trkpt lat="43.299833" lon="-4.256367">
        <ele>383.0</ele>
        <time>2015-04-28T14:32:17Z</time>
      </trkpt>
      <trkpt lat="43.299833" lon="-4.256333">
        <ele>382.0</ele>
        <time>2015-04-28T14:32:18Z</time>
      </trkpt>
      <trkpt lat="43.299833" lon="-4.256283">
        <ele>382.0</ele>
        <time>2015-04-28T14:32:19Z</time>
      </trkpt>
      <trkpt lat="43.299817" lon="-4.256250">
        <ele>381.0</ele>
        <time>2015-04-28T14:32:20Z</time>
      </trkpt>
      <trkpt lat="43.299833" lon="-4.256200">
        <ele>380.0</ele>
        <time>2015-04-28T14:32:21Z</time>
      </trkpt>
      <trkpt lat="43.299833" lon="-4.256150">
        <ele>380.0</ele>
        <time>2015-04-28T14:32:22Z</time>
      </trkpt>
      <trkpt lat="43.299850" lon="-4.256100">
        <ele>380.0</ele>
        <time>2015-04-28T14:32:23Z</time>
      </trkpt>
      <trkpt lat="43.299867" lon="-4.256067">
        <ele>379.0</ele>
        <time>2015-04-28T14:32:24Z</time>
      </trkpt>
      <trkpt lat="43.299883" lon="-4.256067">
        <ele>378.0</ele>
        <time>2015-04-28T14:32:25Z</time>
      </trkpt>
      <trkpt lat="43.299917" lon="-4.256050">
        <ele>378.0</ele>
        <time>2015-04-28T14:32:26Z</time>
      </trkpt>
      <trkpt lat="43.299967" lon="-4.256050">
        <ele>378.0</ele>
        <time>2015-04-28T14:32:27Z</time>
      </trkpt>
      <trkpt lat="43.300000" lon="-4.256033">
        <ele>378.0</ele>
        <time>2015-04-28T14:32:28Z</time>
      </trkpt>
      <trkpt lat="43.300033" lon="-4.256033">
        <ele>378.0</ele>
        <time>2015-04-28T14:32:29Z</time>
      </trkpt>
      <trkpt lat="43.300067" lon="-4.256033">
        <ele>378.0</ele>
        <time>2015-04-28T14:32:30Z</time>
      </trkpt>
      <trkpt lat="43.300100" lon="-4.256050">
        <ele>379.0</ele>
        <time>2015-04-28T14:32:31Z</time>
      </trkpt>
      <trkpt lat="43.300133" lon="-4.256067">
        <ele>378.0</ele>
        <time>2015-04-28T14:32:32Z</time>
      </trkpt>
      <trkpt lat="43.300167" lon="-4.256067">
        <ele>378.0</ele>
        <time>2015-04-28T14:32:33Z</time>
      </trkpt>
      <trkpt lat="43.300167" lon="-4.256050">
        <ele>377.0</ele>
        <time>2015-04-28T14:32:34Z</time>
      </trkpt>
      <trkpt lat="43.300200" lon="-4.256050">
        <ele>377.0</ele>
        <time>2015-04-28T14:32:35Z</time>
      </trkpt>
      <trkpt lat="43.300233" lon="-4.256050">
        <ele>376.0</ele>
        <time>2015-04-28T14:32:36Z</time>
      </trkpt>
      <trkpt lat="43.300283" lon="-4.256050">
        <ele>374.0</ele>
        <time>2015-04-28T14:32:37Z</time>
      </trkpt>
      <trkpt lat="43.300317" lon="-4.256033">
        <ele>374.0</ele>
        <time>2015-04-28T14:32:38Z</time>
      </trkpt>
      <trkpt lat="43.300367" lon="-4.256033">
        <ele>373.0</ele>
        <time>2015-04-28T14:32:39Z</time>
      </trkpt>
      <trkpt lat="43.300400" lon="-4.256017">
        <ele>372.0</ele>
        <time>2015-04-28T14:32:40Z</time>
      </trkpt>
      <trkpt lat="43.300433" lon="-4.256017">
        <ele>371.0</ele>
        <time>2015-04-28T14:32:41Z</time>
      </trkpt>
      <trkpt lat="43.300483" lon="-4.256017">
        <ele>370.0</ele>
        <time>2015-04-28T14:32:42Z</time>
      </trkpt>
      <trkpt lat="43.300517" lon="-4.256000">
        <ele>368.0</ele>
        <time>2015-04-28T14:32:43Z</time>
      </trkpt>
      <trkpt lat="43.300567" lon="-4.256000">
        <ele>367.0</ele>
        <time>2015-04-28T14:32:44Z</time>
      </trkpt>
      <trkpt lat="43.300600" lon="-4.256000">
        <ele>366.0</ele>
        <time>2015-04-28T14:32:45Z</time>
      </trkpt>
      <trkpt lat="43.300633" lon="-4.256000">
        <ele>366.0</ele>
        <time>2015-04-28T14:32:46Z</time>
      </trkpt>
      <trkpt lat="43.300650" lon="-4.255983">
        <ele>366.0</ele>
        <time>2015-04-28T14:32:47Z</time>
      </trkpt>
      <trkpt lat="43.300667" lon="-4.255950">
        <ele>365.0</ele>
        <time>2015-04-28T14:32:48Z</time>
      </trkpt>
      <trkpt lat="43.300683" lon="-4.255917">
        <ele>364.0</ele>
        <time>2015-04-28T14:32:49Z</time>
      </trkpt>
      <trkpt lat="43.300717" lon="-4.255883">
        <ele>363.0</ele>
        <time>2015-04-28T14:32:50Z</time>
      </trkpt>
      <trkpt lat="43.300733" lon="-4.255850">
        <ele>362.0</ele>
        <time>2015-04-28T14:32:51Z</time>
      </trkpt>
      <trkpt lat="43.300767" lon="-4.255833">
        <ele>360.0</ele>
        <time>2015-04-28T14:32:52Z</time>
      </trkpt>
      <trkpt lat="43.300783" lon="-4.255800">
        <ele>358.0</ele>
        <time>2015-04-28T14:32:53Z</time>
      </trkpt>
      <trkpt lat="43.300800" lon="-4.255750">
        <ele>359.0</ele>
        <time>2015-04-28T14:32:54Z</time>
      </trkpt>
      <trkpt lat="43.300800" lon="-4.255717">
        <ele>358.0</ele>
        <time>2015-04-28T14:32:55Z</time>
      </trkpt>
      <trkpt lat="43.300800" lon="-4.255683">
        <ele>356.0</ele>
        <time>2015-04-28T14:32:56Z</time>
      </trkpt>
      <trkpt lat="43.300817" lon="-4.255667">
        <ele>355.0</ele>
        <time>2015-04-28T14:32:57Z</time>
      </trkpt>
      <trkpt lat="43.300817" lon="-4.255633">
        <ele>353.0</ele>
        <time>2015-04-28T14:32:58Z</time>
      </trkpt>
      <trkpt lat="43.300833" lon="-4.255583">
        <ele>351.0</ele>
        <time>2015-04-28T14:32:59Z</time>
      </trkpt>
      <trkpt lat="43.300850" lon="-4.255533">
        <ele>348.0</ele>
        <time>2015-04-28T14:33:00Z</time>
      </trkpt>
      <trkpt lat="43.300867" lon="-4.255483">
        <ele>346.0</ele>
        <time>2015-04-28T14:33:01Z</time>
      </trkpt>
      <trkpt lat="43.300883" lon="-4.255450">
        <ele>344.0</ele>
        <time>2015-04-28T14:33:02Z</time>
      </trkpt>
      <trkpt lat="43.300917" lon="-4.255417">
        <ele>343.0</ele>
        <time>2015-04-28T14:33:03Z</time>
      </trkpt>
      <trkpt lat="43.300967" lon="-4.255417">
        <ele>341.0</ele>
        <time>2015-04-28T14:33:04Z</time>
      </trkpt>
      <trkpt lat="43.301000" lon="-4.255417">
        <ele>340.0</ele>
        <time>2015-04-28T14:33:05Z</time>
      </trkpt>
      <trkpt lat="43.301033" lon="-4.255400">
        <ele>338.0</ele>
        <time>2015-04-28T14:33:06Z</time>
      </trkpt>
      <trkpt lat="43.301067" lon="-4.255383">
        <ele>338.0</ele>
        <time>2015-04-28T14:33:07Z</time>
      </trkpt>
      <trkpt lat="43.301100" lon="-4.255383">
        <ele>337.0</ele>
        <time>2015-04-28T14:33:08Z</time>
      </trkpt>
      <trkpt lat="43.301133" lon="-4.255367">
        <ele>337.0</ele>
        <time>2015-04-28T14:33:09Z</time>
      </trkpt>
      <trkpt lat="43.301183" lon="-4.255350">
        <ele>337.0</ele>
        <time>2015-04-28T14:33:10Z</time>
      </trkpt>
      <trkpt lat="43.301217" lon="-4.255333">
        <ele>337.0</ele>
        <time>2015-04-28T14:33:11Z</time>
      </trkpt>
      <trkpt lat="43.301250" lon="-4.255300">
        <ele>337.0</ele>
        <time>2015-04-28T14:33:12Z</time>
      </trkpt>
      <trkpt lat="43.301283" lon="-4.255283">
        <ele>337.0</ele>
        <time>2015-04-28T14:33:13Z</time>
      </trkpt>
      <trkpt lat="43.301317" lon="-4.255283">
        <ele>337.0</ele>
        <time>2015-04-28T14:33:14Z</time>
      </trkpt>
      <trkpt lat="43.301350" lon="-4.255283">
        <ele>337.0</ele>
        <time>2015-04-28T14:33:15Z</time>
      </trkpt>
      <trkpt lat="43.301367" lon="-4.255283">
        <ele>336.0</ele>
        <time>2015-04-28T14:33:16Z</time>
      </trkpt>
      <trkpt lat="43.301417" lon="-4.255300">
        <ele>334.0</ele>
        <time>2015-04-28T14:33:17Z</time>
      </trkpt>
      <trkpt lat="43.301450" lon="-4.255300">
        <ele>332.0</ele>
        <time>2015-04-28T14:33:18Z</time>
      </trkpt>
      <trkpt lat="43.301500" lon="-4.255300">
        <ele>331.0</ele>
        <time>2015-04-28T14:33:19Z</time>
      </trkpt>
      <trkpt lat="43.301533" lon="-4.255300">
        <ele>332.0</ele>
        <time>2015-04-28T14:33:20Z</time>
      </trkpt>
      <trkpt lat="43.301567" lon="-4.255317">
        <ele>331.0</ele>
        <time>2015-04-28T14:33:21Z</time>
      </trkpt>
      <trkpt lat="43.301600" lon="-4.255333">
        <ele>330.0</ele>
        <time>2015-04-28T14:33:22Z</time>
      </trkpt>
      <trkpt lat="43.301650" lon="-4.255333">
        <ele>329.0</ele>
        <time>2015-04-28T14:33:23Z</time>
      </trkpt>
      <trkpt lat="43.301700" lon="-4.255350">
        <ele>327.0</ele>
        <time>2015-04-28T14:33:24Z</time>
      </trkpt>
      <trkpt lat="43.301733" lon="-4.255350">
        <ele>326.0</ele>
        <time>2015-04-28T14:33:25Z</time>
      </trkpt>
      <trkpt lat="43.301783" lon="-4.255350">
        <ele>325.0</ele>
        <time>2015-04-28T14:33:26Z</time>
      </trkpt>
      <trkpt lat="43.301817" lon="-4.255350">
        <ele>325.0</ele>
        <time>2015-04-28T14:33:27Z</time>
      </trkpt>
      <trkpt lat="43.301850" lon="-4.255350">
        <ele>324.0</ele>
        <time>2015-04-28T14:33:28Z</time>
      </trkpt>
      <trkpt lat="43.301883" lon="-4.255350">
        <ele>322.0</ele>
        <time>2015-04-28T14:33:29Z</time>
      </trkpt>
      <trkpt lat="43.301917" lon="-4.255350">
        <ele>321.0</ele>
        <time>2015-04-28T14:33:30Z</time>
      </trkpt>
      <trkpt lat="43.301950" lon="-4.255350">
        <ele>321.0</ele>
        <time>2015-04-28T14:33:31Z</time>
      </trkpt>
      <trkpt lat="43.301967" lon="-4.255350">
        <ele>321.0</ele>
        <time>2015-04-28T14:33:32Z</time>
      </trkpt>
      <trkpt lat="43.301983" lon="-4.255317">
        <ele>321.0</ele>
        <time>2015-04-28T14:33:33Z</time>
      </trkpt>
      <trkpt lat="43.302000" lon="-4.255300">
        <ele>321.0</ele>
        <time>2015-04-28T14:33:34Z</time>
      </trkpt>
      <trkpt lat="43.302000" lon="-4.255283">
        <ele>320.0</ele>
        <time>2015-04-28T14:33:35Z</time>
      </trkpt>
      <trkpt lat="43.302000" lon="-4.255267">
        <ele>319.0</ele>
        <time>2015-04-28T14:33:36Z</time>
      </trkpt>
      <trkpt lat="43.302000" lon="-4.255250">
        <ele>318.0</ele>
        <time>2015-04-28T14:33:37Z</time>
      </trkpt>
      <trkpt lat="43.302017" lon="-4.255250">
        <ele>317.0</ele>
        <time>2015-04-28T14:33:38Z</time>
      </trkpt>
      <trkpt lat="43.302033" lon="-4.255250">
        <ele>315.0</ele>
        <time>2015-04-28T14:33:39Z</time>
      </trkpt>
      <trkpt lat="43.302067" lon="-4.255250">
        <ele>313.0</ele>
        <time>2015-04-28T14:33:40Z</time>
      </trkpt>
      <trkpt lat="43.302100" lon="-4.255267">
        <ele>312.0</ele>
        <time>2015-04-28T14:33:41Z</time>
      </trkpt>
      <trkpt lat="43.302117" lon="-4.255267">
        <ele>310.0</ele>
        <time>2015-04-28T14:33:42Z</time>
      </trkpt>
      <trkpt lat="43.302133" lon="-4.255233">
        <ele>309.0</ele>
        <time>2015-04-28T14:33:43Z</time>
      </trkpt>
      <trkpt lat="43.302150" lon="-4.255200">
        <ele>307.0</ele>
        <time>2015-04-28T14:33:44Z</time>
      </trkpt>
      <trkpt lat="43.302150" lon="-4.255167">
        <ele>309.0</ele>
        <time>2015-04-28T14:33:45Z</time>
      </trkpt>
      <trkpt lat="43.302167" lon="-4.255117">
        <ele>308.0</ele>
        <time>2015-04-28T14:33:46Z</time>
      </trkpt>
      <trkpt lat="43.302183" lon="-4.255083">
        <ele>308.0</ele>
        <time>2015-04-28T14:33:47Z</time>
      </trkpt>
      <trkpt lat="43.302200" lon="-4.255050">
        <ele>308.0</ele>
        <time>2015-04-28T14:33:48Z</time>
      </trkpt>
      <trkpt lat="43.302183" lon="-4.255017">
        <ele>308.0</ele>
        <time>2015-04-28T14:33:49Z</time>
      </trkpt>
      <trkpt lat="43.302167" lon="-4.255000">
        <ele>307.0</ele>
        <time>2015-04-28T14:33:50Z</time>
      </trkpt>
      <trkpt lat="43.302133" lon="-4.254983">
        <ele>307.0</ele>
        <time>2015-04-28T14:33:51Z</time>
      </trkpt>
      <trkpt lat="43.302117" lon="-4.254967">
        <ele>306.0</ele>
        <time>2015-04-28T14:33:52Z</time>
      </trkpt>
      <trkpt lat="43.302117" lon="-4.254933">
        <ele>305.0</ele>
        <time>2015-04-28T14:33:53Z</time>
      </trkpt>
      <trkpt lat="43.302100" lon="-4.254883">
        <ele>305.0</ele>
        <time>2015-04-28T14:33:54Z</time>
      </trkpt>
      <trkpt lat="43.302100" lon="-4.254833">
        <ele>303.0</ele>
        <time>2015-04-28T14:33:55Z</time>
      </trkpt>
      <trkpt lat="43.302067" lon="-4.254767">
        <ele>303.0</ele>
        <time>2015-04-28T14:33:56Z</time>
      </trkpt>
      <trkpt lat="43.302050" lon="-4.254717">
        <ele>303.0</ele>
        <time>2015-04-28T14:33:57Z</time>
      </trkpt>
      <trkpt lat="43.302033" lon="-4.254700">
        <ele>304.0</ele>
        <time>2015-04-28T14:33:58Z</time>
      </trkpt>
      <trkpt lat="43.302017" lon="-4.254717">
        <ele>303.0</ele>
        <time>2015-04-28T14:33:59Z</time>
      </trkpt>
      <trkpt lat="43.302017" lon="-4.254733">
        <ele>302.0</ele>
        <time>2015-04-28T14:34:00Z</time>
      </trkpt>
      <trkpt lat="43.302017" lon="-4.254733">
        <ele>301.0</ele>
        <time>2015-04-28T14:34:01Z</time>
      </trkpt>
      <trkpt lat="43.302017" lon="-4.254717">
        <ele>299.0</ele>
        <time>2015-04-28T14:34:02Z</time>
      </trkpt>
      <trkpt lat="43.302017" lon="-4.254700">
        <ele>298.0</ele>
        <time>2015-04-28T14:34:03Z</time>
      </trkpt>
      <trkpt lat="43.302017" lon="-4.254683">
        <ele>298.0</ele>
        <time>2015-04-28T14:34:04Z</time>
      </trkpt>
      <trkpt lat="43.302017" lon="-4.254683">
        <ele>297.0</ele>
        <time>2015-04-28T14:34:05Z</time>
      </trkpt>
      <trkpt lat="43.302017" lon="-4.254667">
        <ele>296.0</ele>
        <time>2015-04-28T14:34:06Z</time>
      </trkpt>
      <trkpt lat="43.302017" lon="-4.254650">
        <ele>295.0</ele>
        <time>2015-04-28T14:34:07Z</time>
      </trkpt>
      <trkpt lat="43.302017" lon="-4.254650">
        <ele>296.0</ele>
        <time>2015-04-28T14:34:08Z</time>
      </trkpt>
      <trkpt lat="43.302017" lon="-4.254667">
        <ele>295.0</ele>
        <time>2015-04-28T14:34:09Z</time>
      </trkpt>
      <trkpt lat="43.302017" lon="-4.254683">
        <ele>295.0</ele>
        <time>2015-04-28T14:34:10Z</time>
      </trkpt>
      <trkpt lat="43.302017" lon="-4.254683">
        <ele>294.0</ele>
        <time>2015-04-28T14:34:11Z</time>
      </trkpt>
      <trkpt lat="43.302033" lon="-4.254683">
        <ele>292.0</ele>
        <time>2015-04-28T14:34:12Z</time>
      </trkpt>
      <trkpt lat="43.302050" lon="-4.254683">
        <ele>290.0</ele>
        <time>2015-04-28T14:34:13Z</time>
      </trkpt>
      <trkpt lat="43.302083" lon="-4.254650">
        <ele>288.0</ele>
        <time>2015-04-28T14:34:14Z</time>
      </trkpt>
      <trkpt lat="43.302100" lon="-4.254633">
        <ele>290.0</ele>
        <time>2015-04-28T14:34:15Z</time>
      </trkpt>
      <trkpt lat="43.302117" lon="-4.254600">
        <ele>290.0</ele>
        <time>2015-04-28T14:34:16Z</time>
      </trkpt>
      <trkpt lat="43.302117" lon="-4.254600">
        <ele>289.0</ele>
        <time>2015-04-28T14:34:17Z</time>
      </trkpt>
      <trkpt lat="43.302100" lon="-4.254583">
        <ele>289.0</ele>
        <time>2015-04-28T14:34:18Z</time>
      </trkpt>
      <trkpt lat="43.302083" lon="-4.254550">
        <ele>289.0</ele>
        <time>2015-04-28T14:34:19Z</time>
      </trkpt>
      <trkpt lat="43.302067" lon="-4.254533">
        <ele>288.0</ele>
        <time>2015-04-28T14:34:20Z</time>
      </trkpt>
      <trkpt lat="43.302050" lon="-4.254517">
        <ele>287.0</ele>
        <time>2015-04-28T14:34:21Z</time>
      </trkpt>
      <trkpt lat="43.302050" lon="-4.254500">
        <ele>286.0</ele>
        <time>2015-04-28T14:34:22Z</time>
      </trkpt>
      <trkpt lat="43.302067" lon="-4.254500">
        <ele>285.0</ele>
        <time>2015-04-28T14:34:23Z</time>
      </trkpt>
      <trkpt lat="43.302050" lon="-4.254500">
        <ele>285.0</ele>
        <time>2015-04-28T14:34:24Z</time>
      </trkpt>
      <trkpt lat="43.302033" lon="-4.254500">
        <ele>285.0</ele>
        <time>2015-04-28T14:34:25Z</time>
      </trkpt>
      <trkpt lat="43.302033" lon="-4.254500">
        <ele>284.0</ele>
        <time>2015-04-28T14:34:26Z</time>
      </trkpt>
      <trkpt lat="43.302033" lon="-4.254500">
        <ele>282.0</ele>
        <time>2015-04-28T14:34:27Z</time>
      </trkpt>
      <trkpt lat="43.302033" lon="-4.254483">
        <ele>281.0</ele>
        <time>2015-04-28T14:34:28Z</time>
      </trkpt>
      <trkpt lat="43.302033" lon="-4.254467">
        <ele>282.0</ele>
        <time>2015-04-28T14:34:29Z</time>
      </trkpt>
      <trkpt lat="43.302017" lon="-4.254467">
        <ele>282.0</ele>
        <time>2015-04-28T14:34:30Z</time>
      </trkpt>
      <trkpt lat="43.302017" lon="-4.254467">
        <ele>281.0</ele>
        <time>2015-04-28T14:34:31Z</time>
      </trkpt>
      <trkpt lat="43.302017" lon="-4.254433">
        <ele>281.0</ele>
        <time>2015-04-28T14:34:32Z</time>
      </trkpt>
      <trkpt lat="43.302033" lon="-4.254400">
        <ele>279.0</ele>
        <time>2015-04-28T14:34:33Z</time>
      </trkpt>
      <trkpt lat="43.302050" lon="-4.254383">
        <ele>277.0</ele>
        <time>2015-04-28T14:34:34Z</time>
      </trkpt>
      <trkpt lat="43.302067" lon="-4.254383">
        <ele>276.0</ele>
        <time>2015-04-28T14:34:35Z</time>
      </trkpt>
      <trkpt lat="43.302100" lon="-4.254417">
        <ele>274.0</ele>
        <time>2015-04-28T14:34:36Z</time>
      </trkpt>
      <trkpt lat="43.302117" lon="-4.254450">
        <ele>274.0</ele>
        <time>2015-04-28T14:34:37Z</time>
      </trkpt>
      <trkpt lat="43.302133" lon="-4.254467">
        <ele>272.0</ele>
        <time>2015-04-28T14:34:38Z</time>
      </trkpt>
      <trkpt lat="43.302167" lon="-4.254467">
        <ele>270.0</ele>
        <time>2015-04-28T14:34:39Z</time>
      </trkpt>
      <trkpt lat="43.302200" lon="-4.254483">
        <ele>268.0</ele>
        <time>2015-04-28T14:34:40Z</time>
      </trkpt>
      <trkpt lat="43.302233" lon="-4.254483">
        <ele>266.0</ele>
        <time>2015-04-28T14:34:41Z</time>
      </trkpt>
      <trkpt lat="43.302250" lon="-4.254483">
        <ele>264.0</ele>
        <time>2015-04-28T14:34:42Z</time>
      </trkpt>
      <trkpt lat="43.302250" lon="-4.254483">
        <ele>262.0</ele>
        <time>2015-04-28T14:34:43Z</time>
      </trkpt>
      <trkpt lat="43.302283" lon="-4.254467">
        <ele>260.0</ele>
        <time>2015-04-28T14:34:44Z</time>
      </trkpt>
      <trkpt lat="43.302317" lon="-4.254467">
        <ele>258.0</ele>
        <time>2015-04-28T14:34:45Z</time>
      </trkpt>
      <trkpt lat="43.302317" lon="-4.254450">
        <ele>257.0</ele>
        <time>2015-04-28T14:34:46Z</time>
      </trkpt>
      <trkpt lat="43.302317" lon="-4.254433">
        <ele>256.0</ele>
        <time>2015-04-28T14:34:47Z</time>
      </trkpt>
      <trkpt lat="43.302317" lon="-4.254383">
        <ele>254.0</ele>
        <time>2015-04-28T14:34:48Z</time>
      </trkpt>
      <trkpt lat="43.302300" lon="-4.254333">
        <ele>253.0</ele>
        <time>2015-04-28T14:34:49Z</time>
      </trkpt>
      <trkpt lat="43.302300" lon="-4.254267">
        <ele>253.0</ele>
        <time>2015-04-28T14:34:50Z</time>
      </trkpt>
      <trkpt lat="43.302300" lon="-4.254233">
        <ele>253.0</ele>
        <time>2015-04-28T14:34:51Z</time>
      </trkpt>
      <trkpt lat="43.302300" lon="-4.254233">
        <ele>252.0</ele>
        <time>2015-04-28T14:34:52Z</time>
      </trkpt>
      <trkpt lat="43.302317" lon="-4.254250">
        <ele>251.0</ele>
        <time>2015-04-28T14:34:53Z</time>
      </trkpt>
      <trkpt lat="43.302350" lon="-4.254233">
        <ele>249.0</ele>
        <time>2015-04-28T14:34:54Z</time>
      </trkpt>
      <trkpt lat="43.302383" lon="-4.254217">
        <ele>247.0</ele>
        <time>2015-04-28T14:34:55Z</time>
      </trkpt>
      <trkpt lat="43.302417" lon="-4.254217">
        <ele>248.0</ele>
        <time>2015-04-28T14:34:56Z</time>
      </trkpt>
      <trkpt lat="43.302450" lon="-4.254233">
        <ele>248.0</ele>
        <time>2015-04-28T14:34:57Z</time>
      </trkpt>
      <trkpt lat="43.302467" lon="-4.254250">
        <ele>248.0</ele>
        <time>2015-04-28T14:34:58Z</time>
      </trkpt>
      <trkpt lat="43.302500" lon="-4.254283">
        <ele>248.0</ele>
        <time>2015-04-28T14:34:59Z</time>
      </trkpt>
      <trkpt lat="43.302533" lon="-4.254300">
        <ele>247.0</ele>
        <time>2015-04-28T14:35:00Z</time>
      </trkpt>
      <trkpt lat="43.302583" lon="-4.254317">
        <ele>247.0</ele>
        <time>2015-04-28T14:35:01Z</time>
      </trkpt>
      <trkpt lat="43.302617" lon="-4.254333">
        <ele>246.0</ele>
        <time>2015-04-28T14:35:02Z</time>
      </trkpt>
      <trkpt lat="43.302650" lon="-4.254350">
        <ele>245.0</ele>
        <time>2015-04-28T14:35:03Z</time>
      </trkpt>
      <trkpt lat="43.302683" lon="-4.254350">
        <ele>244.0</ele>
        <time>2015-04-28T14:35:04Z</time>
      </trkpt>
      <trkpt lat="43.302717" lon="-4.254367">
        <ele>243.0</ele>
        <time>2015-04-28T14:35:05Z</time>
      </trkpt>
      <trkpt lat="43.302733" lon="-4.254367">
        <ele>243.0</ele>
        <time>2015-04-28T14:35:06Z</time>
      </trkpt>
      <trkpt lat="43.302750" lon="-4.254350">
        <ele>242.0</ele>
        <time>2015-04-28T14:35:07Z</time>
      </trkpt>
      <trkpt lat="43.302767" lon="-4.254333">
        <ele>240.0</ele>
        <time>2015-04-28T14:35:08Z</time>
      </trkpt>
      <trkpt lat="43.302767" lon="-4.254283">
        <ele>239.0</ele>
        <time>2015-04-28T14:35:09Z</time>
      </trkpt>
      <trkpt lat="43.302750" lon="-4.254250">
        <ele>238.0</ele>
        <time>2015-04-28T14:35:10Z</time>
      </trkpt>
      <trkpt lat="43.302700" lon="-4.254200">
        <ele>237.0</ele>
        <time>2015-04-28T14:35:11Z</time>
      </trkpt>
      <trkpt lat="43.302650" lon="-4.254150">
        <ele>236.0</ele>
        <time>2015-04-28T14:35:12Z</time>
      </trkpt>
      <trkpt lat="43.302583" lon="-4.254117">
        <ele>235.0</ele>
        <time>2015-04-28T14:35:13Z</time>
      </trkpt>
      <trkpt lat="43.302517" lon="-4.254100">
        <ele>233.0</ele>
        <time>2015-04-28T14:35:14Z</time>
      </trkpt>
      <trkpt lat="43.302450" lon="-4.254050">
        <ele>232.0</ele>
        <time>2015-04-28T14:35:15Z</time>
      </trkpt>
      <trkpt lat="43.302417" lon="-4.254000">
        <ele>230.0</ele>
        <time>2015-04-28T14:35:16Z</time>
      </trkpt>
      <trkpt lat="43.302417" lon="-4.253950">
        <ele>227.0</ele>
        <time>2015-04-28T14:35:17Z</time>
      </trkpt>
      <trkpt lat="43.302433" lon="-4.253883">
        <ele>225.0</ele>
        <time>2015-04-28T14:35:18Z</time>
      </trkpt>
      <trkpt lat="43.302467" lon="-4.253833">
        <ele>224.0</ele>
        <time>2015-04-28T14:35:19Z</time>
      </trkpt>
      <trkpt lat="43.302500" lon="-4.253817">
        <ele>224.0</ele>
        <time>2015-04-28T14:35:20Z</time>
      </trkpt>
      <trkpt lat="43.302567" lon="-4.253833">
        <ele>223.0</ele>
        <time>2015-04-28T14:35:21Z</time>
      </trkpt>
      <trkpt lat="43.302617" lon="-4.253867">
        <ele>221.0</ele>
        <time>2015-04-28T14:35:22Z</time>
      </trkpt>
      <trkpt lat="43.302667" lon="-4.253917">
        <ele>220.0</ele>
        <time>2015-04-28T14:35:23Z</time>
      </trkpt>
      <trkpt lat="43.302717" lon="-4.253983">
        <ele>219.0</ele>
        <time>2015-04-28T14:35:24Z</time>
      </trkpt>
      <trkpt lat="43.302750" lon="-4.254017">
        <ele>219.0</ele>
        <time>2015-04-28T14:35:25Z</time>
      </trkpt>
      <trkpt lat="43.302800" lon="-4.254017">
        <ele>217.0</ele>
        <time>2015-04-28T14:35:26Z</time>
      </trkpt>
      <trkpt lat="43.302850" lon="-4.253950">
        <ele>216.0</ele>
        <time>2015-04-28T14:35:27Z</time>
      </trkpt>
      <trkpt lat="43.302883" lon="-4.253867">
        <ele>215.0</ele>
        <time>2015-04-28T14:35:28Z</time>
      </trkpt>
      <trkpt lat="43.302883" lon="-4.253767">
        <ele>215.0</ele>
        <time>2015-04-28T14:35:29Z</time>
      </trkpt>
      <trkpt lat="43.302850" lon="-4.253667">
        <ele>214.0</ele>
        <time>2015-04-28T14:35:30Z</time>
      </trkpt>
      <trkpt lat="43.302800" lon="-4.253583">
        <ele>214.0</ele>
        <time>2015-04-28T14:35:31Z</time>
      </trkpt>
      <trkpt lat="43.302733" lon="-4.253550">
        <ele>213.0</ele>
        <time>2015-04-28T14:35:32Z</time>
      </trkpt>
      <trkpt lat="43.302667" lon="-4.253533">
        <ele>213.0</ele>
        <time>2015-04-28T14:35:33Z</time>
      </trkpt>
      <trkpt lat="43.302617" lon="-4.253517">
        <ele>213.0</ele>
        <time>2015-04-28T14:35:34Z</time>
      </trkpt>
      <trkpt lat="43.302583" lon="-4.253450">
        <ele>212.0</ele>
        <time>2015-04-28T14:35:35Z</time>
      </trkpt>
      <trkpt lat="43.302550" lon="-4.253367">
        <ele>211.0</ele>
        <time>2015-04-28T14:35:36Z</time>
      </trkpt>
      <trkpt lat="43.302550" lon="-4.253283">
        <ele>211.0</ele>
        <time>2015-04-28T14:35:37Z</time>
      </trkpt>
      <trkpt lat="43.302583" lon="-4.253233">
        <ele>210.0</ele>
        <time>2015-04-28T14:35:38Z</time>
      </trkpt>
      <trkpt lat="43.302633" lon="-4.253233">
        <ele>208.0</ele>
        <time>2015-04-28T14:35:39Z</time>
      </trkpt>
      <trkpt lat="43.302700" lon="-4.253250">
        <ele>206.0</ele>
        <time>2015-04-28T14:35:40Z</time>
      </trkpt>
      <trkpt lat="43.302750" lon="-4.253300">
        <ele>205.0</ele>
        <time>2015-04-28T14:35:41Z</time>
      </trkpt>
      <trkpt lat="43.302783" lon="-4.253383">
        <ele>203.0</ele>
        <time>2015-04-28T14:35:42Z</time>
      </trkpt>
      <trkpt lat="43.302800" lon="-4.253467">
        <ele>202.0</ele>
        <time>2015-04-28T14:35:43Z</time>
      </trkpt>
      <trkpt lat="43.302817" lon="-4.253533">
        <ele>202.0</ele>
        <time>2015-04-28T14:35:44Z</time>
      </trkpt>
      <trkpt lat="43.302850" lon="-4.253583">
        <ele>201.0</ele>
        <time>2015-04-28T14:35:45Z</time>
      </trkpt>
      <trkpt lat="43.302900" lon="-4.253600">
        <ele>199.0</ele>
        <time>2015-04-28T14:35:46Z</time>
      </trkpt>
      <trkpt lat="43.302950" lon="-4.253583">
        <ele>197.0</ele>
        <time>2015-04-28T14:35:47Z</time>
      </trkpt>
      <trkpt lat="43.303017" lon="-4.253550">
        <ele>197.0</ele>
        <time>2015-04-28T14:35:48Z</time>
      </trkpt>
      <trkpt lat="43.303050" lon="-4.253483">
        <ele>197.0</ele>
        <time>2015-04-28T14:35:49Z</time>
      </trkpt>
      <trkpt lat="43.303067" lon="-4.253417">
        <ele>196.0</ele>
        <time>2015-04-28T14:35:50Z</time>
      </trkpt>
      <trkpt lat="43.303083" lon="-4.253350">
        <ele>195.0</ele>
        <time>2015-04-28T14:35:51Z</time>
      </trkpt>
      <trkpt lat="43.303117" lon="-4.253317">
        <ele>194.0</ele>
        <time>2015-04-28T14:35:52Z</time>
      </trkpt>
      <trkpt lat="43.303167" lon="-4.253317">
        <ele>191.0</ele>
        <time>2015-04-28T14:35:53Z</time>
      </trkpt>
      <trkpt lat="43.303250" lon="-4.253383">
        <ele>190.0</ele>
        <time>2015-04-28T14:35:54Z</time>
      </trkpt>
      <trkpt lat="43.303300" lon="-4.253450">
        <ele>189.0</ele>
        <time>2015-04-28T14:35:55Z</time>
      </trkpt>
      <trkpt lat="43.303367" lon="-4.253467">
        <ele>188.0</ele>
        <time>2015-04-28T14:35:56Z</time>
      </trkpt>
      <trkpt lat="43.303383" lon="-4.253417">
        <ele>183.0</ele>
        <time>2015-04-28T14:35:57Z</time>
      </trkpt>
      <trkpt lat="43.303400" lon="-4.253283">
        <ele>181.0</ele>
        <time>2015-04-28T14:35:58Z</time>
      </trkpt>
      <trkpt lat="43.303400" lon="-4.253150">
        <ele>179.0</ele>
        <time>2015-04-28T14:35:59Z</time>
      </trkpt>
      <trkpt lat="43.303417" lon="-4.253117">
        <ele>180.0</ele>
        <time>2015-04-28T14:36:00Z</time>
      </trkpt>
      <trkpt lat="43.303417" lon="-4.253067">
        <ele>180.0</ele>
        <time>2015-04-28T14:36:01Z</time>
      </trkpt>
      <trkpt lat="43.303417" lon="-4.253033">
        <ele>179.0</ele>
        <time>2015-04-28T14:36:02Z</time>
      </trkpt>
      <trkpt lat="43.303400" lon="-4.252950">
        <ele>178.0</ele>
        <time>2015-04-28T14:36:03Z</time>
      </trkpt>
      <trkpt lat="43.303400" lon="-4.252867">
        <ele>176.0</ele>
        <time>2015-04-28T14:36:04Z</time>
      </trkpt>
      <trkpt lat="43.303417" lon="-4.252767">
        <ele>175.0</ele>
        <time>2015-04-28T14:36:05Z</time>
      </trkpt>
      <trkpt lat="43.303433" lon="-4.252683">
        <ele>175.0</ele>
        <time>2015-04-28T14:36:06Z</time>
      </trkpt>
      <trkpt lat="43.303433" lon="-4.252633">
        <ele>175.0</ele>
        <time>2015-04-28T14:36:07Z</time>
      </trkpt>
      <trkpt lat="43.303433" lon="-4.252600">
        <ele>174.0</ele>
        <time>2015-04-28T14:36:08Z</time>
      </trkpt>
      <trkpt lat="43.303433" lon="-4.252533">
        <ele>174.0</ele>
        <time>2015-04-28T14:36:09Z</time>
      </trkpt>
      <trkpt lat="43.303417" lon="-4.252450">
        <ele>174.0</ele>
        <time>2015-04-28T14:36:10Z</time>
      </trkpt>
      <trkpt lat="43.303417" lon="-4.252383">
        <ele>174.0</ele>
        <time>2015-04-28T14:36:11Z</time>
      </trkpt>
      <trkpt lat="43.303433" lon="-4.252350">
        <ele>173.0</ele>
        <time>2015-04-28T14:36:12Z</time>
      </trkpt>
      <trkpt lat="43.303450" lon="-4.252333">
        <ele>174.0</ele>
        <time>2015-04-28T14:36:13Z</time>
      </trkpt>
      <trkpt lat="43.303467" lon="-4.252300">
        <ele>173.0</ele>
        <time>2015-04-28T14:36:14Z</time>
      </trkpt>
      <trkpt lat="43.303450" lon="-4.252267">
        <ele>172.0</ele>
        <time>2015-04-28T14:36:15Z</time>
      </trkpt>
      <trkpt lat="43.303433" lon="-4.252217">
        <ele>172.0</ele>
        <time>2015-04-28T14:36:16Z</time>
      </trkpt>
      <trkpt lat="43.303417" lon="-4.252167">
        <ele>172.0</ele>
        <time>2015-04-28T14:36:17Z</time>
      </trkpt>
      <trkpt lat="43.303400" lon="-4.252150">
        <ele>172.0</ele>
        <time>2015-04-28T14:36:18Z</time>
      </trkpt>
      <trkpt lat="43.303383" lon="-4.252133">
        <ele>172.0</ele>
        <time>2015-04-28T14:36:19Z</time>
      </trkpt>
      <trkpt lat="43.303383" lon="-4.252117">
        <ele>171.0</ele>
        <time>2015-04-28T14:36:20Z</time>
      </trkpt>
      <trkpt lat="43.303400" lon="-4.252083">
        <ele>170.0</ele>
        <time>2015-04-28T14:36:21Z</time>
      </trkpt>
      <trkpt lat="43.303400" lon="-4.252033">
        <ele>171.0</ele>
        <time>2015-04-28T14:36:22Z</time>
      </trkpt>
      <trkpt lat="43.303417" lon="-4.251983">
        <ele>169.0</ele>
        <time>2015-04-28T14:36:23Z</time>
      </trkpt>
      <trkpt lat="43.303417" lon="-4.251933">
        <ele>168.0</ele>
        <time>2015-04-28T14:36:24Z</time>
      </trkpt>
      <trkpt lat="43.303400" lon="-4.251883">
        <ele>167.0</ele>
        <time>2015-04-28T14:36:25Z</time>
      </trkpt>
      <trkpt lat="43.303400" lon="-4.251883">
        <ele>167.0</ele>
        <time>2015-04-28T14:36:26Z</time>
      </trkpt>
      <trkpt lat="43.303400" lon="-4.251900">
        <ele>166.0</ele>
        <time>2015-04-28T14:36:27Z</time>
      </trkpt>
      <trkpt lat="43.303417" lon="-4.251900">
        <ele>165.0</ele>
        <time>2015-04-28T14:36:28Z</time>
      </trkpt>
      <trkpt lat="43.303417" lon="-4.251917">
        <ele>166.0</ele>
        <time>2015-04-28T14:36:29Z</time>
      </trkpt>
      <trkpt lat="43.303400" lon="-4.251917">
        <ele>166.0</ele>
        <time>2015-04-28T14:36:30Z</time>
      </trkpt>
      <trkpt lat="43.303400" lon="-4.251933">
        <ele>166.0</ele>
        <time>2015-04-28T14:36:31Z</time>
      </trkpt>
      <trkpt lat="43.303400" lon="-4.251933">
        <ele>166.0</ele>
        <time>2015-04-28T14:36:32Z</time>
      </trkpt>
      <trkpt lat="43.303400" lon="-4.251933">
        <ele>166.0</ele>
        <time>2015-04-28T14:36:33Z</time>
      </trkpt>
      <trkpt lat="43.303400" lon="-4.251917">
        <ele>165.0</ele>
        <time>2015-04-28T14:36:34Z</time>
      </trkpt>
      <trkpt lat="43.303400" lon="-4.251917">
        <ele>165.0</ele>
        <time>2015-04-28T14:36:35Z</time>
      </trkpt>
      <trkpt lat="43.303400" lon="-4.251933">
        <ele>165.0</ele>
        <time>2015-04-28T14:36:36Z</time>
      </trkpt>
      <trkpt lat="43.303400" lon="-4.251933">
        <ele>165.0</ele>
        <time>2015-04-28T14:36:37Z</time>
      </trkpt>
      <trkpt lat="43.303400" lon="-4.251933">
        <ele>165.0</ele>
        <time>2015-04-28T14:36:38Z</time>
      </trkpt>
      <trkpt lat="43.303400" lon="-4.251933">
        <ele>165.0</ele>
        <time>2015-04-28T14:36:39Z</time>
      </trkpt>
      <trkpt lat="43.303400" lon="-4.251933">
        <ele>164.0</ele>
        <time>2015-04-28T14:36:40Z</time>
      </trkpt>
      <trkpt lat="43.303400" lon="-4.251933">
        <ele>164.0</ele>
        <time>2015-04-28T14:36:41Z</time>
      </trkpt>
      <trkpt lat="43.303400" lon="-4.251933">
        <ele>164.0</ele>
        <time>2015-04-28T14:36:42Z</time>
      </trkpt>
      <trkpt lat="43.303400" lon="-4.251933">
        <ele>164.0</ele>
        <time>2015-04-28T14:36:43Z</time>
      </trkpt>
      <trkpt lat="43.303400" lon="-4.251933">
        <ele>164.0</ele>
        <time>2015-04-28T14:36:44Z</time>
      </trkpt>
      <trkpt lat="43.303400" lon="-4.251933">
        <ele>164.0</ele>
        <time>2015-04-28T14:36:45Z</time>
      </trkpt>
      <trkpt lat="43.303400" lon="-4.251933">
        <ele>164.0</ele>
        <time>2015-04-28T14:36:46Z</time>
      </trkpt>
      <trkpt lat="43.303400" lon="-4.251933">
        <ele>164.0</ele>
        <time>2015-04-28T14:36:47Z</time>
      </trkpt>
      <trkpt lat="43.303400" lon="-4.251933">
        <ele>164.0</ele>
        <time>2015-04-28T14:36:48Z</time>
      </trkpt>
      <trkpt lat="43.303400" lon="-4.251933">
        <ele>164.0</ele>
        <time>2015-04-28T14:36:49Z</time>
      </trkpt>
      <trkpt lat="43.303400" lon="-4.251933">
        <ele>164.0</ele>
        <time>2015-04-28T14:36:50Z</time>
      </trkpt>
      <trkpt lat="43.303400" lon="-4.251933">
        <ele>163.0</ele>
        <time>2015-04-28T14:36:51Z</time>
      </trkpt>
      <trkpt lat="43.303400" lon="-4.251933">
        <ele>163.0</ele>
        <time>2015-04-28T14:36:52Z</time>
      </trkpt>
      <trkpt lat="43.303400" lon="-4.251917">
        <ele>163.0</ele>
        <time>2015-04-28T14:36:53Z</time>
      </trkpt>
      <trkpt lat="43.303417" lon="-4.251933">
        <ele>163.0</ele>
        <time>2015-04-28T14:36:54Z</time>
      </trkpt>
      <trkpt lat="43.303400" lon="-4.251950">
        <ele>163.0</ele>
        <time>2015-04-28T14:36:55Z</time>
      </trkpt>
      <trkpt lat="43.303400" lon="-4.251950">
        <ele>163.0</ele>
        <time>2015-04-28T14:36:56Z</time>
      </trkpt>
      <trkpt lat="43.303400" lon="-4.251950">
        <ele>163.0</ele>
        <time>2015-04-28T14:36:57Z</time>
      </trkpt>
      <trkpt lat="43.303400" lon="-4.251967">
        <ele>163.0</ele>
        <time>2015-04-28T14:36:58Z</time>
      </trkpt>
      <trkpt lat="43.303400" lon="-4.251983">
        <ele>163.0</ele>
        <time>2015-04-28T14:36:59Z</time>
      </trkpt>
      <trkpt lat="43.303400" lon="-4.251983">
        <ele>163.0</ele>
        <time>2015-04-28T14:37:00Z</time>
      </trkpt>
      <trkpt lat="43.303383" lon="-4.251983">
        <ele>163.0</ele>
        <time>2015-04-28T14:37:01Z</time>
      </trkpt>
      <trkpt lat="43.303383" lon="-4.251983">
        <ele>163.0</ele>
        <time>2015-04-28T14:37:02Z</time>
      </trkpt>
      <trkpt lat="43.303383" lon="-4.251983">
        <ele>163.0</ele>
        <time>2015-04-28T14:37:03Z</time>
      </trkpt>
      <trkpt lat="43.303383" lon="-4.251983">
        <ele>163.0</ele>
        <time>2015-04-28T14:37:04Z</time>
      </trkpt>
      <trkpt lat="43.303383" lon="-4.251967">
        <ele>163.0</ele>
        <time>2015-04-28T14:37:05Z</time>
      </trkpt>
      <trkpt lat="43.303383" lon="-4.251983">
        <ele>163.0</ele>
        <time>2015-04-28T14:37:06Z</time>
      </trkpt>
      <trkpt lat="43.303383" lon="-4.251983">
        <ele>163.0</ele>
        <time>2015-04-28T14:37:07Z</time>
      </trkpt>
      <trkpt lat="43.303383" lon="-4.251983">
        <ele>163.0</ele>
        <time>2015-04-28T14:37:08Z</time>
      </trkpt>
      <trkpt lat="43.303383" lon="-4.251983">
        <ele>162.0</ele>
        <time>2015-04-28T14:37:09Z</time>
      </trkpt>
      <trkpt lat="43.303383" lon="-4.251983">
        <ele>162.0</ele>
        <time>2015-04-28T14:37:10Z</time>
      </trkpt>
      <trkpt lat="43.303383" lon="-4.251983">
        <ele>162.0</ele>
        <time>2015-04-28T14:37:11Z</time>
      </trkpt>
      <trkpt lat="43.303367" lon="-4.251967">
        <ele>162.0</ele>
        <time>2015-04-28T14:37:12Z</time>
      </trkpt>
      <trkpt lat="43.303383" lon="-4.251967">
        <ele>162.0</ele>
        <time>2015-04-28T14:37:13Z</time>
      </trkpt>
      <trkpt lat="43.303367" lon="-4.251967">
        <ele>162.0</ele>
        <time>2015-04-28T14:37:14Z</time>
      </trkpt>
      <trkpt lat="43.303367" lon="-4.251967">
        <ele>162.0</ele>
        <time>2015-04-28T14:37:15Z</time>
      </trkpt>
      <trkpt lat="43.303367" lon="-4.251967">
        <ele>162.0</ele>
        <time>2015-04-28T14:37:16Z</time>
      </trkpt>
      <trkpt lat="43.303383" lon="-4.251950">
        <ele>162.0</ele>
        <time>2015-04-28T14:37:17Z</time>
      </trkpt>
      <trkpt lat="43.303383" lon="-4.251950">
        <ele>162.0</ele>
        <time>2015-04-28T14:37:18Z</time>
      </trkpt>
      <trkpt lat="43.303383" lon="-4.251967">
        <ele>162.0</ele>
        <time>2015-04-28T14:37:19Z</time>
      </trkpt>
      <trkpt lat="43.303383" lon="-4.251967">
        <ele>162.0</ele>
        <time>2015-04-28T14:37:20Z</time>
      </trkpt>
      <trkpt lat="43.303383" lon="-4.251967">
        <ele>161.0</ele>
        <time>2015-04-28T14:37:21Z</time>
      </trkpt>
      <trkpt lat="43.303383" lon="-4.251967">
        <ele>161.0</ele>
        <time>2015-04-28T14:37:22Z</time>
      </trkpt>
      <trkpt lat="43.303383" lon="-4.251950">
        <ele>161.0</ele>
        <time>2015-04-28T14:37:23Z</time>
      </trkpt>
      <trkpt lat="43.303367" lon="-4.251950">
        <ele>161.0</ele>
        <time>2015-04-28T14:37:24Z</time>
      </trkpt>
      <trkpt lat="43.303367" lon="-4.251933">
        <ele>161.0</ele>
        <time>2015-04-28T14:37:25Z</time>
      </trkpt>
      <trkpt lat="43.303350" lon="-4.251917">
        <ele>161.0</ele>
        <time>2015-04-28T14:37:26Z</time>
      </trkpt>
      <trkpt lat="43.303350" lon="-4.251900">
        <ele>161.0</ele>
        <time>2015-04-28T14:37:27Z</time>
      </trkpt>
      <trkpt lat="43.303350" lon="-4.251883">
        <ele>161.0</ele>
        <time>2015-04-28T14:37:28Z</time>
      </trkpt>
      <trkpt lat="43.303350" lon="-4.251883">
        <ele>161.0</ele>
        <time>2015-04-28T14:37:29Z</time>
      </trkpt>
      <trkpt lat="43.303333" lon="-4.251867">
        <ele>161.0</ele>
        <time>2015-04-28T14:37:30Z</time>
      </trkpt>
      <trkpt lat="43.303333" lon="-4.251867">
        <ele>162.0</ele>
        <time>2015-04-28T14:37:31Z</time>
      </trkpt>
      <trkpt lat="43.303333" lon="-4.251883">
        <ele>162.0</ele>
        <time>2015-04-28T14:37:32Z</time>
      </trkpt>
      <trkpt lat="43.303333" lon="-4.251883">
        <ele>162.0</ele>
        <time>2015-04-28T14:37:33Z</time>
      </trkpt>
      <trkpt lat="43.303333" lon="-4.251883">
        <ele>162.0</ele>
        <time>2015-04-28T14:37:34Z</time>
      </trkpt>
      <trkpt lat="43.303333" lon="-4.251867">
        <ele>162.0</ele>
        <time>2015-04-28T14:37:35Z</time>
      </trkpt>
      <trkpt lat="43.303317" lon="-4.251850">
        <ele>162.0</ele>
        <time>2015-04-28T14:37:36Z</time>
      </trkpt>
      <trkpt lat="43.303317" lon="-4.251850">
        <ele>162.0</ele>
        <time>2015-04-28T14:37:37Z</time>
      </trkpt>
      <trkpt lat="43.303333" lon="-4.251867">
        <ele>162.0</ele>
        <time>2015-04-28T14:37:38Z</time>
      </trkpt>
      <trkpt lat="43.303333" lon="-4.251883">
        <ele>162.0</ele>
        <time>2015-04-28T14:37:39Z</time>
      </trkpt>
      <trkpt lat="43.303333" lon="-4.251883">
        <ele>162.0</ele>
        <time>2015-04-28T14:37:40Z</time>
      </trkpt>
      <trkpt lat="43.303333" lon="-4.251900">
        <ele>162.0</ele>
        <time>2015-04-28T14:37:41Z</time>
      </trkpt>
      <trkpt lat="43.303333" lon="-4.251917">
        <ele>162.0</ele>
        <time>2015-04-28T14:37:42Z</time>
      </trkpt>
      <trkpt lat="43.303333" lon="-4.251933">
        <ele>162.0</ele>
        <time>2015-04-28T14:37:43Z</time>
      </trkpt>
      <trkpt lat="43.303333" lon="-4.251933">
        <ele>162.0</ele>
        <time>2015-04-28T14:37:44Z</time>
      </trkpt>
      <trkpt lat="43.303333" lon="-4.251950">
        <ele>162.0</ele>
        <time>2015-04-28T14:37:45Z</time>
      </trkpt>
      <trkpt lat="43.303333" lon="-4.251967">
        <ele>162.0</ele>
        <time>2015-04-28T14:37:46Z</time>
      </trkpt>
      <trkpt lat="43.303350" lon="-4.251967">
        <ele>162.0</ele>
        <time>2015-04-28T14:37:47Z</time>
      </trkpt>
      <trkpt lat="43.303350" lon="-4.251983">
        <ele>162.0</ele>
        <time>2015-04-28T14:37:48Z</time>
      </trkpt>
      <trkpt lat="43.303350" lon="-4.251983">
        <ele>162.0</ele>
        <time>2015-04-28T14:37:49Z</time>
      </trkpt>
      <trkpt lat="43.303350" lon="-4.252000">
        <ele>162.0</ele>
        <time>2015-04-28T14:37:50Z</time>
      </trkpt>
      <trkpt lat="43.303350" lon="-4.252000">
        <ele>162.0</ele>
        <time>2015-04-28T14:37:51Z</time>
      </trkpt>
      <trkpt lat="43.303367" lon="-4.252017">
        <ele>162.0</ele>
        <time>2015-04-28T14:37:52Z</time>
      </trkpt>
      <trkpt lat="43.303350" lon="-4.252033">
        <ele>162.0</ele>
        <time>2015-04-28T14:37:53Z</time>
      </trkpt>
      <trkpt lat="43.303350" lon="-4.252050">
        <ele>162.0</ele>
        <time>2015-04-28T14:37:54Z</time>
      </trkpt>
      <trkpt lat="43.303350" lon="-4.252050">
        <ele>162.0</ele>
        <time>2015-04-28T14:37:55Z</time>
      </trkpt>
      <trkpt lat="43.303350" lon="-4.252067">
        <ele>162.0</ele>
        <time>2015-04-28T14:37:56Z</time>
      </trkpt>
      <trkpt lat="43.303350" lon="-4.252083">
        <ele>162.0</ele>
        <time>2015-04-28T14:37:57Z</time>
      </trkpt>
      <trkpt lat="43.303350" lon="-4.252083">
        <ele>162.0</ele>
        <time>2015-04-28T14:37:58Z</time>
      </trkpt>
      <trkpt lat="43.303350" lon="-4.252117">
        <ele>162.0</ele>
        <time>2015-04-28T14:37:59Z</time>
      </trkpt>
      <trkpt lat="43.303350" lon="-4.252133">
        <ele>162.0</ele>
        <time>2015-04-28T14:38:00Z</time>
      </trkpt>
      <trkpt lat="43.303350" lon="-4.252133">
        <ele>162.0</ele>
        <time>2015-04-28T14:38:01Z</time>
      </trkpt>
      <trkpt lat="43.303350" lon="-4.252150">
        <ele>162.0</ele>
        <time>2015-04-28T14:38:02Z</time>
      </trkpt>
      <trkpt lat="43.303350" lon="-4.252150">
        <ele>162.0</ele>
        <time>2015-04-28T14:38:03Z</time>
      </trkpt>
      <trkpt lat="43.303350" lon="-4.252167">
        <ele>162.0</ele>
        <time>2015-04-28T14:38:04Z</time>
      </trkpt>
      <trkpt lat="43.303350" lon="-4.252183">
        <ele>162.0</ele>
        <time>2015-04-28T14:38:05Z</time>
      </trkpt>
      <trkpt lat="43.303350" lon="-4.252200">
        <ele>162.0</ele>
        <time>2015-04-28T14:38:06Z</time>
      </trkpt>
      <trkpt lat="43.303350" lon="-4.252200">
        <ele>162.0</ele>
        <time>2015-04-28T14:38:07Z</time>
      </trkpt>
      <trkpt lat="43.303350" lon="-4.252217">
        <ele>162.0</ele>
        <time>2015-04-28T14:38:08Z</time>
      </trkpt>
      <trkpt lat="43.303333" lon="-4.252217">
        <ele>162.0</ele>
        <time>2015-04-28T14:38:09Z</time>
      </trkpt>
      <trkpt lat="43.303333" lon="-4.252217">
        <ele>162.0</ele>
        <time>2015-04-28T14:38:10Z</time>
      </trkpt>
      <trkpt lat="43.303333" lon="-4.252233">
        <ele>163.0</ele>
        <time>2015-04-28T14:38:11Z</time>
      </trkpt>
      <trkpt lat="43.303333" lon="-4.252250">
        <ele>163.0</ele>
        <time>2015-04-28T14:38:12Z</time>
      </trkpt>
      <trkpt lat="43.303333" lon="-4.252250">
        <ele>163.0</ele>
        <time>2015-04-28T14:38:13Z</time>
      </trkpt>
      <trkpt lat="43.303333" lon="-4.252267">
        <ele>163.0</ele>
        <time>2015-04-28T14:38:14Z</time>
      </trkpt>
      <trkpt lat="43.303333" lon="-4.252283">
        <ele>163.0</ele>
        <time>2015-04-28T14:38:15Z</time>
      </trkpt>
      <trkpt lat="43.303333" lon="-4.252283">
        <ele>163.0</ele>
        <time>2015-04-28T14:38:16Z</time>
      </trkpt>
      <trkpt lat="43.303333" lon="-4.252300">
        <ele>163.0</ele>
        <time>2015-04-28T14:38:17Z</time>
      </trkpt>
      <trkpt lat="43.303333" lon="-4.252317">
        <ele>163.0</ele>
        <time>2015-04-28T14:38:18Z</time>
      </trkpt>
      <trkpt lat="43.303333" lon="-4.252333">
        <ele>163.0</ele>
        <time>2015-04-28T14:38:19Z</time>
      </trkpt>
      <trkpt lat="43.303333" lon="-4.252350">
        <ele>163.0</ele>
        <time>2015-04-28T14:38:20Z</time>
      </trkpt>
      <trkpt lat="43.303333" lon="-4.252350">
        <ele>163.0</ele>
        <time>2015-04-28T14:38:21Z</time>
      </trkpt>
      <trkpt lat="43.303333" lon="-4.252367">
        <ele>163.0</ele>
        <time>2015-04-28T14:38:22Z</time>
      </trkpt>
      <trkpt lat="43.303333" lon="-4.252383">
        <ele>163.0</ele>
        <time>2015-04-28T14:38:23Z</time>
      </trkpt>
      <trkpt lat="43.303333" lon="-4.252383">
        <ele>163.0</ele>
        <time>2015-04-28T14:38:24Z</time>
      </trkpt>
      <trkpt lat="43.303333" lon="-4.252383">
        <ele>163.0</ele>
        <time>2015-04-28T14:38:25Z</time>
      </trkpt>
      <trkpt lat="43.303333" lon="-4.252400">
        <ele>163.0</ele>
        <time>2015-04-28T14:38:26Z</time>
      </trkpt>
      <trkpt lat="43.303333" lon="-4.252400">
        <ele>163.0</ele>
        <time>2015-04-28T14:38:27Z</time>
      </trkpt>
      <trkpt lat="43.303333" lon="-4.252400">
        <ele>163.0</ele>
        <time>2015-04-28T14:38:28Z</time>
      </trkpt>
      <trkpt lat="43.303333" lon="-4.252417">
        <ele>163.0</ele>
        <time>2015-04-28T14:38:29Z</time>
      </trkpt>
      <trkpt lat="43.303333" lon="-4.252417">
        <ele>163.0</ele>
        <time>2015-04-28T14:38:30Z</time>
      </trkpt>
      <trkpt lat="43.303333" lon="-4.252400">
        <ele>163.0</ele>
        <time>2015-04-28T14:38:31Z</time>
      </trkpt>
      <trkpt lat="43.303317" lon="-4.252417">
        <ele>164.0</ele>
        <time>2015-04-28T14:38:32Z</time>
      </trkpt>
      <trkpt lat="43.303317" lon="-4.252417">
        <ele>164.0</ele>
        <time>2015-04-28T14:38:33Z</time>
      </trkpt>
      <trkpt lat="43.303317" lon="-4.252417">
        <ele>164.0</ele>
        <time>2015-04-28T14:38:34Z</time>
      </trkpt>
      <trkpt lat="43.303317" lon="-4.252417">
        <ele>164.0</ele>
        <time>2015-04-28T14:38:35Z</time>
      </trkpt>
      <trkpt lat="43.303317" lon="-4.252417">
        <ele>164.0</ele>
        <time>2015-04-28T14:38:36Z</time>
      </trkpt>
      <trkpt lat="43.303317" lon="-4.252417">
        <ele>165.0</ele>
        <time>2015-04-28T14:38:37Z</time>
      </trkpt>
      <trkpt lat="43.303317" lon="-4.252417">
        <ele>165.0</ele>
        <time>2015-04-28T14:38:38Z</time>
      </trkpt>
      <trkpt lat="43.303317" lon="-4.252417">
        <ele>165.0</ele>
        <time>2015-04-28T14:38:39Z</time>
      </trkpt>
      <trkpt lat="43.303317" lon="-4.252417">
        <ele>165.0</ele>
        <time>2015-04-28T14:38:40Z</time>
      </trkpt>
      <trkpt lat="43.303317" lon="-4.252417">
        <ele>165.0</ele>
        <time>2015-04-28T14:38:41Z</time>
      </trkpt>
      <trkpt lat="43.303317" lon="-4.252417">
        <ele>165.0</ele>
        <time>2015-04-28T14:38:42Z</time>
      </trkpt>
      <trkpt lat="43.303317" lon="-4.252417">
        <ele>165.0</ele>
        <time>2015-04-28T14:38:43Z</time>
      </trkpt>
      <trkpt lat="43.303317" lon="-4.252400">
        <ele>165.0</ele>
        <time>2015-04-28T14:38:44Z</time>
      </trkpt>
      <trkpt lat="43.303333" lon="-4.252400">
        <ele>165.0</ele>
        <time>2015-04-28T14:38:45Z</time>
      </trkpt>
      <trkpt lat="43.303317" lon="-4.252400">
        <ele>165.0</ele>
        <time>2015-04-28T14:38:46Z</time>
      </trkpt>
      <trkpt lat="43.303317" lon="-4.252400">
        <ele>165.0</ele>
        <time>2015-04-28T14:38:47Z</time>
      </trkpt>
      <trkpt lat="43.303317" lon="-4.252400">
        <ele>165.0</ele>
        <time>2015-04-28T14:38:48Z</time>
      </trkpt>
    </trkseg>
  </trk>
</gpx>
